<?xml version="1.0" encoding="UTF-8" standalone="no" ?>
<gpx xmlns="http://www.topografix.com/GPX/1/1" xmlns:xsi="http://www.w3.org/2001/XMLSchema-instance" xsi:schemaLocation="http://www.topografix.com/GPX/1/1 http://www.topografix.com/GPX/1/1/gpx.xsd" version="1.1" creator="VisuGPX - https://www.visugpx.com">
  <metadata>
    <name>velo_2020</name>
    <desc><![CDATA[Export from GpsPrune]]></desc>
  </metadata>
  <trk>
    <name><![CDATA[velo_2020]]></name>
    <trkseg>
      <trkpt lat="45.45217" lon="4.33276">
        <ele>599</ele>
        <time>2019-12-18T23:31:03Z</time>
      </trkpt>
      <trkpt lat="45.45597" lon="4.33106">
        <ele>608</ele>
        <time>2019-12-18T23:32:14Z</time>
      </trkpt>
      <trkpt lat="45.45673" lon="4.33034">
        <ele>607</ele>
        <time>2019-12-18T23:32:30Z</time>
      </trkpt>
      <trkpt lat="45.45765" lon="4.32918">
        <ele>608</ele>
        <time>2019-12-18T23:32:52Z</time>
      </trkpt>
      <trkpt lat="45.4604" lon="4.32673">
        <ele>583</ele>
        <time>2019-12-18T23:33:50Z</time>
      </trkpt>
      <trkpt lat="45.46205" lon="4.32535">
        <ele>573</ele>
        <time>2019-12-18T23:34:24Z</time>
      </trkpt>
      <trkpt lat="45.46242" lon="4.32498">
        <ele>575</ele>
        <time>2019-12-18T23:34:32Z</time>
      </trkpt>
      <trkpt lat="45.46264" lon="4.32454">
        <ele>574</ele>
        <time>2019-12-18T23:34:38Z</time>
      </trkpt>
      <trkpt lat="45.46278" lon="4.3245">
        <ele>574</ele>
        <time>2019-12-18T23:34:41Z</time>
      </trkpt>
      <trkpt lat="45.46297" lon="4.32469">
        <ele>574</ele>
        <time>2019-12-18T23:34:45Z</time>
      </trkpt>
      <trkpt lat="45.46324" lon="4.32428">
        <ele>573</ele>
        <time>2019-12-18T23:34:52Z</time>
      </trkpt>
      <trkpt lat="45.46413" lon="4.32272">
        <ele>576</ele>
        <time>2019-12-18T23:35:17Z</time>
      </trkpt>
      <trkpt lat="45.4645" lon="4.32212">
        <ele>575</ele>
        <time>2019-12-18T23:35:27Z</time>
      </trkpt>
      <trkpt lat="45.46488" lon="4.32182">
        <ele>574</ele>
        <time>2019-12-18T23:35:35Z</time>
      </trkpt>
      <trkpt lat="45.4651" lon="4.32183">
        <ele>573</ele>
        <time>2019-12-18T23:35:39Z</time>
      </trkpt>
      <trkpt lat="45.46515" lon="4.32179">
        <ele>573</ele>
        <time>2019-12-18T23:35:40Z</time>
      </trkpt>
      <trkpt lat="45.4652" lon="4.32173">
        <ele>572</ele>
        <time>2019-12-18T23:35:41Z</time>
      </trkpt>
      <trkpt lat="45.46522" lon="4.32165">
        <ele>572</ele>
        <time>2019-12-18T23:35:42Z</time>
      </trkpt>
      <trkpt lat="45.46523" lon="4.32156">
        <ele>572</ele>
        <time>2019-12-18T23:35:43Z</time>
      </trkpt>
      <trkpt lat="45.46522" lon="4.32148">
        <ele>572</ele>
        <time>2019-12-18T23:35:44Z</time>
      </trkpt>
      <trkpt lat="45.46518" lon="4.32139">
        <ele>572</ele>
        <time>2019-12-18T23:35:46Z</time>
      </trkpt>
      <trkpt lat="45.46526" lon="4.32101">
        <ele>571</ele>
        <time>2019-12-18T23:35:51Z</time>
      </trkpt>
      <trkpt lat="45.46616" lon="4.31923">
        <ele>579</ele>
        <time>2019-12-18T23:36:18Z</time>
      </trkpt>
      <trkpt lat="45.46721" lon="4.31744">
        <ele>585</ele>
        <time>2019-12-18T23:36:47Z</time>
      </trkpt>
      <trkpt lat="45.46779" lon="4.31582">
        <ele>599</ele>
        <time>2019-12-18T23:37:10Z</time>
      </trkpt>
      <trkpt lat="45.46929" lon="4.31393">
        <ele>602</ele>
        <time>2019-12-18T23:37:45Z</time>
      </trkpt>
      <trkpt lat="45.4708" lon="4.31164">
        <ele>604</ele>
        <time>2019-12-18T23:38:25Z</time>
      </trkpt>
      <trkpt lat="45.47111" lon="4.31139">
        <ele>603</ele>
        <time>2019-12-18T23:38:31Z</time>
      </trkpt>
      <trkpt lat="45.47132" lon="4.3113">
        <ele>603</ele>
        <time>2019-12-18T23:38:35Z</time>
      </trkpt>
      <trkpt lat="45.47199" lon="4.31118">
        <ele>601</ele>
        <time>2019-12-18T23:38:47Z</time>
      </trkpt>
      <trkpt lat="45.47256" lon="4.31113">
        <ele>601</ele>
        <time>2019-12-18T23:38:57Z</time>
      </trkpt>
      <trkpt lat="45.47269" lon="4.31107">
        <ele>602</ele>
        <time>2019-12-18T23:38:59Z</time>
      </trkpt>
      <trkpt lat="45.47309" lon="4.31103">
        <ele>604</ele>
        <time>2019-12-18T23:39:07Z</time>
      </trkpt>
      <trkpt lat="45.47315" lon="4.31098">
        <ele>605</ele>
        <time>2019-12-18T23:39:08Z</time>
      </trkpt>
      <trkpt lat="45.47365" lon="4.31096">
        <ele>607</ele>
        <time>2019-12-18T23:39:17Z</time>
      </trkpt>
      <trkpt lat="45.47532" lon="4.31077">
        <ele>614</ele>
        <time>2019-12-18T23:39:47Z</time>
      </trkpt>
      <trkpt lat="45.4755" lon="4.31071">
        <ele>615</ele>
        <time>2019-12-18T23:39:50Z</time>
      </trkpt>
      <trkpt lat="45.47564" lon="4.31063">
        <ele>616</ele>
        <time>2019-12-18T23:39:52Z</time>
      </trkpt>
      <trkpt lat="45.47819" lon="4.30844">
        <ele>626</ele>
        <time>2019-12-18T23:40:45Z</time>
      </trkpt>
      <trkpt lat="45.47859" lon="4.30795">
        <ele>627</ele>
        <time>2019-12-18T23:40:55Z</time>
      </trkpt>
      <trkpt lat="45.47871" lon="4.30764">
        <ele>628</ele>
        <time>2019-12-18T23:40:59Z</time>
      </trkpt>
      <trkpt lat="45.47877" lon="4.3072">
        <ele>629</ele>
        <time>2019-12-18T23:41:05Z</time>
      </trkpt>
      <trkpt lat="45.47873" lon="4.30674">
        <ele>631</ele>
        <time>2019-12-18T23:41:11Z</time>
      </trkpt>
      <trkpt lat="45.47865" lon="4.30628">
        <ele>631</ele>
        <time>2019-12-18T23:41:17Z</time>
      </trkpt>
      <trkpt lat="45.47859" lon="4.30565">
        <ele>632</ele>
        <time>2019-12-18T23:41:24Z</time>
      </trkpt>
      <trkpt lat="45.47863" lon="4.3049">
        <ele>633</ele>
        <time>2019-12-18T23:41:34Z</time>
      </trkpt>
      <trkpt lat="45.47877" lon="4.30305">
        <ele>635</ele>
        <time>2019-12-18T23:41:57Z</time>
      </trkpt>
      <trkpt lat="45.47891" lon="4.30255">
        <ele>633</ele>
        <time>2019-12-18T23:42:04Z</time>
      </trkpt>
      <trkpt lat="45.48056" lon="4.29895">
        <ele>631</ele>
        <time>2019-12-18T23:42:57Z</time>
      </trkpt>
      <trkpt lat="45.48089" lon="4.29821">
        <ele>630</ele>
        <time>2019-12-18T23:43:08Z</time>
      </trkpt>
      <trkpt lat="45.48094" lon="4.29803">
        <ele>629</ele>
        <time>2019-12-18T23:43:11Z</time>
      </trkpt>
      <trkpt lat="45.48097" lon="4.29775">
        <ele>629</ele>
        <time>2019-12-18T23:43:14Z</time>
      </trkpt>
      <trkpt lat="45.48095" lon="4.29744">
        <ele>629</ele>
        <time>2019-12-18T23:43:18Z</time>
      </trkpt>
      <trkpt lat="45.48087" lon="4.2972">
        <ele>629</ele>
        <time>2019-12-18T23:43:22Z</time>
      </trkpt>
      <trkpt lat="45.48082" lon="4.2971">
        <ele>629</ele>
        <time>2019-12-18T23:43:23Z</time>
      </trkpt>
      <trkpt lat="45.4807" lon="4.29692">
        <ele>629</ele>
        <time>2019-12-18T23:43:26Z</time>
      </trkpt>
      <trkpt lat="45.47994" lon="4.29617">
        <ele>627</ele>
        <time>2019-12-18T23:43:43Z</time>
      </trkpt>
      <trkpt lat="45.47967" lon="4.2958">
        <ele>627</ele>
        <time>2019-12-18T23:43:49Z</time>
      </trkpt>
      <trkpt lat="45.47941" lon="4.295">
        <ele>616</ele>
        <time>2019-12-18T23:44:00Z</time>
      </trkpt>
      <trkpt lat="45.47912" lon="4.29459">
        <ele>614</ele>
        <time>2019-12-18T23:44:08Z</time>
      </trkpt>
      <trkpt lat="45.47613" lon="4.29155">
        <ele>597</ele>
        <time>2019-12-18T23:45:13Z</time>
      </trkpt>
      <trkpt lat="45.47591" lon="4.29127">
        <ele>595</ele>
        <time>2019-12-18T23:45:18Z</time>
      </trkpt>
      <trkpt lat="45.47567" lon="4.29079">
        <ele>591</ele>
        <time>2019-12-18T23:45:25Z</time>
      </trkpt>
      <trkpt lat="45.4753" lon="4.28899">
        <ele>583</ele>
        <time>2019-12-18T23:45:49Z</time>
      </trkpt>
      <trkpt lat="45.47531" lon="4.28844">
        <ele>582</ele>
        <time>2019-12-18T23:45:56Z</time>
      </trkpt>
      <trkpt lat="45.47545" lon="4.28685">
        <ele>582</ele>
        <time>2019-12-18T23:46:16Z</time>
      </trkpt>
      <trkpt lat="45.47546" lon="4.2861">
        <ele>580</ele>
        <time>2019-12-18T23:46:25Z</time>
      </trkpt>
      <trkpt lat="45.47532" lon="4.28561">
        <ele>578</ele>
        <time>2019-12-18T23:46:32Z</time>
      </trkpt>
      <trkpt lat="45.47425" lon="4.28437">
        <ele>573</ele>
        <time>2019-12-18T23:46:56Z</time>
      </trkpt>
      <trkpt lat="45.47395" lon="4.28373">
        <ele>569</ele>
        <time>2019-12-18T23:47:06Z</time>
      </trkpt>
      <trkpt lat="45.47385" lon="4.28168">
        <ele>558</ele>
        <time>2019-12-18T23:47:31Z</time>
      </trkpt>
      <trkpt lat="45.47387" lon="4.281">
        <ele>556</ele>
        <time>2019-12-18T23:47:40Z</time>
      </trkpt>
      <trkpt lat="45.47386" lon="4.28078">
        <ele>555</ele>
        <time>2019-12-18T23:47:43Z</time>
      </trkpt>
      <trkpt lat="45.47375" lon="4.28025">
        <ele>552</ele>
        <time>2019-12-18T23:47:50Z</time>
      </trkpt>
      <trkpt lat="45.47363" lon="4.28006">
        <ele>552</ele>
        <time>2019-12-18T23:47:53Z</time>
      </trkpt>
      <trkpt lat="45.4734" lon="4.27983">
        <ele>552</ele>
        <time>2019-12-18T23:47:58Z</time>
      </trkpt>
      <trkpt lat="45.47287" lon="4.27963">
        <ele>550</ele>
        <time>2019-12-18T23:48:08Z</time>
      </trkpt>
      <trkpt lat="45.47248" lon="4.27944">
        <ele>549</ele>
        <time>2019-12-18T23:48:15Z</time>
      </trkpt>
      <trkpt lat="45.47208" lon="4.27887">
        <ele>550</ele>
        <time>2019-12-18T23:48:25Z</time>
      </trkpt>
      <trkpt lat="45.47196" lon="4.27835">
        <ele>549</ele>
        <time>2019-12-18T23:48:32Z</time>
      </trkpt>
      <trkpt lat="45.47197" lon="4.27786">
        <ele>548</ele>
        <time>2019-12-18T23:48:38Z</time>
      </trkpt>
      <trkpt lat="45.47203" lon="4.27721">
        <ele>547</ele>
        <time>2019-12-18T23:48:46Z</time>
      </trkpt>
      <trkpt lat="45.47216" lon="4.27644">
        <ele>547</ele>
        <time>2019-12-18T23:48:56Z</time>
      </trkpt>
      <trkpt lat="45.47234" lon="4.27599">
        <ele>545</ele>
        <time>2019-12-18T23:49:02Z</time>
      </trkpt>
      <trkpt lat="45.4725" lon="4.27545">
        <ele>543</ele>
        <time>2019-12-18T23:49:10Z</time>
      </trkpt>
      <trkpt lat="45.47261" lon="4.27484">
        <ele>542</ele>
        <time>2019-12-18T23:49:18Z</time>
      </trkpt>
      <trkpt lat="45.47268" lon="4.27416">
        <ele>542</ele>
        <time>2019-12-18T23:49:26Z</time>
      </trkpt>
      <trkpt lat="45.47266" lon="4.27361">
        <ele>541</ele>
        <time>2019-12-18T23:49:33Z</time>
      </trkpt>
      <trkpt lat="45.47238" lon="4.27313">
        <ele>542</ele>
        <time>2019-12-18T23:49:41Z</time>
      </trkpt>
      <trkpt lat="45.47186" lon="4.27243">
        <ele>542</ele>
        <time>2019-12-18T23:49:54Z</time>
      </trkpt>
      <trkpt lat="45.47174" lon="4.27202">
        <ele>541</ele>
        <time>2019-12-18T23:49:59Z</time>
      </trkpt>
      <trkpt lat="45.47172" lon="4.2716">
        <ele>539</ele>
        <time>2019-12-18T23:50:04Z</time>
      </trkpt>
      <trkpt lat="45.47167" lon="4.27114">
        <ele>538</ele>
        <time>2019-12-18T23:50:10Z</time>
      </trkpt>
      <trkpt lat="45.4716" lon="4.27078">
        <ele>537</ele>
        <time>2019-12-18T23:50:15Z</time>
      </trkpt>
      <trkpt lat="45.47143" lon="4.27042">
        <ele>535</ele>
        <time>2019-12-18T23:50:20Z</time>
      </trkpt>
      <trkpt lat="45.47022" lon="4.26899">
        <ele>532</ele>
        <time>2019-12-18T23:50:48Z</time>
      </trkpt>
      <trkpt lat="45.47001" lon="4.26863">
        <ele>531</ele>
        <time>2019-12-18T23:50:54Z</time>
      </trkpt>
      <trkpt lat="45.46987" lon="4.26821">
        <ele>528</ele>
        <time>2019-12-18T23:51:00Z</time>
      </trkpt>
      <trkpt lat="45.46982" lon="4.26778">
        <ele>525</ele>
        <time>2019-12-18T23:51:05Z</time>
      </trkpt>
      <trkpt lat="45.46984" lon="4.26728">
        <ele>524</ele>
        <time>2019-12-18T23:51:12Z</time>
      </trkpt>
      <trkpt lat="45.46993" lon="4.26667">
        <ele>523</ele>
        <time>2019-12-18T23:51:19Z</time>
      </trkpt>
      <trkpt lat="45.47003" lon="4.26617">
        <ele>522</ele>
        <time>2019-12-18T23:51:26Z</time>
      </trkpt>
      <trkpt lat="45.47021" lon="4.26576">
        <ele>520</ele>
        <time>2019-12-18T23:51:32Z</time>
      </trkpt>
      <trkpt lat="45.47044" lon="4.26543">
        <ele>519</ele>
        <time>2019-12-18T23:51:38Z</time>
      </trkpt>
      <trkpt lat="45.47106" lon="4.26485">
        <ele>513</ele>
        <time>2019-12-18T23:51:51Z</time>
      </trkpt>
      <trkpt lat="45.47121" lon="4.26438">
        <ele>511</ele>
        <time>2019-12-18T23:51:57Z</time>
      </trkpt>
      <trkpt lat="45.47124" lon="4.26394">
        <ele>510</ele>
        <time>2019-12-18T23:52:03Z</time>
      </trkpt>
      <trkpt lat="45.47106" lon="4.26345">
        <ele>509</ele>
        <time>2019-12-18T23:52:10Z</time>
      </trkpt>
      <trkpt lat="45.47062" lon="4.26245">
        <ele>509</ele>
        <time>2019-12-18T23:52:24Z</time>
      </trkpt>
      <trkpt lat="45.47057" lon="4.26203">
        <ele>508</ele>
        <time>2019-12-18T23:52:30Z</time>
      </trkpt>
      <trkpt lat="45.4706" lon="4.26169">
        <ele>507</ele>
        <time>2019-12-18T23:52:34Z</time>
      </trkpt>
      <trkpt lat="45.47073" lon="4.2612">
        <ele>504</ele>
        <time>2019-12-18T23:52:41Z</time>
      </trkpt>
      <trkpt lat="45.47083" lon="4.26098">
        <ele>504</ele>
        <time>2019-12-18T23:52:44Z</time>
      </trkpt>
      <trkpt lat="45.47095" lon="4.26083">
        <ele>503</ele>
        <time>2019-12-18T23:52:47Z</time>
      </trkpt>
      <trkpt lat="45.47102" lon="4.26069">
        <ele>503</ele>
        <time>2019-12-18T23:52:49Z</time>
      </trkpt>
      <trkpt lat="45.47128" lon="4.2605">
        <ele>502</ele>
        <time>2019-12-18T23:52:54Z</time>
      </trkpt>
      <trkpt lat="45.47215" lon="4.26014">
        <ele>500</ele>
        <time>2019-12-18T23:53:10Z</time>
      </trkpt>
      <trkpt lat="45.47241" lon="4.25981">
        <ele>500</ele>
        <time>2019-12-18T23:53:16Z</time>
      </trkpt>
      <trkpt lat="45.47253" lon="4.25944">
        <ele>499</ele>
        <time>2019-12-18T23:53:21Z</time>
      </trkpt>
      <trkpt lat="45.47255" lon="4.25869">
        <ele>497</ele>
        <time>2019-12-18T23:53:31Z</time>
      </trkpt>
      <trkpt lat="45.47234" lon="4.25738">
        <ele>491</ele>
        <time>2019-12-18T23:53:48Z</time>
      </trkpt>
      <trkpt lat="45.47223" lon="4.25689">
        <ele>490</ele>
        <time>2019-12-18T23:53:54Z</time>
      </trkpt>
      <trkpt lat="45.47216" lon="4.25669">
        <ele>489</ele>
        <time>2019-12-18T23:53:57Z</time>
      </trkpt>
      <trkpt lat="45.472" lon="4.25633">
        <ele>489</ele>
        <time>2019-12-18T23:54:02Z</time>
      </trkpt>
      <trkpt lat="45.47185" lon="4.25605">
        <ele>488</ele>
        <time>2019-12-18T23:54:06Z</time>
      </trkpt>
      <trkpt lat="45.4716" lon="4.25572">
        <ele>488</ele>
        <time>2019-12-18T23:54:13Z</time>
      </trkpt>
      <trkpt lat="45.47139" lon="4.2555">
        <ele>487</ele>
        <time>2019-12-18T23:54:17Z</time>
      </trkpt>
      <trkpt lat="45.47109" lon="4.25526">
        <ele>487</ele>
        <time>2019-12-18T23:54:23Z</time>
      </trkpt>
      <trkpt lat="45.47006" lon="4.25465">
        <ele>485</ele>
        <time>2019-12-18T23:54:43Z</time>
      </trkpt>
      <trkpt lat="45.46962" lon="4.25445">
        <ele>484</ele>
        <time>2019-12-18T23:54:51Z</time>
      </trkpt>
      <trkpt lat="45.46877" lon="4.25424">
        <ele>482</ele>
        <time>2019-12-18T23:55:07Z</time>
      </trkpt>
      <trkpt lat="45.46817" lon="4.25411">
        <ele>476</ele>
        <time>2019-12-18T23:55:17Z</time>
      </trkpt>
      <trkpt lat="45.46805" lon="4.25404">
        <ele>475</ele>
        <time>2019-12-18T23:55:20Z</time>
      </trkpt>
      <trkpt lat="45.4675" lon="4.25354">
        <ele>471</ele>
        <time>2019-12-18T23:55:31Z</time>
      </trkpt>
      <trkpt lat="45.46737" lon="4.25337">
        <ele>470</ele>
        <time>2019-12-18T23:55:35Z</time>
      </trkpt>
      <trkpt lat="45.46726" lon="4.25317">
        <ele>469</ele>
        <time>2019-12-18T23:55:38Z</time>
      </trkpt>
      <trkpt lat="45.46696" lon="4.25238">
        <ele>466</ele>
        <time>2019-12-18T23:55:49Z</time>
      </trkpt>
      <trkpt lat="45.46689" lon="4.25207">
        <ele>465</ele>
        <time>2019-12-18T23:55:53Z</time>
      </trkpt>
      <trkpt lat="45.46684" lon="4.25174">
        <ele>464</ele>
        <time>2019-12-18T23:55:57Z</time>
      </trkpt>
      <trkpt lat="45.46688" lon="4.25149">
        <ele>462</ele>
        <time>2019-12-18T23:56:00Z</time>
      </trkpt>
      <trkpt lat="45.46695" lon="4.2513">
        <ele>460</ele>
        <time>2019-12-18T23:56:03Z</time>
      </trkpt>
      <trkpt lat="45.46713" lon="4.25104">
        <ele>459</ele>
        <time>2019-12-18T23:56:08Z</time>
      </trkpt>
      <trkpt lat="45.46758" lon="4.25051">
        <ele>454</ele>
        <time>2019-12-18T23:56:18Z</time>
      </trkpt>
      <trkpt lat="45.46774" lon="4.25039">
        <ele>451</ele>
        <time>2019-12-18T23:56:21Z</time>
      </trkpt>
      <trkpt lat="45.4679" lon="4.25034">
        <ele>450</ele>
        <time>2019-12-18T23:56:24Z</time>
      </trkpt>
      <trkpt lat="45.46812" lon="4.25031">
        <ele>449</ele>
        <time>2019-12-18T23:56:28Z</time>
      </trkpt>
      <trkpt lat="45.46832" lon="4.25037">
        <ele>450</ele>
        <time>2019-12-18T23:56:32Z</time>
      </trkpt>
      <trkpt lat="45.46868" lon="4.25061">
        <ele>454</ele>
        <time>2019-12-18T23:56:39Z</time>
      </trkpt>
      <trkpt lat="45.46878" lon="4.25065">
        <ele>455</ele>
        <time>2019-12-18T23:56:41Z</time>
      </trkpt>
      <trkpt lat="45.46889" lon="4.25064">
        <ele>454</ele>
        <time>2019-12-18T23:56:43Z</time>
      </trkpt>
      <trkpt lat="45.46899" lon="4.2506">
        <ele>453</ele>
        <time>2019-12-18T23:56:44Z</time>
      </trkpt>
      <trkpt lat="45.46911" lon="4.25046">
        <ele>450</ele>
        <time>2019-12-18T23:56:47Z</time>
      </trkpt>
      <trkpt lat="45.46949" lon="4.24985">
        <ele>443</ele>
        <time>2019-12-18T23:56:57Z</time>
      </trkpt>
      <trkpt lat="45.46952" lon="4.2497">
        <ele>439</ele>
        <time>2019-12-18T23:56:59Z</time>
      </trkpt>
      <trkpt lat="45.4695" lon="4.24952">
        <ele>435</ele>
        <time>2019-12-18T23:57:02Z</time>
      </trkpt>
      <trkpt lat="45.46945" lon="4.24939">
        <ele>431</ele>
        <time>2019-12-18T23:57:03Z</time>
      </trkpt>
      <trkpt lat="45.46933" lon="4.2493">
        <ele>427</ele>
        <time>2019-12-18T23:57:06Z</time>
      </trkpt>
      <trkpt lat="45.46921" lon="4.24928">
        <ele>425</ele>
        <time>2019-12-18T23:57:08Z</time>
      </trkpt>
      <trkpt lat="45.46913" lon="4.24932">
        <ele>424</ele>
        <time>2019-12-18T23:57:10Z</time>
      </trkpt>
      <trkpt lat="45.46904" lon="4.2494">
        <ele>426</ele>
        <time>2019-12-18T23:57:11Z</time>
      </trkpt>
      <trkpt lat="45.46888" lon="4.24982">
        <ele>436</ele>
        <time>2019-12-18T23:57:17Z</time>
      </trkpt>
      <trkpt lat="45.46877" lon="4.24994">
        <ele>439</ele>
        <time>2019-12-18T23:57:20Z</time>
      </trkpt>
      <trkpt lat="45.46866" lon="4.24995">
        <ele>439</ele>
        <time>2019-12-18T23:57:22Z</time>
      </trkpt>
      <trkpt lat="45.46856" lon="4.24991">
        <ele>438</ele>
        <time>2019-12-18T23:57:24Z</time>
      </trkpt>
      <trkpt lat="45.46821" lon="4.24959">
        <ele>426</ele>
        <time>2019-12-18T23:57:31Z</time>
      </trkpt>
      <trkpt lat="45.46807" lon="4.24952">
        <ele>424</ele>
        <time>2019-12-18T23:57:34Z</time>
      </trkpt>
      <trkpt lat="45.46757" lon="4.24944">
        <ele>423</ele>
        <time>2019-12-18T23:57:43Z</time>
      </trkpt>
      <trkpt lat="45.46714" lon="4.24898">
        <ele>415</ele>
        <time>2019-12-18T23:57:52Z</time>
      </trkpt>
      <trkpt lat="45.467" lon="4.24876">
        <ele>414</ele>
        <time>2019-12-18T23:57:56Z</time>
      </trkpt>
      <trkpt lat="45.46693" lon="4.24847">
        <ele>413</ele>
        <time>2019-12-18T23:58:00Z</time>
      </trkpt>
      <trkpt lat="45.46689" lon="4.2482">
        <ele>413</ele>
        <time>2019-12-18T23:58:03Z</time>
      </trkpt>
      <trkpt lat="45.46693" lon="4.24792">
        <ele>413</ele>
        <time>2019-12-18T23:58:07Z</time>
      </trkpt>
      <trkpt lat="45.467" lon="4.24767">
        <ele>413</ele>
        <time>2019-12-18T23:58:10Z</time>
      </trkpt>
      <trkpt lat="45.46715" lon="4.24742">
        <ele>412</ele>
        <time>2019-12-18T23:58:14Z</time>
      </trkpt>
      <trkpt lat="45.46759" lon="4.24693">
        <ele>416</ele>
        <time>2019-12-18T23:58:24Z</time>
      </trkpt>
      <trkpt lat="45.46772" lon="4.24675">
        <ele>416</ele>
        <time>2019-12-18T23:58:27Z</time>
      </trkpt>
      <trkpt lat="45.46814" lon="4.24605">
        <ele>417</ele>
        <time>2019-12-18T23:58:39Z</time>
      </trkpt>
      <trkpt lat="45.46821" lon="4.24587">
        <ele>420</ele>
        <time>2019-12-18T23:58:41Z</time>
      </trkpt>
      <trkpt lat="45.46823" lon="4.24569">
        <ele>420</ele>
        <time>2019-12-18T23:58:44Z</time>
      </trkpt>
      <trkpt lat="45.46813" lon="4.24517">
        <ele>424</ele>
        <time>2019-12-18T23:58:50Z</time>
      </trkpt>
      <trkpt lat="45.46813" lon="4.24499">
        <ele>424</ele>
        <time>2019-12-18T23:58:53Z</time>
      </trkpt>
      <trkpt lat="45.46817" lon="4.2448">
        <ele>423</ele>
        <time>2019-12-18T23:58:55Z</time>
      </trkpt>
      <trkpt lat="45.46824" lon="4.24467">
        <ele>422</ele>
        <time>2019-12-18T23:58:57Z</time>
      </trkpt>
      <trkpt lat="45.46836" lon="4.24458">
        <ele>421</ele>
        <time>2019-12-18T23:59:00Z</time>
      </trkpt>
      <trkpt lat="45.46863" lon="4.24445">
        <ele>419</ele>
        <time>2019-12-18T23:59:05Z</time>
      </trkpt>
      <trkpt lat="45.46873" lon="4.24437">
        <ele>418</ele>
        <time>2019-12-18T23:59:07Z</time>
      </trkpt>
      <trkpt lat="45.4688" lon="4.24427">
        <ele>417</ele>
        <time>2019-12-18T23:59:08Z</time>
      </trkpt>
      <trkpt lat="45.46884" lon="4.24411">
        <ele>417</ele>
        <time>2019-12-18T23:59:11Z</time>
      </trkpt>
      <trkpt lat="45.46884" lon="4.24395">
        <ele>417</ele>
        <time>2019-12-18T23:59:13Z</time>
      </trkpt>
      <trkpt lat="45.46882" lon="4.24381">
        <ele>418</ele>
        <time>2019-12-18T23:59:14Z</time>
      </trkpt>
      <trkpt lat="45.46861" lon="4.24302">
        <ele>422</ele>
        <time>2019-12-18T23:59:25Z</time>
      </trkpt>
      <trkpt lat="45.46821" lon="4.24245">
        <ele>427</ele>
        <time>2019-12-18T23:59:35Z</time>
      </trkpt>
      <trkpt lat="45.46808" lon="4.24222">
        <ele>430</ele>
        <time>2019-12-18T23:59:39Z</time>
      </trkpt>
      <trkpt lat="45.46779" lon="4.24105">
        <ele>432</ele>
        <time>2019-12-18T23:59:54Z</time>
      </trkpt>
      <trkpt lat="45.46776" lon="4.24083">
        <ele>431</ele>
        <time>2019-12-18T23:59:57Z</time>
      </trkpt>
      <trkpt lat="45.46779" lon="4.24066">
        <ele>431</ele>
        <time>2019-12-18T23:59:59Z</time>
      </trkpt>
      <trkpt lat="45.46787" lon="4.24057">
        <ele>431</ele>
        <time>2019-12-19T00:00:01Z</time>
      </trkpt>
      <trkpt lat="45.46797" lon="4.24054">
        <ele>431</ele>
        <time>2019-12-19T00:00:03Z</time>
      </trkpt>
      <trkpt lat="45.46809" lon="4.24064">
        <ele>430</ele>
        <time>2019-12-19T00:00:05Z</time>
      </trkpt>
      <trkpt lat="45.46824" lon="4.24097">
        <ele>425</ele>
        <time>2019-12-19T00:00:10Z</time>
      </trkpt>
      <trkpt lat="45.46839" lon="4.24115">
        <ele>425</ele>
        <time>2019-12-19T00:00:14Z</time>
      </trkpt>
      <trkpt lat="45.46872" lon="4.24143">
        <ele>429</ele>
        <time>2019-12-19T00:00:20Z</time>
      </trkpt>
      <trkpt lat="45.46915" lon="4.24189">
        <ele>429</ele>
        <time>2019-12-19T00:00:30Z</time>
      </trkpt>
      <trkpt lat="45.47027" lon="4.24245">
        <ele>442</ele>
        <time>2019-12-19T00:00:51Z</time>
      </trkpt>
      <trkpt lat="45.47087" lon="4.2434">
        <ele>446</ele>
        <time>2019-12-19T00:01:07Z</time>
      </trkpt>
      <trkpt lat="45.47105" lon="4.24359">
        <ele>445</ele>
        <time>2019-12-19T00:01:11Z</time>
      </trkpt>
      <trkpt lat="45.47122" lon="4.24367">
        <ele>445</ele>
        <time>2019-12-19T00:01:14Z</time>
      </trkpt>
      <trkpt lat="45.4714" lon="4.24366">
        <ele>446</ele>
        <time>2019-12-19T00:01:17Z</time>
      </trkpt>
      <trkpt lat="45.47161" lon="4.2436">
        <ele>447</ele>
        <time>2019-12-19T00:01:21Z</time>
      </trkpt>
      <trkpt lat="45.47365" lon="4.24241">
        <ele>460</ele>
        <time>2019-12-19T00:02:01Z</time>
      </trkpt>
      <trkpt lat="45.47388" lon="4.24226">
        <ele>461</ele>
        <time>2019-12-19T00:02:05Z</time>
      </trkpt>
      <trkpt lat="45.47392" lon="4.24218">
        <ele>462</ele>
        <time>2019-12-19T00:02:06Z</time>
      </trkpt>
      <trkpt lat="45.4741" lon="4.24232">
        <ele>460</ele>
        <time>2019-12-19T00:02:10Z</time>
      </trkpt>
      <trkpt lat="45.47426" lon="4.24239">
        <ele>458</ele>
        <time>2019-12-19T00:02:13Z</time>
      </trkpt>
      <trkpt lat="45.47447" lon="4.2424">
        <ele>457</ele>
        <time>2019-12-19T00:02:17Z</time>
      </trkpt>
      <trkpt lat="45.47634" lon="4.24199">
        <ele>454</ele>
        <time>2019-12-19T00:02:50Z</time>
      </trkpt>
      <trkpt lat="45.47697" lon="4.24197">
        <ele>451</ele>
        <time>2019-12-19T00:03:01Z</time>
      </trkpt>
      <trkpt lat="45.47812" lon="4.24197">
        <ele>443</ele>
        <time>2019-12-19T00:03:22Z</time>
      </trkpt>
      <trkpt lat="45.47836" lon="4.24181">
        <ele>441</ele>
        <time>2019-12-19T00:03:27Z</time>
      </trkpt>
      <trkpt lat="45.47887" lon="4.24124">
        <ele>440</ele>
        <time>2019-12-19T00:03:38Z</time>
      </trkpt>
      <trkpt lat="45.47954" lon="4.24087">
        <ele>440</ele>
        <time>2019-12-19T00:03:51Z</time>
      </trkpt>
      <trkpt lat="45.48" lon="4.24071">
        <ele>439</ele>
        <time>2019-12-19T00:03:59Z</time>
      </trkpt>
      <trkpt lat="45.48016" lon="4.24067">
        <ele>439</ele>
        <time>2019-12-19T00:04:02Z</time>
      </trkpt>
      <trkpt lat="45.47993" lon="4.24046">
        <ele>437</ele>
        <time>2019-12-19T00:04:07Z</time>
      </trkpt>
      <trkpt lat="45.48013" lon="4.23999">
        <ele>434</ele>
        <time>2019-12-19T00:04:14Z</time>
      </trkpt>
      <trkpt lat="45.48002" lon="4.23976">
        <ele>433</ele>
        <time>2019-12-19T00:04:17Z</time>
      </trkpt>
      <trkpt lat="45.47982" lon="4.23848">
        <ele>431</ele>
        <time>2019-12-19T00:04:34Z</time>
      </trkpt>
      <trkpt lat="45.47985" lon="4.23813">
        <ele>431</ele>
        <time>2019-12-19T00:04:38Z</time>
      </trkpt>
      <trkpt lat="45.47964" lon="4.23775">
        <ele>432</ele>
        <time>2019-12-19T00:04:44Z</time>
      </trkpt>
      <trkpt lat="45.47966" lon="4.23686">
        <ele>432</ele>
        <time>2019-12-19T00:04:55Z</time>
      </trkpt>
      <trkpt lat="45.47968" lon="4.23659">
        <ele>431</ele>
        <time>2019-12-19T00:04:59Z</time>
      </trkpt>
      <trkpt lat="45.47996" lon="4.23484">
        <ele>425</ele>
        <time>2019-12-19T00:05:21Z</time>
      </trkpt>
      <trkpt lat="45.48023" lon="4.23364">
        <ele>428</ele>
        <time>2019-12-19T00:05:37Z</time>
      </trkpt>
      <trkpt lat="45.48034" lon="4.23337">
        <ele>429</ele>
        <time>2019-12-19T00:05:41Z</time>
      </trkpt>
      <trkpt lat="45.48039" lon="4.23317">
        <ele>429</ele>
        <time>2019-12-19T00:05:43Z</time>
      </trkpt>
      <trkpt lat="45.48039" lon="4.23284">
        <ele>430</ele>
        <time>2019-12-19T00:05:48Z</time>
      </trkpt>
      <trkpt lat="45.48042" lon="4.23262">
        <ele>431</ele>
        <time>2019-12-19T00:05:50Z</time>
      </trkpt>
      <trkpt lat="45.4805" lon="4.23217">
        <ele>429</ele>
        <time>2019-12-19T00:05:56Z</time>
      </trkpt>
      <trkpt lat="45.48061" lon="4.23179">
        <ele>428</ele>
        <time>2019-12-19T00:06:01Z</time>
      </trkpt>
      <trkpt lat="45.48061" lon="4.23104">
        <ele>426</ele>
        <time>2019-12-19T00:06:11Z</time>
      </trkpt>
      <trkpt lat="45.48055" lon="4.22975">
        <ele>422</ele>
        <time>2019-12-19T00:06:27Z</time>
      </trkpt>
      <trkpt lat="45.48072" lon="4.2296">
        <ele>421</ele>
        <time>2019-12-19T00:06:30Z</time>
      </trkpt>
      <trkpt lat="45.4808" lon="4.22902">
        <ele>419</ele>
        <time>2019-12-19T00:06:38Z</time>
      </trkpt>
      <trkpt lat="45.4808" lon="4.22832">
        <ele>416</ele>
        <time>2019-12-19T00:06:46Z</time>
      </trkpt>
      <trkpt lat="45.48074" lon="4.2278">
        <ele>413</ele>
        <time>2019-12-19T00:06:53Z</time>
      </trkpt>
      <trkpt lat="45.48055" lon="4.22716">
        <ele>414</ele>
        <time>2019-12-19T00:07:02Z</time>
      </trkpt>
      <trkpt lat="45.4802" lon="4.22648">
        <ele>417</ele>
        <time>2019-12-19T00:07:12Z</time>
      </trkpt>
      <trkpt lat="45.47997" lon="4.22596">
        <ele>418</ele>
        <time>2019-12-19T00:07:20Z</time>
      </trkpt>
      <trkpt lat="45.48026" lon="4.22512">
        <ele>414</ele>
        <time>2019-12-19T00:07:32Z</time>
      </trkpt>
      <trkpt lat="45.48046" lon="4.22445">
        <ele>414</ele>
        <time>2019-12-19T00:07:41Z</time>
      </trkpt>
      <trkpt lat="45.48076" lon="4.22298">
        <ele>417</ele>
        <time>2019-12-19T00:08:00Z</time>
      </trkpt>
      <trkpt lat="45.48232" lon="4.22295">
        <ele>405</ele>
        <time>2019-12-19T00:08:27Z</time>
      </trkpt>
      <trkpt lat="45.48267" lon="4.22281">
        <ele>403</ele>
        <time>2019-12-19T00:08:34Z</time>
      </trkpt>
      <trkpt lat="45.48228" lon="4.22217">
        <ele>405</ele>
        <time>2019-12-19T00:08:45Z</time>
      </trkpt>
      <trkpt lat="45.48193" lon="4.22145">
        <ele>407</ele>
        <time>2019-12-19T00:08:55Z</time>
      </trkpt>
      <trkpt lat="45.48152" lon="4.22069">
        <ele>407</ele>
        <time>2019-12-19T00:09:07Z</time>
      </trkpt>
      <trkpt lat="45.48106" lon="4.22001">
        <ele>409</ele>
        <time>2019-12-19T00:09:19Z</time>
      </trkpt>
      <trkpt lat="45.48101" lon="4.21991">
        <ele>409</ele>
        <time>2019-12-19T00:09:21Z</time>
      </trkpt>
      <trkpt lat="45.481" lon="4.21978">
        <ele>410</ele>
        <time>2019-12-19T00:09:22Z</time>
      </trkpt>
      <trkpt lat="45.48098" lon="4.21904">
        <ele>411</ele>
        <time>2019-12-19T00:09:32Z</time>
      </trkpt>
      <trkpt lat="45.48097" lon="4.2183">
        <ele>411</ele>
        <time>2019-12-19T00:09:41Z</time>
      </trkpt>
      <trkpt lat="45.48057" lon="4.21571">
        <ele>414</ele>
        <time>2019-12-19T00:10:14Z</time>
      </trkpt>
      <trkpt lat="45.48048" lon="4.21533">
        <ele>414</ele>
        <time>2019-12-19T00:10:19Z</time>
      </trkpt>
      <trkpt lat="45.48027" lon="4.21509">
        <ele>416</ele>
        <time>2019-12-19T00:10:24Z</time>
      </trkpt>
      <trkpt lat="45.47998" lon="4.21497">
        <ele>418</ele>
        <time>2019-12-19T00:10:29Z</time>
      </trkpt>
      <trkpt lat="45.48" lon="4.21451">
        <ele>418</ele>
        <time>2019-12-19T00:10:35Z</time>
      </trkpt>
      <trkpt lat="45.47996" lon="4.21419">
        <ele>418</ele>
        <time>2019-12-19T00:10:39Z</time>
      </trkpt>
      <trkpt lat="45.47991" lon="4.21388">
        <ele>419</ele>
        <time>2019-12-19T00:10:43Z</time>
      </trkpt>
      <trkpt lat="45.47983" lon="4.21373">
        <ele>419</ele>
        <time>2019-12-19T00:10:45Z</time>
      </trkpt>
      <trkpt lat="45.47969" lon="4.2136">
        <ele>420</ele>
        <time>2019-12-19T00:10:48Z</time>
      </trkpt>
      <trkpt lat="45.4796" lon="4.21339">
        <ele>421</ele>
        <time>2019-12-19T00:10:51Z</time>
      </trkpt>
      <trkpt lat="45.47958" lon="4.21318">
        <ele>421</ele>
        <time>2019-12-19T00:10:54Z</time>
      </trkpt>
      <trkpt lat="45.47963" lon="4.2129">
        <ele>420</ele>
        <time>2019-12-19T00:10:58Z</time>
      </trkpt>
      <trkpt lat="45.47982" lon="4.21224">
        <ele>418</ele>
        <time>2019-12-19T00:11:06Z</time>
      </trkpt>
      <trkpt lat="45.48039" lon="4.20997">
        <ele>413</ele>
        <time>2019-12-19T00:11:36Z</time>
      </trkpt>
      <trkpt lat="45.4807" lon="4.20856">
        <ele>409</ele>
        <time>2019-12-19T00:11:55Z</time>
      </trkpt>
      <trkpt lat="45.48083" lon="4.20814">
        <ele>409</ele>
        <time>2019-12-19T00:12:01Z</time>
      </trkpt>
      <trkpt lat="45.48097" lon="4.20794">
        <ele>409</ele>
        <time>2019-12-19T00:12:04Z</time>
      </trkpt>
      <trkpt lat="45.48131" lon="4.20731">
        <ele>409</ele>
        <time>2019-12-19T00:12:14Z</time>
      </trkpt>
      <trkpt lat="45.48201" lon="4.20662">
        <ele>410</ele>
        <time>2019-12-19T00:12:29Z</time>
      </trkpt>
      <trkpt lat="45.48247" lon="4.20642">
        <ele>409</ele>
        <time>2019-12-19T00:12:38Z</time>
      </trkpt>
      <trkpt lat="45.48259" lon="4.2048">
        <ele>409</ele>
        <time>2019-12-19T00:12:58Z</time>
      </trkpt>
      <trkpt lat="45.48278" lon="4.20403">
        <ele>408</ele>
        <time>2019-12-19T00:13:08Z</time>
      </trkpt>
      <trkpt lat="45.483" lon="4.20299">
        <ele>406</ele>
        <time>2019-12-19T00:13:22Z</time>
      </trkpt>
      <trkpt lat="45.48316" lon="4.20121">
        <ele>404</ele>
        <time>2019-12-19T00:13:44Z</time>
      </trkpt>
      <trkpt lat="45.48357" lon="4.20052">
        <ele>401</ele>
        <time>2019-12-19T00:13:56Z</time>
      </trkpt>
      <trkpt lat="45.48366" lon="4.20015">
        <ele>400</ele>
        <time>2019-12-19T00:14:00Z</time>
      </trkpt>
      <trkpt lat="45.48368" lon="4.19971">
        <ele>400</ele>
        <time>2019-12-19T00:14:06Z</time>
      </trkpt>
      <trkpt lat="45.48368" lon="4.19936">
        <ele>400</ele>
        <time>2019-12-19T00:14:10Z</time>
      </trkpt>
      <trkpt lat="45.48368" lon="4.19907">
        <ele>401</ele>
        <time>2019-12-19T00:14:14Z</time>
      </trkpt>
      <trkpt lat="45.48378" lon="4.19875">
        <ele>401</ele>
        <time>2019-12-19T00:14:18Z</time>
      </trkpt>
      <trkpt lat="45.48419" lon="4.198">
        <ele>401</ele>
        <time>2019-12-19T00:14:30Z</time>
      </trkpt>
      <trkpt lat="45.4844" lon="4.19784">
        <ele>402</ele>
        <time>2019-12-19T00:14:34Z</time>
      </trkpt>
      <trkpt lat="45.4847" lon="4.19754">
        <ele>403</ele>
        <time>2019-12-19T00:14:41Z</time>
      </trkpt>
      <trkpt lat="45.48488" lon="4.19728">
        <ele>404</ele>
        <time>2019-12-19T00:14:45Z</time>
      </trkpt>
      <trkpt lat="45.48495" lon="4.19707">
        <ele>405</ele>
        <time>2019-12-19T00:14:48Z</time>
      </trkpt>
      <trkpt lat="45.48498" lon="4.19656">
        <ele>406</ele>
        <time>2019-12-19T00:14:55Z</time>
      </trkpt>
      <trkpt lat="45.48519" lon="4.19551">
        <ele>408</ele>
        <time>2019-12-19T00:15:08Z</time>
      </trkpt>
      <trkpt lat="45.4852" lon="4.19479">
        <ele>409</ele>
        <time>2019-12-19T00:15:17Z</time>
      </trkpt>
      <trkpt lat="45.48516" lon="4.19368">
        <ele>411</ele>
        <time>2019-12-19T00:15:31Z</time>
      </trkpt>
      <trkpt lat="45.48505" lon="4.19284">
        <ele>412</ele>
        <time>2019-12-19T00:15:42Z</time>
      </trkpt>
      <trkpt lat="45.48483" lon="4.19216">
        <ele>415</ele>
        <time>2019-12-19T00:15:51Z</time>
      </trkpt>
      <trkpt lat="45.485" lon="4.19187">
        <ele>415</ele>
        <time>2019-12-19T00:15:56Z</time>
      </trkpt>
      <trkpt lat="45.48537" lon="4.1915">
        <ele>415</ele>
        <time>2019-12-19T00:16:04Z</time>
      </trkpt>
      <trkpt lat="45.48572" lon="4.1914">
        <ele>414</ele>
        <time>2019-12-19T00:16:10Z</time>
      </trkpt>
      <trkpt lat="45.48603" lon="4.19123">
        <ele>415</ele>
        <time>2019-12-19T00:16:16Z</time>
      </trkpt>
      <trkpt lat="45.48662" lon="4.19079">
        <ele>414</ele>
        <time>2019-12-19T00:16:28Z</time>
      </trkpt>
      <trkpt lat="45.48694" lon="4.19051">
        <ele>414</ele>
        <time>2019-12-19T00:16:35Z</time>
      </trkpt>
      <trkpt lat="45.48723" lon="4.19022">
        <ele>414</ele>
        <time>2019-12-19T00:16:41Z</time>
      </trkpt>
      <trkpt lat="45.48749" lon="4.18988">
        <ele>413</ele>
        <time>2019-12-19T00:16:47Z</time>
      </trkpt>
      <trkpt lat="45.48853" lon="4.18836">
        <ele>414</ele>
        <time>2019-12-19T00:17:14Z</time>
      </trkpt>
      <trkpt lat="45.48867" lon="4.18812">
        <ele>415</ele>
        <time>2019-12-19T00:17:18Z</time>
      </trkpt>
      <trkpt lat="45.48888" lon="4.18765">
        <ele>415</ele>
        <time>2019-12-19T00:17:25Z</time>
      </trkpt>
      <trkpt lat="45.48934" lon="4.18635">
        <ele>414</ele>
        <time>2019-12-19T00:17:43Z</time>
      </trkpt>
      <trkpt lat="45.48947" lon="4.186">
        <ele>413</ele>
        <time>2019-12-19T00:17:48Z</time>
      </trkpt>
      <trkpt lat="45.49008" lon="4.18505">
        <ele>412</ele>
        <time>2019-12-19T00:18:04Z</time>
      </trkpt>
      <trkpt lat="45.49036" lon="4.18473">
        <ele>410</ele>
        <time>2019-12-19T00:18:10Z</time>
      </trkpt>
      <trkpt lat="45.49079" lon="4.18432">
        <ele>408</ele>
        <time>2019-12-19T00:18:19Z</time>
      </trkpt>
      <trkpt lat="45.49127" lon="4.18394">
        <ele>407</ele>
        <time>2019-12-19T00:18:29Z</time>
      </trkpt>
      <trkpt lat="45.49146" lon="4.18382">
        <ele>406</ele>
        <time>2019-12-19T00:18:33Z</time>
      </trkpt>
      <trkpt lat="45.49159" lon="4.18381">
        <ele>406</ele>
        <time>2019-12-19T00:18:35Z</time>
      </trkpt>
      <trkpt lat="45.49184" lon="4.18391">
        <ele>406</ele>
        <time>2019-12-19T00:18:40Z</time>
      </trkpt>
      <trkpt lat="45.49211" lon="4.18405">
        <ele>407</ele>
        <time>2019-12-19T00:18:45Z</time>
      </trkpt>
      <trkpt lat="45.49215" lon="4.18378">
        <ele>406</ele>
        <time>2019-12-19T00:18:48Z</time>
      </trkpt>
      <trkpt lat="45.49226" lon="4.18178">
        <ele>403</ele>
        <time>2019-12-19T00:19:13Z</time>
      </trkpt>
      <trkpt lat="45.49229" lon="4.18135">
        <ele>403</ele>
        <time>2019-12-19T00:19:19Z</time>
      </trkpt>
      <trkpt lat="45.49227" lon="4.18102">
        <ele>402</ele>
        <time>2019-12-19T00:19:23Z</time>
      </trkpt>
      <trkpt lat="45.49228" lon="4.1806">
        <ele>401</ele>
        <time>2019-12-19T00:19:28Z</time>
      </trkpt>
      <trkpt lat="45.49235" lon="4.18027">
        <ele>401</ele>
        <time>2019-12-19T00:19:32Z</time>
      </trkpt>
      <trkpt lat="45.49247" lon="4.17995">
        <ele>400</ele>
        <time>2019-12-19T00:19:37Z</time>
      </trkpt>
      <trkpt lat="45.49269" lon="4.17944">
        <ele>400</ele>
        <time>2019-12-19T00:19:44Z</time>
      </trkpt>
      <trkpt lat="45.49277" lon="4.17908">
        <ele>400</ele>
        <time>2019-12-19T00:19:49Z</time>
      </trkpt>
      <trkpt lat="45.49291" lon="4.17791">
        <ele>400</ele>
        <time>2019-12-19T00:20:04Z</time>
      </trkpt>
      <trkpt lat="45.49298" lon="4.17756">
        <ele>400</ele>
        <time>2019-12-19T00:20:08Z</time>
      </trkpt>
      <trkpt lat="45.49307" lon="4.17738">
        <ele>400</ele>
        <time>2019-12-19T00:20:11Z</time>
      </trkpt>
      <trkpt lat="45.49361" lon="4.17665">
        <ele>400</ele>
        <time>2019-12-19T00:20:24Z</time>
      </trkpt>
      <trkpt lat="45.49384" lon="4.17626">
        <ele>400</ele>
        <time>2019-12-19T00:20:31Z</time>
      </trkpt>
      <trkpt lat="45.49405" lon="4.17585">
        <ele>400</ele>
        <time>2019-12-19T00:20:37Z</time>
      </trkpt>
      <trkpt lat="45.49501" lon="4.17332">
        <ele>399</ele>
        <time>2019-12-19T00:21:13Z</time>
      </trkpt>
      <trkpt lat="45.49517" lon="4.173">
        <ele>398</ele>
        <time>2019-12-19T00:21:18Z</time>
      </trkpt>
      <trkpt lat="45.49529" lon="4.17286">
        <ele>398</ele>
        <time>2019-12-19T00:21:21Z</time>
      </trkpt>
      <trkpt lat="45.49541" lon="4.17276">
        <ele>398</ele>
        <time>2019-12-19T00:21:23Z</time>
      </trkpt>
      <trkpt lat="45.49539" lon="4.17262">
        <ele>398</ele>
        <time>2019-12-19T00:21:25Z</time>
      </trkpt>
      <trkpt lat="45.49544" lon="4.17222">
        <ele>398</ele>
        <time>2019-12-19T00:21:30Z</time>
      </trkpt>
      <trkpt lat="45.49552" lon="4.17172">
        <ele>398</ele>
        <time>2019-12-19T00:21:36Z</time>
      </trkpt>
      <trkpt lat="45.49561" lon="4.17141">
        <ele>398</ele>
        <time>2019-12-19T00:21:41Z</time>
      </trkpt>
      <trkpt lat="45.49588" lon="4.17061">
        <ele>398</ele>
        <time>2019-12-19T00:21:52Z</time>
      </trkpt>
      <trkpt lat="45.49659" lon="4.16937">
        <ele>399</ele>
        <time>2019-12-19T00:22:12Z</time>
      </trkpt>
      <trkpt lat="45.49674" lon="4.16896">
        <ele>399</ele>
        <time>2019-12-19T00:22:17Z</time>
      </trkpt>
      <trkpt lat="45.49696" lon="4.16822">
        <ele>400</ele>
        <time>2019-12-19T00:22:27Z</time>
      </trkpt>
      <trkpt lat="45.49702" lon="4.16792">
        <ele>400</ele>
        <time>2019-12-19T00:22:31Z</time>
      </trkpt>
      <trkpt lat="45.49704" lon="4.16758">
        <ele>400</ele>
        <time>2019-12-19T00:22:36Z</time>
      </trkpt>
      <trkpt lat="45.49719" lon="4.16708">
        <ele>400</ele>
        <time>2019-12-19T00:22:42Z</time>
      </trkpt>
      <trkpt lat="45.49724" lon="4.16698">
        <ele>400</ele>
        <time>2019-12-19T00:22:44Z</time>
      </trkpt>
      <trkpt lat="45.49732" lon="4.16668">
        <ele>399</ele>
        <time>2019-12-19T00:22:48Z</time>
      </trkpt>
      <trkpt lat="45.4976" lon="4.16584">
        <ele>398</ele>
        <time>2019-12-19T00:23:00Z</time>
      </trkpt>
      <trkpt lat="45.49779" lon="4.1652">
        <ele>398</ele>
        <time>2019-12-19T00:23:08Z</time>
      </trkpt>
      <trkpt lat="45.49796" lon="4.16441">
        <ele>398</ele>
        <time>2019-12-19T00:23:19Z</time>
      </trkpt>
      <trkpt lat="45.49802" lon="4.16402">
        <ele>398</ele>
        <time>2019-12-19T00:23:23Z</time>
      </trkpt>
      <trkpt lat="45.4981" lon="4.16379">
        <ele>398</ele>
        <time>2019-12-19T00:23:27Z</time>
      </trkpt>
      <trkpt lat="45.49822" lon="4.16363">
        <ele>397</ele>
        <time>2019-12-19T00:23:30Z</time>
      </trkpt>
      <trkpt lat="45.49891" lon="4.16326">
        <ele>396</ele>
        <time>2019-12-19T00:23:43Z</time>
      </trkpt>
      <trkpt lat="45.49943" lon="4.16286">
        <ele>395</ele>
        <time>2019-12-19T00:23:53Z</time>
      </trkpt>
      <trkpt lat="45.49956" lon="4.1628">
        <ele>395</ele>
        <time>2019-12-19T00:23:56Z</time>
      </trkpt>
      <trkpt lat="45.50011" lon="4.16265">
        <ele>395</ele>
        <time>2019-12-19T00:24:06Z</time>
      </trkpt>
      <trkpt lat="45.50033" lon="4.16265">
        <ele>395</ele>
        <time>2019-12-19T00:24:10Z</time>
      </trkpt>
      <trkpt lat="45.50038" lon="4.16274">
        <ele>395</ele>
        <time>2019-12-19T00:24:11Z</time>
      </trkpt>
      <trkpt lat="45.50051" lon="4.16278">
        <ele>395</ele>
        <time>2019-12-19T00:24:13Z</time>
      </trkpt>
      <trkpt lat="45.50059" lon="4.16273">
        <ele>395</ele>
        <time>2019-12-19T00:24:15Z</time>
      </trkpt>
      <trkpt lat="45.50064" lon="4.16264">
        <ele>395</ele>
        <time>2019-12-19T00:24:16Z</time>
      </trkpt>
      <trkpt lat="45.50065" lon="4.16255">
        <ele>395</ele>
        <time>2019-12-19T00:24:17Z</time>
      </trkpt>
      <trkpt lat="45.50079" lon="4.1624">
        <ele>395</ele>
        <time>2019-12-19T00:24:21Z</time>
      </trkpt>
      <trkpt lat="45.50102" lon="4.16234">
        <ele>395</ele>
        <time>2019-12-19T00:24:25Z</time>
      </trkpt>
      <trkpt lat="45.50112" lon="4.16225">
        <ele>395</ele>
        <time>2019-12-19T00:24:27Z</time>
      </trkpt>
      <trkpt lat="45.50195" lon="4.16333">
        <ele>394</ele>
        <time>2019-12-19T00:24:47Z</time>
      </trkpt>
      <trkpt lat="45.50205" lon="4.16343">
        <ele>394</ele>
        <time>2019-12-19T00:24:49Z</time>
      </trkpt>
      <trkpt lat="45.50222" lon="4.16351">
        <ele>393</ele>
        <time>2019-12-19T00:24:52Z</time>
      </trkpt>
      <trkpt lat="45.50247" lon="4.16347">
        <ele>392</ele>
        <time>2019-12-19T00:24:57Z</time>
      </trkpt>
      <trkpt lat="45.50299" lon="4.16308">
        <ele>393</ele>
        <time>2019-12-19T00:25:07Z</time>
      </trkpt>
      <trkpt lat="45.50351" lon="4.16288">
        <ele>395</ele>
        <time>2019-12-19T00:25:17Z</time>
      </trkpt>
      <trkpt lat="45.50443" lon="4.16183">
        <ele>401</ele>
        <time>2019-12-19T00:25:38Z</time>
      </trkpt>
      <trkpt lat="45.50528" lon="4.16149">
        <ele>402</ele>
        <time>2019-12-19T00:25:53Z</time>
      </trkpt>
      <trkpt lat="45.50543" lon="4.16138">
        <ele>402</ele>
        <time>2019-12-19T00:25:56Z</time>
      </trkpt>
      <trkpt lat="45.50566" lon="4.16106">
        <ele>402</ele>
        <time>2019-12-19T00:26:02Z</time>
      </trkpt>
      <trkpt lat="45.5058" lon="4.16097">
        <ele>402</ele>
        <time>2019-12-19T00:26:05Z</time>
      </trkpt>
      <trkpt lat="45.50693" lon="4.16046">
        <ele>400</ele>
        <time>2019-12-19T00:26:26Z</time>
      </trkpt>
      <trkpt lat="45.50777" lon="4.16011">
        <ele>398</ele>
        <time>2019-12-19T00:26:41Z</time>
      </trkpt>
      <trkpt lat="45.51017" lon="4.16052">
        <ele>395</ele>
        <time>2019-12-19T00:27:24Z</time>
      </trkpt>
      <trkpt lat="45.51149" lon="4.16012">
        <ele>398</ele>
        <time>2019-12-19T00:27:48Z</time>
      </trkpt>
      <trkpt lat="45.51263" lon="4.16012">
        <ele>398</ele>
        <time>2019-12-19T00:28:09Z</time>
      </trkpt>
      <trkpt lat="45.51355" lon="4.15983">
        <ele>398</ele>
        <time>2019-12-19T00:28:26Z</time>
      </trkpt>
      <trkpt lat="45.51537" lon="4.15975">
        <ele>396</ele>
        <time>2019-12-19T00:28:58Z</time>
      </trkpt>
      <trkpt lat="45.51936" lon="4.15945">
        <ele>395</ele>
        <time>2019-12-19T00:30:09Z</time>
      </trkpt>
      <trkpt lat="45.52067" lon="4.15966">
        <ele>393</ele>
        <time>2019-12-19T00:30:32Z</time>
      </trkpt>
      <trkpt lat="45.52127" lon="4.15992">
        <ele>392</ele>
        <time>2019-12-19T00:30:44Z</time>
      </trkpt>
      <trkpt lat="45.52151" lon="4.15998">
        <ele>392</ele>
        <time>2019-12-19T00:30:48Z</time>
      </trkpt>
      <trkpt lat="45.52192" lon="4.15989">
        <ele>392</ele>
        <time>2019-12-19T00:30:55Z</time>
      </trkpt>
      <trkpt lat="45.52216" lon="4.15991">
        <ele>391</ele>
        <time>2019-12-19T00:31:00Z</time>
      </trkpt>
      <trkpt lat="45.52267" lon="4.16006">
        <ele>391</ele>
        <time>2019-12-19T00:31:09Z</time>
      </trkpt>
      <trkpt lat="45.52309" lon="4.16016">
        <ele>391</ele>
        <time>2019-12-19T00:31:16Z</time>
      </trkpt>
      <trkpt lat="45.52338" lon="4.16012">
        <ele>391</ele>
        <time>2019-12-19T00:31:22Z</time>
      </trkpt>
      <trkpt lat="45.52385" lon="4.15995">
        <ele>391</ele>
        <time>2019-12-19T00:31:30Z</time>
      </trkpt>
      <trkpt lat="45.52423" lon="4.15986">
        <ele>391</ele>
        <time>2019-12-19T00:31:37Z</time>
      </trkpt>
      <trkpt lat="45.52449" lon="4.15988">
        <ele>392</ele>
        <time>2019-12-19T00:31:42Z</time>
      </trkpt>
      <trkpt lat="45.52482" lon="4.15986">
        <ele>392</ele>
        <time>2019-12-19T00:31:48Z</time>
      </trkpt>
      <trkpt lat="45.52666" lon="4.15954">
        <ele>392</ele>
        <time>2019-12-19T00:32:21Z</time>
      </trkpt>
      <trkpt lat="45.52717" lon="4.15944">
        <ele>391</ele>
        <time>2019-12-19T00:32:30Z</time>
      </trkpt>
      <trkpt lat="45.52757" lon="4.15933">
        <ele>391</ele>
        <time>2019-12-19T00:32:37Z</time>
      </trkpt>
      <trkpt lat="45.52845" lon="4.15884">
        <ele>390</ele>
        <time>2019-12-19T00:32:54Z</time>
      </trkpt>
      <trkpt lat="45.53219" lon="4.15424">
        <ele>394</ele>
        <time>2019-12-19T00:34:22Z</time>
      </trkpt>
      <trkpt lat="45.53384" lon="4.15144">
        <ele>397</ele>
        <time>2019-12-19T00:35:07Z</time>
      </trkpt>
      <trkpt lat="45.53408" lon="4.1512">
        <ele>396</ele>
        <time>2019-12-19T00:35:13Z</time>
      </trkpt>
      <trkpt lat="45.53487" lon="4.15049">
        <ele>396</ele>
        <time>2019-12-19T00:35:29Z</time>
      </trkpt>
      <trkpt lat="45.53507" lon="4.15041">
        <ele>396</ele>
        <time>2019-12-19T00:35:33Z</time>
      </trkpt>
      <trkpt lat="45.53544" lon="4.15037">
        <ele>397</ele>
        <time>2019-12-19T00:35:39Z</time>
      </trkpt>
      <trkpt lat="45.53566" lon="4.15028">
        <ele>397</ele>
        <time>2019-12-19T00:35:43Z</time>
      </trkpt>
      <trkpt lat="45.53593" lon="4.1501">
        <ele>397</ele>
        <time>2019-12-19T00:35:49Z</time>
      </trkpt>
      <trkpt lat="45.53734" lon="4.14899">
        <ele>397</ele>
        <time>2019-12-19T00:36:17Z</time>
      </trkpt>
      <trkpt lat="45.53838" lon="4.14765">
        <ele>399</ele>
        <time>2019-12-19T00:36:42Z</time>
      </trkpt>
      <trkpt lat="45.54035" lon="4.14552">
        <ele>400</ele>
        <time>2019-12-19T00:37:26Z</time>
      </trkpt>
      <trkpt lat="45.54092" lon="4.14386">
        <ele>400</ele>
        <time>2019-12-19T00:37:49Z</time>
      </trkpt>
      <trkpt lat="45.54116" lon="4.14132">
        <ele>402</ele>
        <time>2019-12-19T00:38:21Z</time>
      </trkpt>
      <trkpt lat="45.54117" lon="4.14025">
        <ele>402</ele>
        <time>2019-12-19T00:38:35Z</time>
      </trkpt>
      <trkpt lat="45.54129" lon="4.13919">
        <ele>402</ele>
        <time>2019-12-19T00:38:48Z</time>
      </trkpt>
      <trkpt lat="45.54352" lon="4.13621">
        <ele>401</ele>
        <time>2019-12-19T00:39:42Z</time>
      </trkpt>
      <trkpt lat="45.5452" lon="4.13407">
        <ele>395</ele>
        <time>2019-12-19T00:40:22Z</time>
      </trkpt>
      <trkpt lat="45.54611" lon="4.13303">
        <ele>395</ele>
        <time>2019-12-19T00:40:43Z</time>
      </trkpt>
      <trkpt lat="45.54798" lon="4.13128">
        <ele>394</ele>
        <time>2019-12-19T00:41:23Z</time>
      </trkpt>
      <trkpt lat="45.5488" lon="4.1306">
        <ele>393</ele>
        <time>2019-12-19T00:41:40Z</time>
      </trkpt>
      <trkpt lat="45.55015" lon="4.12938">
        <ele>392</ele>
        <time>2019-12-19T00:42:08Z</time>
      </trkpt>
      <trkpt lat="45.55029" lon="4.12921">
        <ele>393</ele>
        <time>2019-12-19T00:42:12Z</time>
      </trkpt>
      <trkpt lat="45.551" lon="4.12741">
        <ele>393</ele>
        <time>2019-12-19T00:42:37Z</time>
      </trkpt>
      <trkpt lat="45.55118" lon="4.12654">
        <ele>393</ele>
        <time>2019-12-19T00:42:49Z</time>
      </trkpt>
      <trkpt lat="45.55126" lon="4.12634">
        <ele>393</ele>
        <time>2019-12-19T00:42:51Z</time>
      </trkpt>
      <trkpt lat="45.55135" lon="4.12623">
        <ele>393</ele>
        <time>2019-12-19T00:42:54Z</time>
      </trkpt>
      <trkpt lat="45.5514" lon="4.12622">
        <ele>393</ele>
        <time>2019-12-19T00:42:54Z</time>
      </trkpt>
      <trkpt lat="45.55163" lon="4.12565">
        <ele>392</ele>
        <time>2019-12-19T00:43:03Z</time>
      </trkpt>
      <trkpt lat="45.55292" lon="4.12305">
        <ele>395</ele>
        <time>2019-12-19T00:43:42Z</time>
      </trkpt>
      <trkpt lat="45.55313" lon="4.12268">
        <ele>396</ele>
        <time>2019-12-19T00:43:48Z</time>
      </trkpt>
      <trkpt lat="45.55328" lon="4.1223">
        <ele>397</ele>
        <time>2019-12-19T00:43:54Z</time>
      </trkpt>
      <trkpt lat="45.55339" lon="4.12159">
        <ele>399</ele>
        <time>2019-12-19T00:44:03Z</time>
      </trkpt>
      <trkpt lat="45.55353" lon="4.12123">
        <ele>398</ele>
        <time>2019-12-19T00:44:08Z</time>
      </trkpt>
      <trkpt lat="45.5537" lon="4.12094">
        <ele>398</ele>
        <time>2019-12-19T00:44:13Z</time>
      </trkpt>
      <trkpt lat="45.55458" lon="4.11952">
        <ele>398</ele>
        <time>2019-12-19T00:44:36Z</time>
      </trkpt>
      <trkpt lat="45.55492" lon="4.11909">
        <ele>397</ele>
        <time>2019-12-19T00:44:44Z</time>
      </trkpt>
      <trkpt lat="45.55665" lon="4.11707">
        <ele>397</ele>
        <time>2019-12-19T00:45:24Z</time>
      </trkpt>
      <trkpt lat="45.55683" lon="4.11678">
        <ele>397</ele>
        <time>2019-12-19T00:45:29Z</time>
      </trkpt>
      <trkpt lat="45.55697" lon="4.11627">
        <ele>398</ele>
        <time>2019-12-19T00:45:36Z</time>
      </trkpt>
      <trkpt lat="45.55704" lon="4.11571">
        <ele>398</ele>
        <time>2019-12-19T00:45:43Z</time>
      </trkpt>
      <trkpt lat="45.55729" lon="4.11255">
        <ele>408</ele>
        <time>2019-12-19T00:46:22Z</time>
      </trkpt>
      <trkpt lat="45.55735" lon="4.11212">
        <ele>409</ele>
        <time>2019-12-19T00:46:28Z</time>
      </trkpt>
      <trkpt lat="45.55798" lon="4.10922">
        <ele>412</ele>
        <time>2019-12-19T00:47:06Z</time>
      </trkpt>
      <trkpt lat="45.5582" lon="4.1081">
        <ele>414</ele>
        <time>2019-12-19T00:47:20Z</time>
      </trkpt>
      <trkpt lat="45.55825" lon="4.10769">
        <ele>414</ele>
        <time>2019-12-19T00:47:25Z</time>
      </trkpt>
      <trkpt lat="45.55832" lon="4.10623">
        <ele>417</ele>
        <time>2019-12-19T00:47:44Z</time>
      </trkpt>
      <trkpt lat="45.55841" lon="4.10486">
        <ele>419</ele>
        <time>2019-12-19T00:48:01Z</time>
      </trkpt>
      <trkpt lat="45.55838" lon="4.10368">
        <ele>418</ele>
        <time>2019-12-19T00:48:15Z</time>
      </trkpt>
      <trkpt lat="45.55843" lon="4.10315">
        <ele>417</ele>
        <time>2019-12-19T00:48:22Z</time>
      </trkpt>
      <trkpt lat="45.55855" lon="4.10274">
        <ele>418</ele>
        <time>2019-12-19T00:48:28Z</time>
      </trkpt>
      <trkpt lat="45.55868" lon="4.10244">
        <ele>418</ele>
        <time>2019-12-19T00:48:32Z</time>
      </trkpt>
      <trkpt lat="45.55905" lon="4.10189">
        <ele>418</ele>
        <time>2019-12-19T00:48:42Z</time>
      </trkpt>
      <trkpt lat="45.55934" lon="4.10151">
        <ele>418</ele>
        <time>2019-12-19T00:48:49Z</time>
      </trkpt>
      <trkpt lat="45.55948" lon="4.1013">
        <ele>418</ele>
        <time>2019-12-19T00:48:52Z</time>
      </trkpt>
      <trkpt lat="45.5597" lon="4.10066">
        <ele>419</ele>
        <time>2019-12-19T00:49:01Z</time>
      </trkpt>
      <trkpt lat="45.55975" lon="4.1004">
        <ele>419</ele>
        <time>2019-12-19T00:49:04Z</time>
      </trkpt>
      <trkpt lat="45.55993" lon="4.09984">
        <ele>418</ele>
        <time>2019-12-19T00:49:12Z</time>
      </trkpt>
      <trkpt lat="45.56014" lon="4.09941">
        <ele>418</ele>
        <time>2019-12-19T00:49:19Z</time>
      </trkpt>
      <trkpt lat="45.56053" lon="4.0987">
        <ele>418</ele>
        <time>2019-12-19T00:49:30Z</time>
      </trkpt>
      <trkpt lat="45.56082" lon="4.09812">
        <ele>417</ele>
        <time>2019-12-19T00:49:39Z</time>
      </trkpt>
      <trkpt lat="45.56088" lon="4.0978">
        <ele>416</ele>
        <time>2019-12-19T00:49:43Z</time>
      </trkpt>
      <trkpt lat="45.56085" lon="4.09767">
        <ele>416</ele>
        <time>2019-12-19T00:49:45Z</time>
      </trkpt>
      <trkpt lat="45.56082" lon="4.0976">
        <ele>416</ele>
        <time>2019-12-19T00:49:46Z</time>
      </trkpt>
      <trkpt lat="45.56088" lon="4.0973">
        <ele>415</ele>
        <time>2019-12-19T00:49:50Z</time>
      </trkpt>
      <trkpt lat="45.56086" lon="4.09711">
        <ele>415</ele>
        <time>2019-12-19T00:49:52Z</time>
      </trkpt>
      <trkpt lat="45.56069" lon="4.09638">
        <ele>414</ele>
        <time>2019-12-19T00:50:01Z</time>
      </trkpt>
      <trkpt lat="45.56068" lon="4.0961">
        <ele>413</ele>
        <time>2019-12-19T00:50:05Z</time>
      </trkpt>
      <trkpt lat="45.56073" lon="4.096">
        <ele>413</ele>
        <time>2019-12-19T00:50:07Z</time>
      </trkpt>
      <trkpt lat="45.56084" lon="4.09593">
        <ele>411</ele>
        <time>2019-12-19T00:50:09Z</time>
      </trkpt>
      <trkpt lat="45.56089" lon="4.09593">
        <ele>411</ele>
        <time>2019-12-19T00:50:10Z</time>
      </trkpt>
      <trkpt lat="45.56098" lon="4.09592">
        <ele>411</ele>
        <time>2019-12-19T00:50:11Z</time>
      </trkpt>
      <trkpt lat="45.5611" lon="4.09591">
        <ele>411</ele>
        <time>2019-12-19T00:50:13Z</time>
      </trkpt>
      <trkpt lat="45.56125" lon="4.09582">
        <ele>411</ele>
        <time>2019-12-19T00:50:16Z</time>
      </trkpt>
      <trkpt lat="45.56144" lon="4.09568">
        <ele>411</ele>
        <time>2019-12-19T00:50:20Z</time>
      </trkpt>
      <trkpt lat="45.56161" lon="4.09544">
        <ele>411</ele>
        <time>2019-12-19T00:50:24Z</time>
      </trkpt>
      <trkpt lat="45.56171" lon="4.09507">
        <ele>410</ele>
        <time>2019-12-19T00:50:29Z</time>
      </trkpt>
      <trkpt lat="45.56178" lon="4.09439">
        <ele>412</ele>
        <time>2019-12-19T00:50:38Z</time>
      </trkpt>
      <trkpt lat="45.56181" lon="4.09422">
        <ele>413</ele>
        <time>2019-12-19T00:50:40Z</time>
      </trkpt>
      <trkpt lat="45.5619" lon="4.09388">
        <ele>416</ele>
        <time>2019-12-19T00:50:44Z</time>
      </trkpt>
      <trkpt lat="45.56188" lon="4.09377">
        <ele>417</ele>
        <time>2019-12-19T00:50:46Z</time>
      </trkpt>
      <trkpt lat="45.56186" lon="4.09367">
        <ele>418</ele>
        <time>2019-12-19T00:50:47Z</time>
      </trkpt>
      <trkpt lat="45.56171" lon="4.0936">
        <ele>418</ele>
        <time>2019-12-19T00:50:50Z</time>
      </trkpt>
      <trkpt lat="45.56089" lon="4.09352">
        <ele>418</ele>
        <time>2019-12-19T00:51:05Z</time>
      </trkpt>
      <trkpt lat="45.56074" lon="4.09349">
        <ele>418</ele>
        <time>2019-12-19T00:51:07Z</time>
      </trkpt>
      <trkpt lat="45.56064" lon="4.09338">
        <ele>418</ele>
        <time>2019-12-19T00:51:10Z</time>
      </trkpt>
      <trkpt lat="45.56054" lon="4.09294">
        <ele>423</ele>
        <time>2019-12-19T00:51:15Z</time>
      </trkpt>
      <trkpt lat="45.56039" lon="4.09172">
        <ele>433</ele>
        <time>2019-12-19T00:51:31Z</time>
      </trkpt>
      <trkpt lat="45.56028" lon="4.09126">
        <ele>437</ele>
        <time>2019-12-19T00:51:37Z</time>
      </trkpt>
      <trkpt lat="45.5601" lon="4.09065">
        <ele>443</ele>
        <time>2019-12-19T00:51:45Z</time>
      </trkpt>
      <trkpt lat="45.55978" lon="4.0898">
        <ele>452</ele>
        <time>2019-12-19T00:51:57Z</time>
      </trkpt>
      <trkpt lat="45.55971" lon="4.08943">
        <ele>455</ele>
        <time>2019-12-19T00:52:02Z</time>
      </trkpt>
      <trkpt lat="45.5597" lon="4.08919">
        <ele>457</ele>
        <time>2019-12-19T00:52:05Z</time>
      </trkpt>
      <trkpt lat="45.55962" lon="4.08883">
        <ele>459</ele>
        <time>2019-12-19T00:52:10Z</time>
      </trkpt>
      <trkpt lat="45.5594" lon="4.08799">
        <ele>462</ele>
        <time>2019-12-19T00:52:21Z</time>
      </trkpt>
      <trkpt lat="45.55932" lon="4.0876">
        <ele>463</ele>
        <time>2019-12-19T00:52:26Z</time>
      </trkpt>
      <trkpt lat="45.55922" lon="4.08727">
        <ele>463</ele>
        <time>2019-12-19T00:52:30Z</time>
      </trkpt>
      <trkpt lat="45.55915" lon="4.08689">
        <ele>464</ele>
        <time>2019-12-19T00:52:35Z</time>
      </trkpt>
      <trkpt lat="45.55899" lon="4.08572">
        <ele>468</ele>
        <time>2019-12-19T00:52:50Z</time>
      </trkpt>
      <trkpt lat="45.55901" lon="4.08512">
        <ele>469</ele>
        <time>2019-12-19T00:52:57Z</time>
      </trkpt>
      <trkpt lat="45.55894" lon="4.0844">
        <ele>471</ele>
        <time>2019-12-19T00:53:07Z</time>
      </trkpt>
      <trkpt lat="45.55882" lon="4.08388">
        <ele>474</ele>
        <time>2019-12-19T00:53:13Z</time>
      </trkpt>
      <trkpt lat="45.55844" lon="4.08302">
        <ele>478</ele>
        <time>2019-12-19T00:53:26Z</time>
      </trkpt>
      <trkpt lat="45.55836" lon="4.0825">
        <ele>482</ele>
        <time>2019-12-19T00:53:33Z</time>
      </trkpt>
      <trkpt lat="45.55825" lon="4.08163">
        <ele>488</ele>
        <time>2019-12-19T00:53:44Z</time>
      </trkpt>
      <trkpt lat="45.55809" lon="4.08099">
        <ele>490</ele>
        <time>2019-12-19T00:53:52Z</time>
      </trkpt>
      <trkpt lat="45.55797" lon="4.08031">
        <ele>495</ele>
        <time>2019-12-19T00:54:01Z</time>
      </trkpt>
      <trkpt lat="45.55793" lon="4.08015">
        <ele>496</ele>
        <time>2019-12-19T00:54:03Z</time>
      </trkpt>
      <trkpt lat="45.55784" lon="4.07995">
        <ele>497</ele>
        <time>2019-12-19T00:54:06Z</time>
      </trkpt>
      <trkpt lat="45.55771" lon="4.07982">
        <ele>497</ele>
        <time>2019-12-19T00:54:09Z</time>
      </trkpt>
      <trkpt lat="45.55745" lon="4.07968">
        <ele>497</ele>
        <time>2019-12-19T00:54:14Z</time>
      </trkpt>
      <trkpt lat="45.55747" lon="4.07951">
        <ele>498</ele>
        <time>2019-12-19T00:54:16Z</time>
      </trkpt>
      <trkpt lat="45.55736" lon="4.07897">
        <ele>501</ele>
        <time>2019-12-19T00:54:23Z</time>
      </trkpt>
      <trkpt lat="45.55718" lon="4.07715">
        <ele>509</ele>
        <time>2019-12-19T00:54:46Z</time>
      </trkpt>
      <trkpt lat="45.5572" lon="4.07685">
        <ele>510</ele>
        <time>2019-12-19T00:54:50Z</time>
      </trkpt>
      <trkpt lat="45.55724" lon="4.0765">
        <ele>510</ele>
        <time>2019-12-19T00:54:54Z</time>
      </trkpt>
      <trkpt lat="45.55731" lon="4.07616">
        <ele>509</ele>
        <time>2019-12-19T00:54:58Z</time>
      </trkpt>
      <trkpt lat="45.55741" lon="4.07593">
        <ele>508</ele>
        <time>2019-12-19T00:55:02Z</time>
      </trkpt>
      <trkpt lat="45.55761" lon="4.07567">
        <ele>508</ele>
        <time>2019-12-19T00:55:07Z</time>
      </trkpt>
      <trkpt lat="45.5578" lon="4.07547">
        <ele>508</ele>
        <time>2019-12-19T00:55:11Z</time>
      </trkpt>
      <trkpt lat="45.55797" lon="4.07506">
        <ele>507</ele>
        <time>2019-12-19T00:55:17Z</time>
      </trkpt>
      <trkpt lat="45.5583" lon="4.07406">
        <ele>507</ele>
        <time>2019-12-19T00:55:30Z</time>
      </trkpt>
      <trkpt lat="45.55849" lon="4.07356">
        <ele>507</ele>
        <time>2019-12-19T00:55:38Z</time>
      </trkpt>
      <trkpt lat="45.55868" lon="4.07325">
        <ele>507</ele>
        <time>2019-12-19T00:55:43Z</time>
      </trkpt>
      <trkpt lat="45.55939" lon="4.0726">
        <ele>507</ele>
        <time>2019-12-19T00:55:58Z</time>
      </trkpt>
      <trkpt lat="45.55976" lon="4.07223">
        <ele>509</ele>
        <time>2019-12-19T00:56:06Z</time>
      </trkpt>
      <trkpt lat="45.55987" lon="4.07214">
        <ele>509</ele>
        <time>2019-12-19T00:56:08Z</time>
      </trkpt>
      <trkpt lat="45.56051" lon="4.07178">
        <ele>513</ele>
        <time>2019-12-19T00:56:20Z</time>
      </trkpt>
      <trkpt lat="45.56085" lon="4.07151">
        <ele>516</ele>
        <time>2019-12-19T00:56:27Z</time>
      </trkpt>
      <trkpt lat="45.56111" lon="4.07123">
        <ele>517</ele>
        <time>2019-12-19T00:56:33Z</time>
      </trkpt>
      <trkpt lat="45.56119" lon="4.07108">
        <ele>518</ele>
        <time>2019-12-19T00:56:35Z</time>
      </trkpt>
      <trkpt lat="45.56135" lon="4.07047">
        <ele>519</ele>
        <time>2019-12-19T00:56:43Z</time>
      </trkpt>
      <trkpt lat="45.56153" lon="4.07">
        <ele>519</ele>
        <time>2019-12-19T00:56:50Z</time>
      </trkpt>
      <trkpt lat="45.56179" lon="4.06965">
        <ele>521</ele>
        <time>2019-12-19T00:56:56Z</time>
      </trkpt>
      <trkpt lat="45.562" lon="4.06945">
        <ele>522</ele>
        <time>2019-12-19T00:57:01Z</time>
      </trkpt>
      <trkpt lat="45.56292" lon="4.06873">
        <ele>525</ele>
        <time>2019-12-19T00:57:20Z</time>
      </trkpt>
      <trkpt lat="45.56306" lon="4.0686">
        <ele>525</ele>
        <time>2019-12-19T00:57:23Z</time>
      </trkpt>
      <trkpt lat="45.56325" lon="4.06838">
        <ele>526</ele>
        <time>2019-12-19T00:57:27Z</time>
      </trkpt>
      <trkpt lat="45.56398" lon="4.06737">
        <ele>532</ele>
        <time>2019-12-19T00:57:45Z</time>
      </trkpt>
      <trkpt lat="45.56428" lon="4.067">
        <ele>536</ele>
        <time>2019-12-19T00:57:52Z</time>
      </trkpt>
      <trkpt lat="45.56463" lon="4.06667">
        <ele>537</ele>
        <time>2019-12-19T00:58:00Z</time>
      </trkpt>
      <trkpt lat="45.5651" lon="4.06597">
        <ele>540</ele>
        <time>2019-12-19T00:58:12Z</time>
      </trkpt>
      <trkpt lat="45.56526" lon="4.06576">
        <ele>540</ele>
        <time>2019-12-19T00:58:15Z</time>
      </trkpt>
      <trkpt lat="45.56544" lon="4.06561">
        <ele>539</ele>
        <time>2019-12-19T00:58:19Z</time>
      </trkpt>
      <trkpt lat="45.56574" lon="4.06553">
        <ele>538</ele>
        <time>2019-12-19T00:58:25Z</time>
      </trkpt>
      <trkpt lat="45.56586" lon="4.06532">
        <ele>538</ele>
        <time>2019-12-19T00:58:28Z</time>
      </trkpt>
      <trkpt lat="45.56631" lon="4.06419">
        <ele>539</ele>
        <time>2019-12-19T00:58:44Z</time>
      </trkpt>
      <trkpt lat="45.56659" lon="4.06363">
        <ele>539</ele>
        <time>2019-12-19T00:58:53Z</time>
      </trkpt>
      <trkpt lat="45.56673" lon="4.06297">
        <ele>538</ele>
        <time>2019-12-19T00:59:01Z</time>
      </trkpt>
      <trkpt lat="45.56696" lon="4.06217">
        <ele>541</ele>
        <time>2019-12-19T00:59:12Z</time>
      </trkpt>
      <trkpt lat="45.56701" lon="4.06207">
        <ele>542</ele>
        <time>2019-12-19T00:59:14Z</time>
      </trkpt>
      <trkpt lat="45.567" lon="4.06199">
        <ele>542</ele>
        <time>2019-12-19T00:59:15Z</time>
      </trkpt>
      <trkpt lat="45.56702" lon="4.06179">
        <ele>543</ele>
        <time>2019-12-19T00:59:17Z</time>
      </trkpt>
      <trkpt lat="45.56702" lon="4.06153">
        <ele>544</ele>
        <time>2019-12-19T00:59:20Z</time>
      </trkpt>
      <trkpt lat="45.56696" lon="4.06117">
        <ele>544</ele>
        <time>2019-12-19T00:59:25Z</time>
      </trkpt>
      <trkpt lat="45.56697" lon="4.06108">
        <ele>544</ele>
        <time>2019-12-19T00:59:26Z</time>
      </trkpt>
      <trkpt lat="45.56717" lon="4.06101">
        <ele>545</ele>
        <time>2019-12-19T00:59:30Z</time>
      </trkpt>
      <trkpt lat="45.56732" lon="4.06105">
        <ele>546</ele>
        <time>2019-12-19T00:59:33Z</time>
      </trkpt>
      <trkpt lat="45.56742" lon="4.06104">
        <ele>546</ele>
        <time>2019-12-19T00:59:34Z</time>
      </trkpt>
      <trkpt lat="45.56749" lon="4.06102">
        <ele>546</ele>
        <time>2019-12-19T00:59:36Z</time>
      </trkpt>
      <trkpt lat="45.56753" lon="4.06097">
        <ele>546</ele>
        <time>2019-12-19T00:59:37Z</time>
      </trkpt>
      <trkpt lat="45.56768" lon="4.06051">
        <ele>546</ele>
        <time>2019-12-19T00:59:43Z</time>
      </trkpt>
      <trkpt lat="45.56777" lon="4.06042">
        <ele>546</ele>
        <time>2019-12-19T00:59:45Z</time>
      </trkpt>
      <trkpt lat="45.568" lon="4.06029">
        <ele>547</ele>
        <time>2019-12-19T00:59:49Z</time>
      </trkpt>
      <trkpt lat="45.56806" lon="4.0602">
        <ele>547</ele>
        <time>2019-12-19T00:59:51Z</time>
      </trkpt>
      <trkpt lat="45.56821" lon="4.05958">
        <ele>547</ele>
        <time>2019-12-19T00:59:59Z</time>
      </trkpt>
      <trkpt lat="45.56828" lon="4.05947">
        <ele>547</ele>
        <time>2019-12-19T01:00:01Z</time>
      </trkpt>
      <trkpt lat="45.56843" lon="4.05933">
        <ele>548</ele>
        <time>2019-12-19T01:00:04Z</time>
      </trkpt>
      <trkpt lat="45.56869" lon="4.05911">
        <ele>551</ele>
        <time>2019-12-19T01:00:09Z</time>
      </trkpt>
      <trkpt lat="45.56876" lon="4.05864">
        <ele>555</ele>
        <time>2019-12-19T01:00:15Z</time>
      </trkpt>
      <trkpt lat="45.56881" lon="4.05858">
        <ele>556</ele>
        <time>2019-12-19T01:00:16Z</time>
      </trkpt>
      <trkpt lat="45.56903" lon="4.05862">
        <ele>558</ele>
        <time>2019-12-19T01:00:20Z</time>
      </trkpt>
      <trkpt lat="45.56914" lon="4.05861">
        <ele>560</ele>
        <time>2019-12-19T01:00:22Z</time>
      </trkpt>
      <trkpt lat="45.56926" lon="4.05851">
        <ele>561</ele>
        <time>2019-12-19T01:00:25Z</time>
      </trkpt>
      <trkpt lat="45.56933" lon="4.05832">
        <ele>562</ele>
        <time>2019-12-19T01:00:28Z</time>
      </trkpt>
      <trkpt lat="45.5696" lon="4.05713">
        <ele>569</ele>
        <time>2019-12-19T01:00:43Z</time>
      </trkpt>
      <trkpt lat="45.56975" lon="4.05656">
        <ele>570</ele>
        <time>2019-12-19T01:00:51Z</time>
      </trkpt>
      <trkpt lat="45.56992" lon="4.05618">
        <ele>570</ele>
        <time>2019-12-19T01:00:56Z</time>
      </trkpt>
      <trkpt lat="45.57016" lon="4.05576">
        <ele>570</ele>
        <time>2019-12-19T01:01:03Z</time>
      </trkpt>
      <trkpt lat="45.57061" lon="4.05508">
        <ele>569</ele>
        <time>2019-12-19T01:01:15Z</time>
      </trkpt>
      <trkpt lat="45.5705" lon="4.05495">
        <ele>569</ele>
        <time>2019-12-19T01:01:17Z</time>
      </trkpt>
      <trkpt lat="45.57061" lon="4.05508">
        <ele>569</ele>
        <time>2019-12-19T01:01:20Z</time>
      </trkpt>
      <trkpt lat="45.57071" lon="4.05493">
        <ele>569</ele>
        <time>2019-12-19T01:01:22Z</time>
      </trkpt>
      <trkpt lat="45.57075" lon="4.05493">
        <ele>569</ele>
        <time>2019-12-19T01:01:23Z</time>
      </trkpt>
      <trkpt lat="45.5707" lon="4.05466">
        <ele>569</ele>
        <time>2019-12-19T01:01:27Z</time>
      </trkpt>
      <trkpt lat="45.57069" lon="4.05414">
        <ele>569</ele>
        <time>2019-12-19T01:01:33Z</time>
      </trkpt>
      <trkpt lat="45.57075" lon="4.05319">
        <ele>568</ele>
        <time>2019-12-19T01:01:45Z</time>
      </trkpt>
      <trkpt lat="45.57078" lon="4.05297">
        <ele>568</ele>
        <time>2019-12-19T01:01:48Z</time>
      </trkpt>
      <trkpt lat="45.57083" lon="4.05274">
        <ele>567</ele>
        <time>2019-12-19T01:01:51Z</time>
      </trkpt>
      <trkpt lat="45.571" lon="4.05227">
        <ele>567</ele>
        <time>2019-12-19T01:01:57Z</time>
      </trkpt>
      <trkpt lat="45.57125" lon="4.05178">
        <ele>568</ele>
        <time>2019-12-19T01:02:05Z</time>
      </trkpt>
      <trkpt lat="45.57137" lon="4.05145">
        <ele>568</ele>
        <time>2019-12-19T01:02:09Z</time>
      </trkpt>
      <trkpt lat="45.57148" lon="4.05093">
        <ele>567</ele>
        <time>2019-12-19T01:02:16Z</time>
      </trkpt>
      <trkpt lat="45.57156" lon="4.05071">
        <ele>567</ele>
        <time>2019-12-19T01:02:19Z</time>
      </trkpt>
      <trkpt lat="45.57164" lon="4.05056">
        <ele>567</ele>
        <time>2019-12-19T01:02:22Z</time>
      </trkpt>
      <trkpt lat="45.57178" lon="4.05046">
        <ele>567</ele>
        <time>2019-12-19T01:02:24Z</time>
      </trkpt>
      <trkpt lat="45.57229" lon="4.05034">
        <ele>568</ele>
        <time>2019-12-19T01:02:34Z</time>
      </trkpt>
      <trkpt lat="45.57241" lon="4.05027">
        <ele>568</ele>
        <time>2019-12-19T01:02:36Z</time>
      </trkpt>
      <trkpt lat="45.57253" lon="4.05015">
        <ele>568</ele>
        <time>2019-12-19T01:02:39Z</time>
      </trkpt>
      <trkpt lat="45.57262" lon="4.05003">
        <ele>568</ele>
        <time>2019-12-19T01:02:41Z</time>
      </trkpt>
      <trkpt lat="45.57271" lon="4.04987">
        <ele>567</ele>
        <time>2019-12-19T01:02:43Z</time>
      </trkpt>
      <trkpt lat="45.57286" lon="4.04952">
        <ele>566</ele>
        <time>2019-12-19T01:02:48Z</time>
      </trkpt>
      <trkpt lat="45.57299" lon="4.04937">
        <ele>566</ele>
        <time>2019-12-19T01:02:51Z</time>
      </trkpt>
      <trkpt lat="45.57318" lon="4.04931">
        <ele>567</ele>
        <time>2019-12-19T01:02:55Z</time>
      </trkpt>
      <trkpt lat="45.57341" lon="4.04934">
        <ele>569</ele>
        <time>2019-12-19T01:02:59Z</time>
      </trkpt>
      <trkpt lat="45.57351" lon="4.04946">
        <ele>570</ele>
        <time>2019-12-19T01:03:01Z</time>
      </trkpt>
      <trkpt lat="45.57357" lon="4.04948">
        <ele>570</ele>
        <time>2019-12-19T01:03:02Z</time>
      </trkpt>
      <trkpt lat="45.57396" lon="4.04949">
        <ele>572</ele>
        <time>2019-12-19T01:03:09Z</time>
      </trkpt>
      <trkpt lat="45.57426" lon="4.04959">
        <ele>574</ele>
        <time>2019-12-19T01:03:15Z</time>
      </trkpt>
      <trkpt lat="45.57454" lon="4.04952">
        <ele>576</ele>
        <time>2019-12-19T01:03:20Z</time>
      </trkpt>
      <trkpt lat="45.57465" lon="4.04951">
        <ele>577</ele>
        <time>2019-12-19T01:03:22Z</time>
      </trkpt>
      <trkpt lat="45.5749" lon="4.04962">
        <ele>579</ele>
        <time>2019-12-19T01:03:27Z</time>
      </trkpt>
      <trkpt lat="45.57529" lon="4.04965">
        <ele>583</ele>
        <time>2019-12-19T01:03:33Z</time>
      </trkpt>
      <trkpt lat="45.57547" lon="4.04974">
        <ele>585</ele>
        <time>2019-12-19T01:03:37Z</time>
      </trkpt>
      <trkpt lat="45.57564" lon="4.04976">
        <ele>587</ele>
        <time>2019-12-19T01:03:40Z</time>
      </trkpt>
      <trkpt lat="45.57568" lon="4.04968">
        <ele>587</ele>
        <time>2019-12-19T01:03:41Z</time>
      </trkpt>
      <trkpt lat="45.57581" lon="4.0495">
        <ele>589</ele>
        <time>2019-12-19T01:03:44Z</time>
      </trkpt>
      <trkpt lat="45.57592" lon="4.04929">
        <ele>590</ele>
        <time>2019-12-19T01:03:48Z</time>
      </trkpt>
      <trkpt lat="45.576" lon="4.04894">
        <ele>591</ele>
        <time>2019-12-19T01:03:52Z</time>
      </trkpt>
      <trkpt lat="45.576" lon="4.04786">
        <ele>595</ele>
        <time>2019-12-19T01:04:06Z</time>
      </trkpt>
      <trkpt lat="45.57624" lon="4.04575">
        <ele>594</ele>
        <time>2019-12-19T01:04:32Z</time>
      </trkpt>
      <trkpt lat="45.57626" lon="4.04466">
        <ele>596</ele>
        <time>2019-12-19T01:04:46Z</time>
      </trkpt>
      <trkpt lat="45.57636" lon="4.04398">
        <ele>599</ele>
        <time>2019-12-19T01:04:54Z</time>
      </trkpt>
      <trkpt lat="45.57648" lon="4.04335">
        <ele>602</ele>
        <time>2019-12-19T01:05:03Z</time>
      </trkpt>
      <trkpt lat="45.57684" lon="4.043">
        <ele>607</ele>
        <time>2019-12-19T01:05:10Z</time>
      </trkpt>
      <trkpt lat="45.57716" lon="4.04244">
        <ele>610</ele>
        <time>2019-12-19T01:05:19Z</time>
      </trkpt>
      <trkpt lat="45.57741" lon="4.04112">
        <ele>618</ele>
        <time>2019-12-19T01:05:36Z</time>
      </trkpt>
      <trkpt lat="45.57739" lon="4.04076">
        <ele>621</ele>
        <time>2019-12-19T01:05:41Z</time>
      </trkpt>
      <trkpt lat="45.57734" lon="4.04066">
        <ele>622</ele>
        <time>2019-12-19T01:05:42Z</time>
      </trkpt>
      <trkpt lat="45.57674" lon="4.03999">
        <ele>628</ele>
        <time>2019-12-19T01:05:56Z</time>
      </trkpt>
      <trkpt lat="45.57645" lon="4.03943">
        <ele>633</ele>
        <time>2019-12-19T01:06:05Z</time>
      </trkpt>
      <trkpt lat="45.57641" lon="4.03909">
        <ele>635</ele>
        <time>2019-12-19T01:06:09Z</time>
      </trkpt>
      <trkpt lat="45.57639" lon="4.03844">
        <ele>641</ele>
        <time>2019-12-19T01:06:17Z</time>
      </trkpt>
      <trkpt lat="45.57613" lon="4.03805">
        <ele>643</ele>
        <time>2019-12-19T01:06:24Z</time>
      </trkpt>
      <trkpt lat="45.57579" lon="4.03667">
        <ele>646</ele>
        <time>2019-12-19T01:06:42Z</time>
      </trkpt>
      <trkpt lat="45.57566" lon="4.03644">
        <ele>645</ele>
        <time>2019-12-19T01:06:46Z</time>
      </trkpt>
      <trkpt lat="45.57552" lon="4.03626">
        <ele>645</ele>
        <time>2019-12-19T01:06:49Z</time>
      </trkpt>
      <trkpt lat="45.57541" lon="4.03596">
        <ele>643</ele>
        <time>2019-12-19T01:06:53Z</time>
      </trkpt>
      <trkpt lat="45.57511" lon="4.03434">
        <ele>645</ele>
        <time>2019-12-19T01:07:14Z</time>
      </trkpt>
      <trkpt lat="45.57509" lon="4.03375">
        <ele>647</ele>
        <time>2019-12-19T01:07:21Z</time>
      </trkpt>
      <trkpt lat="45.57495" lon="4.03237">
        <ele>653</ele>
        <time>2019-12-19T01:07:39Z</time>
      </trkpt>
      <trkpt lat="45.57474" lon="4.03103">
        <ele>658</ele>
        <time>2019-12-19T01:07:56Z</time>
      </trkpt>
      <trkpt lat="45.5753" lon="4.03064">
        <ele>658</ele>
        <time>2019-12-19T01:08:07Z</time>
      </trkpt>
      <trkpt lat="45.57616" lon="4.02975">
        <ele>659</ele>
        <time>2019-12-19T01:08:26Z</time>
      </trkpt>
      <trkpt lat="45.57661" lon="4.02951">
        <ele>658</ele>
        <time>2019-12-19T01:08:34Z</time>
      </trkpt>
      <trkpt lat="45.57705" lon="4.02921">
        <ele>658</ele>
        <time>2019-12-19T01:08:43Z</time>
      </trkpt>
      <trkpt lat="45.57714" lon="4.0291">
        <ele>658</ele>
        <time>2019-12-19T01:08:45Z</time>
      </trkpt>
      <trkpt lat="45.57761" lon="4.02835">
        <ele>656</ele>
        <time>2019-12-19T01:08:58Z</time>
      </trkpt>
      <trkpt lat="45.57782" lon="4.02791">
        <ele>655</ele>
        <time>2019-12-19T01:09:04Z</time>
      </trkpt>
      <trkpt lat="45.57799" lon="4.02744">
        <ele>655</ele>
        <time>2019-12-19T01:09:11Z</time>
      </trkpt>
      <trkpt lat="45.57812" lon="4.02719">
        <ele>656</ele>
        <time>2019-12-19T01:09:15Z</time>
      </trkpt>
      <trkpt lat="45.57818" lon="4.02715">
        <ele>655</ele>
        <time>2019-12-19T01:09:16Z</time>
      </trkpt>
      <trkpt lat="45.57849" lon="4.02713">
        <ele>653</ele>
        <time>2019-12-19T01:09:22Z</time>
      </trkpt>
      <trkpt lat="45.57913" lon="4.02726">
        <ele>653</ele>
        <time>2019-12-19T01:09:33Z</time>
      </trkpt>
      <trkpt lat="45.57957" lon="4.02727">
        <ele>657</ele>
        <time>2019-12-19T01:09:41Z</time>
      </trkpt>
      <trkpt lat="45.57974" lon="4.02734">
        <ele>658</ele>
        <time>2019-12-19T01:09:44Z</time>
      </trkpt>
      <trkpt lat="45.57989" lon="4.02747">
        <ele>659</ele>
        <time>2019-12-19T01:09:47Z</time>
      </trkpt>
      <trkpt lat="45.57998" lon="4.02766">
        <ele>658</ele>
        <time>2019-12-19T01:09:50Z</time>
      </trkpt>
      <trkpt lat="45.58024" lon="4.02785">
        <ele>658</ele>
        <time>2019-12-19T01:09:55Z</time>
      </trkpt>
      <trkpt lat="45.58053" lon="4.02792">
        <ele>659</ele>
        <time>2019-12-19T01:10:00Z</time>
      </trkpt>
      <trkpt lat="45.58072" lon="4.02801">
        <ele>659</ele>
        <time>2019-12-19T01:10:04Z</time>
      </trkpt>
      <trkpt lat="45.58086" lon="4.02813">
        <ele>659</ele>
        <time>2019-12-19T01:10:07Z</time>
      </trkpt>
      <trkpt lat="45.58098" lon="4.02827">
        <ele>657</ele>
        <time>2019-12-19T01:10:10Z</time>
      </trkpt>
      <trkpt lat="45.58124" lon="4.02872">
        <ele>655</ele>
        <time>2019-12-19T01:10:17Z</time>
      </trkpt>
      <trkpt lat="45.58132" lon="4.02882">
        <ele>654</ele>
        <time>2019-12-19T01:10:19Z</time>
      </trkpt>
      <trkpt lat="45.58137" lon="4.02882">
        <ele>654</ele>
        <time>2019-12-19T01:10:20Z</time>
      </trkpt>
      <trkpt lat="45.58171" lon="4.02867">
        <ele>653</ele>
        <time>2019-12-19T01:10:26Z</time>
      </trkpt>
      <trkpt lat="45.5821" lon="4.02857">
        <ele>646</ele>
        <time>2019-12-19T01:10:33Z</time>
      </trkpt>
      <trkpt lat="45.58231" lon="4.02849">
        <ele>643</ele>
        <time>2019-12-19T01:10:37Z</time>
      </trkpt>
      <trkpt lat="45.58281" lon="4.02838">
        <ele>635</ele>
        <time>2019-12-19T01:10:46Z</time>
      </trkpt>
      <trkpt lat="45.58336" lon="4.02834">
        <ele>626</ele>
        <time>2019-12-19T01:10:56Z</time>
      </trkpt>
      <trkpt lat="45.58398" lon="4.02822">
        <ele>617</ele>
        <time>2019-12-19T01:11:07Z</time>
      </trkpt>
      <trkpt lat="45.58417" lon="4.02815">
        <ele>614</ele>
        <time>2019-12-19T01:11:10Z</time>
      </trkpt>
      <trkpt lat="45.58433" lon="4.02804">
        <ele>610</ele>
        <time>2019-12-19T01:11:14Z</time>
      </trkpt>
      <trkpt lat="45.58455" lon="4.02786">
        <ele>604</ele>
        <time>2019-12-19T01:11:18Z</time>
      </trkpt>
      <trkpt lat="45.5848" lon="4.02761">
        <ele>597</ele>
        <time>2019-12-19T01:11:24Z</time>
      </trkpt>
      <trkpt lat="45.58508" lon="4.02755">
        <ele>589</ele>
        <time>2019-12-19T01:11:29Z</time>
      </trkpt>
      <trkpt lat="45.58524" lon="4.02771">
        <ele>584</ele>
        <time>2019-12-19T01:11:32Z</time>
      </trkpt>
      <trkpt lat="45.58544" lon="4.02748">
        <ele>578</ele>
        <time>2019-12-19T01:11:37Z</time>
      </trkpt>
      <trkpt lat="45.58557" lon="4.02689">
        <ele>570</ele>
        <time>2019-12-19T01:11:44Z</time>
      </trkpt>
      <trkpt lat="45.58566" lon="4.02643">
        <ele>566</ele>
        <time>2019-12-19T01:11:50Z</time>
      </trkpt>
      <trkpt lat="45.58577" lon="4.02619">
        <ele>562</ele>
        <time>2019-12-19T01:11:54Z</time>
      </trkpt>
      <trkpt lat="45.58585" lon="4.02559">
        <ele>562</ele>
        <time>2019-12-19T01:12:01Z</time>
      </trkpt>
      <trkpt lat="45.58618" lon="4.02548">
        <ele>559</ele>
        <time>2019-12-19T01:12:07Z</time>
      </trkpt>
      <trkpt lat="45.58658" lon="4.02547">
        <ele>554</ele>
        <time>2019-12-19T01:12:15Z</time>
      </trkpt>
      <trkpt lat="45.58671" lon="4.02592">
        <ele>554</ele>
        <time>2019-12-19T01:12:21Z</time>
      </trkpt>
      <trkpt lat="45.5867" lon="4.02635">
        <ele>555</ele>
        <time>2019-12-19T01:12:26Z</time>
      </trkpt>
      <trkpt lat="45.58673" lon="4.02652">
        <ele>557</ele>
        <time>2019-12-19T01:12:28Z</time>
      </trkpt>
      <trkpt lat="45.58673" lon="4.02667">
        <ele>557</ele>
        <time>2019-12-19T01:12:30Z</time>
      </trkpt>
      <trkpt lat="45.58668" lon="4.02699">
        <ele>555</ele>
        <time>2019-12-19T01:12:34Z</time>
      </trkpt>
      <trkpt lat="45.58687" lon="4.02766">
        <ele>560</ele>
        <time>2019-12-19T01:12:43Z</time>
      </trkpt>
      <trkpt lat="45.58706" lon="4.02808">
        <ele>561</ele>
        <time>2019-12-19T01:12:49Z</time>
      </trkpt>
      <trkpt lat="45.58726" lon="4.02824">
        <ele>565</ele>
        <time>2019-12-19T01:12:53Z</time>
      </trkpt>
      <trkpt lat="45.58741" lon="4.02833">
        <ele>568</ele>
        <time>2019-12-19T01:12:56Z</time>
      </trkpt>
      <trkpt lat="45.58764" lon="4.02842">
        <ele>571</ele>
        <time>2019-12-19T01:13:01Z</time>
      </trkpt>
      <trkpt lat="45.58802" lon="4.02848">
        <ele>576</ele>
        <time>2019-12-19T01:13:07Z</time>
      </trkpt>
      <trkpt lat="45.58822" lon="4.02855">
        <ele>579</ele>
        <time>2019-12-19T01:13:11Z</time>
      </trkpt>
      <trkpt lat="45.58834" lon="4.02877">
        <ele>579</ele>
        <time>2019-12-19T01:13:15Z</time>
      </trkpt>
      <trkpt lat="45.58852" lon="4.029">
        <ele>581</ele>
        <time>2019-12-19T01:13:19Z</time>
      </trkpt>
      <trkpt lat="45.58882" lon="4.02924">
        <ele>584</ele>
        <time>2019-12-19T01:13:25Z</time>
      </trkpt>
      <trkpt lat="45.58947" lon="4.02913">
        <ele>592</ele>
        <time>2019-12-19T01:13:37Z</time>
      </trkpt>
      <trkpt lat="45.5895" lon="4.02918">
        <ele>592</ele>
        <time>2019-12-19T01:13:37Z</time>
      </trkpt>
      <trkpt lat="45.58967" lon="4.02933">
        <ele>591</ele>
        <time>2019-12-19T01:13:41Z</time>
      </trkpt>
      <trkpt lat="45.59029" lon="4.02975">
        <ele>592</ele>
        <time>2019-12-19T01:13:53Z</time>
      </trkpt>
      <trkpt lat="45.59048" lon="4.02995">
        <ele>592</ele>
        <time>2019-12-19T01:13:57Z</time>
      </trkpt>
      <trkpt lat="45.59064" lon="4.03019">
        <ele>592</ele>
        <time>2019-12-19T01:14:01Z</time>
      </trkpt>
      <trkpt lat="45.59092" lon="4.03065">
        <ele>591</ele>
        <time>2019-12-19T01:14:09Z</time>
      </trkpt>
      <trkpt lat="45.59134" lon="4.03118">
        <ele>589</ele>
        <time>2019-12-19T01:14:19Z</time>
      </trkpt>
      <trkpt lat="45.59201" lon="4.03195">
        <ele>583</ele>
        <time>2019-12-19T01:14:34Z</time>
      </trkpt>
      <trkpt lat="45.5921" lon="4.03199">
        <ele>583</ele>
        <time>2019-12-19T01:14:36Z</time>
      </trkpt>
      <trkpt lat="45.59218" lon="4.03198">
        <ele>582</ele>
        <time>2019-12-19T01:14:37Z</time>
      </trkpt>
      <trkpt lat="45.59246" lon="4.03151">
        <ele>582</ele>
        <time>2019-12-19T01:14:45Z</time>
      </trkpt>
      <trkpt lat="45.5926" lon="4.03139">
        <ele>582</ele>
        <time>2019-12-19T01:14:48Z</time>
      </trkpt>
      <trkpt lat="45.59277" lon="4.03134">
        <ele>581</ele>
        <time>2019-12-19T01:14:51Z</time>
      </trkpt>
      <trkpt lat="45.59343" lon="4.03138">
        <ele>576</ele>
        <time>2019-12-19T01:15:03Z</time>
      </trkpt>
      <trkpt lat="45.59365" lon="4.03131">
        <ele>575</ele>
        <time>2019-12-19T01:15:07Z</time>
      </trkpt>
      <trkpt lat="45.59385" lon="4.03119">
        <ele>575</ele>
        <time>2019-12-19T01:15:11Z</time>
      </trkpt>
      <trkpt lat="45.594" lon="4.03106">
        <ele>575</ele>
        <time>2019-12-19T01:15:14Z</time>
      </trkpt>
      <trkpt lat="45.59436" lon="4.03066">
        <ele>575</ele>
        <time>2019-12-19T01:15:22Z</time>
      </trkpt>
      <trkpt lat="45.59444" lon="4.03054">
        <ele>574</ele>
        <time>2019-12-19T01:15:24Z</time>
      </trkpt>
      <trkpt lat="45.59455" lon="4.03041">
        <ele>573</ele>
        <time>2019-12-19T01:15:27Z</time>
      </trkpt>
      <trkpt lat="45.59459" lon="4.03016">
        <ele>573</ele>
        <time>2019-12-19T01:15:30Z</time>
      </trkpt>
      <trkpt lat="45.5946" lon="4.02991">
        <ele>573</ele>
        <time>2019-12-19T01:15:33Z</time>
      </trkpt>
      <trkpt lat="45.59462" lon="4.02975">
        <ele>574</ele>
        <time>2019-12-19T01:15:35Z</time>
      </trkpt>
      <trkpt lat="45.59471" lon="4.02942">
        <ele>573</ele>
        <time>2019-12-19T01:15:39Z</time>
      </trkpt>
      <trkpt lat="45.5947" lon="4.02933">
        <ele>573</ele>
        <time>2019-12-19T01:15:40Z</time>
      </trkpt>
      <trkpt lat="45.59465" lon="4.02907">
        <ele>576</ele>
        <time>2019-12-19T01:15:44Z</time>
      </trkpt>
      <trkpt lat="45.59452" lon="4.02875">
        <ele>580</ele>
        <time>2019-12-19T01:15:48Z</time>
      </trkpt>
      <trkpt lat="45.59449" lon="4.02857">
        <ele>582</ele>
        <time>2019-12-19T01:15:51Z</time>
      </trkpt>
      <trkpt lat="45.5945" lon="4.02848">
        <ele>582</ele>
        <time>2019-12-19T01:15:52Z</time>
      </trkpt>
      <trkpt lat="45.59453" lon="4.02841">
        <ele>582</ele>
        <time>2019-12-19T01:15:53Z</time>
      </trkpt>
      <trkpt lat="45.59458" lon="4.02836">
        <ele>582</ele>
        <time>2019-12-19T01:15:54Z</time>
      </trkpt>
      <trkpt lat="45.59472" lon="4.02841">
        <ele>581</ele>
        <time>2019-12-19T01:15:57Z</time>
      </trkpt>
      <trkpt lat="45.5957" lon="4.02982">
        <ele>559</ele>
        <time>2019-12-19T01:16:21Z</time>
      </trkpt>
      <trkpt lat="45.59582" lon="4.03009">
        <ele>554</ele>
        <time>2019-12-19T01:16:25Z</time>
      </trkpt>
      <trkpt lat="45.59599" lon="4.03064">
        <ele>550</ele>
        <time>2019-12-19T01:16:33Z</time>
      </trkpt>
      <trkpt lat="45.59615" lon="4.03095">
        <ele>548</ele>
        <time>2019-12-19T01:16:38Z</time>
      </trkpt>
      <trkpt lat="45.59667" lon="4.03175">
        <ele>540</ele>
        <time>2019-12-19T01:16:51Z</time>
      </trkpt>
      <trkpt lat="45.59718" lon="4.03259">
        <ele>529</ele>
        <time>2019-12-19T01:17:05Z</time>
      </trkpt>
      <trkpt lat="45.59771" lon="4.03338">
        <ele>522</ele>
        <time>2019-12-19T01:17:19Z</time>
      </trkpt>
      <trkpt lat="45.59799" lon="4.03363">
        <ele>525</ele>
        <time>2019-12-19T01:17:24Z</time>
      </trkpt>
      <trkpt lat="45.59811" lon="4.03396">
        <ele>526</ele>
        <time>2019-12-19T01:17:29Z</time>
      </trkpt>
      <trkpt lat="45.59815" lon="4.03425">
        <ele>527</ele>
        <time>2019-12-19T01:17:33Z</time>
      </trkpt>
      <trkpt lat="45.59819" lon="4.03401">
        <ele>528</ele>
        <time>2019-12-19T01:17:36Z</time>
      </trkpt>
      <trkpt lat="45.59826" lon="4.03377">
        <ele>528</ele>
        <time>2019-12-19T01:17:39Z</time>
      </trkpt>
      <trkpt lat="45.59846" lon="4.03333">
        <ele>531</ele>
        <time>2019-12-19T01:17:46Z</time>
      </trkpt>
      <trkpt lat="45.5985" lon="4.03336">
        <ele>532</ele>
        <time>2019-12-19T01:17:46Z</time>
      </trkpt>
      <trkpt lat="45.59849" lon="4.03362">
        <ele>532</ele>
        <time>2019-12-19T01:17:50Z</time>
      </trkpt>
      <trkpt lat="45.59855" lon="4.03383">
        <ele>534</ele>
        <time>2019-12-19T01:17:53Z</time>
      </trkpt>
      <trkpt lat="45.59871" lon="4.03406">
        <ele>537</ele>
        <time>2019-12-19T01:17:57Z</time>
      </trkpt>
      <trkpt lat="45.59874" lon="4.03378">
        <ele>538</ele>
        <time>2019-12-19T01:18:00Z</time>
      </trkpt>
      <trkpt lat="45.59886" lon="4.0335">
        <ele>540</ele>
        <time>2019-12-19T01:18:04Z</time>
      </trkpt>
      <trkpt lat="45.59913" lon="4.03306">
        <ele>545</ele>
        <time>2019-12-19T01:18:11Z</time>
      </trkpt>
      <trkpt lat="45.59935" lon="4.03281">
        <ele>547</ele>
        <time>2019-12-19T01:18:16Z</time>
      </trkpt>
      <trkpt lat="45.59974" lon="4.03245">
        <ele>552</ele>
        <time>2019-12-19T01:18:25Z</time>
      </trkpt>
      <trkpt lat="45.59988" lon="4.03216">
        <ele>555</ele>
        <time>2019-12-19T01:18:29Z</time>
      </trkpt>
      <trkpt lat="45.59991" lon="4.03191">
        <ele>556</ele>
        <time>2019-12-19T01:18:32Z</time>
      </trkpt>
      <trkpt lat="45.59992" lon="4.02977">
        <ele>565</ele>
        <time>2019-12-19T01:18:59Z</time>
      </trkpt>
      <trkpt lat="45.59996" lon="4.02939">
        <ele>566</ele>
        <time>2019-12-19T01:19:04Z</time>
      </trkpt>
      <trkpt lat="45.60033" lon="4.02776">
        <ele>572</ele>
        <time>2019-12-19T01:19:25Z</time>
      </trkpt>
      <trkpt lat="45.60067" lon="4.02711">
        <ele>579</ele>
        <time>2019-12-19T01:19:35Z</time>
      </trkpt>
      <trkpt lat="45.60079" lon="4.02668">
        <ele>578</ele>
        <time>2019-12-19T01:19:41Z</time>
      </trkpt>
      <trkpt lat="45.60079" lon="4.02619">
        <ele>582</ele>
        <time>2019-12-19T01:19:47Z</time>
      </trkpt>
      <trkpt lat="45.6007" lon="4.02519">
        <ele>587</ele>
        <time>2019-12-19T01:20:00Z</time>
      </trkpt>
      <trkpt lat="45.60052" lon="4.02414">
        <ele>589</ele>
        <time>2019-12-19T01:20:13Z</time>
      </trkpt>
      <trkpt lat="45.60054" lon="4.02374">
        <ele>590</ele>
        <time>2019-12-19T01:20:18Z</time>
      </trkpt>
      <trkpt lat="45.60062" lon="4.0233">
        <ele>594</ele>
        <time>2019-12-19T01:20:24Z</time>
      </trkpt>
      <trkpt lat="45.6006" lon="4.0227">
        <ele>597</ele>
        <time>2019-12-19T01:20:31Z</time>
      </trkpt>
      <trkpt lat="45.60063" lon="4.02242">
        <ele>599</ele>
        <time>2019-12-19T01:20:35Z</time>
      </trkpt>
      <trkpt lat="45.60081" lon="4.0219">
        <ele>606</ele>
        <time>2019-12-19T01:20:42Z</time>
      </trkpt>
      <trkpt lat="45.60083" lon="4.02167">
        <ele>607</ele>
        <time>2019-12-19T01:20:45Z</time>
      </trkpt>
      <trkpt lat="45.60059" lon="4.01985">
        <ele>612</ele>
        <time>2019-12-19T01:21:08Z</time>
      </trkpt>
      <trkpt lat="45.60062" lon="4.0194">
        <ele>617</ele>
        <time>2019-12-19T01:21:13Z</time>
      </trkpt>
      <trkpt lat="45.60061" lon="4.01914">
        <ele>620</ele>
        <time>2019-12-19T01:21:17Z</time>
      </trkpt>
      <trkpt lat="45.60053" lon="4.01891">
        <ele>623</ele>
        <time>2019-12-19T01:21:20Z</time>
      </trkpt>
      <trkpt lat="45.6004" lon="4.01875">
        <ele>624</ele>
        <time>2019-12-19T01:21:23Z</time>
      </trkpt>
      <trkpt lat="45.60026" lon="4.01865">
        <ele>625</ele>
        <time>2019-12-19T01:21:26Z</time>
      </trkpt>
      <trkpt lat="45.60033" lon="4.01845">
        <ele>630</ele>
        <time>2019-12-19T01:21:28Z</time>
      </trkpt>
      <trkpt lat="45.60038" lon="4.01841">
        <ele>631</ele>
        <time>2019-12-19T01:21:30Z</time>
      </trkpt>
      <trkpt lat="45.60085" lon="4.01847">
        <ele>634</ele>
        <time>2019-12-19T01:21:38Z</time>
      </trkpt>
      <trkpt lat="45.60092" lon="4.01854">
        <ele>633</ele>
        <time>2019-12-19T01:21:39Z</time>
      </trkpt>
      <trkpt lat="45.60105" lon="4.01878">
        <ele>631</ele>
        <time>2019-12-19T01:21:43Z</time>
      </trkpt>
      <trkpt lat="45.60122" lon="4.01886">
        <ele>631</ele>
        <time>2019-12-19T01:21:46Z</time>
      </trkpt>
      <trkpt lat="45.60154" lon="4.01887">
        <ele>633</ele>
        <time>2019-12-19T01:21:52Z</time>
      </trkpt>
      <trkpt lat="45.60146" lon="4.01833">
        <ele>638</ele>
        <time>2019-12-19T01:21:59Z</time>
      </trkpt>
      <trkpt lat="45.60161" lon="4.01835">
        <ele>639</ele>
        <time>2019-12-19T01:22:02Z</time>
      </trkpt>
      <trkpt lat="45.60181" lon="4.01831">
        <ele>637</ele>
        <time>2019-12-19T01:22:05Z</time>
      </trkpt>
      <trkpt lat="45.60189" lon="4.01835">
        <ele>636</ele>
        <time>2019-12-19T01:22:07Z</time>
      </trkpt>
      <trkpt lat="45.60197" lon="4.01843">
        <ele>634</ele>
        <time>2019-12-19T01:22:08Z</time>
      </trkpt>
      <trkpt lat="45.60203" lon="4.01858">
        <ele>633</ele>
        <time>2019-12-19T01:22:11Z</time>
      </trkpt>
      <trkpt lat="45.60207" lon="4.01882">
        <ele>631</ele>
        <time>2019-12-19T01:22:14Z</time>
      </trkpt>
      <trkpt lat="45.60212" lon="4.01926">
        <ele>629</ele>
        <time>2019-12-19T01:22:19Z</time>
      </trkpt>
      <trkpt lat="45.60226" lon="4.02014">
        <ele>627</ele>
        <time>2019-12-19T01:22:30Z</time>
      </trkpt>
      <trkpt lat="45.60239" lon="4.02005">
        <ele>627</ele>
        <time>2019-12-19T01:22:33Z</time>
      </trkpt>
      <trkpt lat="45.60268" lon="4.01998">
        <ele>623</ele>
        <time>2019-12-19T01:22:38Z</time>
      </trkpt>
      <trkpt lat="45.60278" lon="4.02006">
        <ele>621</ele>
        <time>2019-12-19T01:22:40Z</time>
      </trkpt>
      <trkpt lat="45.60288" lon="4.02003">
        <ele>619</ele>
        <time>2019-12-19T01:22:42Z</time>
      </trkpt>
      <trkpt lat="45.60297" lon="4.01985">
        <ele>618</ele>
        <time>2019-12-19T01:22:45Z</time>
      </trkpt>
      <trkpt lat="45.60339" lon="4.01942">
        <ele>612</ele>
        <time>2019-12-19T01:22:54Z</time>
      </trkpt>
      <trkpt lat="45.60345" lon="4.01929">
        <ele>612</ele>
        <time>2019-12-19T01:22:56Z</time>
      </trkpt>
      <trkpt lat="45.60359" lon="4.01869">
        <ele>609</ele>
        <time>2019-12-19T01:23:04Z</time>
      </trkpt>
      <trkpt lat="45.60361" lon="4.01817">
        <ele>610</ele>
        <time>2019-12-19T01:23:10Z</time>
      </trkpt>
      <trkpt lat="45.60342" lon="4.01725">
        <ele>618</ele>
        <time>2019-12-19T01:23:22Z</time>
      </trkpt>
      <trkpt lat="45.60345" lon="4.01703">
        <ele>621</ele>
        <time>2019-12-19T01:23:25Z</time>
      </trkpt>
      <trkpt lat="45.60354" lon="4.01684">
        <ele>624</ele>
        <time>2019-12-19T01:23:28Z</time>
      </trkpt>
      <trkpt lat="45.60365" lon="4.01684">
        <ele>624</ele>
        <time>2019-12-19T01:23:30Z</time>
      </trkpt>
      <trkpt lat="45.60382" lon="4.01698">
        <ele>621</ele>
        <time>2019-12-19T01:23:33Z</time>
      </trkpt>
      <trkpt lat="45.60407" lon="4.01736">
        <ele>614</ele>
        <time>2019-12-19T01:23:40Z</time>
      </trkpt>
      <trkpt lat="45.6046" lon="4.01772">
        <ele>613</ele>
        <time>2019-12-19T01:23:50Z</time>
      </trkpt>
      <trkpt lat="45.60517" lon="4.01827">
        <ele>608</ele>
        <time>2019-12-19T01:24:03Z</time>
      </trkpt>
      <trkpt lat="45.60542" lon="4.01867">
        <ele>605</ele>
        <time>2019-12-19T01:24:09Z</time>
      </trkpt>
      <trkpt lat="45.6057" lon="4.01893">
        <ele>607</ele>
        <time>2019-12-19T01:24:15Z</time>
      </trkpt>
      <trkpt lat="45.60631" lon="4.01942">
        <ele>607</ele>
        <time>2019-12-19T01:24:28Z</time>
      </trkpt>
      <trkpt lat="45.60682" lon="4.01977">
        <ele>606</ele>
        <time>2019-12-19T01:24:38Z</time>
      </trkpt>
      <trkpt lat="45.60711" lon="4.0201">
        <ele>600</ele>
        <time>2019-12-19T01:24:44Z</time>
      </trkpt>
      <trkpt lat="45.60721" lon="4.02051">
        <ele>596</ele>
        <time>2019-12-19T01:24:50Z</time>
      </trkpt>
      <trkpt lat="45.60744" lon="4.02055">
        <ele>595</ele>
        <time>2019-12-19T01:24:54Z</time>
      </trkpt>
      <trkpt lat="45.60765" lon="4.02038">
        <ele>592</ele>
        <time>2019-12-19T01:24:58Z</time>
      </trkpt>
      <trkpt lat="45.60778" lon="4.02012">
        <ele>589</ele>
        <time>2019-12-19T01:25:02Z</time>
      </trkpt>
      <trkpt lat="45.60779" lon="4.01942">
        <ele>587</ele>
        <time>2019-12-19T01:25:11Z</time>
      </trkpt>
      <trkpt lat="45.60769" lon="4.01909">
        <ele>590</ele>
        <time>2019-12-19T01:25:15Z</time>
      </trkpt>
      <trkpt lat="45.60786" lon="4.01834">
        <ele>581</ele>
        <time>2019-12-19T01:25:25Z</time>
      </trkpt>
      <trkpt lat="45.6079" lon="4.01709">
        <ele>574</ele>
        <time>2019-12-19T01:25:41Z</time>
      </trkpt>
      <trkpt lat="45.60897" lon="4.01902">
        <ele>539</ele>
        <time>2019-12-19T01:26:11Z</time>
      </trkpt>
      <trkpt lat="45.6091" lon="4.01915">
        <ele>535</ele>
        <time>2019-12-19T01:26:14Z</time>
      </trkpt>
      <trkpt lat="45.60919" lon="4.01945">
        <ele>531</ele>
        <time>2019-12-19T01:26:18Z</time>
      </trkpt>
      <trkpt lat="45.60927" lon="4.01965">
        <ele>528</ele>
        <time>2019-12-19T01:26:21Z</time>
      </trkpt>
      <trkpt lat="45.60954" lon="4.019">
        <ele>514</ele>
        <time>2019-12-19T01:26:31Z</time>
      </trkpt>
      <trkpt lat="45.60964" lon="4.01872">
        <ele>507</ele>
        <time>2019-12-19T01:26:34Z</time>
      </trkpt>
      <trkpt lat="45.60969" lon="4.01847">
        <ele>503</ele>
        <time>2019-12-19T01:26:38Z</time>
      </trkpt>
      <trkpt lat="45.60953" lon="4.01816">
        <ele>507</ele>
        <time>2019-12-19T01:26:42Z</time>
      </trkpt>
      <trkpt lat="45.60956" lon="4.0181">
        <ele>505</ele>
        <time>2019-12-19T01:26:43Z</time>
      </trkpt>
      <trkpt lat="45.60961" lon="4.01807">
        <ele>504</ele>
        <time>2019-12-19T01:26:44Z</time>
      </trkpt>
      <trkpt lat="45.60974" lon="4.01817">
        <ele>500</ele>
        <time>2019-12-19T01:26:47Z</time>
      </trkpt>
      <trkpt lat="45.60979" lon="4.01813">
        <ele>498</ele>
        <time>2019-12-19T01:26:48Z</time>
      </trkpt>
      <trkpt lat="45.60979" lon="4.01806">
        <ele>498</ele>
        <time>2019-12-19T01:26:49Z</time>
      </trkpt>
      <trkpt lat="45.60963" lon="4.01786">
        <ele>502</ele>
        <time>2019-12-19T01:26:53Z</time>
      </trkpt>
      <trkpt lat="45.6096" lon="4.0176">
        <ele>502</ele>
        <time>2019-12-19T01:26:56Z</time>
      </trkpt>
      <trkpt lat="45.60951" lon="4.0175">
        <ele>505</ele>
        <time>2019-12-19T01:26:58Z</time>
      </trkpt>
      <trkpt lat="45.60949" lon="4.01727">
        <ele>509</ele>
        <time>2019-12-19T01:27:01Z</time>
      </trkpt>
      <trkpt lat="45.6095" lon="4.01705">
        <ele>513</ele>
        <time>2019-12-19T01:27:04Z</time>
      </trkpt>
      <trkpt lat="45.60954" lon="4.01693">
        <ele>514</ele>
        <time>2019-12-19T01:27:05Z</time>
      </trkpt>
      <trkpt lat="45.60961" lon="4.01683">
        <ele>515</ele>
        <time>2019-12-19T01:27:07Z</time>
      </trkpt>
      <trkpt lat="45.60976" lon="4.01683">
        <ele>513</ele>
        <time>2019-12-19T01:27:10Z</time>
      </trkpt>
      <trkpt lat="45.61" lon="4.01689">
        <ele>508</ele>
        <time>2019-12-19T01:27:14Z</time>
      </trkpt>
      <trkpt lat="45.61026" lon="4.01686">
        <ele>507</ele>
        <time>2019-12-19T01:27:19Z</time>
      </trkpt>
      <trkpt lat="45.6118" lon="4.01659">
        <ele>505</ele>
        <time>2019-12-19T01:27:46Z</time>
      </trkpt>
      <trkpt lat="45.61194" lon="4.01648">
        <ele>505</ele>
        <time>2019-12-19T01:27:49Z</time>
      </trkpt>
      <trkpt lat="45.61208" lon="4.01627">
        <ele>507</ele>
        <time>2019-12-19T01:27:53Z</time>
      </trkpt>
      <trkpt lat="45.61223" lon="4.01589">
        <ele>512</ele>
        <time>2019-12-19T01:27:58Z</time>
      </trkpt>
      <trkpt lat="45.61241" lon="4.01492">
        <ele>519</ele>
        <time>2019-12-19T01:28:11Z</time>
      </trkpt>
      <trkpt lat="45.61242" lon="4.01457">
        <ele>520</ele>
        <time>2019-12-19T01:28:15Z</time>
      </trkpt>
      <trkpt lat="45.61241" lon="4.01422">
        <ele>522</ele>
        <time>2019-12-19T01:28:19Z</time>
      </trkpt>
      <trkpt lat="45.61242" lon="4.01385">
        <ele>524</ele>
        <time>2019-12-19T01:28:24Z</time>
      </trkpt>
      <trkpt lat="45.61246" lon="4.01348">
        <ele>525</ele>
        <time>2019-12-19T01:28:29Z</time>
      </trkpt>
      <trkpt lat="45.61245" lon="4.01322">
        <ele>527</ele>
        <time>2019-12-19T01:28:32Z</time>
      </trkpt>
      <trkpt lat="45.6125" lon="4.01305">
        <ele>526</ele>
        <time>2019-12-19T01:28:34Z</time>
      </trkpt>
      <trkpt lat="45.61258" lon="4.01302">
        <ele>527</ele>
        <time>2019-12-19T01:28:36Z</time>
      </trkpt>
      <trkpt lat="45.61276" lon="4.01301">
        <ele>530</ele>
        <time>2019-12-19T01:28:39Z</time>
      </trkpt>
      <trkpt lat="45.6129" lon="4.01302">
        <ele>532</ele>
        <time>2019-12-19T01:28:41Z</time>
      </trkpt>
      <trkpt lat="45.61306" lon="4.01329">
        <ele>530</ele>
        <time>2019-12-19T01:28:46Z</time>
      </trkpt>
      <trkpt lat="45.61314" lon="4.01363">
        <ele>526</ele>
        <time>2019-12-19T01:28:50Z</time>
      </trkpt>
      <trkpt lat="45.61324" lon="4.01425">
        <ele>519</ele>
        <time>2019-12-19T01:28:58Z</time>
      </trkpt>
      <trkpt lat="45.61323" lon="4.01454">
        <ele>518</ele>
        <time>2019-12-19T01:29:02Z</time>
      </trkpt>
      <trkpt lat="45.61313" lon="4.01497">
        <ele>515</ele>
        <time>2019-12-19T01:29:07Z</time>
      </trkpt>
      <trkpt lat="45.6131" lon="4.01516">
        <ele>513</ele>
        <time>2019-12-19T01:29:10Z</time>
      </trkpt>
      <trkpt lat="45.61315" lon="4.01537">
        <ele>511</ele>
        <time>2019-12-19T01:29:13Z</time>
      </trkpt>
      <trkpt lat="45.61321" lon="4.01545">
        <ele>510</ele>
        <time>2019-12-19T01:29:14Z</time>
      </trkpt>
      <trkpt lat="45.6133" lon="4.01543">
        <ele>510</ele>
        <time>2019-12-19T01:29:16Z</time>
      </trkpt>
      <trkpt lat="45.61339" lon="4.01521">
        <ele>511</ele>
        <time>2019-12-19T01:29:19Z</time>
      </trkpt>
      <trkpt lat="45.61344" lon="4.0147">
        <ele>514</ele>
        <time>2019-12-19T01:29:25Z</time>
      </trkpt>
      <trkpt lat="45.61351" lon="4.01431">
        <ele>515</ele>
        <time>2019-12-19T01:29:30Z</time>
      </trkpt>
      <trkpt lat="45.61378" lon="4.0135">
        <ele>524</ele>
        <time>2019-12-19T01:29:41Z</time>
      </trkpt>
      <trkpt lat="45.61382" lon="4.01317">
        <ele>532</ele>
        <time>2019-12-19T01:29:46Z</time>
      </trkpt>
      <trkpt lat="45.61389" lon="4.01307">
        <ele>534</ele>
        <time>2019-12-19T01:29:47Z</time>
      </trkpt>
      <trkpt lat="45.61411" lon="4.01284">
        <ele>541</ele>
        <time>2019-12-19T01:29:52Z</time>
      </trkpt>
      <trkpt lat="45.61442" lon="4.01246">
        <ele>547</ele>
        <time>2019-12-19T01:29:59Z</time>
      </trkpt>
      <trkpt lat="45.6146" lon="4.0123">
        <ele>547</ele>
        <time>2019-12-19T01:30:03Z</time>
      </trkpt>
      <trkpt lat="45.61488" lon="4.01221">
        <ele>542</ele>
        <time>2019-12-19T01:30:08Z</time>
      </trkpt>
      <trkpt lat="45.61505" lon="4.01218">
        <ele>538</ele>
        <time>2019-12-19T01:30:11Z</time>
      </trkpt>
      <trkpt lat="45.61512" lon="4.01212">
        <ele>538</ele>
        <time>2019-12-19T01:30:13Z</time>
      </trkpt>
      <trkpt lat="45.6152" lon="4.01196">
        <ele>540</ele>
        <time>2019-12-19T01:30:15Z</time>
      </trkpt>
      <trkpt lat="45.61526" lon="4.01174">
        <ele>545</ele>
        <time>2019-12-19T01:30:18Z</time>
      </trkpt>
      <trkpt lat="45.61541" lon="4.01147">
        <ele>545</ele>
        <time>2019-12-19T01:30:22Z</time>
      </trkpt>
      <trkpt lat="45.61559" lon="4.01123">
        <ele>542</ele>
        <time>2019-12-19T01:30:27Z</time>
      </trkpt>
      <trkpt lat="45.61567" lon="4.01104">
        <ele>542</ele>
        <time>2019-12-19T01:30:30Z</time>
      </trkpt>
      <trkpt lat="45.61564" lon="4.01088">
        <ele>546</ele>
        <time>2019-12-19T01:30:32Z</time>
      </trkpt>
      <trkpt lat="45.61556" lon="4.01061">
        <ele>552</ele>
        <time>2019-12-19T01:30:35Z</time>
      </trkpt>
      <trkpt lat="45.61548" lon="4.01023">
        <ele>559</ele>
        <time>2019-12-19T01:30:40Z</time>
      </trkpt>
      <trkpt lat="45.61554" lon="4.00963">
        <ele>562</ele>
        <time>2019-12-19T01:30:48Z</time>
      </trkpt>
      <trkpt lat="45.61563" lon="4.00923">
        <ele>561</ele>
        <time>2019-12-19T01:30:53Z</time>
      </trkpt>
      <trkpt lat="45.61579" lon="4.009">
        <ele>559</ele>
        <time>2019-12-19T01:30:57Z</time>
      </trkpt>
      <trkpt lat="45.61602" lon="4.00879">
        <ele>555</ele>
        <time>2019-12-19T01:31:02Z</time>
      </trkpt>
      <trkpt lat="45.61612" lon="4.00862">
        <ele>555</ele>
        <time>2019-12-19T01:31:05Z</time>
      </trkpt>
      <trkpt lat="45.61618" lon="4.00796">
        <ele>568</ele>
        <time>2019-12-19T01:31:13Z</time>
      </trkpt>
      <trkpt lat="45.61631" lon="4.00756">
        <ele>569</ele>
        <time>2019-12-19T01:31:18Z</time>
      </trkpt>
      <trkpt lat="45.61646" lon="4.00725">
        <ele>564</ele>
        <time>2019-12-19T01:31:23Z</time>
      </trkpt>
      <trkpt lat="45.61662" lon="4.00709">
        <ele>557</ele>
        <time>2019-12-19T01:31:27Z</time>
      </trkpt>
      <trkpt lat="45.61666" lon="4.00693">
        <ele>557</ele>
        <time>2019-12-19T01:31:29Z</time>
      </trkpt>
      <trkpt lat="45.61657" lon="4.00643">
        <ele>568</ele>
        <time>2019-12-19T01:31:35Z</time>
      </trkpt>
      <trkpt lat="45.61652" lon="4.00589">
        <ele>570</ele>
        <time>2019-12-19T01:31:42Z</time>
      </trkpt>
      <trkpt lat="45.61652" lon="4.00547">
        <ele>568</ele>
        <time>2019-12-19T01:31:47Z</time>
      </trkpt>
      <trkpt lat="45.61658" lon="4.00498">
        <ele>563</ele>
        <time>2019-12-19T01:31:53Z</time>
      </trkpt>
      <trkpt lat="45.61657" lon="4.00468">
        <ele>562</ele>
        <time>2019-12-19T01:31:57Z</time>
      </trkpt>
      <trkpt lat="45.61643" lon="4.0045">
        <ele>565</ele>
        <time>2019-12-19T01:32:00Z</time>
      </trkpt>
      <trkpt lat="45.61627" lon="4.00437">
        <ele>568</ele>
        <time>2019-12-19T01:32:04Z</time>
      </trkpt>
      <trkpt lat="45.61578" lon="4.0043">
        <ele>581</ele>
        <time>2019-12-19T01:32:12Z</time>
      </trkpt>
      <trkpt lat="45.61552" lon="4.00403">
        <ele>592</ele>
        <time>2019-12-19T01:32:18Z</time>
      </trkpt>
      <trkpt lat="45.61541" lon="4.00368">
        <ele>595</ele>
        <time>2019-12-19T01:32:23Z</time>
      </trkpt>
      <trkpt lat="45.61541" lon="4.00311">
        <ele>594</ele>
        <time>2019-12-19T01:32:30Z</time>
      </trkpt>
      <trkpt lat="45.61535" lon="4.00224">
        <ele>605</ele>
        <time>2019-12-19T01:32:41Z</time>
      </trkpt>
      <trkpt lat="45.61545" lon="4.00176">
        <ele>606</ele>
        <time>2019-12-19T01:32:47Z</time>
      </trkpt>
      <trkpt lat="45.61562" lon="4.00135">
        <ele>604</ele>
        <time>2019-12-19T01:32:53Z</time>
      </trkpt>
      <trkpt lat="45.61588" lon="4.00095">
        <ele>600</ele>
        <time>2019-12-19T01:33:00Z</time>
      </trkpt>
      <trkpt lat="45.61605" lon="4.00053">
        <ele>608</ele>
        <time>2019-12-19T01:33:06Z</time>
      </trkpt>
      <trkpt lat="45.61613" lon="4.00046">
        <ele>609</ele>
        <time>2019-12-19T01:33:08Z</time>
      </trkpt>
      <trkpt lat="45.61624" lon="4.0005">
        <ele>609</ele>
        <time>2019-12-19T01:33:10Z</time>
      </trkpt>
      <trkpt lat="45.6163" lon="4.00065">
        <ele>608</ele>
        <time>2019-12-19T01:33:12Z</time>
      </trkpt>
      <trkpt lat="45.61629" lon="4.00085">
        <ele>606</ele>
        <time>2019-12-19T01:33:14Z</time>
      </trkpt>
      <trkpt lat="45.61624" lon="4.00108">
        <ele>603</ele>
        <time>2019-12-19T01:33:17Z</time>
      </trkpt>
      <trkpt lat="45.6161" lon="4.00158">
        <ele>596</ele>
        <time>2019-12-19T01:33:24Z</time>
      </trkpt>
      <trkpt lat="45.6161" lon="4.00173">
        <ele>594</ele>
        <time>2019-12-19T01:33:26Z</time>
      </trkpt>
      <trkpt lat="45.61611" lon="4.00194">
        <ele>591</ele>
        <time>2019-12-19T01:33:28Z</time>
      </trkpt>
      <trkpt lat="45.61621" lon="4.00253">
        <ele>585</ele>
        <time>2019-12-19T01:33:36Z</time>
      </trkpt>
      <trkpt lat="45.61628" lon="4.00268">
        <ele>583</ele>
        <time>2019-12-19T01:33:38Z</time>
      </trkpt>
      <trkpt lat="45.61641" lon="4.00273">
        <ele>584</ele>
        <time>2019-12-19T01:33:41Z</time>
      </trkpt>
      <trkpt lat="45.61691" lon="4.00277">
        <ele>591</ele>
        <time>2019-12-19T01:33:50Z</time>
      </trkpt>
      <trkpt lat="45.61724" lon="4.00272">
        <ele>597</ele>
        <time>2019-12-19T01:33:55Z</time>
      </trkpt>
      <trkpt lat="45.6175" lon="4.00263">
        <ele>603</ele>
        <time>2019-12-19T01:34:00Z</time>
      </trkpt>
      <trkpt lat="45.61761" lon="4.00264">
        <ele>606</ele>
        <time>2019-12-19T01:34:02Z</time>
      </trkpt>
      <trkpt lat="45.61769" lon="4.00268">
        <ele>607</ele>
        <time>2019-12-19T01:34:04Z</time>
      </trkpt>
      <trkpt lat="45.61777" lon="4.00284">
        <ele>606</ele>
        <time>2019-12-19T01:34:06Z</time>
      </trkpt>
      <trkpt lat="45.61855" lon="4.00458">
        <ele>600</ele>
        <time>2019-12-19T01:34:32Z</time>
      </trkpt>
      <trkpt lat="45.61866" lon="4.00476">
        <ele>598</ele>
        <time>2019-12-19T01:34:35Z</time>
      </trkpt>
      <trkpt lat="45.61882" lon="4.00482">
        <ele>599</ele>
        <time>2019-12-19T01:34:38Z</time>
      </trkpt>
      <trkpt lat="45.61901" lon="4.00479">
        <ele>601</ele>
        <time>2019-12-19T01:34:41Z</time>
      </trkpt>
      <trkpt lat="45.61912" lon="4.0047">
        <ele>603</ele>
        <time>2019-12-19T01:34:43Z</time>
      </trkpt>
      <trkpt lat="45.6192" lon="4.00453">
        <ele>605</ele>
        <time>2019-12-19T01:34:46Z</time>
      </trkpt>
      <trkpt lat="45.61925" lon="4.00423">
        <ele>608</ele>
        <time>2019-12-19T01:34:50Z</time>
      </trkpt>
      <trkpt lat="45.61922" lon="4.00369">
        <ele>617</ele>
        <time>2019-12-19T01:34:57Z</time>
      </trkpt>
      <trkpt lat="45.61927" lon="4.00324">
        <ele>623</ele>
        <time>2019-12-19T01:35:02Z</time>
      </trkpt>
      <trkpt lat="45.61932" lon="4.00306">
        <ele>625</ele>
        <time>2019-12-19T01:35:05Z</time>
      </trkpt>
      <trkpt lat="45.61939" lon="4.00291">
        <ele>626</ele>
        <time>2019-12-19T01:35:07Z</time>
      </trkpt>
      <trkpt lat="45.61985" lon="4.00241">
        <ele>620</ele>
        <time>2019-12-19T01:35:17Z</time>
      </trkpt>
      <trkpt lat="45.62003" lon="4.00205">
        <ele>623</ele>
        <time>2019-12-19T01:35:23Z</time>
      </trkpt>
      <trkpt lat="45.62014" lon="4.00153">
        <ele>630</ele>
        <time>2019-12-19T01:35:29Z</time>
      </trkpt>
      <trkpt lat="45.62034" lon="4.00093">
        <ele>629</ele>
        <time>2019-12-19T01:35:38Z</time>
      </trkpt>
      <trkpt lat="45.62044" lon="4.00046">
        <ele>630</ele>
        <time>2019-12-19T01:35:44Z</time>
      </trkpt>
      <trkpt lat="45.62056" lon="4.00027">
        <ele>625</ele>
        <time>2019-12-19T01:35:47Z</time>
      </trkpt>
      <trkpt lat="45.62059" lon="4.00012">
        <ele>626</ele>
        <time>2019-12-19T01:35:49Z</time>
      </trkpt>
      <trkpt lat="45.62056" lon="3.99985">
        <ele>630</ele>
        <time>2019-12-19T01:35:52Z</time>
      </trkpt>
      <trkpt lat="45.62059" lon="3.99958">
        <ele>630</ele>
        <time>2019-12-19T01:35:56Z</time>
      </trkpt>
      <trkpt lat="45.62068" lon="3.99939">
        <ele>625</ele>
        <time>2019-12-19T01:35:59Z</time>
      </trkpt>
      <trkpt lat="45.62069" lon="3.99927">
        <ele>625</ele>
        <time>2019-12-19T01:36:00Z</time>
      </trkpt>
      <trkpt lat="45.62067" lon="3.9992">
        <ele>627</ele>
        <time>2019-12-19T01:36:01Z</time>
      </trkpt>
      <trkpt lat="45.62061" lon="3.99913">
        <ele>630</ele>
        <time>2019-12-19T01:36:02Z</time>
      </trkpt>
      <trkpt lat="45.62034" lon="3.99894">
        <ele>643</ele>
        <time>2019-12-19T01:36:08Z</time>
      </trkpt>
      <trkpt lat="45.62021" lon="3.99867">
        <ele>650</ele>
        <time>2019-12-19T01:36:12Z</time>
      </trkpt>
      <trkpt lat="45.62028" lon="3.99831">
        <ele>647</ele>
        <time>2019-12-19T01:36:17Z</time>
      </trkpt>
      <trkpt lat="45.62045" lon="3.99785">
        <ele>645</ele>
        <time>2019-12-19T01:36:23Z</time>
      </trkpt>
      <trkpt lat="45.62055" lon="3.99735">
        <ele>649</ele>
        <time>2019-12-19T01:36:29Z</time>
      </trkpt>
      <trkpt lat="45.62072" lon="3.99698">
        <ele>650</ele>
        <time>2019-12-19T01:36:35Z</time>
      </trkpt>
      <trkpt lat="45.6209" lon="3.99667">
        <ele>649</ele>
        <time>2019-12-19T01:36:40Z</time>
      </trkpt>
      <trkpt lat="45.62104" lon="3.99636">
        <ele>648</ele>
        <time>2019-12-19T01:36:45Z</time>
      </trkpt>
      <trkpt lat="45.62097" lon="3.99594">
        <ele>660</ele>
        <time>2019-12-19T01:36:50Z</time>
      </trkpt>
      <trkpt lat="45.62104" lon="3.99544">
        <ele>667</ele>
        <time>2019-12-19T01:36:56Z</time>
      </trkpt>
      <trkpt lat="45.62135" lon="3.99505">
        <ele>661</ele>
        <time>2019-12-19T01:37:04Z</time>
      </trkpt>
      <trkpt lat="45.62163" lon="3.99446">
        <ele>659</ele>
        <time>2019-12-19T01:37:13Z</time>
      </trkpt>
      <trkpt lat="45.62192" lon="3.99407">
        <ele>653</ele>
        <time>2019-12-19T01:37:20Z</time>
      </trkpt>
      <trkpt lat="45.62204" lon="3.99378">
        <ele>651</ele>
        <time>2019-12-19T01:37:24Z</time>
      </trkpt>
      <trkpt lat="45.62207" lon="3.99357">
        <ele>651</ele>
        <time>2019-12-19T01:37:26Z</time>
      </trkpt>
      <trkpt lat="45.62175" lon="3.9932">
        <ele>666</ele>
        <time>2019-12-19T01:37:34Z</time>
      </trkpt>
      <trkpt lat="45.6217" lon="3.99307">
        <ele>669</ele>
        <time>2019-12-19T01:37:36Z</time>
      </trkpt>
      <trkpt lat="45.6217" lon="3.99295">
        <ele>670</ele>
        <time>2019-12-19T01:37:37Z</time>
      </trkpt>
      <trkpt lat="45.62173" lon="3.99285">
        <ele>671</ele>
        <time>2019-12-19T01:37:39Z</time>
      </trkpt>
      <trkpt lat="45.62189" lon="3.99267">
        <ele>667</ele>
        <time>2019-12-19T01:37:42Z</time>
      </trkpt>
      <trkpt lat="45.62206" lon="3.99258">
        <ele>662</ele>
        <time>2019-12-19T01:37:45Z</time>
      </trkpt>
      <trkpt lat="45.62216" lon="3.99247">
        <ele>660</ele>
        <time>2019-12-19T01:37:48Z</time>
      </trkpt>
      <trkpt lat="45.6222" lon="3.99231">
        <ele>661</ele>
        <time>2019-12-19T01:37:50Z</time>
      </trkpt>
      <trkpt lat="45.62216" lon="3.99202">
        <ele>668</ele>
        <time>2019-12-19T01:37:53Z</time>
      </trkpt>
      <trkpt lat="45.62214" lon="3.9917">
        <ele>674</ele>
        <time>2019-12-19T01:37:57Z</time>
      </trkpt>
      <trkpt lat="45.62221" lon="3.99142">
        <ele>678</ele>
        <time>2019-12-19T01:38:01Z</time>
      </trkpt>
      <trkpt lat="45.62288" lon="3.99065">
        <ele>669</ele>
        <time>2019-12-19T01:38:16Z</time>
      </trkpt>
      <trkpt lat="45.62297" lon="3.99049">
        <ele>669</ele>
        <time>2019-12-19T01:38:19Z</time>
      </trkpt>
      <trkpt lat="45.62333" lon="3.98939">
        <ele>675</ele>
        <time>2019-12-19T01:38:34Z</time>
      </trkpt>
      <trkpt lat="45.62334" lon="3.98913">
        <ele>678</ele>
        <time>2019-12-19T01:38:37Z</time>
      </trkpt>
      <trkpt lat="45.62323" lon="3.98881">
        <ele>684</ele>
        <time>2019-12-19T01:38:42Z</time>
      </trkpt>
      <trkpt lat="45.62306" lon="3.98872">
        <ele>691</ele>
        <time>2019-12-19T01:38:45Z</time>
      </trkpt>
      <trkpt lat="45.62299" lon="3.98866">
        <ele>693</ele>
        <time>2019-12-19T01:38:46Z</time>
      </trkpt>
      <trkpt lat="45.62294" lon="3.98858">
        <ele>695</ele>
        <time>2019-12-19T01:38:48Z</time>
      </trkpt>
      <trkpt lat="45.62293" lon="3.98839">
        <ele>696</ele>
        <time>2019-12-19T01:38:50Z</time>
      </trkpt>
      <trkpt lat="45.62329" lon="3.98786">
        <ele>693</ele>
        <time>2019-12-19T01:38:59Z</time>
      </trkpt>
      <trkpt lat="45.62356" lon="3.98776">
        <ele>687</ele>
        <time>2019-12-19T01:39:04Z</time>
      </trkpt>
      <trkpt lat="45.62377" lon="3.98772">
        <ele>681</ele>
        <time>2019-12-19T01:39:08Z</time>
      </trkpt>
      <trkpt lat="45.62383" lon="3.98762">
        <ele>680</ele>
        <time>2019-12-19T01:39:10Z</time>
      </trkpt>
      <trkpt lat="45.62387" lon="3.98752">
        <ele>680</ele>
        <time>2019-12-19T01:39:11Z</time>
      </trkpt>
      <trkpt lat="45.62388" lon="3.98712">
        <ele>680</ele>
        <time>2019-12-19T01:39:16Z</time>
      </trkpt>
      <trkpt lat="45.62373" lon="3.98671">
        <ele>687</ele>
        <time>2019-12-19T01:39:22Z</time>
      </trkpt>
      <trkpt lat="45.62344" lon="3.98616">
        <ele>697</ele>
        <time>2019-12-19T01:39:30Z</time>
      </trkpt>
      <trkpt lat="45.62325" lon="3.98571">
        <ele>701</ele>
        <time>2019-12-19T01:39:37Z</time>
      </trkpt>
      <trkpt lat="45.62307" lon="3.9851">
        <ele>701</ele>
        <time>2019-12-19T01:39:45Z</time>
      </trkpt>
      <trkpt lat="45.62294" lon="3.98487">
        <ele>704</ele>
        <time>2019-12-19T01:39:49Z</time>
      </trkpt>
      <trkpt lat="45.62277" lon="3.98468">
        <ele>711</ele>
        <time>2019-12-19T01:39:53Z</time>
      </trkpt>
      <trkpt lat="45.62274" lon="3.98442">
        <ele>711</ele>
        <time>2019-12-19T01:39:56Z</time>
      </trkpt>
      <trkpt lat="45.6228" lon="3.98422">
        <ele>709</ele>
        <time>2019-12-19T01:39:59Z</time>
      </trkpt>
      <trkpt lat="45.62295" lon="3.98404">
        <ele>704</ele>
        <time>2019-12-19T01:40:02Z</time>
      </trkpt>
      <trkpt lat="45.62299" lon="3.98395">
        <ele>702</ele>
        <time>2019-12-19T01:40:04Z</time>
      </trkpt>
      <trkpt lat="45.62301" lon="3.98383">
        <ele>702</ele>
        <time>2019-12-19T01:40:05Z</time>
      </trkpt>
      <trkpt lat="45.62285" lon="3.98322">
        <ele>710</ele>
        <time>2019-12-19T01:40:13Z</time>
      </trkpt>
      <trkpt lat="45.6228" lon="3.98271">
        <ele>715</ele>
        <time>2019-12-19T01:40:20Z</time>
      </trkpt>
      <trkpt lat="45.62281" lon="3.98215">
        <ele>718</ele>
        <time>2019-12-19T01:40:27Z</time>
      </trkpt>
      <trkpt lat="45.62288" lon="3.98167">
        <ele>718</ele>
        <time>2019-12-19T01:40:33Z</time>
      </trkpt>
      <trkpt lat="45.62299" lon="3.98136">
        <ele>715</ele>
        <time>2019-12-19T01:40:37Z</time>
      </trkpt>
      <trkpt lat="45.62312" lon="3.9811">
        <ele>713</ele>
        <time>2019-12-19T01:40:41Z</time>
      </trkpt>
      <trkpt lat="45.62323" lon="3.98083">
        <ele>712</ele>
        <time>2019-12-19T01:40:45Z</time>
      </trkpt>
      <trkpt lat="45.62328" lon="3.98063">
        <ele>711</ele>
        <time>2019-12-19T01:40:47Z</time>
      </trkpt>
      <trkpt lat="45.62326" lon="3.98036">
        <ele>712</ele>
        <time>2019-12-19T01:40:51Z</time>
      </trkpt>
      <trkpt lat="45.62311" lon="3.98001">
        <ele>718</ele>
        <time>2019-12-19T01:40:56Z</time>
      </trkpt>
      <trkpt lat="45.62267" lon="3.9793">
        <ele>723</ele>
        <time>2019-12-19T01:41:08Z</time>
      </trkpt>
      <trkpt lat="45.62241" lon="3.97884">
        <ele>729</ele>
        <time>2019-12-19T01:41:15Z</time>
      </trkpt>
      <trkpt lat="45.62234" lon="3.97857">
        <ele>732</ele>
        <time>2019-12-19T01:41:19Z</time>
      </trkpt>
      <trkpt lat="45.62238" lon="3.97824">
        <ele>732</ele>
        <time>2019-12-19T01:41:23Z</time>
      </trkpt>
      <trkpt lat="45.62241" lon="3.97815">
        <ele>733</ele>
        <time>2019-12-19T01:41:24Z</time>
      </trkpt>
      <trkpt lat="45.62251" lon="3.97806">
        <ele>732</ele>
        <time>2019-12-19T01:41:26Z</time>
      </trkpt>
      <trkpt lat="45.62262" lon="3.978">
        <ele>730</ele>
        <time>2019-12-19T01:41:28Z</time>
      </trkpt>
      <trkpt lat="45.62285" lon="3.97797">
        <ele>724</ele>
        <time>2019-12-19T01:41:32Z</time>
      </trkpt>
      <trkpt lat="45.62296" lon="3.97793">
        <ele>722</ele>
        <time>2019-12-19T01:41:34Z</time>
      </trkpt>
      <trkpt lat="45.6231" lon="3.97776">
        <ele>721</ele>
        <time>2019-12-19T01:41:38Z</time>
      </trkpt>
      <trkpt lat="45.62315" lon="3.97765">
        <ele>721</ele>
        <time>2019-12-19T01:41:39Z</time>
      </trkpt>
      <trkpt lat="45.62318" lon="3.97751">
        <ele>723</ele>
        <time>2019-12-19T01:41:41Z</time>
      </trkpt>
      <trkpt lat="45.6232" lon="3.97729">
        <ele>723</ele>
        <time>2019-12-19T01:41:44Z</time>
      </trkpt>
      <trkpt lat="45.6232" lon="3.97711">
        <ele>724</ele>
        <time>2019-12-19T01:41:46Z</time>
      </trkpt>
      <trkpt lat="45.62315" lon="3.97695">
        <ele>726</ele>
        <time>2019-12-19T01:41:48Z</time>
      </trkpt>
      <trkpt lat="45.623" lon="3.97661">
        <ele>734</ele>
        <time>2019-12-19T01:41:53Z</time>
      </trkpt>
      <trkpt lat="45.6228" lon="3.97645">
        <ele>742</ele>
        <time>2019-12-19T01:41:57Z</time>
      </trkpt>
      <trkpt lat="45.6226" lon="3.97618">
        <ele>748</ele>
        <time>2019-12-19T01:42:02Z</time>
      </trkpt>
      <trkpt lat="45.62248" lon="3.97585">
        <ele>750</ele>
        <time>2019-12-19T01:42:07Z</time>
      </trkpt>
      <trkpt lat="45.62242" lon="3.97542">
        <ele>753</ele>
        <time>2019-12-19T01:42:12Z</time>
      </trkpt>
      <trkpt lat="45.62243" lon="3.97514">
        <ele>751</ele>
        <time>2019-12-19T01:42:16Z</time>
      </trkpt>
      <trkpt lat="45.62257" lon="3.9745">
        <ele>742</ele>
        <time>2019-12-19T01:42:24Z</time>
      </trkpt>
      <trkpt lat="45.62257" lon="3.97443">
        <ele>742</ele>
        <time>2019-12-19T01:42:25Z</time>
      </trkpt>
      <trkpt lat="45.62255" lon="3.97435">
        <ele>742</ele>
        <time>2019-12-19T01:42:26Z</time>
      </trkpt>
      <trkpt lat="45.6225" lon="3.9743">
        <ele>742</ele>
        <time>2019-12-19T01:42:27Z</time>
      </trkpt>
      <trkpt lat="45.62226" lon="3.97421">
        <ele>753</ele>
        <time>2019-12-19T01:42:32Z</time>
      </trkpt>
      <trkpt lat="45.62213" lon="3.97405">
        <ele>759</ele>
        <time>2019-12-19T01:42:35Z</time>
      </trkpt>
      <trkpt lat="45.62203" lon="3.97389">
        <ele>763</ele>
        <time>2019-12-19T01:42:37Z</time>
      </trkpt>
      <trkpt lat="45.62201" lon="3.97371">
        <ele>763</ele>
        <time>2019-12-19T01:42:40Z</time>
      </trkpt>
      <trkpt lat="45.62204" lon="3.97361">
        <ele>762</ele>
        <time>2019-12-19T01:42:41Z</time>
      </trkpt>
      <trkpt lat="45.6221" lon="3.97352">
        <ele>761</ele>
        <time>2019-12-19T01:42:43Z</time>
      </trkpt>
      <trkpt lat="45.62225" lon="3.97347">
        <ele>759</ele>
        <time>2019-12-19T01:42:45Z</time>
      </trkpt>
      <trkpt lat="45.62237" lon="3.97349">
        <ele>757</ele>
        <time>2019-12-19T01:42:47Z</time>
      </trkpt>
      <trkpt lat="45.6227" lon="3.97346">
        <ele>753</ele>
        <time>2019-12-19T01:42:53Z</time>
      </trkpt>
      <trkpt lat="45.62307" lon="3.97335">
        <ele>751</ele>
        <time>2019-12-19T01:43:00Z</time>
      </trkpt>
      <trkpt lat="45.62335" lon="3.97311">
        <ele>754</ele>
        <time>2019-12-19T01:43:06Z</time>
      </trkpt>
      <trkpt lat="45.62355" lon="3.9727">
        <ele>762</ele>
        <time>2019-12-19T01:43:12Z</time>
      </trkpt>
      <trkpt lat="45.62366" lon="3.97219">
        <ele>765</ele>
        <time>2019-12-19T01:43:19Z</time>
      </trkpt>
      <trkpt lat="45.62373" lon="3.97148">
        <ele>768</ele>
        <time>2019-12-19T01:43:28Z</time>
      </trkpt>
      <trkpt lat="45.62385" lon="3.97101">
        <ele>765</ele>
        <time>2019-12-19T01:43:34Z</time>
      </trkpt>
      <trkpt lat="45.62405" lon="3.97042">
        <ele>759</ele>
        <time>2019-12-19T01:43:42Z</time>
      </trkpt>
      <trkpt lat="45.62411" lon="3.97018">
        <ele>758</ele>
        <time>2019-12-19T01:43:45Z</time>
      </trkpt>
      <trkpt lat="45.62412" lon="3.9699">
        <ele>759</ele>
        <time>2019-12-19T01:43:49Z</time>
      </trkpt>
      <trkpt lat="45.62408" lon="3.96979">
        <ele>762</ele>
        <time>2019-12-19T01:43:50Z</time>
      </trkpt>
      <trkpt lat="45.62413" lon="3.96966">
        <ele>761</ele>
        <time>2019-12-19T01:43:52Z</time>
      </trkpt>
      <trkpt lat="45.6242" lon="3.96931">
        <ele>762</ele>
        <time>2019-12-19T01:43:57Z</time>
      </trkpt>
      <trkpt lat="45.62439" lon="3.96877">
        <ele>770</ele>
        <time>2019-12-19T01:44:04Z</time>
      </trkpt>
      <trkpt lat="45.62454" lon="3.96822">
        <ele>775</ele>
        <time>2019-12-19T01:44:11Z</time>
      </trkpt>
      <trkpt lat="45.62467" lon="3.96801">
        <ele>774</ele>
        <time>2019-12-19T01:44:15Z</time>
      </trkpt>
      <trkpt lat="45.62485" lon="3.9678">
        <ele>771</ele>
        <time>2019-12-19T01:44:19Z</time>
      </trkpt>
      <trkpt lat="45.62502" lon="3.96778">
        <ele>766</ele>
        <time>2019-12-19T01:44:22Z</time>
      </trkpt>
      <trkpt lat="45.62518" lon="3.96781">
        <ele>766</ele>
        <time>2019-12-19T01:44:25Z</time>
      </trkpt>
      <trkpt lat="45.6253" lon="3.96764">
        <ele>767</ele>
        <time>2019-12-19T01:44:28Z</time>
      </trkpt>
      <trkpt lat="45.62539" lon="3.96732">
        <ele>771</ele>
        <time>2019-12-19T01:44:32Z</time>
      </trkpt>
      <trkpt lat="45.62542" lon="3.96695">
        <ele>777</ele>
        <time>2019-12-19T01:44:37Z</time>
      </trkpt>
      <trkpt lat="45.62551" lon="3.96659">
        <ele>783</ele>
        <time>2019-12-19T01:44:42Z</time>
      </trkpt>
      <trkpt lat="45.62565" lon="3.9663">
        <ele>788</ele>
        <time>2019-12-19T01:44:46Z</time>
      </trkpt>
      <trkpt lat="45.62643" lon="3.96584">
        <ele>781</ele>
        <time>2019-12-19T01:45:01Z</time>
      </trkpt>
      <trkpt lat="45.62678" lon="3.9657">
        <ele>778</ele>
        <time>2019-12-19T01:45:08Z</time>
      </trkpt>
      <trkpt lat="45.62688" lon="3.96551">
        <ele>781</ele>
        <time>2019-12-19T01:45:11Z</time>
      </trkpt>
      <trkpt lat="45.62709" lon="3.96466">
        <ele>787</ele>
        <time>2019-12-19T01:45:22Z</time>
      </trkpt>
      <trkpt lat="45.62722" lon="3.96437">
        <ele>784</ele>
        <time>2019-12-19T01:45:26Z</time>
      </trkpt>
      <trkpt lat="45.6274" lon="3.96426">
        <ele>778</ele>
        <time>2019-12-19T01:45:30Z</time>
      </trkpt>
      <trkpt lat="45.62751" lon="3.96439">
        <ele>774</ele>
        <time>2019-12-19T01:45:32Z</time>
      </trkpt>
      <trkpt lat="45.62756" lon="3.96456">
        <ele>776</ele>
        <time>2019-12-19T01:45:34Z</time>
      </trkpt>
      <trkpt lat="45.62758" lon="3.96488">
        <ele>777</ele>
        <time>2019-12-19T01:45:38Z</time>
      </trkpt>
      <trkpt lat="45.62746" lon="3.96567">
        <ele>776</ele>
        <time>2019-12-19T01:45:48Z</time>
      </trkpt>
      <trkpt lat="45.62745" lon="3.96601">
        <ele>779</ele>
        <time>2019-12-19T01:45:53Z</time>
      </trkpt>
      <trkpt lat="45.62738" lon="3.96629">
        <ele>783</ele>
        <time>2019-12-19T01:45:56Z</time>
      </trkpt>
      <trkpt lat="45.6272" lon="3.96664">
        <ele>785</ele>
        <time>2019-12-19T01:46:02Z</time>
      </trkpt>
      <trkpt lat="45.62691" lon="3.9669">
        <ele>784</ele>
        <time>2019-12-19T01:46:08Z</time>
      </trkpt>
      <trkpt lat="45.62668" lon="3.96715">
        <ele>783</ele>
        <time>2019-12-19T01:46:13Z</time>
      </trkpt>
      <trkpt lat="45.62653" lon="3.96736">
        <ele>783</ele>
        <time>2019-12-19T01:46:17Z</time>
      </trkpt>
      <trkpt lat="45.62643" lon="3.96766">
        <ele>783</ele>
        <time>2019-12-19T01:46:21Z</time>
      </trkpt>
      <trkpt lat="45.62634" lon="3.96811">
        <ele>785</ele>
        <time>2019-12-19T01:46:27Z</time>
      </trkpt>
      <trkpt lat="45.62627" lon="3.96836">
        <ele>786</ele>
        <time>2019-12-19T01:46:30Z</time>
      </trkpt>
      <trkpt lat="45.62618" lon="3.96858">
        <ele>787</ele>
        <time>2019-12-19T01:46:33Z</time>
      </trkpt>
      <trkpt lat="45.62607" lon="3.96878">
        <ele>787</ele>
        <time>2019-12-19T01:46:36Z</time>
      </trkpt>
      <trkpt lat="45.62596" lon="3.9689">
        <ele>785</ele>
        <time>2019-12-19T01:46:39Z</time>
      </trkpt>
      <trkpt lat="45.62587" lon="3.96907">
        <ele>785</ele>
        <time>2019-12-19T01:46:41Z</time>
      </trkpt>
      <trkpt lat="45.62584" lon="3.96928">
        <ele>785</ele>
        <time>2019-12-19T01:46:44Z</time>
      </trkpt>
      <trkpt lat="45.62586" lon="3.9696">
        <ele>787</ele>
        <time>2019-12-19T01:46:48Z</time>
      </trkpt>
      <trkpt lat="45.62593" lon="3.96995">
        <ele>790</ele>
        <time>2019-12-19T01:46:53Z</time>
      </trkpt>
      <trkpt lat="45.62596" lon="3.97041">
        <ele>792</ele>
        <time>2019-12-19T01:46:58Z</time>
      </trkpt>
      <trkpt lat="45.62596" lon="3.97078">
        <ele>793</ele>
        <time>2019-12-19T01:47:03Z</time>
      </trkpt>
      <trkpt lat="45.6259" lon="3.97142">
        <ele>797</ele>
        <time>2019-12-19T01:47:11Z</time>
      </trkpt>
      <trkpt lat="45.62577" lon="3.97249">
        <ele>801</ele>
        <time>2019-12-19T01:47:25Z</time>
      </trkpt>
      <trkpt lat="45.62566" lon="3.97288">
        <ele>802</ele>
        <time>2019-12-19T01:47:30Z</time>
      </trkpt>
      <trkpt lat="45.62528" lon="3.97346">
        <ele>801</ele>
        <time>2019-12-19T01:47:40Z</time>
      </trkpt>
      <trkpt lat="45.62497" lon="3.97421">
        <ele>806</ele>
        <time>2019-12-19T01:47:51Z</time>
      </trkpt>
      <trkpt lat="45.62496" lon="3.97445">
        <ele>805</ele>
        <time>2019-12-19T01:47:54Z</time>
      </trkpt>
      <trkpt lat="45.62506" lon="3.97464">
        <ele>805</ele>
        <time>2019-12-19T01:47:56Z</time>
      </trkpt>
      <trkpt lat="45.62526" lon="3.97479">
        <ele>805</ele>
        <time>2019-12-19T01:48:00Z</time>
      </trkpt>
      <trkpt lat="45.62545" lon="3.97476">
        <ele>806</ele>
        <time>2019-12-19T01:48:04Z</time>
      </trkpt>
      <trkpt lat="45.62575" lon="3.97455">
        <ele>810</ele>
        <time>2019-12-19T01:48:10Z</time>
      </trkpt>
      <trkpt lat="45.62614" lon="3.97416">
        <ele>813</ele>
        <time>2019-12-19T01:48:18Z</time>
      </trkpt>
      <trkpt lat="45.62626" lon="3.9739">
        <ele>813</ele>
        <time>2019-12-19T01:48:22Z</time>
      </trkpt>
      <trkpt lat="45.62665" lon="3.9721">
        <ele>826</ele>
        <time>2019-12-19T01:48:46Z</time>
      </trkpt>
      <trkpt lat="45.62702" lon="3.97025">
        <ele>834</ele>
        <time>2019-12-19T01:49:10Z</time>
      </trkpt>
      <trkpt lat="45.6271" lon="3.96999">
        <ele>836</ele>
        <time>2019-12-19T01:49:13Z</time>
      </trkpt>
      <trkpt lat="45.62721" lon="3.96973">
        <ele>836</ele>
        <time>2019-12-19T01:49:17Z</time>
      </trkpt>
      <trkpt lat="45.62731" lon="3.96955">
        <ele>837</ele>
        <time>2019-12-19T01:49:20Z</time>
      </trkpt>
      <trkpt lat="45.62758" lon="3.96919">
        <ele>841</ele>
        <time>2019-12-19T01:49:26Z</time>
      </trkpt>
      <trkpt lat="45.62831" lon="3.96831">
        <ele>845</ele>
        <time>2019-12-19T01:49:43Z</time>
      </trkpt>
      <trkpt lat="45.62865" lon="3.96763">
        <ele>846</ele>
        <time>2019-12-19T01:49:54Z</time>
      </trkpt>
      <trkpt lat="45.62882" lon="3.96731">
        <ele>847</ele>
        <time>2019-12-19T01:49:59Z</time>
      </trkpt>
      <trkpt lat="45.62924" lon="3.96674">
        <ele>851</ele>
        <time>2019-12-19T01:50:09Z</time>
      </trkpt>
      <trkpt lat="45.62947" lon="3.96635">
        <ele>854</ele>
        <time>2019-12-19T01:50:15Z</time>
      </trkpt>
      <trkpt lat="45.62984" lon="3.96586">
        <ele>858</ele>
        <time>2019-12-19T01:50:24Z</time>
      </trkpt>
      <trkpt lat="45.63021" lon="3.96567">
        <ele>869</ele>
        <time>2019-12-19T01:50:31Z</time>
      </trkpt>
      <trkpt lat="45.6303" lon="3.9655">
        <ele>870</ele>
        <time>2019-12-19T01:50:34Z</time>
      </trkpt>
      <trkpt lat="45.63037" lon="3.96533">
        <ele>870</ele>
        <time>2019-12-19T01:50:36Z</time>
      </trkpt>
      <trkpt lat="45.63039" lon="3.9651">
        <ele>867</ele>
        <time>2019-12-19T01:50:39Z</time>
      </trkpt>
      <trkpt lat="45.63039" lon="3.96478">
        <ele>864</ele>
        <time>2019-12-19T01:50:43Z</time>
      </trkpt>
      <trkpt lat="45.63041" lon="3.96443">
        <ele>861</ele>
        <time>2019-12-19T01:50:48Z</time>
      </trkpt>
      <trkpt lat="45.6305" lon="3.96378">
        <ele>862</ele>
        <time>2019-12-19T01:50:56Z</time>
      </trkpt>
      <trkpt lat="45.63063" lon="3.96314">
        <ele>867</ele>
        <time>2019-12-19T01:51:04Z</time>
      </trkpt>
      <trkpt lat="45.63072" lon="3.96282">
        <ele>870</ele>
        <time>2019-12-19T01:51:08Z</time>
      </trkpt>
      <trkpt lat="45.63083" lon="3.96229">
        <ele>873</ele>
        <time>2019-12-19T01:51:15Z</time>
      </trkpt>
      <trkpt lat="45.63094" lon="3.96163">
        <ele>875</ele>
        <time>2019-12-19T01:51:24Z</time>
      </trkpt>
      <trkpt lat="45.63101" lon="3.96115">
        <ele>877</ele>
        <time>2019-12-19T01:51:30Z</time>
      </trkpt>
      <trkpt lat="45.63102" lon="3.96077">
        <ele>877</ele>
        <time>2019-12-19T01:51:35Z</time>
      </trkpt>
      <trkpt lat="45.63102" lon="3.96018">
        <ele>878</ele>
        <time>2019-12-19T01:51:42Z</time>
      </trkpt>
      <trkpt lat="45.63098" lon="3.95971">
        <ele>878</ele>
        <time>2019-12-19T01:51:48Z</time>
      </trkpt>
      <trkpt lat="45.63097" lon="3.95937">
        <ele>880</ele>
        <time>2019-12-19T01:51:52Z</time>
      </trkpt>
      <trkpt lat="45.63101" lon="3.9591">
        <ele>882</ele>
        <time>2019-12-19T01:51:56Z</time>
      </trkpt>
      <trkpt lat="45.6311" lon="3.95866">
        <ele>886</ele>
        <time>2019-12-19T01:52:01Z</time>
      </trkpt>
      <trkpt lat="45.63109" lon="3.9585">
        <ele>887</ele>
        <time>2019-12-19T01:52:03Z</time>
      </trkpt>
      <trkpt lat="45.631" lon="3.95832">
        <ele>886</ele>
        <time>2019-12-19T01:52:06Z</time>
      </trkpt>
      <trkpt lat="45.63096" lon="3.95813">
        <ele>885</ele>
        <time>2019-12-19T01:52:08Z</time>
      </trkpt>
      <trkpt lat="45.63096" lon="3.95788">
        <ele>886</ele>
        <time>2019-12-19T01:52:12Z</time>
      </trkpt>
      <trkpt lat="45.63101" lon="3.95745">
        <ele>888</ele>
        <time>2019-12-19T01:52:17Z</time>
      </trkpt>
      <trkpt lat="45.63101" lon="3.95714">
        <ele>890</ele>
        <time>2019-12-19T01:52:21Z</time>
      </trkpt>
      <trkpt lat="45.63089" lon="3.95568">
        <ele>898</ele>
        <time>2019-12-19T01:52:39Z</time>
      </trkpt>
      <trkpt lat="45.63082" lon="3.9554">
        <ele>900</ele>
        <time>2019-12-19T01:52:43Z</time>
      </trkpt>
      <trkpt lat="45.63065" lon="3.95488">
        <ele>899</ele>
        <time>2019-12-19T01:52:50Z</time>
      </trkpt>
      <trkpt lat="45.63065" lon="3.95471">
        <ele>900</ele>
        <time>2019-12-19T01:52:52Z</time>
      </trkpt>
      <trkpt lat="45.63073" lon="3.95456">
        <ele>904</ele>
        <time>2019-12-19T01:52:54Z</time>
      </trkpt>
      <trkpt lat="45.63082" lon="3.9545">
        <ele>908</ele>
        <time>2019-12-19T01:52:56Z</time>
      </trkpt>
      <trkpt lat="45.63093" lon="3.95454">
        <ele>910</ele>
        <time>2019-12-19T01:52:58Z</time>
      </trkpt>
      <trkpt lat="45.63102" lon="3.95469">
        <ele>910</ele>
        <time>2019-12-19T01:53:01Z</time>
      </trkpt>
      <trkpt lat="45.63125" lon="3.95542">
        <ele>908</ele>
        <time>2019-12-19T01:53:11Z</time>
      </trkpt>
      <trkpt lat="45.63137" lon="3.95564">
        <ele>909</ele>
        <time>2019-12-19T01:53:14Z</time>
      </trkpt>
      <trkpt lat="45.63193" lon="3.95613">
        <ele>916</ele>
        <time>2019-12-19T01:53:26Z</time>
      </trkpt>
      <trkpt lat="45.63196" lon="3.95598">
        <ele>917</ele>
        <time>2019-12-19T01:53:28Z</time>
      </trkpt>
      <trkpt lat="45.63193" lon="3.95556">
        <ele>920</ele>
        <time>2019-12-19T01:53:33Z</time>
      </trkpt>
      <trkpt lat="45.63192" lon="3.95508">
        <ele>923</ele>
        <time>2019-12-19T01:53:39Z</time>
      </trkpt>
      <trkpt lat="45.63189" lon="3.95504">
        <ele>923</ele>
        <time>2019-12-19T01:53:40Z</time>
      </trkpt>
      <trkpt lat="45.6321" lon="3.95492">
        <ele>927</ele>
        <time>2019-12-19T01:53:44Z</time>
      </trkpt>
      <trkpt lat="45.63231" lon="3.95505">
        <ele>928</ele>
        <time>2019-12-19T01:53:48Z</time>
      </trkpt>
      <trkpt lat="45.63282" lon="3.95517">
        <ele>934</ele>
        <time>2019-12-19T01:53:57Z</time>
      </trkpt>
      <trkpt lat="45.63284" lon="3.95427">
        <ele>938</ele>
        <time>2019-12-19T01:54:08Z</time>
      </trkpt>
      <trkpt lat="45.63276" lon="3.95385">
        <ele>940</ele>
        <time>2019-12-19T01:54:14Z</time>
      </trkpt>
      <trkpt lat="45.63261" lon="3.9535">
        <ele>940</ele>
        <time>2019-12-19T01:54:19Z</time>
      </trkpt>
      <trkpt lat="45.63215" lon="3.95296">
        <ele>939</ele>
        <time>2019-12-19T01:54:29Z</time>
      </trkpt>
      <trkpt lat="45.63202" lon="3.95267">
        <ele>940</ele>
        <time>2019-12-19T01:54:34Z</time>
      </trkpt>
      <trkpt lat="45.63185" lon="3.95208">
        <ele>942</ele>
        <time>2019-12-19T01:54:42Z</time>
      </trkpt>
      <trkpt lat="45.63172" lon="3.95145">
        <ele>943</ele>
        <time>2019-12-19T01:54:50Z</time>
      </trkpt>
      <trkpt lat="45.63172" lon="3.95104">
        <ele>944</ele>
        <time>2019-12-19T01:54:55Z</time>
      </trkpt>
      <trkpt lat="45.63178" lon="3.95074">
        <ele>946</ele>
        <time>2019-12-19T01:54:59Z</time>
      </trkpt>
      <trkpt lat="45.63194" lon="3.95032">
        <ele>948</ele>
        <time>2019-12-19T01:55:05Z</time>
      </trkpt>
      <trkpt lat="45.63225" lon="3.94968">
        <ele>955</ele>
        <time>2019-12-19T01:55:14Z</time>
      </trkpt>
      <trkpt lat="45.63252" lon="3.94891">
        <ele>958</ele>
        <time>2019-12-19T01:55:25Z</time>
      </trkpt>
      <trkpt lat="45.63275" lon="3.94814">
        <ele>958</ele>
        <time>2019-12-19T01:55:35Z</time>
      </trkpt>
      <trkpt lat="45.63284" lon="3.94752">
        <ele>957</ele>
        <time>2019-12-19T01:55:43Z</time>
      </trkpt>
      <trkpt lat="45.63298" lon="3.94689">
        <ele>959</ele>
        <time>2019-12-19T01:55:52Z</time>
      </trkpt>
      <trkpt lat="45.63312" lon="3.94658">
        <ele>962</ele>
        <time>2019-12-19T01:55:56Z</time>
      </trkpt>
      <trkpt lat="45.63352" lon="3.94595">
        <ele>973</ele>
        <time>2019-12-19T01:56:07Z</time>
      </trkpt>
      <trkpt lat="45.63367" lon="3.94558">
        <ele>976</ele>
        <time>2019-12-19T01:56:12Z</time>
      </trkpt>
      <trkpt lat="45.63391" lon="3.94429">
        <ele>976</ele>
        <time>2019-12-19T01:56:29Z</time>
      </trkpt>
      <trkpt lat="45.63427" lon="3.94311">
        <ele>980</ele>
        <time>2019-12-19T01:56:45Z</time>
      </trkpt>
      <trkpt lat="45.63446" lon="3.94279">
        <ele>981</ele>
        <time>2019-12-19T01:56:50Z</time>
      </trkpt>
      <trkpt lat="45.63468" lon="3.94257">
        <ele>986</ele>
        <time>2019-12-19T01:56:55Z</time>
      </trkpt>
      <trkpt lat="45.63494" lon="3.94219">
        <ele>989</ele>
        <time>2019-12-19T01:57:01Z</time>
      </trkpt>
      <trkpt lat="45.6354" lon="3.94123">
        <ele>988</ele>
        <time>2019-12-19T01:57:16Z</time>
      </trkpt>
      <trkpt lat="45.63557" lon="3.94078">
        <ele>988</ele>
        <time>2019-12-19T01:57:22Z</time>
      </trkpt>
      <trkpt lat="45.63607" lon="3.93845">
        <ele>986</ele>
        <time>2019-12-19T01:57:52Z</time>
      </trkpt>
      <trkpt lat="45.63623" lon="3.9379">
        <ele>987</ele>
        <time>2019-12-19T01:58:00Z</time>
      </trkpt>
      <trkpt lat="45.63662" lon="3.93709">
        <ele>992</ele>
        <time>2019-12-19T01:58:12Z</time>
      </trkpt>
      <trkpt lat="45.63759" lon="3.93428">
        <ele>1002</ele>
        <time>2019-12-19T01:58:51Z</time>
      </trkpt>
      <trkpt lat="45.63785" lon="3.93314">
        <ele>1002</ele>
        <time>2019-12-19T01:59:06Z</time>
      </trkpt>
      <trkpt lat="45.63812" lon="3.9325">
        <ele>1003</ele>
        <time>2019-12-19T01:59:15Z</time>
      </trkpt>
      <trkpt lat="45.63853" lon="3.93193">
        <ele>1004</ele>
        <time>2019-12-19T01:59:26Z</time>
      </trkpt>
      <trkpt lat="45.63907" lon="3.93125">
        <ele>1007</ele>
        <time>2019-12-19T01:59:38Z</time>
      </trkpt>
      <trkpt lat="45.63938" lon="3.93098">
        <ele>1007</ele>
        <time>2019-12-19T01:59:45Z</time>
      </trkpt>
      <trkpt lat="45.63958" lon="3.93091">
        <ele>1009</ele>
        <time>2019-12-19T01:59:48Z</time>
      </trkpt>
      <trkpt lat="45.64051" lon="3.93081">
        <ele>1016</ele>
        <time>2019-12-19T02:00:05Z</time>
      </trkpt>
      <trkpt lat="45.64076" lon="3.93068">
        <ele>1016</ele>
        <time>2019-12-19T02:00:10Z</time>
      </trkpt>
      <trkpt lat="45.64104" lon="3.93045">
        <ele>1017</ele>
        <time>2019-12-19T02:00:16Z</time>
      </trkpt>
      <trkpt lat="45.64129" lon="3.93008">
        <ele>1019</ele>
        <time>2019-12-19T02:00:22Z</time>
      </trkpt>
      <trkpt lat="45.64145" lon="3.92958">
        <ele>1023</ele>
        <time>2019-12-19T02:00:29Z</time>
      </trkpt>
      <trkpt lat="45.6415" lon="3.92916">
        <ele>1025</ele>
        <time>2019-12-19T02:00:34Z</time>
      </trkpt>
      <trkpt lat="45.64147" lon="3.92874">
        <ele>1027</ele>
        <time>2019-12-19T02:00:39Z</time>
      </trkpt>
      <trkpt lat="45.64137" lon="3.92833">
        <ele>1027</ele>
        <time>2019-12-19T02:00:45Z</time>
      </trkpt>
      <trkpt lat="45.6408" lon="3.92641">
        <ele>1030</ele>
        <time>2019-12-19T02:01:11Z</time>
      </trkpt>
      <trkpt lat="45.64075" lon="3.92613">
        <ele>1030</ele>
        <time>2019-12-19T02:01:14Z</time>
      </trkpt>
      <trkpt lat="45.64078" lon="3.92584">
        <ele>1032</ele>
        <time>2019-12-19T02:01:18Z</time>
      </trkpt>
      <trkpt lat="45.64085" lon="3.92562">
        <ele>1033</ele>
        <time>2019-12-19T02:01:21Z</time>
      </trkpt>
      <trkpt lat="45.64122" lon="3.92498">
        <ele>1037</ele>
        <time>2019-12-19T02:01:31Z</time>
      </trkpt>
      <trkpt lat="45.64184" lon="3.92376">
        <ele>1043</ele>
        <time>2019-12-19T02:01:50Z</time>
      </trkpt>
      <trkpt lat="45.64185" lon="3.92405">
        <ele>1044</ele>
        <time>2019-12-19T02:01:54Z</time>
      </trkpt>
      <trkpt lat="45.6416" lon="3.92539">
        <ele>1045</ele>
        <time>2019-12-19T02:02:11Z</time>
      </trkpt>
      <trkpt lat="45.64154" lon="3.92579">
        <ele>1045</ele>
        <time>2019-12-19T02:02:16Z</time>
      </trkpt>
      <trkpt lat="45.64161" lon="3.92615">
        <ele>1046</ele>
        <time>2019-12-19T02:02:21Z</time>
      </trkpt>
      <trkpt lat="45.64184" lon="3.9265">
        <ele>1050</ele>
        <time>2019-12-19T02:02:27Z</time>
      </trkpt>
      <trkpt lat="45.64207" lon="3.92704">
        <ele>1053</ele>
        <time>2019-12-19T02:02:34Z</time>
      </trkpt>
      <trkpt lat="45.64241" lon="3.92746">
        <ele>1059</ele>
        <time>2019-12-19T02:02:42Z</time>
      </trkpt>
      <trkpt lat="45.64274" lon="3.92761">
        <ele>1064</ele>
        <time>2019-12-19T02:02:49Z</time>
      </trkpt>
      <trkpt lat="45.64299" lon="3.92766">
        <ele>1068</ele>
        <time>2019-12-19T02:02:53Z</time>
      </trkpt>
      <trkpt lat="45.64327" lon="3.92774">
        <ele>1071</ele>
        <time>2019-12-19T02:02:58Z</time>
      </trkpt>
      <trkpt lat="45.64368" lon="3.92805">
        <ele>1077</ele>
        <time>2019-12-19T02:03:06Z</time>
      </trkpt>
      <trkpt lat="45.64422" lon="3.92875">
        <ele>1081</ele>
        <time>2019-12-19T02:03:19Z</time>
      </trkpt>
      <trkpt lat="45.64474" lon="3.9295">
        <ele>1090</ele>
        <time>2019-12-19T02:03:33Z</time>
      </trkpt>
      <trkpt lat="45.64512" lon="3.93014">
        <ele>1097</ele>
        <time>2019-12-19T02:03:43Z</time>
      </trkpt>
      <trkpt lat="45.6453" lon="3.93067">
        <ele>1100</ele>
        <time>2019-12-19T02:03:50Z</time>
      </trkpt>
      <trkpt lat="45.64574" lon="3.93131">
        <ele>1106</ele>
        <time>2019-12-19T02:04:01Z</time>
      </trkpt>
      <trkpt lat="45.64609" lon="3.93172">
        <ele>1107</ele>
        <time>2019-12-19T02:04:10Z</time>
      </trkpt>
      <trkpt lat="45.64701" lon="3.9321">
        <ele>1109</ele>
        <time>2019-12-19T02:04:27Z</time>
      </trkpt>
      <trkpt lat="45.64783" lon="3.93257">
        <ele>1112</ele>
        <time>2019-12-19T02:04:42Z</time>
      </trkpt>
      <trkpt lat="45.64855" lon="3.93305">
        <ele>1115</ele>
        <time>2019-12-19T02:04:56Z</time>
      </trkpt>
      <trkpt lat="45.64902" lon="3.93344">
        <ele>1114</ele>
        <time>2019-12-19T02:05:06Z</time>
      </trkpt>
      <trkpt lat="45.64918" lon="3.93344">
        <ele>1114</ele>
        <time>2019-12-19T02:05:09Z</time>
      </trkpt>
      <trkpt lat="45.64935" lon="3.9336">
        <ele>1114</ele>
        <time>2019-12-19T02:05:13Z</time>
      </trkpt>
      <trkpt lat="45.65067" lon="3.93434">
        <ele>1106</ele>
        <time>2019-12-19T02:05:38Z</time>
      </trkpt>
      <trkpt lat="45.65205" lon="3.9352">
        <ele>1081</ele>
        <time>2019-12-19T02:06:05Z</time>
      </trkpt>
      <trkpt lat="45.65292" lon="3.93578">
        <ele>1069</ele>
        <time>2019-12-19T02:06:22Z</time>
      </trkpt>
      <trkpt lat="45.65302" lon="3.93572">
        <ele>1069</ele>
        <time>2019-12-19T02:06:24Z</time>
      </trkpt>
      <trkpt lat="45.65314" lon="3.93557">
        <ele>1069</ele>
        <time>2019-12-19T02:06:26Z</time>
      </trkpt>
      <trkpt lat="45.65331" lon="3.93525">
        <ele>1070</ele>
        <time>2019-12-19T02:06:31Z</time>
      </trkpt>
      <trkpt lat="45.65356" lon="3.93459">
        <ele>1072</ele>
        <time>2019-12-19T02:06:41Z</time>
      </trkpt>
      <trkpt lat="45.6537" lon="3.93403">
        <ele>1070</ele>
        <time>2019-12-19T02:06:48Z</time>
      </trkpt>
      <trkpt lat="45.6538" lon="3.93375">
        <ele>1068</ele>
        <time>2019-12-19T02:06:52Z</time>
      </trkpt>
      <trkpt lat="45.65407" lon="3.93315">
        <ele>1063</ele>
        <time>2019-12-19T02:07:01Z</time>
      </trkpt>
      <trkpt lat="45.65448" lon="3.93246">
        <ele>1056</ele>
        <time>2019-12-19T02:07:12Z</time>
      </trkpt>
      <trkpt lat="45.65521" lon="3.9315">
        <ele>1045</ele>
        <time>2019-12-19T02:07:30Z</time>
      </trkpt>
      <trkpt lat="45.65582" lon="3.93062">
        <ele>1036</ele>
        <time>2019-12-19T02:07:45Z</time>
      </trkpt>
      <trkpt lat="45.65648" lon="3.92956">
        <ele>1020</ele>
        <time>2019-12-19T02:08:03Z</time>
      </trkpt>
      <trkpt lat="45.65658" lon="3.92939">
        <ele>1018</ele>
        <time>2019-12-19T02:08:06Z</time>
      </trkpt>
      <trkpt lat="45.65683" lon="3.92868">
        <ele>1009</ele>
        <time>2019-12-19T02:08:16Z</time>
      </trkpt>
      <trkpt lat="45.65728" lon="3.92821">
        <ele>999</ele>
        <time>2019-12-19T02:08:25Z</time>
      </trkpt>
      <trkpt lat="45.6575" lon="3.92803">
        <ele>995</ele>
        <time>2019-12-19T02:08:30Z</time>
      </trkpt>
      <trkpt lat="45.65755" lon="3.92801">
        <ele>994</ele>
        <time>2019-12-19T02:08:31Z</time>
      </trkpt>
      <trkpt lat="45.65777" lon="3.92811">
        <ele>989</ele>
        <time>2019-12-19T02:08:35Z</time>
      </trkpt>
      <trkpt lat="45.65785" lon="3.92812">
        <ele>987</ele>
        <time>2019-12-19T02:08:36Z</time>
      </trkpt>
      <trkpt lat="45.65793" lon="3.92806">
        <ele>985</ele>
        <time>2019-12-19T02:08:38Z</time>
      </trkpt>
      <trkpt lat="45.65808" lon="3.92765">
        <ele>981</ele>
        <time>2019-12-19T02:08:44Z</time>
      </trkpt>
      <trkpt lat="45.65815" lon="3.92735">
        <ele>980</ele>
        <time>2019-12-19T02:08:48Z</time>
      </trkpt>
      <trkpt lat="45.65825" lon="3.92717">
        <ele>979</ele>
        <time>2019-12-19T02:08:51Z</time>
      </trkpt>
      <trkpt lat="45.6585" lon="3.92697">
        <ele>976</ele>
        <time>2019-12-19T02:08:56Z</time>
      </trkpt>
      <trkpt lat="45.6592" lon="3.92652">
        <ele>971</ele>
        <time>2019-12-19T02:09:09Z</time>
      </trkpt>
      <trkpt lat="45.65941" lon="3.92627">
        <ele>971</ele>
        <time>2019-12-19T02:09:14Z</time>
      </trkpt>
      <trkpt lat="45.65972" lon="3.92566">
        <ele>972</ele>
        <time>2019-12-19T02:09:24Z</time>
      </trkpt>
      <trkpt lat="45.66028" lon="3.92442">
        <ele>972</ele>
        <time>2019-12-19T02:09:42Z</time>
      </trkpt>
      <trkpt lat="45.66063" lon="3.92376">
        <ele>972</ele>
        <time>2019-12-19T02:09:52Z</time>
      </trkpt>
      <trkpt lat="45.66101" lon="3.92334">
        <ele>970</ele>
        <time>2019-12-19T02:10:01Z</time>
      </trkpt>
      <trkpt lat="45.6613" lon="3.9229">
        <ele>969</ele>
        <time>2019-12-19T02:10:08Z</time>
      </trkpt>
      <trkpt lat="45.66166" lon="3.92219">
        <ele>968</ele>
        <time>2019-12-19T02:10:19Z</time>
      </trkpt>
      <trkpt lat="45.66187" lon="3.92184">
        <ele>967</ele>
        <time>2019-12-19T02:10:25Z</time>
      </trkpt>
      <trkpt lat="45.66203" lon="3.92165">
        <ele>966</ele>
        <time>2019-12-19T02:10:29Z</time>
      </trkpt>
      <trkpt lat="45.66228" lon="3.92155">
        <ele>965</ele>
        <time>2019-12-19T02:10:33Z</time>
      </trkpt>
      <trkpt lat="45.66254" lon="3.92155">
        <ele>962</ele>
        <time>2019-12-18T23:37:46Z</time>
      </trkpt>
      <trkpt lat="45.66281" lon="3.92162">
        <ele>960</ele>
        <time>2019-12-18T23:37:51Z</time>
      </trkpt>
      <trkpt lat="45.66303" lon="3.92149">
        <ele>960</ele>
        <time>2019-12-18T23:37:55Z</time>
      </trkpt>
      <trkpt lat="45.66327" lon="3.92122">
        <ele>960</ele>
        <time>2019-12-18T23:38:01Z</time>
      </trkpt>
      <trkpt lat="45.66365" lon="3.92035">
        <ele>960</ele>
        <time>2019-12-18T23:38:13Z</time>
      </trkpt>
      <trkpt lat="45.66389" lon="3.92011">
        <ele>958</ele>
        <time>2019-12-18T23:38:19Z</time>
      </trkpt>
      <trkpt lat="45.66413" lon="3.92011">
        <ele>955</ele>
        <time>2019-12-18T23:38:23Z</time>
      </trkpt>
      <trkpt lat="45.66437" lon="3.92032">
        <ele>954</ele>
        <time>2019-12-18T23:38:28Z</time>
      </trkpt>
      <trkpt lat="45.66494" lon="3.92133">
        <ele>946</ele>
        <time>2019-12-18T23:38:44Z</time>
      </trkpt>
      <trkpt lat="45.66509" lon="3.92146">
        <ele>944</ele>
        <time>2019-12-18T23:38:47Z</time>
      </trkpt>
      <trkpt lat="45.66528" lon="3.92144">
        <ele>942</ele>
        <time>2019-12-18T23:38:50Z</time>
      </trkpt>
      <trkpt lat="45.66613" lon="3.92094">
        <ele>940</ele>
        <time>2019-12-18T23:39:07Z</time>
      </trkpt>
      <trkpt lat="45.66677" lon="3.92068">
        <ele>934</ele>
        <time>2019-12-18T23:39:19Z</time>
      </trkpt>
      <trkpt lat="45.66752" lon="3.92043">
        <ele>932</ele>
        <time>2019-12-18T23:39:32Z</time>
      </trkpt>
      <trkpt lat="45.66766" lon="3.9203">
        <ele>933</ele>
        <time>2019-12-18T23:39:35Z</time>
      </trkpt>
      <trkpt lat="45.66774" lon="3.92005">
        <ele>933</ele>
        <time>2019-12-18T23:39:39Z</time>
      </trkpt>
      <trkpt lat="45.66783" lon="3.91893">
        <ele>930</ele>
        <time>2019-12-18T23:39:53Z</time>
      </trkpt>
      <trkpt lat="45.66779" lon="3.91866">
        <ele>929</ele>
        <time>2019-12-18T23:39:56Z</time>
      </trkpt>
      <trkpt lat="45.6673" lon="3.91721">
        <ele>924</ele>
        <time>2019-12-18T23:40:16Z</time>
      </trkpt>
      <trkpt lat="45.6664" lon="3.91241">
        <ele>903</ele>
        <time>2019-12-18T23:41:18Z</time>
      </trkpt>
      <trkpt lat="45.66624" lon="3.91221">
        <ele>903</ele>
        <time>2019-12-18T23:41:22Z</time>
      </trkpt>
      <trkpt lat="45.66603" lon="3.9121">
        <ele>905</ele>
        <time>2019-12-18T23:41:26Z</time>
      </trkpt>
      <trkpt lat="45.66541" lon="3.912">
        <ele>911</ele>
        <time>2019-12-18T23:41:37Z</time>
      </trkpt>
      <trkpt lat="45.66513" lon="3.91182">
        <ele>911</ele>
        <time>2019-12-18T23:41:42Z</time>
      </trkpt>
      <trkpt lat="45.66473" lon="3.9111">
        <ele>909</ele>
        <time>2019-12-18T23:41:54Z</time>
      </trkpt>
      <trkpt lat="45.66455" lon="3.91019">
        <ele>906</ele>
        <time>2019-12-18T23:42:06Z</time>
      </trkpt>
      <trkpt lat="45.66464" lon="3.90956">
        <ele>904</ele>
        <time>2019-12-18T23:42:14Z</time>
      </trkpt>
      <trkpt lat="45.66531" lon="3.90811">
        <ele>890</ele>
        <time>2019-12-18T23:42:35Z</time>
      </trkpt>
      <trkpt lat="45.66556" lon="3.90715">
        <ele>890</ele>
        <time>2019-12-18T23:42:48Z</time>
      </trkpt>
      <trkpt lat="45.66599" lon="3.90597">
        <ele>881</ele>
        <time>2019-12-18T23:43:04Z</time>
      </trkpt>
      <trkpt lat="45.6661" lon="3.90454">
        <ele>876</ele>
        <time>2019-12-18T23:43:22Z</time>
      </trkpt>
      <trkpt lat="45.6661" lon="3.90396">
        <ele>872</ele>
        <time>2019-12-18T23:43:30Z</time>
      </trkpt>
      <trkpt lat="45.66593" lon="3.90347">
        <ele>872</ele>
        <time>2019-12-18T23:43:36Z</time>
      </trkpt>
      <trkpt lat="45.66573" lon="3.90328">
        <ele>872</ele>
        <time>2019-12-18T23:43:41Z</time>
      </trkpt>
      <trkpt lat="45.66509" lon="3.90319">
        <ele>876</ele>
        <time>2019-12-18T23:43:52Z</time>
      </trkpt>
      <trkpt lat="45.66493" lon="3.90289">
        <ele>874</ele>
        <time>2019-12-18T23:43:57Z</time>
      </trkpt>
      <trkpt lat="45.6644" lon="3.9012">
        <ele>865</ele>
        <time>2019-12-18T23:44:20Z</time>
      </trkpt>
      <trkpt lat="45.66399" lon="3.90028">
        <ele>858</ele>
        <time>2019-12-18T23:44:33Z</time>
      </trkpt>
      <trkpt lat="45.66311" lon="3.89922">
        <ele>854</ele>
        <time>2019-12-18T23:44:54Z</time>
      </trkpt>
      <trkpt lat="45.66262" lon="3.8986">
        <ele>843</ele>
        <time>2019-12-18T23:45:05Z</time>
      </trkpt>
      <trkpt lat="45.66172" lon="3.8984">
        <ele>842</ele>
        <time>2019-12-18T23:45:22Z</time>
      </trkpt>
      <trkpt lat="45.66122" lon="3.8984">
        <ele>845</ele>
        <time>2019-12-18T23:45:31Z</time>
      </trkpt>
      <trkpt lat="45.66089" lon="3.89819">
        <ele>842</ele>
        <time>2019-12-18T23:45:37Z</time>
      </trkpt>
      <trkpt lat="45.66053" lon="3.89785">
        <ele>835</ele>
        <time>2019-12-18T23:45:45Z</time>
      </trkpt>
      <trkpt lat="45.65977" lon="3.89765">
        <ele>834</ele>
        <time>2019-12-18T23:45:58Z</time>
      </trkpt>
      <trkpt lat="45.65927" lon="3.8977">
        <ele>838</ele>
        <time>2019-12-18T23:46:07Z</time>
      </trkpt>
      <trkpt lat="45.65907" lon="3.89754">
        <ele>837</ele>
        <time>2019-12-18T23:46:11Z</time>
      </trkpt>
      <trkpt lat="45.65914" lon="3.89722">
        <ele>837</ele>
        <time>2019-12-18T23:46:16Z</time>
      </trkpt>
      <trkpt lat="45.65925" lon="3.89709">
        <ele>836</ele>
        <time>2019-12-18T23:46:18Z</time>
      </trkpt>
      <trkpt lat="45.65983" lon="3.8968">
        <ele>827</ele>
        <time>2019-12-18T23:46:29Z</time>
      </trkpt>
      <trkpt lat="45.65994" lon="3.89663">
        <ele>825</ele>
        <time>2019-12-18T23:46:32Z</time>
      </trkpt>
      <trkpt lat="45.66007" lon="3.89594">
        <ele>822</ele>
        <time>2019-12-18T23:46:41Z</time>
      </trkpt>
      <trkpt lat="45.66018" lon="3.89572">
        <ele>823</ele>
        <time>2019-12-18T23:46:44Z</time>
      </trkpt>
      <trkpt lat="45.66028" lon="3.8956">
        <ele>824</ele>
        <time>2019-12-18T23:46:46Z</time>
      </trkpt>
      <trkpt lat="45.66044" lon="3.89548">
        <ele>826</ele>
        <time>2019-12-18T23:46:50Z</time>
      </trkpt>
      <trkpt lat="45.66055" lon="3.89547">
        <ele>827</ele>
        <time>2019-12-18T23:46:52Z</time>
      </trkpt>
      <trkpt lat="45.66135" lon="3.89554">
        <ele>832</ele>
        <time>2019-12-18T23:47:06Z</time>
      </trkpt>
      <trkpt lat="45.66168" lon="3.89589">
        <ele>828</ele>
        <time>2019-12-18T23:47:13Z</time>
      </trkpt>
      <trkpt lat="45.66216" lon="3.89622">
        <ele>827</ele>
        <time>2019-12-18T23:47:23Z</time>
      </trkpt>
      <trkpt lat="45.66253" lon="3.89637">
        <ele>827</ele>
        <time>2019-12-18T23:47:30Z</time>
      </trkpt>
      <trkpt lat="45.66266" lon="3.8963">
        <ele>829</ele>
        <time>2019-12-18T23:47:32Z</time>
      </trkpt>
      <trkpt lat="45.66273" lon="3.8962">
        <ele>831</ele>
        <time>2019-12-18T23:47:34Z</time>
      </trkpt>
      <trkpt lat="45.66295" lon="3.89551">
        <ele>843</ele>
        <time>2019-12-18T23:47:43Z</time>
      </trkpt>
      <trkpt lat="45.66318" lon="3.89538">
        <ele>844</ele>
        <time>2019-12-18T23:47:48Z</time>
      </trkpt>
      <trkpt lat="45.66331" lon="3.89554">
        <ele>842</ele>
        <time>2019-12-18T23:47:51Z</time>
      </trkpt>
      <trkpt lat="45.66348" lon="3.89611">
        <ele>840</ele>
        <time>2019-12-18T23:47:58Z</time>
      </trkpt>
      <trkpt lat="45.66375" lon="3.89635">
        <ele>843</ele>
        <time>2019-12-18T23:48:04Z</time>
      </trkpt>
      <trkpt lat="45.66479" lon="3.89695">
        <ele>857</ele>
        <time>2019-12-18T23:48:24Z</time>
      </trkpt>
      <trkpt lat="45.66577" lon="3.8981">
        <ele>851</ele>
        <time>2019-12-18T23:48:47Z</time>
      </trkpt>
      <trkpt lat="45.66721" lon="3.89878">
        <ele>856</ele>
        <time>2019-12-18T23:49:13Z</time>
      </trkpt>
      <trkpt lat="45.66783" lon="3.89852">
        <ele>873</ele>
        <time>2019-12-18T23:49:25Z</time>
      </trkpt>
      <trkpt lat="45.66817" lon="3.89867">
        <ele>874</ele>
        <time>2019-12-18T23:49:31Z</time>
      </trkpt>
      <trkpt lat="45.66891" lon="3.89972">
        <ele>868</ele>
        <time>2019-12-18T23:49:50Z</time>
      </trkpt>
      <trkpt lat="45.66927" lon="3.90006">
        <ele>871</ele>
        <time>2019-12-18T23:49:58Z</time>
      </trkpt>
      <trkpt lat="45.66947" lon="3.90034">
        <ele>873</ele>
        <time>2019-12-18T23:50:03Z</time>
      </trkpt>
      <trkpt lat="45.66948" lon="3.90114">
        <ele>867</ele>
        <time>2019-12-18T23:50:12Z</time>
      </trkpt>
      <trkpt lat="45.66967" lon="3.90147">
        <ele>868</ele>
        <time>2019-12-18T23:50:18Z</time>
      </trkpt>
      <trkpt lat="45.67048" lon="3.90163">
        <ele>874</ele>
        <time>2019-12-18T23:50:32Z</time>
      </trkpt>
      <trkpt lat="45.67072" lon="3.90154">
        <ele>876</ele>
        <time>2019-12-18T23:50:37Z</time>
      </trkpt>
      <trkpt lat="45.67106" lon="3.9013">
        <ele>883</ele>
        <time>2019-12-18T23:50:43Z</time>
      </trkpt>
      <trkpt lat="45.67119" lon="3.90127">
        <ele>884</ele>
        <time>2019-12-18T23:50:46Z</time>
      </trkpt>
      <trkpt lat="45.67131" lon="3.90133">
        <ele>885</ele>
        <time>2019-12-18T23:50:48Z</time>
      </trkpt>
      <trkpt lat="45.67145" lon="3.90152">
        <ele>884</ele>
        <time>2019-12-18T23:50:52Z</time>
      </trkpt>
      <trkpt lat="45.6723" lon="3.90373">
        <ele>884</ele>
        <time>2019-12-18T23:51:23Z</time>
      </trkpt>
      <trkpt lat="45.67263" lon="3.90505">
        <ele>886</ele>
        <time>2019-12-18T23:51:40Z</time>
      </trkpt>
      <trkpt lat="45.67272" lon="3.90528">
        <ele>887</ele>
        <time>2019-12-18T23:51:44Z</time>
      </trkpt>
      <trkpt lat="45.67289" lon="3.90543">
        <ele>888</ele>
        <time>2019-12-18T23:51:47Z</time>
      </trkpt>
      <trkpt lat="45.67305" lon="3.90554">
        <ele>889</ele>
        <time>2019-12-18T23:51:50Z</time>
      </trkpt>
      <trkpt lat="45.67318" lon="3.90556">
        <ele>891</ele>
        <time>2019-12-18T23:51:53Z</time>
      </trkpt>
      <trkpt lat="45.67365" lon="3.90541">
        <ele>892</ele>
        <time>2019-12-18T23:52:01Z</time>
      </trkpt>
      <trkpt lat="45.67378" lon="3.90533">
        <ele>892</ele>
        <time>2019-12-18T23:52:04Z</time>
      </trkpt>
      <trkpt lat="45.67395" lon="3.90503">
        <ele>894</ele>
        <time>2019-12-18T23:52:09Z</time>
      </trkpt>
      <trkpt lat="45.67427" lon="3.9046">
        <ele>897</ele>
        <time>2019-12-18T23:52:16Z</time>
      </trkpt>
      <trkpt lat="45.67508" lon="3.904">
        <ele>903</ele>
        <time>2019-12-18T23:52:33Z</time>
      </trkpt>
      <trkpt lat="45.67582" lon="3.90352">
        <ele>903</ele>
        <time>2019-12-18T23:52:47Z</time>
      </trkpt>
      <trkpt lat="45.67636" lon="3.9029">
        <ele>906</ele>
        <time>2019-12-18T23:52:59Z</time>
      </trkpt>
      <trkpt lat="45.67661" lon="3.90247">
        <ele>908</ele>
        <time>2019-12-18T23:53:06Z</time>
      </trkpt>
      <trkpt lat="45.67676" lon="3.90193">
        <ele>909</ele>
        <time>2019-12-18T23:53:14Z</time>
      </trkpt>
      <trkpt lat="45.67685" lon="3.90132">
        <ele>911</ele>
        <time>2019-12-18T23:53:21Z</time>
      </trkpt>
      <trkpt lat="45.67707" lon="3.90029">
        <ele>914</ele>
        <time>2019-12-18T23:53:35Z</time>
      </trkpt>
      <trkpt lat="45.67783" lon="3.89854">
        <ele>918</ele>
        <time>2019-12-18T23:54:00Z</time>
      </trkpt>
      <trkpt lat="45.67792" lon="3.8982">
        <ele>919</ele>
        <time>2019-12-18T23:54:05Z</time>
      </trkpt>
      <trkpt lat="45.67818" lon="3.89571">
        <ele>917</ele>
        <time>2019-12-18T23:54:36Z</time>
      </trkpt>
      <trkpt lat="45.67834" lon="3.8949">
        <ele>916</ele>
        <time>2019-12-18T23:54:47Z</time>
      </trkpt>
      <trkpt lat="45.67893" lon="3.89305">
        <ele>919</ele>
        <time>2019-12-18T23:55:12Z</time>
      </trkpt>
      <trkpt lat="45.67906" lon="3.8925">
        <ele>919</ele>
        <time>2019-12-18T23:55:19Z</time>
      </trkpt>
      <trkpt lat="45.67911" lon="3.89205">
        <ele>918</ele>
        <time>2019-12-18T23:55:25Z</time>
      </trkpt>
      <trkpt lat="45.67909" lon="3.8918">
        <ele>918</ele>
        <time>2019-12-18T23:55:28Z</time>
      </trkpt>
      <trkpt lat="45.67899" lon="3.89137">
        <ele>917</ele>
        <time>2019-12-18T23:55:33Z</time>
      </trkpt>
      <trkpt lat="45.67795" lon="3.88935">
        <ele>915</ele>
        <time>2019-12-18T23:56:05Z</time>
      </trkpt>
      <trkpt lat="45.67763" lon="3.88811">
        <ele>916</ele>
        <time>2019-12-18T23:56:21Z</time>
      </trkpt>
      <trkpt lat="45.67747" lon="3.88784">
        <ele>918</ele>
        <time>2019-12-18T23:56:26Z</time>
      </trkpt>
      <trkpt lat="45.6767" lon="3.88701">
        <ele>924</ele>
        <time>2019-12-18T23:56:43Z</time>
      </trkpt>
      <trkpt lat="45.67666" lon="3.88681">
        <ele>926</ele>
        <time>2019-12-18T23:56:45Z</time>
      </trkpt>
      <trkpt lat="45.67671" lon="3.88537">
        <ele>934</ele>
        <time>2019-12-18T23:57:03Z</time>
      </trkpt>
      <trkpt lat="45.67685" lon="3.88477">
        <ele>934</ele>
        <time>2019-12-18T23:57:11Z</time>
      </trkpt>
      <trkpt lat="45.67684" lon="3.88454">
        <ele>934</ele>
        <time>2019-12-18T23:57:14Z</time>
      </trkpt>
      <trkpt lat="45.67674" lon="3.88439">
        <ele>934</ele>
        <time>2019-12-18T23:57:16Z</time>
      </trkpt>
      <trkpt lat="45.67622" lon="3.88409">
        <ele>938</ele>
        <time>2019-12-18T23:57:26Z</time>
      </trkpt>
      <trkpt lat="45.67606" lon="3.88394">
        <ele>940</ele>
        <time>2019-12-18T23:57:30Z</time>
      </trkpt>
      <trkpt lat="45.67602" lon="3.8837">
        <ele>942</ele>
        <time>2019-12-18T23:57:33Z</time>
      </trkpt>
      <trkpt lat="45.67606" lon="3.88332">
        <ele>943</ele>
        <time>2019-12-18T23:57:38Z</time>
      </trkpt>
      <trkpt lat="45.67624" lon="3.88262">
        <ele>943</ele>
        <time>2019-12-18T23:57:47Z</time>
      </trkpt>
      <trkpt lat="45.67627" lon="3.88171">
        <ele>948</ele>
        <time>2019-12-18T23:57:58Z</time>
      </trkpt>
      <trkpt lat="45.67631" lon="3.88112">
        <ele>951</ele>
        <time>2019-12-18T23:58:06Z</time>
      </trkpt>
      <trkpt lat="45.6763" lon="3.8806">
        <ele>952</ele>
        <time>2019-12-18T23:58:12Z</time>
      </trkpt>
      <trkpt lat="45.67603" lon="3.87956">
        <ele>955</ele>
        <time>2019-12-18T23:58:26Z</time>
      </trkpt>
      <trkpt lat="45.67611" lon="3.87912">
        <ele>954</ele>
        <time>2019-12-18T23:58:32Z</time>
      </trkpt>
      <trkpt lat="45.67615" lon="3.87868">
        <ele>953</ele>
        <time>2019-12-18T23:58:37Z</time>
      </trkpt>
      <trkpt lat="45.67595" lon="3.87738">
        <ele>959</ele>
        <time>2019-12-18T23:58:54Z</time>
      </trkpt>
      <trkpt lat="45.67595" lon="3.87465">
        <ele>971</ele>
        <time>2019-12-18T23:59:28Z</time>
      </trkpt>
      <trkpt lat="45.67589" lon="3.87389">
        <ele>978</ele>
        <time>2019-12-18T23:59:37Z</time>
      </trkpt>
      <trkpt lat="45.6759" lon="3.87361">
        <ele>981</ele>
        <time>2019-12-18T23:59:41Z</time>
      </trkpt>
      <trkpt lat="45.67598" lon="3.87341">
        <ele>982</ele>
        <time>2019-12-18T23:59:43Z</time>
      </trkpt>
      <trkpt lat="45.67673" lon="3.87265">
        <ele>983</ele>
        <time>2019-12-19T00:00:00Z</time>
      </trkpt>
      <trkpt lat="45.67701" lon="3.87242">
        <ele>982</ele>
        <time>2019-12-19T00:00:06Z</time>
      </trkpt>
      <trkpt lat="45.67713" lon="3.87217">
        <ele>983</ele>
        <time>2019-12-19T00:00:09Z</time>
      </trkpt>
      <trkpt lat="45.67746" lon="3.87088">
        <ele>989</ele>
        <time>2019-12-19T00:00:26Z</time>
      </trkpt>
      <trkpt lat="45.67759" lon="3.87041">
        <ele>990</ele>
        <time>2019-12-19T00:00:33Z</time>
      </trkpt>
      <trkpt lat="45.67852" lon="3.86873">
        <ele>994</ele>
        <time>2019-12-19T00:00:59Z</time>
      </trkpt>
      <trkpt lat="45.67924" lon="3.86723">
        <ele>997</ele>
        <time>2019-12-19T00:01:22Z</time>
      </trkpt>
      <trkpt lat="45.67977" lon="3.86571">
        <ele>1001</ele>
        <time>2019-12-19T00:01:43Z</time>
      </trkpt>
      <trkpt lat="45.67989" lon="3.86493">
        <ele>1002</ele>
        <time>2019-12-19T00:01:53Z</time>
      </trkpt>
      <trkpt lat="45.67999" lon="3.86441">
        <ele>1001</ele>
        <time>2019-12-19T00:02:00Z</time>
      </trkpt>
      <trkpt lat="45.68012" lon="3.86406">
        <ele>1000</ele>
        <time>2019-12-19T00:02:05Z</time>
      </trkpt>
      <trkpt lat="45.68022" lon="3.86366">
        <ele>1001</ele>
        <time>2019-12-19T00:02:10Z</time>
      </trkpt>
      <trkpt lat="45.68031" lon="3.86318">
        <ele>1002</ele>
        <time>2019-12-19T00:02:16Z</time>
      </trkpt>
      <trkpt lat="45.68029" lon="3.86271">
        <ele>1003</ele>
        <time>2019-12-19T00:02:22Z</time>
      </trkpt>
      <trkpt lat="45.68031" lon="3.86218">
        <ele>1004</ele>
        <time>2019-12-19T00:02:29Z</time>
      </trkpt>
      <trkpt lat="45.68037" lon="3.86149">
        <ele>1005</ele>
        <time>2019-12-19T00:02:37Z</time>
      </trkpt>
      <trkpt lat="45.68037" lon="3.86084">
        <ele>1006</ele>
        <time>2019-12-19T00:02:45Z</time>
      </trkpt>
      <trkpt lat="45.68027" lon="3.86029">
        <ele>1007</ele>
        <time>2019-12-19T00:02:52Z</time>
      </trkpt>
      <trkpt lat="45.68013" lon="3.85976">
        <ele>1008</ele>
        <time>2019-12-19T00:02:59Z</time>
      </trkpt>
      <trkpt lat="45.68006" lon="3.85924">
        <ele>1010</ele>
        <time>2019-12-19T00:03:06Z</time>
      </trkpt>
      <trkpt lat="45.67998" lon="3.85875">
        <ele>1011</ele>
        <time>2019-12-19T00:03:12Z</time>
      </trkpt>
      <trkpt lat="45.67983" lon="3.85844">
        <ele>1012</ele>
        <time>2019-12-19T00:03:17Z</time>
      </trkpt>
      <trkpt lat="45.67928" lon="3.85807">
        <ele>1015</ele>
        <time>2019-12-19T00:03:28Z</time>
      </trkpt>
      <trkpt lat="45.67919" lon="3.85787">
        <ele>1015</ele>
        <time>2019-12-19T00:03:31Z</time>
      </trkpt>
      <trkpt lat="45.67923" lon="3.85761">
        <ele>1015</ele>
        <time>2019-12-19T00:03:34Z</time>
      </trkpt>
      <trkpt lat="45.67942" lon="3.85743">
        <ele>1016</ele>
        <time>2019-12-19T00:03:38Z</time>
      </trkpt>
      <trkpt lat="45.67962" lon="3.85742">
        <ele>1017</ele>
        <time>2019-12-19T00:03:42Z</time>
      </trkpt>
      <trkpt lat="45.68012" lon="3.85767">
        <ele>1016</ele>
        <time>2019-12-19T00:03:51Z</time>
      </trkpt>
      <trkpt lat="45.68031" lon="3.85771">
        <ele>1016</ele>
        <time>2019-12-19T00:03:54Z</time>
      </trkpt>
      <trkpt lat="45.68042" lon="3.85766">
        <ele>1016</ele>
        <time>2019-12-19T00:03:56Z</time>
      </trkpt>
      <trkpt lat="45.681" lon="3.85711">
        <ele>1020</ele>
        <time>2019-12-19T00:04:09Z</time>
      </trkpt>
      <trkpt lat="45.68159" lon="3.85686">
        <ele>1019</ele>
        <time>2019-12-19T00:04:20Z</time>
      </trkpt>
      <trkpt lat="45.68177" lon="3.85666">
        <ele>1019</ele>
        <time>2019-12-19T00:04:24Z</time>
      </trkpt>
      <trkpt lat="45.68187" lon="3.85639">
        <ele>1020</ele>
        <time>2019-12-19T00:04:28Z</time>
      </trkpt>
      <trkpt lat="45.68202" lon="3.85555">
        <ele>1022</ele>
        <time>2019-12-19T00:04:38Z</time>
      </trkpt>
      <trkpt lat="45.68211" lon="3.85412">
        <ele>1025</ele>
        <time>2019-12-19T00:04:56Z</time>
      </trkpt>
      <trkpt lat="45.6829" lon="3.85309">
        <ele>1024</ele>
        <time>2019-12-19T00:05:15Z</time>
      </trkpt>
      <trkpt lat="45.6836" lon="3.85142">
        <ele>1027</ele>
        <time>2019-12-19T00:05:40Z</time>
      </trkpt>
      <trkpt lat="45.68305" lon="3.84955">
        <ele>1030</ele>
        <time>2019-12-19T00:06:05Z</time>
      </trkpt>
      <trkpt lat="45.68221" lon="3.84775">
        <ele>1034</ele>
        <time>2019-12-19T00:06:32Z</time>
      </trkpt>
      <trkpt lat="45.68097" lon="3.84717">
        <ele>1040</ele>
        <time>2019-12-19T00:06:55Z</time>
      </trkpt>
      <trkpt lat="45.67867" lon="3.8453">
        <ele>1048</ele>
        <time>2019-12-19T00:07:42Z</time>
      </trkpt>
      <trkpt lat="45.6765" lon="3.8416">
        <ele>1054</ele>
        <time>2019-12-19T00:08:42Z</time>
      </trkpt>
      <trkpt lat="45.67558" lon="3.84074">
        <ele>1067</ele>
        <time>2019-12-19T00:09:02Z</time>
      </trkpt>
      <trkpt lat="45.67516" lon="3.8396">
        <ele>1073</ele>
        <time>2019-12-19T00:09:18Z</time>
      </trkpt>
      <trkpt lat="45.67543" lon="3.83867">
        <ele>1071</ele>
        <time>2019-12-19T00:09:30Z</time>
      </trkpt>
      <trkpt lat="45.67647" lon="3.83826">
        <ele>1068</ele>
        <time>2019-12-19T00:09:49Z</time>
      </trkpt>
      <trkpt lat="45.67784" lon="3.83873">
        <ele>1062</ele>
        <time>2019-12-19T00:10:14Z</time>
      </trkpt>
      <trkpt lat="45.67873" lon="3.83926">
        <ele>1058</ele>
        <time>2019-12-19T00:10:31Z</time>
      </trkpt>
      <trkpt lat="45.67936" lon="3.83934">
        <ele>1061</ele>
        <time>2019-12-19T00:10:43Z</time>
      </trkpt>
      <trkpt lat="45.68133" lon="3.83927">
        <ele>1046</ele>
        <time>2019-12-19T00:11:18Z</time>
      </trkpt>
      <trkpt lat="45.68148" lon="3.83875">
        <ele>1050</ele>
        <time>2019-12-19T00:11:25Z</time>
      </trkpt>
      <trkpt lat="45.6814" lon="3.83772">
        <ele>1054</ele>
        <time>2019-12-19T00:11:38Z</time>
      </trkpt>
      <trkpt lat="45.68073" lon="3.83685">
        <ele>1054</ele>
        <time>2019-12-19T00:11:54Z</time>
      </trkpt>
      <trkpt lat="45.68024" lon="3.83602">
        <ele>1052</ele>
        <time>2019-12-19T00:12:07Z</time>
      </trkpt>
      <trkpt lat="45.67955" lon="3.83496">
        <ele>1059</ele>
        <time>2019-12-19T00:12:25Z</time>
      </trkpt>
      <trkpt lat="45.67931" lon="3.83408">
        <ele>1064</ele>
        <time>2019-12-19T00:12:37Z</time>
      </trkpt>
      <trkpt lat="45.6796" lon="3.83283">
        <ele>1069</ele>
        <time>2019-12-19T00:12:53Z</time>
      </trkpt>
      <trkpt lat="45.67961" lon="3.83229">
        <ele>1072</ele>
        <time>2019-12-19T00:13:00Z</time>
      </trkpt>
      <trkpt lat="45.67976" lon="3.83177">
        <ele>1071</ele>
        <time>2019-12-19T00:13:07Z</time>
      </trkpt>
      <trkpt lat="45.6801" lon="3.83162">
        <ele>1067</ele>
        <time>2019-12-19T00:13:13Z</time>
      </trkpt>
      <trkpt lat="45.68082" lon="3.83186">
        <ele>1057</ele>
        <time>2019-12-19T00:13:27Z</time>
      </trkpt>
      <trkpt lat="45.68127" lon="3.83154">
        <ele>1056</ele>
        <time>2019-12-19T00:13:36Z</time>
      </trkpt>
      <trkpt lat="45.68196" lon="3.82986">
        <ele>1065</ele>
        <time>2019-12-19T00:14:00Z</time>
      </trkpt>
      <trkpt lat="45.68227" lon="3.82963">
        <ele>1065</ele>
        <time>2019-12-19T00:14:06Z</time>
      </trkpt>
      <trkpt lat="45.68267" lon="3.82954">
        <ele>1064</ele>
        <time>2019-12-19T00:14:13Z</time>
      </trkpt>
      <trkpt lat="45.68338" lon="3.82965">
        <ele>1062</ele>
        <time>2019-12-19T00:14:26Z</time>
      </trkpt>
      <trkpt lat="45.68377" lon="3.82986">
        <ele>1062</ele>
        <time>2019-12-19T00:14:33Z</time>
      </trkpt>
      <trkpt lat="45.68451" lon="3.83058">
        <ele>1059</ele>
        <time>2019-12-19T00:14:49Z</time>
      </trkpt>
      <trkpt lat="45.68489" lon="3.83084">
        <ele>1059</ele>
        <time>2019-12-19T00:14:57Z</time>
      </trkpt>
      <trkpt lat="45.68515" lon="3.83089">
        <ele>1059</ele>
        <time>2019-12-19T00:15:01Z</time>
      </trkpt>
      <trkpt lat="45.6855" lon="3.83079">
        <ele>1059</ele>
        <time>2019-12-19T00:15:08Z</time>
      </trkpt>
      <trkpt lat="45.68661" lon="3.83007">
        <ele>1064</ele>
        <time>2019-12-19T00:15:29Z</time>
      </trkpt>
      <trkpt lat="45.68696" lon="3.8299">
        <ele>1062</ele>
        <time>2019-12-19T00:15:36Z</time>
      </trkpt>
      <trkpt lat="45.68724" lon="3.82943">
        <ele>1062</ele>
        <time>2019-12-19T00:15:44Z</time>
      </trkpt>
      <trkpt lat="45.68783" lon="3.82695">
        <ele>1059</ele>
        <time>2019-12-19T00:16:16Z</time>
      </trkpt>
      <trkpt lat="45.68803" lon="3.82448">
        <ele>1062</ele>
        <time>2019-12-19T00:16:47Z</time>
      </trkpt>
      <trkpt lat="45.68822" lon="3.82392">
        <ele>1060</ele>
        <time>2019-12-19T00:16:55Z</time>
      </trkpt>
      <trkpt lat="45.6892" lon="3.82307">
        <ele>1049</ele>
        <time>2019-12-19T00:17:15Z</time>
      </trkpt>
      <trkpt lat="45.68946" lon="3.82252">
        <ele>1053</ele>
        <time>2019-12-19T00:17:24Z</time>
      </trkpt>
      <trkpt lat="45.68979" lon="3.8223">
        <ele>1050</ele>
        <time>2019-12-19T00:17:30Z</time>
      </trkpt>
      <trkpt lat="45.6904" lon="3.82244">
        <ele>1049</ele>
        <time>2019-12-19T00:17:41Z</time>
      </trkpt>
      <trkpt lat="45.69065" lon="3.82268">
        <ele>1050</ele>
        <time>2019-12-19T00:17:46Z</time>
      </trkpt>
      <trkpt lat="45.69076" lon="3.82304">
        <ele>1051</ele>
        <time>2019-12-19T00:17:51Z</time>
      </trkpt>
      <trkpt lat="45.69045" lon="3.82765">
        <ele>1049</ele>
        <time>2019-12-19T00:18:49Z</time>
      </trkpt>
      <trkpt lat="45.691" lon="3.8294">
        <ele>1053</ele>
        <time>2019-12-19T00:19:13Z</time>
      </trkpt>
      <trkpt lat="45.69136" lon="3.83074">
        <ele>1055</ele>
        <time>2019-12-19T00:19:30Z</time>
      </trkpt>
      <trkpt lat="45.69136" lon="3.83127">
        <ele>1056</ele>
        <time>2019-12-19T00:19:37Z</time>
      </trkpt>
      <trkpt lat="45.69146" lon="3.83124">
        <ele>1057</ele>
        <time>2019-12-19T00:19:39Z</time>
      </trkpt>
      <trkpt lat="45.69154" lon="3.83104">
        <ele>1058</ele>
        <time>2019-12-19T00:19:42Z</time>
      </trkpt>
      <trkpt lat="45.69158" lon="3.83067">
        <ele>1058</ele>
        <time>2019-12-19T00:19:46Z</time>
      </trkpt>
      <trkpt lat="45.69171" lon="3.83021">
        <ele>1060</ele>
        <time>2019-12-19T00:19:53Z</time>
      </trkpt>
      <trkpt lat="45.69177" lon="3.82986">
        <ele>1063</ele>
        <time>2019-12-19T00:19:57Z</time>
      </trkpt>
      <trkpt lat="45.69174" lon="3.82957">
        <ele>1066</ele>
        <time>2019-12-19T00:20:01Z</time>
      </trkpt>
      <trkpt lat="45.69158" lon="3.82926">
        <ele>1066</ele>
        <time>2019-12-19T00:20:05Z</time>
      </trkpt>
      <trkpt lat="45.69145" lon="3.82892">
        <ele>1066</ele>
        <time>2019-12-19T00:20:10Z</time>
      </trkpt>
      <trkpt lat="45.69139" lon="3.82834">
        <ele>1069</ele>
        <time>2019-12-19T00:20:18Z</time>
      </trkpt>
      <trkpt lat="45.69143" lon="3.82769">
        <ele>1071</ele>
        <time>2019-12-19T00:20:26Z</time>
      </trkpt>
      <trkpt lat="45.69155" lon="3.82713">
        <ele>1073</ele>
        <time>2019-12-19T00:20:33Z</time>
      </trkpt>
      <trkpt lat="45.69172" lon="3.82657">
        <ele>1076</ele>
        <time>2019-12-19T00:20:41Z</time>
      </trkpt>
      <trkpt lat="45.69189" lon="3.82618">
        <ele>1079</ele>
        <time>2019-12-19T00:20:46Z</time>
      </trkpt>
      <trkpt lat="45.69216" lon="3.82597">
        <ele>1082</ele>
        <time>2019-12-19T00:20:52Z</time>
      </trkpt>
      <trkpt lat="45.69231" lon="3.82577">
        <ele>1083</ele>
        <time>2019-12-19T00:20:55Z</time>
      </trkpt>
      <trkpt lat="45.69255" lon="3.82525">
        <ele>1085</ele>
        <time>2019-12-19T00:21:03Z</time>
      </trkpt>
      <trkpt lat="45.69275" lon="3.82492">
        <ele>1088</ele>
        <time>2019-12-19T00:21:09Z</time>
      </trkpt>
      <trkpt lat="45.6929" lon="3.82442">
        <ele>1090</ele>
        <time>2019-12-19T00:21:15Z</time>
      </trkpt>
      <trkpt lat="45.6929" lon="3.82361">
        <ele>1091</ele>
        <time>2019-12-19T00:21:25Z</time>
      </trkpt>
      <trkpt lat="45.69311" lon="3.82237">
        <ele>1091</ele>
        <time>2019-12-19T00:21:41Z</time>
      </trkpt>
      <trkpt lat="45.6939" lon="3.82086">
        <ele>1100</ele>
        <time>2019-12-19T00:22:05Z</time>
      </trkpt>
      <trkpt lat="45.69423" lon="3.82039">
        <ele>1103</ele>
        <time>2019-12-19T00:22:13Z</time>
      </trkpt>
      <trkpt lat="45.6947" lon="3.82002">
        <ele>1108</ele>
        <time>2019-12-19T00:22:23Z</time>
      </trkpt>
      <trkpt lat="45.69527" lon="3.81977">
        <ele>1113</ele>
        <time>2019-12-19T00:22:33Z</time>
      </trkpt>
      <trkpt lat="45.69617" lon="3.81974">
        <ele>1122</ele>
        <time>2019-12-19T00:22:49Z</time>
      </trkpt>
      <trkpt lat="45.69765" lon="3.81915">
        <ele>1135</ele>
        <time>2019-12-19T00:23:16Z</time>
      </trkpt>
      <trkpt lat="45.69788" lon="3.81885">
        <ele>1136</ele>
        <time>2019-12-19T00:23:22Z</time>
      </trkpt>
      <trkpt lat="45.69817" lon="3.81794">
        <ele>1137</ele>
        <time>2019-12-19T00:23:34Z</time>
      </trkpt>
      <trkpt lat="45.69849" lon="3.81668">
        <ele>1138</ele>
        <time>2019-12-19T00:23:51Z</time>
      </trkpt>
      <trkpt lat="45.69859" lon="3.81648">
        <ele>1139</ele>
        <time>2019-12-19T00:23:54Z</time>
      </trkpt>
      <trkpt lat="45.69897" lon="3.81607">
        <ele>1144</ele>
        <time>2019-12-19T00:24:03Z</time>
      </trkpt>
      <trkpt lat="45.69933" lon="3.81586">
        <ele>1147</ele>
        <time>2019-12-19T00:24:10Z</time>
      </trkpt>
      <trkpt lat="45.69986" lon="3.81577">
        <ele>1150</ele>
        <time>2019-12-19T00:24:19Z</time>
      </trkpt>
      <trkpt lat="45.70039" lon="3.81554">
        <ele>1154</ele>
        <time>2019-12-19T00:24:29Z</time>
      </trkpt>
      <trkpt lat="45.70088" lon="3.81487">
        <ele>1155</ele>
        <time>2019-12-19T00:24:41Z</time>
      </trkpt>
      <trkpt lat="45.70159" lon="3.81368">
        <ele>1160</ele>
        <time>2019-12-19T00:25:00Z</time>
      </trkpt>
      <trkpt lat="45.70185" lon="3.81336">
        <ele>1164</ele>
        <time>2019-12-19T00:25:07Z</time>
      </trkpt>
      <trkpt lat="45.70227" lon="3.81296">
        <ele>1175</ele>
        <time>2019-12-19T00:25:15Z</time>
      </trkpt>
      <trkpt lat="45.70234" lon="3.81286">
        <ele>1177</ele>
        <time>2019-12-19T00:25:17Z</time>
      </trkpt>
      <trkpt lat="45.70237" lon="3.81275">
        <ele>1177</ele>
        <time>2019-12-19T00:25:19Z</time>
      </trkpt>
      <trkpt lat="45.70238" lon="3.81263">
        <ele>1176</ele>
        <time>2019-12-19T00:25:20Z</time>
      </trkpt>
      <trkpt lat="45.70236" lon="3.81255">
        <ele>1176</ele>
        <time>2019-12-19T00:25:21Z</time>
      </trkpt>
      <trkpt lat="45.70234" lon="3.81249">
        <ele>1175</ele>
        <time>2019-12-19T00:25:22Z</time>
      </trkpt>
      <trkpt lat="45.70226" lon="3.81237">
        <ele>1176</ele>
        <time>2019-12-19T00:25:24Z</time>
      </trkpt>
      <trkpt lat="45.70216" lon="3.81231">
        <ele>1175</ele>
        <time>2019-12-19T00:25:26Z</time>
      </trkpt>
      <trkpt lat="45.70175" lon="3.81218">
        <ele>1170</ele>
        <time>2019-12-19T00:25:34Z</time>
      </trkpt>
      <trkpt lat="45.7016" lon="3.81206">
        <ele>1169</ele>
        <time>2019-12-19T00:25:37Z</time>
      </trkpt>
      <trkpt lat="45.70156" lon="3.812">
        <ele>1169</ele>
        <time>2019-12-19T00:25:38Z</time>
      </trkpt>
      <trkpt lat="45.70152" lon="3.81187">
        <ele>1170</ele>
        <time>2019-12-19T00:25:39Z</time>
      </trkpt>
      <trkpt lat="45.7015" lon="3.81167">
        <ele>1173</ele>
        <time>2019-12-19T00:25:42Z</time>
      </trkpt>
      <trkpt lat="45.70154" lon="3.81049">
        <ele>1183</ele>
        <time>2019-12-19T00:25:57Z</time>
      </trkpt>
      <trkpt lat="45.7015" lon="3.80897">
        <ele>1194</ele>
        <time>2019-12-19T00:26:16Z</time>
      </trkpt>
      <trkpt lat="45.70147" lon="3.80878">
        <ele>1196</ele>
        <time>2019-12-19T00:26:18Z</time>
      </trkpt>
      <trkpt lat="45.7014" lon="3.80853">
        <ele>1199</ele>
        <time>2019-12-19T00:26:21Z</time>
      </trkpt>
      <trkpt lat="45.70135" lon="3.80844">
        <ele>1200</ele>
        <time>2019-12-19T00:26:23Z</time>
      </trkpt>
      <trkpt lat="45.70128" lon="3.80838">
        <ele>1200</ele>
        <time>2019-12-19T00:26:24Z</time>
      </trkpt>
      <trkpt lat="45.70102" lon="3.80824">
        <ele>1200</ele>
        <time>2019-12-19T00:26:29Z</time>
      </trkpt>
      <trkpt lat="45.70062" lon="3.80807">
        <ele>1199</ele>
        <time>2019-12-19T00:26:37Z</time>
      </trkpt>
      <trkpt lat="45.69993" lon="3.80746">
        <ele>1205</ele>
        <time>2019-12-19T00:26:51Z</time>
      </trkpt>
      <trkpt lat="45.69967" lon="3.80713">
        <ele>1204</ele>
        <time>2019-12-19T00:26:57Z</time>
      </trkpt>
      <trkpt lat="45.69952" lon="3.80688">
        <ele>1204</ele>
        <time>2019-12-19T00:27:01Z</time>
      </trkpt>
      <trkpt lat="45.69928" lon="3.80628">
        <ele>1207</ele>
        <time>2019-12-19T00:27:10Z</time>
      </trkpt>
      <trkpt lat="45.6992" lon="3.80603">
        <ele>1207</ele>
        <time>2019-12-19T00:27:13Z</time>
      </trkpt>
      <trkpt lat="45.69913" lon="3.80573">
        <ele>1208</ele>
        <time>2019-12-19T00:27:17Z</time>
      </trkpt>
      <trkpt lat="45.69912" lon="3.80551">
        <ele>1208</ele>
        <time>2019-12-19T00:27:20Z</time>
      </trkpt>
      <trkpt lat="45.69913" lon="3.80521">
        <ele>1210</ele>
        <time>2019-12-19T00:27:24Z</time>
      </trkpt>
      <trkpt lat="45.69918" lon="3.80484">
        <ele>1213</ele>
        <time>2019-12-19T00:27:28Z</time>
      </trkpt>
      <trkpt lat="45.69921" lon="3.8041">
        <ele>1217</ele>
        <time>2019-12-19T00:27:38Z</time>
      </trkpt>
      <trkpt lat="45.69929" lon="3.80296">
        <ele>1231</ele>
        <time>2019-12-19T00:27:52Z</time>
      </trkpt>
      <trkpt lat="45.69928" lon="3.80284">
        <ele>1232</ele>
        <time>2019-12-19T00:27:53Z</time>
      </trkpt>
      <trkpt lat="45.69902" lon="3.80235">
        <ele>1235</ele>
        <time>2019-12-19T00:28:01Z</time>
      </trkpt>
      <trkpt lat="45.69891" lon="3.80227">
        <ele>1236</ele>
        <time>2019-12-19T00:28:03Z</time>
      </trkpt>
      <trkpt lat="45.69828" lon="3.8021">
        <ele>1235</ele>
        <time>2019-12-19T00:28:15Z</time>
      </trkpt>
      <trkpt lat="45.69806" lon="3.80201">
        <ele>1236</ele>
        <time>2019-12-19T00:28:19Z</time>
      </trkpt>
      <trkpt lat="45.69761" lon="3.80166">
        <ele>1243</ele>
        <time>2019-12-19T00:28:28Z</time>
      </trkpt>
      <trkpt lat="45.69744" lon="3.80158">
        <ele>1245</ele>
        <time>2019-12-19T00:28:31Z</time>
      </trkpt>
      <trkpt lat="45.69695" lon="3.80153">
        <ele>1241</ele>
        <time>2019-12-19T00:28:40Z</time>
      </trkpt>
      <trkpt lat="45.69653" lon="3.80096">
        <ele>1253</ele>
        <time>2019-12-19T00:28:50Z</time>
      </trkpt>
      <trkpt lat="45.69613" lon="3.80072">
        <ele>1252</ele>
        <time>2019-12-19T00:28:58Z</time>
      </trkpt>
      <trkpt lat="45.69594" lon="3.80056">
        <ele>1253</ele>
        <time>2019-12-19T00:29:02Z</time>
      </trkpt>
      <trkpt lat="45.69581" lon="3.80037">
        <ele>1255</ele>
        <time>2019-12-19T00:29:05Z</time>
      </trkpt>
      <trkpt lat="45.69544" lon="3.79974">
        <ele>1261</ele>
        <time>2019-12-19T00:29:15Z</time>
      </trkpt>
      <trkpt lat="45.69442" lon="3.7986">
        <ele>1267</ele>
        <time>2019-12-19T00:29:38Z</time>
      </trkpt>
      <trkpt lat="45.69422" lon="3.7983">
        <ele>1270</ele>
        <time>2019-12-19T00:29:43Z</time>
      </trkpt>
      <trkpt lat="45.69412" lon="3.79791">
        <ele>1274</ele>
        <time>2019-12-19T00:29:48Z</time>
      </trkpt>
      <trkpt lat="45.69407" lon="3.79781">
        <ele>1275</ele>
        <time>2019-12-19T00:29:50Z</time>
      </trkpt>
      <trkpt lat="45.69396" lon="3.79771">
        <ele>1276</ele>
        <time>2019-12-19T00:29:52Z</time>
      </trkpt>
      <trkpt lat="45.6939" lon="3.79769">
        <ele>1276</ele>
        <time>2019-12-19T00:29:53Z</time>
      </trkpt>
      <trkpt lat="45.69362" lon="3.79772">
        <ele>1276</ele>
        <time>2019-12-19T00:29:58Z</time>
      </trkpt>
      <trkpt lat="45.69321" lon="3.7978">
        <ele>1275</ele>
        <time>2019-12-19T00:30:06Z</time>
      </trkpt>
      <trkpt lat="45.69256" lon="3.79763">
        <ele>1277</ele>
        <time>2019-12-19T00:30:18Z</time>
      </trkpt>
      <trkpt lat="45.69187" lon="3.79723">
        <ele>1280</ele>
        <time>2019-12-19T00:30:31Z</time>
      </trkpt>
      <trkpt lat="45.6913" lon="3.79686">
        <ele>1283</ele>
        <time>2019-12-19T00:30:42Z</time>
      </trkpt>
      <trkpt lat="45.69106" lon="3.79663">
        <ele>1285</ele>
        <time>2019-12-19T00:30:47Z</time>
      </trkpt>
      <trkpt lat="45.6909" lon="3.79641">
        <ele>1287</ele>
        <time>2019-12-19T00:30:51Z</time>
      </trkpt>
      <trkpt lat="45.69072" lon="3.79611">
        <ele>1289</ele>
        <time>2019-12-19T00:30:56Z</time>
      </trkpt>
      <trkpt lat="45.69066" lon="3.79585">
        <ele>1291</ele>
        <time>2019-12-19T00:30:59Z</time>
      </trkpt>
      <trkpt lat="45.69065" lon="3.79568">
        <ele>1291</ele>
        <time>2019-12-19T00:31:01Z</time>
      </trkpt>
      <trkpt lat="45.69065" lon="3.79543">
        <ele>1292</ele>
        <time>2019-12-19T00:31:05Z</time>
      </trkpt>
      <trkpt lat="45.6907" lon="3.79506">
        <ele>1293</ele>
        <time>2019-12-19T00:31:09Z</time>
      </trkpt>
      <trkpt lat="45.69076" lon="3.79484">
        <ele>1293</ele>
        <time>2019-12-19T00:31:12Z</time>
      </trkpt>
      <trkpt lat="45.69086" lon="3.79462">
        <ele>1294</ele>
        <time>2019-12-19T00:31:15Z</time>
      </trkpt>
      <trkpt lat="45.69111" lon="3.79409">
        <ele>1297</ele>
        <time>2019-12-19T00:31:23Z</time>
      </trkpt>
      <trkpt lat="45.69145" lon="3.79348">
        <ele>1300</ele>
        <time>2019-12-19T00:31:33Z</time>
      </trkpt>
      <trkpt lat="45.69152" lon="3.79332">
        <ele>1301</ele>
        <time>2019-12-19T00:31:35Z</time>
      </trkpt>
      <trkpt lat="45.69154" lon="3.79322">
        <ele>1301</ele>
        <time>2019-12-19T00:31:37Z</time>
      </trkpt>
      <trkpt lat="45.69155" lon="3.79307">
        <ele>1301</ele>
        <time>2019-12-19T00:31:39Z</time>
      </trkpt>
      <trkpt lat="45.69152" lon="3.7929">
        <ele>1301</ele>
        <time>2019-12-19T00:31:41Z</time>
      </trkpt>
      <trkpt lat="45.69152" lon="3.79258">
        <ele>1302</ele>
        <time>2019-12-19T00:31:45Z</time>
      </trkpt>
      <trkpt lat="45.69155" lon="3.79242">
        <ele>1303</ele>
        <time>2019-12-19T00:31:47Z</time>
      </trkpt>
      <trkpt lat="45.69176" lon="3.7917">
        <ele>1306</ele>
        <time>2019-12-19T00:31:56Z</time>
      </trkpt>
      <trkpt lat="45.69189" lon="3.79145">
        <ele>1307</ele>
        <time>2019-12-19T00:32:00Z</time>
      </trkpt>
      <trkpt lat="45.69222" lon="3.79105">
        <ele>1311</ele>
        <time>2019-12-19T00:32:08Z</time>
      </trkpt>
      <trkpt lat="45.69238" lon="3.79081">
        <ele>1313</ele>
        <time>2019-12-19T00:32:12Z</time>
      </trkpt>
      <trkpt lat="45.69259" lon="3.79024">
        <ele>1316</ele>
        <time>2019-12-19T00:32:20Z</time>
      </trkpt>
      <trkpt lat="45.69297" lon="3.78943">
        <ele>1322</ele>
        <time>2019-12-19T00:32:32Z</time>
      </trkpt>
      <trkpt lat="45.693" lon="3.78928">
        <ele>1323</ele>
        <time>2019-12-19T00:32:34Z</time>
      </trkpt>
      <trkpt lat="45.69299" lon="3.78915">
        <ele>1324</ele>
        <time>2019-12-19T00:32:36Z</time>
      </trkpt>
      <trkpt lat="45.69293" lon="3.789">
        <ele>1325</ele>
        <time>2019-12-19T00:32:38Z</time>
      </trkpt>
      <trkpt lat="45.69269" lon="3.78877">
        <ele>1325</ele>
        <time>2019-12-19T00:32:43Z</time>
      </trkpt>
      <trkpt lat="45.69258" lon="3.78861">
        <ele>1326</ele>
        <time>2019-12-19T00:32:46Z</time>
      </trkpt>
      <trkpt lat="45.69227" lon="3.78804">
        <ele>1327</ele>
        <time>2019-12-19T00:32:55Z</time>
      </trkpt>
      <trkpt lat="45.69219" lon="3.78779">
        <ele>1328</ele>
        <time>2019-12-19T00:32:58Z</time>
      </trkpt>
      <trkpt lat="45.6922" lon="3.78731">
        <ele>1331</ele>
        <time>2019-12-19T00:33:04Z</time>
      </trkpt>
      <trkpt lat="45.69219" lon="3.78708">
        <ele>1332</ele>
        <time>2019-12-19T00:33:07Z</time>
      </trkpt>
      <trkpt lat="45.69205" lon="3.78653">
        <ele>1334</ele>
        <time>2019-12-19T00:33:14Z</time>
      </trkpt>
      <trkpt lat="45.69185" lon="3.78589">
        <ele>1336</ele>
        <time>2019-12-19T00:33:23Z</time>
      </trkpt>
      <trkpt lat="45.69182" lon="3.78569">
        <ele>1337</ele>
        <time>2019-12-19T00:33:26Z</time>
      </trkpt>
      <trkpt lat="45.69183" lon="3.78546">
        <ele>1339</ele>
        <time>2019-12-19T00:33:29Z</time>
      </trkpt>
      <trkpt lat="45.69186" lon="3.78523">
        <ele>1341</ele>
        <time>2019-12-19T00:33:31Z</time>
      </trkpt>
      <trkpt lat="45.69191" lon="3.78505">
        <ele>1342</ele>
        <time>2019-12-19T00:33:34Z</time>
      </trkpt>
      <trkpt lat="45.69207" lon="3.78467">
        <ele>1346</ele>
        <time>2019-12-19T00:33:39Z</time>
      </trkpt>
      <trkpt lat="45.69212" lon="3.7845">
        <ele>1348</ele>
        <time>2019-12-19T00:33:42Z</time>
      </trkpt>
      <trkpt lat="45.69211" lon="3.78435">
        <ele>1349</ele>
        <time>2019-12-19T00:33:44Z</time>
      </trkpt>
      <trkpt lat="45.69208" lon="3.78424">
        <ele>1350</ele>
        <time>2019-12-19T00:33:45Z</time>
      </trkpt>
      <trkpt lat="45.69204" lon="3.78416">
        <ele>1351</ele>
        <time>2019-12-19T00:33:46Z</time>
      </trkpt>
      <trkpt lat="45.69197" lon="3.7841">
        <ele>1351</ele>
        <time>2019-12-19T00:33:48Z</time>
      </trkpt>
      <trkpt lat="45.69186" lon="3.78405">
        <ele>1351</ele>
        <time>2019-12-19T00:33:50Z</time>
      </trkpt>
      <trkpt lat="45.69179" lon="3.78408">
        <ele>1350</ele>
        <time>2019-12-19T00:33:51Z</time>
      </trkpt>
      <trkpt lat="45.69148" lon="3.78431">
        <ele>1349</ele>
        <time>2019-12-19T00:33:57Z</time>
      </trkpt>
      <trkpt lat="45.69136" lon="3.78436">
        <ele>1350</ele>
        <time>2019-12-19T00:33:59Z</time>
      </trkpt>
      <trkpt lat="45.69127" lon="3.78438">
        <ele>1351</ele>
        <time>2019-12-19T00:34:01Z</time>
      </trkpt>
      <trkpt lat="45.69109" lon="3.78435">
        <ele>1353</ele>
        <time>2019-12-19T00:34:04Z</time>
      </trkpt>
      <trkpt lat="45.6906" lon="3.78418">
        <ele>1358</ele>
        <time>2019-12-19T00:34:13Z</time>
      </trkpt>
      <trkpt lat="45.69042" lon="3.7841">
        <ele>1359</ele>
        <time>2019-12-19T00:34:17Z</time>
      </trkpt>
      <trkpt lat="45.68971" lon="3.78364">
        <ele>1367</ele>
        <time>2019-12-19T00:34:31Z</time>
      </trkpt>
      <trkpt lat="45.68916" lon="3.78351">
        <ele>1369</ele>
        <time>2019-12-19T00:34:40Z</time>
      </trkpt>
      <trkpt lat="45.68903" lon="3.78344">
        <ele>1370</ele>
        <time>2019-12-19T00:34:43Z</time>
      </trkpt>
      <trkpt lat="45.68844" lon="3.78304">
        <ele>1377</ele>
        <time>2019-12-19T00:34:55Z</time>
      </trkpt>
      <trkpt lat="45.68821" lon="3.78295">
        <ele>1380</ele>
        <time>2019-12-19T00:34:59Z</time>
      </trkpt>
      <trkpt lat="45.68801" lon="3.78296">
        <ele>1381</ele>
        <time>2019-12-19T00:35:02Z</time>
      </trkpt>
      <trkpt lat="45.68719" lon="3.78329">
        <ele>1382</ele>
        <time>2019-12-19T00:35:17Z</time>
      </trkpt>
      <trkpt lat="45.68695" lon="3.78336">
        <ele>1382</ele>
        <time>2019-12-19T00:35:22Z</time>
      </trkpt>
      <trkpt lat="45.6868" lon="3.78337">
        <ele>1383</ele>
        <time>2019-12-19T00:35:25Z</time>
      </trkpt>
      <trkpt lat="45.68664" lon="3.78335">
        <ele>1384</ele>
        <time>2019-12-19T00:35:27Z</time>
      </trkpt>
      <trkpt lat="45.68579" lon="3.78309">
        <ele>1390</ele>
        <time>2019-12-19T00:35:43Z</time>
      </trkpt>
      <trkpt lat="45.68555" lon="3.78301">
        <ele>1390</ele>
        <time>2019-12-19T00:35:47Z</time>
      </trkpt>
      <trkpt lat="45.68538" lon="3.78292">
        <ele>1390</ele>
        <time>2019-12-19T00:35:50Z</time>
      </trkpt>
      <trkpt lat="45.68514" lon="3.78271">
        <ele>1390</ele>
        <time>2019-12-19T00:35:55Z</time>
      </trkpt>
      <trkpt lat="45.68504" lon="3.78257">
        <ele>1389</ele>
        <time>2019-12-19T00:35:58Z</time>
      </trkpt>
      <trkpt lat="45.68495" lon="3.78236">
        <ele>1388</ele>
        <time>2019-12-19T00:36:01Z</time>
      </trkpt>
      <trkpt lat="45.68492" lon="3.7822">
        <ele>1388</ele>
        <time>2019-12-19T00:36:03Z</time>
      </trkpt>
      <trkpt lat="45.68487" lon="3.78091">
        <ele>1382</ele>
        <time>2019-12-19T00:36:19Z</time>
      </trkpt>
      <trkpt lat="45.68485" lon="3.78062">
        <ele>1381</ele>
        <time>2019-12-19T00:36:23Z</time>
      </trkpt>
      <trkpt lat="45.68464" lon="3.77941">
        <ele>1374</ele>
        <time>2019-12-19T00:36:38Z</time>
      </trkpt>
      <trkpt lat="45.68442" lon="3.77861">
        <ele>1367</ele>
        <time>2019-12-19T00:36:49Z</time>
      </trkpt>
      <trkpt lat="45.68438" lon="3.77846">
        <ele>1366</ele>
        <time>2019-12-19T00:36:51Z</time>
      </trkpt>
      <trkpt lat="45.68437" lon="3.77817">
        <ele>1366</ele>
        <time>2019-12-19T00:36:55Z</time>
      </trkpt>
      <trkpt lat="45.68439" lon="3.77769">
        <ele>1365</ele>
        <time>2019-12-19T00:37:01Z</time>
      </trkpt>
      <trkpt lat="45.6843" lon="3.77705">
        <ele>1361</ele>
        <time>2019-12-19T00:37:09Z</time>
      </trkpt>
      <trkpt lat="45.68408" lon="3.77609">
        <ele>1356</ele>
        <time>2019-12-19T00:37:21Z</time>
      </trkpt>
      <trkpt lat="45.68386" lon="3.77541">
        <ele>1350</ele>
        <time>2019-12-19T00:37:31Z</time>
      </trkpt>
      <trkpt lat="45.68367" lon="3.77432">
        <ele>1344</ele>
        <time>2019-12-19T00:37:44Z</time>
      </trkpt>
      <trkpt lat="45.68349" lon="3.77295">
        <ele>1334</ele>
        <time>2019-12-19T00:38:02Z</time>
      </trkpt>
      <trkpt lat="45.68344" lon="3.77271">
        <ele>1332</ele>
        <time>2019-12-19T00:38:05Z</time>
      </trkpt>
      <trkpt lat="45.68339" lon="3.77257">
        <ele>1331</ele>
        <time>2019-12-19T00:38:07Z</time>
      </trkpt>
      <trkpt lat="45.68326" lon="3.77238">
        <ele>1329</ele>
        <time>2019-12-19T00:38:10Z</time>
      </trkpt>
      <trkpt lat="45.68204" lon="3.77096">
        <ele>1315</ele>
        <time>2019-12-19T00:38:38Z</time>
      </trkpt>
      <trkpt lat="45.68164" lon="3.77043">
        <ele>1313</ele>
        <time>2019-12-19T00:38:48Z</time>
      </trkpt>
      <trkpt lat="45.68109" lon="3.76962">
        <ele>1310</ele>
        <time>2019-12-19T00:39:02Z</time>
      </trkpt>
      <trkpt lat="45.68069" lon="3.7689">
        <ele>1303</ele>
        <time>2019-12-19T00:39:13Z</time>
      </trkpt>
      <trkpt lat="45.68059" lon="3.76863">
        <ele>1300</ele>
        <time>2019-12-19T00:39:17Z</time>
      </trkpt>
      <trkpt lat="45.68058" lon="3.76849">
        <ele>1299</ele>
        <time>2019-12-19T00:39:19Z</time>
      </trkpt>
      <trkpt lat="45.68058" lon="3.76759">
        <ele>1293</ele>
        <time>2019-12-19T00:39:30Z</time>
      </trkpt>
      <trkpt lat="45.6806" lon="3.76724">
        <ele>1290</ele>
        <time>2019-12-19T00:39:34Z</time>
      </trkpt>
      <trkpt lat="45.68066" lon="3.76689">
        <ele>1289</ele>
        <time>2019-12-19T00:39:39Z</time>
      </trkpt>
      <trkpt lat="45.68084" lon="3.76627">
        <ele>1287</ele>
        <time>2019-12-19T00:39:47Z</time>
      </trkpt>
      <trkpt lat="45.68097" lon="3.7657">
        <ele>1283</ele>
        <time>2019-12-19T00:39:55Z</time>
      </trkpt>
      <trkpt lat="45.68134" lon="3.7638">
        <ele>1270</ele>
        <time>2019-12-19T00:40:19Z</time>
      </trkpt>
      <trkpt lat="45.68147" lon="3.76332">
        <ele>1270</ele>
        <time>2019-12-19T00:40:26Z</time>
      </trkpt>
      <trkpt lat="45.6815" lon="3.76307">
        <ele>1270</ele>
        <time>2019-12-19T00:40:29Z</time>
      </trkpt>
      <trkpt lat="45.68149" lon="3.7629">
        <ele>1268</ele>
        <time>2019-12-19T00:40:31Z</time>
      </trkpt>
      <trkpt lat="45.68131" lon="3.76152">
        <ele>1259</ele>
        <time>2019-12-19T00:40:48Z</time>
      </trkpt>
      <trkpt lat="45.68122" lon="3.76107">
        <ele>1257</ele>
        <time>2019-12-19T00:40:54Z</time>
      </trkpt>
      <trkpt lat="45.68094" lon="3.76017">
        <ele>1249</ele>
        <time>2019-12-19T00:41:06Z</time>
      </trkpt>
      <trkpt lat="45.68088" lon="3.75973">
        <ele>1248</ele>
        <time>2019-12-19T00:41:12Z</time>
      </trkpt>
      <trkpt lat="45.68083" lon="3.75932">
        <ele>1248</ele>
        <time>2019-12-19T00:41:17Z</time>
      </trkpt>
      <trkpt lat="45.68086" lon="3.75891">
        <ele>1246</ele>
        <time>2019-12-19T00:41:22Z</time>
      </trkpt>
      <trkpt lat="45.68093" lon="3.7585">
        <ele>1243</ele>
        <time>2019-12-19T00:41:28Z</time>
      </trkpt>
      <trkpt lat="45.68117" lon="3.75787">
        <ele>1240</ele>
        <time>2019-12-19T00:41:36Z</time>
      </trkpt>
      <trkpt lat="45.68142" lon="3.75748">
        <ele>1237</ele>
        <time>2019-12-19T00:41:43Z</time>
      </trkpt>
      <trkpt lat="45.68152" lon="3.75737">
        <ele>1236</ele>
        <time>2019-12-19T00:41:45Z</time>
      </trkpt>
      <trkpt lat="45.68179" lon="3.75731">
        <ele>1237</ele>
        <time>2019-12-19T00:41:50Z</time>
      </trkpt>
      <trkpt lat="45.68186" lon="3.75725">
        <ele>1236</ele>
        <time>2019-12-19T00:41:52Z</time>
      </trkpt>
      <trkpt lat="45.68195" lon="3.75708">
        <ele>1233</ele>
        <time>2019-12-19T00:41:54Z</time>
      </trkpt>
      <trkpt lat="45.68195" lon="3.75698">
        <ele>1230</ele>
        <time>2019-12-19T00:41:55Z</time>
      </trkpt>
      <trkpt lat="45.68194" lon="3.75689">
        <ele>1228</ele>
        <time>2019-12-19T00:41:57Z</time>
      </trkpt>
      <trkpt lat="45.6819" lon="3.75681">
        <ele>1226</ele>
        <time>2019-12-19T00:41:58Z</time>
      </trkpt>
      <trkpt lat="45.68186" lon="3.75676">
        <ele>1224</ele>
        <time>2019-12-19T00:41:59Z</time>
      </trkpt>
      <trkpt lat="45.68179" lon="3.75671">
        <ele>1222</ele>
        <time>2019-12-19T00:42:00Z</time>
      </trkpt>
      <trkpt lat="45.68171" lon="3.75671">
        <ele>1221</ele>
        <time>2019-12-19T00:42:02Z</time>
      </trkpt>
      <trkpt lat="45.68165" lon="3.75673">
        <ele>1221</ele>
        <time>2019-12-19T00:42:03Z</time>
      </trkpt>
      <trkpt lat="45.6814" lon="3.75711">
        <ele>1227</ele>
        <time>2019-12-19T00:42:09Z</time>
      </trkpt>
      <trkpt lat="45.6813" lon="3.75719">
        <ele>1228</ele>
        <time>2019-12-19T00:42:11Z</time>
      </trkpt>
      <trkpt lat="45.68104" lon="3.75731">
        <ele>1228</ele>
        <time>2019-12-19T00:42:16Z</time>
      </trkpt>
      <trkpt lat="45.68041" lon="3.75768">
        <ele>1222</ele>
        <time>2019-12-19T00:42:28Z</time>
      </trkpt>
      <trkpt lat="45.68019" lon="3.75792">
        <ele>1219</ele>
        <time>2019-12-19T00:42:33Z</time>
      </trkpt>
      <trkpt lat="45.68002" lon="3.75823">
        <ele>1217</ele>
        <time>2019-12-19T00:42:38Z</time>
      </trkpt>
      <trkpt lat="45.67995" lon="3.75842">
        <ele>1215</ele>
        <time>2019-12-19T00:42:41Z</time>
      </trkpt>
      <trkpt lat="45.67991" lon="3.75859">
        <ele>1214</ele>
        <time>2019-12-19T00:42:43Z</time>
      </trkpt>
      <trkpt lat="45.67987" lon="3.75899">
        <ele>1212</ele>
        <time>2019-12-19T00:42:48Z</time>
      </trkpt>
      <trkpt lat="45.67986" lon="3.75942">
        <ele>1210</ele>
        <time>2019-12-19T00:42:53Z</time>
      </trkpt>
      <trkpt lat="45.67991" lon="3.76005">
        <ele>1207</ele>
        <time>2019-12-19T00:43:01Z</time>
      </trkpt>
      <trkpt lat="45.67987" lon="3.76039">
        <ele>1204</ele>
        <time>2019-12-19T00:43:05Z</time>
      </trkpt>
      <trkpt lat="45.67984" lon="3.76132">
        <ele>1199</ele>
        <time>2019-12-19T00:43:17Z</time>
      </trkpt>
      <trkpt lat="45.67989" lon="3.76169">
        <ele>1200</ele>
        <time>2019-12-19T00:43:22Z</time>
      </trkpt>
      <trkpt lat="45.67989" lon="3.76193">
        <ele>1201</ele>
        <time>2019-12-19T00:43:25Z</time>
      </trkpt>
      <trkpt lat="45.67983" lon="3.76232">
        <ele>1200</ele>
        <time>2019-12-19T00:43:30Z</time>
      </trkpt>
      <trkpt lat="45.67967" lon="3.76282">
        <ele>1196</ele>
        <time>2019-12-19T00:43:37Z</time>
      </trkpt>
      <trkpt lat="45.67956" lon="3.76303">
        <ele>1193</ele>
        <time>2019-12-19T00:43:40Z</time>
      </trkpt>
      <trkpt lat="45.67952" lon="3.76316">
        <ele>1193</ele>
        <time>2019-12-19T00:43:42Z</time>
      </trkpt>
      <trkpt lat="45.67938" lon="3.7638">
        <ele>1198</ele>
        <time>2019-12-19T00:43:50Z</time>
      </trkpt>
      <trkpt lat="45.67934" lon="3.76388">
        <ele>1198</ele>
        <time>2019-12-19T00:43:51Z</time>
      </trkpt>
      <trkpt lat="45.67927" lon="3.76397">
        <ele>1197</ele>
        <time>2019-12-19T00:43:53Z</time>
      </trkpt>
      <trkpt lat="45.67792" lon="3.76463">
        <ele>1179</ele>
        <time>2019-12-19T00:44:18Z</time>
      </trkpt>
      <trkpt lat="45.6775" lon="3.76503">
        <ele>1178</ele>
        <time>2019-12-19T00:44:27Z</time>
      </trkpt>
      <trkpt lat="45.67694" lon="3.76525">
        <ele>1167</ele>
        <time>2019-12-19T00:44:37Z</time>
      </trkpt>
      <trkpt lat="45.6763" lon="3.76569">
        <ele>1158</ele>
        <time>2019-12-19T00:44:50Z</time>
      </trkpt>
      <trkpt lat="45.67623" lon="3.76578">
        <ele>1158</ele>
        <time>2019-12-19T00:44:52Z</time>
      </trkpt>
      <trkpt lat="45.67619" lon="3.76589">
        <ele>1158</ele>
        <time>2019-12-19T00:44:53Z</time>
      </trkpt>
      <trkpt lat="45.67614" lon="3.76614">
        <ele>1159</ele>
        <time>2019-12-19T00:44:57Z</time>
      </trkpt>
      <trkpt lat="45.67603" lon="3.76632">
        <ele>1157</ele>
        <time>2019-12-19T00:45:00Z</time>
      </trkpt>
      <trkpt lat="45.67594" lon="3.76636">
        <ele>1155</ele>
        <time>2019-12-19T00:45:01Z</time>
      </trkpt>
      <trkpt lat="45.67588" lon="3.76635">
        <ele>1153</ele>
        <time>2019-12-19T00:45:02Z</time>
      </trkpt>
      <trkpt lat="45.67582" lon="3.76632">
        <ele>1152</ele>
        <time>2019-12-19T00:45:03Z</time>
      </trkpt>
      <trkpt lat="45.67574" lon="3.76622">
        <ele>1149</ele>
        <time>2019-12-19T00:45:05Z</time>
      </trkpt>
      <trkpt lat="45.67572" lon="3.76615">
        <ele>1149</ele>
        <time>2019-12-19T00:45:06Z</time>
      </trkpt>
      <trkpt lat="45.67571" lon="3.766">
        <ele>1148</ele>
        <time>2019-12-19T00:45:08Z</time>
      </trkpt>
      <trkpt lat="45.67576" lon="3.76582">
        <ele>1149</ele>
        <time>2019-12-19T00:45:11Z</time>
      </trkpt>
      <trkpt lat="45.67655" lon="3.76453">
        <ele>1144</ele>
        <time>2019-12-19T00:45:32Z</time>
      </trkpt>
      <trkpt lat="45.6771" lon="3.76387">
        <ele>1142</ele>
        <time>2019-12-19T00:45:45Z</time>
      </trkpt>
      <trkpt lat="45.67732" lon="3.76365">
        <ele>1142</ele>
        <time>2019-12-19T00:45:49Z</time>
      </trkpt>
      <trkpt lat="45.67771" lon="3.76328">
        <ele>1140</ele>
        <time>2019-12-19T00:45:58Z</time>
      </trkpt>
      <trkpt lat="45.67806" lon="3.763">
        <ele>1143</ele>
        <time>2019-12-19T00:46:05Z</time>
      </trkpt>
      <trkpt lat="45.67812" lon="3.76289">
        <ele>1142</ele>
        <time>2019-12-19T00:46:07Z</time>
      </trkpt>
      <trkpt lat="45.67816" lon="3.76277">
        <ele>1141</ele>
        <time>2019-12-19T00:46:08Z</time>
      </trkpt>
      <trkpt lat="45.67819" lon="3.76256">
        <ele>1139</ele>
        <time>2019-12-19T00:46:11Z</time>
      </trkpt>
      <trkpt lat="45.6782" lon="3.76211">
        <ele>1137</ele>
        <time>2019-12-19T00:46:16Z</time>
      </trkpt>
      <trkpt lat="45.67816" lon="3.76193">
        <ele>1135</ele>
        <time>2019-12-19T00:46:19Z</time>
      </trkpt>
      <trkpt lat="45.67812" lon="3.76182">
        <ele>1134</ele>
        <time>2019-12-19T00:46:20Z</time>
      </trkpt>
      <trkpt lat="45.67793" lon="3.76146">
        <ele>1128</ele>
        <time>2019-12-19T00:46:26Z</time>
      </trkpt>
      <trkpt lat="45.67779" lon="3.76103">
        <ele>1126</ele>
        <time>2019-12-19T00:46:32Z</time>
      </trkpt>
      <trkpt lat="45.67778" lon="3.76074">
        <ele>1127</ele>
        <time>2019-12-19T00:46:35Z</time>
      </trkpt>
      <trkpt lat="45.67787" lon="3.76031">
        <ele>1131</ele>
        <time>2019-12-19T00:46:41Z</time>
      </trkpt>
      <trkpt lat="45.67788" lon="3.76014">
        <ele>1132</ele>
        <time>2019-12-19T00:46:43Z</time>
      </trkpt>
      <trkpt lat="45.6778" lon="3.75965">
        <ele>1134</ele>
        <time>2019-12-19T00:46:49Z</time>
      </trkpt>
      <trkpt lat="45.67773" lon="3.75951">
        <ele>1133</ele>
        <time>2019-12-19T00:46:52Z</time>
      </trkpt>
      <trkpt lat="45.67761" lon="3.75941">
        <ele>1132</ele>
        <time>2019-12-19T00:46:54Z</time>
      </trkpt>
      <trkpt lat="45.67699" lon="3.75919">
        <ele>1125</ele>
        <time>2019-12-19T00:47:05Z</time>
      </trkpt>
      <trkpt lat="45.67682" lon="3.75916">
        <ele>1123</ele>
        <time>2019-12-19T00:47:08Z</time>
      </trkpt>
      <trkpt lat="45.67631" lon="3.75916">
        <ele>1118</ele>
        <time>2019-12-19T00:47:18Z</time>
      </trkpt>
      <trkpt lat="45.67592" lon="3.75936">
        <ele>1109</ele>
        <time>2019-12-19T00:47:25Z</time>
      </trkpt>
      <trkpt lat="45.67586" lon="3.75937">
        <ele>1108</ele>
        <time>2019-12-19T00:47:26Z</time>
      </trkpt>
      <trkpt lat="45.6758" lon="3.75937">
        <ele>1107</ele>
        <time>2019-12-19T00:47:27Z</time>
      </trkpt>
      <trkpt lat="45.67567" lon="3.75932">
        <ele>1105</ele>
        <time>2019-12-19T00:47:29Z</time>
      </trkpt>
      <trkpt lat="45.6756" lon="3.75925">
        <ele>1104</ele>
        <time>2019-12-19T00:47:31Z</time>
      </trkpt>
      <trkpt lat="45.67552" lon="3.75912">
        <ele>1104</ele>
        <time>2019-12-19T00:47:33Z</time>
      </trkpt>
      <trkpt lat="45.67543" lon="3.75887">
        <ele>1102</ele>
        <time>2019-12-19T00:47:37Z</time>
      </trkpt>
      <trkpt lat="45.67537" lon="3.75854">
        <ele>1102</ele>
        <time>2019-12-19T00:47:41Z</time>
      </trkpt>
      <trkpt lat="45.67533" lon="3.75823">
        <ele>1100</ele>
        <time>2019-12-19T00:47:45Z</time>
      </trkpt>
      <trkpt lat="45.67532" lon="3.75776">
        <ele>1097</ele>
        <time>2019-12-19T00:47:51Z</time>
      </trkpt>
      <trkpt lat="45.67534" lon="3.75754">
        <ele>1096</ele>
        <time>2019-12-19T00:47:53Z</time>
      </trkpt>
      <trkpt lat="45.67556" lon="3.75665">
        <ele>1095</ele>
        <time>2019-12-19T00:48:05Z</time>
      </trkpt>
      <trkpt lat="45.67585" lon="3.75576">
        <ele>1091</ele>
        <time>2019-12-19T00:48:17Z</time>
      </trkpt>
      <trkpt lat="45.6763" lon="3.75452">
        <ele>1085</ele>
        <time>2019-12-19T00:48:35Z</time>
      </trkpt>
      <trkpt lat="45.67803" lon="3.75029">
        <ele>1060</ele>
        <time>2019-12-19T00:49:36Z</time>
      </trkpt>
      <trkpt lat="45.67824" lon="3.74958">
        <ele>1054</ele>
        <time>2019-12-19T00:49:45Z</time>
      </trkpt>
      <trkpt lat="45.67859" lon="3.74879">
        <ele>1050</ele>
        <time>2019-12-19T00:49:57Z</time>
      </trkpt>
      <trkpt lat="45.67868" lon="3.74838">
        <ele>1047</ele>
        <time>2019-12-19T00:50:02Z</time>
      </trkpt>
      <trkpt lat="45.67867" lon="3.74816">
        <ele>1046</ele>
        <time>2019-12-19T00:50:05Z</time>
      </trkpt>
      <trkpt lat="45.67864" lon="3.74805">
        <ele>1046</ele>
        <time>2019-12-19T00:50:06Z</time>
      </trkpt>
      <trkpt lat="45.67855" lon="3.74785">
        <ele>1045</ele>
        <time>2019-12-19T00:50:09Z</time>
      </trkpt>
      <trkpt lat="45.67847" lon="3.74775">
        <ele>1045</ele>
        <time>2019-12-19T00:50:11Z</time>
      </trkpt>
      <trkpt lat="45.67839" lon="3.74769">
        <ele>1044</ele>
        <time>2019-12-19T00:50:13Z</time>
      </trkpt>
      <trkpt lat="45.67816" lon="3.74762">
        <ele>1042</ele>
        <time>2019-12-19T00:50:17Z</time>
      </trkpt>
      <trkpt lat="45.67733" lon="3.74751">
        <ele>1034</ele>
        <time>2019-12-19T00:50:32Z</time>
      </trkpt>
      <trkpt lat="45.67711" lon="3.74752">
        <ele>1031</ele>
        <time>2019-12-19T00:50:36Z</time>
      </trkpt>
      <trkpt lat="45.67605" lon="3.74765">
        <ele>1016</ele>
        <time>2019-12-19T00:50:55Z</time>
      </trkpt>
      <trkpt lat="45.67592" lon="3.74765">
        <ele>1015</ele>
        <time>2019-12-19T00:50:57Z</time>
      </trkpt>
      <trkpt lat="45.67582" lon="3.74763">
        <ele>1014</ele>
        <time>2019-12-19T00:50:59Z</time>
      </trkpt>
      <trkpt lat="45.67574" lon="3.74758">
        <ele>1013</ele>
        <time>2019-12-19T00:51:00Z</time>
      </trkpt>
      <trkpt lat="45.6756" lon="3.74742">
        <ele>1013</ele>
        <time>2019-12-19T00:51:04Z</time>
      </trkpt>
      <trkpt lat="45.67554" lon="3.74732">
        <ele>1012</ele>
        <time>2019-12-19T00:51:05Z</time>
      </trkpt>
      <trkpt lat="45.67551" lon="3.7472">
        <ele>1012</ele>
        <time>2019-12-19T00:51:07Z</time>
      </trkpt>
      <trkpt lat="45.6755" lon="3.74705">
        <ele>1012</ele>
        <time>2019-12-19T00:51:09Z</time>
      </trkpt>
      <trkpt lat="45.67556" lon="3.74564">
        <ele>1011</ele>
        <time>2019-12-19T00:51:26Z</time>
      </trkpt>
      <trkpt lat="45.67566" lon="3.74512">
        <ele>1009</ele>
        <time>2019-12-19T00:51:33Z</time>
      </trkpt>
      <trkpt lat="45.6757" lon="3.74467">
        <ele>1004</ele>
        <time>2019-12-19T00:51:39Z</time>
      </trkpt>
      <trkpt lat="45.6758" lon="3.74424">
        <ele>1000</ele>
        <time>2019-12-19T00:51:44Z</time>
      </trkpt>
      <trkpt lat="45.67628" lon="3.74302">
        <ele>995</ele>
        <time>2019-12-19T00:52:02Z</time>
      </trkpt>
      <trkpt lat="45.676" lon="3.74317">
        <ele>990</ele>
        <time>2019-12-19T00:52:07Z</time>
      </trkpt>
      <trkpt lat="45.67587" lon="3.74319">
        <ele>987</ele>
        <time>2019-12-19T00:52:09Z</time>
      </trkpt>
      <trkpt lat="45.67558" lon="3.74308">
        <ele>980</ele>
        <time>2019-12-19T00:52:15Z</time>
      </trkpt>
      <trkpt lat="45.67522" lon="3.74302">
        <ele>974</ele>
        <time>2019-12-19T00:52:21Z</time>
      </trkpt>
      <trkpt lat="45.67484" lon="3.74301">
        <ele>968</ele>
        <time>2019-12-19T00:52:28Z</time>
      </trkpt>
      <trkpt lat="45.67476" lon="3.74297">
        <ele>966</ele>
        <time>2019-12-19T00:52:29Z</time>
      </trkpt>
      <trkpt lat="45.67465" lon="3.74287">
        <ele>965</ele>
        <time>2019-12-19T00:52:32Z</time>
      </trkpt>
      <trkpt lat="45.67462" lon="3.74297">
        <ele>964</ele>
        <time>2019-12-19T00:52:33Z</time>
      </trkpt>
      <trkpt lat="45.67453" lon="3.74312">
        <ele>964</ele>
        <time>2019-12-19T00:52:35Z</time>
      </trkpt>
      <trkpt lat="45.67426" lon="3.74282">
        <ele>959</ele>
        <time>2019-12-19T00:52:42Z</time>
      </trkpt>
      <trkpt lat="45.67417" lon="3.74275">
        <ele>958</ele>
        <time>2019-12-19T00:52:43Z</time>
      </trkpt>
      <trkpt lat="45.67404" lon="3.74274">
        <ele>958</ele>
        <time>2019-12-19T00:52:46Z</time>
      </trkpt>
      <trkpt lat="45.67396" lon="3.7427">
        <ele>958</ele>
        <time>2019-12-19T00:52:47Z</time>
      </trkpt>
      <trkpt lat="45.67388" lon="3.74275">
        <ele>958</ele>
        <time>2019-12-19T00:52:49Z</time>
      </trkpt>
      <trkpt lat="45.67378" lon="3.7429">
        <ele>957</ele>
        <time>2019-12-19T00:52:51Z</time>
      </trkpt>
      <trkpt lat="45.67361" lon="3.7434">
        <ele>954</ele>
        <time>2019-12-19T00:52:58Z</time>
      </trkpt>
      <trkpt lat="45.6734" lon="3.74392">
        <ele>951</ele>
        <time>2019-12-19T00:53:06Z</time>
      </trkpt>
      <trkpt lat="45.673" lon="3.74446">
        <ele>946</ele>
        <time>2019-12-19T00:53:15Z</time>
      </trkpt>
      <trkpt lat="45.67279" lon="3.74546">
        <ele>938</ele>
        <time>2019-12-19T00:53:28Z</time>
      </trkpt>
      <trkpt lat="45.67264" lon="3.74568">
        <ele>936</ele>
        <time>2019-12-19T00:53:32Z</time>
      </trkpt>
      <trkpt lat="45.6724" lon="3.74596">
        <ele>932</ele>
        <time>2019-12-19T00:53:38Z</time>
      </trkpt>
      <trkpt lat="45.67231" lon="3.74604">
        <ele>931</ele>
        <time>2019-12-19T00:53:40Z</time>
      </trkpt>
      <trkpt lat="45.67213" lon="3.74611">
        <ele>930</ele>
        <time>2019-12-19T00:53:43Z</time>
      </trkpt>
      <trkpt lat="45.67172" lon="3.7462">
        <ele>930</ele>
        <time>2019-12-19T00:53:50Z</time>
      </trkpt>
      <trkpt lat="45.67161" lon="3.74625">
        <ele>928</ele>
        <time>2019-12-19T00:53:52Z</time>
      </trkpt>
      <trkpt lat="45.67147" lon="3.74625">
        <ele>926</ele>
        <time>2019-12-19T00:53:55Z</time>
      </trkpt>
      <trkpt lat="45.67095" lon="3.74601">
        <ele>925</ele>
        <time>2019-12-19T00:54:05Z</time>
      </trkpt>
      <trkpt lat="45.67052" lon="3.74572">
        <ele>919</ele>
        <time>2019-12-19T00:54:13Z</time>
      </trkpt>
      <trkpt lat="45.67028" lon="3.74565">
        <ele>911</ele>
        <time>2019-12-19T00:54:17Z</time>
      </trkpt>
      <trkpt lat="45.67007" lon="3.74548">
        <ele>908</ele>
        <time>2019-12-19T00:54:22Z</time>
      </trkpt>
      <trkpt lat="45.66983" lon="3.74515">
        <ele>909</ele>
        <time>2019-12-19T00:54:28Z</time>
      </trkpt>
      <trkpt lat="45.66953" lon="3.74454">
        <ele>904</ele>
        <time>2019-12-19T00:54:37Z</time>
      </trkpt>
      <trkpt lat="45.66949" lon="3.74413">
        <ele>902</ele>
        <time>2019-12-19T00:54:42Z</time>
      </trkpt>
      <trkpt lat="45.66955" lon="3.74362">
        <ele>898</ele>
        <time>2019-12-19T00:54:49Z</time>
      </trkpt>
      <trkpt lat="45.6698" lon="3.74273">
        <ele>892</ele>
        <time>2019-12-19T00:55:00Z</time>
      </trkpt>
      <trkpt lat="45.67011" lon="3.74208">
        <ele>893</ele>
        <time>2019-12-19T00:55:10Z</time>
      </trkpt>
      <trkpt lat="45.67017" lon="3.74169">
        <ele>891</ele>
        <time>2019-12-19T00:55:15Z</time>
      </trkpt>
      <trkpt lat="45.67013" lon="3.74135">
        <ele>891</ele>
        <time>2019-12-19T00:55:19Z</time>
      </trkpt>
      <trkpt lat="45.66977" lon="3.74054">
        <ele>880</ele>
        <time>2019-12-19T00:55:31Z</time>
      </trkpt>
      <trkpt lat="45.66954" lon="3.74027">
        <ele>871</ele>
        <time>2019-12-19T00:55:37Z</time>
      </trkpt>
      <trkpt lat="45.66936" lon="3.73971">
        <ele>864</ele>
        <time>2019-12-19T00:55:44Z</time>
      </trkpt>
      <trkpt lat="45.66936" lon="3.73907">
        <ele>862</ele>
        <time>2019-12-19T00:55:52Z</time>
      </trkpt>
      <trkpt lat="45.66951" lon="3.73853">
        <ele>862</ele>
        <time>2019-12-19T00:56:00Z</time>
      </trkpt>
      <trkpt lat="45.66951" lon="3.73795">
        <ele>857</ele>
        <time>2019-12-19T00:56:07Z</time>
      </trkpt>
      <trkpt lat="45.66945" lon="3.73726">
        <ele>850</ele>
        <time>2019-12-19T00:56:15Z</time>
      </trkpt>
      <trkpt lat="45.66947" lon="3.73694">
        <ele>848</ele>
        <time>2019-12-19T00:56:19Z</time>
      </trkpt>
      <trkpt lat="45.66968" lon="3.73599">
        <ele>846</ele>
        <time>2019-12-19T00:56:32Z</time>
      </trkpt>
      <trkpt lat="45.6698" lon="3.73537">
        <ele>841</ele>
        <time>2019-12-19T00:56:40Z</time>
      </trkpt>
      <trkpt lat="45.67002" lon="3.73476">
        <ele>836</ele>
        <time>2019-12-19T00:56:48Z</time>
      </trkpt>
      <trkpt lat="45.67049" lon="3.7338">
        <ele>825</ele>
        <time>2019-12-19T00:57:03Z</time>
      </trkpt>
      <trkpt lat="45.67083" lon="3.73323">
        <ele>820</ele>
        <time>2019-12-19T00:57:12Z</time>
      </trkpt>
      <trkpt lat="45.67091" lon="3.73305">
        <ele>819</ele>
        <time>2019-12-19T00:57:15Z</time>
      </trkpt>
      <trkpt lat="45.67117" lon="3.73238">
        <ele>816</ele>
        <time>2019-12-19T00:57:24Z</time>
      </trkpt>
      <trkpt lat="45.67123" lon="3.73206">
        <ele>815</ele>
        <time>2019-12-19T00:57:29Z</time>
      </trkpt>
      <trkpt lat="45.67112" lon="3.73156">
        <ele>809</ele>
        <time>2019-12-19T00:57:35Z</time>
      </trkpt>
      <trkpt lat="45.67106" lon="3.73115">
        <ele>808</ele>
        <time>2019-12-19T00:57:40Z</time>
      </trkpt>
      <trkpt lat="45.67097" lon="3.73083">
        <ele>806</ele>
        <time>2019-12-19T00:57:45Z</time>
      </trkpt>
      <trkpt lat="45.67072" lon="3.73025">
        <ele>803</ele>
        <time>2019-12-19T00:57:53Z</time>
      </trkpt>
      <trkpt lat="45.6706" lon="3.73009">
        <ele>800</ele>
        <time>2019-12-19T00:57:56Z</time>
      </trkpt>
      <trkpt lat="45.67041" lon="3.72992">
        <ele>796</ele>
        <time>2019-12-19T00:58:00Z</time>
      </trkpt>
      <trkpt lat="45.67003" lon="3.72968">
        <ele>788</ele>
        <time>2019-12-19T00:58:07Z</time>
      </trkpt>
      <trkpt lat="45.66992" lon="3.72955">
        <ele>786</ele>
        <time>2019-12-19T00:58:10Z</time>
      </trkpt>
      <trkpt lat="45.66979" lon="3.72924">
        <ele>785</ele>
        <time>2019-12-19T00:58:14Z</time>
      </trkpt>
      <trkpt lat="45.66956" lon="3.72884">
        <ele>783</ele>
        <time>2019-12-19T00:58:21Z</time>
      </trkpt>
      <trkpt lat="45.66937" lon="3.7283">
        <ele>783</ele>
        <time>2019-12-19T00:58:28Z</time>
      </trkpt>
      <trkpt lat="45.66922" lon="3.72806">
        <ele>784</ele>
        <time>2019-12-19T00:58:32Z</time>
      </trkpt>
      <trkpt lat="45.66869" lon="3.72776">
        <ele>778</ele>
        <time>2019-12-19T00:58:42Z</time>
      </trkpt>
      <trkpt lat="45.66819" lon="3.7274">
        <ele>771</ele>
        <time>2019-12-19T00:58:52Z</time>
      </trkpt>
      <trkpt lat="45.66792" lon="3.72711">
        <ele>765</ele>
        <time>2019-12-19T00:58:58Z</time>
      </trkpt>
      <trkpt lat="45.66774" lon="3.72672">
        <ele>763</ele>
        <time>2019-12-19T00:59:04Z</time>
      </trkpt>
      <trkpt lat="45.66756" lon="3.72626">
        <ele>760</ele>
        <time>2019-12-19T00:59:11Z</time>
      </trkpt>
      <trkpt lat="45.66747" lon="3.72576">
        <ele>762</ele>
        <time>2019-12-19T00:59:17Z</time>
      </trkpt>
      <trkpt lat="45.66745" lon="3.72525">
        <ele>766</ele>
        <time>2019-12-19T00:59:24Z</time>
      </trkpt>
      <trkpt lat="45.66733" lon="3.72497">
        <ele>766</ele>
        <time>2019-12-19T00:59:28Z</time>
      </trkpt>
      <trkpt lat="45.66708" lon="3.72474">
        <ele>765</ele>
        <time>2019-12-19T00:59:33Z</time>
      </trkpt>
      <trkpt lat="45.66666" lon="3.72461">
        <ele>757</ele>
        <time>2019-12-19T00:59:41Z</time>
      </trkpt>
      <trkpt lat="45.66649" lon="3.72466">
        <ele>751</ele>
        <time>2019-12-19T00:59:44Z</time>
      </trkpt>
      <trkpt lat="45.66638" lon="3.72471">
        <ele>746</ele>
        <time>2019-12-19T00:59:46Z</time>
      </trkpt>
      <trkpt lat="45.66622" lon="3.72471">
        <ele>742</ele>
        <time>2019-12-19T00:59:49Z</time>
      </trkpt>
      <trkpt lat="45.66606" lon="3.72466">
        <ele>739</ele>
        <time>2019-12-19T00:59:51Z</time>
      </trkpt>
      <trkpt lat="45.66587" lon="3.72451">
        <ele>737</ele>
        <time>2019-12-19T00:59:55Z</time>
      </trkpt>
      <trkpt lat="45.66575" lon="3.72426">
        <ele>737</ele>
        <time>2019-12-19T00:59:59Z</time>
      </trkpt>
      <trkpt lat="45.66568" lon="3.72395">
        <ele>738</ele>
        <time>2019-12-19T01:00:03Z</time>
      </trkpt>
      <trkpt lat="45.66569" lon="3.72374">
        <ele>741</ele>
        <time>2019-12-19T01:00:06Z</time>
      </trkpt>
      <trkpt lat="45.66567" lon="3.72364">
        <ele>742</ele>
        <time>2019-12-19T01:00:07Z</time>
      </trkpt>
      <trkpt lat="45.66536" lon="3.72256">
        <ele>738</ele>
        <time>2019-12-19T01:00:22Z</time>
      </trkpt>
      <trkpt lat="45.66523" lon="3.72238">
        <ele>734</ele>
        <time>2019-12-19T01:00:25Z</time>
      </trkpt>
      <trkpt lat="45.66502" lon="3.722">
        <ele>730</ele>
        <time>2019-12-19T01:00:31Z</time>
      </trkpt>
      <trkpt lat="45.66473" lon="3.72133">
        <ele>731</ele>
        <time>2019-12-19T01:00:41Z</time>
      </trkpt>
      <trkpt lat="45.66458" lon="3.72113">
        <ele>731</ele>
        <time>2019-12-19T01:00:44Z</time>
      </trkpt>
      <trkpt lat="45.66439" lon="3.72095">
        <ele>728</ele>
        <time>2019-12-19T01:00:48Z</time>
      </trkpt>
      <trkpt lat="45.66403" lon="3.72044">
        <ele>727</ele>
        <time>2019-12-19T01:00:57Z</time>
      </trkpt>
      <trkpt lat="45.66352" lon="3.72031">
        <ele>715</ele>
        <time>2019-12-19T01:01:07Z</time>
      </trkpt>
      <trkpt lat="45.66329" lon="3.72001">
        <ele>717</ele>
        <time>2019-12-19T01:01:12Z</time>
      </trkpt>
      <trkpt lat="45.66301" lon="3.71972">
        <ele>711</ele>
        <time>2019-12-19T01:01:18Z</time>
      </trkpt>
      <trkpt lat="45.66277" lon="3.71937">
        <ele>708</ele>
        <time>2019-12-19T01:01:24Z</time>
      </trkpt>
      <trkpt lat="45.66227" lon="3.71913">
        <ele>697</ele>
        <time>2019-12-19T01:01:34Z</time>
      </trkpt>
      <trkpt lat="45.66208" lon="3.71894">
        <ele>694</ele>
        <time>2019-12-19T01:01:38Z</time>
      </trkpt>
      <trkpt lat="45.66198" lon="3.71866">
        <ele>692</ele>
        <time>2019-12-19T01:01:42Z</time>
      </trkpt>
      <trkpt lat="45.66199" lon="3.71831">
        <ele>694</ele>
        <time>2019-12-19T01:01:46Z</time>
      </trkpt>
      <trkpt lat="45.6621" lon="3.71722">
        <ele>687</ele>
        <time>2019-12-19T01:02:00Z</time>
      </trkpt>
      <trkpt lat="45.66225" lon="3.71663">
        <ele>684</ele>
        <time>2019-12-19T01:02:08Z</time>
      </trkpt>
      <trkpt lat="45.66223" lon="3.71614">
        <ele>680</ele>
        <time>2019-12-19T01:02:14Z</time>
      </trkpt>
      <trkpt lat="45.66229" lon="3.71587">
        <ele>679</ele>
        <time>2019-12-19T01:02:17Z</time>
      </trkpt>
      <trkpt lat="45.66241" lon="3.71548">
        <ele>682</ele>
        <time>2019-12-19T01:02:23Z</time>
      </trkpt>
      <trkpt lat="45.66241" lon="3.71531">
        <ele>682</ele>
        <time>2019-12-19T01:02:25Z</time>
      </trkpt>
      <trkpt lat="45.66237" lon="3.71514">
        <ele>680</ele>
        <time>2019-12-19T01:02:27Z</time>
      </trkpt>
      <trkpt lat="45.66222" lon="3.71483">
        <ele>673</ele>
        <time>2019-12-19T01:02:32Z</time>
      </trkpt>
      <trkpt lat="45.66219" lon="3.71463">
        <ele>671</ele>
        <time>2019-12-19T01:02:34Z</time>
      </trkpt>
      <trkpt lat="45.66221" lon="3.71438">
        <ele>670</ele>
        <time>2019-12-19T01:02:37Z</time>
      </trkpt>
      <trkpt lat="45.6623" lon="3.7139">
        <ele>667</ele>
        <time>2019-12-19T01:02:43Z</time>
      </trkpt>
      <trkpt lat="45.66239" lon="3.71359">
        <ele>665</ele>
        <time>2019-12-19T01:02:48Z</time>
      </trkpt>
      <trkpt lat="45.66246" lon="3.71348">
        <ele>664</ele>
        <time>2019-12-19T01:02:49Z</time>
      </trkpt>
      <trkpt lat="45.66258" lon="3.71344">
        <ele>666</ele>
        <time>2019-12-19T01:02:52Z</time>
      </trkpt>
      <trkpt lat="45.66279" lon="3.71343">
        <ele>670</ele>
        <time>2019-12-19T01:02:55Z</time>
      </trkpt>
      <trkpt lat="45.66292" lon="3.71336">
        <ele>671</ele>
        <time>2019-12-19T01:02:58Z</time>
      </trkpt>
      <trkpt lat="45.66297" lon="3.71328">
        <ele>670</ele>
        <time>2019-12-19T01:02:59Z</time>
      </trkpt>
      <trkpt lat="45.66301" lon="3.71316">
        <ele>668</ele>
        <time>2019-12-19T01:03:01Z</time>
      </trkpt>
      <trkpt lat="45.66301" lon="3.71305">
        <ele>665</ele>
        <time>2019-12-19T01:03:02Z</time>
      </trkpt>
      <trkpt lat="45.66297" lon="3.71294">
        <ele>662</ele>
        <time>2019-12-19T01:03:04Z</time>
      </trkpt>
      <trkpt lat="45.6629" lon="3.71285">
        <ele>658</ele>
        <time>2019-12-19T01:03:05Z</time>
      </trkpt>
      <trkpt lat="45.66277" lon="3.71281">
        <ele>656</ele>
        <time>2019-12-19T01:03:08Z</time>
      </trkpt>
      <trkpt lat="45.66206" lon="3.71335">
        <ele>655</ele>
        <time>2019-12-19T01:03:22Z</time>
      </trkpt>
      <trkpt lat="45.66182" lon="3.71349">
        <ele>651</ele>
        <time>2019-12-19T01:03:27Z</time>
      </trkpt>
      <trkpt lat="45.66167" lon="3.71344">
        <ele>648</ele>
        <time>2019-12-19T01:03:29Z</time>
      </trkpt>
      <trkpt lat="45.66158" lon="3.71331">
        <ele>645</ele>
        <time>2019-12-19T01:03:32Z</time>
      </trkpt>
      <trkpt lat="45.66156" lon="3.71317">
        <ele>643</ele>
        <time>2019-12-19T01:03:34Z</time>
      </trkpt>
      <trkpt lat="45.6616" lon="3.71212">
        <ele>636</ele>
        <time>2019-12-19T01:03:47Z</time>
      </trkpt>
      <trkpt lat="45.66157" lon="3.71184">
        <ele>634</ele>
        <time>2019-12-19T01:03:50Z</time>
      </trkpt>
      <trkpt lat="45.66141" lon="3.71213">
        <ele>633</ele>
        <time>2019-12-19T01:03:55Z</time>
      </trkpt>
      <trkpt lat="45.66132" lon="3.71255">
        <ele>633</ele>
        <time>2019-12-19T01:04:00Z</time>
      </trkpt>
      <trkpt lat="45.66126" lon="3.71303">
        <ele>636</ele>
        <time>2019-12-19T01:04:06Z</time>
      </trkpt>
      <trkpt lat="45.66119" lon="3.71333">
        <ele>637</ele>
        <time>2019-12-19T01:04:10Z</time>
      </trkpt>
      <trkpt lat="45.66085" lon="3.71425">
        <ele>634</ele>
        <time>2019-12-19T01:04:23Z</time>
      </trkpt>
      <trkpt lat="45.66081" lon="3.71446">
        <ele>634</ele>
        <time>2019-12-19T01:04:26Z</time>
      </trkpt>
      <trkpt lat="45.66086" lon="3.7148">
        <ele>635</ele>
        <time>2019-12-19T01:04:30Z</time>
      </trkpt>
      <trkpt lat="45.66084" lon="3.71495">
        <ele>635</ele>
        <time>2019-12-19T01:04:32Z</time>
      </trkpt>
      <trkpt lat="45.66066" lon="3.71529">
        <ele>630</ele>
        <time>2019-12-19T01:04:37Z</time>
      </trkpt>
      <trkpt lat="45.66063" lon="3.71566">
        <ele>630</ele>
        <time>2019-12-19T01:04:42Z</time>
      </trkpt>
      <trkpt lat="45.66059" lon="3.71577">
        <ele>629</ele>
        <time>2019-12-19T01:04:44Z</time>
      </trkpt>
      <trkpt lat="45.66048" lon="3.71589">
        <ele>626</ele>
        <time>2019-12-19T01:04:46Z</time>
      </trkpt>
      <trkpt lat="45.66027" lon="3.71603">
        <ele>621</ele>
        <time>2019-12-19T01:04:50Z</time>
      </trkpt>
      <trkpt lat="45.66021" lon="3.71613">
        <ele>619</ele>
        <time>2019-12-19T01:04:52Z</time>
      </trkpt>
      <trkpt lat="45.66016" lon="3.71633">
        <ele>618</ele>
        <time>2019-12-19T01:04:54Z</time>
      </trkpt>
      <trkpt lat="45.66026" lon="3.71705">
        <ele>623</ele>
        <time>2019-12-19T01:05:03Z</time>
      </trkpt>
      <trkpt lat="45.66022" lon="3.71726">
        <ele>622</ele>
        <time>2019-12-19T01:05:06Z</time>
      </trkpt>
      <trkpt lat="45.66018" lon="3.7174">
        <ele>621</ele>
        <time>2019-12-19T01:05:08Z</time>
      </trkpt>
      <trkpt lat="45.66013" lon="3.71766">
        <ele>620</ele>
        <time>2019-12-19T01:05:11Z</time>
      </trkpt>
      <trkpt lat="45.66013" lon="3.71796">
        <ele>621</ele>
        <time>2019-12-19T01:05:15Z</time>
      </trkpt>
      <trkpt lat="45.66015" lon="3.71813">
        <ele>623</ele>
        <time>2019-12-19T01:05:17Z</time>
      </trkpt>
      <trkpt lat="45.66018" lon="3.7185">
        <ele>625</ele>
        <time>2019-12-19T01:05:22Z</time>
      </trkpt>
      <trkpt lat="45.66017" lon="3.71873">
        <ele>624</ele>
        <time>2019-12-19T01:05:25Z</time>
      </trkpt>
      <trkpt lat="45.66007" lon="3.71891">
        <ele>621</ele>
        <time>2019-12-19T01:05:28Z</time>
      </trkpt>
      <trkpt lat="45.65998" lon="3.719">
        <ele>620</ele>
        <time>2019-12-19T01:05:30Z</time>
      </trkpt>
      <trkpt lat="45.65975" lon="3.71904">
        <ele>629</ele>
        <time>2019-12-19T01:05:34Z</time>
      </trkpt>
      <trkpt lat="45.65956" lon="3.71888">
        <ele>634</ele>
        <time>2019-12-19T01:05:38Z</time>
      </trkpt>
      <trkpt lat="45.65945" lon="3.71824">
        <ele>628</ele>
        <time>2019-12-19T01:05:46Z</time>
      </trkpt>
      <trkpt lat="45.65944" lon="3.7176">
        <ele>618</ele>
        <time>2019-12-19T01:05:54Z</time>
      </trkpt>
      <trkpt lat="45.65908" lon="3.71687">
        <ele>610</ele>
        <time>2019-12-19T01:06:05Z</time>
      </trkpt>
      <trkpt lat="45.65901" lon="3.71641">
        <ele>606</ele>
        <time>2019-12-19T01:06:11Z</time>
      </trkpt>
      <trkpt lat="45.65863" lon="3.71512">
        <ele>596</ele>
        <time>2019-12-19T01:06:28Z</time>
      </trkpt>
      <trkpt lat="45.65852" lon="3.71491">
        <ele>593</ele>
        <time>2019-12-19T01:06:31Z</time>
      </trkpt>
      <trkpt lat="45.65834" lon="3.7148">
        <ele>593</ele>
        <time>2019-12-19T01:06:35Z</time>
      </trkpt>
      <trkpt lat="45.65813" lon="3.71473">
        <ele>591</ele>
        <time>2019-12-19T01:06:39Z</time>
      </trkpt>
      <trkpt lat="45.65788" lon="3.71468">
        <ele>588</ele>
        <time>2019-12-19T01:06:43Z</time>
      </trkpt>
      <trkpt lat="45.65676" lon="3.71481">
        <ele>581</ele>
        <time>2019-12-19T01:07:03Z</time>
      </trkpt>
      <trkpt lat="45.65649" lon="3.71487">
        <ele>580</ele>
        <time>2019-12-19T01:07:08Z</time>
      </trkpt>
      <trkpt lat="45.65573" lon="3.71484">
        <ele>575</ele>
        <time>2019-12-19T01:07:22Z</time>
      </trkpt>
      <trkpt lat="45.65532" lon="3.71496">
        <ele>574</ele>
        <time>2019-12-19T01:07:29Z</time>
      </trkpt>
      <trkpt lat="45.65515" lon="3.71493">
        <ele>572</ele>
        <time>2019-12-19T01:07:32Z</time>
      </trkpt>
      <trkpt lat="45.65492" lon="3.71462">
        <ele>569</ele>
        <time>2019-12-19T01:07:38Z</time>
      </trkpt>
      <trkpt lat="45.65473" lon="3.71452">
        <ele>568</ele>
        <time>2019-12-19T01:07:41Z</time>
      </trkpt>
      <trkpt lat="45.65428" lon="3.71468">
        <ele>568</ele>
        <time>2019-12-19T01:07:50Z</time>
      </trkpt>
      <trkpt lat="45.65406" lon="3.71464">
        <ele>567</ele>
        <time>2019-12-19T01:07:54Z</time>
      </trkpt>
      <trkpt lat="45.65383" lon="3.71441">
        <ele>565</ele>
        <time>2019-12-19T01:07:59Z</time>
      </trkpt>
      <trkpt lat="45.65345" lon="3.71379">
        <ele>560</ele>
        <time>2019-12-19T01:08:09Z</time>
      </trkpt>
      <trkpt lat="45.65315" lon="3.71343">
        <ele>557</ele>
        <time>2019-12-19T01:08:16Z</time>
      </trkpt>
      <trkpt lat="45.65301" lon="3.71338">
        <ele>556</ele>
        <time>2019-12-19T01:08:18Z</time>
      </trkpt>
      <trkpt lat="45.65255" lon="3.7133">
        <ele>555</ele>
        <time>2019-12-19T01:08:27Z</time>
      </trkpt>
      <trkpt lat="45.65232" lon="3.71322">
        <ele>554</ele>
        <time>2019-12-19T01:08:31Z</time>
      </trkpt>
      <trkpt lat="45.65219" lon="3.71301">
        <ele>551</ele>
        <time>2019-12-19T01:08:34Z</time>
      </trkpt>
      <trkpt lat="45.65185" lon="3.7121">
        <ele>543</ele>
        <time>2019-12-19T01:08:47Z</time>
      </trkpt>
      <trkpt lat="45.65116" lon="3.7112">
        <ele>538</ele>
        <time>2019-12-19T01:09:04Z</time>
      </trkpt>
      <trkpt lat="45.65048" lon="3.71067">
        <ele>534</ele>
        <time>2019-12-19T01:09:18Z</time>
      </trkpt>
      <trkpt lat="45.65026" lon="3.71038">
        <ele>532</ele>
        <time>2019-12-19T01:09:23Z</time>
      </trkpt>
      <trkpt lat="45.64822" lon="3.70826">
        <ele>522</ele>
        <time>2019-12-19T01:10:08Z</time>
      </trkpt>
      <trkpt lat="45.64799" lon="3.70813">
        <ele>523</ele>
        <time>2019-12-19T01:10:12Z</time>
      </trkpt>
      <trkpt lat="45.648" lon="3.70805">
        <ele>522</ele>
        <time>2019-12-19T01:10:13Z</time>
      </trkpt>
      <trkpt lat="45.64797" lon="3.70795">
        <ele>522</ele>
        <time>2019-12-19T01:10:14Z</time>
      </trkpt>
      <trkpt lat="45.64793" lon="3.70792">
        <ele>522</ele>
        <time>2019-12-19T01:10:15Z</time>
      </trkpt>
      <trkpt lat="45.64786" lon="3.70793">
        <ele>522</ele>
        <time>2019-12-19T01:10:17Z</time>
      </trkpt>
      <trkpt lat="45.64782" lon="3.70798">
        <ele>523</ele>
        <time>2019-12-19T01:10:17Z</time>
      </trkpt>
      <trkpt lat="45.64677" lon="3.70675">
        <ele>517</ele>
        <time>2019-12-19T01:10:42Z</time>
      </trkpt>
      <trkpt lat="45.64645" lon="3.70591">
        <ele>511</ele>
        <time>2019-12-19T01:10:54Z</time>
      </trkpt>
      <trkpt lat="45.64624" lon="3.70566">
        <ele>509</ele>
        <time>2019-12-19T01:10:58Z</time>
      </trkpt>
      <trkpt lat="45.64591" lon="3.70537">
        <ele>507</ele>
        <time>2019-12-19T01:11:05Z</time>
      </trkpt>
      <trkpt lat="45.64571" lon="3.70496">
        <ele>504</ele>
        <time>2019-12-19T01:11:11Z</time>
      </trkpt>
      <trkpt lat="45.64558" lon="3.70455">
        <ele>501</ele>
        <time>2019-12-19T01:11:17Z</time>
      </trkpt>
      <trkpt lat="45.64545" lon="3.70439">
        <ele>500</ele>
        <time>2019-12-19T01:11:20Z</time>
      </trkpt>
      <trkpt lat="45.64525" lon="3.7043">
        <ele>498</ele>
        <time>2019-12-19T01:11:24Z</time>
      </trkpt>
      <trkpt lat="45.6449" lon="3.70432">
        <ele>496</ele>
        <time>2019-12-19T01:11:30Z</time>
      </trkpt>
      <trkpt lat="45.64487" lon="3.70379">
        <ele>495</ele>
        <time>2019-12-19T01:11:37Z</time>
      </trkpt>
      <trkpt lat="45.64487" lon="3.70351">
        <ele>494</ele>
        <time>2019-12-19T01:11:40Z</time>
      </trkpt>
      <trkpt lat="45.6449" lon="3.70326">
        <ele>494</ele>
        <time>2019-12-19T01:11:43Z</time>
      </trkpt>
      <trkpt lat="45.64496" lon="3.70303">
        <ele>495</ele>
        <time>2019-12-19T01:11:46Z</time>
      </trkpt>
      <trkpt lat="45.64512" lon="3.70268">
        <ele>497</ele>
        <time>2019-12-19T01:11:52Z</time>
      </trkpt>
      <trkpt lat="45.64535" lon="3.70241">
        <ele>498</ele>
        <time>2019-12-19T01:11:57Z</time>
      </trkpt>
      <trkpt lat="45.64601" lon="3.70185">
        <ele>498</ele>
        <time>2019-12-19T01:12:11Z</time>
      </trkpt>
      <trkpt lat="45.64613" lon="3.70175">
        <ele>499</ele>
        <time>2019-12-19T01:12:13Z</time>
      </trkpt>
      <trkpt lat="45.64621" lon="3.70161">
        <ele>499</ele>
        <time>2019-12-19T01:12:15Z</time>
      </trkpt>
      <trkpt lat="45.64625" lon="3.70137">
        <ele>499</ele>
        <time>2019-12-19T01:12:18Z</time>
      </trkpt>
      <trkpt lat="45.64627" lon="3.70077">
        <ele>498</ele>
        <time>2019-12-19T01:12:26Z</time>
      </trkpt>
      <trkpt lat="45.64632" lon="3.7006">
        <ele>498</ele>
        <time>2019-12-19T01:12:28Z</time>
      </trkpt>
      <trkpt lat="45.64644" lon="3.7004">
        <ele>498</ele>
        <time>2019-12-19T01:12:31Z</time>
      </trkpt>
      <trkpt lat="45.64653" lon="3.70035">
        <ele>498</ele>
        <time>2019-12-19T01:12:33Z</time>
      </trkpt>
      <trkpt lat="45.64709" lon="3.69987">
        <ele>499</ele>
        <time>2019-12-19T01:12:45Z</time>
      </trkpt>
      <trkpt lat="45.64727" lon="3.69966">
        <ele>499</ele>
        <time>2019-12-19T01:12:49Z</time>
      </trkpt>
      <trkpt lat="45.64811" lon="3.69849">
        <ele>499</ele>
        <time>2019-12-19T01:13:10Z</time>
      </trkpt>
      <trkpt lat="45.64824" lon="3.6981">
        <ele>499</ele>
        <time>2019-12-19T01:13:15Z</time>
      </trkpt>
      <trkpt lat="45.6483" lon="3.69764">
        <ele>497</ele>
        <time>2019-12-19T01:13:21Z</time>
      </trkpt>
      <trkpt lat="45.64827" lon="3.69377">
        <ele>501</ele>
        <time>2019-12-19T01:14:09Z</time>
      </trkpt>
      <trkpt lat="45.64824" lon="3.69321">
        <ele>501</ele>
        <time>2019-12-19T01:14:16Z</time>
      </trkpt>
      <trkpt lat="45.64815" lon="3.69277">
        <ele>501</ele>
        <time>2019-12-19T01:14:22Z</time>
      </trkpt>
      <trkpt lat="45.64776" lon="3.69162">
        <ele>502</ele>
        <time>2019-12-19T01:14:38Z</time>
      </trkpt>
      <trkpt lat="45.64756" lon="3.69089">
        <ele>500</ele>
        <time>2019-12-19T01:14:47Z</time>
      </trkpt>
      <trkpt lat="45.64742" lon="3.69026">
        <ele>504</ele>
        <time>2019-12-19T01:14:56Z</time>
      </trkpt>
      <trkpt lat="45.64734" lon="3.68973">
        <ele>508</ele>
        <time>2019-12-19T01:15:02Z</time>
      </trkpt>
      <trkpt lat="45.64712" lon="3.68777">
        <ele>503</ele>
        <time>2019-12-19T01:15:27Z</time>
      </trkpt>
      <trkpt lat="45.64709" lon="3.68756">
        <ele>502</ele>
        <time>2019-12-19T01:15:30Z</time>
      </trkpt>
      <trkpt lat="45.64694" lon="3.68705">
        <ele>503</ele>
        <time>2019-12-19T01:15:37Z</time>
      </trkpt>
      <trkpt lat="45.64568" lon="3.68397">
        <ele>508</ele>
        <time>2019-12-19T01:16:21Z</time>
      </trkpt>
      <trkpt lat="45.64553" lon="3.68346">
        <ele>506</ele>
        <time>2019-12-19T01:16:28Z</time>
      </trkpt>
      <trkpt lat="45.64548" lon="3.68293">
        <ele>502</ele>
        <time>2019-12-19T01:16:35Z</time>
      </trkpt>
      <trkpt lat="45.64554" lon="3.68255">
        <ele>502</ele>
        <time>2019-12-19T01:16:39Z</time>
      </trkpt>
      <trkpt lat="45.64564" lon="3.68217">
        <ele>501</ele>
        <time>2019-12-19T01:16:44Z</time>
      </trkpt>
      <trkpt lat="45.64603" lon="3.68129">
        <ele>497</ele>
        <time>2019-12-19T01:16:57Z</time>
      </trkpt>
      <trkpt lat="45.6463" lon="3.68076">
        <ele>495</ele>
        <time>2019-12-19T01:17:06Z</time>
      </trkpt>
      <trkpt lat="45.64659" lon="3.68035">
        <ele>495</ele>
        <time>2019-12-19T01:17:13Z</time>
      </trkpt>
      <trkpt lat="45.64829" lon="3.67866">
        <ele>492</ele>
        <time>2019-12-19T01:17:50Z</time>
      </trkpt>
      <trkpt lat="45.64853" lon="3.67836">
        <ele>495</ele>
        <time>2019-12-19T01:17:55Z</time>
      </trkpt>
      <trkpt lat="45.64873" lon="3.67805">
        <ele>498</ele>
        <time>2019-12-19T01:18:01Z</time>
      </trkpt>
      <trkpt lat="45.6489" lon="3.67769">
        <ele>498</ele>
        <time>2019-12-19T01:18:06Z</time>
      </trkpt>
      <trkpt lat="45.64909" lon="3.67721">
        <ele>495</ele>
        <time>2019-12-19T01:18:13Z</time>
      </trkpt>
      <trkpt lat="45.64928" lon="3.67663">
        <ele>489</ele>
        <time>2019-12-19T01:18:21Z</time>
      </trkpt>
      <trkpt lat="45.6494" lon="3.67606">
        <ele>490</ele>
        <time>2019-12-19T01:18:28Z</time>
      </trkpt>
      <trkpt lat="45.64942" lon="3.67578">
        <ele>490</ele>
        <time>2019-12-19T01:18:32Z</time>
      </trkpt>
      <trkpt lat="45.64942" lon="3.6755">
        <ele>492</ele>
        <time>2019-12-19T01:18:35Z</time>
      </trkpt>
      <trkpt lat="45.64935" lon="3.67508">
        <ele>492</ele>
        <time>2019-12-19T01:18:41Z</time>
      </trkpt>
      <trkpt lat="45.64923" lon="3.67469">
        <ele>493</ele>
        <time>2019-12-19T01:18:46Z</time>
      </trkpt>
      <trkpt lat="45.64914" lon="3.67451">
        <ele>493</ele>
        <time>2019-12-19T01:18:49Z</time>
      </trkpt>
      <trkpt lat="45.64908" lon="3.67441">
        <ele>494</ele>
        <time>2019-12-19T01:18:50Z</time>
      </trkpt>
      <trkpt lat="45.64887" lon="3.67415">
        <ele>495</ele>
        <time>2019-12-19T01:18:55Z</time>
      </trkpt>
      <trkpt lat="45.64747" lon="3.6728">
        <ele>491</ele>
        <time>2019-12-19T01:19:25Z</time>
      </trkpt>
      <trkpt lat="45.64718" lon="3.67248">
        <ele>490</ele>
        <time>2019-12-19T01:19:32Z</time>
      </trkpt>
      <trkpt lat="45.64596" lon="3.67069">
        <ele>491</ele>
        <time>2019-12-19T01:20:03Z</time>
      </trkpt>
      <trkpt lat="45.64559" lon="3.67007">
        <ele>490</ele>
        <time>2019-12-19T01:20:13Z</time>
      </trkpt>
      <trkpt lat="45.64519" lon="3.66912">
        <ele>482</ele>
        <time>2019-12-19T01:20:27Z</time>
      </trkpt>
      <trkpt lat="45.64499" lon="3.6692">
        <ele>478</ele>
        <time>2019-12-19T01:20:30Z</time>
      </trkpt>
      <trkpt lat="45.64451" lon="3.6694">
        <ele>478</ele>
        <time>2019-12-19T01:20:39Z</time>
      </trkpt>
      <trkpt lat="45.64422" lon="3.6695">
        <ele>479</ele>
        <time>2019-12-19T01:20:45Z</time>
      </trkpt>
      <trkpt lat="45.64417" lon="3.66946">
        <ele>479</ele>
        <time>2019-12-19T01:20:46Z</time>
      </trkpt>
      <trkpt lat="45.64414" lon="3.66941">
        <ele>479</ele>
        <time>2019-12-19T01:20:47Z</time>
      </trkpt>
      <trkpt lat="45.64412" lon="3.66905">
        <ele>477</ele>
        <time>2019-12-19T01:20:51Z</time>
      </trkpt>
      <trkpt lat="45.64408" lon="3.66855">
        <ele>479</ele>
        <time>2019-12-19T01:20:57Z</time>
      </trkpt>
      <trkpt lat="45.64404" lon="3.66841">
        <ele>479</ele>
        <time>2019-12-19T01:20:59Z</time>
      </trkpt>
      <trkpt lat="45.64396" lon="3.66832">
        <ele>480</ele>
        <time>2019-12-19T01:21:01Z</time>
      </trkpt>
      <trkpt lat="45.64372" lon="3.6682">
        <ele>482</ele>
        <time>2019-12-19T01:21:05Z</time>
      </trkpt>
      <trkpt lat="45.64362" lon="3.66814">
        <ele>483</ele>
        <time>2019-12-19T01:21:07Z</time>
      </trkpt>
      <trkpt lat="45.64347" lon="3.66792">
        <ele>485</ele>
        <time>2019-12-19T01:21:11Z</time>
      </trkpt>
      <trkpt lat="45.64315" lon="3.66746">
        <ele>489</ele>
        <time>2019-12-19T01:21:19Z</time>
      </trkpt>
      <trkpt lat="45.64284" lon="3.66679">
        <ele>491</ele>
        <time>2019-12-19T01:21:29Z</time>
      </trkpt>
      <trkpt lat="45.64268" lon="3.66652">
        <ele>491</ele>
        <time>2019-12-19T01:21:34Z</time>
      </trkpt>
      <trkpt lat="45.642" lon="3.66562">
        <ele>501</ele>
        <time>2019-12-19T01:21:50Z</time>
      </trkpt>
      <trkpt lat="45.64187" lon="3.66552">
        <ele>503</ele>
        <time>2019-12-19T01:21:53Z</time>
      </trkpt>
      <trkpt lat="45.64172" lon="3.66543">
        <ele>504</ele>
        <time>2019-12-19T01:21:56Z</time>
      </trkpt>
      <trkpt lat="45.64035" lon="3.66491">
        <ele>513</ele>
        <time>2019-12-19T01:22:21Z</time>
      </trkpt>
      <trkpt lat="45.64025" lon="3.6648">
        <ele>514</ele>
        <time>2019-12-19T01:22:23Z</time>
      </trkpt>
      <trkpt lat="45.64019" lon="3.66464">
        <ele>516</ele>
        <time>2019-12-19T01:22:25Z</time>
      </trkpt>
      <trkpt lat="45.64013" lon="3.66422">
        <ele>522</ele>
        <time>2019-12-19T01:22:31Z</time>
      </trkpt>
      <trkpt lat="45.64007" lon="3.66404">
        <ele>524</ele>
        <time>2019-12-19T01:22:33Z</time>
      </trkpt>
      <trkpt lat="45.63997" lon="3.66393">
        <ele>525</ele>
        <time>2019-12-19T01:22:35Z</time>
      </trkpt>
      <trkpt lat="45.63987" lon="3.6639">
        <ele>526</ele>
        <time>2019-12-19T01:22:37Z</time>
      </trkpt>
      <trkpt lat="45.6398" lon="3.66392">
        <ele>526</ele>
        <time>2019-12-19T01:22:39Z</time>
      </trkpt>
      <trkpt lat="45.63971" lon="3.66401">
        <ele>525</ele>
        <time>2019-12-19T01:22:41Z</time>
      </trkpt>
      <trkpt lat="45.63954" lon="3.66428">
        <ele>521</ele>
        <time>2019-12-19T01:22:45Z</time>
      </trkpt>
      <trkpt lat="45.6394" lon="3.66438">
        <ele>520</ele>
        <time>2019-12-19T01:22:48Z</time>
      </trkpt>
      <trkpt lat="45.63926" lon="3.66442">
        <ele>520</ele>
        <time>2019-12-19T01:22:50Z</time>
      </trkpt>
      <trkpt lat="45.63913" lon="3.6644">
        <ele>521</ele>
        <time>2019-12-19T01:22:53Z</time>
      </trkpt>
      <trkpt lat="45.63906" lon="3.66431">
        <ele>523</ele>
        <time>2019-12-19T01:22:54Z</time>
      </trkpt>
      <trkpt lat="45.63904" lon="3.66418">
        <ele>525</ele>
        <time>2019-12-19T01:22:56Z</time>
      </trkpt>
      <trkpt lat="45.63906" lon="3.66405">
        <ele>528</ele>
        <time>2019-12-19T01:22:58Z</time>
      </trkpt>
      <trkpt lat="45.63911" lon="3.66397">
        <ele>529</ele>
        <time>2019-12-19T01:22:59Z</time>
      </trkpt>
      <trkpt lat="45.63938" lon="3.66384">
        <ele>530</ele>
        <time>2019-12-19T01:23:04Z</time>
      </trkpt>
      <trkpt lat="45.6397" lon="3.66363">
        <ele>531</ele>
        <time>2019-12-19T01:23:10Z</time>
      </trkpt>
      <trkpt lat="45.64034" lon="3.66317">
        <ele>538</ele>
        <time>2019-12-19T01:23:23Z</time>
      </trkpt>
      <trkpt lat="45.64048" lon="3.66314">
        <ele>539</ele>
        <time>2019-12-19T01:23:26Z</time>
      </trkpt>
      <trkpt lat="45.64065" lon="3.66314">
        <ele>540</ele>
        <time>2019-12-19T01:23:29Z</time>
      </trkpt>
      <trkpt lat="45.64118" lon="3.66352">
        <ele>539</ele>
        <time>2019-12-19T01:23:39Z</time>
      </trkpt>
      <trkpt lat="45.64137" lon="3.66356">
        <ele>540</ele>
        <time>2019-12-19T01:23:43Z</time>
      </trkpt>
      <trkpt lat="45.64141" lon="3.66323">
        <ele>545</ele>
        <time>2019-12-19T01:23:47Z</time>
      </trkpt>
      <trkpt lat="45.64143" lon="3.66289">
        <ele>549</ele>
        <time>2019-12-19T01:23:51Z</time>
      </trkpt>
      <trkpt lat="45.64137" lon="3.66241">
        <ele>554</ele>
        <time>2019-12-19T01:23:57Z</time>
      </trkpt>
      <trkpt lat="45.64136" lon="3.66222">
        <ele>556</ele>
        <time>2019-12-19T01:23:59Z</time>
      </trkpt>
      <trkpt lat="45.64124" lon="3.66217">
        <ele>556</ele>
        <time>2019-12-19T01:24:02Z</time>
      </trkpt>
      <trkpt lat="45.64116" lon="3.66211">
        <ele>556</ele>
        <time>2019-12-19T01:24:03Z</time>
      </trkpt>
      <trkpt lat="45.6411" lon="3.66204">
        <ele>557</ele>
        <time>2019-12-19T01:24:05Z</time>
      </trkpt>
      <trkpt lat="45.64083" lon="3.66161">
        <ele>562</ele>
        <time>2019-12-19T01:24:12Z</time>
      </trkpt>
      <trkpt lat="45.64048" lon="3.66082">
        <ele>568</ele>
        <time>2019-12-19T01:24:23Z</time>
      </trkpt>
      <trkpt lat="45.64045" lon="3.66067">
        <ele>569</ele>
        <time>2019-12-19T01:24:25Z</time>
      </trkpt>
      <trkpt lat="45.64044" lon="3.6604">
        <ele>572</ele>
        <time>2019-12-19T01:24:29Z</time>
      </trkpt>
      <trkpt lat="45.64045" lon="3.66005">
        <ele>576</ele>
        <time>2019-12-19T01:24:33Z</time>
      </trkpt>
      <trkpt lat="45.64044" lon="3.65994">
        <ele>578</ele>
        <time>2019-12-19T01:24:35Z</time>
      </trkpt>
      <trkpt lat="45.64038" lon="3.65983">
        <ele>580</ele>
        <time>2019-12-19T01:24:36Z</time>
      </trkpt>
      <trkpt lat="45.64032" lon="3.65978">
        <ele>582</ele>
        <time>2019-12-19T01:24:37Z</time>
      </trkpt>
      <trkpt lat="45.64025" lon="3.65977">
        <ele>582</ele>
        <time>2019-12-19T01:24:39Z</time>
      </trkpt>
      <trkpt lat="45.64009" lon="3.65983">
        <ele>580</ele>
        <time>2019-12-19T01:24:42Z</time>
      </trkpt>
      <trkpt lat="45.63995" lon="3.65999">
        <ele>576</ele>
        <time>2019-12-19T01:24:45Z</time>
      </trkpt>
      <trkpt lat="45.63987" lon="3.66012">
        <ele>577</ele>
        <time>2019-12-19T01:24:47Z</time>
      </trkpt>
      <trkpt lat="45.63955" lon="3.66108">
        <ele>577</ele>
        <time>2019-12-19T01:25:00Z</time>
      </trkpt>
      <trkpt lat="45.6394" lon="3.66132">
        <ele>578</ele>
        <time>2019-12-19T01:25:04Z</time>
      </trkpt>
      <trkpt lat="45.63908" lon="3.66159">
        <ele>581</ele>
        <time>2019-12-19T01:25:11Z</time>
      </trkpt>
      <trkpt lat="45.63854" lon="3.66183">
        <ele>585</ele>
        <time>2019-12-19T01:25:21Z</time>
      </trkpt>
      <trkpt lat="45.63812" lon="3.66191">
        <ele>587</ele>
        <time>2019-12-19T01:25:28Z</time>
      </trkpt>
      <trkpt lat="45.63787" lon="3.6619">
        <ele>586</ele>
        <time>2019-12-19T01:25:33Z</time>
      </trkpt>
      <trkpt lat="45.6378" lon="3.66187">
        <ele>586</ele>
        <time>2019-12-19T01:25:34Z</time>
      </trkpt>
      <trkpt lat="45.63764" lon="3.66171">
        <ele>588</ele>
        <time>2019-12-19T01:25:38Z</time>
      </trkpt>
      <trkpt lat="45.63744" lon="3.66127">
        <ele>596</ele>
        <time>2019-12-19T01:25:44Z</time>
      </trkpt>
      <trkpt lat="45.63738" lon="3.66106">
        <ele>600</ele>
        <time>2019-12-19T01:25:47Z</time>
      </trkpt>
      <trkpt lat="45.63734" lon="3.66076">
        <ele>606</ele>
        <time>2019-12-19T01:25:51Z</time>
      </trkpt>
      <trkpt lat="45.6373" lon="3.66063">
        <ele>608</ele>
        <time>2019-12-19T01:25:53Z</time>
      </trkpt>
      <trkpt lat="45.63723" lon="3.66052">
        <ele>611</ele>
        <time>2019-12-19T01:25:54Z</time>
      </trkpt>
      <trkpt lat="45.63718" lon="3.66048">
        <ele>613</ele>
        <time>2019-12-19T01:25:55Z</time>
      </trkpt>
      <trkpt lat="45.63705" lon="3.6605">
        <ele>615</ele>
        <time>2019-12-19T01:25:58Z</time>
      </trkpt>
      <trkpt lat="45.637" lon="3.66053">
        <ele>616</ele>
        <time>2019-12-19T01:25:59Z</time>
      </trkpt>
      <trkpt lat="45.63684" lon="3.66083">
        <ele>614</ele>
        <time>2019-12-19T01:26:03Z</time>
      </trkpt>
      <trkpt lat="45.63652" lon="3.6613">
        <ele>613</ele>
        <time>2019-12-19T01:26:12Z</time>
      </trkpt>
      <trkpt lat="45.6362" lon="3.66162">
        <ele>614</ele>
        <time>2019-12-19T01:26:19Z</time>
      </trkpt>
      <trkpt lat="45.636" lon="3.66179">
        <ele>615</ele>
        <time>2019-12-19T01:26:23Z</time>
      </trkpt>
      <trkpt lat="45.63579" lon="3.66193">
        <ele>614</ele>
        <time>2019-12-19T01:26:27Z</time>
      </trkpt>
      <trkpt lat="45.63551" lon="3.66202">
        <ele>610</ele>
        <time>2019-12-19T01:26:32Z</time>
      </trkpt>
      <trkpt lat="45.63539" lon="3.662">
        <ele>609</ele>
        <time>2019-12-19T01:26:34Z</time>
      </trkpt>
      <trkpt lat="45.63518" lon="3.66185">
        <ele>610</ele>
        <time>2019-12-19T01:26:38Z</time>
      </trkpt>
      <trkpt lat="45.63508" lon="3.66174">
        <ele>610</ele>
        <time>2019-12-19T01:26:41Z</time>
      </trkpt>
      <trkpt lat="45.63503" lon="3.66163">
        <ele>611</ele>
        <time>2019-12-19T01:26:42Z</time>
      </trkpt>
      <trkpt lat="45.635" lon="3.66148">
        <ele>613</ele>
        <time>2019-12-19T01:26:44Z</time>
      </trkpt>
      <trkpt lat="45.63499" lon="3.6611">
        <ele>618</ele>
        <time>2019-12-19T01:26:49Z</time>
      </trkpt>
      <trkpt lat="45.63494" lon="3.66067">
        <ele>621</ele>
        <time>2019-12-19T01:26:54Z</time>
      </trkpt>
      <trkpt lat="45.63499" lon="3.6602">
        <ele>628</ele>
        <time>2019-12-19T01:27:00Z</time>
      </trkpt>
      <trkpt lat="45.63499" lon="3.65996">
        <ele>630</ele>
        <time>2019-12-19T01:27:03Z</time>
      </trkpt>
      <trkpt lat="45.63497" lon="3.65978">
        <ele>629</ele>
        <time>2019-12-19T01:27:05Z</time>
      </trkpt>
      <trkpt lat="45.63482" lon="3.65923">
        <ele>627</ele>
        <time>2019-12-19T01:27:13Z</time>
      </trkpt>
      <trkpt lat="45.63479" lon="3.65906">
        <ele>626</ele>
        <time>2019-12-19T01:27:15Z</time>
      </trkpt>
      <trkpt lat="45.63481" lon="3.65889">
        <ele>626</ele>
        <time>2019-12-19T01:27:17Z</time>
      </trkpt>
      <trkpt lat="45.63487" lon="3.65872">
        <ele>627</ele>
        <time>2019-12-19T01:27:19Z</time>
      </trkpt>
      <trkpt lat="45.63498" lon="3.65856">
        <ele>629</ele>
        <time>2019-12-19T01:27:22Z</time>
      </trkpt>
      <trkpt lat="45.6356" lon="3.65777">
        <ele>632</ele>
        <time>2019-12-19T01:27:37Z</time>
      </trkpt>
      <trkpt lat="45.63585" lon="3.65732">
        <ele>635</ele>
        <time>2019-12-19T01:27:44Z</time>
      </trkpt>
      <trkpt lat="45.63591" lon="3.65715">
        <ele>637</ele>
        <time>2019-12-19T01:27:47Z</time>
      </trkpt>
      <trkpt lat="45.63599" lon="3.65646">
        <ele>641</ele>
        <time>2019-12-19T01:27:55Z</time>
      </trkpt>
      <trkpt lat="45.63599" lon="3.65625">
        <ele>643</ele>
        <time>2019-12-19T01:27:58Z</time>
      </trkpt>
      <trkpt lat="45.63595" lon="3.65609">
        <ele>644</ele>
        <time>2019-12-19T01:28:00Z</time>
      </trkpt>
      <trkpt lat="45.63583" lon="3.65581">
        <ele>644</ele>
        <time>2019-12-19T01:28:04Z</time>
      </trkpt>
      <trkpt lat="45.6356" lon="3.6554">
        <ele>644</ele>
        <time>2019-12-19T01:28:11Z</time>
      </trkpt>
      <trkpt lat="45.63551" lon="3.65508">
        <ele>646</ele>
        <time>2019-12-19T01:28:15Z</time>
      </trkpt>
      <trkpt lat="45.63549" lon="3.65463">
        <ele>646</ele>
        <time>2019-12-19T01:28:20Z</time>
      </trkpt>
      <trkpt lat="45.6355" lon="3.6545">
        <ele>646</ele>
        <time>2019-12-19T01:28:22Z</time>
      </trkpt>
      <trkpt lat="45.63554" lon="3.65436">
        <ele>647</ele>
        <time>2019-12-19T01:28:24Z</time>
      </trkpt>
      <trkpt lat="45.63569" lon="3.65408">
        <ele>648</ele>
        <time>2019-12-19T01:28:28Z</time>
      </trkpt>
      <trkpt lat="45.63592" lon="3.65379">
        <ele>649</ele>
        <time>2019-12-19T01:28:34Z</time>
      </trkpt>
      <trkpt lat="45.63608" lon="3.65363">
        <ele>649</ele>
        <time>2019-12-19T01:28:37Z</time>
      </trkpt>
      <trkpt lat="45.63621" lon="3.65354">
        <ele>650</ele>
        <time>2019-12-19T01:28:40Z</time>
      </trkpt>
      <trkpt lat="45.63667" lon="3.65344">
        <ele>653</ele>
        <time>2019-12-19T01:28:48Z</time>
      </trkpt>
      <trkpt lat="45.63681" lon="3.65338">
        <ele>654</ele>
        <time>2019-12-19T01:28:51Z</time>
      </trkpt>
      <trkpt lat="45.63704" lon="3.65324">
        <ele>656</ele>
        <time>2019-12-19T01:28:55Z</time>
      </trkpt>
      <trkpt lat="45.63714" lon="3.6532">
        <ele>657</ele>
        <time>2019-12-19T01:28:57Z</time>
      </trkpt>
      <trkpt lat="45.63738" lon="3.65319">
        <ele>660</ele>
        <time>2019-12-19T01:29:01Z</time>
      </trkpt>
      <trkpt lat="45.63749" lon="3.65315">
        <ele>661</ele>
        <time>2019-12-19T01:29:03Z</time>
      </trkpt>
      <trkpt lat="45.63756" lon="3.65308">
        <ele>660</ele>
        <time>2019-12-19T01:29:05Z</time>
      </trkpt>
      <trkpt lat="45.63796" lon="3.65229">
        <ele>658</ele>
        <time>2019-12-19T01:29:17Z</time>
      </trkpt>
      <trkpt lat="45.638" lon="3.65215">
        <ele>658</ele>
        <time>2019-12-19T01:29:19Z</time>
      </trkpt>
      <trkpt lat="45.63799" lon="3.65203">
        <ele>658</ele>
        <time>2019-12-19T01:29:20Z</time>
      </trkpt>
      <trkpt lat="45.63796" lon="3.65191">
        <ele>658</ele>
        <time>2019-12-19T01:29:22Z</time>
      </trkpt>
      <trkpt lat="45.63788" lon="3.65182">
        <ele>657</ele>
        <time>2019-12-19T01:29:24Z</time>
      </trkpt>
      <trkpt lat="45.63778" lon="3.65179">
        <ele>657</ele>
        <time>2019-12-19T01:29:26Z</time>
      </trkpt>
      <trkpt lat="45.63768" lon="3.6518">
        <ele>656</ele>
        <time>2019-12-19T01:29:27Z</time>
      </trkpt>
      <trkpt lat="45.63748" lon="3.65192">
        <ele>655</ele>
        <time>2019-12-19T01:29:31Z</time>
      </trkpt>
      <trkpt lat="45.63733" lon="3.65193">
        <ele>654</ele>
        <time>2019-12-19T01:29:34Z</time>
      </trkpt>
      <trkpt lat="45.63719" lon="3.65185">
        <ele>653</ele>
        <time>2019-12-19T01:29:37Z</time>
      </trkpt>
      <trkpt lat="45.63712" lon="3.65175">
        <ele>653</ele>
        <time>2019-12-19T01:29:38Z</time>
      </trkpt>
      <trkpt lat="45.63688" lon="3.65085">
        <ele>659</ele>
        <time>2019-12-19T01:29:50Z</time>
      </trkpt>
      <trkpt lat="45.63681" lon="3.65066">
        <ele>661</ele>
        <time>2019-12-19T01:29:53Z</time>
      </trkpt>
      <trkpt lat="45.63655" lon="3.65009">
        <ele>662</ele>
        <time>2019-12-19T01:30:01Z</time>
      </trkpt>
      <trkpt lat="45.63647" lon="3.64985">
        <ele>662</ele>
        <time>2019-12-19T01:30:05Z</time>
      </trkpt>
      <trkpt lat="45.63636" lon="3.64923">
        <ele>664</ele>
        <time>2019-12-19T01:30:13Z</time>
      </trkpt>
      <trkpt lat="45.63626" lon="3.64884">
        <ele>665</ele>
        <time>2019-12-19T01:30:18Z</time>
      </trkpt>
      <trkpt lat="45.63579" lon="3.64803">
        <ele>666</ele>
        <time>2019-12-19T01:30:31Z</time>
      </trkpt>
      <trkpt lat="45.63569" lon="3.64783">
        <ele>666</ele>
        <time>2019-12-19T01:30:34Z</time>
      </trkpt>
      <trkpt lat="45.63566" lon="3.64754">
        <ele>668</ele>
        <time>2019-12-19T01:30:38Z</time>
      </trkpt>
      <trkpt lat="45.63568" lon="3.6472">
        <ele>672</ele>
        <time>2019-12-19T01:30:42Z</time>
      </trkpt>
      <trkpt lat="45.63565" lon="3.64705">
        <ele>673</ele>
        <time>2019-12-19T01:30:44Z</time>
      </trkpt>
      <trkpt lat="45.63562" lon="3.64695">
        <ele>674</ele>
        <time>2019-12-19T01:30:45Z</time>
      </trkpt>
      <trkpt lat="45.6354" lon="3.64663">
        <ele>674</ele>
        <time>2019-12-19T01:30:51Z</time>
      </trkpt>
      <trkpt lat="45.63533" lon="3.6464">
        <ele>674</ele>
        <time>2019-12-19T01:30:54Z</time>
      </trkpt>
      <trkpt lat="45.63533" lon="3.64624">
        <ele>675</ele>
        <time>2019-12-19T01:30:56Z</time>
      </trkpt>
      <trkpt lat="45.63539" lon="3.64581">
        <ele>678</ele>
        <time>2019-12-19T01:31:01Z</time>
      </trkpt>
      <trkpt lat="45.6354" lon="3.64557">
        <ele>680</ele>
        <time>2019-12-19T01:31:04Z</time>
      </trkpt>
      <trkpt lat="45.63536" lon="3.64507">
        <ele>684</ele>
        <time>2019-12-19T01:31:11Z</time>
      </trkpt>
      <trkpt lat="45.63529" lon="3.6449">
        <ele>686</ele>
        <time>2019-12-19T01:31:13Z</time>
      </trkpt>
      <trkpt lat="45.6352" lon="3.6448">
        <ele>687</ele>
        <time>2019-12-19T01:31:15Z</time>
      </trkpt>
      <trkpt lat="45.6351" lon="3.64475">
        <ele>687</ele>
        <time>2019-12-19T01:31:17Z</time>
      </trkpt>
      <trkpt lat="45.63459" lon="3.64464">
        <ele>686</ele>
        <time>2019-12-19T01:31:26Z</time>
      </trkpt>
      <trkpt lat="45.63427" lon="3.64441">
        <ele>688</ele>
        <time>2019-12-19T01:31:33Z</time>
      </trkpt>
      <trkpt lat="45.63408" lon="3.64416">
        <ele>690</ele>
        <time>2019-12-19T01:31:37Z</time>
      </trkpt>
      <trkpt lat="45.6339" lon="3.64366">
        <ele>693</ele>
        <time>2019-12-19T01:31:44Z</time>
      </trkpt>
      <trkpt lat="45.63371" lon="3.64269">
        <ele>699</ele>
        <time>2019-12-19T01:31:57Z</time>
      </trkpt>
      <trkpt lat="45.63357" lon="3.64217">
        <ele>700</ele>
        <time>2019-12-19T01:32:04Z</time>
      </trkpt>
      <trkpt lat="45.63355" lon="3.642">
        <ele>700</ele>
        <time>2019-12-19T01:32:06Z</time>
      </trkpt>
      <trkpt lat="45.63356" lon="3.64178">
        <ele>701</ele>
        <time>2019-12-19T01:32:09Z</time>
      </trkpt>
      <trkpt lat="45.63361" lon="3.64115">
        <ele>705</ele>
        <time>2019-12-19T01:32:16Z</time>
      </trkpt>
      <trkpt lat="45.6336" lon="3.64046">
        <ele>708</ele>
        <time>2019-12-19T01:32:25Z</time>
      </trkpt>
      <trkpt lat="45.63361" lon="3.64028">
        <ele>709</ele>
        <time>2019-12-19T01:32:27Z</time>
      </trkpt>
      <trkpt lat="45.63363" lon="3.64014">
        <ele>710</ele>
        <time>2019-12-19T01:32:29Z</time>
      </trkpt>
      <trkpt lat="45.6337" lon="3.63998">
        <ele>712</ele>
        <time>2019-12-19T01:32:31Z</time>
      </trkpt>
      <trkpt lat="45.63395" lon="3.63964">
        <ele>717</ele>
        <time>2019-12-19T01:32:38Z</time>
      </trkpt>
      <trkpt lat="45.634" lon="3.63951">
        <ele>718</ele>
        <time>2019-12-19T01:32:39Z</time>
      </trkpt>
      <trkpt lat="45.63401" lon="3.63935">
        <ele>719</ele>
        <time>2019-12-19T01:32:41Z</time>
      </trkpt>
      <trkpt lat="45.63398" lon="3.63919">
        <ele>720</ele>
        <time>2019-12-19T01:32:43Z</time>
      </trkpt>
      <trkpt lat="45.63393" lon="3.63909">
        <ele>721</ele>
        <time>2019-12-19T01:32:45Z</time>
      </trkpt>
      <trkpt lat="45.63386" lon="3.63902">
        <ele>721</ele>
        <time>2019-12-19T01:32:46Z</time>
      </trkpt>
      <trkpt lat="45.63372" lon="3.63898">
        <ele>721</ele>
        <time>2019-12-19T01:32:49Z</time>
      </trkpt>
      <trkpt lat="45.63327" lon="3.63902">
        <ele>719</ele>
        <time>2019-12-19T01:32:57Z</time>
      </trkpt>
      <trkpt lat="45.63337" lon="3.63832">
        <ele>725</ele>
        <time>2019-12-19T01:33:06Z</time>
      </trkpt>
      <trkpt lat="45.6334" lon="3.63821">
        <ele>726</ele>
        <time>2019-12-19T01:33:07Z</time>
      </trkpt>
      <trkpt lat="45.63358" lon="3.63813">
        <ele>726</ele>
        <time>2019-12-19T01:33:11Z</time>
      </trkpt>
      <trkpt lat="45.63385" lon="3.63784">
        <ele>728</ele>
        <time>2019-12-19T01:33:17Z</time>
      </trkpt>
      <trkpt lat="45.63391" lon="3.63769">
        <ele>728</ele>
        <time>2019-12-19T01:33:19Z</time>
      </trkpt>
      <trkpt lat="45.63564" lon="3.63725">
        <ele>732</ele>
        <time>2019-12-19T01:33:50Z</time>
      </trkpt>
      <trkpt lat="45.63569" lon="3.63711">
        <ele>733</ele>
        <time>2019-12-19T01:33:52Z</time>
      </trkpt>
      <trkpt lat="45.63591" lon="3.63683">
        <ele>735</ele>
        <time>2019-12-19T01:33:57Z</time>
      </trkpt>
      <trkpt lat="45.63619" lon="3.63638">
        <ele>736</ele>
        <time>2019-12-19T01:34:05Z</time>
      </trkpt>
      <trkpt lat="45.63631" lon="3.63607">
        <ele>736</ele>
        <time>2019-12-19T01:34:09Z</time>
      </trkpt>
      <trkpt lat="45.63636" lon="3.63585">
        <ele>736</ele>
        <time>2019-12-19T01:34:12Z</time>
      </trkpt>
      <trkpt lat="45.6364" lon="3.63554">
        <ele>738</ele>
        <time>2019-12-19T01:34:16Z</time>
      </trkpt>
      <trkpt lat="45.63638" lon="3.63411">
        <ele>750</ele>
        <time>2019-12-19T01:34:34Z</time>
      </trkpt>
      <trkpt lat="45.63635" lon="3.63348">
        <ele>755</ele>
        <time>2019-12-19T01:34:42Z</time>
      </trkpt>
      <trkpt lat="45.63626" lon="3.63312">
        <ele>756</ele>
        <time>2019-12-19T01:34:46Z</time>
      </trkpt>
      <trkpt lat="45.6359" lon="3.63255">
        <ele>757</ele>
        <time>2019-12-19T01:34:56Z</time>
      </trkpt>
      <trkpt lat="45.63581" lon="3.63229">
        <ele>756</ele>
        <time>2019-12-19T01:35:00Z</time>
      </trkpt>
      <trkpt lat="45.63561" lon="3.63126">
        <ele>752</ele>
        <time>2019-12-19T01:35:13Z</time>
      </trkpt>
      <trkpt lat="45.6355" lon="3.63092">
        <ele>751</ele>
        <time>2019-12-19T01:35:18Z</time>
      </trkpt>
      <trkpt lat="45.63526" lon="3.63048">
        <ele>753</ele>
        <time>2019-12-19T01:35:25Z</time>
      </trkpt>
      <trkpt lat="45.63457" lon="3.62973">
        <ele>763</ele>
        <time>2019-12-19T01:35:40Z</time>
      </trkpt>
      <trkpt lat="45.63446" lon="3.6295">
        <ele>765</ele>
        <time>2019-12-19T01:35:43Z</time>
      </trkpt>
      <trkpt lat="45.63422" lon="3.62888">
        <ele>769</ele>
        <time>2019-12-19T01:35:52Z</time>
      </trkpt>
      <trkpt lat="45.6342" lon="3.62874">
        <ele>769</ele>
        <time>2019-12-19T01:35:54Z</time>
      </trkpt>
      <trkpt lat="45.63421" lon="3.62848">
        <ele>770</ele>
        <time>2019-12-19T01:35:57Z</time>
      </trkpt>
      <trkpt lat="45.63426" lon="3.62833">
        <ele>771</ele>
        <time>2019-12-19T01:35:59Z</time>
      </trkpt>
      <trkpt lat="45.63435" lon="3.62822">
        <ele>773</ele>
        <time>2019-12-19T01:36:01Z</time>
      </trkpt>
      <trkpt lat="45.63443" lon="3.6282">
        <ele>773</ele>
        <time>2019-12-19T01:36:03Z</time>
      </trkpt>
      <trkpt lat="45.63476" lon="3.62822">
        <ele>774</ele>
        <time>2019-12-19T01:36:09Z</time>
      </trkpt>
      <trkpt lat="45.63492" lon="3.6282">
        <ele>775</ele>
        <time>2019-12-19T01:36:12Z</time>
      </trkpt>
      <trkpt lat="45.63591" lon="3.62779">
        <ele>775</ele>
        <time>2019-12-19T01:36:30Z</time>
      </trkpt>
      <trkpt lat="45.63618" lon="3.62762">
        <ele>775</ele>
        <time>2019-12-19T01:36:35Z</time>
      </trkpt>
      <trkpt lat="45.63655" lon="3.62716">
        <ele>779</ele>
        <time>2019-12-19T01:36:44Z</time>
      </trkpt>
      <trkpt lat="45.63677" lon="3.62684">
        <ele>780</ele>
        <time>2019-12-19T01:36:50Z</time>
      </trkpt>
      <trkpt lat="45.63688" lon="3.62657">
        <ele>780</ele>
        <time>2019-12-19T01:36:53Z</time>
      </trkpt>
      <trkpt lat="45.63694" lon="3.62633">
        <ele>781</ele>
        <time>2019-12-19T01:36:57Z</time>
      </trkpt>
      <trkpt lat="45.63693" lon="3.62604">
        <ele>783</ele>
        <time>2019-12-19T01:37:00Z</time>
      </trkpt>
      <trkpt lat="45.63686" lon="3.62583">
        <ele>785</ele>
        <time>2019-12-19T01:37:03Z</time>
      </trkpt>
      <trkpt lat="45.63659" lon="3.62528">
        <ele>790</ele>
        <time>2019-12-19T01:37:11Z</time>
      </trkpt>
      <trkpt lat="45.6365" lon="3.62506">
        <ele>792</ele>
        <time>2019-12-19T01:37:15Z</time>
      </trkpt>
      <trkpt lat="45.63652" lon="3.62485">
        <ele>794</ele>
        <time>2019-12-19T01:37:17Z</time>
      </trkpt>
      <trkpt lat="45.63659" lon="3.62471">
        <ele>796</ele>
        <time>2019-12-19T01:37:19Z</time>
      </trkpt>
      <trkpt lat="45.63673" lon="3.6246">
        <ele>797</ele>
        <time>2019-12-19T01:37:22Z</time>
      </trkpt>
      <trkpt lat="45.63691" lon="3.62457">
        <ele>797</ele>
        <time>2019-12-19T01:37:25Z</time>
      </trkpt>
      <trkpt lat="45.6374" lon="3.62456">
        <ele>796</ele>
        <time>2019-12-19T01:37:34Z</time>
      </trkpt>
      <trkpt lat="45.63768" lon="3.62448">
        <ele>796</ele>
        <time>2019-12-19T01:37:39Z</time>
      </trkpt>
      <trkpt lat="45.63807" lon="3.62419">
        <ele>797</ele>
        <time>2019-12-19T01:37:47Z</time>
      </trkpt>
      <trkpt lat="45.63821" lon="3.62399">
        <ele>800</ele>
        <time>2019-12-19T01:37:51Z</time>
      </trkpt>
      <trkpt lat="45.63829" lon="3.62385">
        <ele>801</ele>
        <time>2019-12-19T01:37:53Z</time>
      </trkpt>
      <trkpt lat="45.63865" lon="3.6231">
        <ele>802</ele>
        <time>2019-12-19T01:38:04Z</time>
      </trkpt>
      <trkpt lat="45.63871" lon="3.62273">
        <ele>804</ele>
        <time>2019-12-19T01:38:09Z</time>
      </trkpt>
      <trkpt lat="45.63873" lon="3.62231">
        <ele>806</ele>
        <time>2019-12-19T01:38:14Z</time>
      </trkpt>
      <trkpt lat="45.6387" lon="3.622">
        <ele>806</ele>
        <time>2019-12-19T01:38:18Z</time>
      </trkpt>
      <trkpt lat="45.63858" lon="3.62156">
        <ele>809</ele>
        <time>2019-12-19T01:38:24Z</time>
      </trkpt>
      <trkpt lat="45.63822" lon="3.6206">
        <ele>815</ele>
        <time>2019-12-19T01:38:37Z</time>
      </trkpt>
      <trkpt lat="45.63819" lon="3.62034">
        <ele>816</ele>
        <time>2019-12-19T01:38:41Z</time>
      </trkpt>
      <trkpt lat="45.63826" lon="3.61991">
        <ele>813</ele>
        <time>2019-12-19T01:38:46Z</time>
      </trkpt>
      <trkpt lat="45.6383" lon="3.61952">
        <ele>814</ele>
        <time>2019-12-19T01:38:51Z</time>
      </trkpt>
      <trkpt lat="45.63831" lon="3.61899">
        <ele>817</ele>
        <time>2019-12-19T01:38:58Z</time>
      </trkpt>
      <trkpt lat="45.63822" lon="3.61838">
        <ele>824</ele>
        <time>2019-12-19T01:39:05Z</time>
      </trkpt>
      <trkpt lat="45.63821" lon="3.6179">
        <ele>828</ele>
        <time>2019-12-19T01:39:11Z</time>
      </trkpt>
      <trkpt lat="45.63827" lon="3.61767">
        <ele>828</ele>
        <time>2019-12-19T01:39:14Z</time>
      </trkpt>
      <trkpt lat="45.63835" lon="3.61759">
        <ele>827</ele>
        <time>2019-12-19T01:39:16Z</time>
      </trkpt>
      <trkpt lat="45.63847" lon="3.61753">
        <ele>829</ele>
        <time>2019-12-19T01:39:18Z</time>
      </trkpt>
      <trkpt lat="45.63857" lon="3.61757">
        <ele>829</ele>
        <time>2019-12-19T01:39:20Z</time>
      </trkpt>
      <trkpt lat="45.63907" lon="3.61801">
        <ele>824</ele>
        <time>2019-12-19T01:39:31Z</time>
      </trkpt>
      <trkpt lat="45.63937" lon="3.6182">
        <ele>822</ele>
        <time>2019-12-19T01:39:37Z</time>
      </trkpt>
      <trkpt lat="45.63954" lon="3.61826">
        <ele>822</ele>
        <time>2019-12-19T01:39:40Z</time>
      </trkpt>
      <trkpt lat="45.63972" lon="3.61823">
        <ele>823</ele>
        <time>2019-12-19T01:39:43Z</time>
      </trkpt>
      <trkpt lat="45.63983" lon="3.61817">
        <ele>825</ele>
        <time>2019-12-19T01:39:45Z</time>
      </trkpt>
      <trkpt lat="45.63999" lon="3.61787">
        <ele>829</ele>
        <time>2019-12-19T01:39:50Z</time>
      </trkpt>
      <trkpt lat="45.6401" lon="3.61749">
        <ele>830</ele>
        <time>2019-12-19T01:39:55Z</time>
      </trkpt>
      <trkpt lat="45.64017" lon="3.617">
        <ele>830</ele>
        <time>2019-12-19T01:40:01Z</time>
      </trkpt>
      <trkpt lat="45.64017" lon="3.61677">
        <ele>831</ele>
        <time>2019-12-19T01:40:04Z</time>
      </trkpt>
      <trkpt lat="45.64016" lon="3.61651">
        <ele>832</ele>
        <time>2019-12-19T01:40:07Z</time>
      </trkpt>
      <trkpt lat="45.63988" lon="3.61523">
        <ele>838</ele>
        <time>2019-12-19T01:40:24Z</time>
      </trkpt>
      <trkpt lat="45.63988" lon="3.61503">
        <ele>838</ele>
        <time>2019-12-19T01:40:26Z</time>
      </trkpt>
      <trkpt lat="45.63995" lon="3.61484">
        <ele>836</ele>
        <time>2019-12-19T01:40:29Z</time>
      </trkpt>
      <trkpt lat="45.64025" lon="3.61455">
        <ele>834</ele>
        <time>2019-12-19T01:40:35Z</time>
      </trkpt>
      <trkpt lat="45.64046" lon="3.61426">
        <ele>834</ele>
        <time>2019-12-19T01:40:41Z</time>
      </trkpt>
      <trkpt lat="45.6407" lon="3.61382">
        <ele>835</ele>
        <time>2019-12-19T01:40:48Z</time>
      </trkpt>
      <trkpt lat="45.64085" lon="3.61334">
        <ele>837</ele>
        <time>2019-12-19T01:40:54Z</time>
      </trkpt>
      <trkpt lat="45.64092" lon="3.61299">
        <ele>837</ele>
        <time>2019-12-19T01:40:59Z</time>
      </trkpt>
      <trkpt lat="45.64093" lon="3.61274">
        <ele>837</ele>
        <time>2019-12-19T01:41:02Z</time>
      </trkpt>
      <trkpt lat="45.64083" lon="3.61228">
        <ele>837</ele>
        <time>2019-12-19T01:41:08Z</time>
      </trkpt>
      <trkpt lat="45.6406" lon="3.61184">
        <ele>839</ele>
        <time>2019-12-19T01:41:15Z</time>
      </trkpt>
      <trkpt lat="45.63945" lon="3.61023">
        <ele>848</ele>
        <time>2019-12-19T01:41:43Z</time>
      </trkpt>
      <trkpt lat="45.63933" lon="3.60992">
        <ele>847</ele>
        <time>2019-12-19T01:41:48Z</time>
      </trkpt>
      <trkpt lat="45.63931" lon="3.60971">
        <ele>847</ele>
        <time>2019-12-19T01:41:50Z</time>
      </trkpt>
      <trkpt lat="45.63944" lon="3.60712">
        <ele>847</ele>
        <time>2019-12-19T01:42:23Z</time>
      </trkpt>
      <trkpt lat="45.6394" lon="3.60683">
        <ele>849</ele>
        <time>2019-12-19T01:42:26Z</time>
      </trkpt>
      <trkpt lat="45.63933" lon="3.60661">
        <ele>849</ele>
        <time>2019-12-19T01:42:29Z</time>
      </trkpt>
      <trkpt lat="45.63819" lon="3.60466">
        <ele>845</ele>
        <time>2019-12-19T01:43:01Z</time>
      </trkpt>
      <trkpt lat="45.638" lon="3.60425">
        <ele>846</ele>
        <time>2019-12-19T01:43:07Z</time>
      </trkpt>
      <trkpt lat="45.63792" lon="3.60397">
        <ele>846</ele>
        <time>2019-12-19T01:43:11Z</time>
      </trkpt>
      <trkpt lat="45.63775" lon="3.60327">
        <ele>845</ele>
        <time>2019-12-19T01:43:20Z</time>
      </trkpt>
      <trkpt lat="45.63764" lon="3.60297">
        <ele>844</ele>
        <time>2019-12-19T01:43:24Z</time>
      </trkpt>
      <trkpt lat="45.63755" lon="3.60283">
        <ele>843</ele>
        <time>2019-12-19T01:43:27Z</time>
      </trkpt>
      <trkpt lat="45.63734" lon="3.60263">
        <ele>844</ele>
        <time>2019-12-19T01:43:31Z</time>
      </trkpt>
      <trkpt lat="45.63579" lon="3.60155">
        <ele>845</ele>
        <time>2019-12-19T01:44:02Z</time>
      </trkpt>
      <trkpt lat="45.63491" lon="3.60101">
        <ele>846</ele>
        <time>2019-12-19T01:44:19Z</time>
      </trkpt>
      <trkpt lat="45.63395" lon="3.60033">
        <ele>848</ele>
        <time>2019-12-19T01:44:38Z</time>
      </trkpt>
      <trkpt lat="45.63324" lon="3.59979">
        <ele>846</ele>
        <time>2019-12-19T01:44:52Z</time>
      </trkpt>
      <trkpt lat="45.63272" lon="3.59948">
        <ele>846</ele>
        <time>2019-12-19T01:45:02Z</time>
      </trkpt>
      <trkpt lat="45.6324" lon="3.59924">
        <ele>845</ele>
        <time>2019-12-19T01:45:09Z</time>
      </trkpt>
      <trkpt lat="45.6321" lon="3.59895">
        <ele>844</ele>
        <time>2019-12-19T01:45:15Z</time>
      </trkpt>
      <trkpt lat="45.63162" lon="3.59858">
        <ele>842</ele>
        <time>2019-12-19T01:45:25Z</time>
      </trkpt>
      <trkpt lat="45.63099" lon="3.59811">
        <ele>842</ele>
        <time>2019-12-19T01:45:37Z</time>
      </trkpt>
      <trkpt lat="45.63044" lon="3.59774">
        <ele>841</ele>
        <time>2019-12-19T01:45:48Z</time>
      </trkpt>
      <trkpt lat="45.63001" lon="3.59742">
        <ele>838</ele>
        <time>2019-12-19T01:45:57Z</time>
      </trkpt>
      <trkpt lat="45.62951" lon="3.59696">
        <ele>835</ele>
        <time>2019-12-19T01:46:07Z</time>
      </trkpt>
      <trkpt lat="45.62888" lon="3.59643">
        <ele>830</ele>
        <time>2019-12-19T01:46:20Z</time>
      </trkpt>
      <trkpt lat="45.62858" lon="3.59623">
        <ele>831</ele>
        <time>2019-12-19T01:46:26Z</time>
      </trkpt>
      <trkpt lat="45.6283" lon="3.59612">
        <ele>834</ele>
        <time>2019-12-19T01:46:31Z</time>
      </trkpt>
      <trkpt lat="45.62818" lon="3.59604">
        <ele>836</ele>
        <time>2019-12-19T01:46:34Z</time>
      </trkpt>
      <trkpt lat="45.62811" lon="3.59591">
        <ele>835</ele>
        <time>2019-12-19T01:46:36Z</time>
      </trkpt>
      <trkpt lat="45.62805" lon="3.5957">
        <ele>835</ele>
        <time>2019-12-19T01:46:39Z</time>
      </trkpt>
      <trkpt lat="45.62803" lon="3.5953">
        <ele>833</ele>
        <time>2019-12-19T01:46:44Z</time>
      </trkpt>
      <trkpt lat="45.62791" lon="3.59454">
        <ele>831</ele>
        <time>2019-12-19T01:46:53Z</time>
      </trkpt>
      <trkpt lat="45.6277" lon="3.59337">
        <ele>824</ele>
        <time>2019-12-19T01:47:08Z</time>
      </trkpt>
      <trkpt lat="45.62758" lon="3.59292">
        <ele>824</ele>
        <time>2019-12-19T01:47:14Z</time>
      </trkpt>
      <trkpt lat="45.62735" lon="3.59247">
        <ele>826</ele>
        <time>2019-12-19T01:47:21Z</time>
      </trkpt>
      <trkpt lat="45.62718" lon="3.59221">
        <ele>826</ele>
        <time>2019-12-19T01:47:26Z</time>
      </trkpt>
      <trkpt lat="45.62705" lon="3.59184">
        <ele>826</ele>
        <time>2019-12-19T01:47:31Z</time>
      </trkpt>
      <trkpt lat="45.62704" lon="3.59145">
        <ele>826</ele>
        <time>2019-12-19T01:47:36Z</time>
      </trkpt>
      <trkpt lat="45.6272" lon="3.59096">
        <ele>823</ele>
        <time>2019-12-19T01:47:43Z</time>
      </trkpt>
      <trkpt lat="45.62862" lon="3.58958">
        <ele>809</ele>
        <time>2019-12-19T01:48:13Z</time>
      </trkpt>
      <trkpt lat="45.62885" lon="3.58944">
        <ele>808</ele>
        <time>2019-12-19T01:48:18Z</time>
      </trkpt>
      <trkpt lat="45.62934" lon="3.58929">
        <ele>805</ele>
        <time>2019-12-19T01:48:26Z</time>
      </trkpt>
      <trkpt lat="45.62944" lon="3.58924">
        <ele>804</ele>
        <time>2019-12-19T01:48:28Z</time>
      </trkpt>
      <trkpt lat="45.62951" lon="3.58918">
        <ele>804</ele>
        <time>2019-12-19T01:48:30Z</time>
      </trkpt>
      <trkpt lat="45.62956" lon="3.5891">
        <ele>803</ele>
        <time>2019-12-19T01:48:31Z</time>
      </trkpt>
      <trkpt lat="45.62961" lon="3.58899">
        <ele>802</ele>
        <time>2019-12-19T01:48:33Z</time>
      </trkpt>
      <trkpt lat="45.62962" lon="3.58885">
        <ele>801</ele>
        <time>2019-12-19T01:48:34Z</time>
      </trkpt>
      <trkpt lat="45.62961" lon="3.5887">
        <ele>801</ele>
        <time>2019-12-19T01:48:36Z</time>
      </trkpt>
      <trkpt lat="45.62957" lon="3.58856">
        <ele>801</ele>
        <time>2019-12-19T01:48:38Z</time>
      </trkpt>
      <trkpt lat="45.6295" lon="3.58842">
        <ele>801</ele>
        <time>2019-12-19T01:48:40Z</time>
      </trkpt>
      <trkpt lat="45.62928" lon="3.58803">
        <ele>802</ele>
        <time>2019-12-19T01:48:47Z</time>
      </trkpt>
      <trkpt lat="45.6292" lon="3.58783">
        <ele>802</ele>
        <time>2019-12-19T01:48:49Z</time>
      </trkpt>
      <trkpt lat="45.62915" lon="3.58762">
        <ele>801</ele>
        <time>2019-12-19T01:48:52Z</time>
      </trkpt>
      <trkpt lat="45.62914" lon="3.58745">
        <ele>800</ele>
        <time>2019-12-19T01:48:54Z</time>
      </trkpt>
      <trkpt lat="45.62915" lon="3.58725">
        <ele>800</ele>
        <time>2019-12-19T01:48:57Z</time>
      </trkpt>
      <trkpt lat="45.62933" lon="3.58636">
        <ele>797</ele>
        <time>2019-12-19T01:49:08Z</time>
      </trkpt>
      <trkpt lat="45.62936" lon="3.58615">
        <ele>796</ele>
        <time>2019-12-19T01:49:11Z</time>
      </trkpt>
      <trkpt lat="45.62937" lon="3.58595">
        <ele>796</ele>
        <time>2019-12-19T01:49:14Z</time>
      </trkpt>
      <trkpt lat="45.62935" lon="3.58574">
        <ele>795</ele>
        <time>2019-12-19T01:49:16Z</time>
      </trkpt>
      <trkpt lat="45.62931" lon="3.58556">
        <ele>795</ele>
        <time>2019-12-19T01:49:19Z</time>
      </trkpt>
      <trkpt lat="45.62917" lon="3.58519">
        <ele>793</ele>
        <time>2019-12-19T01:49:24Z</time>
      </trkpt>
      <trkpt lat="45.62904" lon="3.58503">
        <ele>792</ele>
        <time>2019-12-19T01:49:27Z</time>
      </trkpt>
      <trkpt lat="45.62889" lon="3.58491">
        <ele>792</ele>
        <time>2019-12-19T01:49:30Z</time>
      </trkpt>
      <trkpt lat="45.62874" lon="3.58484">
        <ele>791</ele>
        <time>2019-12-19T01:49:33Z</time>
      </trkpt>
      <trkpt lat="45.62862" lon="3.58481">
        <ele>791</ele>
        <time>2019-12-19T01:49:35Z</time>
      </trkpt>
      <trkpt lat="45.62848" lon="3.58482">
        <ele>791</ele>
        <time>2019-12-19T01:49:37Z</time>
      </trkpt>
      <trkpt lat="45.62835" lon="3.58485">
        <ele>791</ele>
        <time>2019-12-19T01:49:40Z</time>
      </trkpt>
      <trkpt lat="45.628" lon="3.58501">
        <ele>795</ele>
        <time>2019-12-19T01:49:46Z</time>
      </trkpt>
      <trkpt lat="45.62783" lon="3.58502">
        <ele>796</ele>
        <time>2019-12-19T01:49:49Z</time>
      </trkpt>
      <trkpt lat="45.62766" lon="3.58493">
        <ele>796</ele>
        <time>2019-12-19T01:49:52Z</time>
      </trkpt>
      <trkpt lat="45.62751" lon="3.58477">
        <ele>795</ele>
        <time>2019-12-19T01:49:56Z</time>
      </trkpt>
      <trkpt lat="45.62745" lon="3.58466">
        <ele>794</ele>
        <time>2019-12-19T01:49:58Z</time>
      </trkpt>
      <trkpt lat="45.62739" lon="3.58435">
        <ele>791</ele>
        <time>2019-12-19T01:50:02Z</time>
      </trkpt>
      <trkpt lat="45.62744" lon="3.58401">
        <ele>789</ele>
        <time>2019-12-19T01:50:06Z</time>
      </trkpt>
      <trkpt lat="45.62749" lon="3.58385">
        <ele>788</ele>
        <time>2019-12-19T01:50:08Z</time>
      </trkpt>
      <trkpt lat="45.62765" lon="3.58363">
        <ele>787</ele>
        <time>2019-12-19T01:50:12Z</time>
      </trkpt>
      <trkpt lat="45.62814" lon="3.58323">
        <ele>782</ele>
        <time>2019-12-19T01:50:22Z</time>
      </trkpt>
      <trkpt lat="45.62853" lon="3.58281">
        <ele>780</ele>
        <time>2019-12-19T01:50:31Z</time>
      </trkpt>
      <trkpt lat="45.62864" lon="3.5826">
        <ele>780</ele>
        <time>2019-12-19T01:50:34Z</time>
      </trkpt>
      <trkpt lat="45.62873" lon="3.58238">
        <ele>779</ele>
        <time>2019-12-19T01:50:37Z</time>
      </trkpt>
      <trkpt lat="45.62883" lon="3.58208">
        <ele>777</ele>
        <time>2019-12-19T01:50:41Z</time>
      </trkpt>
      <trkpt lat="45.62893" lon="3.58156">
        <ele>773</ele>
        <time>2019-12-19T01:50:48Z</time>
      </trkpt>
      <trkpt lat="45.62895" lon="3.58125">
        <ele>771</ele>
        <time>2019-12-19T01:50:52Z</time>
      </trkpt>
      <trkpt lat="45.62895" lon="3.58102">
        <ele>770</ele>
        <time>2019-12-19T01:50:55Z</time>
      </trkpt>
      <trkpt lat="45.62892" lon="3.58078">
        <ele>768</ele>
        <time>2019-12-19T01:50:58Z</time>
      </trkpt>
      <trkpt lat="45.62887" lon="3.58055">
        <ele>768</ele>
        <time>2019-12-19T01:51:01Z</time>
      </trkpt>
      <trkpt lat="45.62853" lon="3.57978">
        <ele>764</ele>
        <time>2019-12-19T01:51:12Z</time>
      </trkpt>
      <trkpt lat="45.62849" lon="3.57958">
        <ele>763</ele>
        <time>2019-12-19T01:51:15Z</time>
      </trkpt>
      <trkpt lat="45.62848" lon="3.57939">
        <ele>762</ele>
        <time>2019-12-19T01:51:17Z</time>
      </trkpt>
      <trkpt lat="45.6285" lon="3.57914">
        <ele>761</ele>
        <time>2019-12-19T01:51:20Z</time>
      </trkpt>
      <trkpt lat="45.62856" lon="3.57893">
        <ele>760</ele>
        <time>2019-12-19T01:51:23Z</time>
      </trkpt>
      <trkpt lat="45.62866" lon="3.57868">
        <ele>759</ele>
        <time>2019-12-19T01:51:27Z</time>
      </trkpt>
      <trkpt lat="45.63043" lon="3.5748">
        <ele>744</ele>
        <time>2019-12-19T01:52:24Z</time>
      </trkpt>
      <trkpt lat="45.6307" lon="3.57419">
        <ele>742</ele>
        <time>2019-12-19T01:52:33Z</time>
      </trkpt>
      <trkpt lat="45.63082" lon="3.57386">
        <ele>740</ele>
        <time>2019-12-19T01:52:38Z</time>
      </trkpt>
      <trkpt lat="45.63089" lon="3.57349">
        <ele>738</ele>
        <time>2019-12-19T01:52:43Z</time>
      </trkpt>
      <trkpt lat="45.63091" lon="3.5732">
        <ele>737</ele>
        <time>2019-12-19T01:52:46Z</time>
      </trkpt>
      <trkpt lat="45.6309" lon="3.57285">
        <ele>735</ele>
        <time>2019-12-19T01:52:51Z</time>
      </trkpt>
      <trkpt lat="45.63078" lon="3.57118">
        <ele>731</ele>
        <time>2019-12-19T01:53:12Z</time>
      </trkpt>
      <trkpt lat="45.6308" lon="3.57071">
        <ele>730</ele>
        <time>2019-12-19T01:53:17Z</time>
      </trkpt>
      <trkpt lat="45.63085" lon="3.5704">
        <ele>730</ele>
        <time>2019-12-19T01:53:21Z</time>
      </trkpt>
      <trkpt lat="45.63094" lon="3.57007">
        <ele>730</ele>
        <time>2019-12-19T01:53:26Z</time>
      </trkpt>
      <trkpt lat="45.63119" lon="3.56951">
        <ele>729</ele>
        <time>2019-12-19T01:53:34Z</time>
      </trkpt>
      <trkpt lat="45.63133" lon="3.56915">
        <ele>729</ele>
        <time>2019-12-19T01:53:39Z</time>
      </trkpt>
      <trkpt lat="45.63146" lon="3.56863">
        <ele>731</ele>
        <time>2019-12-19T01:53:46Z</time>
      </trkpt>
      <trkpt lat="45.63153" lon="3.56809">
        <ele>732</ele>
        <time>2019-12-19T01:53:53Z</time>
      </trkpt>
      <trkpt lat="45.63159" lon="3.5671">
        <ele>731</ele>
        <time>2019-12-19T01:54:05Z</time>
      </trkpt>
      <trkpt lat="45.63157" lon="3.56682">
        <ele>731</ele>
        <time>2019-12-19T01:54:09Z</time>
      </trkpt>
      <trkpt lat="45.63161" lon="3.56679">
        <ele>731</ele>
        <time>2019-12-19T01:54:09Z</time>
      </trkpt>
      <trkpt lat="45.63171" lon="3.56657">
        <ele>731</ele>
        <time>2019-12-19T01:54:13Z</time>
      </trkpt>
      <trkpt lat="45.63182" lon="3.56594">
        <ele>730</ele>
        <time>2019-12-19T01:54:21Z</time>
      </trkpt>
      <trkpt lat="45.63197" lon="3.56479">
        <ele>730</ele>
        <time>2019-12-19T01:54:35Z</time>
      </trkpt>
      <trkpt lat="45.632" lon="3.56438">
        <ele>729</ele>
        <time>2019-12-19T01:54:41Z</time>
      </trkpt>
      <trkpt lat="45.63199" lon="3.56409">
        <ele>728</ele>
        <time>2019-12-19T01:54:44Z</time>
      </trkpt>
      <trkpt lat="45.63204" lon="3.5638">
        <ele>726</ele>
        <time>2019-12-19T01:54:48Z</time>
      </trkpt>
      <trkpt lat="45.63203" lon="3.56371">
        <ele>725</ele>
        <time>2019-12-19T01:54:49Z</time>
      </trkpt>
      <trkpt lat="45.63217" lon="3.56352">
        <ele>724</ele>
        <time>2019-12-19T01:54:52Z</time>
      </trkpt>
      <trkpt lat="45.63235" lon="3.56324">
        <ele>722</ele>
        <time>2019-12-19T01:54:57Z</time>
      </trkpt>
      <trkpt lat="45.63264" lon="3.56299">
        <ele>720</ele>
        <time>2019-12-19T01:55:03Z</time>
      </trkpt>
      <trkpt lat="45.63297" lon="3.5628">
        <ele>719</ele>
        <time>2019-12-19T01:55:10Z</time>
      </trkpt>
      <trkpt lat="45.63284" lon="3.56269">
        <ele>717</ele>
        <time>2019-12-19T01:55:12Z</time>
      </trkpt>
      <trkpt lat="45.63275" lon="3.56254">
        <ele>716</ele>
        <time>2019-12-19T01:55:15Z</time>
      </trkpt>
      <trkpt lat="45.63272" lon="3.56242">
        <ele>715</ele>
        <time>2019-12-19T01:55:16Z</time>
      </trkpt>
      <trkpt lat="45.63261" lon="3.56178">
        <ele>710</ele>
        <time>2019-12-19T01:55:24Z</time>
      </trkpt>
      <trkpt lat="45.63256" lon="3.56162">
        <ele>709</ele>
        <time>2019-12-19T01:55:27Z</time>
      </trkpt>
      <trkpt lat="45.6324" lon="3.56135">
        <ele>707</ele>
        <time>2019-12-19T01:55:31Z</time>
      </trkpt>
      <trkpt lat="45.63238" lon="3.56129">
        <ele>707</ele>
        <time>2019-12-19T01:55:32Z</time>
      </trkpt>
      <trkpt lat="45.63235" lon="3.56057">
        <ele>703</ele>
        <time>2019-12-19T01:55:41Z</time>
      </trkpt>
      <trkpt lat="45.63236" lon="3.56037">
        <ele>703</ele>
        <time>2019-12-19T01:55:43Z</time>
      </trkpt>
      <trkpt lat="45.6324" lon="3.56022">
        <ele>702</ele>
        <time>2019-12-19T01:55:45Z</time>
      </trkpt>
      <trkpt lat="45.63239" lon="3.56012">
        <ele>702</ele>
        <time>2019-12-19T01:55:47Z</time>
      </trkpt>
      <trkpt lat="45.63234" lon="3.55991">
        <ele>701</ele>
        <time>2019-12-19T01:55:49Z</time>
      </trkpt>
      <trkpt lat="45.63221" lon="3.56002">
        <ele>702</ele>
        <time>2019-12-19T01:55:52Z</time>
      </trkpt>
      <trkpt lat="45.63209" lon="3.56005">
        <ele>702</ele>
        <time>2019-12-19T01:55:54Z</time>
      </trkpt>
      <trkpt lat="45.63205" lon="3.56004">
        <ele>702</ele>
        <time>2019-12-19T01:55:55Z</time>
      </trkpt>
      <trkpt lat="45.63148" lon="3.55911">
        <ele>693</ele>
        <time>2019-12-19T01:56:10Z</time>
      </trkpt>
      <trkpt lat="45.63123" lon="3.55884">
        <ele>692</ele>
        <time>2019-12-19T01:56:16Z</time>
      </trkpt>
      <trkpt lat="45.62814" lon="3.55606">
        <ele>673</ele>
        <time>2019-12-19T01:57:21Z</time>
      </trkpt>
      <trkpt lat="45.62804" lon="3.55594">
        <ele>672</ele>
        <time>2019-12-19T01:57:23Z</time>
      </trkpt>
      <trkpt lat="45.62795" lon="3.55572">
        <ele>672</ele>
        <time>2019-12-19T01:57:26Z</time>
      </trkpt>
      <trkpt lat="45.62783" lon="3.55532">
        <ele>672</ele>
        <time>2019-12-19T01:57:32Z</time>
      </trkpt>
      <trkpt lat="45.62779" lon="3.55521">
        <ele>672</ele>
        <time>2019-12-19T01:57:33Z</time>
      </trkpt>
      <trkpt lat="45.62771" lon="3.55492">
        <ele>673</ele>
        <time>2019-12-19T01:57:37Z</time>
      </trkpt>
      <trkpt lat="45.62736" lon="3.55403">
        <ele>680</ele>
        <time>2019-12-19T01:57:50Z</time>
      </trkpt>
      <trkpt lat="45.62721" lon="3.55387">
        <ele>682</ele>
        <time>2019-12-19T01:57:53Z</time>
      </trkpt>
      <trkpt lat="45.62705" lon="3.55378">
        <ele>685</ele>
        <time>2019-12-19T01:57:56Z</time>
      </trkpt>
      <trkpt lat="45.62691" lon="3.55377">
        <ele>686</ele>
        <time>2019-12-19T01:57:59Z</time>
      </trkpt>
      <trkpt lat="45.62675" lon="3.55379">
        <ele>688</ele>
        <time>2019-12-19T01:58:02Z</time>
      </trkpt>
      <trkpt lat="45.6258" lon="3.55448">
        <ele>690</ele>
        <time>2019-12-19T01:58:21Z</time>
      </trkpt>
      <trkpt lat="45.62542" lon="3.55427">
        <ele>696</ele>
        <time>2019-12-19T01:58:28Z</time>
      </trkpt>
      <trkpt lat="45.62506" lon="3.5539">
        <ele>703</ele>
        <time>2019-12-19T01:58:36Z</time>
      </trkpt>
      <trkpt lat="45.62481" lon="3.55339">
        <ele>706</ele>
        <time>2019-12-19T01:58:43Z</time>
      </trkpt>
      <trkpt lat="45.62477" lon="3.55326">
        <ele>706</ele>
        <time>2019-12-19T01:58:45Z</time>
      </trkpt>
      <trkpt lat="45.62479" lon="3.55279">
        <ele>704</ele>
        <time>2019-12-19T01:58:51Z</time>
      </trkpt>
      <trkpt lat="45.62475" lon="3.55214">
        <ele>702</ele>
        <time>2019-12-19T01:58:59Z</time>
      </trkpt>
      <trkpt lat="45.62471" lon="3.55187">
        <ele>701</ele>
        <time>2019-12-19T01:59:03Z</time>
      </trkpt>
      <trkpt lat="45.62466" lon="3.55175">
        <ele>701</ele>
        <time>2019-12-19T01:59:04Z</time>
      </trkpt>
      <trkpt lat="45.62456" lon="3.5516">
        <ele>700</ele>
        <time>2019-12-19T01:59:07Z</time>
      </trkpt>
      <trkpt lat="45.6242" lon="3.55121">
        <ele>701</ele>
        <time>2019-12-19T01:59:15Z</time>
      </trkpt>
      <trkpt lat="45.62384" lon="3.55075">
        <ele>704</ele>
        <time>2019-12-19T01:59:24Z</time>
      </trkpt>
      <trkpt lat="45.62368" lon="3.5504">
        <ele>707</ele>
        <time>2019-12-19T01:59:29Z</time>
      </trkpt>
      <trkpt lat="45.62356" lon="3.55006">
        <ele>711</ele>
        <time>2019-12-19T01:59:34Z</time>
      </trkpt>
      <trkpt lat="45.62348" lon="3.54972">
        <ele>715</ele>
        <time>2019-12-19T01:59:38Z</time>
      </trkpt>
      <trkpt lat="45.62341" lon="3.54917">
        <ele>722</ele>
        <time>2019-12-19T01:59:45Z</time>
      </trkpt>
      <trkpt lat="45.6234" lon="3.54884">
        <ele>725</ele>
        <time>2019-12-19T01:59:49Z</time>
      </trkpt>
      <trkpt lat="45.62325" lon="3.5486">
        <ele>728</ele>
        <time>2019-12-19T01:59:53Z</time>
      </trkpt>
      <trkpt lat="45.62306" lon="3.54836">
        <ele>732</ele>
        <time>2019-12-19T01:59:58Z</time>
      </trkpt>
      <trkpt lat="45.62202" lon="3.54719">
        <ele>756</ele>
        <time>2019-12-19T02:00:21Z</time>
      </trkpt>
      <trkpt lat="45.62229" lon="3.54636">
        <ele>762</ele>
        <time>2019-12-19T02:00:32Z</time>
      </trkpt>
      <trkpt lat="45.6226" lon="3.54555">
        <ele>766</ele>
        <time>2019-12-19T02:00:44Z</time>
      </trkpt>
      <trkpt lat="45.62255" lon="3.54519">
        <ele>768</ele>
        <time>2019-12-19T02:00:49Z</time>
      </trkpt>
      <trkpt lat="45.62211" lon="3.54444">
        <ele>770</ele>
        <time>2019-12-19T02:01:01Z</time>
      </trkpt>
      <trkpt lat="45.62145" lon="3.54408">
        <ele>780</ele>
        <time>2019-12-19T02:01:13Z</time>
      </trkpt>
      <trkpt lat="45.6212" lon="3.54386">
        <ele>782</ele>
        <time>2019-12-19T02:01:19Z</time>
      </trkpt>
      <trkpt lat="45.62107" lon="3.54358">
        <ele>781</ele>
        <time>2019-12-19T02:01:23Z</time>
      </trkpt>
      <trkpt lat="45.62087" lon="3.54288">
        <ele>783</ele>
        <time>2019-12-19T02:01:32Z</time>
      </trkpt>
      <trkpt lat="45.6209" lon="3.54215">
        <ele>784</ele>
        <time>2019-12-19T02:01:41Z</time>
      </trkpt>
      <trkpt lat="45.62103" lon="3.54155">
        <ele>786</ele>
        <time>2019-12-19T02:01:49Z</time>
      </trkpt>
      <trkpt lat="45.62151" lon="3.54083">
        <ele>786</ele>
        <time>2019-12-19T02:02:01Z</time>
      </trkpt>
      <trkpt lat="45.62171" lon="3.54014">
        <ele>786</ele>
        <time>2019-12-19T02:02:11Z</time>
      </trkpt>
      <trkpt lat="45.62162" lon="3.53947">
        <ele>790</ele>
        <time>2019-12-19T02:02:19Z</time>
      </trkpt>
      <trkpt lat="45.62133" lon="3.53856">
        <ele>791</ele>
        <time>2019-12-19T02:02:32Z</time>
      </trkpt>
      <trkpt lat="45.62082" lon="3.53765">
        <ele>795</ele>
        <time>2019-12-19T02:02:46Z</time>
      </trkpt>
      <trkpt lat="45.62002" lon="3.537">
        <ele>794</ele>
        <time>2019-12-19T02:03:03Z</time>
      </trkpt>
      <trkpt lat="45.61932" lon="3.53655">
        <ele>796</ele>
        <time>2019-12-19T02:03:16Z</time>
      </trkpt>
      <trkpt lat="45.61893" lon="3.53618">
        <ele>800</ele>
        <time>2019-12-19T02:03:25Z</time>
      </trkpt>
      <trkpt lat="45.61842" lon="3.53516">
        <ele>805</ele>
        <time>2019-12-19T02:03:40Z</time>
      </trkpt>
      <trkpt lat="45.61802" lon="3.53417">
        <ele>807</ele>
        <time>2019-12-19T02:03:54Z</time>
      </trkpt>
      <trkpt lat="45.61795" lon="3.5338">
        <ele>808</ele>
        <time>2019-12-19T02:03:59Z</time>
      </trkpt>
      <trkpt lat="45.61774" lon="3.53393">
        <ele>809</ele>
        <time>2019-12-19T02:04:03Z</time>
      </trkpt>
      <trkpt lat="45.61767" lon="3.53374">
        <ele>809</ele>
        <time>2019-12-19T02:04:06Z</time>
      </trkpt>
      <trkpt lat="45.61758" lon="3.53367">
        <ele>809</ele>
        <time>2019-12-19T02:04:08Z</time>
      </trkpt>
      <trkpt lat="45.61659" lon="3.53317">
        <ele>813</ele>
        <time>2019-12-19T02:04:26Z</time>
      </trkpt>
      <trkpt lat="45.61608" lon="3.53286">
        <ele>812</ele>
        <time>2019-12-19T02:04:36Z</time>
      </trkpt>
      <trkpt lat="45.61592" lon="3.53279">
        <ele>811</ele>
        <time>2019-12-19T02:04:39Z</time>
      </trkpt>
      <trkpt lat="45.61558" lon="3.53269">
        <ele>811</ele>
        <time>2019-12-19T02:04:45Z</time>
      </trkpt>
      <trkpt lat="45.61494" lon="3.5326">
        <ele>813</ele>
        <time>2019-12-19T02:04:57Z</time>
      </trkpt>
      <trkpt lat="45.61469" lon="3.53248">
        <ele>815</ele>
        <time>2019-12-19T02:05:02Z</time>
      </trkpt>
      <trkpt lat="45.61454" lon="3.53237">
        <ele>816</ele>
        <time>2019-12-19T02:05:05Z</time>
      </trkpt>
      <trkpt lat="45.61437" lon="3.53211">
        <ele>817</ele>
        <time>2019-12-19T02:05:09Z</time>
      </trkpt>
      <trkpt lat="45.61419" lon="3.53146">
        <ele>815</ele>
        <time>2019-12-19T02:05:18Z</time>
      </trkpt>
      <trkpt lat="45.61409" lon="3.53122">
        <ele>815</ele>
        <time>2019-12-19T02:05:21Z</time>
      </trkpt>
      <trkpt lat="45.61395" lon="3.53101">
        <ele>813</ele>
        <time>2019-12-19T02:05:25Z</time>
      </trkpt>
      <trkpt lat="45.61383" lon="3.53093">
        <ele>812</ele>
        <time>2019-12-19T02:05:27Z</time>
      </trkpt>
      <trkpt lat="45.61371" lon="3.53087">
        <ele>811</ele>
        <time>2019-12-19T02:05:29Z</time>
      </trkpt>
      <trkpt lat="45.61345" lon="3.53082">
        <ele>810</ele>
        <time>2019-12-19T02:05:34Z</time>
      </trkpt>
      <trkpt lat="45.61323" lon="3.53074">
        <ele>809</ele>
        <time>2019-12-19T02:05:38Z</time>
      </trkpt>
      <trkpt lat="45.61313" lon="3.53066">
        <ele>809</ele>
        <time>2019-12-19T02:05:40Z</time>
      </trkpt>
      <trkpt lat="45.61304" lon="3.53054">
        <ele>809</ele>
        <time>2019-12-19T02:05:42Z</time>
      </trkpt>
      <trkpt lat="45.61295" lon="3.53032">
        <ele>809</ele>
        <time>2019-12-19T02:05:45Z</time>
      </trkpt>
      <trkpt lat="45.61277" lon="3.52962">
        <ele>810</ele>
        <time>2019-12-19T02:05:55Z</time>
      </trkpt>
      <trkpt lat="45.61261" lon="3.52916">
        <ele>813</ele>
        <time>2019-12-19T02:06:01Z</time>
      </trkpt>
      <trkpt lat="45.6125" lon="3.52891">
        <ele>814</ele>
        <time>2019-12-19T02:06:05Z</time>
      </trkpt>
      <trkpt lat="45.61226" lon="3.52859">
        <ele>819</ele>
        <time>2019-12-19T02:06:11Z</time>
      </trkpt>
      <trkpt lat="45.61182" lon="3.52815">
        <ele>822</ele>
        <time>2019-12-19T02:06:20Z</time>
      </trkpt>
      <trkpt lat="45.61171" lon="3.52799">
        <ele>822</ele>
        <time>2019-12-19T02:06:23Z</time>
      </trkpt>
      <trkpt lat="45.6115" lon="3.52763">
        <ele>823</ele>
        <time>2019-12-19T02:06:29Z</time>
      </trkpt>
      <trkpt lat="45.61133" lon="3.52714">
        <ele>821</ele>
        <time>2019-12-19T02:06:36Z</time>
      </trkpt>
      <trkpt lat="45.61052" lon="3.52457">
        <ele>815</ele>
        <time>2019-12-19T02:07:11Z</time>
      </trkpt>
      <trkpt lat="45.61043" lon="3.52438">
        <ele>813</ele>
        <time>2019-12-19T02:07:14Z</time>
      </trkpt>
      <trkpt lat="45.61032" lon="3.52419">
        <ele>811</ele>
        <time>2019-12-19T02:07:17Z</time>
      </trkpt>
      <trkpt lat="45.60947" lon="3.52311">
        <ele>806</ele>
        <time>2019-12-19T02:07:37Z</time>
      </trkpt>
      <trkpt lat="45.60874" lon="3.52225">
        <ele>806</ele>
        <time>2019-12-19T02:07:54Z</time>
      </trkpt>
      <trkpt lat="45.60842" lon="3.52196">
        <ele>806</ele>
        <time>2019-12-19T02:08:00Z</time>
      </trkpt>
      <trkpt lat="45.60685" lon="3.52068">
        <ele>794</ele>
        <time>2019-12-19T02:08:33Z</time>
      </trkpt>
      <trkpt lat="45.60656" lon="3.52038">
        <ele>793</ele>
        <time>2019-12-19T02:08:39Z</time>
      </trkpt>
      <trkpt lat="45.60624" lon="3.51947">
        <ele>792</ele>
        <time>2019-12-19T02:08:52Z</time>
      </trkpt>
      <trkpt lat="45.60606" lon="3.51918">
        <ele>790</ele>
        <time>2019-12-19T02:08:56Z</time>
      </trkpt>
      <trkpt lat="45.60502" lon="3.51821">
        <ele>784</ele>
        <time>2019-12-19T02:09:19Z</time>
      </trkpt>
      <trkpt lat="45.60486" lon="3.51789">
        <ele>781</ele>
        <time>2019-12-19T02:09:23Z</time>
      </trkpt>
      <trkpt lat="45.60475" lon="3.51748">
        <ele>779</ele>
        <time>2019-12-19T02:09:29Z</time>
      </trkpt>
      <trkpt lat="45.60476" lon="3.51718">
        <ele>776</ele>
        <time>2019-12-19T02:09:33Z</time>
      </trkpt>
      <trkpt lat="45.60485" lon="3.51688">
        <ele>774</ele>
        <time>2019-12-19T02:09:37Z</time>
      </trkpt>
      <trkpt lat="45.60505" lon="3.5165">
        <ele>772</ele>
        <time>2019-12-19T02:09:43Z</time>
      </trkpt>
      <trkpt lat="45.60556" lon="3.51578">
        <ele>769</ele>
        <time>2019-12-19T02:09:55Z</time>
      </trkpt>
      <trkpt lat="45.60586" lon="3.51546">
        <ele>768</ele>
        <time>2019-12-19T02:10:02Z</time>
      </trkpt>
      <trkpt lat="45.60617" lon="3.51525">
        <ele>769</ele>
        <time>2019-12-19T02:10:08Z</time>
      </trkpt>
      <trkpt lat="45.60669" lon="3.51491">
        <ele>771</ele>
        <time>2019-12-19T02:10:18Z</time>
      </trkpt>
      <trkpt lat="45.60687" lon="3.51475">
        <ele>773</ele>
        <time>2019-12-19T02:10:22Z</time>
      </trkpt>
      <trkpt lat="45.60703" lon="3.51445">
        <ele>773</ele>
        <time>2019-12-19T02:10:27Z</time>
      </trkpt>
      <trkpt lat="45.60723" lon="3.51318">
        <ele>761</ele>
        <time>2019-12-19T02:10:43Z</time>
      </trkpt>
      <trkpt lat="45.60737" lon="3.51282">
        <ele>760</ele>
        <time>2019-12-19T02:10:48Z</time>
      </trkpt>
      <trkpt lat="45.60758" lon="3.51249">
        <ele>761</ele>
        <time>2019-12-19T02:10:54Z</time>
      </trkpt>
      <trkpt lat="45.60806" lon="3.51217">
        <ele>767</ele>
        <time>2019-12-19T02:11:03Z</time>
      </trkpt>
      <trkpt lat="45.60823" lon="3.51199">
        <ele>767</ele>
        <time>2019-12-19T02:11:07Z</time>
      </trkpt>
      <trkpt lat="45.60848" lon="3.51162">
        <ele>766</ele>
        <time>2019-12-19T02:11:13Z</time>
      </trkpt>
      <trkpt lat="45.6085" lon="3.51137">
        <ele>766</ele>
        <time>2019-12-19T02:11:16Z</time>
      </trkpt>
      <trkpt lat="45.60844" lon="3.51115">
        <ele>767</ele>
        <time>2019-12-19T02:11:19Z</time>
      </trkpt>
      <trkpt lat="45.60828" lon="3.51102">
        <ele>766</ele>
        <time>2019-12-19T02:11:23Z</time>
      </trkpt>
      <trkpt lat="45.60805" lon="3.51092">
        <ele>765</ele>
        <time>2019-12-19T02:11:27Z</time>
      </trkpt>
      <trkpt lat="45.60759" lon="3.51101">
        <ele>760</ele>
        <time>2019-12-19T02:11:35Z</time>
      </trkpt>
      <trkpt lat="45.60713" lon="3.51125">
        <ele>760</ele>
        <time>2019-12-19T02:11:44Z</time>
      </trkpt>
      <trkpt lat="45.6066" lon="3.51169">
        <ele>755</ele>
        <time>2019-12-19T02:11:55Z</time>
      </trkpt>
      <trkpt lat="45.60633" lon="3.51187">
        <ele>753</ele>
        <time>2019-12-19T02:12:00Z</time>
      </trkpt>
      <trkpt lat="45.60579" lon="3.51218">
        <ele>750</ele>
        <time>2019-12-19T02:12:10Z</time>
      </trkpt>
      <trkpt lat="45.60556" lon="3.51233">
        <ele>746</ele>
        <time>2019-12-19T02:12:15Z</time>
      </trkpt>
      <trkpt lat="45.60515" lon="3.51267">
        <ele>739</ele>
        <time>2019-12-19T02:12:23Z</time>
      </trkpt>
      <trkpt lat="45.60499" lon="3.51275">
        <ele>738</ele>
        <time>2019-12-19T02:12:26Z</time>
      </trkpt>
      <trkpt lat="45.60481" lon="3.51275">
        <ele>736</ele>
        <time>2019-12-19T02:12:30Z</time>
      </trkpt>
      <trkpt lat="45.60458" lon="3.51266">
        <ele>733</ele>
        <time>2019-12-19T02:12:34Z</time>
      </trkpt>
      <trkpt lat="45.60436" lon="3.51244">
        <ele>730</ele>
        <time>2019-12-19T02:12:39Z</time>
      </trkpt>
      <trkpt lat="45.60414" lon="3.51217">
        <ele>728</ele>
        <time>2019-12-19T02:12:44Z</time>
      </trkpt>
      <trkpt lat="45.60399" lon="3.51186">
        <ele>726</ele>
        <time>2019-12-19T02:12:48Z</time>
      </trkpt>
      <trkpt lat="45.60385" lon="3.51148">
        <ele>725</ele>
        <time>2019-12-19T02:12:54Z</time>
      </trkpt>
      <trkpt lat="45.60379" lon="3.51122">
        <ele>724</ele>
        <time>2019-12-19T02:12:57Z</time>
      </trkpt>
      <trkpt lat="45.60372" lon="3.51045">
        <ele>725</ele>
        <time>2019-12-19T02:13:07Z</time>
      </trkpt>
      <trkpt lat="45.60366" lon="3.51027">
        <ele>723</ele>
        <time>2019-12-19T02:13:09Z</time>
      </trkpt>
      <trkpt lat="45.60358" lon="3.51008">
        <ele>720</ele>
        <time>2019-12-19T02:13:12Z</time>
      </trkpt>
      <trkpt lat="45.60351" lon="3.50988">
        <ele>717</ele>
        <time>2019-12-19T02:13:15Z</time>
      </trkpt>
      <trkpt lat="45.60349" lon="3.50972">
        <ele>716</ele>
        <time>2019-12-19T02:13:17Z</time>
      </trkpt>
      <trkpt lat="45.6035" lon="3.50955">
        <ele>715</ele>
        <time>2019-12-19T02:13:19Z</time>
      </trkpt>
      <trkpt lat="45.60357" lon="3.50928">
        <ele>716</ele>
        <time>2019-12-19T02:13:23Z</time>
      </trkpt>
      <trkpt lat="45.60363" lon="3.50911">
        <ele>716</ele>
        <time>2019-12-19T02:13:25Z</time>
      </trkpt>
      <trkpt lat="45.60379" lon="3.50878">
        <ele>715</ele>
        <time>2019-12-19T02:13:30Z</time>
      </trkpt>
      <trkpt lat="45.60395" lon="3.50856">
        <ele>713</ele>
        <time>2019-12-19T02:13:34Z</time>
      </trkpt>
      <trkpt lat="45.60407" lon="3.50845">
        <ele>713</ele>
        <time>2019-12-19T02:13:37Z</time>
      </trkpt>
      <trkpt lat="45.60448" lon="3.50825">
        <ele>714</ele>
        <time>2019-12-19T02:13:44Z</time>
      </trkpt>
      <trkpt lat="45.60477" lon="3.50806">
        <ele>714</ele>
        <time>2019-12-19T02:13:50Z</time>
      </trkpt>
      <trkpt lat="45.60497" lon="3.50791">
        <ele>714</ele>
        <time>2019-12-19T02:13:54Z</time>
      </trkpt>
      <trkpt lat="45.60511" lon="3.50774">
        <ele>714</ele>
        <time>2019-12-19T02:13:57Z</time>
      </trkpt>
      <trkpt lat="45.60517" lon="3.5076">
        <ele>713</ele>
        <time>2019-12-19T02:13:59Z</time>
      </trkpt>
      <trkpt lat="45.60521" lon="3.50746">
        <ele>713</ele>
        <time>2019-12-19T02:14:01Z</time>
      </trkpt>
      <trkpt lat="45.60522" lon="3.50734">
        <ele>712</ele>
        <time>2019-12-19T02:14:03Z</time>
      </trkpt>
      <trkpt lat="45.60521" lon="3.50692">
        <ele>709</ele>
        <time>2019-12-19T02:14:08Z</time>
      </trkpt>
      <trkpt lat="45.60525" lon="3.50674">
        <ele>709</ele>
        <time>2019-12-19T02:14:10Z</time>
      </trkpt>
      <trkpt lat="45.60531" lon="3.50659">
        <ele>709</ele>
        <time>2019-12-19T02:14:12Z</time>
      </trkpt>
      <trkpt lat="45.60539" lon="3.50646">
        <ele>708</ele>
        <time>2019-12-19T02:14:14Z</time>
      </trkpt>
      <trkpt lat="45.60549" lon="3.50635">
        <ele>708</ele>
        <time>2019-12-19T02:14:17Z</time>
      </trkpt>
      <trkpt lat="45.60579" lon="3.50608">
        <ele>707</ele>
        <time>2019-12-19T02:14:23Z</time>
      </trkpt>
      <trkpt lat="45.60608" lon="3.50568">
        <ele>706</ele>
        <time>2019-12-19T02:14:30Z</time>
      </trkpt>
      <trkpt lat="45.60662" lon="3.50472">
        <ele>702</ele>
        <time>2019-12-19T02:14:46Z</time>
      </trkpt>
      <trkpt lat="45.60697" lon="3.504">
        <ele>702</ele>
        <time>2019-12-19T02:14:56Z</time>
      </trkpt>
      <trkpt lat="45.60699" lon="3.50372">
        <ele>701</ele>
        <time>2019-12-19T02:15:00Z</time>
      </trkpt>
      <trkpt lat="45.60692" lon="3.50346">
        <ele>697</ele>
        <time>2019-12-19T02:15:03Z</time>
      </trkpt>
      <trkpt lat="45.60679" lon="3.5031">
        <ele>694</ele>
        <time>2019-12-19T02:15:08Z</time>
      </trkpt>
      <trkpt lat="45.60641" lon="3.5022">
        <ele>698</ele>
        <time>2019-12-19T02:15:22Z</time>
      </trkpt>
      <trkpt lat="45.60615" lon="3.50174">
        <ele>702</ele>
        <time>2019-12-19T02:15:29Z</time>
      </trkpt>
      <trkpt lat="45.60611" lon="3.50143">
        <ele>701</ele>
        <time>2019-12-19T02:15:33Z</time>
      </trkpt>
      <trkpt lat="45.60629" lon="3.50083">
        <ele>692</ele>
        <time>2019-12-19T02:15:41Z</time>
      </trkpt>
      <trkpt lat="45.60631" lon="3.50058">
        <ele>688</ele>
        <time>2019-12-19T02:15:44Z</time>
      </trkpt>
      <trkpt lat="45.6062" lon="3.50036">
        <ele>688</ele>
        <time>2019-12-19T02:15:47Z</time>
      </trkpt>
      <trkpt lat="45.60559" lon="3.49996">
        <ele>694</ele>
        <time>2019-12-19T02:15:59Z</time>
      </trkpt>
      <trkpt lat="45.60456" lon="3.49943">
        <ele>707</ele>
        <time>2019-12-19T02:16:19Z</time>
      </trkpt>
      <trkpt lat="45.60447" lon="3.49912">
        <ele>706</ele>
        <time>2019-12-19T02:16:23Z</time>
      </trkpt>
      <trkpt lat="45.6045" lon="3.4989">
        <ele>707</ele>
        <time>2019-12-19T02:16:26Z</time>
      </trkpt>
      <trkpt lat="45.60458" lon="3.49873">
        <ele>706</ele>
        <time>2019-12-19T02:16:28Z</time>
      </trkpt>
      <trkpt lat="45.60503" lon="3.49848">
        <ele>697</ele>
        <time>2019-12-19T02:16:37Z</time>
      </trkpt>
      <trkpt lat="45.60527" lon="3.4982">
        <ele>693</ele>
        <time>2019-12-19T02:16:43Z</time>
      </trkpt>
      <trkpt lat="45.60547" lon="3.49761">
        <ele>693</ele>
        <time>2019-12-19T02:16:51Z</time>
      </trkpt>
      <trkpt lat="45.60548" lon="3.49725">
        <ele>692</ele>
        <time>2019-12-19T02:16:55Z</time>
      </trkpt>
      <trkpt lat="45.60542" lon="3.49708">
        <ele>692</ele>
        <time>2019-12-19T02:16:58Z</time>
      </trkpt>
      <trkpt lat="45.60527" lon="3.49693">
        <ele>693</ele>
        <time>2019-12-19T02:17:01Z</time>
      </trkpt>
      <trkpt lat="45.60493" lon="3.4968">
        <ele>698</ele>
        <time>2019-12-19T02:17:07Z</time>
      </trkpt>
      <trkpt lat="45.6034" lon="3.49661">
        <ele>711</ele>
        <time>2019-12-19T02:17:34Z</time>
      </trkpt>
      <trkpt lat="45.60326" lon="3.49655">
        <ele>713</ele>
        <time>2019-12-19T02:17:37Z</time>
      </trkpt>
      <trkpt lat="45.60319" lon="3.49641">
        <ele>713</ele>
        <time>2019-12-19T02:17:39Z</time>
      </trkpt>
      <trkpt lat="45.60316" lon="3.49606">
        <ele>711</ele>
        <time>2019-12-19T02:17:44Z</time>
      </trkpt>
      <trkpt lat="45.60318" lon="3.49581">
        <ele>710</ele>
        <time>2019-12-19T02:17:47Z</time>
      </trkpt>
      <trkpt lat="45.60326" lon="3.49565">
        <ele>711</ele>
        <time>2019-12-19T02:17:49Z</time>
      </trkpt>
      <trkpt lat="45.60437" lon="3.49494">
        <ele>699</ele>
        <time>2019-12-19T02:18:11Z</time>
      </trkpt>
      <trkpt lat="45.60462" lon="3.49449">
        <ele>698</ele>
        <time>2019-12-19T02:18:18Z</time>
      </trkpt>
      <trkpt lat="45.60501" lon="3.4937">
        <ele>696</ele>
        <time>2019-12-19T02:18:30Z</time>
      </trkpt>
      <trkpt lat="45.60537" lon="3.49272">
        <ele>696</ele>
        <time>2019-12-19T02:18:44Z</time>
      </trkpt>
      <trkpt lat="45.60539" lon="3.49237">
        <ele>697</ele>
        <time>2019-12-19T02:18:48Z</time>
      </trkpt>
      <trkpt lat="45.60498" lon="3.49083">
        <ele>700</ele>
        <time>2019-12-19T02:19:09Z</time>
      </trkpt>
      <trkpt lat="45.605" lon="3.49017">
        <ele>705</ele>
        <time>2019-12-19T02:19:17Z</time>
      </trkpt>
      <trkpt lat="45.60526" lon="3.48949">
        <ele>704</ele>
        <time>2019-12-19T02:19:26Z</time>
      </trkpt>
      <trkpt lat="45.60574" lon="3.48719">
        <ele>705</ele>
        <time>2019-12-19T02:19:56Z</time>
      </trkpt>
      <trkpt lat="45.60569" lon="3.48677">
        <ele>706</ele>
        <time>2019-12-19T02:20:02Z</time>
      </trkpt>
      <trkpt lat="45.60555" lon="3.48634">
        <ele>709</ele>
        <time>2019-12-19T02:20:08Z</time>
      </trkpt>
      <trkpt lat="45.60544" lon="3.48591">
        <ele>710</ele>
        <time>2019-12-19T02:20:13Z</time>
      </trkpt>
      <trkpt lat="45.60545" lon="3.48561">
        <ele>711</ele>
        <time>2019-12-19T02:20:17Z</time>
      </trkpt>
      <trkpt lat="45.60566" lon="3.48488">
        <ele>713</ele>
        <time>2019-12-19T02:20:27Z</time>
      </trkpt>
      <trkpt lat="45.60582" lon="3.48415">
        <ele>712</ele>
        <time>2019-12-19T02:20:36Z</time>
      </trkpt>
      <trkpt lat="45.60592" lon="3.48238">
        <ele>711</ele>
        <time>2019-12-19T02:20:58Z</time>
      </trkpt>
      <trkpt lat="45.606" lon="3.48116">
        <ele>709</ele>
        <time>2019-12-19T02:21:14Z</time>
      </trkpt>
      <trkpt lat="45.6062" lon="3.48016">
        <ele>706</ele>
        <time>2019-12-19T02:21:27Z</time>
      </trkpt>
      <trkpt lat="45.60729" lon="3.4752">
        <ele>704</ele>
        <time>2019-12-19T02:22:31Z</time>
      </trkpt>
      <trkpt lat="45.60741" lon="3.47486">
        <ele>703</ele>
        <time>2019-12-19T02:22:36Z</time>
      </trkpt>
      <trkpt lat="45.60757" lon="3.47456">
        <ele>703</ele>
        <time>2019-12-19T02:22:41Z</time>
      </trkpt>
      <trkpt lat="45.60776" lon="3.47431">
        <ele>704</ele>
        <time>2019-12-19T02:22:45Z</time>
      </trkpt>
      <trkpt lat="45.60804" lon="3.47408">
        <ele>704</ele>
        <time>2019-12-19T02:22:51Z</time>
      </trkpt>
      <trkpt lat="45.6107" lon="3.47272">
        <ele>700</ele>
        <time>2019-12-19T02:23:41Z</time>
      </trkpt>
      <trkpt lat="45.61087" lon="3.4726">
        <ele>700</ele>
        <time>2019-12-19T02:23:45Z</time>
      </trkpt>
      <trkpt lat="45.611" lon="3.4724">
        <ele>700</ele>
        <time>2019-12-19T02:23:48Z</time>
      </trkpt>
      <trkpt lat="45.61106" lon="3.47217">
        <ele>700</ele>
        <time>2019-12-19T02:23:51Z</time>
      </trkpt>
      <trkpt lat="45.61107" lon="3.47184">
        <ele>700</ele>
        <time>2019-12-19T02:23:55Z</time>
      </trkpt>
      <trkpt lat="45.61101" lon="3.47155">
        <ele>699</ele>
        <time>2019-12-19T02:23:59Z</time>
      </trkpt>
      <trkpt lat="45.61064" lon="3.47041">
        <ele>695</ele>
        <time>2019-12-19T02:24:15Z</time>
      </trkpt>
      <trkpt lat="45.6106" lon="3.47011">
        <ele>695</ele>
        <time>2019-12-19T02:24:19Z</time>
      </trkpt>
      <trkpt lat="45.6106" lon="3.46991">
        <ele>694</ele>
        <time>2019-12-19T02:24:21Z</time>
      </trkpt>
      <trkpt lat="45.61083" lon="3.46876">
        <ele>688</ele>
        <time>2019-12-19T02:24:36Z</time>
      </trkpt>
      <trkpt lat="45.61095" lon="3.46832">
        <ele>686</ele>
        <time>2019-12-19T02:24:42Z</time>
      </trkpt>
      <trkpt lat="45.61112" lon="3.46802">
        <ele>686</ele>
        <time>2019-12-19T02:24:47Z</time>
      </trkpt>
      <trkpt lat="45.61131" lon="3.46783">
        <ele>684</ele>
        <time>2019-12-19T02:24:51Z</time>
      </trkpt>
      <trkpt lat="45.6115" lon="3.46771">
        <ele>683</ele>
        <time>2019-12-19T02:24:54Z</time>
      </trkpt>
      <trkpt lat="45.61172" lon="3.46763">
        <ele>682</ele>
        <time>2019-12-19T02:24:58Z</time>
      </trkpt>
      <trkpt lat="45.61212" lon="3.46758">
        <ele>679</ele>
        <time>2019-12-19T02:25:06Z</time>
      </trkpt>
      <trkpt lat="45.61229" lon="3.46749">
        <ele>678</ele>
        <time>2019-12-19T02:25:09Z</time>
      </trkpt>
      <trkpt lat="45.61245" lon="3.4673">
        <ele>677</ele>
        <time>2019-12-19T02:25:13Z</time>
      </trkpt>
      <trkpt lat="45.61263" lon="3.4668">
        <ele>676</ele>
        <time>2019-12-19T02:25:20Z</time>
      </trkpt>
      <trkpt lat="45.61278" lon="3.46656">
        <ele>675</ele>
        <time>2019-12-19T02:25:24Z</time>
      </trkpt>
      <trkpt lat="45.61326" lon="3.46597">
        <ele>673</ele>
        <time>2019-12-19T02:25:35Z</time>
      </trkpt>
      <trkpt lat="45.6141" lon="3.46504">
        <ele>669</ele>
        <time>2019-12-19T02:25:54Z</time>
      </trkpt>
      <trkpt lat="45.61447" lon="3.4647">
        <ele>667</ele>
        <time>2019-12-19T02:26:02Z</time>
      </trkpt>
      <trkpt lat="45.61491" lon="3.46436">
        <ele>664</ele>
        <time>2019-12-19T02:26:10Z</time>
      </trkpt>
      <trkpt lat="45.61536" lon="3.46412">
        <ele>663</ele>
        <time>2019-12-19T02:26:19Z</time>
      </trkpt>
      <trkpt lat="45.61628" lon="3.46369">
        <ele>663</ele>
        <time>2019-12-19T02:26:36Z</time>
      </trkpt>
      <trkpt lat="45.61634" lon="3.46356">
        <ele>662</ele>
        <time>2019-12-19T02:26:38Z</time>
      </trkpt>
      <trkpt lat="45.61634" lon="3.46337">
        <ele>660</ele>
        <time>2019-12-19T02:26:40Z</time>
      </trkpt>
      <trkpt lat="45.61627" lon="3.46321">
        <ele>657</ele>
        <time>2019-12-19T02:26:43Z</time>
      </trkpt>
      <trkpt lat="45.61613" lon="3.46307">
        <ele>653</ele>
        <time>2019-12-19T02:26:46Z</time>
      </trkpt>
      <trkpt lat="45.616" lon="3.463">
        <ele>651</ele>
        <time>2019-12-19T02:26:48Z</time>
      </trkpt>
      <trkpt lat="45.61523" lon="3.46287">
        <ele>650</ele>
        <time>2019-12-19T02:27:02Z</time>
      </trkpt>
      <trkpt lat="45.61408" lon="3.46243">
        <ele>651</ele>
        <time>2019-12-19T02:27:23Z</time>
      </trkpt>
      <trkpt lat="45.61359" lon="3.46227">
        <ele>648</ele>
        <time>2019-12-19T02:27:32Z</time>
      </trkpt>
      <trkpt lat="45.61333" lon="3.46226">
        <ele>646</ele>
        <time>2019-12-19T02:27:37Z</time>
      </trkpt>
      <trkpt lat="45.61307" lon="3.46229">
        <ele>643</ele>
        <time>2019-12-19T02:27:42Z</time>
      </trkpt>
      <trkpt lat="45.61252" lon="3.46245">
        <ele>640</ele>
        <time>2019-12-19T02:27:52Z</time>
      </trkpt>
      <trkpt lat="45.61228" lon="3.46244">
        <ele>639</ele>
        <time>2019-12-19T02:27:56Z</time>
      </trkpt>
      <trkpt lat="45.61203" lon="3.46238">
        <ele>638</ele>
        <time>2019-12-19T02:28:00Z</time>
      </trkpt>
      <trkpt lat="45.61134" lon="3.46176">
        <ele>634</ele>
        <time>2019-12-19T02:28:15Z</time>
      </trkpt>
      <trkpt lat="45.61117" lon="3.46163">
        <ele>635</ele>
        <time>2019-12-19T02:28:18Z</time>
      </trkpt>
      <trkpt lat="45.61101" lon="3.46155">
        <ele>636</ele>
        <time>2019-12-19T02:28:21Z</time>
      </trkpt>
      <trkpt lat="45.61066" lon="3.46146">
        <ele>636</ele>
        <time>2019-12-19T02:28:28Z</time>
      </trkpt>
      <trkpt lat="45.61044" lon="3.46145">
        <ele>635</ele>
        <time>2019-12-19T02:28:31Z</time>
      </trkpt>
      <trkpt lat="45.6099" lon="3.46157">
        <ele>633</ele>
        <time>2019-12-19T02:28:41Z</time>
      </trkpt>
      <trkpt lat="45.60977" lon="3.46155">
        <ele>633</ele>
        <time>2019-12-19T02:28:44Z</time>
      </trkpt>
      <trkpt lat="45.60921" lon="3.46125">
        <ele>628</ele>
        <time>2019-12-19T02:28:54Z</time>
      </trkpt>
      <trkpt lat="45.60872" lon="3.46107">
        <ele>627</ele>
        <time>2019-12-19T02:29:03Z</time>
      </trkpt>
      <trkpt lat="45.60853" lon="3.46095">
        <ele>626</ele>
        <time>2019-12-19T02:29:07Z</time>
      </trkpt>
      <trkpt lat="45.60843" lon="3.46087">
        <ele>625</ele>
        <time>2019-12-19T02:29:09Z</time>
      </trkpt>
      <trkpt lat="45.60827" lon="3.46067">
        <ele>625</ele>
        <time>2019-12-19T02:29:13Z</time>
      </trkpt>
      <trkpt lat="45.60793" lon="3.45997">
        <ele>622</ele>
        <time>2019-12-19T02:29:23Z</time>
      </trkpt>
      <trkpt lat="45.60781" lon="3.4598">
        <ele>625</ele>
        <time>2019-12-19T02:29:26Z</time>
      </trkpt>
      <trkpt lat="45.60766" lon="3.45969">
        <ele>627</ele>
        <time>2019-12-19T02:29:29Z</time>
      </trkpt>
      <trkpt lat="45.60689" lon="3.45947">
        <ele>621</ele>
        <time>2019-12-19T02:29:43Z</time>
      </trkpt>
      <trkpt lat="45.60661" lon="3.45932">
        <ele>619</ele>
        <time>2019-12-19T02:29:49Z</time>
      </trkpt>
      <trkpt lat="45.60642" lon="3.4591">
        <ele>618</ele>
        <time>2019-12-19T02:29:53Z</time>
      </trkpt>
      <trkpt lat="45.60624" lon="3.45881">
        <ele>616</ele>
        <time>2019-12-19T02:29:58Z</time>
      </trkpt>
      <trkpt lat="45.60614" lon="3.45861">
        <ele>615</ele>
        <time>2019-12-19T02:30:01Z</time>
      </trkpt>
      <trkpt lat="45.60601" lon="3.4583">
        <ele>613</ele>
        <time>2019-12-19T02:30:05Z</time>
      </trkpt>
      <trkpt lat="45.60591" lon="3.45798">
        <ele>612</ele>
        <time>2019-12-19T02:30:10Z</time>
      </trkpt>
      <trkpt lat="45.60573" lon="3.45757">
        <ele>611</ele>
        <time>2019-12-19T02:30:16Z</time>
      </trkpt>
      <trkpt lat="45.60542" lon="3.45702">
        <ele>606</ele>
        <time>2019-12-19T02:30:25Z</time>
      </trkpt>
      <trkpt lat="45.60513" lon="3.45635">
        <ele>602</ele>
        <time>2019-12-19T02:30:34Z</time>
      </trkpt>
      <trkpt lat="45.60474" lon="3.45565">
        <ele>598</ele>
        <time>2019-12-19T02:30:45Z</time>
      </trkpt>
      <trkpt lat="45.60464" lon="3.45539">
        <ele>598</ele>
        <time>2019-12-19T02:30:49Z</time>
      </trkpt>
      <trkpt lat="45.60457" lon="3.45515">
        <ele>598</ele>
        <time>2019-12-19T02:30:52Z</time>
      </trkpt>
      <trkpt lat="45.6045" lon="3.45475">
        <ele>597</ele>
        <time>2019-12-19T02:30:58Z</time>
      </trkpt>
      <trkpt lat="45.6043" lon="3.4529">
        <ele>587</ele>
        <time>2019-12-19T02:31:21Z</time>
      </trkpt>
      <trkpt lat="45.60428" lon="3.4525">
        <ele>585</ele>
        <time>2019-12-19T02:31:26Z</time>
      </trkpt>
      <trkpt lat="45.60428" lon="3.45223">
        <ele>584</ele>
        <time>2019-12-19T02:31:29Z</time>
      </trkpt>
      <trkpt lat="45.6043" lon="3.45197">
        <ele>583</ele>
        <time>2019-12-19T02:31:32Z</time>
      </trkpt>
      <trkpt lat="45.60441" lon="3.45161">
        <ele>582</ele>
        <time>2019-12-19T02:31:37Z</time>
      </trkpt>
      <trkpt lat="45.60449" lon="3.45147">
        <ele>582</ele>
        <time>2019-12-19T02:31:40Z</time>
      </trkpt>
      <trkpt lat="45.6046" lon="3.45137">
        <ele>582</ele>
        <time>2019-12-19T02:31:42Z</time>
      </trkpt>
      <trkpt lat="45.60471" lon="3.4513">
        <ele>582</ele>
        <time>2019-12-19T02:31:44Z</time>
      </trkpt>
      <trkpt lat="45.60485" lon="3.45125">
        <ele>583</ele>
        <time>2019-12-19T02:31:47Z</time>
      </trkpt>
      <trkpt lat="45.60524" lon="3.45116">
        <ele>584</ele>
        <time>2019-12-19T02:31:54Z</time>
      </trkpt>
      <trkpt lat="45.60539" lon="3.45106">
        <ele>584</ele>
        <time>2019-12-19T02:31:57Z</time>
      </trkpt>
      <trkpt lat="45.60551" lon="3.45092">
        <ele>583</ele>
        <time>2019-12-19T02:31:59Z</time>
      </trkpt>
      <trkpt lat="45.60625" lon="3.44983">
        <ele>581</ele>
        <time>2019-12-19T02:32:18Z</time>
      </trkpt>
      <trkpt lat="45.60635" lon="3.44966">
        <ele>581</ele>
        <time>2019-12-19T02:32:21Z</time>
      </trkpt>
      <trkpt lat="45.60673" lon="3.44892">
        <ele>577</ele>
        <time>2019-12-19T02:32:32Z</time>
      </trkpt>
      <trkpt lat="45.60687" lon="3.44871">
        <ele>578</ele>
        <time>2019-12-19T02:32:36Z</time>
      </trkpt>
      <trkpt lat="45.60703" lon="3.44854">
        <ele>579</ele>
        <time>2019-12-19T02:32:40Z</time>
      </trkpt>
      <trkpt lat="45.60753" lon="3.44816">
        <ele>580</ele>
        <time>2019-12-19T02:32:50Z</time>
      </trkpt>
      <trkpt lat="45.60768" lon="3.44801">
        <ele>579</ele>
        <time>2019-12-19T02:32:53Z</time>
      </trkpt>
      <trkpt lat="45.60779" lon="3.44786">
        <ele>577</ele>
        <time>2019-12-19T02:32:56Z</time>
      </trkpt>
      <trkpt lat="45.60792" lon="3.44761">
        <ele>574</ele>
        <time>2019-12-19T02:33:00Z</time>
      </trkpt>
      <trkpt lat="45.60811" lon="3.44702">
        <ele>569</ele>
        <time>2019-12-19T02:33:08Z</time>
      </trkpt>
      <trkpt lat="45.6082" lon="3.44684">
        <ele>568</ele>
        <time>2019-12-19T02:33:10Z</time>
      </trkpt>
      <trkpt lat="45.60837" lon="3.44662">
        <ele>568</ele>
        <time>2019-12-19T02:33:14Z</time>
      </trkpt>
      <trkpt lat="45.60868" lon="3.44629">
        <ele>573</ele>
        <time>2019-12-19T02:33:21Z</time>
      </trkpt>
      <trkpt lat="45.6088" lon="3.44608">
        <ele>574</ele>
        <time>2019-12-19T02:33:25Z</time>
      </trkpt>
      <trkpt lat="45.60888" lon="3.44589">
        <ele>575</ele>
        <time>2019-12-19T02:33:27Z</time>
      </trkpt>
      <trkpt lat="45.609" lon="3.44545">
        <ele>574</ele>
        <time>2019-12-19T02:33:33Z</time>
      </trkpt>
      <trkpt lat="45.60916" lon="3.44497">
        <ele>572</ele>
        <time>2019-12-19T02:33:40Z</time>
      </trkpt>
      <trkpt lat="45.61016" lon="3.44309">
        <ele>568</ele>
        <time>2019-12-19T02:34:09Z</time>
      </trkpt>
      <trkpt lat="45.61022" lon="3.44298">
        <ele>569</ele>
        <time>2019-12-19T02:34:11Z</time>
      </trkpt>
      <trkpt lat="45.61027" lon="3.44287">
        <ele>569</ele>
        <time>2019-12-19T02:34:13Z</time>
      </trkpt>
      <trkpt lat="45.61039" lon="3.44257">
        <ele>571</ele>
        <time>2019-12-19T02:34:17Z</time>
      </trkpt>
      <trkpt lat="45.61049" lon="3.44219">
        <ele>571</ele>
        <time>2019-12-19T02:34:22Z</time>
      </trkpt>
      <trkpt lat="45.6107" lon="3.44125">
        <ele>568</ele>
        <time>2019-12-19T02:34:34Z</time>
      </trkpt>
      <trkpt lat="45.61078" lon="3.44079">
        <ele>565</ele>
        <time>2019-12-19T02:34:40Z</time>
      </trkpt>
      <trkpt lat="45.61079" lon="3.44064">
        <ele>565</ele>
        <time>2019-12-19T02:34:42Z</time>
      </trkpt>
      <trkpt lat="45.61078" lon="3.44039">
        <ele>566</ele>
        <time>2019-12-19T02:34:45Z</time>
      </trkpt>
      <trkpt lat="45.61076" lon="3.44027">
        <ele>566</ele>
        <time>2019-12-19T02:34:47Z</time>
      </trkpt>
      <trkpt lat="45.61062" lon="3.43988">
        <ele>566</ele>
        <time>2019-12-19T02:34:52Z</time>
      </trkpt>
      <trkpt lat="45.61059" lon="3.43971">
        <ele>565</ele>
        <time>2019-12-19T02:34:54Z</time>
      </trkpt>
      <trkpt lat="45.61057" lon="3.43877">
        <ele>565</ele>
        <time>2019-12-19T02:35:06Z</time>
      </trkpt>
      <trkpt lat="45.61049" lon="3.43781">
        <ele>565</ele>
        <time>2019-12-19T02:35:18Z</time>
      </trkpt>
      <trkpt lat="45.61032" lon="3.43672">
        <ele>557</ele>
        <time>2019-12-19T02:35:32Z</time>
      </trkpt>
      <trkpt lat="45.61022" lon="3.43645">
        <ele>556</ele>
        <time>2019-12-19T02:35:36Z</time>
      </trkpt>
      <trkpt lat="45.61018" lon="3.43637">
        <ele>555</ele>
        <time>2019-12-19T02:35:37Z</time>
      </trkpt>
      <trkpt lat="45.61012" lon="3.4363">
        <ele>555</ele>
        <time>2019-12-19T02:35:38Z</time>
      </trkpt>
      <trkpt lat="45.61004" lon="3.43622">
        <ele>554</ele>
        <time>2019-12-19T02:35:40Z</time>
      </trkpt>
      <trkpt lat="45.60934" lon="3.43568">
        <ele>555</ele>
        <time>2019-12-19T02:35:54Z</time>
      </trkpt>
      <trkpt lat="45.60919" lon="3.4356">
        <ele>555</ele>
        <time>2019-12-19T02:35:57Z</time>
      </trkpt>
      <trkpt lat="45.60897" lon="3.43557">
        <ele>555</ele>
        <time>2019-12-19T02:36:01Z</time>
      </trkpt>
      <trkpt lat="45.6086" lon="3.43563">
        <ele>552</ele>
        <time>2019-12-19T02:36:08Z</time>
      </trkpt>
      <trkpt lat="45.60786" lon="3.43557">
        <ele>548</ele>
        <time>2019-12-19T02:36:21Z</time>
      </trkpt>
      <trkpt lat="45.60751" lon="3.43546">
        <ele>546</ele>
        <time>2019-12-19T02:36:27Z</time>
      </trkpt>
      <trkpt lat="45.60736" lon="3.43537">
        <ele>546</ele>
        <time>2019-12-19T02:36:30Z</time>
      </trkpt>
      <trkpt lat="45.60722" lon="3.43528">
        <ele>546</ele>
        <time>2019-12-19T02:36:33Z</time>
      </trkpt>
      <trkpt lat="45.60687" lon="3.43506">
        <ele>546</ele>
        <time>2019-12-19T02:36:40Z</time>
      </trkpt>
      <trkpt lat="45.60648" lon="3.43489">
        <ele>547</ele>
        <time>2019-12-19T02:36:47Z</time>
      </trkpt>
      <trkpt lat="45.60487" lon="3.43451">
        <ele>543</ele>
        <time>2019-12-19T02:37:16Z</time>
      </trkpt>
      <trkpt lat="45.60461" lon="3.43439">
        <ele>541</ele>
        <time>2019-12-19T02:37:21Z</time>
      </trkpt>
      <trkpt lat="45.60277" lon="3.43304">
        <ele>537</ele>
        <time>2019-12-19T02:37:58Z</time>
      </trkpt>
      <trkpt lat="45.60105" lon="3.43164">
        <ele>534</ele>
        <time>2019-12-19T02:38:33Z</time>
      </trkpt>
      <trkpt lat="45.60077" lon="3.43127">
        <ele>534</ele>
        <time>2019-12-19T02:38:40Z</time>
      </trkpt>
      <trkpt lat="45.60055" lon="3.43086">
        <ele>534</ele>
        <time>2019-12-19T02:38:46Z</time>
      </trkpt>
      <trkpt lat="45.60047" lon="3.43069">
        <ele>533</ele>
        <time>2019-12-19T02:38:49Z</time>
      </trkpt>
      <trkpt lat="45.59993" lon="3.42903">
        <ele>527</ele>
        <time>2019-12-19T02:39:11Z</time>
      </trkpt>
      <trkpt lat="45.5998" lon="3.42876">
        <ele>529</ele>
        <time>2019-12-19T02:39:16Z</time>
      </trkpt>
      <trkpt lat="45.59957" lon="3.42836">
        <ele>530</ele>
        <time>2019-12-19T02:39:22Z</time>
      </trkpt>
      <trkpt lat="45.59935" lon="3.42809">
        <ele>530</ele>
        <time>2019-12-19T02:39:27Z</time>
      </trkpt>
      <trkpt lat="45.59915" lon="3.4279">
        <ele>531</ele>
        <time>2019-12-19T02:39:31Z</time>
      </trkpt>
      <trkpt lat="45.59854" lon="3.42743">
        <ele>526</ele>
        <time>2019-12-19T02:39:44Z</time>
      </trkpt>
      <trkpt lat="45.59835" lon="3.42725">
        <ele>522</ele>
        <time>2019-12-19T02:39:48Z</time>
      </trkpt>
      <trkpt lat="45.59827" lon="3.42712">
        <ele>523</ele>
        <time>2019-12-19T02:39:50Z</time>
      </trkpt>
      <trkpt lat="45.59824" lon="3.42698">
        <ele>523</ele>
        <time>2019-12-19T02:39:52Z</time>
      </trkpt>
      <trkpt lat="45.59825" lon="3.42685">
        <ele>523</ele>
        <time>2019-12-19T02:39:53Z</time>
      </trkpt>
      <trkpt lat="45.59829" lon="3.42673">
        <ele>521</ele>
        <time>2019-12-19T02:39:55Z</time>
      </trkpt>
      <trkpt lat="45.59839" lon="3.42659">
        <ele>519</ele>
        <time>2019-12-19T02:39:58Z</time>
      </trkpt>
      <trkpt lat="45.59872" lon="3.42632">
        <ele>521</ele>
        <time>2019-12-19T02:40:04Z</time>
      </trkpt>
      <trkpt lat="45.59889" lon="3.42614">
        <ele>521</ele>
        <time>2019-12-19T02:40:08Z</time>
      </trkpt>
      <trkpt lat="45.59901" lon="3.4259">
        <ele>519</ele>
        <time>2019-12-19T02:40:12Z</time>
      </trkpt>
      <trkpt lat="45.59909" lon="3.42569">
        <ele>519</ele>
        <time>2019-12-19T02:40:15Z</time>
      </trkpt>
      <trkpt lat="45.59914" lon="3.42542">
        <ele>520</ele>
        <time>2019-12-19T02:40:18Z</time>
      </trkpt>
      <trkpt lat="45.59915" lon="3.42527">
        <ele>521</ele>
        <time>2019-12-19T02:40:20Z</time>
      </trkpt>
      <trkpt lat="45.59914" lon="3.42518">
        <ele>522</ele>
        <time>2019-12-19T02:40:21Z</time>
      </trkpt>
      <trkpt lat="45.5991" lon="3.42504">
        <ele>522</ele>
        <time>2019-12-19T02:40:23Z</time>
      </trkpt>
      <trkpt lat="45.59903" lon="3.42491">
        <ele>524</ele>
        <time>2019-12-19T02:40:25Z</time>
      </trkpt>
      <trkpt lat="45.59886" lon="3.42481">
        <ele>524</ele>
        <time>2019-12-19T02:40:28Z</time>
      </trkpt>
      <trkpt lat="45.59872" lon="3.42468">
        <ele>525</ele>
        <time>2019-12-19T02:40:31Z</time>
      </trkpt>
      <trkpt lat="45.59855" lon="3.42448">
        <ele>525</ele>
        <time>2019-12-19T02:40:35Z</time>
      </trkpt>
      <trkpt lat="45.59824" lon="3.4242">
        <ele>525</ele>
        <time>2019-12-19T02:40:42Z</time>
      </trkpt>
      <trkpt lat="45.5981" lon="3.42396">
        <ele>527</ele>
        <time>2019-12-19T02:40:46Z</time>
      </trkpt>
      <trkpt lat="45.59807" lon="3.42386">
        <ele>527</ele>
        <time>2019-12-19T02:40:47Z</time>
      </trkpt>
      <trkpt lat="45.59806" lon="3.4237">
        <ele>527</ele>
        <time>2019-12-19T02:40:49Z</time>
      </trkpt>
      <trkpt lat="45.59808" lon="3.42353">
        <ele>525</ele>
        <time>2019-12-19T02:40:51Z</time>
      </trkpt>
      <trkpt lat="45.59813" lon="3.42341">
        <ele>524</ele>
        <time>2019-12-19T02:40:53Z</time>
      </trkpt>
      <trkpt lat="45.59845" lon="3.42278">
        <ele>514</ele>
        <time>2019-12-19T02:41:03Z</time>
      </trkpt>
      <trkpt lat="45.59856" lon="3.4225">
        <ele>513</ele>
        <time>2019-12-19T02:41:07Z</time>
      </trkpt>
      <trkpt lat="45.59866" lon="3.42215">
        <ele>514</ele>
        <time>2019-12-19T02:41:11Z</time>
      </trkpt>
      <trkpt lat="45.59871" lon="3.42179">
        <ele>513</ele>
        <time>2019-12-19T02:41:16Z</time>
      </trkpt>
      <trkpt lat="45.59873" lon="3.42142">
        <ele>514</ele>
        <time>2019-12-19T02:41:21Z</time>
      </trkpt>
      <trkpt lat="45.5987" lon="3.42117">
        <ele>515</ele>
        <time>2019-12-19T02:41:24Z</time>
      </trkpt>
      <trkpt lat="45.59865" lon="3.42102">
        <ele>516</ele>
        <time>2019-12-19T02:41:26Z</time>
      </trkpt>
      <trkpt lat="45.59853" lon="3.42081">
        <ele>516</ele>
        <time>2019-12-19T02:41:29Z</time>
      </trkpt>
      <trkpt lat="45.59834" lon="3.42066">
        <ele>517</ele>
        <time>2019-12-19T02:41:33Z</time>
      </trkpt>
      <trkpt lat="45.59768" lon="3.42036">
        <ele>518</ele>
        <time>2019-12-19T02:41:45Z</time>
      </trkpt>
      <trkpt lat="45.59736" lon="3.42017">
        <ele>516</ele>
        <time>2019-12-19T02:41:52Z</time>
      </trkpt>
      <trkpt lat="45.59704" lon="3.41987">
        <ele>514</ele>
        <time>2019-12-19T02:41:58Z</time>
      </trkpt>
      <trkpt lat="45.59686" lon="3.41975">
        <ele>512</ele>
        <time>2019-12-19T02:42:02Z</time>
      </trkpt>
      <trkpt lat="45.59674" lon="3.4197">
        <ele>511</ele>
        <time>2019-12-19T02:42:04Z</time>
      </trkpt>
      <trkpt lat="45.59641" lon="3.41969">
        <ele>512</ele>
        <time>2019-12-19T02:42:10Z</time>
      </trkpt>
      <trkpt lat="45.59631" lon="3.41966">
        <ele>512</ele>
        <time>2019-12-19T02:42:12Z</time>
      </trkpt>
      <trkpt lat="45.59623" lon="3.41959">
        <ele>512</ele>
        <time>2019-12-19T02:42:13Z</time>
      </trkpt>
      <trkpt lat="45.59615" lon="3.41945">
        <ele>512</ele>
        <time>2019-12-19T02:42:16Z</time>
      </trkpt>
      <trkpt lat="45.59615" lon="3.41922">
        <ele>510</ele>
        <time>2019-12-19T02:42:19Z</time>
      </trkpt>
      <trkpt lat="45.59626" lon="3.41809">
        <ele>505</ele>
        <time>2019-12-19T02:42:33Z</time>
      </trkpt>
      <trkpt lat="45.59637" lon="3.41676">
        <ele>515</ele>
        <time>2019-12-19T02:42:49Z</time>
      </trkpt>
      <trkpt lat="45.59642" lon="3.41635">
        <ele>518</ele>
        <time>2019-12-19T02:42:55Z</time>
      </trkpt>
      <trkpt lat="45.59654" lon="3.41609">
        <ele>517</ele>
        <time>2019-12-19T02:42:58Z</time>
      </trkpt>
      <trkpt lat="45.59671" lon="3.41586">
        <ele>514</ele>
        <time>2019-12-19T02:43:03Z</time>
      </trkpt>
      <trkpt lat="45.59728" lon="3.41539">
        <ele>517</ele>
        <time>2019-12-19T02:43:14Z</time>
      </trkpt>
      <trkpt lat="45.59756" lon="3.41505">
        <ele>510</ele>
        <time>2019-12-19T02:43:21Z</time>
      </trkpt>
      <trkpt lat="45.59774" lon="3.41471">
        <ele>511</ele>
        <time>2019-12-19T02:43:26Z</time>
      </trkpt>
      <trkpt lat="45.59792" lon="3.41427">
        <ele>513</ele>
        <time>2019-12-19T02:43:33Z</time>
      </trkpt>
      <trkpt lat="45.59803" lon="3.41394">
        <ele>511</ele>
        <time>2019-12-19T02:43:37Z</time>
      </trkpt>
      <trkpt lat="45.59806" lon="3.41368">
        <ele>509</ele>
        <time>2019-12-19T02:43:40Z</time>
      </trkpt>
      <trkpt lat="45.59804" lon="3.41341">
        <ele>507</ele>
        <time>2019-12-19T02:43:44Z</time>
      </trkpt>
      <trkpt lat="45.59798" lon="3.41319">
        <ele>504</ele>
        <time>2019-12-19T02:43:47Z</time>
      </trkpt>
      <trkpt lat="45.5979" lon="3.41302">
        <ele>502</ele>
        <time>2019-12-19T02:43:49Z</time>
      </trkpt>
      <trkpt lat="45.59769" lon="3.4127">
        <ele>498</ele>
        <time>2019-12-19T02:43:55Z</time>
      </trkpt>
      <trkpt lat="45.59766" lon="3.4126">
        <ele>496</ele>
        <time>2019-12-19T02:43:56Z</time>
      </trkpt>
      <trkpt lat="45.59767" lon="3.41245">
        <ele>495</ele>
        <time>2019-12-19T02:43:58Z</time>
      </trkpt>
      <trkpt lat="45.59772" lon="3.41234">
        <ele>495</ele>
        <time>2019-12-19T02:44:00Z</time>
      </trkpt>
      <trkpt lat="45.5978" lon="3.41226">
        <ele>495</ele>
        <time>2019-12-19T02:44:01Z</time>
      </trkpt>
      <trkpt lat="45.59794" lon="3.41222">
        <ele>496</ele>
        <time>2019-12-19T02:44:04Z</time>
      </trkpt>
      <trkpt lat="45.59814" lon="3.41213">
        <ele>496</ele>
        <time>2019-12-19T02:44:08Z</time>
      </trkpt>
      <trkpt lat="45.6006" lon="3.40997">
        <ele>488</ele>
        <time>2019-12-19T02:44:59Z</time>
      </trkpt>
      <trkpt lat="45.60076" lon="3.40977">
        <ele>488</ele>
        <time>2019-12-19T02:45:03Z</time>
      </trkpt>
      <trkpt lat="45.60089" lon="3.40956">
        <ele>488</ele>
        <time>2019-12-19T02:45:06Z</time>
      </trkpt>
      <trkpt lat="45.601" lon="3.40921">
        <ele>488</ele>
        <time>2019-12-19T02:45:11Z</time>
      </trkpt>
      <trkpt lat="45.6012" lon="3.40839">
        <ele>485</ele>
        <time>2019-12-19T02:45:22Z</time>
      </trkpt>
      <trkpt lat="45.60128" lon="3.40784">
        <ele>485</ele>
        <time>2019-12-19T02:45:29Z</time>
      </trkpt>
      <trkpt lat="45.60133" lon="3.40727">
        <ele>485</ele>
        <time>2019-12-19T02:45:36Z</time>
      </trkpt>
      <trkpt lat="45.60122" lon="3.407">
        <ele>484</ele>
        <time>2019-12-19T02:45:40Z</time>
      </trkpt>
      <trkpt lat="45.60111" lon="3.40684">
        <ele>484</ele>
        <time>2019-12-19T02:45:43Z</time>
      </trkpt>
      <trkpt lat="45.601" lon="3.40656">
        <ele>483</ele>
        <time>2019-12-19T02:45:47Z</time>
      </trkpt>
      <trkpt lat="45.60076" lon="3.40628">
        <ele>482</ele>
        <time>2019-12-19T02:45:52Z</time>
      </trkpt>
      <trkpt lat="45.60055" lon="3.40609">
        <ele>481</ele>
        <time>2019-12-19T02:45:57Z</time>
      </trkpt>
      <trkpt lat="45.60036" lon="3.40592">
        <ele>481</ele>
        <time>2019-12-19T02:46:01Z</time>
      </trkpt>
      <trkpt lat="45.59937" lon="3.40501">
        <ele>483</ele>
        <time>2019-12-19T02:46:21Z</time>
      </trkpt>
      <trkpt lat="45.59869" lon="3.40579">
        <ele>484</ele>
        <time>2019-12-19T02:46:37Z</time>
      </trkpt>
      <trkpt lat="45.59839" lon="3.40584">
        <ele>485</ele>
        <time>2019-12-19T02:46:42Z</time>
      </trkpt>
      <trkpt lat="45.59779" lon="3.40587">
        <ele>484</ele>
        <time>2019-12-19T02:46:53Z</time>
      </trkpt>
      <trkpt lat="45.59733" lon="3.40596">
        <ele>484</ele>
        <time>2019-12-19T02:47:01Z</time>
      </trkpt>
      <trkpt lat="45.59659" lon="3.40637">
        <ele>485</ele>
        <time>2019-12-19T02:47:15Z</time>
      </trkpt>
      <trkpt lat="45.59634" lon="3.4064">
        <ele>486</ele>
        <time>2019-12-19T02:47:20Z</time>
      </trkpt>
      <trkpt lat="45.59533" lon="3.40628">
        <ele>490</ele>
        <time>2019-12-19T02:47:38Z</time>
      </trkpt>
      <trkpt lat="45.59454" lon="3.40641">
        <ele>494</ele>
        <time>2019-12-19T02:47:52Z</time>
      </trkpt>
      <trkpt lat="45.59417" lon="3.40635">
        <ele>496</ele>
        <time>2019-12-19T02:47:59Z</time>
      </trkpt>
      <trkpt lat="45.59387" lon="3.4062">
        <ele>497</ele>
        <time>2019-12-19T02:48:04Z</time>
      </trkpt>
      <trkpt lat="45.5919" lon="3.40423">
        <ele>503</ele>
        <time>2019-12-19T02:48:47Z</time>
      </trkpt>
      <trkpt lat="45.59143" lon="3.40395">
        <ele>504</ele>
        <time>2019-12-19T02:48:56Z</time>
      </trkpt>
      <trkpt lat="45.59111" lon="3.40379">
        <ele>504</ele>
        <time>2019-12-19T02:49:02Z</time>
      </trkpt>
      <trkpt lat="45.5903" lon="3.40316">
        <ele>508</ele>
        <time>2019-12-19T02:49:19Z</time>
      </trkpt>
      <trkpt lat="45.5896" lon="3.40267">
        <ele>515</ele>
        <time>2019-12-19T02:49:33Z</time>
      </trkpt>
      <trkpt lat="45.58924" lon="3.40254">
        <ele>519</ele>
        <time>2019-12-19T02:49:39Z</time>
      </trkpt>
      <trkpt lat="45.58871" lon="3.40246">
        <ele>524</ele>
        <time>2019-12-19T02:49:49Z</time>
      </trkpt>
      <trkpt lat="45.58771" lon="3.40244">
        <ele>530</ele>
        <time>2019-12-19T02:50:06Z</time>
      </trkpt>
      <trkpt lat="45.58742" lon="3.40236">
        <ele>533</ele>
        <time>2019-12-19T02:50:12Z</time>
      </trkpt>
      <trkpt lat="45.58717" lon="3.40232">
        <ele>536</ele>
        <time>2019-12-19T02:50:16Z</time>
      </trkpt>
      <trkpt lat="45.58701" lon="3.40249">
        <ele>536</ele>
        <time>2019-12-19T02:50:20Z</time>
      </trkpt>
      <trkpt lat="45.58699" lon="3.40286">
        <ele>537</ele>
        <time>2019-12-19T02:50:24Z</time>
      </trkpt>
      <trkpt lat="45.58718" lon="3.40387">
        <ele>538</ele>
        <time>2019-12-19T02:50:37Z</time>
      </trkpt>
      <trkpt lat="45.5873" lon="3.40432">
        <ele>537</ele>
        <time>2019-12-19T02:50:43Z</time>
      </trkpt>
      <trkpt lat="45.58727" lon="3.40469">
        <ele>536</ele>
        <time>2019-12-19T02:50:48Z</time>
      </trkpt>
      <trkpt lat="45.58704" lon="3.4052">
        <ele>537</ele>
        <time>2019-12-19T02:50:56Z</time>
      </trkpt>
      <trkpt lat="45.58672" lon="3.40568">
        <ele>541</ele>
        <time>2019-12-19T02:51:04Z</time>
      </trkpt>
      <trkpt lat="45.58646" lon="3.40588">
        <ele>546</ele>
        <time>2019-12-19T02:51:09Z</time>
      </trkpt>
      <trkpt lat="45.5863" lon="3.40591">
        <ele>549</ele>
        <time>2019-12-19T02:51:12Z</time>
      </trkpt>
      <trkpt lat="45.58611" lon="3.40579">
        <ele>551</ele>
        <time>2019-12-19T02:51:16Z</time>
      </trkpt>
      <trkpt lat="45.58596" lon="3.40557">
        <ele>552</ele>
        <time>2019-12-19T02:51:19Z</time>
      </trkpt>
      <trkpt lat="45.58581" lon="3.40516">
        <ele>553</ele>
        <time>2019-12-19T02:51:25Z</time>
      </trkpt>
      <trkpt lat="45.58559" lon="3.40447">
        <ele>556</ele>
        <time>2019-12-19T02:51:35Z</time>
      </trkpt>
      <trkpt lat="45.58535" lon="3.40408">
        <ele>558</ele>
        <time>2019-12-19T02:51:41Z</time>
      </trkpt>
      <trkpt lat="45.58503" lon="3.40364">
        <ele>559</ele>
        <time>2019-12-19T02:51:49Z</time>
      </trkpt>
      <trkpt lat="45.58473" lon="3.40329">
        <ele>561</ele>
        <time>2019-12-19T02:51:56Z</time>
      </trkpt>
      <trkpt lat="45.58436" lon="3.403">
        <ele>565</ele>
        <time>2019-12-19T02:52:03Z</time>
      </trkpt>
      <trkpt lat="45.5838" lon="3.40282">
        <ele>569</ele>
        <time>2019-12-19T02:52:14Z</time>
      </trkpt>
      <trkpt lat="45.58241" lon="3.40259">
        <ele>576</ele>
        <time>2019-12-19T02:52:39Z</time>
      </trkpt>
      <trkpt lat="45.58221" lon="3.40249">
        <ele>576</ele>
        <time>2019-12-19T02:52:42Z</time>
      </trkpt>
      <trkpt lat="45.58188" lon="3.40236">
        <ele>577</ele>
        <time>2019-12-19T02:52:48Z</time>
      </trkpt>
      <trkpt lat="45.58129" lon="3.40234">
        <ele>580</ele>
        <time>2019-12-19T02:52:59Z</time>
      </trkpt>
      <trkpt lat="45.58103" lon="3.40237">
        <ele>582</ele>
        <time>2019-12-19T02:53:04Z</time>
      </trkpt>
      <trkpt lat="45.58065" lon="3.40254">
        <ele>584</ele>
        <time>2019-12-19T02:53:11Z</time>
      </trkpt>
      <trkpt lat="45.58033" lon="3.40271">
        <ele>583</ele>
        <time>2019-12-19T02:53:17Z</time>
      </trkpt>
      <trkpt lat="45.57998" lon="3.40276">
        <ele>582</ele>
        <time>2019-12-19T02:53:23Z</time>
      </trkpt>
      <trkpt lat="45.57988" lon="3.40267">
        <ele>581</ele>
        <time>2019-12-19T02:53:25Z</time>
      </trkpt>
      <trkpt lat="45.57943" lon="3.40216">
        <ele>576</ele>
        <time>2019-12-19T02:53:35Z</time>
      </trkpt>
      <trkpt lat="45.57923" lon="3.4018">
        <ele>575</ele>
        <time>2019-12-19T02:53:41Z</time>
      </trkpt>
      <trkpt lat="45.57917" lon="3.40156">
        <ele>574</ele>
        <time>2019-12-19T02:53:44Z</time>
      </trkpt>
      <trkpt lat="45.57916" lon="3.40147">
        <ele>574</ele>
        <time>2019-12-19T02:53:45Z</time>
      </trkpt>
      <trkpt lat="45.57918" lon="3.40135">
        <ele>574</ele>
        <time>2019-12-19T02:53:47Z</time>
      </trkpt>
      <trkpt lat="45.57932" lon="3.4011">
        <ele>575</ele>
        <time>2019-12-19T02:53:51Z</time>
      </trkpt>
      <trkpt lat="45.57967" lon="3.40066">
        <ele>575</ele>
        <time>2019-12-19T02:53:59Z</time>
      </trkpt>
      <trkpt lat="45.58005" lon="3.40025">
        <ele>574</ele>
        <time>2019-12-19T02:54:08Z</time>
      </trkpt>
      <trkpt lat="45.5802" lon="3.40001">
        <ele>573</ele>
        <time>2019-12-19T02:54:12Z</time>
      </trkpt>
      <trkpt lat="45.58062" lon="3.39952">
        <ele>568</ele>
        <time>2019-12-19T02:54:21Z</time>
      </trkpt>
      <trkpt lat="45.58072" lon="3.39923">
        <ele>567</ele>
        <time>2019-12-19T02:54:25Z</time>
      </trkpt>
      <trkpt lat="45.58068" lon="3.39888">
        <ele>565</ele>
        <time>2019-12-19T02:54:30Z</time>
      </trkpt>
      <trkpt lat="45.58009" lon="3.39826">
        <ele>567</ele>
        <time>2019-12-19T02:54:43Z</time>
      </trkpt>
      <trkpt lat="45.57938" lon="3.39756">
        <ele>562</ele>
        <time>2019-12-19T02:54:58Z</time>
      </trkpt>
      <trkpt lat="45.57915" lon="3.39756">
        <ele>563</ele>
        <time>2019-12-19T02:55:02Z</time>
      </trkpt>
      <trkpt lat="45.57871" lon="3.39713">
        <ele>561</ele>
        <time>2019-12-19T02:55:12Z</time>
      </trkpt>
      <trkpt lat="45.57842" lon="3.39695">
        <ele>560</ele>
        <time>2019-12-19T02:55:17Z</time>
      </trkpt>
      <trkpt lat="45.57797" lon="3.39687">
        <ele>560</ele>
        <time>2019-12-19T02:55:25Z</time>
      </trkpt>
      <trkpt lat="45.57752" lon="3.39685">
        <ele>560</ele>
        <time>2019-12-19T02:55:33Z</time>
      </trkpt>
      <trkpt lat="45.57721" lon="3.39692">
        <ele>559</ele>
        <time>2019-12-19T02:55:39Z</time>
      </trkpt>
      <trkpt lat="45.57667" lon="3.39693">
        <ele>556</ele>
        <time>2019-12-19T02:55:49Z</time>
      </trkpt>
      <trkpt lat="45.57647" lon="3.39702">
        <ele>557</ele>
        <time>2019-12-19T02:55:52Z</time>
      </trkpt>
      <trkpt lat="45.57627" lon="3.39704">
        <ele>557</ele>
        <time>2019-12-19T02:55:56Z</time>
      </trkpt>
      <trkpt lat="45.57605" lon="3.39693">
        <ele>555</ele>
        <time>2019-12-19T02:56:00Z</time>
      </trkpt>
      <trkpt lat="45.57575" lon="3.39668">
        <ele>549</ele>
        <time>2019-12-19T02:56:06Z</time>
      </trkpt>
      <trkpt lat="45.57514" lon="3.39628">
        <ele>545</ele>
        <time>2019-12-19T02:56:18Z</time>
      </trkpt>
      <trkpt lat="45.57479" lon="3.39613">
        <ele>543</ele>
        <time>2019-12-19T02:56:25Z</time>
      </trkpt>
      <trkpt lat="45.57444" lon="3.39612">
        <ele>545</ele>
        <time>2019-12-19T02:56:31Z</time>
      </trkpt>
      <trkpt lat="45.57406" lon="3.39603">
        <ele>544</ele>
        <time>2019-12-19T02:56:38Z</time>
      </trkpt>
      <trkpt lat="45.57382" lon="3.39592">
        <ele>540</ele>
        <time>2019-12-19T02:56:42Z</time>
      </trkpt>
      <trkpt lat="45.57345" lon="3.39583">
        <ele>536</ele>
        <time>2019-12-19T02:56:49Z</time>
      </trkpt>
      <trkpt lat="45.57294" lon="3.39576">
        <ele>534</ele>
        <time>2019-12-19T02:56:58Z</time>
      </trkpt>
      <trkpt lat="45.57281" lon="3.3957">
        <ele>533</ele>
        <time>2019-12-19T02:57:00Z</time>
      </trkpt>
      <trkpt lat="45.57262" lon="3.39553">
        <ele>531</ele>
        <time>2019-12-19T02:57:04Z</time>
      </trkpt>
      <trkpt lat="45.57242" lon="3.39539">
        <ele>529</ele>
        <time>2019-12-19T02:57:08Z</time>
      </trkpt>
      <trkpt lat="45.57222" lon="3.39535">
        <ele>529</ele>
        <time>2019-12-19T02:57:12Z</time>
      </trkpt>
      <trkpt lat="45.57201" lon="3.39541">
        <ele>532</ele>
        <time>2019-12-19T02:57:16Z</time>
      </trkpt>
      <trkpt lat="45.57181" lon="3.39543">
        <ele>534</ele>
        <time>2019-12-19T02:57:19Z</time>
      </trkpt>
      <trkpt lat="45.57172" lon="3.39536">
        <ele>534</ele>
        <time>2019-12-19T02:57:21Z</time>
      </trkpt>
      <trkpt lat="45.5716" lon="3.39515">
        <ele>530</ele>
        <time>2019-12-19T02:57:25Z</time>
      </trkpt>
      <trkpt lat="45.57139" lon="3.39496">
        <ele>528</ele>
        <time>2019-12-19T02:57:29Z</time>
      </trkpt>
      <trkpt lat="45.57112" lon="3.39469">
        <ele>527</ele>
        <time>2019-12-19T02:57:35Z</time>
      </trkpt>
      <trkpt lat="45.5709" lon="3.39438">
        <ele>524</ele>
        <time>2019-12-19T02:57:40Z</time>
      </trkpt>
      <trkpt lat="45.5707" lon="3.39382">
        <ele>519</ele>
        <time>2019-12-19T02:57:48Z</time>
      </trkpt>
      <trkpt lat="45.57052" lon="3.39357">
        <ele>518</ele>
        <time>2019-12-19T02:57:53Z</time>
      </trkpt>
      <trkpt lat="45.5702" lon="3.39327">
        <ele>517</ele>
        <time>2019-12-19T02:57:59Z</time>
      </trkpt>
      <trkpt lat="45.57011" lon="3.39312">
        <ele>517</ele>
        <time>2019-12-19T02:58:02Z</time>
      </trkpt>
      <trkpt lat="45.56994" lon="3.39262">
        <ele>512</ele>
        <time>2019-12-19T02:58:09Z</time>
      </trkpt>
      <trkpt lat="45.56959" lon="3.39218">
        <ele>510</ele>
        <time>2019-12-19T02:58:17Z</time>
      </trkpt>
      <trkpt lat="45.5687" lon="3.39123">
        <ele>506</ele>
        <time>2019-12-19T02:58:37Z</time>
      </trkpt>
      <trkpt lat="45.56761" lon="3.3899">
        <ele>501</ele>
        <time>2019-12-19T02:59:02Z</time>
      </trkpt>
      <trkpt lat="45.56722" lon="3.38933">
        <ele>500</ele>
        <time>2019-12-19T02:59:12Z</time>
      </trkpt>
      <trkpt lat="45.56699" lon="3.38887">
        <ele>499</ele>
        <time>2019-12-19T02:59:19Z</time>
      </trkpt>
      <trkpt lat="45.56674" lon="3.38852">
        <ele>497</ele>
        <time>2019-12-19T02:59:26Z</time>
      </trkpt>
      <trkpt lat="45.56607" lon="3.38785">
        <ele>497</ele>
        <time>2019-12-19T02:59:40Z</time>
      </trkpt>
      <trkpt lat="45.56594" lon="3.38747">
        <ele>495</ele>
        <time>2019-12-19T02:59:45Z</time>
      </trkpt>
      <trkpt lat="45.56579" lon="3.38713">
        <ele>494</ele>
        <time>2019-12-19T02:59:50Z</time>
      </trkpt>
      <trkpt lat="45.5655" lon="3.38679">
        <ele>493</ele>
        <time>2019-12-19T02:59:57Z</time>
      </trkpt>
      <trkpt lat="45.56472" lon="3.38633">
        <ele>491</ele>
        <time>2019-12-19T03:00:12Z</time>
      </trkpt>
      <trkpt lat="45.5636" lon="3.3851">
        <ele>488</ele>
        <time>2019-12-19T03:00:37Z</time>
      </trkpt>
      <trkpt lat="45.5624" lon="3.38392">
        <ele>479</ele>
        <time>2019-12-19T03:01:03Z</time>
      </trkpt>
      <trkpt lat="45.56188" lon="3.3833">
        <ele>474</ele>
        <time>2019-12-19T03:01:15Z</time>
      </trkpt>
      <trkpt lat="45.5617" lon="3.38298">
        <ele>473</ele>
        <time>2019-12-19T03:01:20Z</time>
      </trkpt>
      <trkpt lat="45.56152" lon="3.38275">
        <ele>473</ele>
        <time>2019-12-19T03:01:25Z</time>
      </trkpt>
      <trkpt lat="45.56129" lon="3.38253">
        <ele>473</ele>
        <time>2019-12-19T03:01:30Z</time>
      </trkpt>
      <trkpt lat="45.56082" lon="3.3822">
        <ele>473</ele>
        <time>2019-12-19T03:01:39Z</time>
      </trkpt>
      <trkpt lat="45.56055" lon="3.38199">
        <ele>473</ele>
        <time>2019-12-19T03:01:44Z</time>
      </trkpt>
      <trkpt lat="45.5593" lon="3.38161">
        <ele>476</ele>
        <time>2019-12-19T03:02:07Z</time>
      </trkpt>
      <trkpt lat="45.55897" lon="3.38144">
        <ele>476</ele>
        <time>2019-12-19T03:02:13Z</time>
      </trkpt>
      <trkpt lat="45.55811" lon="3.38084">
        <ele>475</ele>
        <time>2019-12-19T03:02:30Z</time>
      </trkpt>
      <trkpt lat="45.55765" lon="3.38062">
        <ele>477</ele>
        <time>2019-12-19T03:02:39Z</time>
      </trkpt>
      <trkpt lat="45.55745" lon="3.38049">
        <ele>478</ele>
        <time>2019-12-19T03:02:43Z</time>
      </trkpt>
      <trkpt lat="45.55697" lon="3.38013">
        <ele>478</ele>
        <time>2019-12-19T03:02:53Z</time>
      </trkpt>
      <trkpt lat="45.55601" lon="3.37967">
        <ele>480</ele>
        <time>2019-12-19T03:03:11Z</time>
      </trkpt>
      <trkpt lat="45.55582" lon="3.37954">
        <ele>480</ele>
        <time>2019-12-19T03:03:14Z</time>
      </trkpt>
      <trkpt lat="45.55546" lon="3.3792">
        <ele>478</ele>
        <time>2019-12-19T03:03:22Z</time>
      </trkpt>
      <trkpt lat="45.55428" lon="3.37856">
        <ele>476</ele>
        <time>2019-12-19T03:03:44Z</time>
      </trkpt>
      <trkpt lat="45.55306" lon="3.37699">
        <ele>467</ele>
        <time>2019-12-19T03:04:14Z</time>
      </trkpt>
      <trkpt lat="45.55255" lon="3.37642">
        <ele>465</ele>
        <time>2019-12-19T03:04:25Z</time>
      </trkpt>
      <trkpt lat="45.55235" lon="3.37627">
        <ele>465</ele>
        <time>2019-12-19T03:04:29Z</time>
      </trkpt>
      <trkpt lat="45.55233" lon="3.37657">
        <ele>466</ele>
        <time>2019-12-19T03:04:33Z</time>
      </trkpt>
      <trkpt lat="45.55226" lon="3.37689">
        <ele>467</ele>
        <time>2019-12-19T03:04:37Z</time>
      </trkpt>
      <trkpt lat="45.55225" lon="3.37714">
        <ele>467</ele>
        <time>2019-12-19T03:04:40Z</time>
      </trkpt>
      <trkpt lat="45.55187" lon="3.37993">
        <ele>469</ele>
        <time>2019-12-19T03:05:16Z</time>
      </trkpt>
      <trkpt lat="45.55152" lon="3.38022">
        <ele>466</ele>
        <time>2019-12-19T03:05:23Z</time>
      </trkpt>
      <trkpt lat="45.55125" lon="3.38049">
        <ele>463</ele>
        <time>2019-12-19T03:05:29Z</time>
      </trkpt>
      <trkpt lat="45.55119" lon="3.38064">
        <ele>463</ele>
        <time>2019-12-19T03:05:31Z</time>
      </trkpt>
      <trkpt lat="45.55118" lon="3.38092">
        <ele>463</ele>
        <time>2019-12-19T03:05:34Z</time>
      </trkpt>
      <trkpt lat="45.55127" lon="3.3811">
        <ele>462</ele>
        <time>2019-12-19T03:05:37Z</time>
      </trkpt>
      <trkpt lat="45.55152" lon="3.38141">
        <ele>463</ele>
        <time>2019-12-19T03:05:43Z</time>
      </trkpt>
      <trkpt lat="45.55167" lon="3.38174">
        <ele>462</ele>
        <time>2019-12-19T03:05:48Z</time>
      </trkpt>
      <trkpt lat="45.55184" lon="3.38221">
        <ele>464</ele>
        <time>2019-12-19T03:05:54Z</time>
      </trkpt>
      <trkpt lat="45.55186" lon="3.38235">
        <ele>464</ele>
        <time>2019-12-19T03:05:56Z</time>
      </trkpt>
      <trkpt lat="45.55185" lon="3.38245">
        <ele>463</ele>
        <time>2019-12-19T03:05:58Z</time>
      </trkpt>
      <trkpt lat="45.55178" lon="3.38262">
        <ele>461</ele>
        <time>2019-12-19T03:06:00Z</time>
      </trkpt>
      <trkpt lat="45.55175" lon="3.38266">
        <ele>461</ele>
        <time>2019-12-19T03:06:01Z</time>
      </trkpt>
      <trkpt lat="45.55165" lon="3.38279">
        <ele>459</ele>
        <time>2019-12-19T03:06:03Z</time>
      </trkpt>
      <trkpt lat="45.55158" lon="3.38294">
        <ele>459</ele>
        <time>2019-12-19T03:06:05Z</time>
      </trkpt>
      <trkpt lat="45.55149" lon="3.38392">
        <ele>459</ele>
        <time>2019-12-19T03:06:18Z</time>
      </trkpt>
      <trkpt lat="45.55138" lon="3.38425">
        <ele>461</ele>
        <time>2019-12-19T03:06:22Z</time>
      </trkpt>
      <trkpt lat="45.55129" lon="3.38439">
        <ele>462</ele>
        <time>2019-12-19T03:06:25Z</time>
      </trkpt>
      <trkpt lat="45.55108" lon="3.38424">
        <ele>462</ele>
        <time>2019-12-19T03:06:29Z</time>
      </trkpt>
      <trkpt lat="45.55084" lon="3.38413">
        <ele>462</ele>
        <time>2019-12-19T03:06:33Z</time>
      </trkpt>
      <trkpt lat="45.55052" lon="3.38434">
        <ele>474</ele>
        <time>2019-12-19T03:06:40Z</time>
      </trkpt>
      <trkpt lat="45.55006" lon="3.38501">
        <ele>483</ele>
        <time>2019-12-19T03:06:51Z</time>
      </trkpt>
      <trkpt lat="45.54974" lon="3.38562">
        <ele>485</ele>
        <time>2019-12-19T03:07:01Z</time>
      </trkpt>
      <trkpt lat="45.54932" lon="3.38671">
        <ele>483</ele>
        <time>2019-12-19T03:07:16Z</time>
      </trkpt>
      <trkpt lat="45.54873" lon="3.38733">
        <ele>496</ele>
        <time>2019-12-19T03:07:29Z</time>
      </trkpt>
      <trkpt lat="45.54809" lon="3.38769">
        <ele>520</ele>
        <time>2019-12-19T03:07:42Z</time>
      </trkpt>
      <trkpt lat="45.54797" lon="3.3881">
        <ele>519</ele>
        <time>2019-12-19T03:07:47Z</time>
      </trkpt>
      <trkpt lat="45.54717" lon="3.38864">
        <ele>545</ele>
        <time>2019-12-19T03:08:03Z</time>
      </trkpt>
      <trkpt lat="45.54679" lon="3.38898">
        <ele>548</ele>
        <time>2019-12-19T03:08:11Z</time>
      </trkpt>
      <trkpt lat="45.54606" lon="3.38935">
        <ele>552</ele>
        <time>2019-12-19T03:08:25Z</time>
      </trkpt>
      <trkpt lat="45.54565" lon="3.38935">
        <ele>561</ele>
        <time>2019-12-19T03:08:32Z</time>
      </trkpt>
      <trkpt lat="45.54499" lon="3.38967">
        <ele>559</ele>
        <time>2019-12-19T03:08:44Z</time>
      </trkpt>
      <trkpt lat="45.54448" lon="3.38976">
        <ele>552</ele>
        <time>2019-12-19T03:08:53Z</time>
      </trkpt>
      <trkpt lat="45.54412" lon="3.38967">
        <ele>553</ele>
        <time>2019-12-19T03:09:00Z</time>
      </trkpt>
      <trkpt lat="45.54347" lon="3.38967">
        <ele>554</ele>
        <time>2019-12-19T03:09:11Z</time>
      </trkpt>
      <trkpt lat="45.54298" lon="3.3898">
        <ele>552</ele>
        <time>2019-12-19T03:09:20Z</time>
      </trkpt>
      <trkpt lat="45.54255" lon="3.38965">
        <ele>558</ele>
        <time>2019-12-19T03:09:28Z</time>
      </trkpt>
      <trkpt lat="45.54267" lon="3.3897">
        <ele>556</ele>
        <time>2019-12-18T23:38:16Z</time>
      </trkpt>
      <trkpt lat="45.54255" lon="3.38965">
        <ele>558</ele>
        <time>2019-12-18T23:38:18Z</time>
      </trkpt>
      <trkpt lat="45.54208" lon="3.3896">
        <ele>559</ele>
        <time>2019-12-18T23:38:27Z</time>
      </trkpt>
      <trkpt lat="45.54183" lon="3.3895">
        <ele>562</ele>
        <time>2019-12-18T23:38:31Z</time>
      </trkpt>
      <trkpt lat="45.54149" lon="3.38898">
        <ele>577</ele>
        <time>2019-12-18T23:38:40Z</time>
      </trkpt>
      <trkpt lat="45.54065" lon="3.38809">
        <ele>594</ele>
        <time>2019-12-18T23:38:59Z</time>
      </trkpt>
      <trkpt lat="45.54031" lon="3.38761">
        <ele>603</ele>
        <time>2019-12-18T23:39:07Z</time>
      </trkpt>
      <trkpt lat="45.5394" lon="3.38691">
        <ele>620</ele>
        <time>2019-12-18T23:39:26Z</time>
      </trkpt>
      <trkpt lat="45.53917" lon="3.38677">
        <ele>624</ele>
        <time>2019-12-18T23:39:30Z</time>
      </trkpt>
      <trkpt lat="45.53897" lon="3.3867">
        <ele>629</ele>
        <time>2019-12-18T23:39:34Z</time>
      </trkpt>
      <trkpt lat="45.53874" lon="3.38672">
        <ele>632</ele>
        <time>2019-12-18T23:39:38Z</time>
      </trkpt>
      <trkpt lat="45.53809" lon="3.38722">
        <ele>636</ele>
        <time>2019-12-18T23:39:51Z</time>
      </trkpt>
      <trkpt lat="45.53779" lon="3.38722">
        <ele>640</ele>
        <time>2019-12-18T23:39:56Z</time>
      </trkpt>
      <trkpt lat="45.537" lon="3.387">
        <ele>647</ele>
        <time>2019-12-18T23:40:11Z</time>
      </trkpt>
      <trkpt lat="45.53679" lon="3.38639">
        <ele>650</ele>
        <time>2019-12-18T23:40:19Z</time>
      </trkpt>
      <trkpt lat="45.53676" lon="3.38616">
        <ele>649</ele>
        <time>2019-12-18T23:40:22Z</time>
      </trkpt>
      <trkpt lat="45.53695" lon="3.3861">
        <ele>648</ele>
        <time>2019-12-18T23:40:25Z</time>
      </trkpt>
      <trkpt lat="45.5371" lon="3.38601">
        <ele>648</ele>
        <time>2019-12-18T23:40:28Z</time>
      </trkpt>
      <trkpt lat="45.53739" lon="3.38569">
        <ele>648</ele>
        <time>2019-12-18T23:40:35Z</time>
      </trkpt>
      <trkpt lat="45.53741" lon="3.38525">
        <ele>647</ele>
        <time>2019-12-18T23:40:40Z</time>
      </trkpt>
      <trkpt lat="45.53734" lon="3.38484">
        <ele>647</ele>
        <time>2019-12-18T23:40:46Z</time>
      </trkpt>
      <trkpt lat="45.53711" lon="3.38406">
        <ele>642</ele>
        <time>2019-12-18T23:40:56Z</time>
      </trkpt>
      <trkpt lat="45.53718" lon="3.38337">
        <ele>642</ele>
        <time>2019-12-18T23:41:05Z</time>
      </trkpt>
      <trkpt lat="45.53695" lon="3.38265">
        <ele>637</ele>
        <time>2019-12-18T23:41:15Z</time>
      </trkpt>
      <trkpt lat="45.53688" lon="3.38225">
        <ele>634</ele>
        <time>2019-12-18T23:41:20Z</time>
      </trkpt>
      <trkpt lat="45.53696" lon="3.38181">
        <ele>633</ele>
        <time>2019-12-18T23:41:26Z</time>
      </trkpt>
      <trkpt lat="45.53716" lon="3.38136">
        <ele>632</ele>
        <time>2019-12-18T23:41:32Z</time>
      </trkpt>
      <trkpt lat="45.5376" lon="3.38109">
        <ele>631</ele>
        <time>2019-12-18T23:41:41Z</time>
      </trkpt>
      <trkpt lat="45.53789" lon="3.38096">
        <ele>629</ele>
        <time>2019-12-18T23:41:46Z</time>
      </trkpt>
      <trkpt lat="45.53823" lon="3.38091">
        <ele>628</ele>
        <time>2019-12-18T23:41:52Z</time>
      </trkpt>
      <trkpt lat="45.53842" lon="3.38121">
        <ele>633</ele>
        <time>2019-12-18T23:41:57Z</time>
      </trkpt>
      <trkpt lat="45.53869" lon="3.3815">
        <ele>639</ele>
        <time>2019-12-18T23:42:03Z</time>
      </trkpt>
      <trkpt lat="45.53892" lon="3.38145">
        <ele>638</ele>
        <time>2019-12-18T23:42:07Z</time>
      </trkpt>
      <trkpt lat="45.5395" lon="3.38021">
        <ele>623</ele>
        <time>2019-12-18T23:42:26Z</time>
      </trkpt>
      <trkpt lat="45.53993" lon="3.37951">
        <ele>620</ele>
        <time>2019-12-18T23:42:38Z</time>
      </trkpt>
      <trkpt lat="45.54034" lon="3.379">
        <ele>614</ele>
        <time>2019-12-18T23:42:47Z</time>
      </trkpt>
      <trkpt lat="45.54065" lon="3.37885">
        <ele>614</ele>
        <time>2019-12-18T23:42:53Z</time>
      </trkpt>
      <trkpt lat="45.54114" lon="3.37877">
        <ele>614</ele>
        <time>2019-12-18T23:43:02Z</time>
      </trkpt>
      <trkpt lat="45.5416" lon="3.37898">
        <ele>616</ele>
        <time>2019-12-18T23:43:10Z</time>
      </trkpt>
      <trkpt lat="45.5421" lon="3.3793">
        <ele>611</ele>
        <time>2019-12-18T23:43:20Z</time>
      </trkpt>
      <trkpt lat="45.54229" lon="3.37923">
        <ele>605</ele>
        <time>2019-12-18T23:43:24Z</time>
      </trkpt>
      <trkpt lat="45.54236" lon="3.37895">
        <ele>601</ele>
        <time>2019-12-18T23:43:27Z</time>
      </trkpt>
      <trkpt lat="45.54222" lon="3.37866">
        <ele>602</ele>
        <time>2019-12-18T23:43:32Z</time>
      </trkpt>
      <trkpt lat="45.54198" lon="3.37831">
        <ele>602</ele>
        <time>2019-12-18T23:43:38Z</time>
      </trkpt>
      <trkpt lat="45.54115" lon="3.37782">
        <ele>596</ele>
        <time>2019-12-18T23:43:54Z</time>
      </trkpt>
      <trkpt lat="45.5407" lon="3.37766">
        <ele>590</ele>
        <time>2019-12-18T23:44:02Z</time>
      </trkpt>
      <trkpt lat="45.54036" lon="3.37772">
        <ele>588</ele>
        <time>2019-12-18T23:44:08Z</time>
      </trkpt>
      <trkpt lat="45.53997" lon="3.37791">
        <ele>588</ele>
        <time>2019-12-18T23:44:16Z</time>
      </trkpt>
      <trkpt lat="45.53946" lon="3.37831">
        <ele>589</ele>
        <time>2019-12-18T23:44:26Z</time>
      </trkpt>
      <trkpt lat="45.53909" lon="3.37883">
        <ele>592</ele>
        <time>2019-12-18T23:44:35Z</time>
      </trkpt>
      <trkpt lat="45.53893" lon="3.37888">
        <ele>594</ele>
        <time>2019-12-18T23:44:38Z</time>
      </trkpt>
      <trkpt lat="45.53876" lon="3.37879">
        <ele>594</ele>
        <time>2019-12-18T23:44:41Z</time>
      </trkpt>
      <trkpt lat="45.53867" lon="3.37862">
        <ele>594</ele>
        <time>2019-12-18T23:44:44Z</time>
      </trkpt>
      <trkpt lat="45.53909" lon="3.37677">
        <ele>572</ele>
        <time>2019-12-18T23:45:08Z</time>
      </trkpt>
      <trkpt lat="45.53917" lon="3.3766">
        <ele>570</ele>
        <time>2019-12-18T23:45:11Z</time>
      </trkpt>
      <trkpt lat="45.53918" lon="3.37639">
        <ele>568</ele>
        <time>2019-12-18T23:45:13Z</time>
      </trkpt>
      <trkpt lat="45.53911" lon="3.37625">
        <ele>566</ele>
        <time>2019-12-18T23:45:15Z</time>
      </trkpt>
      <trkpt lat="45.53901" lon="3.37616">
        <ele>566</ele>
        <time>2019-12-18T23:45:18Z</time>
      </trkpt>
      <trkpt lat="45.5389" lon="3.37612">
        <ele>567</ele>
        <time>2019-12-18T23:45:20Z</time>
      </trkpt>
      <trkpt lat="45.53876" lon="3.37604">
        <ele>567</ele>
        <time>2019-12-18T23:45:22Z</time>
      </trkpt>
      <trkpt lat="45.53864" lon="3.37589">
        <ele>566</ele>
        <time>2019-12-18T23:45:25Z</time>
      </trkpt>
      <trkpt lat="45.53693" lon="3.37489">
        <ele>551</ele>
        <time>2019-12-18T23:45:58Z</time>
      </trkpt>
      <trkpt lat="45.53665" lon="3.37459">
        <ele>548</ele>
        <time>2019-12-18T23:46:04Z</time>
      </trkpt>
      <trkpt lat="45.53646" lon="3.37424">
        <ele>545</ele>
        <time>2019-12-18T23:46:10Z</time>
      </trkpt>
      <trkpt lat="45.53616" lon="3.37382">
        <ele>540</ele>
        <time>2019-12-18T23:46:17Z</time>
      </trkpt>
      <trkpt lat="45.53595" lon="3.37376">
        <ele>540</ele>
        <time>2019-12-18T23:46:21Z</time>
      </trkpt>
      <trkpt lat="45.53574" lon="3.37376">
        <ele>539</ele>
        <time>2019-12-18T23:46:25Z</time>
      </trkpt>
      <trkpt lat="45.53543" lon="3.37395">
        <ele>536</ele>
        <time>2019-12-18T23:46:31Z</time>
      </trkpt>
      <trkpt lat="45.53529" lon="3.37393">
        <ele>534</ele>
        <time>2019-12-18T23:46:33Z</time>
      </trkpt>
      <trkpt lat="45.53513" lon="3.37373">
        <ele>532</ele>
        <time>2019-12-18T23:46:37Z</time>
      </trkpt>
      <trkpt lat="45.53504" lon="3.37349">
        <ele>531</ele>
        <time>2019-12-18T23:46:40Z</time>
      </trkpt>
      <trkpt lat="45.53499" lon="3.3733">
        <ele>530</ele>
        <time>2019-12-18T23:46:43Z</time>
      </trkpt>
      <trkpt lat="45.53499" lon="3.37308">
        <ele>528</ele>
        <time>2019-12-18T23:46:46Z</time>
      </trkpt>
      <trkpt lat="45.53505" lon="3.37265">
        <ele>525</ele>
        <time>2019-12-18T23:46:51Z</time>
      </trkpt>
      <trkpt lat="45.53514" lon="3.37241">
        <ele>524</ele>
        <time>2019-12-18T23:46:55Z</time>
      </trkpt>
      <trkpt lat="45.53525" lon="3.3722">
        <ele>521</ele>
        <time>2019-12-18T23:46:58Z</time>
      </trkpt>
      <trkpt lat="45.53538" lon="3.37201">
        <ele>519</ele>
        <time>2019-12-18T23:47:01Z</time>
      </trkpt>
      <trkpt lat="45.5356" lon="3.37189">
        <ele>519</ele>
        <time>2019-12-18T23:47:05Z</time>
      </trkpt>
      <trkpt lat="45.53582" lon="3.37184">
        <ele>520</ele>
        <time>2019-12-18T23:47:09Z</time>
      </trkpt>
      <trkpt lat="45.53627" lon="3.37183">
        <ele>518</ele>
        <time>2019-12-18T23:47:17Z</time>
      </trkpt>
      <trkpt lat="45.5373" lon="3.3715">
        <ele>511</ele>
        <time>2019-12-18T23:47:36Z</time>
      </trkpt>
      <trkpt lat="45.53774" lon="3.3714">
        <ele>508</ele>
        <time>2019-12-18T23:47:44Z</time>
      </trkpt>
      <trkpt lat="45.53815" lon="3.37136">
        <ele>505</ele>
        <time>2019-12-18T23:47:51Z</time>
      </trkpt>
      <trkpt lat="45.53856" lon="3.37138">
        <ele>503</ele>
        <time>2019-12-18T23:47:59Z</time>
      </trkpt>
      <trkpt lat="45.53875" lon="3.37141">
        <ele>502</ele>
        <time>2019-12-18T23:48:02Z</time>
      </trkpt>
      <trkpt lat="45.53892" lon="3.3715">
        <ele>502</ele>
        <time>2019-12-18T23:48:05Z</time>
      </trkpt>
      <trkpt lat="45.53922" lon="3.3717">
        <ele>503</ele>
        <time>2019-12-18T23:48:11Z</time>
      </trkpt>
      <trkpt lat="45.54028" lon="3.37078">
        <ele>490</ele>
        <time>2019-12-18T23:48:33Z</time>
      </trkpt>
      <trkpt lat="45.54082" lon="3.37024">
        <ele>483</ele>
        <time>2019-12-18T23:48:45Z</time>
      </trkpt>
      <trkpt lat="45.54109" lon="3.37004">
        <ele>480</ele>
        <time>2019-12-18T23:48:50Z</time>
      </trkpt>
      <trkpt lat="45.54143" lon="3.36984">
        <ele>477</ele>
        <time>2019-12-18T23:48:57Z</time>
      </trkpt>
      <trkpt lat="45.54174" lon="3.36959">
        <ele>475</ele>
        <time>2019-12-18T23:49:03Z</time>
      </trkpt>
      <trkpt lat="45.54188" lon="3.36946">
        <ele>473</ele>
        <time>2019-12-18T23:49:06Z</time>
      </trkpt>
      <trkpt lat="45.54206" lon="3.36933">
        <ele>471</ele>
        <time>2019-12-18T23:49:10Z</time>
      </trkpt>
      <trkpt lat="45.54223" lon="3.36923">
        <ele>470</ele>
        <time>2019-12-18T23:49:13Z</time>
      </trkpt>
      <trkpt lat="45.54314" lon="3.36904">
        <ele>464</ele>
        <time>2019-12-18T23:49:29Z</time>
      </trkpt>
      <trkpt lat="45.54359" lon="3.36885">
        <ele>460</ele>
        <time>2019-12-18T23:49:38Z</time>
      </trkpt>
      <trkpt lat="45.54393" lon="3.36859">
        <ele>457</ele>
        <time>2019-12-18T23:49:45Z</time>
      </trkpt>
      <trkpt lat="45.54419" lon="3.36845">
        <ele>454</ele>
        <time>2019-12-18T23:49:50Z</time>
      </trkpt>
      <trkpt lat="45.54445" lon="3.36844">
        <ele>453</ele>
        <time>2019-12-18T23:49:54Z</time>
      </trkpt>
      <trkpt lat="45.5446" lon="3.36848">
        <ele>452</ele>
        <time>2019-12-18T23:49:57Z</time>
      </trkpt>
      <trkpt lat="45.54476" lon="3.36855">
        <ele>451</ele>
        <time>2019-12-18T23:50:00Z</time>
      </trkpt>
      <trkpt lat="45.54519" lon="3.36884">
        <ele>449</ele>
        <time>2019-12-18T23:50:08Z</time>
      </trkpt>
      <trkpt lat="45.54539" lon="3.36911">
        <ele>448</ele>
        <time>2019-12-18T23:50:13Z</time>
      </trkpt>
      <trkpt lat="45.54547" lon="3.36916">
        <ele>448</ele>
        <time>2019-12-18T23:50:15Z</time>
      </trkpt>
      <trkpt lat="45.54565" lon="3.36921">
        <ele>446</ele>
        <time>2019-12-18T23:50:18Z</time>
      </trkpt>
      <trkpt lat="45.54617" lon="3.3693">
        <ele>443</ele>
        <time>2019-12-18T23:50:27Z</time>
      </trkpt>
      <trkpt lat="45.54582" lon="3.36833">
        <ele>441</ele>
        <time>2019-12-18T23:50:41Z</time>
      </trkpt>
      <trkpt lat="45.54538" lon="3.36743">
        <ele>442</ele>
        <time>2019-12-18T23:50:55Z</time>
      </trkpt>
      <trkpt lat="45.5447" lon="3.36636">
        <ele>440</ele>
        <time>2019-12-18T23:51:13Z</time>
      </trkpt>
      <trkpt lat="45.54299" lon="3.36373">
        <ele>436</ele>
        <time>2019-12-18T23:51:57Z</time>
      </trkpt>
      <trkpt lat="45.54281" lon="3.3635">
        <ele>435</ele>
        <time>2019-12-18T23:52:02Z</time>
      </trkpt>
      <trkpt lat="45.53985" lon="3.3611">
        <ele>429</ele>
        <time>2019-12-18T23:53:02Z</time>
      </trkpt>
      <trkpt lat="45.53959" lon="3.36093">
        <ele>430</ele>
        <time>2019-12-18T23:53:07Z</time>
      </trkpt>
      <trkpt lat="45.53932" lon="3.36081">
        <ele>430</ele>
        <time>2019-12-18T23:53:12Z</time>
      </trkpt>
      <trkpt lat="45.53802" lon="3.36039">
        <ele>431</ele>
        <time>2019-12-18T23:53:36Z</time>
      </trkpt>
      <trkpt lat="45.53607" lon="3.35987">
        <ele>424</ele>
        <time>2019-12-18T23:54:11Z</time>
      </trkpt>
      <trkpt lat="45.53424" lon="3.35951">
        <ele>424</ele>
        <time>2019-12-18T23:54:44Z</time>
      </trkpt>
      <trkpt lat="45.53267" lon="3.35923">
        <ele>427</ele>
        <time>2019-12-18T23:55:12Z</time>
      </trkpt>
      <trkpt lat="45.5323" lon="3.35913">
        <ele>427</ele>
        <time>2019-12-18T23:55:19Z</time>
      </trkpt>
      <trkpt lat="45.53138" lon="3.35877">
        <ele>424</ele>
        <time>2019-12-18T23:55:36Z</time>
      </trkpt>
      <trkpt lat="45.53116" lon="3.35874">
        <ele>424</ele>
        <time>2019-12-18T23:55:40Z</time>
      </trkpt>
      <trkpt lat="45.53003" lon="3.35885">
        <ele>424</ele>
        <time>2019-12-18T23:56:00Z</time>
      </trkpt>
      <trkpt lat="45.52972" lon="3.35885">
        <ele>424</ele>
        <time>2019-12-18T23:56:06Z</time>
      </trkpt>
      <trkpt lat="45.52876" lon="3.35871">
        <ele>426</ele>
        <time>2019-12-18T23:56:23Z</time>
      </trkpt>
      <trkpt lat="45.52844" lon="3.35862">
        <ele>427</ele>
        <time>2019-12-18T23:56:29Z</time>
      </trkpt>
      <trkpt lat="45.52832" lon="3.35857">
        <ele>427</ele>
        <time>2019-12-18T23:56:31Z</time>
      </trkpt>
      <trkpt lat="45.52782" lon="3.35841">
        <ele>427</ele>
        <time>2019-12-18T23:56:40Z</time>
      </trkpt>
      <trkpt lat="45.52598" lon="3.35812">
        <ele>426</ele>
        <time>2019-12-18T23:57:13Z</time>
      </trkpt>
      <trkpt lat="45.52499" lon="3.35783">
        <ele>424</ele>
        <time>2019-12-18T23:57:31Z</time>
      </trkpt>
      <trkpt lat="45.52426" lon="3.3576">
        <ele>424</ele>
        <time>2019-12-18T23:57:44Z</time>
      </trkpt>
      <trkpt lat="45.52411" lon="3.35749">
        <ele>422</ele>
        <time>2019-12-18T23:57:47Z</time>
      </trkpt>
      <trkpt lat="45.52233" lon="3.35579">
        <ele>416</ele>
        <time>2019-12-18T23:58:25Z</time>
      </trkpt>
      <trkpt lat="45.52228" lon="3.35573">
        <ele>416</ele>
        <time>2019-12-18T23:58:27Z</time>
      </trkpt>
      <trkpt lat="45.5204" lon="3.35391">
        <ele>413</ele>
        <time>2019-12-18T23:59:07Z</time>
      </trkpt>
      <trkpt lat="45.52019" lon="3.35374">
        <ele>413</ele>
        <time>2019-12-18T23:59:11Z</time>
      </trkpt>
      <trkpt lat="45.52019" lon="3.35347">
        <ele>410</ele>
        <time>2019-12-18T23:59:15Z</time>
      </trkpt>
      <trkpt lat="45.51956" lon="3.35172">
        <ele>405</ele>
        <time>2019-12-18T23:59:39Z</time>
      </trkpt>
      <trkpt lat="45.51945" lon="3.35144">
        <ele>405</ele>
        <time>2019-12-18T23:59:43Z</time>
      </trkpt>
      <trkpt lat="45.51924" lon="3.35089">
        <ele>404</ele>
        <time>2019-12-18T23:59:51Z</time>
      </trkpt>
      <trkpt lat="45.51885" lon="3.34981">
        <ele>401</ele>
        <time>2019-12-19T00:00:06Z</time>
      </trkpt>
      <trkpt lat="45.51866" lon="3.34924">
        <ele>402</ele>
        <time>2019-12-19T00:00:14Z</time>
      </trkpt>
      <trkpt lat="45.51861" lon="3.34874">
        <ele>403</ele>
        <time>2019-12-19T00:00:20Z</time>
      </trkpt>
      <trkpt lat="45.51861" lon="3.34771">
        <ele>404</ele>
        <time>2019-12-19T00:00:33Z</time>
      </trkpt>
      <trkpt lat="45.5185" lon="3.34728">
        <ele>405</ele>
        <time>2019-12-19T00:00:39Z</time>
      </trkpt>
      <trkpt lat="45.51836" lon="3.34705">
        <ele>404</ele>
        <time>2019-12-19T00:00:43Z</time>
      </trkpt>
      <trkpt lat="45.5181" lon="3.34682">
        <ele>404</ele>
        <time>2019-12-19T00:00:48Z</time>
      </trkpt>
      <trkpt lat="45.51747" lon="3.3466">
        <ele>405</ele>
        <time>2019-12-19T00:01:00Z</time>
      </trkpt>
      <trkpt lat="45.51721" lon="3.34644">
        <ele>406</ele>
        <time>2019-12-19T00:01:05Z</time>
      </trkpt>
      <trkpt lat="45.51627" lon="3.34575">
        <ele>401</ele>
        <time>2019-12-19T00:01:23Z</time>
      </trkpt>
      <trkpt lat="45.51603" lon="3.34551">
        <ele>400</ele>
        <time>2019-12-19T00:01:29Z</time>
      </trkpt>
      <trkpt lat="45.51522" lon="3.34453">
        <ele>400</ele>
        <time>2019-12-19T00:01:48Z</time>
      </trkpt>
      <trkpt lat="45.51505" lon="3.3443">
        <ele>400</ele>
        <time>2019-12-19T00:01:52Z</time>
      </trkpt>
      <trkpt lat="45.51475" lon="3.34374">
        <ele>402</ele>
        <time>2019-12-19T00:02:00Z</time>
      </trkpt>
      <trkpt lat="45.51456" lon="3.34348">
        <ele>403</ele>
        <time>2019-12-19T00:02:05Z</time>
      </trkpt>
      <trkpt lat="45.5143" lon="3.34332">
        <ele>402</ele>
        <time>2019-12-19T00:02:10Z</time>
      </trkpt>
      <trkpt lat="45.51406" lon="3.34323">
        <ele>403</ele>
        <time>2019-12-19T00:02:15Z</time>
      </trkpt>
      <trkpt lat="45.51387" lon="3.34308">
        <ele>405</ele>
        <time>2019-12-19T00:02:18Z</time>
      </trkpt>
      <trkpt lat="45.51365" lon="3.34282">
        <ele>407</ele>
        <time>2019-12-19T00:02:24Z</time>
      </trkpt>
      <trkpt lat="45.51343" lon="3.34244">
        <ele>407</ele>
        <time>2019-12-19T00:02:30Z</time>
      </trkpt>
      <trkpt lat="45.51303" lon="3.3407">
        <ele>414</ele>
        <time>2019-12-19T00:02:53Z</time>
      </trkpt>
      <trkpt lat="45.51269" lon="3.33976">
        <ele>412</ele>
        <time>2019-12-19T00:03:06Z</time>
      </trkpt>
      <trkpt lat="45.51218" lon="3.33879">
        <ele>412</ele>
        <time>2019-12-19T00:03:21Z</time>
      </trkpt>
      <trkpt lat="45.51195" lon="3.33828">
        <ele>407</ele>
        <time>2019-12-19T00:03:28Z</time>
      </trkpt>
      <trkpt lat="45.51176" lon="3.33764">
        <ele>402</ele>
        <time>2019-12-19T00:03:37Z</time>
      </trkpt>
      <trkpt lat="45.51159" lon="3.33698">
        <ele>400</ele>
        <time>2019-12-19T00:03:46Z</time>
      </trkpt>
      <trkpt lat="45.51153" lon="3.33641">
        <ele>399</ele>
        <time>2019-12-19T00:03:53Z</time>
      </trkpt>
      <trkpt lat="45.51153" lon="3.3359">
        <ele>399</ele>
        <time>2019-12-19T00:03:59Z</time>
      </trkpt>
      <trkpt lat="45.51164" lon="3.33551">
        <ele>399</ele>
        <time>2019-12-19T00:04:05Z</time>
      </trkpt>
      <trkpt lat="45.51186" lon="3.335">
        <ele>399</ele>
        <time>2019-12-19T00:04:12Z</time>
      </trkpt>
      <trkpt lat="45.51236" lon="3.33419">
        <ele>398</ele>
        <time>2019-12-19T00:04:26Z</time>
      </trkpt>
      <trkpt lat="45.51249" lon="3.33395">
        <ele>397</ele>
        <time>2019-12-19T00:04:29Z</time>
      </trkpt>
      <trkpt lat="45.51258" lon="3.33364">
        <ele>396</ele>
        <time>2019-12-19T00:04:34Z</time>
      </trkpt>
      <trkpt lat="45.51267" lon="3.33321">
        <ele>395</ele>
        <time>2019-12-19T00:04:39Z</time>
      </trkpt>
      <trkpt lat="45.51281" lon="3.33276">
        <ele>394</ele>
        <time>2019-12-19T00:04:45Z</time>
      </trkpt>
      <trkpt lat="45.51359" lon="3.33103">
        <ele>391</ele>
        <time>2019-12-19T00:05:11Z</time>
      </trkpt>
      <trkpt lat="45.51429" lon="3.3299">
        <ele>390</ele>
        <time>2019-12-19T00:05:30Z</time>
      </trkpt>
      <trkpt lat="45.51491" lon="3.32897">
        <ele>390</ele>
        <time>2019-12-19T00:05:46Z</time>
      </trkpt>
      <trkpt lat="45.51572" lon="3.32768">
        <ele>390</ele>
        <time>2019-12-19T00:06:07Z</time>
      </trkpt>
      <trkpt lat="45.51587" lon="3.32737">
        <ele>389</ele>
        <time>2019-12-19T00:06:12Z</time>
      </trkpt>
      <trkpt lat="45.51591" lon="3.3272">
        <ele>389</ele>
        <time>2019-12-19T00:06:14Z</time>
      </trkpt>
      <trkpt lat="45.51588" lon="3.32694">
        <ele>388</ele>
        <time>2019-12-19T00:06:18Z</time>
      </trkpt>
      <trkpt lat="45.51576" lon="3.32648">
        <ele>388</ele>
        <time>2019-12-19T00:06:24Z</time>
      </trkpt>
      <trkpt lat="45.51564" lon="3.32621">
        <ele>387</ele>
        <time>2019-12-19T00:06:28Z</time>
      </trkpt>
      <trkpt lat="45.51552" lon="3.32604">
        <ele>387</ele>
        <time>2019-12-19T00:06:31Z</time>
      </trkpt>
      <trkpt lat="45.51498" lon="3.32553">
        <ele>386</ele>
        <time>2019-12-19T00:06:42Z</time>
      </trkpt>
      <trkpt lat="45.51449" lon="3.32504">
        <ele>385</ele>
        <time>2019-12-19T00:06:53Z</time>
      </trkpt>
      <trkpt lat="45.51432" lon="3.32478">
        <ele>385</ele>
        <time>2019-12-19T00:06:57Z</time>
      </trkpt>
      <trkpt lat="45.51415" lon="3.32438">
        <ele>386</ele>
        <time>2019-12-19T00:07:03Z</time>
      </trkpt>
      <trkpt lat="45.51396" lon="3.32383">
        <ele>386</ele>
        <time>2019-12-19T00:07:11Z</time>
      </trkpt>
      <trkpt lat="45.51388" lon="3.32343">
        <ele>387</ele>
        <time>2019-12-19T00:07:16Z</time>
      </trkpt>
      <trkpt lat="45.51387" lon="3.32326">
        <ele>387</ele>
        <time>2019-12-19T00:07:18Z</time>
      </trkpt>
      <trkpt lat="45.51389" lon="3.32311">
        <ele>387</ele>
        <time>2019-12-19T00:07:20Z</time>
      </trkpt>
      <trkpt lat="45.51399" lon="3.32252">
        <ele>386</ele>
        <time>2019-12-19T00:07:28Z</time>
      </trkpt>
      <trkpt lat="45.514" lon="3.32236">
        <ele>386</ele>
        <time>2019-12-19T00:07:30Z</time>
      </trkpt>
      <trkpt lat="45.51383" lon="3.32203">
        <ele>385</ele>
        <time>2019-12-19T00:07:35Z</time>
      </trkpt>
      <trkpt lat="45.51359" lon="3.32174">
        <ele>384</ele>
        <time>2019-12-19T00:07:40Z</time>
      </trkpt>
      <trkpt lat="45.51322" lon="3.32125">
        <ele>384</ele>
        <time>2019-12-19T00:07:49Z</time>
      </trkpt>
      <trkpt lat="45.51299" lon="3.32086">
        <ele>385</ele>
        <time>2019-12-19T00:07:56Z</time>
      </trkpt>
      <trkpt lat="45.51295" lon="3.32077">
        <ele>385</ele>
        <time>2019-12-19T00:07:57Z</time>
      </trkpt>
      <trkpt lat="45.51256" lon="3.32039">
        <ele>386</ele>
        <time>2019-12-19T00:08:05Z</time>
      </trkpt>
      <trkpt lat="45.51236" lon="3.32022">
        <ele>387</ele>
        <time>2019-12-19T00:08:09Z</time>
      </trkpt>
      <trkpt lat="45.51175" lon="3.32004">
        <ele>389</ele>
        <time>2019-12-19T00:08:21Z</time>
      </trkpt>
      <trkpt lat="45.51158" lon="3.32002">
        <ele>389</ele>
        <time>2019-12-19T00:08:24Z</time>
      </trkpt>
      <trkpt lat="45.51128" lon="3.32001">
        <ele>390</ele>
        <time>2019-12-19T00:08:29Z</time>
      </trkpt>
      <trkpt lat="45.5111" lon="3.31997">
        <ele>391</ele>
        <time>2019-12-19T00:08:32Z</time>
      </trkpt>
      <trkpt lat="45.51082" lon="3.31984">
        <ele>392</ele>
        <time>2019-12-19T00:08:37Z</time>
      </trkpt>
      <trkpt lat="45.5107" lon="3.31974">
        <ele>392</ele>
        <time>2019-12-19T00:08:40Z</time>
      </trkpt>
      <trkpt lat="45.51087" lon="3.31933">
        <ele>391</ele>
        <time>2019-12-19T00:08:46Z</time>
      </trkpt>
      <trkpt lat="45.51034" lon="3.31854">
        <ele>391</ele>
        <time>2019-12-19T00:08:59Z</time>
      </trkpt>
      <trkpt lat="45.51018" lon="3.31818">
        <ele>391</ele>
        <time>2019-12-19T00:09:05Z</time>
      </trkpt>
      <trkpt lat="45.51008" lon="3.31786">
        <ele>391</ele>
        <time>2019-12-19T00:09:09Z</time>
      </trkpt>
      <trkpt lat="45.50997" lon="3.31735">
        <ele>391</ele>
        <time>2019-12-19T00:09:16Z</time>
      </trkpt>
      <trkpt lat="45.50988" lon="3.31703">
        <ele>391</ele>
        <time>2019-12-19T00:09:20Z</time>
      </trkpt>
      <trkpt lat="45.50979" lon="3.31685">
        <ele>391</ele>
        <time>2019-12-19T00:09:23Z</time>
      </trkpt>
      <trkpt lat="45.50965" lon="3.31672">
        <ele>391</ele>
        <time>2019-12-19T00:09:26Z</time>
      </trkpt>
      <trkpt lat="45.50945" lon="3.31659">
        <ele>392</ele>
        <time>2019-12-19T00:09:30Z</time>
      </trkpt>
      <trkpt lat="45.5093" lon="3.31646">
        <ele>392</ele>
        <time>2019-12-19T00:09:33Z</time>
      </trkpt>
      <trkpt lat="45.50915" lon="3.31628">
        <ele>392</ele>
        <time>2019-12-19T00:09:36Z</time>
      </trkpt>
      <trkpt lat="45.50866" lon="3.31547">
        <ele>391</ele>
        <time>2019-12-19T00:09:50Z</time>
      </trkpt>
      <trkpt lat="45.50845" lon="3.31506">
        <ele>391</ele>
        <time>2019-12-19T00:09:56Z</time>
      </trkpt>
      <trkpt lat="45.50784" lon="3.31373">
        <ele>391</ele>
        <time>2019-12-19T00:10:16Z</time>
      </trkpt>
      <trkpt lat="45.50759" lon="3.31312">
        <ele>391</ele>
        <time>2019-12-19T00:10:25Z</time>
      </trkpt>
      <trkpt lat="45.50742" lon="3.31278">
        <ele>390</ele>
        <time>2019-12-19T00:10:30Z</time>
      </trkpt>
      <trkpt lat="45.50722" lon="3.31251">
        <ele>390</ele>
        <time>2019-12-19T00:10:35Z</time>
      </trkpt>
      <trkpt lat="45.50671" lon="3.31197">
        <ele>392</ele>
        <time>2019-12-19T00:10:46Z</time>
      </trkpt>
      <trkpt lat="45.50646" lon="3.31178">
        <ele>392</ele>
        <time>2019-12-19T00:10:51Z</time>
      </trkpt>
      <trkpt lat="45.50633" lon="3.31171">
        <ele>393</ele>
        <time>2019-12-19T00:10:54Z</time>
      </trkpt>
      <trkpt lat="45.50554" lon="3.31144">
        <ele>395</ele>
        <time>2019-12-19T00:11:08Z</time>
      </trkpt>
      <trkpt lat="45.50541" lon="3.31132">
        <ele>396</ele>
        <time>2019-12-19T00:11:11Z</time>
      </trkpt>
      <trkpt lat="45.50526" lon="3.3112">
        <ele>396</ele>
        <time>2019-12-19T00:11:14Z</time>
      </trkpt>
      <trkpt lat="45.50491" lon="3.311">
        <ele>396</ele>
        <time>2019-12-19T00:11:21Z</time>
      </trkpt>
      <trkpt lat="45.5045" lon="3.31084">
        <ele>397</ele>
        <time>2019-12-19T00:11:28Z</time>
      </trkpt>
      <trkpt lat="45.50357" lon="3.31068">
        <ele>399</ele>
        <time>2019-12-19T00:11:45Z</time>
      </trkpt>
      <trkpt lat="45.50282" lon="3.31051">
        <ele>400</ele>
        <time>2019-12-19T00:11:58Z</time>
      </trkpt>
      <trkpt lat="45.50253" lon="3.31042">
        <ele>400</ele>
        <time>2019-12-19T00:12:04Z</time>
      </trkpt>
      <trkpt lat="45.50186" lon="3.31015">
        <ele>400</ele>
        <time>2019-12-19T00:12:16Z</time>
      </trkpt>
      <trkpt lat="45.49948" lon="3.30952">
        <ele>405</ele>
        <time>2019-12-19T00:12:59Z</time>
      </trkpt>
      <trkpt lat="45.49891" lon="3.30944">
        <ele>406</ele>
        <time>2019-12-19T00:13:09Z</time>
      </trkpt>
      <trkpt lat="45.49879" lon="3.30944">
        <ele>406</ele>
        <time>2019-12-19T00:13:11Z</time>
      </trkpt>
      <trkpt lat="45.49649" lon="3.31045">
        <ele>408</ele>
        <time>2019-12-19T00:13:54Z</time>
      </trkpt>
      <trkpt lat="45.49587" lon="3.31087">
        <ele>408</ele>
        <time>2019-12-19T00:14:06Z</time>
      </trkpt>
      <trkpt lat="45.49561" lon="3.31122">
        <ele>409</ele>
        <time>2019-12-19T00:14:13Z</time>
      </trkpt>
      <trkpt lat="45.4953" lon="3.31177">
        <ele>410</ele>
        <time>2019-12-19T00:14:22Z</time>
      </trkpt>
      <trkpt lat="45.49502" lon="3.31238">
        <ele>411</ele>
        <time>2019-12-19T00:14:31Z</time>
      </trkpt>
      <trkpt lat="45.49487" lon="3.31254">
        <ele>411</ele>
        <time>2019-12-19T00:14:34Z</time>
      </trkpt>
      <trkpt lat="45.49438" lon="3.3129">
        <ele>411</ele>
        <time>2019-12-19T00:14:44Z</time>
      </trkpt>
      <trkpt lat="45.49421" lon="3.31312">
        <ele>411</ele>
        <time>2019-12-19T00:14:48Z</time>
      </trkpt>
      <trkpt lat="45.4937" lon="3.3141">
        <ele>412</ele>
        <time>2019-12-19T00:15:03Z</time>
      </trkpt>
      <trkpt lat="45.49347" lon="3.31487">
        <ele>414</ele>
        <time>2019-12-19T00:15:13Z</time>
      </trkpt>
      <trkpt lat="45.49296" lon="3.31551">
        <ele>414</ele>
        <time>2019-12-19T00:15:26Z</time>
      </trkpt>
      <trkpt lat="45.49282" lon="3.31601">
        <ele>415</ele>
        <time>2019-12-19T00:15:32Z</time>
      </trkpt>
      <trkpt lat="45.49272" lon="3.31652">
        <ele>416</ele>
        <time>2019-12-19T00:15:39Z</time>
      </trkpt>
      <trkpt lat="45.49261" lon="3.3169">
        <ele>416</ele>
        <time>2019-12-19T00:15:44Z</time>
      </trkpt>
      <trkpt lat="45.49206" lon="3.31784">
        <ele>415</ele>
        <time>2019-12-19T00:15:59Z</time>
      </trkpt>
      <trkpt lat="45.49168" lon="3.31872">
        <ele>415</ele>
        <time>2019-12-19T00:16:12Z</time>
      </trkpt>
      <trkpt lat="45.49155" lon="3.31918">
        <ele>415</ele>
        <time>2019-12-19T00:16:18Z</time>
      </trkpt>
      <trkpt lat="45.49148" lon="3.31961">
        <ele>416</ele>
        <time>2019-12-19T00:16:24Z</time>
      </trkpt>
      <trkpt lat="45.49135" lon="3.31953">
        <ele>416</ele>
        <time>2019-12-19T00:16:26Z</time>
      </trkpt>
      <trkpt lat="45.49122" lon="3.31949">
        <ele>416</ele>
        <time>2019-12-19T00:16:29Z</time>
      </trkpt>
      <trkpt lat="45.49092" lon="3.3194">
        <ele>417</ele>
        <time>2019-12-19T00:16:34Z</time>
      </trkpt>
      <trkpt lat="45.4908" lon="3.31933">
        <ele>417</ele>
        <time>2019-12-19T00:16:37Z</time>
      </trkpt>
      <trkpt lat="45.49055" lon="3.31909">
        <ele>418</ele>
        <time>2019-12-19T00:16:42Z</time>
      </trkpt>
      <trkpt lat="45.49052" lon="3.31909">
        <ele>418</ele>
        <time>2019-12-19T00:16:42Z</time>
      </trkpt>
      <trkpt lat="45.49052" lon="3.3189">
        <ele>418</ele>
        <time>2019-12-19T00:16:45Z</time>
      </trkpt>
      <trkpt lat="45.49049" lon="3.31872">
        <ele>418</ele>
        <time>2019-12-19T00:16:47Z</time>
      </trkpt>
      <trkpt lat="45.49041" lon="3.31841">
        <ele>418</ele>
        <time>2019-12-19T00:16:51Z</time>
      </trkpt>
      <trkpt lat="45.4904" lon="3.31831">
        <ele>418</ele>
        <time>2019-12-19T00:16:52Z</time>
      </trkpt>
      <trkpt lat="45.49048" lon="3.31786">
        <ele>417</ele>
        <time>2019-12-19T00:16:58Z</time>
      </trkpt>
      <trkpt lat="45.49048" lon="3.31774">
        <ele>416</ele>
        <time>2019-12-19T00:17:00Z</time>
      </trkpt>
      <trkpt lat="45.49044" lon="3.31767">
        <ele>417</ele>
        <time>2019-12-19T00:17:01Z</time>
      </trkpt>
      <trkpt lat="45.49036" lon="3.31762">
        <ele>417</ele>
        <time>2019-12-19T00:17:02Z</time>
      </trkpt>
      <trkpt lat="45.48987" lon="3.31719">
        <ele>420</ele>
        <time>2019-12-19T00:17:13Z</time>
      </trkpt>
      <trkpt lat="45.48887" lon="3.3163">
        <ele>433</ele>
        <time>2019-12-19T00:17:34Z</time>
      </trkpt>
      <trkpt lat="45.48773" lon="3.31544">
        <ele>444</ele>
        <time>2019-12-19T00:17:57Z</time>
      </trkpt>
      <trkpt lat="45.48754" lon="3.31532">
        <ele>446</ele>
        <time>2019-12-19T00:18:00Z</time>
      </trkpt>
      <trkpt lat="45.48739" lon="3.31526">
        <ele>447</ele>
        <time>2019-12-19T00:18:03Z</time>
      </trkpt>
      <trkpt lat="45.48718" lon="3.31523">
        <ele>448</ele>
        <time>2019-12-19T00:18:07Z</time>
      </trkpt>
      <trkpt lat="45.48697" lon="3.31525">
        <ele>449</ele>
        <time>2019-12-19T00:18:11Z</time>
      </trkpt>
      <trkpt lat="45.48651" lon="3.31531">
        <ele>450</ele>
        <time>2019-12-19T00:18:19Z</time>
      </trkpt>
      <trkpt lat="45.48627" lon="3.31538">
        <ele>451</ele>
        <time>2019-12-19T00:18:23Z</time>
      </trkpt>
      <trkpt lat="45.48545" lon="3.31569">
        <ele>453</ele>
        <time>2019-12-19T00:18:38Z</time>
      </trkpt>
      <trkpt lat="45.48266" lon="3.31716">
        <ele>462</ele>
        <time>2019-12-19T00:19:31Z</time>
      </trkpt>
      <trkpt lat="45.48171" lon="3.31749">
        <ele>467</ele>
        <time>2019-12-19T00:19:49Z</time>
      </trkpt>
      <trkpt lat="45.48162" lon="3.31818">
        <ele>466</ele>
        <time>2019-12-19T00:19:57Z</time>
      </trkpt>
      <trkpt lat="45.48153" lon="3.3186">
        <ele>466</ele>
        <time>2019-12-19T00:20:03Z</time>
      </trkpt>
      <trkpt lat="45.48141" lon="3.31887">
        <ele>466</ele>
        <time>2019-12-19T00:20:07Z</time>
      </trkpt>
      <trkpt lat="45.4811" lon="3.31952">
        <ele>466</ele>
        <time>2019-12-19T00:20:17Z</time>
      </trkpt>
      <trkpt lat="45.48099" lon="3.31969">
        <ele>466</ele>
        <time>2019-12-19T00:20:19Z</time>
      </trkpt>
      <trkpt lat="45.48086" lon="3.31984">
        <ele>467</ele>
        <time>2019-12-19T00:20:22Z</time>
      </trkpt>
      <trkpt lat="45.48072" lon="3.31995">
        <ele>467</ele>
        <time>2019-12-19T00:20:25Z</time>
      </trkpt>
      <trkpt lat="45.4797" lon="3.32063">
        <ele>468</ele>
        <time>2019-12-19T00:20:45Z</time>
      </trkpt>
      <trkpt lat="45.47955" lon="3.3207">
        <ele>469</ele>
        <time>2019-12-19T00:20:48Z</time>
      </trkpt>
      <trkpt lat="45.47939" lon="3.32072">
        <ele>469</ele>
        <time>2019-12-19T00:20:51Z</time>
      </trkpt>
      <trkpt lat="45.47805" lon="3.32081">
        <ele>473</ele>
        <time>2019-12-19T00:21:15Z</time>
      </trkpt>
      <trkpt lat="45.47616" lon="3.32109">
        <ele>481</ele>
        <time>2019-12-19T00:21:49Z</time>
      </trkpt>
      <trkpt lat="45.47595" lon="3.32115">
        <ele>482</ele>
        <time>2019-12-19T00:21:52Z</time>
      </trkpt>
      <trkpt lat="45.47567" lon="3.32126">
        <ele>483</ele>
        <time>2019-12-19T00:21:58Z</time>
      </trkpt>
      <trkpt lat="45.47518" lon="3.3215">
        <ele>486</ele>
        <time>2019-12-19T00:22:07Z</time>
      </trkpt>
      <trkpt lat="45.47514" lon="3.32075">
        <ele>486</ele>
        <time>2019-12-19T00:22:16Z</time>
      </trkpt>
      <trkpt lat="45.47517" lon="3.32038">
        <ele>485</ele>
        <time>2019-12-19T00:22:21Z</time>
      </trkpt>
      <trkpt lat="45.47558" lon="3.31835">
        <ele>483</ele>
        <time>2019-12-19T00:22:47Z</time>
      </trkpt>
      <trkpt lat="45.47562" lon="3.31759">
        <ele>482</ele>
        <time>2019-12-19T00:22:57Z</time>
      </trkpt>
      <trkpt lat="45.47553" lon="3.3166">
        <ele>481</ele>
        <time>2019-12-19T00:23:09Z</time>
      </trkpt>
      <trkpt lat="45.47552" lon="3.31625">
        <ele>482</ele>
        <time>2019-12-19T00:23:14Z</time>
      </trkpt>
      <trkpt lat="45.47556" lon="3.31582">
        <ele>482</ele>
        <time>2019-12-19T00:23:19Z</time>
      </trkpt>
      <trkpt lat="45.4759" lon="3.31316">
        <ele>485</ele>
        <time>2019-12-19T00:23:53Z</time>
      </trkpt>
      <trkpt lat="45.47623" lon="3.31143">
        <ele>485</ele>
        <time>2019-12-19T00:24:15Z</time>
      </trkpt>
      <trkpt lat="45.47627" lon="3.31112">
        <ele>485</ele>
        <time>2019-12-19T00:24:19Z</time>
      </trkpt>
      <trkpt lat="45.47633" lon="3.31037">
        <ele>482</ele>
        <time>2019-12-19T00:24:28Z</time>
      </trkpt>
      <trkpt lat="45.4763" lon="3.31022">
        <ele>482</ele>
        <time>2019-12-19T00:24:30Z</time>
      </trkpt>
      <trkpt lat="45.47621" lon="3.31006">
        <ele>481</ele>
        <time>2019-12-19T00:24:33Z</time>
      </trkpt>
      <trkpt lat="45.47608" lon="3.31001">
        <ele>480</ele>
        <time>2019-12-19T00:24:35Z</time>
      </trkpt>
      <trkpt lat="45.47593" lon="3.31004">
        <ele>480</ele>
        <time>2019-12-19T00:24:38Z</time>
      </trkpt>
      <trkpt lat="45.47542" lon="3.3103">
        <ele>477</ele>
        <time>2019-12-19T00:24:48Z</time>
      </trkpt>
      <trkpt lat="45.47477" lon="3.31052">
        <ele>473</ele>
        <time>2019-12-19T00:25:00Z</time>
      </trkpt>
      <trkpt lat="45.47415" lon="3.31083">
        <ele>471</ele>
        <time>2019-12-19T00:25:11Z</time>
      </trkpt>
      <trkpt lat="45.47363" lon="3.31104">
        <ele>469</ele>
        <time>2019-12-19T00:25:21Z</time>
      </trkpt>
      <trkpt lat="45.47344" lon="3.31108">
        <ele>467</ele>
        <time>2019-12-19T00:25:24Z</time>
      </trkpt>
      <trkpt lat="45.47334" lon="3.31106">
        <ele>466</ele>
        <time>2019-12-19T00:25:26Z</time>
      </trkpt>
      <trkpt lat="45.47327" lon="3.31098">
        <ele>463</ele>
        <time>2019-12-19T00:25:28Z</time>
      </trkpt>
      <trkpt lat="45.47325" lon="3.31086">
        <ele>459</ele>
        <time>2019-12-19T00:25:29Z</time>
      </trkpt>
      <trkpt lat="45.47328" lon="3.31075">
        <ele>457</ele>
        <time>2019-12-19T00:25:31Z</time>
      </trkpt>
      <trkpt lat="45.47336" lon="3.31066">
        <ele>456</ele>
        <time>2019-12-19T00:25:33Z</time>
      </trkpt>
      <trkpt lat="45.47348" lon="3.31061">
        <ele>457</ele>
        <time>2019-12-19T00:25:35Z</time>
      </trkpt>
      <trkpt lat="45.47367" lon="3.31058">
        <ele>459</ele>
        <time>2019-12-19T00:25:38Z</time>
      </trkpt>
      <trkpt lat="45.47385" lon="3.31052">
        <ele>460</ele>
        <time>2019-12-19T00:25:41Z</time>
      </trkpt>
      <trkpt lat="45.47397" lon="3.31043">
        <ele>459</ele>
        <time>2019-12-19T00:25:44Z</time>
      </trkpt>
      <trkpt lat="45.47454" lon="3.30977">
        <ele>453</ele>
        <time>2019-12-19T00:25:57Z</time>
      </trkpt>
      <trkpt lat="45.47484" lon="3.30935">
        <ele>449</ele>
        <time>2019-12-19T00:26:04Z</time>
      </trkpt>
      <trkpt lat="45.4751" lon="3.30891">
        <ele>446</ele>
        <time>2019-12-19T00:26:12Z</time>
      </trkpt>
      <trkpt lat="45.47526" lon="3.30855">
        <ele>444</ele>
        <time>2019-12-19T00:26:17Z</time>
      </trkpt>
      <trkpt lat="45.47533" lon="3.30823">
        <ele>442</ele>
        <time>2019-12-19T00:26:21Z</time>
      </trkpt>
      <trkpt lat="45.47544" lon="3.30761">
        <ele>439</ele>
        <time>2019-12-19T00:26:29Z</time>
      </trkpt>
      <trkpt lat="45.47562" lon="3.30684">
        <ele>434</ele>
        <time>2019-12-19T00:26:39Z</time>
      </trkpt>
      <trkpt lat="45.47567" lon="3.30646">
        <ele>431</ele>
        <time>2019-12-19T00:26:44Z</time>
      </trkpt>
      <trkpt lat="45.47571" lon="3.30595">
        <ele>427</ele>
        <time>2019-12-19T00:26:50Z</time>
      </trkpt>
      <trkpt lat="45.47579" lon="3.30549">
        <ele>425</ele>
        <time>2019-12-19T00:26:56Z</time>
      </trkpt>
      <trkpt lat="45.47583" lon="3.30515">
        <ele>423</ele>
        <time>2019-12-19T00:27:01Z</time>
      </trkpt>
      <trkpt lat="45.47596" lon="3.30429">
        <ele>422</ele>
        <time>2019-12-19T00:27:12Z</time>
      </trkpt>
      <trkpt lat="45.476" lon="3.30383">
        <ele>420</ele>
        <time>2019-12-19T00:27:17Z</time>
      </trkpt>
      <trkpt lat="45.47602" lon="3.30345">
        <ele>417</ele>
        <time>2019-12-19T00:27:22Z</time>
      </trkpt>
      <trkpt lat="45.47616" lon="3.30235">
        <ele>411</ele>
        <time>2019-12-19T00:27:36Z</time>
      </trkpt>
      <trkpt lat="45.4764" lon="3.30065">
        <ele>404</ele>
        <time>2019-12-19T00:27:58Z</time>
      </trkpt>
      <trkpt lat="45.4764" lon="3.30023">
        <ele>401</ele>
        <time>2019-12-19T00:28:03Z</time>
      </trkpt>
      <trkpt lat="45.47622" lon="3.29969">
        <ele>399</ele>
        <time>2019-12-19T00:28:10Z</time>
      </trkpt>
      <trkpt lat="45.47609" lon="3.29954">
        <ele>398</ele>
        <time>2019-12-19T00:28:13Z</time>
      </trkpt>
      <trkpt lat="45.47598" lon="3.29946">
        <ele>397</ele>
        <time>2019-12-19T00:28:16Z</time>
      </trkpt>
      <trkpt lat="45.4759" lon="3.29937">
        <ele>397</ele>
        <time>2019-12-19T00:28:17Z</time>
      </trkpt>
      <trkpt lat="45.47566" lon="3.29888">
        <ele>395</ele>
        <time>2019-12-19T00:28:25Z</time>
      </trkpt>
      <trkpt lat="45.47567" lon="3.29868">
        <ele>394</ele>
        <time>2019-12-19T00:28:27Z</time>
      </trkpt>
      <trkpt lat="45.47572" lon="3.29779">
        <ele>394</ele>
        <time>2019-12-19T00:28:39Z</time>
      </trkpt>
      <trkpt lat="45.47579" lon="3.29734">
        <ele>395</ele>
        <time>2019-12-19T00:28:44Z</time>
      </trkpt>
      <trkpt lat="45.47597" lon="3.29551">
        <ele>393</ele>
        <time>2019-12-19T00:29:07Z</time>
      </trkpt>
      <trkpt lat="45.47612" lon="3.29341">
        <ele>392</ele>
        <time>2019-12-19T00:29:34Z</time>
      </trkpt>
      <trkpt lat="45.47622" lon="3.29304">
        <ele>392</ele>
        <time>2019-12-19T00:29:39Z</time>
      </trkpt>
      <trkpt lat="45.4762" lon="3.29291">
        <ele>392</ele>
        <time>2019-12-19T00:29:40Z</time>
      </trkpt>
      <trkpt lat="45.47615" lon="3.29283">
        <ele>391</ele>
        <time>2019-12-19T00:29:42Z</time>
      </trkpt>
      <trkpt lat="45.4759" lon="3.29142">
        <ele>391</ele>
        <time>2019-12-19T00:30:00Z</time>
      </trkpt>
      <trkpt lat="45.47586" lon="3.29128">
        <ele>391</ele>
        <time>2019-12-19T00:30:02Z</time>
      </trkpt>
      <trkpt lat="45.47582" lon="3.2912">
        <ele>391</ele>
        <time>2019-12-19T00:30:03Z</time>
      </trkpt>
      <trkpt lat="45.47576" lon="3.29111">
        <ele>391</ele>
        <time>2019-12-19T00:30:04Z</time>
      </trkpt>
      <trkpt lat="45.47505" lon="3.29015">
        <ele>387</ele>
        <time>2019-12-19T00:30:22Z</time>
      </trkpt>
      <trkpt lat="45.47481" lon="3.28887">
        <ele>387</ele>
        <time>2019-12-19T00:30:38Z</time>
      </trkpt>
      <trkpt lat="45.4747" lon="3.28846">
        <ele>387</ele>
        <time>2019-12-19T00:30:44Z</time>
      </trkpt>
      <trkpt lat="45.47432" lon="3.28747">
        <ele>387</ele>
        <time>2019-12-19T00:30:58Z</time>
      </trkpt>
      <trkpt lat="45.47427" lon="3.28718">
        <ele>388</ele>
        <time>2019-12-19T00:31:02Z</time>
      </trkpt>
      <trkpt lat="45.47429" lon="3.28692">
        <ele>388</ele>
        <time>2019-12-19T00:31:05Z</time>
      </trkpt>
      <trkpt lat="45.47436" lon="3.28654">
        <ele>388</ele>
        <time>2019-12-19T00:31:10Z</time>
      </trkpt>
      <trkpt lat="45.47442" lon="3.28614">
        <ele>388</ele>
        <time>2019-12-19T00:31:15Z</time>
      </trkpt>
      <trkpt lat="45.47442" lon="3.28566">
        <ele>388</ele>
        <time>2019-12-19T00:31:21Z</time>
      </trkpt>
      <trkpt lat="45.47431" lon="3.28495">
        <ele>389</ele>
        <time>2019-12-19T00:31:30Z</time>
      </trkpt>
      <trkpt lat="45.47421" lon="3.28471">
        <ele>390</ele>
        <time>2019-12-19T00:31:33Z</time>
      </trkpt>
      <trkpt lat="45.47409" lon="3.28456">
        <ele>391</ele>
        <time>2019-12-19T00:31:36Z</time>
      </trkpt>
      <trkpt lat="45.47391" lon="3.28447">
        <ele>391</ele>
        <time>2019-12-19T00:31:40Z</time>
      </trkpt>
      <trkpt lat="45.47312" lon="3.28431">
        <ele>390</ele>
        <time>2019-12-19T00:31:54Z</time>
      </trkpt>
      <trkpt lat="45.47282" lon="3.28419">
        <ele>390</ele>
        <time>2019-12-19T00:31:59Z</time>
      </trkpt>
      <trkpt lat="45.47264" lon="3.28409">
        <ele>391</ele>
        <time>2019-12-19T00:32:03Z</time>
      </trkpt>
      <trkpt lat="45.47158" lon="3.28327">
        <ele>394</ele>
        <time>2019-12-19T00:32:24Z</time>
      </trkpt>
      <trkpt lat="45.47082" lon="3.28245">
        <ele>394</ele>
        <time>2019-12-19T00:32:41Z</time>
      </trkpt>
      <trkpt lat="45.47008" lon="3.28157">
        <ele>397</ele>
        <time>2019-12-19T00:32:58Z</time>
      </trkpt>
      <trkpt lat="45.46995" lon="3.28135">
        <ele>397</ele>
        <time>2019-12-19T00:33:02Z</time>
      </trkpt>
      <trkpt lat="45.46958" lon="3.28031">
        <ele>401</ele>
        <time>2019-12-19T00:33:17Z</time>
      </trkpt>
      <trkpt lat="45.46932" lon="3.27975">
        <ele>395</ele>
        <time>2019-12-19T00:33:25Z</time>
      </trkpt>
      <trkpt lat="45.46928" lon="3.27971">
        <ele>393</ele>
        <time>2019-12-19T00:33:26Z</time>
      </trkpt>
      <trkpt lat="45.46921" lon="3.27988">
        <ele>392</ele>
        <time>2019-12-19T00:33:28Z</time>
      </trkpt>
      <trkpt lat="45.46894" lon="3.28013">
        <ele>390</ele>
        <time>2019-12-19T00:33:34Z</time>
      </trkpt>
      <trkpt lat="45.46794" lon="3.28101">
        <ele>387</ele>
        <time>2019-12-19T00:33:55Z</time>
      </trkpt>
      <trkpt lat="45.46764" lon="3.28128">
        <ele>389</ele>
        <time>2019-12-19T00:34:01Z</time>
      </trkpt>
      <trkpt lat="45.46742" lon="3.28143">
        <ele>389</ele>
        <time>2019-12-19T00:34:06Z</time>
      </trkpt>
      <trkpt lat="45.46721" lon="3.2815">
        <ele>389</ele>
        <time>2019-12-19T00:34:09Z</time>
      </trkpt>
      <trkpt lat="45.467" lon="3.2815">
        <ele>388</ele>
        <time>2019-12-19T00:34:13Z</time>
      </trkpt>
      <trkpt lat="45.46262" lon="3.28114">
        <ele>386</ele>
        <time>2019-12-19T00:35:31Z</time>
      </trkpt>
      <trkpt lat="45.46264" lon="3.28001">
        <ele>388</ele>
        <time>2019-12-19T00:35:45Z</time>
      </trkpt>
      <trkpt lat="45.46268" lon="3.27887">
        <ele>388</ele>
        <time>2019-12-19T00:36:00Z</time>
      </trkpt>
      <trkpt lat="45.46292" lon="3.26814">
        <ele>393</ele>
        <time>2019-12-19T00:38:14Z</time>
      </trkpt>
      <trkpt lat="45.46296" lon="3.26764">
        <ele>393</ele>
        <time>2019-12-19T00:38:20Z</time>
      </trkpt>
      <trkpt lat="45.46306" lon="3.26689">
        <ele>392</ele>
        <time>2019-12-19T00:38:29Z</time>
      </trkpt>
      <trkpt lat="45.46311" lon="3.26663">
        <ele>392</ele>
        <time>2019-12-19T00:38:33Z</time>
      </trkpt>
      <trkpt lat="45.46319" lon="3.26638">
        <ele>392</ele>
        <time>2019-12-19T00:38:36Z</time>
      </trkpt>
      <trkpt lat="45.46328" lon="3.26611">
        <ele>393</ele>
        <time>2019-12-19T00:38:40Z</time>
      </trkpt>
      <trkpt lat="45.46401" lon="3.26479">
        <ele>393</ele>
        <time>2019-12-19T00:39:01Z</time>
      </trkpt>
      <trkpt lat="45.46411" lon="3.26451">
        <ele>393</ele>
        <time>2019-12-19T00:39:05Z</time>
      </trkpt>
      <trkpt lat="45.46413" lon="3.26428">
        <ele>394</ele>
        <time>2019-12-19T00:39:08Z</time>
      </trkpt>
      <trkpt lat="45.46412" lon="3.26409">
        <ele>395</ele>
        <time>2019-12-19T00:39:10Z</time>
      </trkpt>
      <trkpt lat="45.46407" lon="3.26359">
        <ele>397</ele>
        <time>2019-12-19T00:39:16Z</time>
      </trkpt>
      <trkpt lat="45.46392" lon="3.26215">
        <ele>400</ele>
        <time>2019-12-19T00:39:34Z</time>
      </trkpt>
      <trkpt lat="45.46382" lon="3.26166">
        <ele>401</ele>
        <time>2019-12-19T00:39:41Z</time>
      </trkpt>
      <trkpt lat="45.46368" lon="3.26115">
        <ele>402</ele>
        <time>2019-12-19T00:39:48Z</time>
      </trkpt>
      <trkpt lat="45.46335" lon="3.26032">
        <ele>404</ele>
        <time>2019-12-19T00:40:00Z</time>
      </trkpt>
      <trkpt lat="45.46268" lon="3.2583">
        <ele>406</ele>
        <time>2019-12-19T00:40:27Z</time>
      </trkpt>
      <trkpt lat="45.46248" lon="3.25786">
        <ele>405</ele>
        <time>2019-12-19T00:40:34Z</time>
      </trkpt>
      <trkpt lat="45.46214" lon="3.2572">
        <ele>405</ele>
        <time>2019-12-19T00:40:44Z</time>
      </trkpt>
      <trkpt lat="45.46193" lon="3.25685">
        <ele>405</ele>
        <time>2019-12-19T00:40:50Z</time>
      </trkpt>
      <trkpt lat="45.46159" lon="3.2562">
        <ele>404</ele>
        <time>2019-12-19T00:41:00Z</time>
      </trkpt>
      <trkpt lat="45.46131" lon="3.25559">
        <ele>405</ele>
        <time>2019-12-19T00:41:09Z</time>
      </trkpt>
      <trkpt lat="45.4612" lon="3.2553">
        <ele>405</ele>
        <time>2019-12-19T00:41:13Z</time>
      </trkpt>
      <trkpt lat="45.46095" lon="3.25442">
        <ele>406</ele>
        <time>2019-12-19T00:41:25Z</time>
      </trkpt>
      <trkpt lat="45.46059" lon="3.25287">
        <ele>406</ele>
        <time>2019-12-19T00:41:46Z</time>
      </trkpt>
      <trkpt lat="45.46044" lon="3.25205">
        <ele>404</ele>
        <time>2019-12-19T00:41:56Z</time>
      </trkpt>
      <trkpt lat="45.46042" lon="3.25183">
        <ele>404</ele>
        <time>2019-12-19T00:41:59Z</time>
      </trkpt>
      <trkpt lat="45.4604" lon="3.2515">
        <ele>403</ele>
        <time>2019-12-19T00:42:03Z</time>
      </trkpt>
      <trkpt lat="45.46045" lon="3.25145">
        <ele>403</ele>
        <time>2019-12-19T00:42:04Z</time>
      </trkpt>
      <trkpt lat="45.46047" lon="3.25138">
        <ele>403</ele>
        <time>2019-12-19T00:42:05Z</time>
      </trkpt>
      <trkpt lat="45.46046" lon="3.25124">
        <ele>403</ele>
        <time>2019-12-19T00:42:07Z</time>
      </trkpt>
      <trkpt lat="45.46043" lon="3.25119">
        <ele>403</ele>
        <time>2019-12-19T00:42:08Z</time>
      </trkpt>
      <trkpt lat="45.46035" lon="3.25113">
        <ele>403</ele>
        <time>2019-12-19T00:42:09Z</time>
      </trkpt>
      <trkpt lat="45.46025" lon="3.25096">
        <ele>404</ele>
        <time>2019-12-19T00:42:12Z</time>
      </trkpt>
      <trkpt lat="45.46017" lon="3.25072">
        <ele>404</ele>
        <time>2019-12-19T00:42:15Z</time>
      </trkpt>
      <trkpt lat="45.45986" lon="3.24961">
        <ele>404</ele>
        <time>2019-12-19T00:42:30Z</time>
      </trkpt>
      <trkpt lat="45.45972" lon="3.24901">
        <ele>405</ele>
        <time>2019-12-19T00:42:38Z</time>
      </trkpt>
      <trkpt lat="45.45965" lon="3.24855">
        <ele>405</ele>
        <time>2019-12-19T00:42:44Z</time>
      </trkpt>
      <trkpt lat="45.45937" lon="3.24553">
        <ele>405</ele>
        <time>2019-12-19T00:43:22Z</time>
      </trkpt>
      <trkpt lat="45.45924" lon="3.24309">
        <ele>406</ele>
        <time>2019-12-19T00:43:53Z</time>
      </trkpt>
      <trkpt lat="45.45918" lon="3.2425">
        <ele>406</ele>
        <time>2019-12-19T00:44:00Z</time>
      </trkpt>
      <trkpt lat="45.45907" lon="3.24202">
        <ele>407</ele>
        <time>2019-12-19T00:44:06Z</time>
      </trkpt>
      <trkpt lat="45.45864" lon="3.24068">
        <ele>411</ele>
        <time>2019-12-19T00:44:25Z</time>
      </trkpt>
      <trkpt lat="45.45864" lon="3.24049">
        <ele>411</ele>
        <time>2019-12-19T00:44:27Z</time>
      </trkpt>
      <trkpt lat="45.45873" lon="3.24031">
        <ele>411</ele>
        <time>2019-12-19T00:44:30Z</time>
      </trkpt>
      <trkpt lat="45.45909" lon="3.23978">
        <ele>410</ele>
        <time>2019-12-19T00:44:39Z</time>
      </trkpt>
      <trkpt lat="45.45917" lon="3.23949">
        <ele>410</ele>
        <time>2019-12-19T00:44:43Z</time>
      </trkpt>
      <trkpt lat="45.45922" lon="3.2392">
        <ele>410</ele>
        <time>2019-12-19T00:44:47Z</time>
      </trkpt>
      <trkpt lat="45.45933" lon="3.23909">
        <ele>410</ele>
        <time>2019-12-19T00:44:49Z</time>
      </trkpt>
      <trkpt lat="45.45936" lon="3.23898">
        <ele>410</ele>
        <time>2019-12-19T00:44:51Z</time>
      </trkpt>
      <trkpt lat="45.45947" lon="3.23906">
        <ele>409</ele>
        <time>2019-12-19T00:44:53Z</time>
      </trkpt>
      <trkpt lat="45.4598" lon="3.23909">
        <ele>409</ele>
        <time>2019-12-19T00:44:59Z</time>
      </trkpt>
      <trkpt lat="45.46016" lon="3.23904">
        <ele>408</ele>
        <time>2019-12-19T00:45:05Z</time>
      </trkpt>
      <trkpt lat="45.4607" lon="3.23893">
        <ele>408</ele>
        <time>2019-12-19T00:45:15Z</time>
      </trkpt>
      <trkpt lat="45.46109" lon="3.23882">
        <ele>407</ele>
        <time>2019-12-19T00:45:22Z</time>
      </trkpt>
      <trkpt lat="45.46187" lon="3.23851">
        <ele>404</ele>
        <time>2019-12-19T00:45:36Z</time>
      </trkpt>
      <trkpt lat="45.46219" lon="3.23829">
        <ele>404</ele>
        <time>2019-12-19T00:45:43Z</time>
      </trkpt>
      <trkpt lat="45.46252" lon="3.23808">
        <ele>404</ele>
        <time>2019-12-19T00:45:49Z</time>
      </trkpt>
      <trkpt lat="45.46318" lon="3.23765">
        <ele>405</ele>
        <time>2019-12-19T00:46:02Z</time>
      </trkpt>
      <trkpt lat="45.46404" lon="3.23703">
        <ele>405</ele>
        <time>2019-12-19T00:46:19Z</time>
      </trkpt>
      <trkpt lat="45.4645" lon="3.23674">
        <ele>408</ele>
        <time>2019-12-19T00:46:28Z</time>
      </trkpt>
      <trkpt lat="45.46455" lon="3.23647">
        <ele>408</ele>
        <time>2019-12-19T00:46:31Z</time>
      </trkpt>
      <trkpt lat="45.46448" lon="3.23625">
        <ele>407</ele>
        <time>2019-12-19T00:46:34Z</time>
      </trkpt>
      <trkpt lat="45.46417" lon="3.23557">
        <ele>406</ele>
        <time>2019-12-19T00:46:45Z</time>
      </trkpt>
      <trkpt lat="45.46376" lon="3.23443">
        <ele>407</ele>
        <time>2019-12-19T00:47:01Z</time>
      </trkpt>
      <trkpt lat="45.46351" lon="3.23355">
        <ele>409</ele>
        <time>2019-12-19T00:47:12Z</time>
      </trkpt>
      <trkpt lat="45.46344" lon="3.2332">
        <ele>409</ele>
        <time>2019-12-19T00:47:17Z</time>
      </trkpt>
      <trkpt lat="45.46326" lon="3.23152">
        <ele>410</ele>
        <time>2019-12-19T00:47:38Z</time>
      </trkpt>
      <trkpt lat="45.46291" lon="3.23002">
        <ele>410</ele>
        <time>2019-12-19T00:47:58Z</time>
      </trkpt>
      <trkpt lat="45.46236" lon="3.22684">
        <ele>417</ele>
        <time>2019-12-19T00:48:39Z</time>
      </trkpt>
      <trkpt lat="45.46223" lon="3.22636">
        <ele>418</ele>
        <time>2019-12-19T00:48:45Z</time>
      </trkpt>
      <trkpt lat="45.46147" lon="3.22536">
        <ele>417</ele>
        <time>2019-12-19T00:49:04Z</time>
      </trkpt>
      <trkpt lat="45.46103" lon="3.22436">
        <ele>417</ele>
        <time>2019-12-19T00:49:18Z</time>
      </trkpt>
      <trkpt lat="45.46089" lon="3.22409">
        <ele>417</ele>
        <time>2019-12-19T00:49:23Z</time>
      </trkpt>
      <trkpt lat="45.46071" lon="3.22385">
        <ele>417</ele>
        <time>2019-12-19T00:49:27Z</time>
      </trkpt>
      <trkpt lat="45.45998" lon="3.22309">
        <ele>419</ele>
        <time>2019-12-19T00:49:43Z</time>
      </trkpt>
      <trkpt lat="45.45979" lon="3.22286">
        <ele>421</ele>
        <time>2019-12-19T00:49:47Z</time>
      </trkpt>
      <trkpt lat="45.45929" lon="3.22205">
        <ele>422</ele>
        <time>2019-12-19T00:50:01Z</time>
      </trkpt>
      <trkpt lat="45.45888" lon="3.22156">
        <ele>420</ele>
        <time>2019-12-19T00:50:10Z</time>
      </trkpt>
      <trkpt lat="45.45831" lon="3.22108">
        <ele>418</ele>
        <time>2019-12-19T00:50:22Z</time>
      </trkpt>
      <trkpt lat="45.45799" lon="3.22075">
        <ele>419</ele>
        <time>2019-12-19T00:50:29Z</time>
      </trkpt>
      <trkpt lat="45.45754" lon="3.22003">
        <ele>418</ele>
        <time>2019-12-19T00:50:41Z</time>
      </trkpt>
      <trkpt lat="45.45738" lon="3.21972">
        <ele>418</ele>
        <time>2019-12-19T00:50:46Z</time>
      </trkpt>
      <trkpt lat="45.45695" lon="3.21855">
        <ele>418</ele>
        <time>2019-12-19T00:51:03Z</time>
      </trkpt>
      <trkpt lat="45.45572" lon="3.2158">
        <ele>421</ele>
        <time>2019-12-19T00:51:43Z</time>
      </trkpt>
      <trkpt lat="45.45537" lon="3.21513">
        <ele>422</ele>
        <time>2019-12-19T00:51:54Z</time>
      </trkpt>
      <trkpt lat="45.45467" lon="3.21412">
        <ele>424</ele>
        <time>2019-12-19T00:52:11Z</time>
      </trkpt>
      <trkpt lat="45.45433" lon="3.21351">
        <ele>424</ele>
        <time>2019-12-19T00:52:21Z</time>
      </trkpt>
      <trkpt lat="45.45419" lon="3.21319">
        <ele>424</ele>
        <time>2019-12-19T00:52:26Z</time>
      </trkpt>
      <trkpt lat="45.45408" lon="3.21285">
        <ele>425</ele>
        <time>2019-12-19T00:52:30Z</time>
      </trkpt>
      <trkpt lat="45.45366" lon="3.21079">
        <ele>428</ele>
        <time>2019-12-19T00:52:57Z</time>
      </trkpt>
      <trkpt lat="45.45274" lon="3.20734">
        <ele>440</ele>
        <time>2019-12-19T00:53:43Z</time>
      </trkpt>
      <trkpt lat="45.45262" lon="3.20678">
        <ele>439</ele>
        <time>2019-12-19T00:53:51Z</time>
      </trkpt>
      <trkpt lat="45.45233" lon="3.20464">
        <ele>438</ele>
        <time>2019-12-19T00:54:18Z</time>
      </trkpt>
      <trkpt lat="45.4523" lon="3.20423">
        <ele>438</ele>
        <time>2019-12-19T00:54:23Z</time>
      </trkpt>
      <trkpt lat="45.4523" lon="3.20241">
        <ele>438</ele>
        <time>2019-12-19T00:54:46Z</time>
      </trkpt>
      <trkpt lat="45.45233" lon="3.20144">
        <ele>440</ele>
        <time>2019-12-19T00:54:58Z</time>
      </trkpt>
      <trkpt lat="45.45239" lon="3.20093">
        <ele>440</ele>
        <time>2019-12-19T00:55:04Z</time>
      </trkpt>
      <trkpt lat="45.45281" lon="3.1988">
        <ele>443</ele>
        <time>2019-12-19T00:55:32Z</time>
      </trkpt>
      <trkpt lat="45.45301" lon="3.19708">
        <ele>445</ele>
        <time>2019-12-19T00:55:54Z</time>
      </trkpt>
      <trkpt lat="45.45311" lon="3.19672">
        <ele>445</ele>
        <time>2019-12-19T00:55:58Z</time>
      </trkpt>
      <trkpt lat="45.45346" lon="3.19577">
        <ele>447</ele>
        <time>2019-12-19T00:56:12Z</time>
      </trkpt>
      <trkpt lat="45.45411" lon="3.19335">
        <ele>449</ele>
        <time>2019-12-19T00:56:44Z</time>
      </trkpt>
      <trkpt lat="45.45421" lon="3.19309">
        <ele>449</ele>
        <time>2019-12-19T00:56:48Z</time>
      </trkpt>
      <trkpt lat="45.45449" lon="3.19262">
        <ele>450</ele>
        <time>2019-12-19T00:56:56Z</time>
      </trkpt>
      <trkpt lat="45.45481" lon="3.19175">
        <ele>449</ele>
        <time>2019-12-19T00:57:08Z</time>
      </trkpt>
      <trkpt lat="45.45492" lon="3.19153">
        <ele>449</ele>
        <time>2019-12-19T00:57:11Z</time>
      </trkpt>
      <trkpt lat="45.45508" lon="3.19129">
        <ele>450</ele>
        <time>2019-12-19T00:57:15Z</time>
      </trkpt>
      <trkpt lat="45.45668" lon="3.18937">
        <ele>456</ele>
        <time>2019-12-19T00:57:53Z</time>
      </trkpt>
      <trkpt lat="45.45736" lon="3.18844">
        <ele>458</ele>
        <time>2019-12-19T00:58:09Z</time>
      </trkpt>
      <trkpt lat="45.45765" lon="3.18791">
        <ele>460</ele>
        <time>2019-12-19T00:58:18Z</time>
      </trkpt>
      <trkpt lat="45.458" lon="3.1873">
        <ele>462</ele>
        <time>2019-12-19T00:58:28Z</time>
      </trkpt>
      <trkpt lat="45.45833" lon="3.18604">
        <ele>463</ele>
        <time>2019-12-19T00:58:44Z</time>
      </trkpt>
      <trkpt lat="45.45846" lon="3.18574">
        <ele>464</ele>
        <time>2019-12-19T00:58:49Z</time>
      </trkpt>
      <trkpt lat="45.45859" lon="3.1855">
        <ele>465</ele>
        <time>2019-12-19T00:58:53Z</time>
      </trkpt>
      <trkpt lat="45.45846" lon="3.18529">
        <ele>464</ele>
        <time>2019-12-19T00:58:56Z</time>
      </trkpt>
      <trkpt lat="45.45834" lon="3.18514">
        <ele>463</ele>
        <time>2019-12-19T00:58:59Z</time>
      </trkpt>
      <trkpt lat="45.45816" lon="3.18477">
        <ele>463</ele>
        <time>2019-12-19T00:59:05Z</time>
      </trkpt>
      <trkpt lat="45.45819" lon="3.18464">
        <ele>463</ele>
        <time>2019-12-19T00:59:06Z</time>
      </trkpt>
      <trkpt lat="45.45839" lon="3.18424">
        <ele>463</ele>
        <time>2019-12-19T00:59:12Z</time>
      </trkpt>
      <trkpt lat="45.45819" lon="3.18396">
        <ele>464</ele>
        <time>2019-12-19T00:59:17Z</time>
      </trkpt>
      <trkpt lat="45.45812" lon="3.18383">
        <ele>465</ele>
        <time>2019-12-19T00:59:19Z</time>
      </trkpt>
      <trkpt lat="45.45811" lon="3.18381">
        <ele>465</ele>
        <time>2019-12-19T00:59:20Z</time>
      </trkpt>
      <trkpt lat="45.45828" lon="3.18357">
        <ele>465</ele>
        <time>2019-12-19T00:59:24Z</time>
      </trkpt>
      <trkpt lat="45.45853" lon="3.18334">
        <ele>465</ele>
        <time>2019-12-19T00:59:29Z</time>
      </trkpt>
      <trkpt lat="45.45863" lon="3.18318">
        <ele>465</ele>
        <time>2019-12-19T00:59:32Z</time>
      </trkpt>
      <trkpt lat="45.45863" lon="3.18305">
        <ele>465</ele>
        <time>2019-12-19T00:59:34Z</time>
      </trkpt>
      <trkpt lat="45.45858" lon="3.18294">
        <ele>465</ele>
        <time>2019-12-19T00:59:35Z</time>
      </trkpt>
      <trkpt lat="45.45841" lon="3.18273">
        <ele>465</ele>
        <time>2019-12-19T00:59:39Z</time>
      </trkpt>
      <trkpt lat="45.45837" lon="3.18262">
        <ele>465</ele>
        <time>2019-12-19T00:59:41Z</time>
      </trkpt>
      <trkpt lat="45.45839" lon="3.18221">
        <ele>467</ele>
        <time>2019-12-19T00:59:46Z</time>
      </trkpt>
      <trkpt lat="45.45836" lon="3.18159">
        <ele>470</ele>
        <time>2019-12-19T00:59:54Z</time>
      </trkpt>
      <trkpt lat="45.45832" lon="3.18127">
        <ele>473</ele>
        <time>2019-12-19T00:59:58Z</time>
      </trkpt>
      <trkpt lat="45.45795" lon="3.17941">
        <ele>485</ele>
        <time>2019-12-19T01:00:22Z</time>
      </trkpt>
      <trkpt lat="45.45789" lon="3.17916">
        <ele>486</ele>
        <time>2019-12-19T01:00:25Z</time>
      </trkpt>
      <trkpt lat="45.45774" lon="3.17886">
        <ele>485</ele>
        <time>2019-12-19T01:00:30Z</time>
      </trkpt>
      <trkpt lat="45.45765" lon="3.17862">
        <ele>486</ele>
        <time>2019-12-19T01:00:33Z</time>
      </trkpt>
      <trkpt lat="45.45758" lon="3.17826">
        <ele>486</ele>
        <time>2019-12-19T01:00:38Z</time>
      </trkpt>
      <trkpt lat="45.45762" lon="3.17787">
        <ele>489</ele>
        <time>2019-12-19T01:00:43Z</time>
      </trkpt>
      <trkpt lat="45.45753" lon="3.17749">
        <ele>490</ele>
        <time>2019-12-19T01:00:48Z</time>
      </trkpt>
      <trkpt lat="45.45745" lon="3.17656">
        <ele>498</ele>
        <time>2019-12-19T01:00:59Z</time>
      </trkpt>
      <trkpt lat="45.45739" lon="3.17618">
        <ele>500</ele>
        <time>2019-12-19T01:01:04Z</time>
      </trkpt>
      <trkpt lat="45.45727" lon="3.17588">
        <ele>501</ele>
        <time>2019-12-19T01:01:09Z</time>
      </trkpt>
      <trkpt lat="45.45706" lon="3.17565">
        <ele>500</ele>
        <time>2019-12-19T01:01:13Z</time>
      </trkpt>
      <trkpt lat="45.45667" lon="3.17502">
        <ele>501</ele>
        <time>2019-12-19T01:01:24Z</time>
      </trkpt>
      <trkpt lat="45.45654" lon="3.17457">
        <ele>507</ele>
        <time>2019-12-19T01:01:30Z</time>
      </trkpt>
      <trkpt lat="45.45634" lon="3.17413">
        <ele>511</ele>
        <time>2019-12-19T01:01:36Z</time>
      </trkpt>
      <trkpt lat="45.45575" lon="3.17325">
        <ele>515</ele>
        <time>2019-12-19T01:01:52Z</time>
      </trkpt>
      <trkpt lat="45.45567" lon="3.17286">
        <ele>521</ele>
        <time>2019-12-19T01:01:57Z</time>
      </trkpt>
      <trkpt lat="45.45568" lon="3.17257">
        <ele>526</ele>
        <time>2019-12-19T01:02:00Z</time>
      </trkpt>
      <trkpt lat="45.45564" lon="3.17238">
        <ele>528</ele>
        <time>2019-12-19T01:02:03Z</time>
      </trkpt>
      <trkpt lat="45.45523" lon="3.17193">
        <ele>526</ele>
        <time>2019-12-19T01:02:12Z</time>
      </trkpt>
      <trkpt lat="45.45507" lon="3.17162">
        <ele>527</ele>
        <time>2019-12-19T01:02:17Z</time>
      </trkpt>
      <trkpt lat="45.45506" lon="3.17151">
        <ele>529</ele>
        <time>2019-12-19T01:02:18Z</time>
      </trkpt>
      <trkpt lat="45.45507" lon="3.17162">
        <ele>527</ele>
        <time>2019-12-19T01:02:20Z</time>
      </trkpt>
      <trkpt lat="45.45523" lon="3.17193">
        <ele>526</ele>
        <time>2019-12-19T01:02:24Z</time>
      </trkpt>
      <trkpt lat="45.45564" lon="3.17238">
        <ele>528</ele>
        <time>2019-12-19T01:02:34Z</time>
      </trkpt>
      <trkpt lat="45.45568" lon="3.17257">
        <ele>526</ele>
        <time>2019-12-19T01:02:36Z</time>
      </trkpt>
      <trkpt lat="45.45567" lon="3.17286">
        <ele>521</ele>
        <time>2019-12-19T01:02:40Z</time>
      </trkpt>
      <trkpt lat="45.45575" lon="3.17325">
        <ele>515</ele>
        <time>2019-12-19T01:02:45Z</time>
      </trkpt>
      <trkpt lat="45.45634" lon="3.17413">
        <ele>511</ele>
        <time>2019-12-19T01:03:00Z</time>
      </trkpt>
      <trkpt lat="45.45654" lon="3.17457">
        <ele>507</ele>
        <time>2019-12-19T01:03:06Z</time>
      </trkpt>
      <trkpt lat="45.45667" lon="3.17502">
        <ele>501</ele>
        <time>2019-12-19T01:03:13Z</time>
      </trkpt>
      <trkpt lat="45.45706" lon="3.17565">
        <ele>500</ele>
        <time>2019-12-19T01:03:23Z</time>
      </trkpt>
      <trkpt lat="45.45727" lon="3.17588">
        <ele>501</ele>
        <time>2019-12-19T01:03:28Z</time>
      </trkpt>
      <trkpt lat="45.45739" lon="3.17618">
        <ele>500</ele>
        <time>2019-12-19T01:03:32Z</time>
      </trkpt>
      <trkpt lat="45.45745" lon="3.17656">
        <ele>498</ele>
        <time>2019-12-19T01:03:37Z</time>
      </trkpt>
      <trkpt lat="45.45753" lon="3.17749">
        <ele>490</ele>
        <time>2019-12-19T01:03:49Z</time>
      </trkpt>
      <trkpt lat="45.45762" lon="3.17787">
        <ele>489</ele>
        <time>2019-12-19T01:03:54Z</time>
      </trkpt>
      <trkpt lat="45.45758" lon="3.17826">
        <ele>486</ele>
        <time>2019-12-19T01:03:58Z</time>
      </trkpt>
      <trkpt lat="45.45765" lon="3.17862">
        <ele>486</ele>
        <time>2019-12-19T01:04:03Z</time>
      </trkpt>
      <trkpt lat="45.45774" lon="3.17886">
        <ele>485</ele>
        <time>2019-12-19T01:04:07Z</time>
      </trkpt>
      <trkpt lat="45.45789" lon="3.17916">
        <ele>486</ele>
        <time>2019-12-19T01:04:11Z</time>
      </trkpt>
      <trkpt lat="45.45795" lon="3.17941">
        <ele>485</ele>
        <time>2019-12-19T01:04:14Z</time>
      </trkpt>
      <trkpt lat="45.45832" lon="3.18127">
        <ele>473</ele>
        <time>2019-12-19T01:04:39Z</time>
      </trkpt>
      <trkpt lat="45.45836" lon="3.18159">
        <ele>470</ele>
        <time>2019-12-19T01:04:43Z</time>
      </trkpt>
      <trkpt lat="45.45839" lon="3.18221">
        <ele>467</ele>
        <time>2019-12-19T01:04:50Z</time>
      </trkpt>
      <trkpt lat="45.45837" lon="3.18262">
        <ele>465</ele>
        <time>2019-12-19T01:04:56Z</time>
      </trkpt>
      <trkpt lat="45.45841" lon="3.18273">
        <ele>465</ele>
        <time>2019-12-19T01:04:57Z</time>
      </trkpt>
      <trkpt lat="45.45858" lon="3.18294">
        <ele>465</ele>
        <time>2019-12-19T01:05:01Z</time>
      </trkpt>
      <trkpt lat="45.45863" lon="3.18305">
        <ele>465</ele>
        <time>2019-12-19T01:05:03Z</time>
      </trkpt>
      <trkpt lat="45.45863" lon="3.18318">
        <ele>465</ele>
        <time>2019-12-19T01:05:04Z</time>
      </trkpt>
      <trkpt lat="45.45853" lon="3.18334">
        <ele>465</ele>
        <time>2019-12-19T01:05:07Z</time>
      </trkpt>
      <trkpt lat="45.45828" lon="3.18357">
        <ele>465</ele>
        <time>2019-12-19T01:05:12Z</time>
      </trkpt>
      <trkpt lat="45.45807" lon="3.18334">
        <ele>467</ele>
        <time>2019-12-19T01:05:17Z</time>
      </trkpt>
      <trkpt lat="45.45795" lon="3.18312">
        <ele>469</ele>
        <time>2019-12-19T01:05:20Z</time>
      </trkpt>
      <trkpt lat="45.45766" lon="3.18302">
        <ele>472</ele>
        <time>2019-12-19T01:05:26Z</time>
      </trkpt>
      <trkpt lat="45.4575" lon="3.18299">
        <ele>474</ele>
        <time>2019-12-19T01:05:29Z</time>
      </trkpt>
      <trkpt lat="45.4573" lon="3.18301">
        <ele>477</ele>
        <time>2019-12-19T01:05:32Z</time>
      </trkpt>
      <trkpt lat="45.45719" lon="3.18299">
        <ele>478</ele>
        <time>2019-12-19T01:05:34Z</time>
      </trkpt>
      <trkpt lat="45.45697" lon="3.1829">
        <ele>482</ele>
        <time>2019-12-19T01:05:38Z</time>
      </trkpt>
      <trkpt lat="45.4568" lon="3.18286">
        <ele>484</ele>
        <time>2019-12-19T01:05:41Z</time>
      </trkpt>
      <trkpt lat="45.45664" lon="3.18289">
        <ele>486</ele>
        <time>2019-12-19T01:05:44Z</time>
      </trkpt>
      <trkpt lat="45.45625" lon="3.18311">
        <ele>490</ele>
        <time>2019-12-19T01:05:52Z</time>
      </trkpt>
      <trkpt lat="45.45618" lon="3.18312">
        <ele>491</ele>
        <time>2019-12-19T01:05:53Z</time>
      </trkpt>
      <trkpt lat="45.45559" lon="3.18295">
        <ele>499</ele>
        <time>2019-12-19T01:06:04Z</time>
      </trkpt>
      <trkpt lat="45.45511" lon="3.18276">
        <ele>506</ele>
        <time>2019-12-19T01:06:13Z</time>
      </trkpt>
      <trkpt lat="45.45518" lon="3.18261">
        <ele>506</ele>
        <time>2019-12-19T01:06:15Z</time>
      </trkpt>
      <trkpt lat="45.45511" lon="3.18276">
        <ele>506</ele>
        <time>2019-12-19T01:06:17Z</time>
      </trkpt>
      <trkpt lat="45.45439" lon="3.18249">
        <ele>511</ele>
        <time>2019-12-19T01:06:30Z</time>
      </trkpt>
      <trkpt lat="45.45427" lon="3.18246">
        <ele>511</ele>
        <time>2019-12-19T01:06:32Z</time>
      </trkpt>
      <trkpt lat="45.45423" lon="3.18234">
        <ele>512</ele>
        <time>2019-12-19T01:06:34Z</time>
      </trkpt>
      <trkpt lat="45.45421" lon="3.18178">
        <ele>516</ele>
        <time>2019-12-19T01:06:41Z</time>
      </trkpt>
      <trkpt lat="45.45422" lon="3.18156">
        <ele>517</ele>
        <time>2019-12-19T01:06:44Z</time>
      </trkpt>
      <trkpt lat="45.45427" lon="3.18136">
        <ele>519</ele>
        <time>2019-12-19T01:06:46Z</time>
      </trkpt>
      <trkpt lat="45.45433" lon="3.18094">
        <ele>521</ele>
        <time>2019-12-19T01:06:52Z</time>
      </trkpt>
      <trkpt lat="45.45433" lon="3.18008">
        <ele>523</ele>
        <time>2019-12-19T01:07:03Z</time>
      </trkpt>
      <trkpt lat="45.45429" lon="3.17976">
        <ele>526</ele>
        <time>2019-12-19T01:07:07Z</time>
      </trkpt>
      <trkpt lat="45.45425" lon="3.17963">
        <ele>527</ele>
        <time>2019-12-19T01:07:08Z</time>
      </trkpt>
      <trkpt lat="45.45401" lon="3.17938">
        <ele>532</ele>
        <time>2019-12-19T01:07:14Z</time>
      </trkpt>
      <trkpt lat="45.45396" lon="3.1793">
        <ele>533</ele>
        <time>2019-12-19T01:07:15Z</time>
      </trkpt>
      <trkpt lat="45.45399" lon="3.17881">
        <ele>534</ele>
        <time>2019-12-19T01:07:21Z</time>
      </trkpt>
      <trkpt lat="45.45396" lon="3.17849">
        <ele>534</ele>
        <time>2019-12-19T01:07:25Z</time>
      </trkpt>
      <trkpt lat="45.45393" lon="3.17773">
        <ele>539</ele>
        <time>2019-12-19T01:07:35Z</time>
      </trkpt>
      <trkpt lat="45.45376" lon="3.17681">
        <ele>546</ele>
        <time>2019-12-19T01:07:47Z</time>
      </trkpt>
      <trkpt lat="45.45361" lon="3.17613">
        <ele>551</ele>
        <time>2019-12-19T01:07:55Z</time>
      </trkpt>
      <trkpt lat="45.45353" lon="3.17592">
        <ele>553</ele>
        <time>2019-12-19T01:07:58Z</time>
      </trkpt>
      <trkpt lat="45.45346" lon="3.17559">
        <ele>554</ele>
        <time>2019-12-19T01:08:03Z</time>
      </trkpt>
      <trkpt lat="45.45346" lon="3.17526">
        <ele>553</ele>
        <time>2019-12-19T01:08:07Z</time>
      </trkpt>
      <trkpt lat="45.4534" lon="3.17504">
        <ele>554</ele>
        <time>2019-12-19T01:08:10Z</time>
      </trkpt>
      <trkpt lat="45.4533" lon="3.17488">
        <ele>556</ele>
        <time>2019-12-19T01:08:12Z</time>
      </trkpt>
      <trkpt lat="45.45325" lon="3.17474">
        <ele>556</ele>
        <time>2019-12-19T01:08:14Z</time>
      </trkpt>
      <trkpt lat="45.45319" lon="3.17465">
        <ele>556</ele>
        <time>2019-12-19T01:08:16Z</time>
      </trkpt>
      <trkpt lat="45.45301" lon="3.17446">
        <ele>559</ele>
        <time>2019-12-19T01:08:20Z</time>
      </trkpt>
      <trkpt lat="45.4522" lon="3.17285">
        <ele>550</ele>
        <time>2019-12-19T01:08:45Z</time>
      </trkpt>
      <trkpt lat="45.45191" lon="3.17246">
        <ele>547</ele>
        <time>2019-12-19T01:08:52Z</time>
      </trkpt>
      <trkpt lat="45.45186" lon="3.17227">
        <ele>547</ele>
        <time>2019-12-19T01:08:54Z</time>
      </trkpt>
      <trkpt lat="45.45184" lon="3.17209">
        <ele>547</ele>
        <time>2019-12-19T01:08:57Z</time>
      </trkpt>
      <trkpt lat="45.45186" lon="3.17187">
        <ele>547</ele>
        <time>2019-12-19T01:08:59Z</time>
      </trkpt>
      <trkpt lat="45.45186" lon="3.17156">
        <ele>548</ele>
        <time>2019-12-19T01:09:03Z</time>
      </trkpt>
      <trkpt lat="45.45177" lon="3.17129">
        <ele>551</ele>
        <time>2019-12-19T01:09:07Z</time>
      </trkpt>
      <trkpt lat="45.45148" lon="3.17082">
        <ele>557</ele>
        <time>2019-12-19T01:09:15Z</time>
      </trkpt>
      <trkpt lat="45.45145" lon="3.17065">
        <ele>559</ele>
        <time>2019-12-19T01:09:17Z</time>
      </trkpt>
      <trkpt lat="45.45146" lon="3.17044">
        <ele>561</ele>
        <time>2019-12-19T01:09:20Z</time>
      </trkpt>
      <trkpt lat="45.4515" lon="3.17024">
        <ele>563</ele>
        <time>2019-12-19T01:09:22Z</time>
      </trkpt>
      <trkpt lat="45.45158" lon="3.17003">
        <ele>564</ele>
        <time>2019-12-19T01:09:25Z</time>
      </trkpt>
      <trkpt lat="45.45164" lon="3.16978">
        <ele>566</ele>
        <time>2019-12-19T01:09:28Z</time>
      </trkpt>
      <trkpt lat="45.45162" lon="3.16948">
        <ele>569</ele>
        <time>2019-12-19T01:09:32Z</time>
      </trkpt>
      <trkpt lat="45.45154" lon="3.16919">
        <ele>572</ele>
        <time>2019-12-19T01:09:36Z</time>
      </trkpt>
      <trkpt lat="45.45128" lon="3.16885">
        <ele>575</ele>
        <time>2019-12-19T01:09:42Z</time>
      </trkpt>
      <trkpt lat="45.45125" lon="3.16872">
        <ele>576</ele>
        <time>2019-12-19T01:09:44Z</time>
      </trkpt>
      <trkpt lat="45.45126" lon="3.16827">
        <ele>579</ele>
        <time>2019-12-19T01:09:50Z</time>
      </trkpt>
      <trkpt lat="45.4512" lon="3.16811">
        <ele>580</ele>
        <time>2019-12-19T01:09:52Z</time>
      </trkpt>
      <trkpt lat="45.45118" lon="3.16793">
        <ele>581</ele>
        <time>2019-12-19T01:09:54Z</time>
      </trkpt>
      <trkpt lat="45.45122" lon="3.16762">
        <ele>582</ele>
        <time>2019-12-19T01:09:58Z</time>
      </trkpt>
      <trkpt lat="45.45119" lon="3.1674">
        <ele>584</ele>
        <time>2019-12-19T01:10:01Z</time>
      </trkpt>
      <trkpt lat="45.45109" lon="3.1671">
        <ele>587</ele>
        <time>2019-12-19T01:10:05Z</time>
      </trkpt>
      <trkpt lat="45.451" lon="3.16689">
        <ele>588</ele>
        <time>2019-12-19T01:10:08Z</time>
      </trkpt>
      <trkpt lat="45.45083" lon="3.16658">
        <ele>592</ele>
        <time>2019-12-19T01:10:13Z</time>
      </trkpt>
      <trkpt lat="45.45051" lon="3.16625">
        <ele>593</ele>
        <time>2019-12-19T01:10:20Z</time>
      </trkpt>
      <trkpt lat="45.45052" lon="3.16608">
        <ele>595</ele>
        <time>2019-12-19T01:10:22Z</time>
      </trkpt>
      <trkpt lat="45.45026" lon="3.16548">
        <ele>600</ele>
        <time>2019-12-19T01:10:31Z</time>
      </trkpt>
      <trkpt lat="45.44998" lon="3.16509">
        <ele>603</ele>
        <time>2019-12-19T01:10:38Z</time>
      </trkpt>
      <trkpt lat="45.44994" lon="3.16488">
        <ele>605</ele>
        <time>2019-12-19T01:10:41Z</time>
      </trkpt>
      <trkpt lat="45.44979" lon="3.16366">
        <ele>609</ele>
        <time>2019-12-19T01:10:56Z</time>
      </trkpt>
      <trkpt lat="45.44975" lon="3.16306">
        <ele>612</ele>
        <time>2019-12-19T01:11:04Z</time>
      </trkpt>
      <trkpt lat="45.44961" lon="3.16171">
        <ele>620</ele>
        <time>2019-12-19T01:11:21Z</time>
      </trkpt>
      <trkpt lat="45.44958" lon="3.16156">
        <ele>621</ele>
        <time>2019-12-19T01:11:23Z</time>
      </trkpt>
      <trkpt lat="45.44973" lon="3.16145">
        <ele>622</ele>
        <time>2019-12-19T01:11:26Z</time>
      </trkpt>
      <trkpt lat="45.45115" lon="3.16002">
        <ele>619</ele>
        <time>2019-12-19T01:11:57Z</time>
      </trkpt>
      <trkpt lat="45.45132" lon="3.1598">
        <ele>619</ele>
        <time>2019-12-19T01:12:01Z</time>
      </trkpt>
      <trkpt lat="45.45258" lon="3.15793">
        <ele>627</ele>
        <time>2019-12-19T01:12:33Z</time>
      </trkpt>
      <trkpt lat="45.45262" lon="3.15784">
        <ele>627</ele>
        <time>2019-12-19T01:12:34Z</time>
      </trkpt>
      <trkpt lat="45.45274" lon="3.15786">
        <ele>627</ele>
        <time>2019-12-19T01:12:37Z</time>
      </trkpt>
      <trkpt lat="45.45277" lon="3.15778">
        <ele>627</ele>
        <time>2019-12-19T01:12:38Z</time>
      </trkpt>
      <trkpt lat="45.453" lon="3.1574">
        <ele>627</ele>
        <time>2019-12-19T01:12:44Z</time>
      </trkpt>
      <trkpt lat="45.45315" lon="3.15708">
        <ele>627</ele>
        <time>2019-12-19T01:12:49Z</time>
      </trkpt>
      <trkpt lat="45.45342" lon="3.15619">
        <ele>624</ele>
        <time>2019-12-19T01:13:01Z</time>
      </trkpt>
      <trkpt lat="45.45345" lon="3.15604">
        <ele>624</ele>
        <time>2019-12-19T01:13:03Z</time>
      </trkpt>
      <trkpt lat="45.45346" lon="3.15589">
        <ele>624</ele>
        <time>2019-12-19T01:13:05Z</time>
      </trkpt>
      <trkpt lat="45.45336" lon="3.15535">
        <ele>625</ele>
        <time>2019-12-19T01:13:12Z</time>
      </trkpt>
      <trkpt lat="45.45299" lon="3.15434">
        <ele>626</ele>
        <time>2019-12-19T01:13:26Z</time>
      </trkpt>
      <trkpt lat="45.45293" lon="3.15412">
        <ele>626</ele>
        <time>2019-12-19T01:13:29Z</time>
      </trkpt>
      <trkpt lat="45.45294" lon="3.15384">
        <ele>627</ele>
        <time>2019-12-19T01:13:32Z</time>
      </trkpt>
      <trkpt lat="45.45296" lon="3.15363">
        <ele>627</ele>
        <time>2019-12-19T01:13:35Z</time>
      </trkpt>
      <trkpt lat="45.45313" lon="3.15271">
        <ele>625</ele>
        <time>2019-12-19T01:13:47Z</time>
      </trkpt>
      <trkpt lat="45.45313" lon="3.15179">
        <ele>625</ele>
        <time>2019-12-19T01:13:58Z</time>
      </trkpt>
      <trkpt lat="45.45317" lon="3.1516">
        <ele>625</ele>
        <time>2019-12-19T01:14:01Z</time>
      </trkpt>
      <trkpt lat="45.45342" lon="3.15112">
        <ele>622</ele>
        <time>2019-12-19T01:14:08Z</time>
      </trkpt>
      <trkpt lat="45.45351" lon="3.15066">
        <ele>625</ele>
        <time>2019-12-19T01:14:14Z</time>
      </trkpt>
      <trkpt lat="45.45362" lon="3.15066">
        <ele>624</ele>
        <time>2019-12-19T01:14:16Z</time>
      </trkpt>
      <trkpt lat="45.45379" lon="3.15079">
        <ele>622</ele>
        <time>2019-12-19T01:14:20Z</time>
      </trkpt>
      <trkpt lat="45.45389" lon="3.1509">
        <ele>621</ele>
        <time>2019-12-19T01:14:22Z</time>
      </trkpt>
      <trkpt lat="45.45412" lon="3.15137">
        <ele>613</ele>
        <time>2019-12-19T01:14:29Z</time>
      </trkpt>
      <trkpt lat="45.45419" lon="3.15148">
        <ele>611</ele>
        <time>2019-12-19T01:14:31Z</time>
      </trkpt>
      <trkpt lat="45.45429" lon="3.15159">
        <ele>609</ele>
        <time>2019-12-19T01:14:33Z</time>
      </trkpt>
      <trkpt lat="45.4548" lon="3.15196">
        <ele>606</ele>
        <time>2019-12-19T01:14:43Z</time>
      </trkpt>
      <trkpt lat="45.45498" lon="3.15214">
        <ele>603</ele>
        <time>2019-12-19T01:14:47Z</time>
      </trkpt>
      <trkpt lat="45.45514" lon="3.15223">
        <ele>602</ele>
        <time>2019-12-19T01:14:50Z</time>
      </trkpt>
      <trkpt lat="45.45522" lon="3.1523">
        <ele>601</ele>
        <time>2019-12-19T01:14:52Z</time>
      </trkpt>
      <trkpt lat="45.45531" lon="3.15251">
        <ele>598</ele>
        <time>2019-12-19T01:14:55Z</time>
      </trkpt>
      <trkpt lat="45.45538" lon="3.1526">
        <ele>597</ele>
        <time>2019-12-19T01:14:57Z</time>
      </trkpt>
      <trkpt lat="45.45562" lon="3.15276">
        <ele>594</ele>
        <time>2019-12-19T01:15:01Z</time>
      </trkpt>
      <trkpt lat="45.45589" lon="3.15302">
        <ele>588</ele>
        <time>2019-12-19T01:15:07Z</time>
      </trkpt>
      <trkpt lat="45.45598" lon="3.15305">
        <ele>587</ele>
        <time>2019-12-19T01:15:09Z</time>
      </trkpt>
      <trkpt lat="45.45605" lon="3.15304">
        <ele>586</ele>
        <time>2019-12-19T01:15:10Z</time>
      </trkpt>
      <trkpt lat="45.45623" lon="3.15297">
        <ele>585</ele>
        <time>2019-12-19T01:15:13Z</time>
      </trkpt>
      <trkpt lat="45.45675" lon="3.15287">
        <ele>582</ele>
        <time>2019-12-19T01:15:23Z</time>
      </trkpt>
      <trkpt lat="45.45687" lon="3.15282">
        <ele>582</ele>
        <time>2019-12-19T01:15:25Z</time>
      </trkpt>
      <trkpt lat="45.45691" lon="3.15273">
        <ele>583</ele>
        <time>2019-12-19T01:15:26Z</time>
      </trkpt>
      <trkpt lat="45.45706" lon="3.15213">
        <ele>586</ele>
        <time>2019-12-19T01:15:34Z</time>
      </trkpt>
      <trkpt lat="45.4571" lon="3.15204">
        <ele>586</ele>
        <time>2019-12-19T01:15:36Z</time>
      </trkpt>
      <trkpt lat="45.45733" lon="3.1518">
        <ele>582</ele>
        <time>2019-12-19T01:15:41Z</time>
      </trkpt>
      <trkpt lat="45.4576" lon="3.15114">
        <ele>580</ele>
        <time>2019-12-19T01:15:50Z</time>
      </trkpt>
      <trkpt lat="45.45783" lon="3.15024">
        <ele>586</ele>
        <time>2019-12-19T01:16:02Z</time>
      </trkpt>
      <trkpt lat="45.45788" lon="3.14983">
        <ele>587</ele>
        <time>2019-12-19T01:16:07Z</time>
      </trkpt>
      <trkpt lat="45.45792" lon="3.14975">
        <ele>588</ele>
        <time>2019-12-19T01:16:09Z</time>
      </trkpt>
      <trkpt lat="45.45798" lon="3.14973">
        <ele>589</ele>
        <time>2019-12-19T01:16:10Z</time>
      </trkpt>
      <trkpt lat="45.45802" lon="3.14974">
        <ele>590</ele>
        <time>2019-12-19T01:16:10Z</time>
      </trkpt>
      <trkpt lat="45.45804" lon="3.14982">
        <ele>590</ele>
        <time>2019-12-19T01:16:12Z</time>
      </trkpt>
      <trkpt lat="45.45804" lon="3.15041">
        <ele>591</ele>
        <time>2019-12-19T01:16:19Z</time>
      </trkpt>
      <trkpt lat="45.458" lon="3.15072">
        <ele>590</ele>
        <time>2019-12-19T01:16:23Z</time>
      </trkpt>
      <trkpt lat="45.45801" lon="3.15101">
        <ele>590</ele>
        <time>2019-12-19T01:16:26Z</time>
      </trkpt>
      <trkpt lat="45.45802" lon="3.15111">
        <ele>590</ele>
        <time>2019-12-19T01:16:28Z</time>
      </trkpt>
      <trkpt lat="45.45812" lon="3.15128">
        <ele>592</ele>
        <time>2019-12-19T01:16:30Z</time>
      </trkpt>
      <trkpt lat="45.45812" lon="3.15149">
        <ele>592</ele>
        <time>2019-12-19T01:16:33Z</time>
      </trkpt>
      <trkpt lat="45.45811" lon="3.15162">
        <ele>591</ele>
        <time>2019-12-19T01:16:35Z</time>
      </trkpt>
      <trkpt lat="45.45815" lon="3.15166">
        <ele>592</ele>
        <time>2019-12-19T01:16:36Z</time>
      </trkpt>
      <trkpt lat="45.45819" lon="3.15163">
        <ele>592</ele>
        <time>2019-12-19T01:16:36Z</time>
      </trkpt>
      <trkpt lat="45.45817" lon="3.15154">
        <ele>592</ele>
        <time>2019-12-19T01:16:38Z</time>
      </trkpt>
      <trkpt lat="45.4583" lon="3.15068">
        <ele>598</ele>
        <time>2019-12-19T01:16:49Z</time>
      </trkpt>
      <trkpt lat="45.45869" lon="3.14923">
        <ele>606</ele>
        <time>2019-12-19T01:17:08Z</time>
      </trkpt>
      <trkpt lat="45.45877" lon="3.14887">
        <ele>610</ele>
        <time>2019-12-19T01:17:13Z</time>
      </trkpt>
      <trkpt lat="45.45879" lon="3.14835">
        <ele>613</ele>
        <time>2019-12-19T01:17:19Z</time>
      </trkpt>
      <trkpt lat="45.45875" lon="3.14783">
        <ele>614</ele>
        <time>2019-12-19T01:17:26Z</time>
      </trkpt>
      <trkpt lat="45.45867" lon="3.14746">
        <ele>614</ele>
        <time>2019-12-19T01:17:30Z</time>
      </trkpt>
      <trkpt lat="45.45838" lon="3.14679">
        <ele>615</ele>
        <time>2019-12-19T01:17:40Z</time>
      </trkpt>
      <trkpt lat="45.4583" lon="3.14648">
        <ele>615</ele>
        <time>2019-12-19T01:17:44Z</time>
      </trkpt>
      <trkpt lat="45.45828" lon="3.14618">
        <ele>616</ele>
        <time>2019-12-19T01:17:48Z</time>
      </trkpt>
      <trkpt lat="45.45831" lon="3.14554">
        <ele>622</ele>
        <time>2019-12-19T01:17:56Z</time>
      </trkpt>
      <trkpt lat="45.4584" lon="3.1452">
        <ele>625</ele>
        <time>2019-12-19T01:18:01Z</time>
      </trkpt>
      <trkpt lat="45.45889" lon="3.14399">
        <ele>639</ele>
        <time>2019-12-19T01:18:18Z</time>
      </trkpt>
      <trkpt lat="45.45937" lon="3.14323">
        <ele>643</ele>
        <time>2019-12-19T01:18:31Z</time>
      </trkpt>
      <trkpt lat="45.45962" lon="3.1427">
        <ele>647</ele>
        <time>2019-12-19T01:18:39Z</time>
      </trkpt>
      <trkpt lat="45.45967" lon="3.14241">
        <ele>649</ele>
        <time>2019-12-19T01:18:43Z</time>
      </trkpt>
      <trkpt lat="45.4597" lon="3.14169">
        <ele>656</ele>
        <time>2019-12-19T01:18:52Z</time>
      </trkpt>
      <trkpt lat="45.45978" lon="3.14143">
        <ele>657</ele>
        <time>2019-12-19T01:18:55Z</time>
      </trkpt>
      <trkpt lat="45.4601" lon="3.14068">
        <ele>659</ele>
        <time>2019-12-19T01:19:06Z</time>
      </trkpt>
      <trkpt lat="45.46019" lon="3.14033">
        <ele>662</ele>
        <time>2019-12-19T01:19:11Z</time>
      </trkpt>
      <trkpt lat="45.46037" lon="3.13944">
        <ele>666</ele>
        <time>2019-12-19T01:19:22Z</time>
      </trkpt>
      <trkpt lat="45.46042" lon="3.13872">
        <ele>671</ele>
        <time>2019-12-19T01:19:31Z</time>
      </trkpt>
      <trkpt lat="45.4604" lon="3.13802">
        <ele>676</ele>
        <time>2019-12-19T01:19:40Z</time>
      </trkpt>
      <trkpt lat="45.46044" lon="3.13769">
        <ele>678</ele>
        <time>2019-12-19T01:19:44Z</time>
      </trkpt>
      <trkpt lat="45.46051" lon="3.13737">
        <ele>680</ele>
        <time>2019-12-19T01:19:48Z</time>
      </trkpt>
      <trkpt lat="45.46083" lon="3.13669">
        <ele>682</ele>
        <time>2019-12-19T01:19:59Z</time>
      </trkpt>
      <trkpt lat="45.46099" lon="3.13649">
        <ele>684</ele>
        <time>2019-12-19T01:20:02Z</time>
      </trkpt>
      <trkpt lat="45.46141" lon="3.13628">
        <ele>686</ele>
        <time>2019-12-19T01:20:10Z</time>
      </trkpt>
      <trkpt lat="45.46198" lon="3.13589">
        <ele>691</ele>
        <time>2019-12-19T01:20:22Z</time>
      </trkpt>
      <trkpt lat="45.46246" lon="3.13562">
        <ele>694</ele>
        <time>2019-12-19T01:20:31Z</time>
      </trkpt>
      <trkpt lat="45.46267" lon="3.13541">
        <ele>695</ele>
        <time>2019-12-19T01:20:35Z</time>
      </trkpt>
      <trkpt lat="45.46285" lon="3.13517">
        <ele>697</ele>
        <time>2019-12-19T01:20:40Z</time>
      </trkpt>
      <trkpt lat="45.463" lon="3.1349">
        <ele>700</ele>
        <time>2019-12-19T01:20:44Z</time>
      </trkpt>
      <trkpt lat="45.46336" lon="3.13404">
        <ele>709</ele>
        <time>2019-12-19T01:20:57Z</time>
      </trkpt>
      <trkpt lat="45.4635" lon="3.13381">
        <ele>710</ele>
        <time>2019-12-19T01:21:00Z</time>
      </trkpt>
      <trkpt lat="45.46385" lon="3.13346">
        <ele>710</ele>
        <time>2019-12-19T01:21:08Z</time>
      </trkpt>
      <trkpt lat="45.46399" lon="3.13327">
        <ele>711</ele>
        <time>2019-12-19T01:21:11Z</time>
      </trkpt>
      <trkpt lat="45.46408" lon="3.13304">
        <ele>713</ele>
        <time>2019-12-19T01:21:15Z</time>
      </trkpt>
      <trkpt lat="45.46495" lon="3.12966">
        <ele>732</ele>
        <time>2019-12-19T01:22:00Z</time>
      </trkpt>
      <trkpt lat="45.46517" lon="3.12917">
        <ele>734</ele>
        <time>2019-12-19T01:22:07Z</time>
      </trkpt>
      <trkpt lat="45.46617" lon="3.1278">
        <ele>740</ele>
        <time>2019-12-19T01:22:32Z</time>
      </trkpt>
      <trkpt lat="45.46635" lon="3.12749">
        <ele>740</ele>
        <time>2019-12-19T01:22:37Z</time>
      </trkpt>
      <trkpt lat="45.46674" lon="3.12665">
        <ele>744</ele>
        <time>2019-12-19T01:22:49Z</time>
      </trkpt>
      <trkpt lat="45.46719" lon="3.12546">
        <ele>752</ele>
        <time>2019-12-19T01:23:06Z</time>
      </trkpt>
      <trkpt lat="45.46728" lon="3.12511">
        <ele>754</ele>
        <time>2019-12-19T01:23:11Z</time>
      </trkpt>
      <trkpt lat="45.46748" lon="3.12405">
        <ele>761</ele>
        <time>2019-12-19T01:23:24Z</time>
      </trkpt>
      <trkpt lat="45.46759" lon="3.12373">
        <ele>762</ele>
        <time>2019-12-19T01:23:29Z</time>
      </trkpt>
      <trkpt lat="45.46792" lon="3.12306">
        <ele>764</ele>
        <time>2019-12-19T01:23:39Z</time>
      </trkpt>
      <trkpt lat="45.46806" lon="3.12282">
        <ele>765</ele>
        <time>2019-12-19T01:23:43Z</time>
      </trkpt>
      <trkpt lat="45.46824" lon="3.12263">
        <ele>764</ele>
        <time>2019-12-19T01:23:47Z</time>
      </trkpt>
      <trkpt lat="45.46894" lon="3.12213">
        <ele>764</ele>
        <time>2019-12-19T01:24:01Z</time>
      </trkpt>
      <trkpt lat="45.46911" lon="3.12194">
        <ele>765</ele>
        <time>2019-12-19T01:24:05Z</time>
      </trkpt>
      <trkpt lat="45.46924" lon="3.12169">
        <ele>766</ele>
        <time>2019-12-19T01:24:09Z</time>
      </trkpt>
      <trkpt lat="45.46934" lon="3.12141">
        <ele>766</ele>
        <time>2019-12-19T01:24:13Z</time>
      </trkpt>
      <trkpt lat="45.46936" lon="3.12126">
        <ele>766</ele>
        <time>2019-12-19T01:24:14Z</time>
      </trkpt>
      <trkpt lat="45.46938" lon="3.12025">
        <ele>772</ele>
        <time>2019-12-19T01:24:27Z</time>
      </trkpt>
      <trkpt lat="45.46943" lon="3.11954">
        <ele>775</ele>
        <time>2019-12-19T01:24:36Z</time>
      </trkpt>
      <trkpt lat="45.46933" lon="3.11795">
        <ele>783</ele>
        <time>2019-12-19T01:24:56Z</time>
      </trkpt>
      <trkpt lat="45.46934" lon="3.11745">
        <ele>786</ele>
        <time>2019-12-19T01:25:02Z</time>
      </trkpt>
      <trkpt lat="45.46927" lon="3.11664">
        <ele>791</ele>
        <time>2019-12-19T01:25:12Z</time>
      </trkpt>
      <trkpt lat="45.4693" lon="3.11635">
        <ele>793</ele>
        <time>2019-12-19T01:25:16Z</time>
      </trkpt>
      <trkpt lat="45.46939" lon="3.11608">
        <ele>794</ele>
        <time>2019-12-19T01:25:20Z</time>
      </trkpt>
      <trkpt lat="45.46946" lon="3.11597">
        <ele>794</ele>
        <time>2019-12-19T01:25:22Z</time>
      </trkpt>
      <trkpt lat="45.46955" lon="3.1156">
        <ele>795</ele>
        <time>2019-12-19T01:25:26Z</time>
      </trkpt>
      <trkpt lat="45.46958" lon="3.11522">
        <ele>795</ele>
        <time>2019-12-19T01:25:31Z</time>
      </trkpt>
      <trkpt lat="45.46955" lon="3.11501">
        <ele>796</ele>
        <time>2019-12-19T01:25:34Z</time>
      </trkpt>
      <trkpt lat="45.46944" lon="3.11477">
        <ele>796</ele>
        <time>2019-12-19T01:25:37Z</time>
      </trkpt>
      <trkpt lat="45.46911" lon="3.11435">
        <ele>797</ele>
        <time>2019-12-19T01:25:45Z</time>
      </trkpt>
      <trkpt lat="45.46893" lon="3.11418">
        <ele>799</ele>
        <time>2019-12-19T01:25:49Z</time>
      </trkpt>
      <trkpt lat="45.46874" lon="3.11409">
        <ele>801</ele>
        <time>2019-12-19T01:25:53Z</time>
      </trkpt>
      <trkpt lat="45.46843" lon="3.11404">
        <ele>805</ele>
        <time>2019-12-19T01:25:58Z</time>
      </trkpt>
      <trkpt lat="45.46825" lon="3.11391">
        <ele>807</ele>
        <time>2019-12-19T01:26:02Z</time>
      </trkpt>
      <trkpt lat="45.46813" lon="3.11366">
        <ele>808</ele>
        <time>2019-12-19T01:26:06Z</time>
      </trkpt>
      <trkpt lat="45.46776" lon="3.11226">
        <ele>813</ele>
        <time>2019-12-19T01:26:24Z</time>
      </trkpt>
      <trkpt lat="45.46764" lon="3.112">
        <ele>815</ele>
        <time>2019-12-19T01:26:28Z</time>
      </trkpt>
      <trkpt lat="45.46734" lon="3.11158">
        <ele>818</ele>
        <time>2019-12-19T01:26:36Z</time>
      </trkpt>
      <trkpt lat="45.46701" lon="3.11094">
        <ele>819</ele>
        <time>2019-12-19T01:26:46Z</time>
      </trkpt>
      <trkpt lat="45.46683" lon="3.11076">
        <ele>821</ele>
        <time>2019-12-19T01:26:49Z</time>
      </trkpt>
      <trkpt lat="45.4666" lon="3.11064">
        <ele>824</ele>
        <time>2019-12-19T01:26:54Z</time>
      </trkpt>
      <trkpt lat="45.46636" lon="3.11057">
        <ele>827</ele>
        <time>2019-12-19T01:26:58Z</time>
      </trkpt>
      <trkpt lat="45.46587" lon="3.1105">
        <ele>831</ele>
        <time>2019-12-19T01:27:07Z</time>
      </trkpt>
      <trkpt lat="45.4653" lon="3.11028">
        <ele>838</ele>
        <time>2019-12-19T01:27:17Z</time>
      </trkpt>
      <trkpt lat="45.46509" lon="3.11014">
        <ele>840</ele>
        <time>2019-12-19T01:27:22Z</time>
      </trkpt>
      <trkpt lat="45.46461" lon="3.10975">
        <ele>844</ele>
        <time>2019-12-19T01:27:31Z</time>
      </trkpt>
      <trkpt lat="45.4644" lon="3.10939">
        <ele>846</ele>
        <time>2019-12-19T01:27:37Z</time>
      </trkpt>
      <trkpt lat="45.46409" lon="3.10866">
        <ele>851</ele>
        <time>2019-12-19T01:27:48Z</time>
      </trkpt>
      <trkpt lat="45.46401" lon="3.10854">
        <ele>853</ele>
        <time>2019-12-19T01:27:50Z</time>
      </trkpt>
      <trkpt lat="45.46337" lon="3.10774">
        <ele>861</ele>
        <time>2019-12-19T01:28:05Z</time>
      </trkpt>
      <trkpt lat="45.46281" lon="3.10694">
        <ele>868</ele>
        <time>2019-12-19T01:28:19Z</time>
      </trkpt>
      <trkpt lat="45.46232" lon="3.10608">
        <ele>874</ele>
        <time>2019-12-19T01:28:33Z</time>
      </trkpt>
      <trkpt lat="45.46198" lon="3.10559">
        <ele>875</ele>
        <time>2019-12-19T01:28:42Z</time>
      </trkpt>
      <trkpt lat="45.4618" lon="3.10542">
        <ele>876</ele>
        <time>2019-12-19T01:28:46Z</time>
      </trkpt>
      <trkpt lat="45.46161" lon="3.10532">
        <ele>878</ele>
        <time>2019-12-19T01:28:49Z</time>
      </trkpt>
      <trkpt lat="45.46131" lon="3.10523">
        <ele>884</ele>
        <time>2019-12-19T01:28:55Z</time>
      </trkpt>
      <trkpt lat="45.46113" lon="3.10511">
        <ele>887</ele>
        <time>2019-12-19T01:28:58Z</time>
      </trkpt>
      <trkpt lat="45.46099" lon="3.10491">
        <ele>887</ele>
        <time>2019-12-19T01:29:02Z</time>
      </trkpt>
      <trkpt lat="45.46038" lon="3.10386">
        <ele>893</ele>
        <time>2019-12-19T01:29:19Z</time>
      </trkpt>
      <trkpt lat="45.45971" lon="3.10296">
        <ele>906</ele>
        <time>2019-12-19T01:29:35Z</time>
      </trkpt>
      <trkpt lat="45.45943" lon="3.10234">
        <ele>911</ele>
        <time>2019-12-19T01:29:44Z</time>
      </trkpt>
      <trkpt lat="45.45925" lon="3.1014">
        <ele>913</ele>
        <time>2019-12-19T01:29:56Z</time>
      </trkpt>
      <trkpt lat="45.45919" lon="3.10119">
        <ele>916</ele>
        <time>2019-12-19T01:29:59Z</time>
      </trkpt>
      <trkpt lat="45.45919" lon="3.10077">
        <ele>917</ele>
        <time>2019-12-19T01:30:04Z</time>
      </trkpt>
      <trkpt lat="45.45924" lon="3.10029">
        <ele>919</ele>
        <time>2019-12-19T01:30:11Z</time>
      </trkpt>
      <trkpt lat="45.45926" lon="3.09974">
        <ele>923</ele>
        <time>2019-12-19T01:30:17Z</time>
      </trkpt>
      <trkpt lat="45.45929" lon="3.09949">
        <ele>924</ele>
        <time>2019-12-19T01:30:21Z</time>
      </trkpt>
      <trkpt lat="45.45951" lon="3.09881">
        <ele>921</ele>
        <time>2019-12-19T01:30:30Z</time>
      </trkpt>
      <trkpt lat="45.45953" lon="3.09854">
        <ele>923</ele>
        <time>2019-12-19T01:30:33Z</time>
      </trkpt>
      <trkpt lat="45.45951" lon="3.0984">
        <ele>925</ele>
        <time>2019-12-19T01:30:35Z</time>
      </trkpt>
      <trkpt lat="45.45915" lon="3.09775">
        <ele>933</ele>
        <time>2019-12-19T01:30:45Z</time>
      </trkpt>
      <trkpt lat="45.45885" lon="3.09691">
        <ele>939</ele>
        <time>2019-12-19T01:30:57Z</time>
      </trkpt>
      <trkpt lat="45.4587" lon="3.09638">
        <ele>944</ele>
        <time>2019-12-19T01:31:04Z</time>
      </trkpt>
      <trkpt lat="45.45845" lon="3.09512">
        <ele>954</ele>
        <time>2019-12-19T01:31:21Z</time>
      </trkpt>
      <trkpt lat="45.45838" lon="3.09459">
        <ele>956</ele>
        <time>2019-12-19T01:31:27Z</time>
      </trkpt>
      <trkpt lat="45.45837" lon="3.09424">
        <ele>958</ele>
        <time>2019-12-19T01:31:32Z</time>
      </trkpt>
      <trkpt lat="45.45841" lon="3.09357">
        <ele>961</ele>
        <time>2019-12-19T01:31:40Z</time>
      </trkpt>
      <trkpt lat="45.45848" lon="3.09315">
        <ele>963</ele>
        <time>2019-12-19T01:31:46Z</time>
      </trkpt>
      <trkpt lat="45.45853" lon="3.09303">
        <ele>963</ele>
        <time>2019-12-19T01:31:47Z</time>
      </trkpt>
      <trkpt lat="45.4587" lon="3.09285">
        <ele>964</ele>
        <time>2019-12-19T01:31:51Z</time>
      </trkpt>
      <trkpt lat="45.45906" lon="3.09285">
        <ele>963</ele>
        <time>2019-12-19T01:31:57Z</time>
      </trkpt>
      <trkpt lat="45.45913" lon="3.09274">
        <ele>963</ele>
        <time>2019-12-19T01:31:59Z</time>
      </trkpt>
      <trkpt lat="45.4593" lon="3.09231">
        <ele>964</ele>
        <time>2019-12-19T01:32:05Z</time>
      </trkpt>
      <trkpt lat="45.45964" lon="3.09181">
        <ele>967</ele>
        <time>2019-12-19T01:32:14Z</time>
      </trkpt>
      <trkpt lat="45.4597" lon="3.09166">
        <ele>968</ele>
        <time>2019-12-19T01:32:16Z</time>
      </trkpt>
      <trkpt lat="45.45977" lon="3.09134">
        <ele>968</ele>
        <time>2019-12-19T01:32:20Z</time>
      </trkpt>
      <trkpt lat="45.45979" lon="3.091">
        <ele>969</ele>
        <time>2019-12-19T01:32:25Z</time>
      </trkpt>
      <trkpt lat="45.45973" lon="3.08978">
        <ele>974</ele>
        <time>2019-12-19T01:32:40Z</time>
      </trkpt>
      <trkpt lat="45.45974" lon="3.08942">
        <ele>976</ele>
        <time>2019-12-19T01:32:45Z</time>
      </trkpt>
      <trkpt lat="45.45979" lon="3.08908">
        <ele>977</ele>
        <time>2019-12-19T01:32:49Z</time>
      </trkpt>
      <trkpt lat="45.46012" lon="3.0877">
        <ele>982</ele>
        <time>2019-12-19T01:33:07Z</time>
      </trkpt>
      <trkpt lat="45.46023" lon="3.087">
        <ele>984</ele>
        <time>2019-12-19T01:33:16Z</time>
      </trkpt>
      <trkpt lat="45.4604" lon="3.08521">
        <ele>990</ele>
        <time>2019-12-19T01:33:39Z</time>
      </trkpt>
      <trkpt lat="45.46038" lon="3.08489">
        <ele>992</ele>
        <time>2019-12-19T01:33:43Z</time>
      </trkpt>
      <trkpt lat="45.46023" lon="3.08437">
        <ele>995</ele>
        <time>2019-12-19T01:33:50Z</time>
      </trkpt>
      <trkpt lat="45.45977" lon="3.08329">
        <ele>998</ele>
        <time>2019-12-19T01:34:05Z</time>
      </trkpt>
      <trkpt lat="45.45926" lon="3.08159">
        <ele>1005</ele>
        <time>2019-12-19T01:34:28Z</time>
      </trkpt>
      <trkpt lat="45.45902" lon="3.08037">
        <ele>1008</ele>
        <time>2019-12-19T01:34:44Z</time>
      </trkpt>
      <trkpt lat="45.45864" lon="3.0771">
        <ele>1016</ele>
        <time>2019-12-19T01:35:26Z</time>
      </trkpt>
      <trkpt lat="45.45859" lon="3.07678">
        <ele>1017</ele>
        <time>2019-12-19T01:35:30Z</time>
      </trkpt>
      <trkpt lat="45.4585" lon="3.07654">
        <ele>1018</ele>
        <time>2019-12-19T01:35:33Z</time>
      </trkpt>
      <trkpt lat="45.45838" lon="3.07632">
        <ele>1019</ele>
        <time>2019-12-19T01:35:37Z</time>
      </trkpt>
      <trkpt lat="45.45795" lon="3.07611">
        <ele>1019</ele>
        <time>2019-12-19T01:35:45Z</time>
      </trkpt>
      <trkpt lat="45.45782" lon="3.07658">
        <ele>1016</ele>
        <time>2019-12-19T01:35:51Z</time>
      </trkpt>
      <trkpt lat="45.45774" lon="3.07678">
        <ele>1015</ele>
        <time>2019-12-19T01:35:54Z</time>
      </trkpt>
      <trkpt lat="45.45765" lon="3.07691">
        <ele>1015</ele>
        <time>2019-12-19T01:35:56Z</time>
      </trkpt>
      <trkpt lat="45.45754" lon="3.07699">
        <ele>1014</ele>
        <time>2019-12-19T01:35:58Z</time>
      </trkpt>
      <trkpt lat="45.45741" lon="3.07702">
        <ele>1013</ele>
        <time>2019-12-19T01:36:01Z</time>
      </trkpt>
      <trkpt lat="45.45731" lon="3.07699">
        <ele>1011</ele>
        <time>2019-12-19T01:36:02Z</time>
      </trkpt>
      <trkpt lat="45.45721" lon="3.07694">
        <ele>1010</ele>
        <time>2019-12-19T01:36:04Z</time>
      </trkpt>
      <trkpt lat="45.4571" lon="3.07682">
        <ele>1008</ele>
        <time>2019-12-19T01:36:07Z</time>
      </trkpt>
      <trkpt lat="45.45703" lon="3.07668">
        <ele>1008</ele>
        <time>2019-12-19T01:36:09Z</time>
      </trkpt>
      <trkpt lat="45.45701" lon="3.07655">
        <ele>1007</ele>
        <time>2019-12-19T01:36:11Z</time>
      </trkpt>
      <trkpt lat="45.457" lon="3.07616">
        <ele>1008</ele>
        <time>2019-12-19T01:36:15Z</time>
      </trkpt>
      <trkpt lat="45.45698" lon="3.07597">
        <ele>1008</ele>
        <time>2019-12-19T01:36:18Z</time>
      </trkpt>
      <trkpt lat="45.45692" lon="3.07571">
        <ele>1008</ele>
        <time>2019-12-19T01:36:21Z</time>
      </trkpt>
      <trkpt lat="45.45686" lon="3.0755">
        <ele>1007</ele>
        <time>2019-12-19T01:36:24Z</time>
      </trkpt>
      <trkpt lat="45.45674" lon="3.07523">
        <ele>1006</ele>
        <time>2019-12-19T01:36:28Z</time>
      </trkpt>
      <trkpt lat="45.45602" lon="3.0741">
        <ele>998</ele>
        <time>2019-12-19T01:36:47Z</time>
      </trkpt>
      <trkpt lat="45.45564" lon="3.07375">
        <ele>993</ele>
        <time>2019-12-19T01:36:55Z</time>
      </trkpt>
      <trkpt lat="45.45515" lon="3.07321">
        <ele>987</ele>
        <time>2019-12-19T01:37:06Z</time>
      </trkpt>
      <trkpt lat="45.45507" lon="3.0731">
        <ele>986</ele>
        <time>2019-12-19T01:37:08Z</time>
      </trkpt>
      <trkpt lat="45.45492" lon="3.07249">
        <ele>989</ele>
        <time>2019-12-19T01:37:16Z</time>
      </trkpt>
      <trkpt lat="45.45486" lon="3.07241">
        <ele>989</ele>
        <time>2019-12-19T01:37:18Z</time>
      </trkpt>
      <trkpt lat="45.45475" lon="3.07236">
        <ele>989</ele>
        <time>2019-12-19T01:37:20Z</time>
      </trkpt>
      <trkpt lat="45.45468" lon="3.07236">
        <ele>988</ele>
        <time>2019-12-19T01:37:21Z</time>
      </trkpt>
      <trkpt lat="45.45466" lon="3.07233">
        <ele>988</ele>
        <time>2019-12-19T01:37:22Z</time>
      </trkpt>
      <trkpt lat="45.45453" lon="3.07157">
        <ele>990</ele>
        <time>2019-12-19T01:37:31Z</time>
      </trkpt>
      <trkpt lat="45.45453" lon="3.07055">
        <ele>996</ele>
        <time>2019-12-19T01:37:44Z</time>
      </trkpt>
      <trkpt lat="45.45449" lon="3.07019">
        <ele>997</ele>
        <time>2019-12-19T01:37:49Z</time>
      </trkpt>
      <trkpt lat="45.4544" lon="3.06989">
        <ele>996</ele>
        <time>2019-12-19T01:37:53Z</time>
      </trkpt>
      <trkpt lat="45.45438" lon="3.06967">
        <ele>996</ele>
        <time>2019-12-19T01:37:55Z</time>
      </trkpt>
      <trkpt lat="45.4544" lon="3.06932">
        <ele>997</ele>
        <time>2019-12-19T01:38:00Z</time>
      </trkpt>
      <trkpt lat="45.45446" lon="3.06861">
        <ele>999</ele>
        <time>2019-12-19T01:38:09Z</time>
      </trkpt>
      <trkpt lat="45.45445" lon="3.06833">
        <ele>999</ele>
        <time>2019-12-19T01:38:12Z</time>
      </trkpt>
      <trkpt lat="45.45426" lon="3.06749">
        <ele>998</ele>
        <time>2019-12-19T01:38:23Z</time>
      </trkpt>
      <trkpt lat="45.45423" lon="3.06725">
        <ele>998</ele>
        <time>2019-12-19T01:38:26Z</time>
      </trkpt>
      <trkpt lat="45.45423" lon="3.06694">
        <ele>998</ele>
        <time>2019-12-19T01:38:30Z</time>
      </trkpt>
      <trkpt lat="45.45431" lon="3.06649">
        <ele>999</ele>
        <time>2019-12-19T01:38:36Z</time>
      </trkpt>
      <trkpt lat="45.45444" lon="3.06538">
        <ele>1002</ele>
        <time>2019-12-19T01:38:50Z</time>
      </trkpt>
      <trkpt lat="45.45445" lon="3.06511">
        <ele>1002</ele>
        <time>2019-12-19T01:38:53Z</time>
      </trkpt>
      <trkpt lat="45.45439" lon="3.06457">
        <ele>1003</ele>
        <time>2019-12-19T01:39:00Z</time>
      </trkpt>
      <trkpt lat="45.45431" lon="3.0642">
        <ele>1003</ele>
        <time>2019-12-19T01:39:05Z</time>
      </trkpt>
      <trkpt lat="45.45416" lon="3.0637">
        <ele>1003</ele>
        <time>2019-12-19T01:39:12Z</time>
      </trkpt>
      <trkpt lat="45.45389" lon="3.0631">
        <ele>1005</ele>
        <time>2019-12-19T01:39:21Z</time>
      </trkpt>
      <trkpt lat="45.45385" lon="3.06296">
        <ele>1005</ele>
        <time>2019-12-19T01:39:23Z</time>
      </trkpt>
      <trkpt lat="45.45379" lon="3.06294">
        <ele>1005</ele>
        <time>2019-12-19T01:39:24Z</time>
      </trkpt>
      <trkpt lat="45.45369" lon="3.06285">
        <ele>1006</ele>
        <time>2019-12-19T01:39:26Z</time>
      </trkpt>
      <trkpt lat="45.4536" lon="3.06264">
        <ele>1006</ele>
        <time>2019-12-19T01:39:29Z</time>
      </trkpt>
      <trkpt lat="45.45338" lon="3.06187">
        <ele>1011</ele>
        <time>2019-12-19T01:39:39Z</time>
      </trkpt>
      <trkpt lat="45.45337" lon="3.06171">
        <ele>1012</ele>
        <time>2019-12-19T01:39:41Z</time>
      </trkpt>
      <trkpt lat="45.45344" lon="3.06091">
        <ele>1020</ele>
        <time>2019-12-19T01:39:51Z</time>
      </trkpt>
      <trkpt lat="45.45343" lon="3.06081">
        <ele>1021</ele>
        <time>2019-12-19T01:39:53Z</time>
      </trkpt>
      <trkpt lat="45.45341" lon="3.06072">
        <ele>1022</ele>
        <time>2019-12-19T01:39:54Z</time>
      </trkpt>
      <trkpt lat="45.45322" lon="3.06048">
        <ele>1025</ele>
        <time>2019-12-19T01:39:58Z</time>
      </trkpt>
      <trkpt lat="45.45314" lon="3.06033">
        <ele>1026</ele>
        <time>2019-12-19T01:40:01Z</time>
      </trkpt>
      <trkpt lat="45.45289" lon="3.05976">
        <ele>1031</ele>
        <time>2019-12-19T01:40:09Z</time>
      </trkpt>
      <trkpt lat="45.45279" lon="3.05948">
        <ele>1034</ele>
        <time>2019-12-19T01:40:13Z</time>
      </trkpt>
      <trkpt lat="45.45264" lon="3.0588">
        <ele>1040</ele>
        <time>2019-12-19T01:40:22Z</time>
      </trkpt>
      <trkpt lat="45.45257" lon="3.05862">
        <ele>1042</ele>
        <time>2019-12-19T01:40:24Z</time>
      </trkpt>
      <trkpt lat="45.45242" lon="3.05838">
        <ele>1044</ele>
        <time>2019-12-19T01:40:28Z</time>
      </trkpt>
      <trkpt lat="45.45178" lon="3.05748">
        <ele>1048</ele>
        <time>2019-12-19T01:40:44Z</time>
      </trkpt>
      <trkpt lat="45.45161" lon="3.05723">
        <ele>1050</ele>
        <time>2019-12-19T01:40:49Z</time>
      </trkpt>
      <trkpt lat="45.4513" lon="3.05667">
        <ele>1052</ele>
        <time>2019-12-19T01:40:58Z</time>
      </trkpt>
      <trkpt lat="45.45117" lon="3.05649">
        <ele>1053</ele>
        <time>2019-12-19T01:41:01Z</time>
      </trkpt>
      <trkpt lat="45.45102" lon="3.05635">
        <ele>1055</ele>
        <time>2019-12-19T01:41:04Z</time>
      </trkpt>
      <trkpt lat="45.45009" lon="3.05561">
        <ele>1064</ele>
        <time>2019-12-19T01:41:23Z</time>
      </trkpt>
      <trkpt lat="45.44868" lon="3.05421">
        <ele>1077</ele>
        <time>2019-12-19T01:41:54Z</time>
      </trkpt>
      <trkpt lat="45.44816" lon="3.05385">
        <ele>1083</ele>
        <time>2019-12-19T01:42:04Z</time>
      </trkpt>
      <trkpt lat="45.44784" lon="3.05356">
        <ele>1088</ele>
        <time>2019-12-19T01:42:11Z</time>
      </trkpt>
      <trkpt lat="45.44764" lon="3.0534">
        <ele>1090</ele>
        <time>2019-12-19T01:42:15Z</time>
      </trkpt>
      <trkpt lat="45.44744" lon="3.05379">
        <ele>1090</ele>
        <time>2019-12-19T01:42:21Z</time>
      </trkpt>
      <trkpt lat="45.44733" lon="3.05396">
        <ele>1090</ele>
        <time>2019-12-19T01:42:24Z</time>
      </trkpt>
      <trkpt lat="45.44722" lon="3.05408">
        <ele>1090</ele>
        <time>2019-12-19T01:42:26Z</time>
      </trkpt>
      <trkpt lat="45.44692" lon="3.05433">
        <ele>1091</ele>
        <time>2019-12-19T01:42:32Z</time>
      </trkpt>
      <trkpt lat="45.44674" lon="3.05444">
        <ele>1093</ele>
        <time>2019-12-19T01:42:36Z</time>
      </trkpt>
      <trkpt lat="45.44659" lon="3.0545">
        <ele>1093</ele>
        <time>2019-12-19T01:42:39Z</time>
      </trkpt>
      <trkpt lat="45.4464" lon="3.05453">
        <ele>1094</ele>
        <time>2019-12-19T01:42:42Z</time>
      </trkpt>
      <trkpt lat="45.44624" lon="3.05447">
        <ele>1095</ele>
        <time>2019-12-19T01:42:45Z</time>
      </trkpt>
      <trkpt lat="45.44617" lon="3.05437">
        <ele>1096</ele>
        <time>2019-12-19T01:42:47Z</time>
      </trkpt>
      <trkpt lat="45.4461" lon="3.05405">
        <ele>1097</ele>
        <time>2019-12-19T01:42:51Z</time>
      </trkpt>
      <trkpt lat="45.44614" lon="3.05388">
        <ele>1097</ele>
        <time>2019-12-19T01:42:53Z</time>
      </trkpt>
      <trkpt lat="45.44631" lon="3.05273">
        <ele>1099</ele>
        <time>2019-12-19T01:43:08Z</time>
      </trkpt>
      <trkpt lat="45.44632" lon="3.05247">
        <ele>1100</ele>
        <time>2019-12-19T01:43:11Z</time>
      </trkpt>
      <trkpt lat="45.44653" lon="3.0512">
        <ele>1102</ele>
        <time>2019-12-19T01:43:27Z</time>
      </trkpt>
      <trkpt lat="45.44654" lon="3.05092">
        <ele>1103</ele>
        <time>2019-12-19T01:43:31Z</time>
      </trkpt>
      <trkpt lat="45.44629" lon="3.04896">
        <ele>1110</ele>
        <time>2019-12-19T01:43:56Z</time>
      </trkpt>
      <trkpt lat="45.44624" lon="3.04868">
        <ele>1111</ele>
        <time>2019-12-19T01:43:59Z</time>
      </trkpt>
      <trkpt lat="45.44553" lon="3.04566">
        <ele>1118</ele>
        <time>2019-12-19T01:44:39Z</time>
      </trkpt>
      <trkpt lat="45.44547" lon="3.04533">
        <ele>1118</ele>
        <time>2019-12-19T01:44:43Z</time>
      </trkpt>
      <trkpt lat="45.44547" lon="3.04508">
        <ele>1118</ele>
        <time>2019-12-19T01:44:46Z</time>
      </trkpt>
      <trkpt lat="45.44556" lon="3.04492">
        <ele>1118</ele>
        <time>2019-12-19T01:44:49Z</time>
      </trkpt>
      <trkpt lat="45.44591" lon="3.04467">
        <ele>1118</ele>
        <time>2019-12-19T01:44:56Z</time>
      </trkpt>
      <trkpt lat="45.446" lon="3.04447">
        <ele>1117</ele>
        <time>2019-12-19T01:44:59Z</time>
      </trkpt>
      <trkpt lat="45.44611" lon="3.04382">
        <ele>1118</ele>
        <time>2019-12-19T01:45:07Z</time>
      </trkpt>
      <trkpt lat="45.44609" lon="3.04373">
        <ele>1118</ele>
        <time>2019-12-19T01:45:08Z</time>
      </trkpt>
      <trkpt lat="45.44599" lon="3.04353">
        <ele>1119</ele>
        <time>2019-12-19T01:45:11Z</time>
      </trkpt>
      <trkpt lat="45.44598" lon="3.04342">
        <ele>1120</ele>
        <time>2019-12-19T01:45:13Z</time>
      </trkpt>
      <trkpt lat="45.44621" lon="3.04273">
        <ele>1120</ele>
        <time>2019-12-19T01:45:22Z</time>
      </trkpt>
      <trkpt lat="45.44624" lon="3.0425">
        <ele>1121</ele>
        <time>2019-12-19T01:45:25Z</time>
      </trkpt>
      <trkpt lat="45.44627" lon="3.04237">
        <ele>1122</ele>
        <time>2019-12-19T01:45:27Z</time>
      </trkpt>
      <trkpt lat="45.44634" lon="3.04223">
        <ele>1122</ele>
        <time>2019-12-19T01:45:29Z</time>
      </trkpt>
      <trkpt lat="45.44657" lon="3.04203">
        <ele>1122</ele>
        <time>2019-12-19T01:45:34Z</time>
      </trkpt>
      <trkpt lat="45.44665" lon="3.04187">
        <ele>1123</ele>
        <time>2019-12-19T01:45:36Z</time>
      </trkpt>
      <trkpt lat="45.44679" lon="3.04133">
        <ele>1127</ele>
        <time>2019-12-19T01:45:44Z</time>
      </trkpt>
      <trkpt lat="45.44698" lon="3.04089">
        <ele>1131</ele>
        <time>2019-12-19T01:45:50Z</time>
      </trkpt>
      <trkpt lat="45.44734" lon="3.03997">
        <ele>1138</ele>
        <time>2019-12-19T01:46:03Z</time>
      </trkpt>
      <trkpt lat="45.4477" lon="3.03934">
        <ele>1144</ele>
        <time>2019-12-19T01:46:13Z</time>
      </trkpt>
      <trkpt lat="45.44818" lon="3.03876">
        <ele>1147</ele>
        <time>2019-12-19T01:46:25Z</time>
      </trkpt>
      <trkpt lat="45.44876" lon="3.03812">
        <ele>1150</ele>
        <time>2019-12-19T01:46:38Z</time>
      </trkpt>
      <trkpt lat="45.44896" lon="3.03776">
        <ele>1151</ele>
        <time>2019-12-19T01:46:43Z</time>
      </trkpt>
      <trkpt lat="45.44915" lon="3.03748">
        <ele>1152</ele>
        <time>2019-12-19T01:46:48Z</time>
      </trkpt>
      <trkpt lat="45.4493" lon="3.03711">
        <ele>1153</ele>
        <time>2019-12-19T01:46:54Z</time>
      </trkpt>
      <trkpt lat="45.44989" lon="3.03678">
        <ele>1154</ele>
        <time>2019-12-19T01:47:05Z</time>
      </trkpt>
      <trkpt lat="45.44888" lon="3.03579">
        <ele>1147</ele>
        <time>2019-12-19T01:47:27Z</time>
      </trkpt>
      <trkpt lat="45.44873" lon="3.03573">
        <ele>1145</ele>
        <time>2019-12-19T01:47:29Z</time>
      </trkpt>
      <trkpt lat="45.44824" lon="3.03565">
        <ele>1142</ele>
        <time>2019-12-19T01:47:38Z</time>
      </trkpt>
      <trkpt lat="45.4481" lon="3.03559">
        <ele>1140</ele>
        <time>2019-12-19T01:47:41Z</time>
      </trkpt>
      <trkpt lat="45.44738" lon="3.03505">
        <ele>1131</ele>
        <time>2019-12-19T01:47:55Z</time>
      </trkpt>
      <trkpt lat="45.44673" lon="3.03467">
        <ele>1125</ele>
        <time>2019-12-19T01:48:08Z</time>
      </trkpt>
      <trkpt lat="45.44614" lon="3.03383">
        <ele>1116</ele>
        <time>2019-12-19T01:48:23Z</time>
      </trkpt>
      <trkpt lat="45.44601" lon="3.03357">
        <ele>1113</ele>
        <time>2019-12-19T01:48:27Z</time>
      </trkpt>
      <trkpt lat="45.44593" lon="3.03329">
        <ele>1111</ele>
        <time>2019-12-19T01:48:30Z</time>
      </trkpt>
      <trkpt lat="45.44583" lon="3.03256">
        <ele>1106</ele>
        <time>2019-12-19T01:48:40Z</time>
      </trkpt>
      <trkpt lat="45.44572" lon="3.03206">
        <ele>1103</ele>
        <time>2019-12-19T01:48:46Z</time>
      </trkpt>
      <trkpt lat="45.44562" lon="3.03181">
        <ele>1101</ele>
        <time>2019-12-19T01:48:50Z</time>
      </trkpt>
      <trkpt lat="45.44513" lon="3.03114">
        <ele>1096</ele>
        <time>2019-12-19T01:49:02Z</time>
      </trkpt>
      <trkpt lat="45.44466" lon="3.03005">
        <ele>1094</ele>
        <time>2019-12-19T01:49:18Z</time>
      </trkpt>
      <trkpt lat="45.44348" lon="3.02823">
        <ele>1085</ele>
        <time>2019-12-19T01:49:49Z</time>
      </trkpt>
      <trkpt lat="45.44299" lon="3.02766">
        <ele>1079</ele>
        <time>2019-12-19T01:50:00Z</time>
      </trkpt>
      <trkpt lat="45.44256" lon="3.027">
        <ele>1072</ele>
        <time>2019-12-19T01:50:11Z</time>
      </trkpt>
      <trkpt lat="45.44246" lon="3.02656">
        <ele>1070</ele>
        <time>2019-12-19T01:50:17Z</time>
      </trkpt>
      <trkpt lat="45.44244" lon="3.02592">
        <ele>1066</ele>
        <time>2019-12-19T01:50:25Z</time>
      </trkpt>
      <trkpt lat="45.44234" lon="3.02495">
        <ele>1061</ele>
        <time>2019-12-19T01:50:37Z</time>
      </trkpt>
      <trkpt lat="45.44225" lon="3.02474">
        <ele>1060</ele>
        <time>2019-12-19T01:50:40Z</time>
      </trkpt>
      <trkpt lat="45.44201" lon="3.02437">
        <ele>1057</ele>
        <time>2019-12-19T01:50:47Z</time>
      </trkpt>
      <trkpt lat="45.4419" lon="3.02404">
        <ele>1055</ele>
        <time>2019-12-19T01:50:51Z</time>
      </trkpt>
      <trkpt lat="45.44179" lon="3.02318">
        <ele>1049</ele>
        <time>2019-12-19T01:51:02Z</time>
      </trkpt>
      <trkpt lat="45.44172" lon="3.02279">
        <ele>1044</ele>
        <time>2019-12-19T01:51:07Z</time>
      </trkpt>
      <trkpt lat="45.44173" lon="3.02236">
        <ele>1042</ele>
        <time>2019-12-19T01:51:12Z</time>
      </trkpt>
      <trkpt lat="45.44178" lon="3.02196">
        <ele>1040</ele>
        <time>2019-12-19T01:51:18Z</time>
      </trkpt>
      <trkpt lat="45.44187" lon="3.02171">
        <ele>1041</ele>
        <time>2019-12-19T01:51:21Z</time>
      </trkpt>
      <trkpt lat="45.44208" lon="3.02085">
        <ele>1041</ele>
        <time>2019-12-19T01:51:32Z</time>
      </trkpt>
      <trkpt lat="45.44208" lon="3.0205">
        <ele>1040</ele>
        <time>2019-12-19T01:51:37Z</time>
      </trkpt>
      <trkpt lat="45.44203" lon="3.02015">
        <ele>1040</ele>
        <time>2019-12-19T01:51:41Z</time>
      </trkpt>
      <trkpt lat="45.44189" lon="3.01977">
        <ele>1039</ele>
        <time>2019-12-19T01:51:47Z</time>
      </trkpt>
      <trkpt lat="45.44183" lon="3.01958">
        <ele>1038</ele>
        <time>2019-12-19T01:51:49Z</time>
      </trkpt>
      <trkpt lat="45.44184" lon="3.01863">
        <ele>1028</ele>
        <time>2019-12-19T01:52:01Z</time>
      </trkpt>
      <trkpt lat="45.4418" lon="3.01826">
        <ele>1023</ele>
        <time>2019-12-19T01:52:06Z</time>
      </trkpt>
      <trkpt lat="45.44172" lon="3.01791">
        <ele>1021</ele>
        <time>2019-12-19T01:52:10Z</time>
      </trkpt>
      <trkpt lat="45.44163" lon="3.01688">
        <ele>1012</ele>
        <time>2019-12-19T01:52:23Z</time>
      </trkpt>
      <trkpt lat="45.44158" lon="3.01667">
        <ele>1010</ele>
        <time>2019-12-19T01:52:26Z</time>
      </trkpt>
      <trkpt lat="45.44145" lon="3.01642">
        <ele>1009</ele>
        <time>2019-12-19T01:52:30Z</time>
      </trkpt>
      <trkpt lat="45.44086" lon="3.01565">
        <ele>1006</ele>
        <time>2019-12-19T01:52:44Z</time>
      </trkpt>
      <trkpt lat="45.44068" lon="3.0152">
        <ele>1006</ele>
        <time>2019-12-19T01:52:51Z</time>
      </trkpt>
      <trkpt lat="45.44078" lon="3.01436">
        <ele>1000</ele>
        <time>2019-12-19T01:53:01Z</time>
      </trkpt>
      <trkpt lat="45.44071" lon="3.01412">
        <ele>1001</ele>
        <time>2019-12-19T01:53:05Z</time>
      </trkpt>
      <trkpt lat="45.44055" lon="3.0137">
        <ele>1006</ele>
        <time>2019-12-19T01:53:11Z</time>
      </trkpt>
      <trkpt lat="45.44" lon="3.01325">
        <ele>1009</ele>
        <time>2019-12-19T01:53:22Z</time>
      </trkpt>
      <trkpt lat="45.43977" lon="3.01276">
        <ele>1014</ele>
        <time>2019-12-19T01:53:29Z</time>
      </trkpt>
      <trkpt lat="45.43938" lon="3.00922">
        <ele>1042</ele>
        <time>2019-12-19T01:54:14Z</time>
      </trkpt>
      <trkpt lat="45.43939" lon="3.00888">
        <ele>1048</ele>
        <time>2019-12-19T01:54:18Z</time>
      </trkpt>
      <trkpt lat="45.4393" lon="3.00877">
        <ele>1049</ele>
        <time>2019-12-19T01:54:20Z</time>
      </trkpt>
      <trkpt lat="45.43903" lon="3.00879">
        <ele>1047</ele>
        <time>2019-12-19T01:54:25Z</time>
      </trkpt>
      <trkpt lat="45.43854" lon="3.00862">
        <ele>1052</ele>
        <time>2019-12-19T01:54:34Z</time>
      </trkpt>
      <trkpt lat="45.43833" lon="3.0086">
        <ele>1054</ele>
        <time>2019-12-19T01:54:38Z</time>
      </trkpt>
      <trkpt lat="45.43813" lon="3.00865">
        <ele>1052</ele>
        <time>2019-12-19T01:54:41Z</time>
      </trkpt>
      <trkpt lat="45.43798" lon="3.00873">
        <ele>1049</ele>
        <time>2019-12-19T01:54:44Z</time>
      </trkpt>
      <trkpt lat="45.43779" lon="3.0087">
        <ele>1050</ele>
        <time>2019-12-19T01:54:48Z</time>
      </trkpt>
      <trkpt lat="45.43765" lon="3.00862">
        <ele>1051</ele>
        <time>2019-12-19T01:54:50Z</time>
      </trkpt>
      <trkpt lat="45.43753" lon="3.00847">
        <ele>1055</ele>
        <time>2019-12-19T01:54:53Z</time>
      </trkpt>
      <trkpt lat="45.43744" lon="3.00822">
        <ele>1059</ele>
        <time>2019-12-19T01:54:57Z</time>
      </trkpt>
      <trkpt lat="45.43743" lon="3.00799">
        <ele>1062</ele>
        <time>2019-12-19T01:55:00Z</time>
      </trkpt>
      <trkpt lat="45.4375" lon="3.00703">
        <ele>1071</ele>
        <time>2019-12-19T01:55:12Z</time>
      </trkpt>
      <trkpt lat="45.43757" lon="3.00661">
        <ele>1072</ele>
        <time>2019-12-19T01:55:17Z</time>
      </trkpt>
      <trkpt lat="45.4378" lon="3.00564">
        <ele>1082</ele>
        <time>2019-12-19T01:55:30Z</time>
      </trkpt>
      <trkpt lat="45.43823" lon="3.00489">
        <ele>1086</ele>
        <time>2019-12-19T01:55:42Z</time>
      </trkpt>
      <trkpt lat="45.43839" lon="3.00477">
        <ele>1087</ele>
        <time>2019-12-19T01:55:45Z</time>
      </trkpt>
      <trkpt lat="45.43886" lon="3.00479">
        <ele>1090</ele>
        <time>2019-12-19T01:55:53Z</time>
      </trkpt>
      <trkpt lat="45.43913" lon="3.00496">
        <ele>1090</ele>
        <time>2019-12-19T01:55:59Z</time>
      </trkpt>
      <trkpt lat="45.43981" lon="3.00556">
        <ele>1092</ele>
        <time>2019-12-19T01:56:13Z</time>
      </trkpt>
      <trkpt lat="45.43991" lon="3.00566">
        <ele>1092</ele>
        <time>2019-12-19T01:56:15Z</time>
      </trkpt>
      <trkpt lat="45.44006" lon="3.00569">
        <ele>1094</ele>
        <time>2019-12-19T01:56:18Z</time>
      </trkpt>
      <trkpt lat="45.44055" lon="3.00562">
        <ele>1102</ele>
        <time>2019-12-19T01:56:27Z</time>
      </trkpt>
      <trkpt lat="45.44077" lon="3.00567">
        <ele>1105</ele>
        <time>2019-12-19T01:56:31Z</time>
      </trkpt>
      <trkpt lat="45.4412" lon="3.00609">
        <ele>1107</ele>
        <time>2019-12-19T01:56:40Z</time>
      </trkpt>
      <trkpt lat="45.44165" lon="3.0064">
        <ele>1110</ele>
        <time>2019-12-19T01:56:49Z</time>
      </trkpt>
      <trkpt lat="45.44181" lon="3.00643">
        <ele>1109</ele>
        <time>2019-12-19T01:56:52Z</time>
      </trkpt>
      <trkpt lat="45.44188" lon="3.00641">
        <ele>1109</ele>
        <time>2019-12-19T01:56:53Z</time>
      </trkpt>
      <trkpt lat="45.44194" lon="3.00633">
        <ele>1110</ele>
        <time>2019-12-19T01:56:54Z</time>
      </trkpt>
      <trkpt lat="45.442" lon="3.00621">
        <ele>1111</ele>
        <time>2019-12-19T01:56:56Z</time>
      </trkpt>
      <trkpt lat="45.44201" lon="3.00601">
        <ele>1113</ele>
        <time>2019-12-19T01:56:59Z</time>
      </trkpt>
      <trkpt lat="45.44195" lon="3.00571">
        <ele>1117</ele>
        <time>2019-12-19T01:57:03Z</time>
      </trkpt>
      <trkpt lat="45.44199" lon="3.0055">
        <ele>1119</ele>
        <time>2019-12-19T01:57:05Z</time>
      </trkpt>
      <trkpt lat="45.44206" lon="3.00536">
        <ele>1121</ele>
        <time>2019-12-19T01:57:07Z</time>
      </trkpt>
      <trkpt lat="45.44225" lon="3.00513">
        <ele>1124</ele>
        <time>2019-12-19T01:57:12Z</time>
      </trkpt>
      <trkpt lat="45.44266" lon="3.00499">
        <ele>1127</ele>
        <time>2019-12-19T01:57:19Z</time>
      </trkpt>
      <trkpt lat="45.44296" lon="3.00492">
        <ele>1128</ele>
        <time>2019-12-19T01:57:25Z</time>
      </trkpt>
      <trkpt lat="45.44349" lon="3.00447">
        <ele>1135</ele>
        <time>2019-12-19T01:57:36Z</time>
      </trkpt>
      <trkpt lat="45.44513" lon="3.00448">
        <ele>1140</ele>
        <time>2019-12-19T01:58:05Z</time>
      </trkpt>
      <trkpt lat="45.44525" lon="3.00444">
        <ele>1141</ele>
        <time>2019-12-19T01:58:07Z</time>
      </trkpt>
      <trkpt lat="45.44534" lon="3.00431">
        <ele>1142</ele>
        <time>2019-12-19T01:58:09Z</time>
      </trkpt>
      <trkpt lat="45.44547" lon="3.00357">
        <ele>1145</ele>
        <time>2019-12-19T01:58:19Z</time>
      </trkpt>
      <trkpt lat="45.44577" lon="3.00321">
        <ele>1148</ele>
        <time>2019-12-19T01:58:26Z</time>
      </trkpt>
      <trkpt lat="45.44859" lon="3.00141">
        <ele>1148</ele>
        <time>2019-12-19T01:59:21Z</time>
      </trkpt>
      <trkpt lat="45.44874" lon="3.00124">
        <ele>1148</ele>
        <time>2019-12-19T01:59:24Z</time>
      </trkpt>
      <trkpt lat="45.44939" lon="2.99979">
        <ele>1144</ele>
        <time>2019-12-19T01:59:46Z</time>
      </trkpt>
      <trkpt lat="45.44951" lon="2.99933">
        <ele>1141</ele>
        <time>2019-12-19T01:59:52Z</time>
      </trkpt>
      <trkpt lat="45.44941" lon="2.99906">
        <ele>1138</ele>
        <time>2019-12-19T01:59:56Z</time>
      </trkpt>
      <trkpt lat="45.44917" lon="2.99895">
        <ele>1135</ele>
        <time>2019-12-19T02:00:00Z</time>
      </trkpt>
      <trkpt lat="45.44896" lon="2.99899">
        <ele>1135</ele>
        <time>2019-12-19T02:00:04Z</time>
      </trkpt>
      <trkpt lat="45.44867" lon="2.99899">
        <ele>1134</ele>
        <time>2019-12-19T02:00:09Z</time>
      </trkpt>
      <trkpt lat="45.44812" lon="2.99863">
        <ele>1128</ele>
        <time>2019-12-19T02:00:20Z</time>
      </trkpt>
      <trkpt lat="45.44756" lon="2.99793">
        <ele>1122</ele>
        <time>2019-12-19T02:00:33Z</time>
      </trkpt>
      <trkpt lat="45.44751" lon="2.99731">
        <ele>1118</ele>
        <time>2019-12-19T02:00:41Z</time>
      </trkpt>
      <trkpt lat="45.44742" lon="2.99707">
        <ele>1118</ele>
        <time>2019-12-19T02:00:44Z</time>
      </trkpt>
      <trkpt lat="45.44735" lon="2.99666">
        <ele>1118</ele>
        <time>2019-12-19T02:00:50Z</time>
      </trkpt>
      <trkpt lat="45.44738" lon="2.9963">
        <ele>1114</ele>
        <time>2019-12-19T02:00:54Z</time>
      </trkpt>
      <trkpt lat="45.44738" lon="2.99593">
        <ele>1112</ele>
        <time>2019-12-19T02:00:59Z</time>
      </trkpt>
      <trkpt lat="45.44721" lon="2.99509">
        <ele>1107</ele>
        <time>2019-12-19T02:01:10Z</time>
      </trkpt>
      <trkpt lat="45.44716" lon="2.99418">
        <ele>1098</ele>
        <time>2019-12-19T02:01:21Z</time>
      </trkpt>
      <trkpt lat="45.4471" lon="2.99405">
        <ele>1099</ele>
        <time>2019-12-19T02:01:23Z</time>
      </trkpt>
      <trkpt lat="45.44708" lon="2.99353">
        <ele>1094</ele>
        <time>2019-12-19T02:01:29Z</time>
      </trkpt>
      <trkpt lat="45.44709" lon="2.99338">
        <ele>1092</ele>
        <time>2019-12-19T02:01:31Z</time>
      </trkpt>
      <trkpt lat="45.44704" lon="2.99307">
        <ele>1090</ele>
        <time>2019-12-19T02:01:35Z</time>
      </trkpt>
      <trkpt lat="45.44681" lon="2.99247">
        <ele>1088</ele>
        <time>2019-12-19T02:01:44Z</time>
      </trkpt>
      <trkpt lat="45.44679" lon="2.99229">
        <ele>1086</ele>
        <time>2019-12-19T02:01:46Z</time>
      </trkpt>
      <trkpt lat="45.44683" lon="2.99204">
        <ele>1082</ele>
        <time>2019-12-19T02:01:49Z</time>
      </trkpt>
      <trkpt lat="45.44694" lon="2.9919">
        <ele>1080</ele>
        <time>2019-12-19T02:01:52Z</time>
      </trkpt>
      <trkpt lat="45.44707" lon="2.99184">
        <ele>1078</ele>
        <time>2019-12-19T02:01:54Z</time>
      </trkpt>
      <trkpt lat="45.44732" lon="2.99193">
        <ele>1076</ele>
        <time>2019-12-19T02:01:59Z</time>
      </trkpt>
      <trkpt lat="45.4475" lon="2.99206">
        <ele>1074</ele>
        <time>2019-12-19T02:02:03Z</time>
      </trkpt>
      <trkpt lat="45.44791" lon="2.99244">
        <ele>1073</ele>
        <time>2019-12-19T02:02:11Z</time>
      </trkpt>
      <trkpt lat="45.44859" lon="2.99342">
        <ele>1068</ele>
        <time>2019-12-19T02:02:28Z</time>
      </trkpt>
      <trkpt lat="45.44905" lon="2.99385">
        <ele>1067</ele>
        <time>2019-12-19T02:02:38Z</time>
      </trkpt>
      <trkpt lat="45.44918" lon="2.99396">
        <ele>1067</ele>
        <time>2019-12-19T02:02:41Z</time>
      </trkpt>
      <trkpt lat="45.44929" lon="2.994">
        <ele>1066</ele>
        <time>2019-12-19T02:02:43Z</time>
      </trkpt>
      <trkpt lat="45.4494" lon="2.99397">
        <ele>1065</ele>
        <time>2019-12-19T02:02:45Z</time>
      </trkpt>
      <trkpt lat="45.44951" lon="2.99389">
        <ele>1065</ele>
        <time>2019-12-19T02:02:47Z</time>
      </trkpt>
      <trkpt lat="45.44961" lon="2.9937">
        <ele>1063</ele>
        <time>2019-12-19T02:02:50Z</time>
      </trkpt>
      <trkpt lat="45.44982" lon="2.9933">
        <ele>1059</ele>
        <time>2019-12-19T02:02:56Z</time>
      </trkpt>
      <trkpt lat="45.44989" lon="2.99299">
        <ele>1059</ele>
        <time>2019-12-19T02:03:00Z</time>
      </trkpt>
      <trkpt lat="45.45003" lon="2.99273">
        <ele>1057</ele>
        <time>2019-12-19T02:03:05Z</time>
      </trkpt>
      <trkpt lat="45.45013" lon="2.9926">
        <ele>1055</ele>
        <time>2019-12-19T02:03:07Z</time>
      </trkpt>
      <trkpt lat="45.45025" lon="2.99253">
        <ele>1053</ele>
        <time>2019-12-19T02:03:09Z</time>
      </trkpt>
      <trkpt lat="45.45045" lon="2.99251">
        <ele>1050</ele>
        <time>2019-12-19T02:03:13Z</time>
      </trkpt>
      <trkpt lat="45.45053" lon="2.99248">
        <ele>1049</ele>
        <time>2019-12-19T02:03:14Z</time>
      </trkpt>
      <trkpt lat="45.45077" lon="2.99224">
        <ele>1046</ele>
        <time>2019-12-19T02:03:19Z</time>
      </trkpt>
      <trkpt lat="45.45089" lon="2.99219">
        <ele>1045</ele>
        <time>2019-12-19T02:03:22Z</time>
      </trkpt>
      <trkpt lat="45.45102" lon="2.99218">
        <ele>1044</ele>
        <time>2019-12-19T02:03:24Z</time>
      </trkpt>
      <trkpt lat="45.45173" lon="2.9924">
        <ele>1035</ele>
        <time>2019-12-19T02:03:37Z</time>
      </trkpt>
      <trkpt lat="45.45182" lon="2.99248">
        <ele>1034</ele>
        <time>2019-12-19T02:03:39Z</time>
      </trkpt>
      <trkpt lat="45.45185" lon="2.99256">
        <ele>1034</ele>
        <time>2019-12-19T02:03:40Z</time>
      </trkpt>
      <trkpt lat="45.45194" lon="2.99266">
        <ele>1033</ele>
        <time>2019-12-19T02:03:42Z</time>
      </trkpt>
      <trkpt lat="45.45204" lon="2.99272">
        <ele>1033</ele>
        <time>2019-12-19T02:03:44Z</time>
      </trkpt>
      <trkpt lat="45.45236" lon="2.99279">
        <ele>1032</ele>
        <time>2019-12-19T02:03:50Z</time>
      </trkpt>
      <trkpt lat="45.45242" lon="2.99292">
        <ele>1031</ele>
        <time>2019-12-19T02:03:52Z</time>
      </trkpt>
      <trkpt lat="45.4527" lon="2.99312">
        <ele>1029</ele>
        <time>2019-12-19T02:03:57Z</time>
      </trkpt>
      <trkpt lat="45.45283" lon="2.99316">
        <ele>1027</ele>
        <time>2019-12-19T02:04:00Z</time>
      </trkpt>
      <trkpt lat="45.45303" lon="2.99319">
        <ele>1026</ele>
        <time>2019-12-19T02:04:03Z</time>
      </trkpt>
      <trkpt lat="45.45331" lon="2.99332">
        <ele>1023</ele>
        <time>2019-12-19T02:04:08Z</time>
      </trkpt>
      <trkpt lat="45.45353" lon="2.99336">
        <ele>1022</ele>
        <time>2019-12-19T02:04:12Z</time>
      </trkpt>
      <trkpt lat="45.45389" lon="2.9932">
        <ele>1018</ele>
        <time>2019-12-19T02:04:19Z</time>
      </trkpt>
      <trkpt lat="45.45411" lon="2.99313">
        <ele>1016</ele>
        <time>2019-12-19T02:04:23Z</time>
      </trkpt>
      <trkpt lat="45.45442" lon="2.99309">
        <ele>1014</ele>
        <time>2019-12-19T02:04:29Z</time>
      </trkpt>
      <trkpt lat="45.45458" lon="2.99303">
        <ele>1013</ele>
        <time>2019-12-19T02:04:32Z</time>
      </trkpt>
      <trkpt lat="45.45471" lon="2.9929">
        <ele>1011</ele>
        <time>2019-12-19T02:04:34Z</time>
      </trkpt>
      <trkpt lat="45.45482" lon="2.99274">
        <ele>1010</ele>
        <time>2019-12-19T02:04:37Z</time>
      </trkpt>
      <trkpt lat="45.45506" lon="2.99222">
        <ele>1005</ele>
        <time>2019-12-19T02:04:45Z</time>
      </trkpt>
      <trkpt lat="45.45521" lon="2.99197">
        <ele>1003</ele>
        <time>2019-12-19T02:04:49Z</time>
      </trkpt>
      <trkpt lat="45.45559" lon="2.99152">
        <ele>1000</ele>
        <time>2019-12-19T02:04:58Z</time>
      </trkpt>
      <trkpt lat="45.45602" lon="2.99086">
        <ele>997</ele>
        <time>2019-12-19T02:05:09Z</time>
      </trkpt>
      <trkpt lat="45.4561" lon="2.9906">
        <ele>996</ele>
        <time>2019-12-19T02:05:13Z</time>
      </trkpt>
      <trkpt lat="45.45612" lon="2.99037">
        <ele>993</ele>
        <time>2019-12-19T02:05:16Z</time>
      </trkpt>
      <trkpt lat="45.45611" lon="2.99016">
        <ele>991</ele>
        <time>2019-12-19T02:05:18Z</time>
      </trkpt>
      <trkpt lat="45.45606" lon="2.98986">
        <ele>984</ele>
        <time>2019-12-19T02:05:22Z</time>
      </trkpt>
      <trkpt lat="45.45608" lon="2.9897">
        <ele>981</ele>
        <time>2019-12-19T02:05:24Z</time>
      </trkpt>
      <trkpt lat="45.45612" lon="2.98962">
        <ele>980</ele>
        <time>2019-12-19T02:05:25Z</time>
      </trkpt>
      <trkpt lat="45.45622" lon="2.98956">
        <ele>980</ele>
        <time>2019-12-19T02:05:27Z</time>
      </trkpt>
      <trkpt lat="45.45641" lon="2.98956">
        <ele>984</ele>
        <time>2019-12-19T02:05:31Z</time>
      </trkpt>
      <trkpt lat="45.4568" lon="2.9895">
        <ele>984</ele>
        <time>2019-12-19T02:05:38Z</time>
      </trkpt>
      <trkpt lat="45.45697" lon="2.9894">
        <ele>978</ele>
        <time>2019-12-19T02:05:41Z</time>
      </trkpt>
      <trkpt lat="45.45704" lon="2.98941">
        <ele>977</ele>
        <time>2019-12-19T02:05:42Z</time>
      </trkpt>
      <trkpt lat="45.45727" lon="2.98963">
        <ele>982</ele>
        <time>2019-12-19T02:05:47Z</time>
      </trkpt>
      <trkpt lat="45.45762" lon="2.98985">
        <ele>982</ele>
        <time>2019-12-19T02:05:54Z</time>
      </trkpt>
      <trkpt lat="45.4578" lon="2.99006">
        <ele>981</ele>
        <time>2019-12-19T02:05:58Z</time>
      </trkpt>
      <trkpt lat="45.45791" lon="2.99028">
        <ele>982</ele>
        <time>2019-12-19T02:06:01Z</time>
      </trkpt>
      <trkpt lat="45.45797" lon="2.99061">
        <ele>988</ele>
        <time>2019-12-19T02:06:06Z</time>
      </trkpt>
      <trkpt lat="45.45834" lon="2.99116">
        <ele>986</ele>
        <time>2019-12-19T02:06:15Z</time>
      </trkpt>
      <trkpt lat="45.45868" lon="2.99142">
        <ele>980</ele>
        <time>2019-12-19T02:06:22Z</time>
      </trkpt>
      <trkpt lat="45.45901" lon="2.99161">
        <ele>973</ele>
        <time>2019-12-19T02:06:28Z</time>
      </trkpt>
      <trkpt lat="45.45913" lon="2.99163">
        <ele>969</ele>
        <time>2019-12-19T02:06:30Z</time>
      </trkpt>
      <trkpt lat="45.45936" lon="2.99161">
        <ele>961</ele>
        <time>2019-12-19T02:06:35Z</time>
      </trkpt>
      <trkpt lat="45.45953" lon="2.99164">
        <ele>957</ele>
        <time>2019-12-19T02:06:38Z</time>
      </trkpt>
      <trkpt lat="45.45979" lon="2.99175">
        <ele>953</ele>
        <time>2019-12-19T02:06:42Z</time>
      </trkpt>
      <trkpt lat="45.46011" lon="2.99205">
        <ele>953</ele>
        <time>2019-12-19T02:06:49Z</time>
      </trkpt>
      <trkpt lat="45.46045" lon="2.99251">
        <ele>954</ele>
        <time>2019-12-19T02:06:58Z</time>
      </trkpt>
      <trkpt lat="45.46114" lon="2.99329">
        <ele>944</ele>
        <time>2019-12-19T02:07:13Z</time>
      </trkpt>
      <trkpt lat="45.46143" lon="2.9935">
        <ele>940</ele>
        <time>2019-12-19T02:07:19Z</time>
      </trkpt>
      <trkpt lat="45.46158" lon="2.9938">
        <ele>943</ele>
        <time>2019-12-19T02:07:24Z</time>
      </trkpt>
      <trkpt lat="45.46174" lon="2.9939">
        <ele>945</ele>
        <time>2019-12-19T02:07:27Z</time>
      </trkpt>
      <trkpt lat="45.46195" lon="2.99372">
        <ele>946</ele>
        <time>2019-12-19T02:07:31Z</time>
      </trkpt>
      <trkpt lat="45.46212" lon="2.99324">
        <ele>939</ele>
        <time>2019-12-19T02:07:38Z</time>
      </trkpt>
      <trkpt lat="45.46225" lon="2.99237">
        <ele>918</ele>
        <time>2019-12-19T02:07:49Z</time>
      </trkpt>
      <trkpt lat="45.46251" lon="2.99188">
        <ele>906</ele>
        <time>2019-12-19T02:07:57Z</time>
      </trkpt>
      <trkpt lat="45.46279" lon="2.99181">
        <ele>908</ele>
        <time>2019-12-19T02:08:02Z</time>
      </trkpt>
      <trkpt lat="45.46324" lon="2.99162">
        <ele>907</ele>
        <time>2019-12-19T02:08:10Z</time>
      </trkpt>
      <trkpt lat="45.46401" lon="2.99141">
        <ele>898</ele>
        <time>2019-12-19T02:08:24Z</time>
      </trkpt>
      <trkpt lat="45.46427" lon="2.99141">
        <ele>898</ele>
        <time>2019-12-19T02:08:29Z</time>
      </trkpt>
      <trkpt lat="45.46559" lon="2.99056">
        <ele>869</ele>
        <time>2019-12-19T02:08:54Z</time>
      </trkpt>
      <trkpt lat="45.46611" lon="2.99029">
        <ele>861</ele>
        <time>2019-12-19T02:09:04Z</time>
      </trkpt>
      <trkpt lat="45.46745" lon="2.99005">
        <ele>851</ele>
        <time>2019-12-19T02:09:28Z</time>
      </trkpt>
      <trkpt lat="45.46764" lon="2.99005">
        <ele>851</ele>
        <time>2019-12-19T02:09:32Z</time>
      </trkpt>
      <trkpt lat="45.46772" lon="2.99002">
        <ele>851</ele>
        <time>2019-12-19T02:09:33Z</time>
      </trkpt>
      <trkpt lat="45.46791" lon="2.98965">
        <ele>840</ele>
        <time>2019-12-19T02:09:39Z</time>
      </trkpt>
      <trkpt lat="45.46807" lon="2.9895">
        <ele>835</ele>
        <time>2019-12-19T02:09:42Z</time>
      </trkpt>
      <trkpt lat="45.46837" lon="2.98945">
        <ele>834</ele>
        <time>2019-12-19T02:09:48Z</time>
      </trkpt>
      <trkpt lat="45.46879" lon="2.98951">
        <ele>833</ele>
        <time>2019-12-19T02:09:55Z</time>
      </trkpt>
      <trkpt lat="45.469" lon="2.98944">
        <ele>830</ele>
        <time>2019-12-19T02:09:59Z</time>
      </trkpt>
      <trkpt lat="45.46963" lon="2.98952">
        <ele>826</ele>
        <time>2019-12-19T02:10:10Z</time>
      </trkpt>
      <trkpt lat="45.47022" lon="2.98942">
        <ele>817</ele>
        <time>2019-12-19T02:10:21Z</time>
      </trkpt>
      <trkpt lat="45.47077" lon="2.98942">
        <ele>813</ele>
        <time>2019-12-19T02:10:30Z</time>
      </trkpt>
      <trkpt lat="45.47085" lon="2.98938">
        <ele>811</ele>
        <time>2019-12-19T02:10:32Z</time>
      </trkpt>
      <trkpt lat="45.47092" lon="2.98926">
        <ele>807</ele>
        <time>2019-12-19T02:10:34Z</time>
      </trkpt>
      <trkpt lat="45.47094" lon="2.9891">
        <ele>804</ele>
        <time>2019-12-19T02:10:36Z</time>
      </trkpt>
      <trkpt lat="45.47091" lon="2.98895">
        <ele>802</ele>
        <time>2019-12-19T02:10:38Z</time>
      </trkpt>
      <trkpt lat="45.47082" lon="2.98884">
        <ele>801</ele>
        <time>2019-12-19T02:10:40Z</time>
      </trkpt>
      <trkpt lat="45.47065" lon="2.98873">
        <ele>800</ele>
        <time>2019-12-19T02:10:43Z</time>
      </trkpt>
      <trkpt lat="45.47037" lon="2.98863">
        <ele>799</ele>
        <time>2019-12-19T02:10:48Z</time>
      </trkpt>
      <trkpt lat="45.46982" lon="2.98832">
        <ele>795</ele>
        <time>2019-12-19T02:10:59Z</time>
      </trkpt>
      <trkpt lat="45.46943" lon="2.98813">
        <ele>792</ele>
        <time>2019-12-19T02:11:06Z</time>
      </trkpt>
      <trkpt lat="45.46904" lon="2.98781">
        <ele>787</ele>
        <time>2019-12-19T02:11:14Z</time>
      </trkpt>
      <trkpt lat="45.46844" lon="2.98781">
        <ele>790</ele>
        <time>2019-12-19T02:11:25Z</time>
      </trkpt>
      <trkpt lat="45.46802" lon="2.98769">
        <ele>791</ele>
        <time>2019-12-19T02:11:33Z</time>
      </trkpt>
      <trkpt lat="45.46788" lon="2.98759">
        <ele>791</ele>
        <time>2019-12-19T02:11:35Z</time>
      </trkpt>
      <trkpt lat="45.46794" lon="2.98675">
        <ele>779</ele>
        <time>2019-12-19T02:11:46Z</time>
      </trkpt>
      <trkpt lat="45.46799" lon="2.98615">
        <ele>777</ele>
        <time>2019-12-19T02:11:54Z</time>
      </trkpt>
      <trkpt lat="45.4681" lon="2.985">
        <ele>779</ele>
        <time>2019-12-19T02:12:08Z</time>
      </trkpt>
      <trkpt lat="45.46809" lon="2.98474">
        <ele>781</ele>
        <time>2019-12-19T02:12:11Z</time>
      </trkpt>
      <trkpt lat="45.46803" lon="2.98441">
        <ele>785</ele>
        <time>2019-12-19T02:12:15Z</time>
      </trkpt>
      <trkpt lat="45.46802" lon="2.98416">
        <ele>787</ele>
        <time>2019-12-19T02:12:19Z</time>
      </trkpt>
      <trkpt lat="45.46804" lon="2.9839">
        <ele>788</ele>
        <time>2019-12-19T02:12:22Z</time>
      </trkpt>
      <trkpt lat="45.46836" lon="2.98215">
        <ele>788</ele>
        <time>2019-12-19T02:12:44Z</time>
      </trkpt>
      <trkpt lat="45.46839" lon="2.98189">
        <ele>790</ele>
        <time>2019-12-19T02:12:48Z</time>
      </trkpt>
      <trkpt lat="45.46836" lon="2.98167">
        <ele>792</ele>
        <time>2019-12-19T02:12:51Z</time>
      </trkpt>
      <trkpt lat="45.46825" lon="2.98142">
        <ele>794</ele>
        <time>2019-12-19T02:12:54Z</time>
      </trkpt>
      <trkpt lat="45.46806" lon="2.98111">
        <ele>796</ele>
        <time>2019-12-19T02:12:59Z</time>
      </trkpt>
      <trkpt lat="45.46771" lon="2.9808">
        <ele>798</ele>
        <time>2019-12-19T02:13:07Z</time>
      </trkpt>
      <trkpt lat="45.46761" lon="2.98067">
        <ele>799</ele>
        <time>2019-12-19T02:13:09Z</time>
      </trkpt>
      <trkpt lat="45.46745" lon="2.98034">
        <ele>800</ele>
        <time>2019-12-19T02:13:14Z</time>
      </trkpt>
      <trkpt lat="45.46707" lon="2.97998">
        <ele>803</ele>
        <time>2019-12-19T02:13:22Z</time>
      </trkpt>
      <trkpt lat="45.46634" lon="2.97885">
        <ele>816</ele>
        <time>2019-12-19T02:13:41Z</time>
      </trkpt>
      <trkpt lat="45.466" lon="2.97839">
        <ele>818</ele>
        <time>2019-12-19T02:13:50Z</time>
      </trkpt>
      <trkpt lat="45.46593" lon="2.97823">
        <ele>819</ele>
        <time>2019-12-19T02:13:52Z</time>
      </trkpt>
      <trkpt lat="45.46591" lon="2.97804">
        <ele>821</ele>
        <time>2019-12-19T02:13:54Z</time>
      </trkpt>
      <trkpt lat="45.46593" lon="2.9779">
        <ele>823</ele>
        <time>2019-12-19T02:13:56Z</time>
      </trkpt>
      <trkpt lat="45.46602" lon="2.97777">
        <ele>825</ele>
        <time>2019-12-19T02:13:59Z</time>
      </trkpt>
      <trkpt lat="45.46614" lon="2.97768">
        <ele>827</ele>
        <time>2019-12-19T02:14:01Z</time>
      </trkpt>
      <trkpt lat="45.46635" lon="2.97767">
        <ele>828</ele>
        <time>2019-12-19T02:14:05Z</time>
      </trkpt>
      <trkpt lat="45.46679" lon="2.97779">
        <ele>831</ele>
        <time>2019-12-19T02:14:13Z</time>
      </trkpt>
      <trkpt lat="45.46718" lon="2.97777">
        <ele>840</ele>
        <time>2019-12-19T02:14:20Z</time>
      </trkpt>
      <trkpt lat="45.46739" lon="2.97787">
        <ele>843</ele>
        <time>2019-12-19T02:14:24Z</time>
      </trkpt>
      <trkpt lat="45.46773" lon="2.97821">
        <ele>846</ele>
        <time>2019-12-19T02:14:31Z</time>
      </trkpt>
      <trkpt lat="45.4684" lon="2.9787">
        <ele>855</ele>
        <time>2019-12-19T02:14:44Z</time>
      </trkpt>
      <trkpt lat="45.46879" lon="2.97887">
        <ele>863</ele>
        <time>2019-12-19T02:14:52Z</time>
      </trkpt>
      <trkpt lat="45.47125" lon="2.97967">
        <ele>896</ele>
        <time>2019-12-19T02:15:36Z</time>
      </trkpt>
      <trkpt lat="45.47186" lon="2.97975">
        <ele>900</ele>
        <time>2019-12-19T02:15:47Z</time>
      </trkpt>
      <trkpt lat="45.47203" lon="2.9797">
        <ele>905</ele>
        <time>2019-12-19T02:15:50Z</time>
      </trkpt>
      <trkpt lat="45.47225" lon="2.97957">
        <ele>914</ele>
        <time>2019-12-19T02:15:55Z</time>
      </trkpt>
      <trkpt lat="45.47264" lon="2.97965">
        <ele>912</ele>
        <time>2019-12-19T02:16:02Z</time>
      </trkpt>
      <trkpt lat="45.47296" lon="2.97964">
        <ele>914</ele>
        <time>2019-12-19T02:16:07Z</time>
      </trkpt>
      <trkpt lat="45.47314" lon="2.97954">
        <ele>920</ele>
        <time>2019-12-19T02:16:11Z</time>
      </trkpt>
      <trkpt lat="45.47333" lon="2.97951">
        <ele>921</ele>
        <time>2019-12-19T02:16:14Z</time>
      </trkpt>
      <trkpt lat="45.47356" lon="2.97937">
        <ele>928</ele>
        <time>2019-12-19T02:16:19Z</time>
      </trkpt>
      <trkpt lat="45.47363" lon="2.97936">
        <ele>928</ele>
        <time>2019-12-19T02:16:20Z</time>
      </trkpt>
      <trkpt lat="45.47386" lon="2.97953">
        <ele>920</ele>
        <time>2019-12-19T02:16:25Z</time>
      </trkpt>
      <trkpt lat="45.47398" lon="2.97955">
        <ele>919</ele>
        <time>2019-12-19T02:16:27Z</time>
      </trkpt>
      <trkpt lat="45.47404" lon="2.97952">
        <ele>920</ele>
        <time>2019-12-19T02:16:28Z</time>
      </trkpt>
      <trkpt lat="45.47406" lon="2.97948">
        <ele>921</ele>
        <time>2019-12-19T02:16:28Z</time>
      </trkpt>
      <trkpt lat="45.47408" lon="2.97939">
        <ele>925</ele>
        <time>2019-12-19T02:16:30Z</time>
      </trkpt>
      <trkpt lat="45.47409" lon="2.97925">
        <ele>930</ele>
        <time>2019-12-19T02:16:31Z</time>
      </trkpt>
      <trkpt lat="45.47414" lon="2.97918">
        <ele>933</ele>
        <time>2019-12-19T02:16:33Z</time>
      </trkpt>
      <trkpt lat="45.47418" lon="2.97913">
        <ele>934</ele>
        <time>2019-12-19T02:16:34Z</time>
      </trkpt>
      <trkpt lat="45.47428" lon="2.9791">
        <ele>937</ele>
        <time>2019-12-19T02:16:35Z</time>
      </trkpt>
      <trkpt lat="45.47433" lon="2.97911">
        <ele>937</ele>
        <time>2019-12-19T02:16:36Z</time>
      </trkpt>
      <trkpt lat="45.47449" lon="2.97928">
        <ele>934</ele>
        <time>2019-12-19T02:16:40Z</time>
      </trkpt>
      <trkpt lat="45.47476" lon="2.9795">
        <ele>932</ele>
        <time>2019-12-19T02:16:45Z</time>
      </trkpt>
      <trkpt lat="45.47492" lon="2.97976">
        <ele>928</ele>
        <time>2019-12-19T02:16:50Z</time>
      </trkpt>
      <trkpt lat="45.47508" lon="2.97994">
        <ele>927</ele>
        <time>2019-12-19T02:16:53Z</time>
      </trkpt>
      <trkpt lat="45.47568" lon="2.98021">
        <ele>939</ele>
        <time>2019-12-19T02:17:05Z</time>
      </trkpt>
      <trkpt lat="45.47626" lon="2.98081">
        <ele>942</ele>
        <time>2019-12-19T02:17:17Z</time>
      </trkpt>
      <trkpt lat="45.47686" lon="2.98157">
        <ele>941</ele>
        <time>2019-12-19T02:17:32Z</time>
      </trkpt>
      <trkpt lat="45.47699" lon="2.98167">
        <ele>941</ele>
        <time>2019-12-19T02:17:34Z</time>
      </trkpt>
      <trkpt lat="45.47707" lon="2.98169">
        <ele>942</ele>
        <time>2019-12-19T02:17:36Z</time>
      </trkpt>
      <trkpt lat="45.47716" lon="2.98167">
        <ele>943</ele>
        <time>2019-12-19T02:17:37Z</time>
      </trkpt>
      <trkpt lat="45.47725" lon="2.98159">
        <ele>945</ele>
        <time>2019-12-19T02:17:39Z</time>
      </trkpt>
      <trkpt lat="45.47752" lon="2.98133">
        <ele>951</ele>
        <time>2019-12-19T02:17:45Z</time>
      </trkpt>
      <trkpt lat="45.47776" lon="2.98104">
        <ele>953</ele>
        <time>2019-12-19T02:17:51Z</time>
      </trkpt>
      <trkpt lat="45.47807" lon="2.9805">
        <ele>960</ele>
        <time>2019-12-19T02:17:59Z</time>
      </trkpt>
      <trkpt lat="45.47857" lon="2.97979">
        <ele>967</ele>
        <time>2019-12-19T02:18:12Z</time>
      </trkpt>
      <trkpt lat="45.47862" lon="2.9797">
        <ele>969</ele>
        <time>2019-12-19T02:18:13Z</time>
      </trkpt>
      <trkpt lat="45.47863" lon="2.9796">
        <ele>971</ele>
        <time>2019-12-19T02:18:14Z</time>
      </trkpt>
      <trkpt lat="45.47863" lon="2.9795">
        <ele>973</ele>
        <time>2019-12-19T02:18:16Z</time>
      </trkpt>
      <trkpt lat="45.47849" lon="2.97943">
        <ele>978</ele>
        <time>2019-12-19T02:18:18Z</time>
      </trkpt>
      <trkpt lat="45.47842" lon="2.97945">
        <ele>979</ele>
        <time>2019-12-19T02:18:20Z</time>
      </trkpt>
      <trkpt lat="45.47818" lon="2.97957">
        <ele>980</ele>
        <time>2019-12-19T02:18:24Z</time>
      </trkpt>
      <trkpt lat="45.47757" lon="2.97973">
        <ele>987</ele>
        <time>2019-12-19T02:18:35Z</time>
      </trkpt>
      <trkpt lat="45.47736" lon="2.97972">
        <ele>987</ele>
        <time>2019-12-19T02:18:39Z</time>
      </trkpt>
      <trkpt lat="45.47714" lon="2.97968">
        <ele>987</ele>
        <time>2019-12-19T02:18:43Z</time>
      </trkpt>
      <trkpt lat="45.47695" lon="2.97958">
        <ele>990</ele>
        <time>2019-12-19T02:18:46Z</time>
      </trkpt>
      <trkpt lat="45.47675" lon="2.97939">
        <ele>996</ele>
        <time>2019-12-19T02:18:51Z</time>
      </trkpt>
      <trkpt lat="45.47661" lon="2.9792">
        <ele>1001</ele>
        <time>2019-12-19T02:18:54Z</time>
      </trkpt>
      <trkpt lat="45.47635" lon="2.97873">
        <ele>1006</ele>
        <time>2019-12-19T02:19:02Z</time>
      </trkpt>
      <trkpt lat="45.47607" lon="2.97842">
        <ele>1006</ele>
        <time>2019-12-19T02:19:08Z</time>
      </trkpt>
      <trkpt lat="45.47597" lon="2.97823">
        <ele>1006</ele>
        <time>2019-12-19T02:19:11Z</time>
      </trkpt>
      <trkpt lat="45.47594" lon="2.97807">
        <ele>1007</ele>
        <time>2019-12-19T02:19:13Z</time>
      </trkpt>
      <trkpt lat="45.47594" lon="2.9779">
        <ele>1009</ele>
        <time>2019-12-19T02:19:15Z</time>
      </trkpt>
      <trkpt lat="45.47596" lon="2.97767">
        <ele>1013</ele>
        <time>2019-12-19T02:19:18Z</time>
      </trkpt>
      <trkpt lat="45.47614" lon="2.97674">
        <ele>1029</ele>
        <time>2019-12-19T02:19:30Z</time>
      </trkpt>
      <trkpt lat="45.47619" lon="2.97632">
        <ele>1037</ele>
        <time>2019-12-19T02:19:35Z</time>
      </trkpt>
      <trkpt lat="45.47619" lon="2.97618">
        <ele>1039</ele>
        <time>2019-12-19T02:19:37Z</time>
      </trkpt>
      <trkpt lat="45.47613" lon="2.97594">
        <ele>1040</ele>
        <time>2019-12-19T02:19:40Z</time>
      </trkpt>
      <trkpt lat="45.47603" lon="2.97579">
        <ele>1039</ele>
        <time>2019-12-19T02:19:43Z</time>
      </trkpt>
      <trkpt lat="45.47591" lon="2.97567">
        <ele>1039</ele>
        <time>2019-12-19T02:19:45Z</time>
      </trkpt>
      <trkpt lat="45.47582" lon="2.97562">
        <ele>1039</ele>
        <time>2019-12-19T02:19:47Z</time>
      </trkpt>
      <trkpt lat="45.4756" lon="2.97561">
        <ele>1040</ele>
        <time>2019-12-19T02:19:51Z</time>
      </trkpt>
      <trkpt lat="45.47525" lon="2.97564">
        <ele>1041</ele>
        <time>2019-12-19T02:19:57Z</time>
      </trkpt>
      <trkpt lat="45.47484" lon="2.97577">
        <ele>1037</ele>
        <time>2019-12-19T02:20:05Z</time>
      </trkpt>
      <trkpt lat="45.47472" lon="2.97576">
        <ele>1036</ele>
        <time>2019-12-19T02:20:07Z</time>
      </trkpt>
      <trkpt lat="45.47464" lon="2.97573">
        <ele>1036</ele>
        <time>2019-12-19T02:20:08Z</time>
      </trkpt>
      <trkpt lat="45.47451" lon="2.97564">
        <ele>1038</ele>
        <time>2019-12-19T02:20:11Z</time>
      </trkpt>
      <trkpt lat="45.47442" lon="2.97554">
        <ele>1040</ele>
        <time>2019-12-19T02:20:13Z</time>
      </trkpt>
      <trkpt lat="45.47366" lon="2.97401">
        <ele>1059</ele>
        <time>2019-12-19T02:20:36Z</time>
      </trkpt>
      <trkpt lat="45.47359" lon="2.9738">
        <ele>1062</ele>
        <time>2019-12-19T02:20:39Z</time>
      </trkpt>
      <trkpt lat="45.47355" lon="2.97359">
        <ele>1065</ele>
        <time>2019-12-19T02:20:42Z</time>
      </trkpt>
      <trkpt lat="45.47351" lon="2.97319">
        <ele>1073</ele>
        <time>2019-12-19T02:20:47Z</time>
      </trkpt>
      <trkpt lat="45.47347" lon="2.97307">
        <ele>1074</ele>
        <time>2019-12-19T02:20:49Z</time>
      </trkpt>
      <trkpt lat="45.47339" lon="2.97299">
        <ele>1074</ele>
        <time>2019-12-19T02:20:50Z</time>
      </trkpt>
      <trkpt lat="45.47332" lon="2.97296">
        <ele>1073</ele>
        <time>2019-12-19T02:20:52Z</time>
      </trkpt>
      <trkpt lat="45.47309" lon="2.973">
        <ele>1073</ele>
        <time>2019-12-19T02:20:56Z</time>
      </trkpt>
      <trkpt lat="45.47289" lon="2.9731">
        <ele>1072</ele>
        <time>2019-12-19T02:21:00Z</time>
      </trkpt>
      <trkpt lat="45.47271" lon="2.97333">
        <ele>1069</ele>
        <time>2019-12-19T02:21:04Z</time>
      </trkpt>
      <trkpt lat="45.47258" lon="2.97339">
        <ele>1069</ele>
        <time>2019-12-19T02:21:06Z</time>
      </trkpt>
      <trkpt lat="45.47242" lon="2.97341">
        <ele>1069</ele>
        <time>2019-12-19T02:21:09Z</time>
      </trkpt>
      <trkpt lat="45.47215" lon="2.97317">
        <ele>1073</ele>
        <time>2019-12-19T02:21:15Z</time>
      </trkpt>
      <trkpt lat="45.472" lon="2.97308">
        <ele>1075</ele>
        <time>2019-12-19T02:21:18Z</time>
      </trkpt>
      <trkpt lat="45.47128" lon="2.97246">
        <ele>1077</ele>
        <time>2019-12-19T02:21:33Z</time>
      </trkpt>
      <trkpt lat="45.4712" lon="2.97235">
        <ele>1078</ele>
        <time>2019-12-19T02:21:35Z</time>
      </trkpt>
      <trkpt lat="45.47114" lon="2.9722">
        <ele>1079</ele>
        <time>2019-12-19T02:21:37Z</time>
      </trkpt>
      <trkpt lat="45.47112" lon="2.97208">
        <ele>1080</ele>
        <time>2019-12-19T02:21:38Z</time>
      </trkpt>
      <trkpt lat="45.47111" lon="2.97142">
        <ele>1087</ele>
        <time>2019-12-19T02:21:47Z</time>
      </trkpt>
      <trkpt lat="45.47096" lon="2.97044">
        <ele>1094</ele>
        <time>2019-12-19T02:21:59Z</time>
      </trkpt>
      <trkpt lat="45.47068" lon="2.96917">
        <ele>1098</ele>
        <time>2019-12-19T02:22:16Z</time>
      </trkpt>
      <trkpt lat="45.47062" lon="2.96842">
        <ele>1101</ele>
        <time>2019-12-19T02:22:25Z</time>
      </trkpt>
      <trkpt lat="45.47086" lon="2.96787">
        <ele>1111</ele>
        <time>2019-12-19T02:22:33Z</time>
      </trkpt>
      <trkpt lat="45.47084" lon="2.96769">
        <ele>1111</ele>
        <time>2019-12-19T02:22:36Z</time>
      </trkpt>
      <trkpt lat="45.47064" lon="2.96732">
        <ele>1109</ele>
        <time>2019-12-19T02:22:41Z</time>
      </trkpt>
      <trkpt lat="45.47057" lon="2.96692">
        <ele>1111</ele>
        <time>2019-12-19T02:22:47Z</time>
      </trkpt>
      <trkpt lat="45.47062" lon="2.96643">
        <ele>1115</ele>
        <time>2019-12-19T02:22:53Z</time>
      </trkpt>
      <trkpt lat="45.47068" lon="2.96603">
        <ele>1117</ele>
        <time>2019-12-19T02:22:58Z</time>
      </trkpt>
      <trkpt lat="45.47107" lon="2.96564">
        <ele>1124</ele>
        <time>2019-12-19T02:23:06Z</time>
      </trkpt>
      <trkpt lat="45.47142" lon="2.96491">
        <ele>1131</ele>
        <time>2019-12-19T02:23:17Z</time>
      </trkpt>
      <trkpt lat="45.47143" lon="2.96474">
        <ele>1131</ele>
        <time>2019-12-19T02:23:19Z</time>
      </trkpt>
      <trkpt lat="45.47121" lon="2.96407">
        <ele>1128</ele>
        <time>2019-12-19T02:23:29Z</time>
      </trkpt>
      <trkpt lat="45.47122" lon="2.96381">
        <ele>1128</ele>
        <time>2019-12-19T02:23:32Z</time>
      </trkpt>
      <trkpt lat="45.4713" lon="2.96355">
        <ele>1129</ele>
        <time>2019-12-19T02:23:36Z</time>
      </trkpt>
      <trkpt lat="45.47189" lon="2.96251">
        <ele>1137</ele>
        <time>2019-12-19T02:23:52Z</time>
      </trkpt>
      <trkpt lat="45.47226" lon="2.9623">
        <ele>1143</ele>
        <time>2019-12-19T02:23:59Z</time>
      </trkpt>
      <trkpt lat="45.47276" lon="2.96129">
        <ele>1150</ele>
        <time>2019-12-19T02:24:15Z</time>
      </trkpt>
      <trkpt lat="45.47304" lon="2.96091">
        <ele>1152</ele>
        <time>2019-12-19T02:24:22Z</time>
      </trkpt>
      <trkpt lat="45.47325" lon="2.96075">
        <ele>1153</ele>
        <time>2019-12-19T02:24:26Z</time>
      </trkpt>
      <trkpt lat="45.47361" lon="2.96063">
        <ele>1154</ele>
        <time>2019-12-19T02:24:32Z</time>
      </trkpt>
      <trkpt lat="45.47386" lon="2.96045">
        <ele>1155</ele>
        <time>2019-12-19T02:24:37Z</time>
      </trkpt>
      <trkpt lat="45.47418" lon="2.9604">
        <ele>1156</ele>
        <time>2019-12-19T02:24:43Z</time>
      </trkpt>
      <trkpt lat="45.47428" lon="2.96029">
        <ele>1156</ele>
        <time>2019-12-19T02:24:45Z</time>
      </trkpt>
      <trkpt lat="45.47433" lon="2.96012">
        <ele>1157</ele>
        <time>2019-12-19T02:24:48Z</time>
      </trkpt>
      <trkpt lat="45.47429" lon="2.95991">
        <ele>1158</ele>
        <time>2019-12-19T02:24:50Z</time>
      </trkpt>
      <trkpt lat="45.47395" lon="2.9594">
        <ele>1163</ele>
        <time>2019-12-19T02:24:59Z</time>
      </trkpt>
      <trkpt lat="45.47372" lon="2.95858">
        <ele>1167</ele>
        <time>2019-12-19T02:25:10Z</time>
      </trkpt>
      <trkpt lat="45.47372" lon="2.95766">
        <ele>1167</ele>
        <time>2019-12-19T02:25:22Z</time>
      </trkpt>
      <trkpt lat="45.47407" lon="2.95529">
        <ele>1165</ele>
        <time>2019-12-19T02:25:52Z</time>
      </trkpt>
      <trkpt lat="45.47434" lon="2.95424">
        <ele>1160</ele>
        <time>2019-12-19T02:26:06Z</time>
      </trkpt>
      <trkpt lat="45.47455" lon="2.95397">
        <ele>1159</ele>
        <time>2019-12-19T02:26:11Z</time>
      </trkpt>
      <trkpt lat="45.47473" lon="2.95377">
        <ele>1157</ele>
        <time>2019-12-19T02:26:15Z</time>
      </trkpt>
      <trkpt lat="45.47495" lon="2.95362">
        <ele>1156</ele>
        <time>2019-12-19T02:26:19Z</time>
      </trkpt>
      <trkpt lat="45.47595" lon="2.95345">
        <ele>1151</ele>
        <time>2019-12-19T02:26:37Z</time>
      </trkpt>
      <trkpt lat="45.47658" lon="2.95344">
        <ele>1147</ele>
        <time>2019-12-19T02:26:48Z</time>
      </trkpt>
      <trkpt lat="45.47681" lon="2.95332">
        <ele>1146</ele>
        <time>2019-12-19T02:26:53Z</time>
      </trkpt>
      <trkpt lat="45.47718" lon="2.95279">
        <ele>1145</ele>
        <time>2019-12-19T02:27:02Z</time>
      </trkpt>
      <trkpt lat="45.47794" lon="2.95183">
        <ele>1140</ele>
        <time>2019-12-19T02:27:20Z</time>
      </trkpt>
      <trkpt lat="45.47811" lon="2.95146">
        <ele>1139</ele>
        <time>2019-12-19T02:27:26Z</time>
      </trkpt>
      <trkpt lat="45.47811" lon="2.95119">
        <ele>1139</ele>
        <time>2019-12-19T02:27:29Z</time>
      </trkpt>
      <trkpt lat="45.47829" lon="2.95023">
        <ele>1136</ele>
        <time>2019-12-19T02:27:41Z</time>
      </trkpt>
      <trkpt lat="45.47806" lon="2.94994">
        <ele>1136</ele>
        <time>2019-12-19T02:27:47Z</time>
      </trkpt>
      <trkpt lat="45.4775" lon="2.9478">
        <ele>1147</ele>
        <time>2019-12-19T02:28:15Z</time>
      </trkpt>
      <trkpt lat="45.4775" lon="2.94729">
        <ele>1150</ele>
        <time>2019-12-19T02:28:22Z</time>
      </trkpt>
      <trkpt lat="45.47756" lon="2.94704">
        <ele>1151</ele>
        <time>2019-12-19T02:28:25Z</time>
      </trkpt>
      <trkpt lat="45.47782" lon="2.94652">
        <ele>1152</ele>
        <time>2019-12-19T02:28:33Z</time>
      </trkpt>
      <trkpt lat="45.47891" lon="2.94297">
        <ele>1155</ele>
        <time>2019-12-19T02:29:21Z</time>
      </trkpt>
      <trkpt lat="45.48011" lon="2.94143">
        <ele>1154</ele>
        <time>2019-12-19T02:29:50Z</time>
      </trkpt>
      <trkpt lat="45.4827" lon="2.9382">
        <ele>1150</ele>
        <time>2019-12-19T02:30:51Z</time>
      </trkpt>
      <trkpt lat="45.48421" lon="2.93649">
        <ele>1147</ele>
        <time>2019-12-19T02:31:26Z</time>
      </trkpt>
      <trkpt lat="45.48426" lon="2.93637">
        <ele>1147</ele>
        <time>2019-12-19T02:31:27Z</time>
      </trkpt>
      <trkpt lat="45.48429" lon="2.93622">
        <ele>1147</ele>
        <time>2019-12-19T02:31:29Z</time>
      </trkpt>
      <trkpt lat="45.48429" lon="2.93605">
        <ele>1148</ele>
        <time>2019-12-19T02:31:31Z</time>
      </trkpt>
      <trkpt lat="45.48424" lon="2.9359">
        <ele>1148</ele>
        <time>2019-12-19T02:31:33Z</time>
      </trkpt>
      <trkpt lat="45.48436" lon="2.93574">
        <ele>1148</ele>
        <time>2019-12-19T02:31:36Z</time>
      </trkpt>
      <trkpt lat="45.48449" lon="2.93551">
        <ele>1147</ele>
        <time>2019-12-19T02:31:40Z</time>
      </trkpt>
      <trkpt lat="45.48454" lon="2.93528">
        <ele>1147</ele>
        <time>2019-12-19T02:31:43Z</time>
      </trkpt>
      <trkpt lat="45.48455" lon="2.93504">
        <ele>1147</ele>
        <time>2019-12-19T02:31:46Z</time>
      </trkpt>
      <trkpt lat="45.48464" lon="2.9349">
        <ele>1146</ele>
        <time>2019-12-19T02:31:48Z</time>
      </trkpt>
      <trkpt lat="45.48475" lon="2.93466">
        <ele>1145</ele>
        <time>2019-12-19T02:31:52Z</time>
      </trkpt>
      <trkpt lat="45.48482" lon="2.93439">
        <ele>1144</ele>
        <time>2019-12-19T02:31:56Z</time>
      </trkpt>
      <trkpt lat="45.48491" lon="2.93386">
        <ele>1140</ele>
        <time>2019-12-19T02:32:02Z</time>
      </trkpt>
      <trkpt lat="45.48491" lon="2.93367">
        <ele>1138</ele>
        <time>2019-12-19T02:32:05Z</time>
      </trkpt>
      <trkpt lat="45.48486" lon="2.93328">
        <ele>1135</ele>
        <time>2019-12-19T02:32:10Z</time>
      </trkpt>
      <trkpt lat="45.48464" lon="2.93255">
        <ele>1130</ele>
        <time>2019-12-19T02:32:20Z</time>
      </trkpt>
      <trkpt lat="45.48366" lon="2.92991">
        <ele>1129</ele>
        <time>2019-12-19T02:32:57Z</time>
      </trkpt>
      <trkpt lat="45.48336" lon="2.92869">
        <ele>1117</ele>
        <time>2019-12-19T02:33:13Z</time>
      </trkpt>
      <trkpt lat="45.48314" lon="2.92809">
        <ele>1113</ele>
        <time>2019-12-19T02:33:22Z</time>
      </trkpt>
      <trkpt lat="45.48282" lon="2.92767">
        <ele>1116</ele>
        <time>2019-12-19T02:33:29Z</time>
      </trkpt>
      <trkpt lat="45.48244" lon="2.92732">
        <ele>1121</ele>
        <time>2019-12-19T02:33:37Z</time>
      </trkpt>
      <trkpt lat="45.48231" lon="2.92708">
        <ele>1117</ele>
        <time>2019-12-19T02:33:41Z</time>
      </trkpt>
      <trkpt lat="45.48245" lon="2.92688">
        <ele>1109</ele>
        <time>2019-12-19T02:33:45Z</time>
      </trkpt>
      <trkpt lat="45.48258" lon="2.92707">
        <ele>1110</ele>
        <time>2019-12-19T02:33:48Z</time>
      </trkpt>
      <trkpt lat="45.48249" lon="2.92649">
        <ele>1099</ele>
        <time>2019-12-19T02:33:55Z</time>
      </trkpt>
      <trkpt lat="45.48225" lon="2.92587">
        <ele>1093</ele>
        <time>2019-12-19T02:34:04Z</time>
      </trkpt>
      <trkpt lat="45.48195" lon="2.92521">
        <ele>1087</ele>
        <time>2019-12-19T02:34:14Z</time>
      </trkpt>
      <trkpt lat="45.48062" lon="2.92183">
        <ele>1068</ele>
        <time>2019-12-19T02:35:02Z</time>
      </trkpt>
      <trkpt lat="45.48001" lon="2.92037">
        <ele>1068</ele>
        <time>2019-12-19T02:35:24Z</time>
      </trkpt>
      <trkpt lat="45.47979" lon="2.91971">
        <ele>1069</ele>
        <time>2019-12-19T02:35:33Z</time>
      </trkpt>
      <trkpt lat="45.47958" lon="2.91816">
        <ele>1077</ele>
        <time>2019-12-19T02:35:52Z</time>
      </trkpt>
      <trkpt lat="45.47958" lon="2.91779">
        <ele>1080</ele>
        <time>2019-12-19T02:35:57Z</time>
      </trkpt>
      <trkpt lat="45.47969" lon="2.91749">
        <ele>1081</ele>
        <time>2019-12-19T02:36:01Z</time>
      </trkpt>
      <trkpt lat="45.4803" lon="2.91637">
        <ele>1081</ele>
        <time>2019-12-19T02:36:19Z</time>
      </trkpt>
      <trkpt lat="45.48035" lon="2.91632">
        <ele>1082</ele>
        <time>2019-12-19T02:36:20Z</time>
      </trkpt>
      <trkpt lat="45.48045" lon="2.91625">
        <ele>1083</ele>
        <time>2019-12-19T02:36:22Z</time>
      </trkpt>
      <trkpt lat="45.48097" lon="2.91628">
        <ele>1083</ele>
        <time>2019-12-19T02:36:31Z</time>
      </trkpt>
      <trkpt lat="45.48108" lon="2.91627">
        <ele>1083</ele>
        <time>2019-12-19T02:36:33Z</time>
      </trkpt>
      <trkpt lat="45.48115" lon="2.91623">
        <ele>1084</ele>
        <time>2019-12-19T02:36:35Z</time>
      </trkpt>
      <trkpt lat="45.48146" lon="2.91596">
        <ele>1088</ele>
        <time>2019-12-19T02:36:41Z</time>
      </trkpt>
      <trkpt lat="45.48175" lon="2.91568">
        <ele>1093</ele>
        <time>2019-12-19T02:36:47Z</time>
      </trkpt>
      <trkpt lat="45.48187" lon="2.9154">
        <ele>1099</ele>
        <time>2019-12-19T02:36:51Z</time>
      </trkpt>
      <trkpt lat="45.48203" lon="2.91485">
        <ele>1107</ele>
        <time>2019-12-19T02:36:59Z</time>
      </trkpt>
      <trkpt lat="45.48213" lon="2.91454">
        <ele>1109</ele>
        <time>2019-12-19T02:37:03Z</time>
      </trkpt>
      <trkpt lat="45.48225" lon="2.91431">
        <ele>1109</ele>
        <time>2019-12-19T02:37:07Z</time>
      </trkpt>
      <trkpt lat="45.48232" lon="2.91424">
        <ele>1109</ele>
        <time>2019-12-19T02:37:08Z</time>
      </trkpt>
      <trkpt lat="45.48242" lon="2.91421">
        <ele>1108</ele>
        <time>2019-12-19T02:37:10Z</time>
      </trkpt>
      <trkpt lat="45.48343" lon="2.91434">
        <ele>1114</ele>
        <time>2019-12-19T02:37:28Z</time>
      </trkpt>
      <trkpt lat="45.48355" lon="2.9146">
        <ele>1113</ele>
        <time>2019-12-19T02:37:32Z</time>
      </trkpt>
      <trkpt lat="45.48361" lon="2.91481">
        <ele>1112</ele>
        <time>2019-12-19T02:37:35Z</time>
      </trkpt>
      <trkpt lat="45.48372" lon="2.91503">
        <ele>1112</ele>
        <time>2019-12-19T02:37:38Z</time>
      </trkpt>
      <trkpt lat="45.48453" lon="2.91606">
        <ele>1125</ele>
        <time>2019-12-19T02:37:57Z</time>
      </trkpt>
      <trkpt lat="45.48473" lon="2.91634">
        <ele>1131</ele>
        <time>2019-12-19T02:38:02Z</time>
      </trkpt>
      <trkpt lat="45.48497" lon="2.91716">
        <ele>1137</ele>
        <time>2019-12-19T02:38:13Z</time>
      </trkpt>
      <trkpt lat="45.48542" lon="2.91845">
        <ele>1145</ele>
        <time>2019-12-19T02:38:31Z</time>
      </trkpt>
      <trkpt lat="45.48555" lon="2.91868">
        <ele>1147</ele>
        <time>2019-12-19T02:38:35Z</time>
      </trkpt>
      <trkpt lat="45.48567" lon="2.91885">
        <ele>1150</ele>
        <time>2019-12-19T02:38:38Z</time>
      </trkpt>
      <trkpt lat="45.48593" lon="2.91911">
        <ele>1154</ele>
        <time>2019-12-19T02:38:44Z</time>
      </trkpt>
      <trkpt lat="45.48609" lon="2.91921">
        <ele>1155</ele>
        <time>2019-12-19T02:38:47Z</time>
      </trkpt>
      <trkpt lat="45.48614" lon="2.91897">
        <ele>1157</ele>
        <time>2019-12-19T02:38:50Z</time>
      </trkpt>
      <trkpt lat="45.48615" lon="2.91847">
        <ele>1159</ele>
        <time>2019-12-19T02:38:56Z</time>
      </trkpt>
      <trkpt lat="45.48632" lon="2.91776">
        <ele>1166</ele>
        <time>2019-12-19T02:39:06Z</time>
      </trkpt>
      <trkpt lat="45.48643" lon="2.9175">
        <ele>1170</ele>
        <time>2019-12-19T02:39:09Z</time>
      </trkpt>
      <trkpt lat="45.48665" lon="2.91741">
        <ele>1175</ele>
        <time>2019-12-19T02:39:13Z</time>
      </trkpt>
      <trkpt lat="45.48695" lon="2.91751">
        <ele>1178</ele>
        <time>2019-12-19T02:39:19Z</time>
      </trkpt>
      <trkpt lat="45.48717" lon="2.9175">
        <ele>1181</ele>
        <time>2019-12-19T02:39:23Z</time>
      </trkpt>
      <trkpt lat="45.48737" lon="2.91737">
        <ele>1184</ele>
        <time>2019-12-19T02:39:27Z</time>
      </trkpt>
      <trkpt lat="45.4876" lon="2.91697">
        <ele>1187</ele>
        <time>2019-12-19T02:39:33Z</time>
      </trkpt>
      <trkpt lat="45.48766" lon="2.91622">
        <ele>1191</ele>
        <time>2019-12-19T02:39:43Z</time>
      </trkpt>
      <trkpt lat="45.48772" lon="2.91486">
        <ele>1199</ele>
        <time>2019-12-19T02:40:00Z</time>
      </trkpt>
      <trkpt lat="45.48708" lon="2.91206">
        <ele>1212</ele>
        <time>2019-12-19T02:40:36Z</time>
      </trkpt>
      <trkpt lat="45.4867" lon="2.91049">
        <ele>1219</ele>
        <time>2019-12-19T02:40:57Z</time>
      </trkpt>
      <trkpt lat="45.486" lon="2.90875">
        <ele>1220</ele>
        <time>2019-12-19T02:41:22Z</time>
      </trkpt>
      <trkpt lat="45.48566" lon="2.90834">
        <ele>1221</ele>
        <time>2019-12-19T02:41:30Z</time>
      </trkpt>
      <trkpt lat="45.48491" lon="2.90764">
        <ele>1224</ele>
        <time>2019-12-19T02:41:46Z</time>
      </trkpt>
      <trkpt lat="45.48393" lon="2.90703">
        <ele>1222</ele>
        <time>2019-12-19T02:42:05Z</time>
      </trkpt>
      <trkpt lat="45.48377" lon="2.90689">
        <ele>1222</ele>
        <time>2019-12-19T02:42:08Z</time>
      </trkpt>
      <trkpt lat="45.48365" lon="2.9067">
        <ele>1222</ele>
        <time>2019-12-19T02:42:12Z</time>
      </trkpt>
      <trkpt lat="45.4836" lon="2.90652">
        <ele>1223</ele>
        <time>2019-12-19T02:42:14Z</time>
      </trkpt>
      <trkpt lat="45.48357" lon="2.90626">
        <ele>1223</ele>
        <time>2019-12-19T02:42:17Z</time>
      </trkpt>
      <trkpt lat="45.48361" lon="2.90588">
        <ele>1224</ele>
        <time>2019-12-19T02:42:22Z</time>
      </trkpt>
      <trkpt lat="45.48605" lon="2.90345">
        <ele>1234</ele>
        <time>2019-12-19T02:43:15Z</time>
      </trkpt>
      <trkpt lat="45.48632" lon="2.90289">
        <ele>1234</ele>
        <time>2019-12-19T02:43:23Z</time>
      </trkpt>
      <trkpt lat="45.48669" lon="2.90068">
        <ele>1237</ele>
        <time>2019-12-19T02:43:52Z</time>
      </trkpt>
      <trkpt lat="45.48681" lon="2.90037">
        <ele>1238</ele>
        <time>2019-12-19T02:43:56Z</time>
      </trkpt>
      <trkpt lat="45.48952" lon="2.89513">
        <ele>1259</ele>
        <time>2019-12-19T02:45:17Z</time>
      </trkpt>
      <trkpt lat="45.49065" lon="2.89312">
        <ele>1268</ele>
        <time>2019-12-19T02:45:50Z</time>
      </trkpt>
      <trkpt lat="45.49223" lon="2.89276">
        <ele>1274</ele>
        <time>2019-12-19T02:46:18Z</time>
      </trkpt>
      <trkpt lat="45.49263" lon="2.89284">
        <ele>1271</ele>
        <time>2019-12-19T02:46:25Z</time>
      </trkpt>
      <trkpt lat="45.49362" lon="2.89359">
        <ele>1266</ele>
        <time>2019-12-19T02:46:45Z</time>
      </trkpt>
      <trkpt lat="45.49443" lon="2.89414">
        <ele>1266</ele>
        <time>2019-12-19T02:47:01Z</time>
      </trkpt>
      <trkpt lat="45.49485" lon="2.89433">
        <ele>1261</ele>
        <time>2019-12-19T02:47:09Z</time>
      </trkpt>
      <trkpt lat="45.49546" lon="2.8944">
        <ele>1256</ele>
        <time>2019-12-19T02:47:20Z</time>
      </trkpt>
      <trkpt lat="45.49564" lon="2.89434">
        <ele>1254</ele>
        <time>2019-12-19T02:47:23Z</time>
      </trkpt>
      <trkpt lat="45.49669" lon="2.89356">
        <ele>1235</ele>
        <time>2019-12-19T02:47:44Z</time>
      </trkpt>
      <trkpt lat="45.49667" lon="2.89352">
        <ele>1234</ele>
        <time>2019-12-18T23:38:48Z</time>
      </trkpt>
      <trkpt lat="45.49669" lon="2.89356">
        <ele>1235</ele>
        <time>2019-12-18T23:38:49Z</time>
      </trkpt>
      <trkpt lat="45.49564" lon="2.89434">
        <ele>1254</ele>
        <time>2019-12-18T23:39:10Z</time>
      </trkpt>
      <trkpt lat="45.49546" lon="2.8944">
        <ele>1256</ele>
        <time>2019-12-18T23:39:13Z</time>
      </trkpt>
      <trkpt lat="45.49485" lon="2.89433">
        <ele>1261</ele>
        <time>2019-12-18T23:39:24Z</time>
      </trkpt>
      <trkpt lat="45.49443" lon="2.89414">
        <ele>1266</ele>
        <time>2019-12-18T23:39:32Z</time>
      </trkpt>
      <trkpt lat="45.49362" lon="2.89359">
        <ele>1266</ele>
        <time>2019-12-18T23:39:48Z</time>
      </trkpt>
      <trkpt lat="45.49263" lon="2.89284">
        <ele>1271</ele>
        <time>2019-12-18T23:40:08Z</time>
      </trkpt>
      <trkpt lat="45.49223" lon="2.89276">
        <ele>1274</ele>
        <time>2019-12-18T23:40:15Z</time>
      </trkpt>
      <trkpt lat="45.48884" lon="2.89352">
        <ele>1263</ele>
        <time>2019-12-18T23:41:16Z</time>
      </trkpt>
      <trkpt lat="45.48852" lon="2.89353">
        <ele>1262</ele>
        <time>2019-12-18T23:41:22Z</time>
      </trkpt>
      <trkpt lat="45.48788" lon="2.89383">
        <ele>1263</ele>
        <time>2019-12-18T23:41:34Z</time>
      </trkpt>
      <trkpt lat="45.48696" lon="2.89393">
        <ele>1270</ele>
        <time>2019-12-18T23:41:50Z</time>
      </trkpt>
      <trkpt lat="45.4852" lon="2.89437">
        <ele>1268</ele>
        <time>2019-12-18T23:42:22Z</time>
      </trkpt>
      <trkpt lat="45.48488" lon="2.89358">
        <ele>1267</ele>
        <time>2019-12-18T23:42:33Z</time>
      </trkpt>
      <trkpt lat="45.48444" lon="2.89317">
        <ele>1265</ele>
        <time>2019-12-18T23:42:42Z</time>
      </trkpt>
      <trkpt lat="45.484" lon="2.89282">
        <ele>1266</ele>
        <time>2019-12-18T23:42:51Z</time>
      </trkpt>
      <trkpt lat="45.48382" lon="2.89342">
        <ele>1264</ele>
        <time>2019-12-18T23:43:00Z</time>
      </trkpt>
      <trkpt lat="45.48361" lon="2.89373">
        <ele>1263</ele>
        <time>2019-12-18T23:43:05Z</time>
      </trkpt>
      <trkpt lat="45.48318" lon="2.89478">
        <ele>1260</ele>
        <time>2019-12-18T23:43:20Z</time>
      </trkpt>
      <trkpt lat="45.48265" lon="2.89488">
        <ele>1261</ele>
        <time>2019-12-18T23:43:30Z</time>
      </trkpt>
      <trkpt lat="45.48216" lon="2.89589">
        <ele>1257</ele>
        <time>2019-12-18T23:43:45Z</time>
      </trkpt>
      <trkpt lat="45.48182" lon="2.8961">
        <ele>1255</ele>
        <time>2019-12-18T23:43:52Z</time>
      </trkpt>
      <trkpt lat="45.48149" lon="2.89667">
        <ele>1252</ele>
        <time>2019-12-18T23:44:01Z</time>
      </trkpt>
      <trkpt lat="45.48107" lon="2.89726">
        <ele>1253</ele>
        <time>2019-12-18T23:44:11Z</time>
      </trkpt>
      <trkpt lat="45.48093" lon="2.89783">
        <ele>1252</ele>
        <time>2019-12-18T23:44:19Z</time>
      </trkpt>
      <trkpt lat="45.48097" lon="2.89792">
        <ele>1252</ele>
        <time>2019-12-18T23:44:20Z</time>
      </trkpt>
      <trkpt lat="45.48093" lon="2.89783">
        <ele>1252</ele>
        <time>2019-12-18T23:44:21Z</time>
      </trkpt>
      <trkpt lat="45.4808" lon="2.89817">
        <ele>1252</ele>
        <time>2019-12-18T23:44:26Z</time>
      </trkpt>
      <trkpt lat="45.48083" lon="2.89845">
        <ele>1251</ele>
        <time>2019-12-18T23:44:30Z</time>
      </trkpt>
      <trkpt lat="45.4808" lon="2.89859">
        <ele>1251</ele>
        <time>2019-12-18T23:44:32Z</time>
      </trkpt>
      <trkpt lat="45.48073" lon="2.8988">
        <ele>1250</ele>
        <time>2019-12-18T23:44:35Z</time>
      </trkpt>
      <trkpt lat="45.48056" lon="2.89913">
        <ele>1249</ele>
        <time>2019-12-18T23:44:40Z</time>
      </trkpt>
      <trkpt lat="45.48003" lon="2.89948">
        <ele>1248</ele>
        <time>2019-12-18T23:44:50Z</time>
      </trkpt>
      <trkpt lat="45.47982" lon="2.89946">
        <ele>1248</ele>
        <time>2019-12-18T23:44:54Z</time>
      </trkpt>
      <trkpt lat="45.47952" lon="2.89949">
        <ele>1248</ele>
        <time>2019-12-18T23:44:59Z</time>
      </trkpt>
      <trkpt lat="45.47922" lon="2.89944">
        <ele>1249</ele>
        <time>2019-12-18T23:45:05Z</time>
      </trkpt>
      <trkpt lat="45.47865" lon="2.89913">
        <ele>1246</ele>
        <time>2019-12-18T23:45:15Z</time>
      </trkpt>
      <trkpt lat="45.47825" lon="2.8987">
        <ele>1245</ele>
        <time>2019-12-18T23:45:24Z</time>
      </trkpt>
      <trkpt lat="45.47809" lon="2.89842">
        <ele>1246</ele>
        <time>2019-12-18T23:45:29Z</time>
      </trkpt>
      <trkpt lat="45.47797" lon="2.89832">
        <ele>1245</ele>
        <time>2019-12-18T23:45:31Z</time>
      </trkpt>
      <trkpt lat="45.4777" lon="2.89825">
        <ele>1243</ele>
        <time>2019-12-18T23:45:36Z</time>
      </trkpt>
      <trkpt lat="45.47724" lon="2.89799">
        <ele>1240</ele>
        <time>2019-12-18T23:45:45Z</time>
      </trkpt>
      <trkpt lat="45.47675" lon="2.89757">
        <ele>1239</ele>
        <time>2019-12-18T23:45:55Z</time>
      </trkpt>
      <trkpt lat="45.47656" lon="2.89743">
        <ele>1238</ele>
        <time>2019-12-18T23:45:59Z</time>
      </trkpt>
      <trkpt lat="45.47639" lon="2.89738">
        <ele>1236</ele>
        <time>2019-12-18T23:46:02Z</time>
      </trkpt>
      <trkpt lat="45.47566" lon="2.89634">
        <ele>1235</ele>
        <time>2019-12-18T23:46:20Z</time>
      </trkpt>
      <trkpt lat="45.47554" lon="2.89624">
        <ele>1234</ele>
        <time>2019-12-18T23:46:23Z</time>
      </trkpt>
      <trkpt lat="45.47532" lon="2.89615">
        <ele>1233</ele>
        <time>2019-12-18T23:46:27Z</time>
      </trkpt>
      <trkpt lat="45.47484" lon="2.89579">
        <ele>1231</ele>
        <time>2019-12-18T23:46:37Z</time>
      </trkpt>
      <trkpt lat="45.47454" lon="2.8955">
        <ele>1231</ele>
        <time>2019-12-18T23:46:43Z</time>
      </trkpt>
      <trkpt lat="45.47412" lon="2.89454">
        <ele>1231</ele>
        <time>2019-12-18T23:46:57Z</time>
      </trkpt>
      <trkpt lat="45.47355" lon="2.89339">
        <ele>1232</ele>
        <time>2019-12-18T23:47:15Z</time>
      </trkpt>
      <trkpt lat="45.47336" lon="2.89297">
        <ele>1230</ele>
        <time>2019-12-18T23:47:21Z</time>
      </trkpt>
      <trkpt lat="45.47346" lon="2.89235">
        <ele>1232</ele>
        <time>2019-12-18T23:47:29Z</time>
      </trkpt>
      <trkpt lat="45.47342" lon="2.89182">
        <ele>1233</ele>
        <time>2019-12-18T23:47:36Z</time>
      </trkpt>
      <trkpt lat="45.47316" lon="2.89139">
        <ele>1236</ele>
        <time>2019-12-18T23:47:43Z</time>
      </trkpt>
      <trkpt lat="45.47151" lon="2.89054">
        <ele>1248</ele>
        <time>2019-12-18T23:48:14Z</time>
      </trkpt>
      <trkpt lat="45.47013" lon="2.88973">
        <ele>1238</ele>
        <time>2019-12-18T23:48:40Z</time>
      </trkpt>
      <trkpt lat="45.46952" lon="2.88914">
        <ele>1233</ele>
        <time>2019-12-18T23:48:53Z</time>
      </trkpt>
      <trkpt lat="45.46947" lon="2.88865">
        <ele>1236</ele>
        <time>2019-12-18T23:49:00Z</time>
      </trkpt>
      <trkpt lat="45.46929" lon="2.88832">
        <ele>1237</ele>
        <time>2019-12-18T23:49:05Z</time>
      </trkpt>
      <trkpt lat="45.46892" lon="2.88809">
        <ele>1240</ele>
        <time>2019-12-18T23:49:12Z</time>
      </trkpt>
      <trkpt lat="45.46806" lon="2.88726">
        <ele>1254</ele>
        <time>2019-12-18T23:49:31Z</time>
      </trkpt>
      <trkpt lat="45.46786" lon="2.88696">
        <ele>1259</ele>
        <time>2019-12-18T23:49:36Z</time>
      </trkpt>
      <trkpt lat="45.46742" lon="2.88669">
        <ele>1260</ele>
        <time>2019-12-18T23:49:44Z</time>
      </trkpt>
      <trkpt lat="45.46619" lon="2.88628">
        <ele>1252</ele>
        <time>2019-12-18T23:50:07Z</time>
      </trkpt>
      <trkpt lat="45.46587" lon="2.88603">
        <ele>1253</ele>
        <time>2019-12-18T23:50:13Z</time>
      </trkpt>
      <trkpt lat="45.46515" lon="2.88575">
        <ele>1250</ele>
        <time>2019-12-18T23:50:26Z</time>
      </trkpt>
      <trkpt lat="45.46481" lon="2.88581">
        <ele>1246</ele>
        <time>2019-12-18T23:50:33Z</time>
      </trkpt>
      <trkpt lat="45.46448" lon="2.88571">
        <ele>1247</ele>
        <time>2019-12-18T23:50:39Z</time>
      </trkpt>
      <trkpt lat="45.46431" lon="2.88633">
        <ele>1239</ele>
        <time>2019-12-18T23:50:47Z</time>
      </trkpt>
      <trkpt lat="45.46424" lon="2.8869">
        <ele>1233</ele>
        <time>2019-12-18T23:50:54Z</time>
      </trkpt>
      <trkpt lat="45.46443" lon="2.88744">
        <ele>1226</ele>
        <time>2019-12-18T23:51:02Z</time>
      </trkpt>
      <trkpt lat="45.4644" lon="2.88878">
        <ele>1220</ele>
        <time>2019-12-18T23:51:18Z</time>
      </trkpt>
      <trkpt lat="45.46438" lon="2.8892">
        <ele>1219</ele>
        <time>2019-12-18T23:51:24Z</time>
      </trkpt>
      <trkpt lat="45.46443" lon="2.89">
        <ele>1217</ele>
        <time>2019-12-18T23:51:34Z</time>
      </trkpt>
      <trkpt lat="45.4643" lon="2.89066">
        <ele>1214</ele>
        <time>2019-12-18T23:51:42Z</time>
      </trkpt>
      <trkpt lat="45.46407" lon="2.89162">
        <ele>1212</ele>
        <time>2019-12-18T23:51:55Z</time>
      </trkpt>
      <trkpt lat="45.464" lon="2.89222">
        <ele>1211</ele>
        <time>2019-12-18T23:52:02Z</time>
      </trkpt>
      <trkpt lat="45.46401" lon="2.89239">
        <ele>1212</ele>
        <time>2019-12-18T23:52:05Z</time>
      </trkpt>
      <trkpt lat="45.46407" lon="2.89281">
        <ele>1212</ele>
        <time>2019-12-18T23:52:10Z</time>
      </trkpt>
      <trkpt lat="45.46401" lon="2.89315">
        <ele>1211</ele>
        <time>2019-12-18T23:52:14Z</time>
      </trkpt>
      <trkpt lat="45.46381" lon="2.89375">
        <ele>1210</ele>
        <time>2019-12-18T23:52:23Z</time>
      </trkpt>
      <trkpt lat="45.46377" lon="2.894">
        <ele>1210</ele>
        <time>2019-12-18T23:52:26Z</time>
      </trkpt>
      <trkpt lat="45.46377" lon="2.89429">
        <ele>1209</ele>
        <time>2019-12-18T23:52:29Z</time>
      </trkpt>
      <trkpt lat="45.4639" lon="2.89474">
        <ele>1209</ele>
        <time>2019-12-18T23:52:35Z</time>
      </trkpt>
      <trkpt lat="45.46447" lon="2.89597">
        <ele>1207</ele>
        <time>2019-12-18T23:52:54Z</time>
      </trkpt>
      <trkpt lat="45.46457" lon="2.89634">
        <ele>1206</ele>
        <time>2019-12-18T23:52:59Z</time>
      </trkpt>
      <trkpt lat="45.46462" lon="2.89693">
        <ele>1204</ele>
        <time>2019-12-18T23:53:06Z</time>
      </trkpt>
      <trkpt lat="45.46438" lon="2.89774">
        <ele>1202</ele>
        <time>2019-12-18T23:53:17Z</time>
      </trkpt>
      <trkpt lat="45.4642" lon="2.89888">
        <ele>1196</ele>
        <time>2019-12-18T23:53:32Z</time>
      </trkpt>
      <trkpt lat="45.46387" lon="2.90002">
        <ele>1189</ele>
        <time>2019-12-18T23:53:47Z</time>
      </trkpt>
      <trkpt lat="45.46352" lon="2.90074">
        <ele>1190</ele>
        <time>2019-12-18T23:53:58Z</time>
      </trkpt>
      <trkpt lat="45.46312" lon="2.90206">
        <ele>1189</ele>
        <time>2019-12-18T23:54:16Z</time>
      </trkpt>
      <trkpt lat="45.46301" lon="2.90233">
        <ele>1187</ele>
        <time>2019-12-18T23:54:20Z</time>
      </trkpt>
      <trkpt lat="45.46287" lon="2.90258">
        <ele>1186</ele>
        <time>2019-12-18T23:54:24Z</time>
      </trkpt>
      <trkpt lat="45.46261" lon="2.90296">
        <ele>1185</ele>
        <time>2019-12-18T23:54:31Z</time>
      </trkpt>
      <trkpt lat="45.46254" lon="2.903">
        <ele>1185</ele>
        <time>2019-12-18T23:54:32Z</time>
      </trkpt>
      <trkpt lat="45.46222" lon="2.90309">
        <ele>1186</ele>
        <time>2019-12-18T23:54:38Z</time>
      </trkpt>
      <trkpt lat="45.46205" lon="2.90312">
        <ele>1186</ele>
        <time>2019-12-18T23:54:41Z</time>
      </trkpt>
      <trkpt lat="45.46192" lon="2.90309">
        <ele>1187</ele>
        <time>2019-12-18T23:54:43Z</time>
      </trkpt>
      <trkpt lat="45.46177" lon="2.90301">
        <ele>1186</ele>
        <time>2019-12-18T23:54:46Z</time>
      </trkpt>
      <trkpt lat="45.46154" lon="2.90286">
        <ele>1189</ele>
        <time>2019-12-18T23:54:50Z</time>
      </trkpt>
      <trkpt lat="45.46147" lon="2.90285">
        <ele>1191</ele>
        <time>2019-12-18T23:54:52Z</time>
      </trkpt>
      <trkpt lat="45.46136" lon="2.90266">
        <ele>1192</ele>
        <time>2019-12-18T23:54:55Z</time>
      </trkpt>
      <trkpt lat="45.46118" lon="2.90259">
        <ele>1195</ele>
        <time>2019-12-18T23:54:58Z</time>
      </trkpt>
      <trkpt lat="45.46107" lon="2.90242">
        <ele>1194</ele>
        <time>2019-12-18T23:55:01Z</time>
      </trkpt>
      <trkpt lat="45.4609" lon="2.90197">
        <ele>1192</ele>
        <time>2019-12-18T23:55:07Z</time>
      </trkpt>
      <trkpt lat="45.4608" lon="2.9016">
        <ele>1190</ele>
        <time>2019-12-18T23:55:12Z</time>
      </trkpt>
      <trkpt lat="45.46072" lon="2.90101">
        <ele>1191</ele>
        <time>2019-12-18T23:55:20Z</time>
      </trkpt>
      <trkpt lat="45.46066" lon="2.90068">
        <ele>1190</ele>
        <time>2019-12-18T23:55:24Z</time>
      </trkpt>
      <trkpt lat="45.46057" lon="2.90042">
        <ele>1191</ele>
        <time>2019-12-18T23:55:28Z</time>
      </trkpt>
      <trkpt lat="45.46036" lon="2.90006">
        <ele>1191</ele>
        <time>2019-12-18T23:55:34Z</time>
      </trkpt>
      <trkpt lat="45.46021" lon="2.89957">
        <ele>1188</ele>
        <time>2019-12-18T23:55:40Z</time>
      </trkpt>
      <trkpt lat="45.4601" lon="2.89938">
        <ele>1188</ele>
        <time>2019-12-18T23:55:43Z</time>
      </trkpt>
      <trkpt lat="45.45998" lon="2.89926">
        <ele>1187</ele>
        <time>2019-12-18T23:55:46Z</time>
      </trkpt>
      <trkpt lat="45.45983" lon="2.89926">
        <ele>1189</ele>
        <time>2019-12-18T23:55:49Z</time>
      </trkpt>
      <trkpt lat="45.45956" lon="2.89934">
        <ele>1193</ele>
        <time>2019-12-18T23:55:53Z</time>
      </trkpt>
      <trkpt lat="45.45933" lon="2.89927">
        <ele>1194</ele>
        <time>2019-12-18T23:55:58Z</time>
      </trkpt>
      <trkpt lat="45.45908" lon="2.89923">
        <ele>1196</ele>
        <time>2019-12-18T23:56:02Z</time>
      </trkpt>
      <trkpt lat="45.45878" lon="2.89925">
        <ele>1200</ele>
        <time>2019-12-18T23:56:07Z</time>
      </trkpt>
      <trkpt lat="45.45829" lon="2.8992">
        <ele>1204</ele>
        <time>2019-12-18T23:56:16Z</time>
      </trkpt>
      <trkpt lat="45.45819" lon="2.89912">
        <ele>1202</ele>
        <time>2019-12-18T23:56:18Z</time>
      </trkpt>
      <trkpt lat="45.45731" lon="2.89914">
        <ele>1204</ele>
        <time>2019-12-18T23:56:34Z</time>
      </trkpt>
      <trkpt lat="45.45659" lon="2.89937">
        <ele>1201</ele>
        <time>2019-12-18T23:56:47Z</time>
      </trkpt>
      <trkpt lat="45.45585" lon="2.89966">
        <ele>1199</ele>
        <time>2019-12-18T23:57:01Z</time>
      </trkpt>
      <trkpt lat="45.45571" lon="2.89969">
        <ele>1199</ele>
        <time>2019-12-18T23:57:03Z</time>
      </trkpt>
      <trkpt lat="45.45473" lon="2.89969">
        <ele>1195</ele>
        <time>2019-12-18T23:57:21Z</time>
      </trkpt>
      <trkpt lat="45.45404" lon="2.90019">
        <ele>1199</ele>
        <time>2019-12-18T23:57:34Z</time>
      </trkpt>
      <trkpt lat="45.45322" lon="2.90061">
        <ele>1198</ele>
        <time>2019-12-18T23:57:50Z</time>
      </trkpt>
      <trkpt lat="45.45322" lon="2.90055">
        <ele>1199</ele>
        <time>2019-12-18T23:57:51Z</time>
      </trkpt>
      <trkpt lat="45.45322" lon="2.90061">
        <ele>1198</ele>
        <time>2019-12-18T23:57:51Z</time>
      </trkpt>
      <trkpt lat="45.45336" lon="2.90085">
        <ele>1198</ele>
        <time>2019-12-18T23:57:55Z</time>
      </trkpt>
      <trkpt lat="45.45348" lon="2.90097">
        <ele>1200</ele>
        <time>2019-12-18T23:57:58Z</time>
      </trkpt>
      <trkpt lat="45.45372" lon="2.90099">
        <ele>1201</ele>
        <time>2019-12-18T23:58:02Z</time>
      </trkpt>
      <trkpt lat="45.45388" lon="2.90131">
        <ele>1206</ele>
        <time>2019-12-18T23:58:07Z</time>
      </trkpt>
      <trkpt lat="45.45389" lon="2.90189">
        <ele>1211</ele>
        <time>2019-12-18T23:58:14Z</time>
      </trkpt>
      <trkpt lat="45.45368" lon="2.90268">
        <ele>1210</ele>
        <time>2019-12-18T23:58:25Z</time>
      </trkpt>
      <trkpt lat="45.45366" lon="2.90299">
        <ele>1210</ele>
        <time>2019-12-18T23:58:29Z</time>
      </trkpt>
      <trkpt lat="45.45401" lon="2.90402">
        <ele>1211</ele>
        <time>2019-12-18T23:58:43Z</time>
      </trkpt>
      <trkpt lat="45.45426" lon="2.90431">
        <ele>1213</ele>
        <time>2019-12-18T23:58:49Z</time>
      </trkpt>
      <trkpt lat="45.45446" lon="2.90512">
        <ele>1213</ele>
        <time>2019-12-18T23:59:00Z</time>
      </trkpt>
      <trkpt lat="45.45452" lon="2.90565">
        <ele>1212</ele>
        <time>2019-12-18T23:59:06Z</time>
      </trkpt>
      <trkpt lat="45.45475" lon="2.90612">
        <ele>1211</ele>
        <time>2019-12-18T23:59:13Z</time>
      </trkpt>
      <trkpt lat="45.45515" lon="2.90637">
        <ele>1211</ele>
        <time>2019-12-18T23:59:21Z</time>
      </trkpt>
      <trkpt lat="45.45548" lon="2.90639">
        <ele>1211</ele>
        <time>2019-12-18T23:59:27Z</time>
      </trkpt>
      <trkpt lat="45.45576" lon="2.90646">
        <ele>1212</ele>
        <time>2019-12-18T23:59:32Z</time>
      </trkpt>
      <trkpt lat="45.45589" lon="2.90666">
        <ele>1216</ele>
        <time>2019-12-18T23:59:36Z</time>
      </trkpt>
      <trkpt lat="45.45595" lon="2.90693">
        <ele>1219</ele>
        <time>2019-12-18T23:59:39Z</time>
      </trkpt>
      <trkpt lat="45.45598" lon="2.90842">
        <ele>1219</ele>
        <time>2019-12-18T23:59:58Z</time>
      </trkpt>
      <trkpt lat="45.45609" lon="2.90905">
        <ele>1216</ele>
        <time>2019-12-19T00:00:06Z</time>
      </trkpt>
      <trkpt lat="45.45641" lon="2.90995">
        <ele>1203</ele>
        <time>2019-12-19T00:00:18Z</time>
      </trkpt>
      <trkpt lat="45.45654" lon="2.91011">
        <ele>1200</ele>
        <time>2019-12-19T00:00:21Z</time>
      </trkpt>
      <trkpt lat="45.45665" lon="2.9101">
        <ele>1200</ele>
        <time>2019-12-19T00:00:23Z</time>
      </trkpt>
      <trkpt lat="45.45689" lon="2.90996">
        <ele>1205</ele>
        <time>2019-12-19T00:00:28Z</time>
      </trkpt>
      <trkpt lat="45.4572" lon="2.90999">
        <ele>1206</ele>
        <time>2019-12-19T00:00:34Z</time>
      </trkpt>
      <trkpt lat="45.45795" lon="2.91027">
        <ele>1202</ele>
        <time>2019-12-19T00:00:47Z</time>
      </trkpt>
      <trkpt lat="45.45808" lon="2.91026">
        <ele>1203</ele>
        <time>2019-12-19T00:00:50Z</time>
      </trkpt>
      <trkpt lat="45.45857" lon="2.9101">
        <ele>1205</ele>
        <time>2019-12-19T00:00:59Z</time>
      </trkpt>
      <trkpt lat="45.4583" lon="2.91045">
        <ele>1199</ele>
        <time>2019-12-19T00:01:05Z</time>
      </trkpt>
      <trkpt lat="45.45799" lon="2.91055">
        <ele>1195</ele>
        <time>2019-12-19T00:01:11Z</time>
      </trkpt>
      <trkpt lat="45.45773" lon="2.91053">
        <ele>1194</ele>
        <time>2019-12-19T00:01:15Z</time>
      </trkpt>
      <trkpt lat="45.45756" lon="2.91063">
        <ele>1191</ele>
        <time>2019-12-19T00:01:19Z</time>
      </trkpt>
      <trkpt lat="45.45721" lon="2.91102">
        <ele>1183</ele>
        <time>2019-12-19T00:01:27Z</time>
      </trkpt>
      <trkpt lat="45.45701" lon="2.91134">
        <ele>1179</ele>
        <time>2019-12-19T00:01:32Z</time>
      </trkpt>
      <trkpt lat="45.45655" lon="2.91218">
        <ele>1178</ele>
        <time>2019-12-19T00:01:45Z</time>
      </trkpt>
      <trkpt lat="45.45646" lon="2.91245">
        <ele>1179</ele>
        <time>2019-12-19T00:01:49Z</time>
      </trkpt>
      <trkpt lat="45.45617" lon="2.91285">
        <ele>1178</ele>
        <time>2019-12-19T00:01:56Z</time>
      </trkpt>
      <trkpt lat="45.45571" lon="2.91391">
        <ele>1178</ele>
        <time>2019-12-19T00:02:12Z</time>
      </trkpt>
      <trkpt lat="45.45527" lon="2.91468">
        <ele>1178</ele>
        <time>2019-12-19T00:02:24Z</time>
      </trkpt>
      <trkpt lat="45.45508" lon="2.91477">
        <ele>1179</ele>
        <time>2019-12-19T00:02:28Z</time>
      </trkpt>
      <trkpt lat="45.45464" lon="2.91472">
        <ele>1181</ele>
        <time>2019-12-19T00:02:35Z</time>
      </trkpt>
      <trkpt lat="45.45452" lon="2.91488">
        <ele>1179</ele>
        <time>2019-12-19T00:02:38Z</time>
      </trkpt>
      <trkpt lat="45.45442" lon="2.91491">
        <ele>1179</ele>
        <time>2019-12-19T00:02:40Z</time>
      </trkpt>
      <trkpt lat="45.45434" lon="2.91484">
        <ele>1180</ele>
        <time>2019-12-19T00:02:42Z</time>
      </trkpt>
      <trkpt lat="45.45372" lon="2.91482">
        <ele>1178</ele>
        <time>2019-12-19T00:02:53Z</time>
      </trkpt>
      <trkpt lat="45.45362" lon="2.9148">
        <ele>1177</ele>
        <time>2019-12-19T00:02:55Z</time>
      </trkpt>
      <trkpt lat="45.45345" lon="2.91462">
        <ele>1178</ele>
        <time>2019-12-19T00:02:58Z</time>
      </trkpt>
      <trkpt lat="45.45332" lon="2.91443">
        <ele>1179</ele>
        <time>2019-12-19T00:03:02Z</time>
      </trkpt>
      <trkpt lat="45.4532" lon="2.91435">
        <ele>1179</ele>
        <time>2019-12-19T00:03:04Z</time>
      </trkpt>
      <trkpt lat="45.45292" lon="2.91434">
        <ele>1176</ele>
        <time>2019-12-19T00:03:09Z</time>
      </trkpt>
      <trkpt lat="45.4527" lon="2.9144">
        <ele>1174</ele>
        <time>2019-12-19T00:03:13Z</time>
      </trkpt>
      <trkpt lat="45.45254" lon="2.91438">
        <ele>1173</ele>
        <time>2019-12-19T00:03:16Z</time>
      </trkpt>
      <trkpt lat="45.45239" lon="2.91431">
        <ele>1173</ele>
        <time>2019-12-19T00:03:19Z</time>
      </trkpt>
      <trkpt lat="45.45213" lon="2.9141">
        <ele>1176</ele>
        <time>2019-12-19T00:03:24Z</time>
      </trkpt>
      <trkpt lat="45.45199" lon="2.91394">
        <ele>1177</ele>
        <time>2019-12-19T00:03:27Z</time>
      </trkpt>
      <trkpt lat="45.4519" lon="2.91376">
        <ele>1178</ele>
        <time>2019-12-19T00:03:30Z</time>
      </trkpt>
      <trkpt lat="45.4518" lon="2.91365">
        <ele>1179</ele>
        <time>2019-12-19T00:03:32Z</time>
      </trkpt>
      <trkpt lat="45.45165" lon="2.91358">
        <ele>1180</ele>
        <time>2019-12-19T00:03:35Z</time>
      </trkpt>
      <trkpt lat="45.45115" lon="2.91362">
        <ele>1181</ele>
        <time>2019-12-19T00:03:44Z</time>
      </trkpt>
      <trkpt lat="45.45088" lon="2.91383">
        <ele>1183</ele>
        <time>2019-12-19T00:03:49Z</time>
      </trkpt>
      <trkpt lat="45.4504" lon="2.9144">
        <ele>1179</ele>
        <time>2019-12-19T00:04:01Z</time>
      </trkpt>
      <trkpt lat="45.45009" lon="2.91462">
        <ele>1174</ele>
        <time>2019-12-19T00:04:07Z</time>
      </trkpt>
      <trkpt lat="45.44974" lon="2.91502">
        <ele>1166</ele>
        <time>2019-12-19T00:04:15Z</time>
      </trkpt>
      <trkpt lat="45.44944" lon="2.91517">
        <ele>1160</ele>
        <time>2019-12-19T00:04:20Z</time>
      </trkpt>
      <trkpt lat="45.44924" lon="2.91545">
        <ele>1157</ele>
        <time>2019-12-19T00:04:25Z</time>
      </trkpt>
      <trkpt lat="45.44903" lon="2.91561">
        <ele>1154</ele>
        <time>2019-12-19T00:04:30Z</time>
      </trkpt>
      <trkpt lat="45.44877" lon="2.91593">
        <ele>1149</ele>
        <time>2019-12-19T00:04:36Z</time>
      </trkpt>
      <trkpt lat="45.44859" lon="2.91622">
        <ele>1146</ele>
        <time>2019-12-19T00:04:41Z</time>
      </trkpt>
      <trkpt lat="45.44845" lon="2.9163">
        <ele>1143</ele>
        <time>2019-12-19T00:04:43Z</time>
      </trkpt>
      <trkpt lat="45.4483" lon="2.91626">
        <ele>1140</ele>
        <time>2019-12-19T00:04:46Z</time>
      </trkpt>
      <trkpt lat="45.44761" lon="2.91567">
        <ele>1133</ele>
        <time>2019-12-19T00:05:00Z</time>
      </trkpt>
      <trkpt lat="45.44718" lon="2.91556">
        <ele>1130</ele>
        <time>2019-12-19T00:05:08Z</time>
      </trkpt>
      <trkpt lat="45.44675" lon="2.91506">
        <ele>1130</ele>
        <time>2019-12-19T00:05:18Z</time>
      </trkpt>
      <trkpt lat="45.44625" lon="2.91439">
        <ele>1127</ele>
        <time>2019-12-19T00:05:30Z</time>
      </trkpt>
      <trkpt lat="45.44602" lon="2.91429">
        <ele>1125</ele>
        <time>2019-12-19T00:05:34Z</time>
      </trkpt>
      <trkpt lat="45.44577" lon="2.91441">
        <ele>1121</ele>
        <time>2019-12-19T00:05:39Z</time>
      </trkpt>
      <trkpt lat="45.44565" lon="2.91456">
        <ele>1117</ele>
        <time>2019-12-19T00:05:42Z</time>
      </trkpt>
      <trkpt lat="45.4456" lon="2.91468">
        <ele>1116</ele>
        <time>2019-12-19T00:05:44Z</time>
      </trkpt>
      <trkpt lat="45.44548" lon="2.91476">
        <ele>1113</ele>
        <time>2019-12-19T00:05:46Z</time>
      </trkpt>
      <trkpt lat="45.44525" lon="2.91463">
        <ele>1112</ele>
        <time>2019-12-19T00:05:50Z</time>
      </trkpt>
      <trkpt lat="45.44493" lon="2.91462">
        <ele>1109</ele>
        <time>2019-12-19T00:05:56Z</time>
      </trkpt>
      <trkpt lat="45.44441" lon="2.91473">
        <ele>1109</ele>
        <time>2019-12-19T00:06:05Z</time>
      </trkpt>
      <trkpt lat="45.44434" lon="2.9148">
        <ele>1109</ele>
        <time>2019-12-19T00:06:07Z</time>
      </trkpt>
      <trkpt lat="45.44429" lon="2.91532">
        <ele>1107</ele>
        <time>2019-12-19T00:06:14Z</time>
      </trkpt>
      <trkpt lat="45.44415" lon="2.91558">
        <ele>1106</ele>
        <time>2019-12-19T00:06:18Z</time>
      </trkpt>
      <trkpt lat="45.44391" lon="2.91589">
        <ele>1108</ele>
        <time>2019-12-19T00:06:23Z</time>
      </trkpt>
      <trkpt lat="45.44356" lon="2.91589">
        <ele>1112</ele>
        <time>2019-12-19T00:06:30Z</time>
      </trkpt>
      <trkpt lat="45.44343" lon="2.91611">
        <ele>1111</ele>
        <time>2019-12-19T00:06:33Z</time>
      </trkpt>
      <trkpt lat="45.44331" lon="2.91625">
        <ele>1110</ele>
        <time>2019-12-19T00:06:36Z</time>
      </trkpt>
      <trkpt lat="45.44317" lon="2.91637">
        <ele>1110</ele>
        <time>2019-12-19T00:06:39Z</time>
      </trkpt>
      <trkpt lat="45.44286" lon="2.91639">
        <ele>1113</ele>
        <time>2019-12-19T00:06:44Z</time>
      </trkpt>
      <trkpt lat="45.44262" lon="2.91646">
        <ele>1114</ele>
        <time>2019-12-19T00:06:49Z</time>
      </trkpt>
      <trkpt lat="45.44241" lon="2.91658">
        <ele>1114</ele>
        <time>2019-12-19T00:06:53Z</time>
      </trkpt>
      <trkpt lat="45.44227" lon="2.91675">
        <ele>1110</ele>
        <time>2019-12-19T00:06:56Z</time>
      </trkpt>
      <trkpt lat="45.44205" lon="2.91693">
        <ele>1105</ele>
        <time>2019-12-19T00:07:01Z</time>
      </trkpt>
      <trkpt lat="45.44192" lon="2.91691">
        <ele>1107</ele>
        <time>2019-12-19T00:07:03Z</time>
      </trkpt>
      <trkpt lat="45.4415" lon="2.917">
        <ele>1103</ele>
        <time>2019-12-19T00:07:10Z</time>
      </trkpt>
      <trkpt lat="45.44126" lon="2.91699">
        <ele>1100</ele>
        <time>2019-12-19T00:07:15Z</time>
      </trkpt>
      <trkpt lat="45.44086" lon="2.91688">
        <ele>1100</ele>
        <time>2019-12-19T00:07:22Z</time>
      </trkpt>
      <trkpt lat="45.44028" lon="2.9166">
        <ele>1093</ele>
        <time>2019-12-19T00:07:33Z</time>
      </trkpt>
      <trkpt lat="45.43831" lon="2.91541">
        <ele>1061</ele>
        <time>2019-12-19T00:08:11Z</time>
      </trkpt>
      <trkpt lat="45.43807" lon="2.91535">
        <ele>1060</ele>
        <time>2019-12-19T00:08:15Z</time>
      </trkpt>
      <trkpt lat="45.43798" lon="2.91544">
        <ele>1056</ele>
        <time>2019-12-19T00:08:17Z</time>
      </trkpt>
      <trkpt lat="45.43804" lon="2.91565">
        <ele>1052</ele>
        <time>2019-12-19T00:08:20Z</time>
      </trkpt>
      <trkpt lat="45.43826" lon="2.91575">
        <ele>1051</ele>
        <time>2019-12-19T00:08:24Z</time>
      </trkpt>
      <trkpt lat="45.4384" lon="2.91588">
        <ele>1051</ele>
        <time>2019-12-19T00:08:27Z</time>
      </trkpt>
      <trkpt lat="45.4384" lon="2.916">
        <ele>1048</ele>
        <time>2019-12-19T00:08:29Z</time>
      </trkpt>
      <trkpt lat="45.43818" lon="2.91589">
        <ele>1047</ele>
        <time>2019-12-19T00:08:33Z</time>
      </trkpt>
      <trkpt lat="45.438" lon="2.91591">
        <ele>1046</ele>
        <time>2019-12-19T00:08:36Z</time>
      </trkpt>
      <trkpt lat="45.43779" lon="2.91614">
        <ele>1042</ele>
        <time>2019-12-19T00:08:41Z</time>
      </trkpt>
      <trkpt lat="45.43754" lon="2.91625">
        <ele>1041</ele>
        <time>2019-12-19T00:08:45Z</time>
      </trkpt>
      <trkpt lat="45.43733" lon="2.9162">
        <ele>1040</ele>
        <time>2019-12-19T00:08:49Z</time>
      </trkpt>
      <trkpt lat="45.43713" lon="2.91608">
        <ele>1041</ele>
        <time>2019-12-19T00:08:53Z</time>
      </trkpt>
      <trkpt lat="45.4352" lon="2.91396">
        <ele>1061</ele>
        <time>2019-12-19T00:09:36Z</time>
      </trkpt>
      <trkpt lat="45.43498" lon="2.91387">
        <ele>1061</ele>
        <time>2019-12-19T00:09:40Z</time>
      </trkpt>
      <trkpt lat="45.43434" lon="2.91387">
        <ele>1062</ele>
        <time>2019-12-19T00:09:52Z</time>
      </trkpt>
      <trkpt lat="45.43374" lon="2.91384">
        <ele>1066</ele>
        <time>2019-12-19T00:10:03Z</time>
      </trkpt>
      <trkpt lat="45.43344" lon="2.91367">
        <ele>1069</ele>
        <time>2019-12-19T00:10:08Z</time>
      </trkpt>
      <trkpt lat="45.43261" lon="2.91291">
        <ele>1075</ele>
        <time>2019-12-19T00:10:26Z</time>
      </trkpt>
      <trkpt lat="45.43219" lon="2.91247">
        <ele>1077</ele>
        <time>2019-12-19T00:10:35Z</time>
      </trkpt>
      <trkpt lat="45.43162" lon="2.91203">
        <ele>1079</ele>
        <time>2019-12-19T00:10:47Z</time>
      </trkpt>
      <trkpt lat="45.43146" lon="2.91186">
        <ele>1080</ele>
        <time>2019-12-19T00:10:50Z</time>
      </trkpt>
      <trkpt lat="45.43128" lon="2.9116">
        <ele>1082</ele>
        <time>2019-12-19T00:10:55Z</time>
      </trkpt>
      <trkpt lat="45.43109" lon="2.91125">
        <ele>1085</ele>
        <time>2019-12-19T00:11:00Z</time>
      </trkpt>
      <trkpt lat="45.43078" lon="2.91061">
        <ele>1088</ele>
        <time>2019-12-19T00:11:10Z</time>
      </trkpt>
      <trkpt lat="45.43075" lon="2.91055">
        <ele>1089</ele>
        <time>2019-12-19T00:11:11Z</time>
      </trkpt>
      <trkpt lat="45.42983" lon="2.90858">
        <ele>1098</ele>
        <time>2019-12-19T00:11:40Z</time>
      </trkpt>
      <trkpt lat="45.42971" lon="2.90828">
        <ele>1100</ele>
        <time>2019-12-19T00:11:45Z</time>
      </trkpt>
      <trkpt lat="45.42962" lon="2.90799">
        <ele>1102</ele>
        <time>2019-12-19T00:11:49Z</time>
      </trkpt>
      <trkpt lat="45.42957" lon="2.90766">
        <ele>1102</ele>
        <time>2019-12-19T00:11:53Z</time>
      </trkpt>
      <trkpt lat="45.42955" lon="2.90726">
        <ele>1104</ele>
        <time>2019-12-19T00:11:58Z</time>
      </trkpt>
      <trkpt lat="45.42956" lon="2.90688">
        <ele>1105</ele>
        <time>2019-12-19T00:12:03Z</time>
      </trkpt>
      <trkpt lat="45.42976" lon="2.90515">
        <ele>1114</ele>
        <time>2019-12-19T00:12:25Z</time>
      </trkpt>
      <trkpt lat="45.4298" lon="2.90467">
        <ele>1117</ele>
        <time>2019-12-19T00:12:31Z</time>
      </trkpt>
      <trkpt lat="45.42979" lon="2.90414">
        <ele>1121</ele>
        <time>2019-12-19T00:12:37Z</time>
      </trkpt>
      <trkpt lat="45.42974" lon="2.90374">
        <ele>1123</ele>
        <time>2019-12-19T00:12:42Z</time>
      </trkpt>
      <trkpt lat="45.42963" lon="2.90333">
        <ele>1125</ele>
        <time>2019-12-19T00:12:48Z</time>
      </trkpt>
      <trkpt lat="45.42943" lon="2.90285">
        <ele>1126</ele>
        <time>2019-12-19T00:12:55Z</time>
      </trkpt>
      <trkpt lat="45.42924" lon="2.90254">
        <ele>1126</ele>
        <time>2019-12-19T00:13:00Z</time>
      </trkpt>
      <trkpt lat="45.42898" lon="2.90225">
        <ele>1128</ele>
        <time>2019-12-19T00:13:06Z</time>
      </trkpt>
      <trkpt lat="45.42873" lon="2.90208">
        <ele>1130</ele>
        <time>2019-12-19T00:13:11Z</time>
      </trkpt>
      <trkpt lat="45.42845" lon="2.90197">
        <ele>1131</ele>
        <time>2019-12-19T00:13:16Z</time>
      </trkpt>
      <trkpt lat="45.42625" lon="2.90131">
        <ele>1141</ele>
        <time>2019-12-19T00:13:56Z</time>
      </trkpt>
      <trkpt lat="45.42594" lon="2.90118">
        <ele>1143</ele>
        <time>2019-12-19T00:14:02Z</time>
      </trkpt>
      <trkpt lat="45.42565" lon="2.90095">
        <ele>1143</ele>
        <time>2019-12-19T00:14:08Z</time>
      </trkpt>
      <trkpt lat="45.42446" lon="2.89959">
        <ele>1143</ele>
        <time>2019-12-19T00:14:35Z</time>
      </trkpt>
      <trkpt lat="45.42431" lon="2.89946">
        <ele>1143</ele>
        <time>2019-12-19T00:14:38Z</time>
      </trkpt>
      <trkpt lat="45.42265" lon="2.89823">
        <ele>1145</ele>
        <time>2019-12-19T00:15:11Z</time>
      </trkpt>
      <trkpt lat="45.42244" lon="2.89811">
        <ele>1145</ele>
        <time>2019-12-19T00:15:15Z</time>
      </trkpt>
      <trkpt lat="45.42225" lon="2.89804">
        <ele>1146</ele>
        <time>2019-12-19T00:15:19Z</time>
      </trkpt>
      <trkpt lat="45.42199" lon="2.89798">
        <ele>1146</ele>
        <time>2019-12-19T00:15:23Z</time>
      </trkpt>
      <trkpt lat="45.4217" lon="2.89799">
        <ele>1148</ele>
        <time>2019-12-19T00:15:28Z</time>
      </trkpt>
      <trkpt lat="45.42129" lon="2.89807">
        <ele>1150</ele>
        <time>2019-12-19T00:15:36Z</time>
      </trkpt>
      <trkpt lat="45.42106" lon="2.89804">
        <ele>1151</ele>
        <time>2019-12-19T00:15:40Z</time>
      </trkpt>
      <trkpt lat="45.42096" lon="2.898">
        <ele>1151</ele>
        <time>2019-12-19T00:15:42Z</time>
      </trkpt>
      <trkpt lat="45.42086" lon="2.89791">
        <ele>1150</ele>
        <time>2019-12-19T00:15:44Z</time>
      </trkpt>
      <trkpt lat="45.42071" lon="2.89773">
        <ele>1151</ele>
        <time>2019-12-19T00:15:47Z</time>
      </trkpt>
      <trkpt lat="45.42064" lon="2.89759">
        <ele>1150</ele>
        <time>2019-12-19T00:15:50Z</time>
      </trkpt>
      <trkpt lat="45.42058" lon="2.89742">
        <ele>1150</ele>
        <time>2019-12-19T00:15:52Z</time>
      </trkpt>
      <trkpt lat="45.42051" lon="2.89694">
        <ele>1151</ele>
        <time>2019-12-19T00:15:58Z</time>
      </trkpt>
      <trkpt lat="45.42048" lon="2.89623">
        <ele>1151</ele>
        <time>2019-12-19T00:16:07Z</time>
      </trkpt>
      <trkpt lat="45.42043" lon="2.89603">
        <ele>1151</ele>
        <time>2019-12-19T00:16:10Z</time>
      </trkpt>
      <trkpt lat="45.42036" lon="2.89584">
        <ele>1152</ele>
        <time>2019-12-19T00:16:12Z</time>
      </trkpt>
      <trkpt lat="45.42027" lon="2.8957">
        <ele>1152</ele>
        <time>2019-12-19T00:16:15Z</time>
      </trkpt>
      <trkpt lat="45.41997" lon="2.89534">
        <ele>1155</ele>
        <time>2019-12-19T00:16:22Z</time>
      </trkpt>
      <trkpt lat="45.41858" lon="2.89377">
        <ele>1155</ele>
        <time>2019-12-19T00:16:53Z</time>
      </trkpt>
      <trkpt lat="45.41831" lon="2.8936">
        <ele>1152</ele>
        <time>2019-12-19T00:16:58Z</time>
      </trkpt>
      <trkpt lat="45.41811" lon="2.89353">
        <ele>1151</ele>
        <time>2019-12-19T00:17:02Z</time>
      </trkpt>
      <trkpt lat="45.41782" lon="2.89357">
        <ele>1151</ele>
        <time>2019-12-19T00:17:07Z</time>
      </trkpt>
      <trkpt lat="45.4176" lon="2.89365">
        <ele>1151</ele>
        <time>2019-12-19T00:17:11Z</time>
      </trkpt>
      <trkpt lat="45.41704" lon="2.89417">
        <ele>1153</ele>
        <time>2019-12-19T00:17:23Z</time>
      </trkpt>
      <trkpt lat="45.41679" lon="2.8943">
        <ele>1153</ele>
        <time>2019-12-19T00:17:28Z</time>
      </trkpt>
      <trkpt lat="45.41661" lon="2.89431">
        <ele>1153</ele>
        <time>2019-12-19T00:17:31Z</time>
      </trkpt>
      <trkpt lat="45.41637" lon="2.8942">
        <ele>1154</ele>
        <time>2019-12-19T00:17:36Z</time>
      </trkpt>
      <trkpt lat="45.41524" lon="2.89338">
        <ele>1147</ele>
        <time>2019-12-19T00:17:58Z</time>
      </trkpt>
      <trkpt lat="45.41511" lon="2.89326">
        <ele>1147</ele>
        <time>2019-12-19T00:18:01Z</time>
      </trkpt>
      <trkpt lat="45.41501" lon="2.89313">
        <ele>1147</ele>
        <time>2019-12-19T00:18:03Z</time>
      </trkpt>
      <trkpt lat="45.41495" lon="2.893">
        <ele>1147</ele>
        <time>2019-12-19T00:18:05Z</time>
      </trkpt>
      <trkpt lat="45.41491" lon="2.89286">
        <ele>1147</ele>
        <time>2019-12-19T00:18:07Z</time>
      </trkpt>
      <trkpt lat="45.41488" lon="2.89268">
        <ele>1146</ele>
        <time>2019-12-19T00:18:09Z</time>
      </trkpt>
      <trkpt lat="45.41484" lon="2.89197">
        <ele>1143</ele>
        <time>2019-12-19T00:18:18Z</time>
      </trkpt>
      <trkpt lat="45.4148" lon="2.89171">
        <ele>1142</ele>
        <time>2019-12-19T00:18:22Z</time>
      </trkpt>
      <trkpt lat="45.41473" lon="2.89151">
        <ele>1141</ele>
        <time>2019-12-19T00:18:25Z</time>
      </trkpt>
      <trkpt lat="45.41458" lon="2.89127">
        <ele>1140</ele>
        <time>2019-12-19T00:18:29Z</time>
      </trkpt>
      <trkpt lat="45.41441" lon="2.89107">
        <ele>1139</ele>
        <time>2019-12-19T00:18:32Z</time>
      </trkpt>
      <trkpt lat="45.41363" lon="2.8904">
        <ele>1138</ele>
        <time>2019-12-19T00:18:49Z</time>
      </trkpt>
      <trkpt lat="45.41344" lon="2.89028">
        <ele>1138</ele>
        <time>2019-12-19T00:18:52Z</time>
      </trkpt>
      <trkpt lat="45.41309" lon="2.89018">
        <ele>1138</ele>
        <time>2019-12-19T00:18:59Z</time>
      </trkpt>
      <trkpt lat="45.41254" lon="2.8902">
        <ele>1137</ele>
        <time>2019-12-19T00:19:08Z</time>
      </trkpt>
      <trkpt lat="45.4124" lon="2.89015">
        <ele>1136</ele>
        <time>2019-12-19T00:19:11Z</time>
      </trkpt>
      <trkpt lat="45.41228" lon="2.89008">
        <ele>1134</ele>
        <time>2019-12-19T00:19:13Z</time>
      </trkpt>
      <trkpt lat="45.41205" lon="2.88979">
        <ele>1130</ele>
        <time>2019-12-19T00:19:19Z</time>
      </trkpt>
      <trkpt lat="45.41191" lon="2.88967">
        <ele>1128</ele>
        <time>2019-12-19T00:19:22Z</time>
      </trkpt>
      <trkpt lat="45.41177" lon="2.88963">
        <ele>1127</ele>
        <time>2019-12-19T00:19:24Z</time>
      </trkpt>
      <trkpt lat="45.4116" lon="2.88962">
        <ele>1126</ele>
        <time>2019-12-19T00:19:27Z</time>
      </trkpt>
      <trkpt lat="45.41144" lon="2.88965">
        <ele>1125</ele>
        <time>2019-12-19T00:19:30Z</time>
      </trkpt>
      <trkpt lat="45.41105" lon="2.88985">
        <ele>1124</ele>
        <time>2019-12-19T00:19:38Z</time>
      </trkpt>
      <trkpt lat="45.41078" lon="2.88991">
        <ele>1122</ele>
        <time>2019-12-19T00:19:42Z</time>
      </trkpt>
      <trkpt lat="45.41013" lon="2.88997">
        <ele>1119</ele>
        <time>2019-12-19T00:19:54Z</time>
      </trkpt>
      <trkpt lat="45.40994" lon="2.89001">
        <ele>1119</ele>
        <time>2019-12-19T00:19:57Z</time>
      </trkpt>
      <trkpt lat="45.40974" lon="2.89009">
        <ele>1118</ele>
        <time>2019-12-19T00:20:01Z</time>
      </trkpt>
      <trkpt lat="45.40904" lon="2.89047">
        <ele>1116</ele>
        <time>2019-12-19T00:20:14Z</time>
      </trkpt>
      <trkpt lat="45.40885" lon="2.89052">
        <ele>1116</ele>
        <time>2019-12-19T00:20:18Z</time>
      </trkpt>
      <trkpt lat="45.40868" lon="2.8905">
        <ele>1115</ele>
        <time>2019-12-19T00:20:21Z</time>
      </trkpt>
      <trkpt lat="45.40848" lon="2.89037">
        <ele>1114</ele>
        <time>2019-12-19T00:20:25Z</time>
      </trkpt>
      <trkpt lat="45.40788" lon="2.88973">
        <ele>1111</ele>
        <time>2019-12-19T00:20:38Z</time>
      </trkpt>
      <trkpt lat="45.40772" lon="2.88963">
        <ele>1111</ele>
        <time>2019-12-19T00:20:41Z</time>
      </trkpt>
      <trkpt lat="45.40754" lon="2.88959">
        <ele>1111</ele>
        <time>2019-12-19T00:20:45Z</time>
      </trkpt>
      <trkpt lat="45.40736" lon="2.8896">
        <ele>1111</ele>
        <time>2019-12-19T00:20:48Z</time>
      </trkpt>
      <trkpt lat="45.40682" lon="2.88971">
        <ele>1111</ele>
        <time>2019-12-19T00:20:57Z</time>
      </trkpt>
      <trkpt lat="45.40657" lon="2.88972">
        <ele>1112</ele>
        <time>2019-12-19T00:21:02Z</time>
      </trkpt>
      <trkpt lat="45.40634" lon="2.88968">
        <ele>1113</ele>
        <time>2019-12-19T00:21:06Z</time>
      </trkpt>
      <trkpt lat="45.40613" lon="2.88959">
        <ele>1113</ele>
        <time>2019-12-19T00:21:10Z</time>
      </trkpt>
      <trkpt lat="45.40568" lon="2.88929">
        <ele>1111</ele>
        <time>2019-12-19T00:21:19Z</time>
      </trkpt>
      <trkpt lat="45.4055" lon="2.88921">
        <ele>1110</ele>
        <time>2019-12-19T00:21:22Z</time>
      </trkpt>
      <trkpt lat="45.40534" lon="2.88915">
        <ele>1110</ele>
        <time>2019-12-19T00:21:25Z</time>
      </trkpt>
      <trkpt lat="45.40518" lon="2.88916">
        <ele>1111</ele>
        <time>2019-12-19T00:21:28Z</time>
      </trkpt>
      <trkpt lat="45.40501" lon="2.8892">
        <ele>1111</ele>
        <time>2019-12-19T00:21:31Z</time>
      </trkpt>
      <trkpt lat="45.4043" lon="2.88966">
        <ele>1112</ele>
        <time>2019-12-19T00:21:45Z</time>
      </trkpt>
      <trkpt lat="45.40328" lon="2.89006">
        <ele>1105</ele>
        <time>2019-12-19T00:22:04Z</time>
      </trkpt>
      <trkpt lat="45.40234" lon="2.89012">
        <ele>1101</ele>
        <time>2019-12-19T00:22:20Z</time>
      </trkpt>
      <trkpt lat="45.40143" lon="2.89026">
        <ele>1095</ele>
        <time>2019-12-19T00:22:37Z</time>
      </trkpt>
      <trkpt lat="45.40126" lon="2.89035">
        <ele>1093</ele>
        <time>2019-12-19T00:22:40Z</time>
      </trkpt>
      <trkpt lat="45.40111" lon="2.8905">
        <ele>1092</ele>
        <time>2019-12-19T00:22:43Z</time>
      </trkpt>
      <trkpt lat="45.40088" lon="2.89095">
        <ele>1090</ele>
        <time>2019-12-19T00:22:50Z</time>
      </trkpt>
      <trkpt lat="45.40076" lon="2.89112">
        <ele>1089</ele>
        <time>2019-12-19T00:22:53Z</time>
      </trkpt>
      <trkpt lat="45.40067" lon="2.89119">
        <ele>1088</ele>
        <time>2019-12-19T00:22:55Z</time>
      </trkpt>
      <trkpt lat="45.40058" lon="2.89123">
        <ele>1088</ele>
        <time>2019-12-19T00:22:57Z</time>
      </trkpt>
      <trkpt lat="45.40083" lon="2.89256">
        <ele>1093</ele>
        <time>2019-12-19T00:23:14Z</time>
      </trkpt>
      <trkpt lat="45.40093" lon="2.89286">
        <ele>1095</ele>
        <time>2019-12-19T00:23:18Z</time>
      </trkpt>
      <trkpt lat="45.40118" lon="2.89332">
        <ele>1100</ele>
        <time>2019-12-19T00:23:25Z</time>
      </trkpt>
      <trkpt lat="45.40153" lon="2.89436">
        <ele>1101</ele>
        <time>2019-12-19T00:23:40Z</time>
      </trkpt>
      <trkpt lat="45.40171" lon="2.89473">
        <ele>1102</ele>
        <time>2019-12-19T00:23:45Z</time>
      </trkpt>
      <trkpt lat="45.40186" lon="2.89534">
        <ele>1103</ele>
        <time>2019-12-19T00:23:53Z</time>
      </trkpt>
      <trkpt lat="45.40205" lon="2.89577">
        <ele>1106</ele>
        <time>2019-12-19T00:24:00Z</time>
      </trkpt>
      <trkpt lat="45.40228" lon="2.8971">
        <ele>1108</ele>
        <time>2019-12-19T00:24:17Z</time>
      </trkpt>
      <trkpt lat="45.40255" lon="2.89773">
        <ele>1111</ele>
        <time>2019-12-19T00:24:26Z</time>
      </trkpt>
      <trkpt lat="45.40271" lon="2.89833">
        <ele>1114</ele>
        <time>2019-12-19T00:24:34Z</time>
      </trkpt>
      <trkpt lat="45.40282" lon="2.89853">
        <ele>1116</ele>
        <time>2019-12-19T00:24:37Z</time>
      </trkpt>
      <trkpt lat="45.40319" lon="2.89893">
        <ele>1118</ele>
        <time>2019-12-19T00:24:45Z</time>
      </trkpt>
      <trkpt lat="45.40327" lon="2.89912">
        <ele>1117</ele>
        <time>2019-12-19T00:24:48Z</time>
      </trkpt>
      <trkpt lat="45.4033" lon="2.89938">
        <ele>1116</ele>
        <time>2019-12-19T00:24:52Z</time>
      </trkpt>
      <trkpt lat="45.40331" lon="2.89979">
        <ele>1116</ele>
        <time>2019-12-19T00:24:57Z</time>
      </trkpt>
      <trkpt lat="45.40329" lon="2.89996">
        <ele>1115</ele>
        <time>2019-12-19T00:24:59Z</time>
      </trkpt>
      <trkpt lat="45.40319" lon="2.90024">
        <ele>1116</ele>
        <time>2019-12-19T00:25:03Z</time>
      </trkpt>
      <trkpt lat="45.40307" lon="2.90058">
        <ele>1117</ele>
        <time>2019-12-19T00:25:08Z</time>
      </trkpt>
      <trkpt lat="45.40302" lon="2.90076">
        <ele>1118</ele>
        <time>2019-12-19T00:25:10Z</time>
      </trkpt>
      <trkpt lat="45.40299" lon="2.90095">
        <ele>1118</ele>
        <time>2019-12-19T00:25:12Z</time>
      </trkpt>
      <trkpt lat="45.40297" lon="2.90135">
        <ele>1119</ele>
        <time>2019-12-19T00:25:17Z</time>
      </trkpt>
      <trkpt lat="45.40297" lon="2.90256">
        <ele>1123</ele>
        <time>2019-12-19T00:25:32Z</time>
      </trkpt>
      <trkpt lat="45.40295" lon="2.90341">
        <ele>1127</ele>
        <time>2019-12-19T00:25:43Z</time>
      </trkpt>
      <trkpt lat="45.40298" lon="2.9038">
        <ele>1128</ele>
        <time>2019-12-19T00:25:48Z</time>
      </trkpt>
      <trkpt lat="45.40301" lon="2.90392">
        <ele>1128</ele>
        <time>2019-12-19T00:25:50Z</time>
      </trkpt>
      <trkpt lat="45.40307" lon="2.90405">
        <ele>1127</ele>
        <time>2019-12-19T00:25:52Z</time>
      </trkpt>
      <trkpt lat="45.40312" lon="2.90428">
        <ele>1126</ele>
        <time>2019-12-19T00:25:55Z</time>
      </trkpt>
      <trkpt lat="45.40312" lon="2.90439">
        <ele>1126</ele>
        <time>2019-12-19T00:25:56Z</time>
      </trkpt>
      <trkpt lat="45.40306" lon="2.90457">
        <ele>1126</ele>
        <time>2019-12-19T00:25:58Z</time>
      </trkpt>
      <trkpt lat="45.40299" lon="2.90467">
        <ele>1127</ele>
        <time>2019-12-19T00:26:00Z</time>
      </trkpt>
      <trkpt lat="45.40283" lon="2.90478">
        <ele>1128</ele>
        <time>2019-12-19T00:26:03Z</time>
      </trkpt>
      <trkpt lat="45.40157" lon="2.90525">
        <ele>1133</ele>
        <time>2019-12-19T00:26:27Z</time>
      </trkpt>
      <trkpt lat="45.40145" lon="2.90535">
        <ele>1133</ele>
        <time>2019-12-19T00:26:29Z</time>
      </trkpt>
      <trkpt lat="45.40139" lon="2.90543">
        <ele>1132</ele>
        <time>2019-12-19T00:26:30Z</time>
      </trkpt>
      <trkpt lat="45.40134" lon="2.90555">
        <ele>1131</ele>
        <time>2019-12-19T00:26:32Z</time>
      </trkpt>
      <trkpt lat="45.40122" lon="2.906">
        <ele>1130</ele>
        <time>2019-12-19T00:26:38Z</time>
      </trkpt>
      <trkpt lat="45.40114" lon="2.90617">
        <ele>1131</ele>
        <time>2019-12-19T00:26:41Z</time>
      </trkpt>
      <trkpt lat="45.40098" lon="2.90636">
        <ele>1134</ele>
        <time>2019-12-19T00:26:44Z</time>
      </trkpt>
      <trkpt lat="45.40089" lon="2.90641">
        <ele>1135</ele>
        <time>2019-12-19T00:26:46Z</time>
      </trkpt>
      <trkpt lat="45.40075" lon="2.90644">
        <ele>1137</ele>
        <time>2019-12-19T00:26:49Z</time>
      </trkpt>
      <trkpt lat="45.40043" lon="2.90645">
        <ele>1139</ele>
        <time>2019-12-19T00:26:54Z</time>
      </trkpt>
      <trkpt lat="45.40034" lon="2.90649">
        <ele>1140</ele>
        <time>2019-12-19T00:26:56Z</time>
      </trkpt>
      <trkpt lat="45.39981" lon="2.90685">
        <ele>1145</ele>
        <time>2019-12-19T00:27:07Z</time>
      </trkpt>
      <trkpt lat="45.39924" lon="2.90707">
        <ele>1149</ele>
        <time>2019-12-19T00:27:17Z</time>
      </trkpt>
      <trkpt lat="45.39907" lon="2.90717">
        <ele>1151</ele>
        <time>2019-12-19T00:27:20Z</time>
      </trkpt>
      <trkpt lat="45.39895" lon="2.90727">
        <ele>1152</ele>
        <time>2019-12-19T00:27:23Z</time>
      </trkpt>
      <trkpt lat="45.39881" lon="2.90744">
        <ele>1154</ele>
        <time>2019-12-19T00:27:26Z</time>
      </trkpt>
      <trkpt lat="45.39858" lon="2.9078">
        <ele>1156</ele>
        <time>2019-12-19T00:27:32Z</time>
      </trkpt>
      <trkpt lat="45.3985" lon="2.90796">
        <ele>1157</ele>
        <time>2019-12-19T00:27:35Z</time>
      </trkpt>
      <trkpt lat="45.39846" lon="2.90808">
        <ele>1157</ele>
        <time>2019-12-19T00:27:36Z</time>
      </trkpt>
      <trkpt lat="45.39842" lon="2.90834">
        <ele>1157</ele>
        <time>2019-12-19T00:27:40Z</time>
      </trkpt>
      <trkpt lat="45.39842" lon="2.90876">
        <ele>1158</ele>
        <time>2019-12-19T00:27:45Z</time>
      </trkpt>
      <trkpt lat="45.39844" lon="2.90886">
        <ele>1159</ele>
        <time>2019-12-19T00:27:46Z</time>
      </trkpt>
      <trkpt lat="45.3986" lon="2.90928">
        <ele>1160</ele>
        <time>2019-12-19T00:27:52Z</time>
      </trkpt>
      <trkpt lat="45.39861" lon="2.90949">
        <ele>1161</ele>
        <time>2019-12-19T00:27:55Z</time>
      </trkpt>
      <trkpt lat="45.39851" lon="2.90989">
        <ele>1162</ele>
        <time>2019-12-19T00:28:00Z</time>
      </trkpt>
      <trkpt lat="45.39851" lon="2.90999">
        <ele>1162</ele>
        <time>2019-12-19T00:28:01Z</time>
      </trkpt>
      <trkpt lat="45.39856" lon="2.91032">
        <ele>1164</ele>
        <time>2019-12-19T00:28:06Z</time>
      </trkpt>
      <trkpt lat="45.39856" lon="2.91042">
        <ele>1164</ele>
        <time>2019-12-19T00:28:07Z</time>
      </trkpt>
      <trkpt lat="45.39846" lon="2.91094">
        <ele>1166</ele>
        <time>2019-12-19T00:28:13Z</time>
      </trkpt>
      <trkpt lat="45.39845" lon="2.91104">
        <ele>1166</ele>
        <time>2019-12-19T00:28:15Z</time>
      </trkpt>
      <trkpt lat="45.3985" lon="2.91121">
        <ele>1167</ele>
        <time>2019-12-19T00:28:17Z</time>
      </trkpt>
      <trkpt lat="45.39866" lon="2.91148">
        <ele>1169</ele>
        <time>2019-12-19T00:28:21Z</time>
      </trkpt>
      <trkpt lat="45.39882" lon="2.91185">
        <ele>1171</ele>
        <time>2019-12-19T00:28:27Z</time>
      </trkpt>
      <trkpt lat="45.39911" lon="2.91276">
        <ele>1173</ele>
        <time>2019-12-19T00:28:39Z</time>
      </trkpt>
      <trkpt lat="45.39913" lon="2.9129">
        <ele>1173</ele>
        <time>2019-12-19T00:28:41Z</time>
      </trkpt>
      <trkpt lat="45.39914" lon="2.91303">
        <ele>1173</ele>
        <time>2019-12-19T00:28:43Z</time>
      </trkpt>
      <trkpt lat="45.3991" lon="2.91327">
        <ele>1174</ele>
        <time>2019-12-19T00:28:46Z</time>
      </trkpt>
      <trkpt lat="45.39873" lon="2.91404">
        <ele>1177</ele>
        <time>2019-12-19T00:28:58Z</time>
      </trkpt>
      <trkpt lat="45.39867" lon="2.91419">
        <ele>1178</ele>
        <time>2019-12-19T00:29:00Z</time>
      </trkpt>
      <trkpt lat="45.39849" lon="2.91458">
        <ele>1178</ele>
        <time>2019-12-19T00:29:06Z</time>
      </trkpt>
      <trkpt lat="45.3983" lon="2.91491">
        <ele>1178</ele>
        <time>2019-12-19T00:29:11Z</time>
      </trkpt>
      <trkpt lat="45.39713" lon="2.91655">
        <ele>1183</ele>
        <time>2019-12-19T00:29:40Z</time>
      </trkpt>
      <trkpt lat="45.39701" lon="2.91668">
        <ele>1184</ele>
        <time>2019-12-19T00:29:43Z</time>
      </trkpt>
      <trkpt lat="45.39686" lon="2.91679">
        <ele>1184</ele>
        <time>2019-12-19T00:29:46Z</time>
      </trkpt>
      <trkpt lat="45.39589" lon="2.91707">
        <ele>1186</ele>
        <time>2019-12-19T00:30:03Z</time>
      </trkpt>
      <trkpt lat="45.39579" lon="2.91713">
        <ele>1186</ele>
        <time>2019-12-19T00:30:05Z</time>
      </trkpt>
      <trkpt lat="45.39566" lon="2.91726">
        <ele>1186</ele>
        <time>2019-12-19T00:30:08Z</time>
      </trkpt>
      <trkpt lat="45.39543" lon="2.91773">
        <ele>1185</ele>
        <time>2019-12-19T00:30:15Z</time>
      </trkpt>
      <trkpt lat="45.39419" lon="2.92063">
        <ele>1189</ele>
        <time>2019-12-19T00:30:58Z</time>
      </trkpt>
      <trkpt lat="45.3941" lon="2.92079">
        <ele>1189</ele>
        <time>2019-12-19T00:31:00Z</time>
      </trkpt>
      <trkpt lat="45.39403" lon="2.92088">
        <ele>1190</ele>
        <time>2019-12-19T00:31:02Z</time>
      </trkpt>
      <trkpt lat="45.39384" lon="2.92102">
        <ele>1190</ele>
        <time>2019-12-19T00:31:06Z</time>
      </trkpt>
      <trkpt lat="45.39065" lon="2.92263">
        <ele>1198</ele>
        <time>2019-12-19T00:32:06Z</time>
      </trkpt>
      <trkpt lat="45.39049" lon="2.92267">
        <ele>1199</ele>
        <time>2019-12-19T00:32:09Z</time>
      </trkpt>
      <trkpt lat="45.38943" lon="2.92277">
        <ele>1207</ele>
        <time>2019-12-19T00:32:28Z</time>
      </trkpt>
      <trkpt lat="45.38923" lon="2.92284">
        <ele>1208</ele>
        <time>2019-12-19T00:32:31Z</time>
      </trkpt>
      <trkpt lat="45.38912" lon="2.92292">
        <ele>1208</ele>
        <time>2019-12-19T00:32:34Z</time>
      </trkpt>
      <trkpt lat="45.38877" lon="2.92327">
        <ele>1206</ele>
        <time>2019-12-19T00:32:41Z</time>
      </trkpt>
      <trkpt lat="45.38865" lon="2.92336">
        <ele>1206</ele>
        <time>2019-12-19T00:32:44Z</time>
      </trkpt>
      <trkpt lat="45.38849" lon="2.92362">
        <ele>1206</ele>
        <time>2019-12-19T00:32:48Z</time>
      </trkpt>
      <trkpt lat="45.38846" lon="2.92369">
        <ele>1206</ele>
        <time>2019-12-19T00:32:49Z</time>
      </trkpt>
      <trkpt lat="45.38808" lon="2.92347">
        <ele>1208</ele>
        <time>2019-12-19T00:32:56Z</time>
      </trkpt>
      <trkpt lat="45.38793" lon="2.92335">
        <ele>1209</ele>
        <time>2019-12-19T00:32:59Z</time>
      </trkpt>
      <trkpt lat="45.38739" lon="2.92252">
        <ele>1214</ele>
        <time>2019-12-19T00:33:13Z</time>
      </trkpt>
      <trkpt lat="45.3871" lon="2.92218">
        <ele>1216</ele>
        <time>2019-12-19T00:33:20Z</time>
      </trkpt>
      <trkpt lat="45.38686" lon="2.92203">
        <ele>1216</ele>
        <time>2019-12-19T00:33:25Z</time>
      </trkpt>
      <trkpt lat="45.38656" lon="2.92191">
        <ele>1215</ele>
        <time>2019-12-19T00:33:30Z</time>
      </trkpt>
      <trkpt lat="45.38556" lon="2.92159">
        <ele>1217</ele>
        <time>2019-12-19T00:33:49Z</time>
      </trkpt>
      <trkpt lat="45.38474" lon="2.92109">
        <ele>1219</ele>
        <time>2019-12-19T00:34:04Z</time>
      </trkpt>
      <trkpt lat="45.38431" lon="2.92076">
        <ele>1219</ele>
        <time>2019-12-19T00:34:13Z</time>
      </trkpt>
      <trkpt lat="45.38412" lon="2.9205">
        <ele>1220</ele>
        <time>2019-12-19T00:34:18Z</time>
      </trkpt>
      <trkpt lat="45.38394" lon="2.92014">
        <ele>1222</ele>
        <time>2019-12-19T00:34:23Z</time>
      </trkpt>
      <trkpt lat="45.38324" lon="2.91845">
        <ele>1223</ele>
        <time>2019-12-19T00:34:48Z</time>
      </trkpt>
      <trkpt lat="45.3831" lon="2.91806">
        <ele>1225</ele>
        <time>2019-12-19T00:34:53Z</time>
      </trkpt>
      <trkpt lat="45.38297" lon="2.91762">
        <ele>1226</ele>
        <time>2019-12-19T00:34:59Z</time>
      </trkpt>
      <trkpt lat="45.38277" lon="2.91635">
        <ele>1225</ele>
        <time>2019-12-19T00:35:16Z</time>
      </trkpt>
      <trkpt lat="45.38275" lon="2.91596">
        <ele>1224</ele>
        <time>2019-12-19T00:35:21Z</time>
      </trkpt>
      <trkpt lat="45.38278" lon="2.91447">
        <ele>1223</ele>
        <time>2019-12-19T00:35:39Z</time>
      </trkpt>
      <trkpt lat="45.38276" lon="2.91413">
        <ele>1222</ele>
        <time>2019-12-19T00:35:43Z</time>
      </trkpt>
      <trkpt lat="45.38262" lon="2.91277">
        <ele>1219</ele>
        <time>2019-12-19T00:36:01Z</time>
      </trkpt>
      <trkpt lat="45.38263" lon="2.91238">
        <ele>1219</ele>
        <time>2019-12-19T00:36:05Z</time>
      </trkpt>
      <trkpt lat="45.38271" lon="2.9119">
        <ele>1218</ele>
        <time>2019-12-19T00:36:12Z</time>
      </trkpt>
      <trkpt lat="45.38274" lon="2.91167">
        <ele>1218</ele>
        <time>2019-12-19T00:36:15Z</time>
      </trkpt>
      <trkpt lat="45.38271" lon="2.9115">
        <ele>1219</ele>
        <time>2019-12-19T00:36:17Z</time>
      </trkpt>
      <trkpt lat="45.38265" lon="2.91133">
        <ele>1219</ele>
        <time>2019-12-19T00:36:19Z</time>
      </trkpt>
      <trkpt lat="45.38246" lon="2.911">
        <ele>1219</ele>
        <time>2019-12-19T00:36:24Z</time>
      </trkpt>
      <trkpt lat="45.38235" lon="2.91074">
        <ele>1220</ele>
        <time>2019-12-19T00:36:28Z</time>
      </trkpt>
      <trkpt lat="45.38205" lon="2.90981">
        <ele>1222</ele>
        <time>2019-12-19T00:36:41Z</time>
      </trkpt>
      <trkpt lat="45.38191" lon="2.90957">
        <ele>1220</ele>
        <time>2019-12-19T00:36:45Z</time>
      </trkpt>
      <trkpt lat="45.38116" lon="2.90849">
        <ele>1217</ele>
        <time>2019-12-19T00:37:04Z</time>
      </trkpt>
      <trkpt lat="45.38092" lon="2.9083">
        <ele>1217</ele>
        <time>2019-12-19T00:37:09Z</time>
      </trkpt>
      <trkpt lat="45.38058" lon="2.90811">
        <ele>1217</ele>
        <time>2019-12-19T00:37:15Z</time>
      </trkpt>
      <trkpt lat="45.38034" lon="2.9079">
        <ele>1216</ele>
        <time>2019-12-19T00:37:20Z</time>
      </trkpt>
      <trkpt lat="45.37998" lon="2.90732">
        <ele>1215</ele>
        <time>2019-12-19T00:37:30Z</time>
      </trkpt>
      <trkpt lat="45.37953" lon="2.90606">
        <ele>1214</ele>
        <time>2019-12-19T00:37:48Z</time>
      </trkpt>
      <trkpt lat="45.37931" lon="2.90526">
        <ele>1213</ele>
        <time>2019-12-19T00:37:58Z</time>
      </trkpt>
      <trkpt lat="45.3792" lon="2.90499">
        <ele>1212</ele>
        <time>2019-12-19T00:38:02Z</time>
      </trkpt>
      <trkpt lat="45.37909" lon="2.90477">
        <ele>1212</ele>
        <time>2019-12-19T00:38:06Z</time>
      </trkpt>
      <trkpt lat="45.37871" lon="2.90415">
        <ele>1211</ele>
        <time>2019-12-19T00:38:16Z</time>
      </trkpt>
      <trkpt lat="45.37811" lon="2.90272">
        <ele>1209</ele>
        <time>2019-12-19T00:38:37Z</time>
      </trkpt>
      <trkpt lat="45.37775" lon="2.90172">
        <ele>1209</ele>
        <time>2019-12-19T00:38:51Z</time>
      </trkpt>
      <trkpt lat="45.37707" lon="2.9001">
        <ele>1206</ele>
        <time>2019-12-19T00:39:14Z</time>
      </trkpt>
      <trkpt lat="45.37688" lon="2.89983">
        <ele>1206</ele>
        <time>2019-12-19T00:39:19Z</time>
      </trkpt>
      <trkpt lat="45.3768" lon="2.89967">
        <ele>1206</ele>
        <time>2019-12-19T00:39:22Z</time>
      </trkpt>
      <trkpt lat="45.37671" lon="2.89931">
        <ele>1207</ele>
        <time>2019-12-19T00:39:26Z</time>
      </trkpt>
      <trkpt lat="45.37666" lon="2.89894">
        <ele>1208</ele>
        <time>2019-12-19T00:39:31Z</time>
      </trkpt>
      <trkpt lat="45.37668" lon="2.89877">
        <ele>1208</ele>
        <time>2019-12-19T00:39:33Z</time>
      </trkpt>
      <trkpt lat="45.37677" lon="2.89842">
        <ele>1210</ele>
        <time>2019-12-19T00:39:38Z</time>
      </trkpt>
      <trkpt lat="45.37678" lon="2.89829">
        <ele>1210</ele>
        <time>2019-12-19T00:39:40Z</time>
      </trkpt>
      <trkpt lat="45.37674" lon="2.89805">
        <ele>1210</ele>
        <time>2019-12-19T00:39:43Z</time>
      </trkpt>
      <trkpt lat="45.37662" lon="2.89756">
        <ele>1211</ele>
        <time>2019-12-19T00:39:49Z</time>
      </trkpt>
      <trkpt lat="45.37629" lon="2.89674">
        <ele>1213</ele>
        <time>2019-12-19T00:40:01Z</time>
      </trkpt>
      <trkpt lat="45.37627" lon="2.89663">
        <ele>1213</ele>
        <time>2019-12-19T00:40:02Z</time>
      </trkpt>
      <trkpt lat="45.37627" lon="2.89649">
        <ele>1214</ele>
        <time>2019-12-19T00:40:04Z</time>
      </trkpt>
      <trkpt lat="45.37629" lon="2.8963">
        <ele>1214</ele>
        <time>2019-12-19T00:40:06Z</time>
      </trkpt>
      <trkpt lat="45.37662" lon="2.8948">
        <ele>1216</ele>
        <time>2019-12-19T00:40:26Z</time>
      </trkpt>
      <trkpt lat="45.37669" lon="2.89464">
        <ele>1216</ele>
        <time>2019-12-19T00:40:28Z</time>
      </trkpt>
      <trkpt lat="45.37697" lon="2.89409">
        <ele>1214</ele>
        <time>2019-12-19T00:40:37Z</time>
      </trkpt>
      <trkpt lat="45.37704" lon="2.89391">
        <ele>1214</ele>
        <time>2019-12-19T00:40:40Z</time>
      </trkpt>
      <trkpt lat="45.37707" lon="2.89373">
        <ele>1215</ele>
        <time>2019-12-19T00:40:42Z</time>
      </trkpt>
      <trkpt lat="45.37709" lon="2.89348">
        <ele>1217</ele>
        <time>2019-12-19T00:40:45Z</time>
      </trkpt>
      <trkpt lat="45.37707" lon="2.89268">
        <ele>1220</ele>
        <time>2019-12-19T00:40:55Z</time>
      </trkpt>
      <trkpt lat="45.37709" lon="2.89251">
        <ele>1220</ele>
        <time>2019-12-19T00:40:57Z</time>
      </trkpt>
      <trkpt lat="45.37712" lon="2.89231">
        <ele>1221</ele>
        <time>2019-12-19T00:41:00Z</time>
      </trkpt>
      <trkpt lat="45.37724" lon="2.89186">
        <ele>1221</ele>
        <time>2019-12-19T00:41:06Z</time>
      </trkpt>
      <trkpt lat="45.37726" lon="2.89158">
        <ele>1221</ele>
        <time>2019-12-19T00:41:09Z</time>
      </trkpt>
      <trkpt lat="45.37724" lon="2.8914">
        <ele>1222</ele>
        <time>2019-12-19T00:41:12Z</time>
      </trkpt>
      <trkpt lat="45.37688" lon="2.88963">
        <ele>1224</ele>
        <time>2019-12-19T00:41:35Z</time>
      </trkpt>
      <trkpt lat="45.37679" lon="2.88935">
        <ele>1225</ele>
        <time>2019-12-19T00:41:38Z</time>
      </trkpt>
      <trkpt lat="45.37675" lon="2.88912">
        <ele>1226</ele>
        <time>2019-12-19T00:41:41Z</time>
      </trkpt>
      <trkpt lat="45.37676" lon="2.88884">
        <ele>1225</ele>
        <time>2019-12-19T00:41:45Z</time>
      </trkpt>
      <trkpt lat="45.37678" lon="2.88856">
        <ele>1225</ele>
        <time>2019-12-19T00:41:48Z</time>
      </trkpt>
      <trkpt lat="45.37679" lon="2.88808">
        <ele>1226</ele>
        <time>2019-12-19T00:41:54Z</time>
      </trkpt>
      <trkpt lat="45.37686" lon="2.88783">
        <ele>1226</ele>
        <time>2019-12-19T00:41:58Z</time>
      </trkpt>
      <trkpt lat="45.37719" lon="2.88725">
        <ele>1223</ele>
        <time>2019-12-19T00:42:07Z</time>
      </trkpt>
      <trkpt lat="45.3773" lon="2.88694">
        <ele>1222</ele>
        <time>2019-12-19T00:42:11Z</time>
      </trkpt>
      <trkpt lat="45.3774" lon="2.88643">
        <ele>1221</ele>
        <time>2019-12-19T00:42:18Z</time>
      </trkpt>
      <trkpt lat="45.37742" lon="2.88621">
        <ele>1220</ele>
        <time>2019-12-19T00:42:21Z</time>
      </trkpt>
      <trkpt lat="45.37738" lon="2.88583">
        <ele>1220</ele>
        <time>2019-12-19T00:42:26Z</time>
      </trkpt>
      <trkpt lat="45.37734" lon="2.88563">
        <ele>1219</ele>
        <time>2019-12-19T00:42:28Z</time>
      </trkpt>
      <trkpt lat="45.37698" lon="2.88475">
        <ele>1221</ele>
        <time>2019-12-19T00:42:41Z</time>
      </trkpt>
      <trkpt lat="45.37693" lon="2.88453">
        <ele>1220</ele>
        <time>2019-12-19T00:42:44Z</time>
      </trkpt>
      <trkpt lat="45.37686" lon="2.88404">
        <ele>1218</ele>
        <time>2019-12-19T00:42:50Z</time>
      </trkpt>
      <trkpt lat="45.37681" lon="2.88379">
        <ele>1217</ele>
        <time>2019-12-19T00:42:53Z</time>
      </trkpt>
      <trkpt lat="45.37655" lon="2.88285">
        <ele>1218</ele>
        <time>2019-12-19T00:43:06Z</time>
      </trkpt>
      <trkpt lat="45.37647" lon="2.88193">
        <ele>1216</ele>
        <time>2019-12-19T00:43:18Z</time>
      </trkpt>
      <trkpt lat="45.37638" lon="2.88164">
        <ele>1216</ele>
        <time>2019-12-19T00:43:22Z</time>
      </trkpt>
      <trkpt lat="45.37622" lon="2.88138">
        <ele>1215</ele>
        <time>2019-12-19T00:43:26Z</time>
      </trkpt>
      <trkpt lat="45.3758" lon="2.88093">
        <ele>1213</ele>
        <time>2019-12-19T00:43:35Z</time>
      </trkpt>
      <trkpt lat="45.37556" lon="2.88052">
        <ele>1211</ele>
        <time>2019-12-19T00:43:42Z</time>
      </trkpt>
      <trkpt lat="45.37548" lon="2.88045">
        <ele>1211</ele>
        <time>2019-12-19T00:43:44Z</time>
      </trkpt>
      <trkpt lat="45.37519" lon="2.88033">
        <ele>1212</ele>
        <time>2019-12-19T00:43:49Z</time>
      </trkpt>
      <trkpt lat="45.37502" lon="2.88019">
        <ele>1212</ele>
        <time>2019-12-19T00:43:52Z</time>
      </trkpt>
      <trkpt lat="45.37494" lon="2.88002">
        <ele>1212</ele>
        <time>2019-12-19T00:43:55Z</time>
      </trkpt>
      <trkpt lat="45.37492" lon="2.87989">
        <ele>1212</ele>
        <time>2019-12-19T00:43:57Z</time>
      </trkpt>
      <trkpt lat="45.37491" lon="2.87977">
        <ele>1211</ele>
        <time>2019-12-19T00:43:58Z</time>
      </trkpt>
      <trkpt lat="45.37492" lon="2.87942">
        <ele>1210</ele>
        <time>2019-12-19T00:44:03Z</time>
      </trkpt>
      <trkpt lat="45.37491" lon="2.87919">
        <ele>1209</ele>
        <time>2019-12-19T00:44:05Z</time>
      </trkpt>
      <trkpt lat="45.37483" lon="2.87901">
        <ele>1208</ele>
        <time>2019-12-19T00:44:08Z</time>
      </trkpt>
      <trkpt lat="45.37466" lon="2.87878">
        <ele>1208</ele>
        <time>2019-12-19T00:44:12Z</time>
      </trkpt>
      <trkpt lat="45.3745" lon="2.87866">
        <ele>1208</ele>
        <time>2019-12-19T00:44:15Z</time>
      </trkpt>
      <trkpt lat="45.37398" lon="2.87842">
        <ele>1207</ele>
        <time>2019-12-19T00:44:25Z</time>
      </trkpt>
      <trkpt lat="45.37385" lon="2.8784">
        <ele>1207</ele>
        <time>2019-12-19T00:44:28Z</time>
      </trkpt>
      <trkpt lat="45.37327" lon="2.87845">
        <ele>1210</ele>
        <time>2019-12-19T00:44:38Z</time>
      </trkpt>
      <trkpt lat="45.37318" lon="2.87842">
        <ele>1210</ele>
        <time>2019-12-19T00:44:39Z</time>
      </trkpt>
      <trkpt lat="45.37307" lon="2.8783">
        <ele>1211</ele>
        <time>2019-12-19T00:44:42Z</time>
      </trkpt>
      <trkpt lat="45.37305" lon="2.87821">
        <ele>1211</ele>
        <time>2019-12-19T00:44:43Z</time>
      </trkpt>
      <trkpt lat="45.37306" lon="2.87806">
        <ele>1210</ele>
        <time>2019-12-19T00:44:45Z</time>
      </trkpt>
      <trkpt lat="45.37309" lon="2.87797">
        <ele>1210</ele>
        <time>2019-12-19T00:44:46Z</time>
      </trkpt>
      <trkpt lat="45.37358" lon="2.87708">
        <ele>1205</ele>
        <time>2019-12-19T00:45:00Z</time>
      </trkpt>
      <trkpt lat="45.37362" lon="2.87699">
        <ele>1204</ele>
        <time>2019-12-19T00:45:02Z</time>
      </trkpt>
      <trkpt lat="45.37363" lon="2.87688">
        <ele>1204</ele>
        <time>2019-12-19T00:45:03Z</time>
      </trkpt>
      <trkpt lat="45.37361" lon="2.87681">
        <ele>1204</ele>
        <time>2019-12-19T00:45:04Z</time>
      </trkpt>
      <trkpt lat="45.37357" lon="2.87674">
        <ele>1204</ele>
        <time>2019-12-19T00:45:05Z</time>
      </trkpt>
      <trkpt lat="45.3735" lon="2.8767">
        <ele>1205</ele>
        <time>2019-12-19T00:45:07Z</time>
      </trkpt>
      <trkpt lat="45.37308" lon="2.87668">
        <ele>1208</ele>
        <time>2019-12-19T00:45:14Z</time>
      </trkpt>
      <trkpt lat="45.37289" lon="2.87661">
        <ele>1209</ele>
        <time>2019-12-19T00:45:17Z</time>
      </trkpt>
      <trkpt lat="45.37254" lon="2.87637">
        <ele>1209</ele>
        <time>2019-12-19T00:45:24Z</time>
      </trkpt>
      <trkpt lat="45.37249" lon="2.87629">
        <ele>1208</ele>
        <time>2019-12-19T00:45:26Z</time>
      </trkpt>
      <trkpt lat="45.37246" lon="2.87618">
        <ele>1208</ele>
        <time>2019-12-19T00:45:27Z</time>
      </trkpt>
      <trkpt lat="45.37246" lon="2.87605">
        <ele>1207</ele>
        <time>2019-12-19T00:45:29Z</time>
      </trkpt>
      <trkpt lat="45.37252" lon="2.87576">
        <ele>1205</ele>
        <time>2019-12-19T00:45:33Z</time>
      </trkpt>
      <trkpt lat="45.37253" lon="2.87561">
        <ele>1204</ele>
        <time>2019-12-19T00:45:35Z</time>
      </trkpt>
      <trkpt lat="45.37251" lon="2.87549">
        <ele>1204</ele>
        <time>2019-12-19T00:45:36Z</time>
      </trkpt>
      <trkpt lat="45.37243" lon="2.87527">
        <ele>1203</ele>
        <time>2019-12-19T00:45:39Z</time>
      </trkpt>
      <trkpt lat="45.37223" lon="2.87484">
        <ele>1201</ele>
        <time>2019-12-19T00:45:46Z</time>
      </trkpt>
      <trkpt lat="45.37212" lon="2.87471">
        <ele>1200</ele>
        <time>2019-12-19T00:45:48Z</time>
      </trkpt>
      <trkpt lat="45.37205" lon="2.87468">
        <ele>1200</ele>
        <time>2019-12-19T00:45:49Z</time>
      </trkpt>
      <trkpt lat="45.37198" lon="2.87468">
        <ele>1200</ele>
        <time>2019-12-19T00:45:51Z</time>
      </trkpt>
      <trkpt lat="45.37178" lon="2.87481">
        <ele>1202</ele>
        <time>2019-12-19T00:45:55Z</time>
      </trkpt>
      <trkpt lat="45.37169" lon="2.87482">
        <ele>1202</ele>
        <time>2019-12-19T00:45:56Z</time>
      </trkpt>
      <trkpt lat="45.37144" lon="2.8747">
        <ele>1199</ele>
        <time>2019-12-19T00:46:01Z</time>
      </trkpt>
      <trkpt lat="45.37137" lon="2.87471">
        <ele>1199</ele>
        <time>2019-12-19T00:46:02Z</time>
      </trkpt>
      <trkpt lat="45.37126" lon="2.87478">
        <ele>1199</ele>
        <time>2019-12-19T00:46:04Z</time>
      </trkpt>
      <trkpt lat="45.37112" lon="2.87506">
        <ele>1200</ele>
        <time>2019-12-19T00:46:09Z</time>
      </trkpt>
      <trkpt lat="45.37106" lon="2.87511">
        <ele>1200</ele>
        <time>2019-12-19T00:46:10Z</time>
      </trkpt>
      <trkpt lat="45.37074" lon="2.87524">
        <ele>1199</ele>
        <time>2019-12-19T00:46:16Z</time>
      </trkpt>
      <trkpt lat="45.37066" lon="2.87526">
        <ele>1200</ele>
        <time>2019-12-19T00:46:17Z</time>
      </trkpt>
      <trkpt lat="45.37055" lon="2.87523">
        <ele>1200</ele>
        <time>2019-12-19T00:46:19Z</time>
      </trkpt>
      <trkpt lat="45.37044" lon="2.87514">
        <ele>1200</ele>
        <time>2019-12-19T00:46:21Z</time>
      </trkpt>
      <trkpt lat="45.37039" lon="2.87507">
        <ele>1199</ele>
        <time>2019-12-19T00:46:23Z</time>
      </trkpt>
      <trkpt lat="45.37021" lon="2.8747">
        <ele>1200</ele>
        <time>2019-12-19T00:46:28Z</time>
      </trkpt>
      <trkpt lat="45.37008" lon="2.87453">
        <ele>1200</ele>
        <time>2019-12-19T00:46:31Z</time>
      </trkpt>
      <trkpt lat="45.3694" lon="2.87386">
        <ele>1208</ele>
        <time>2019-12-19T00:46:46Z</time>
      </trkpt>
      <trkpt lat="45.3689" lon="2.87352">
        <ele>1210</ele>
        <time>2019-12-19T00:46:56Z</time>
      </trkpt>
      <trkpt lat="45.3687" lon="2.87342">
        <ele>1210</ele>
        <time>2019-12-19T00:47:00Z</time>
      </trkpt>
      <trkpt lat="45.36839" lon="2.87342">
        <ele>1210</ele>
        <time>2019-12-19T00:47:05Z</time>
      </trkpt>
      <trkpt lat="45.36804" lon="2.87357">
        <ele>1208</ele>
        <time>2019-12-19T00:47:12Z</time>
      </trkpt>
      <trkpt lat="45.36699" lon="2.87425">
        <ele>1209</ele>
        <time>2019-12-19T00:47:32Z</time>
      </trkpt>
      <trkpt lat="45.36671" lon="2.87433">
        <ele>1209</ele>
        <time>2019-12-19T00:47:37Z</time>
      </trkpt>
      <trkpt lat="45.36482" lon="2.87404">
        <ele>1204</ele>
        <time>2019-12-19T00:48:11Z</time>
      </trkpt>
      <trkpt lat="45.36456" lon="2.87402">
        <ele>1204</ele>
        <time>2019-12-19T00:48:16Z</time>
      </trkpt>
      <trkpt lat="45.36314" lon="2.87424">
        <ele>1203</ele>
        <time>2019-12-19T00:48:41Z</time>
      </trkpt>
      <trkpt lat="45.36289" lon="2.87425">
        <ele>1203</ele>
        <time>2019-12-19T00:48:46Z</time>
      </trkpt>
      <trkpt lat="45.36225" lon="2.87417">
        <ele>1200</ele>
        <time>2019-12-19T00:48:57Z</time>
      </trkpt>
      <trkpt lat="45.36208" lon="2.87425">
        <ele>1198</ele>
        <time>2019-12-19T00:49:00Z</time>
      </trkpt>
      <trkpt lat="45.36196" lon="2.87438">
        <ele>1198</ele>
        <time>2019-12-19T00:49:03Z</time>
      </trkpt>
      <trkpt lat="45.36187" lon="2.87462">
        <ele>1198</ele>
        <time>2019-12-19T00:49:06Z</time>
      </trkpt>
      <trkpt lat="45.36171" lon="2.87545">
        <ele>1199</ele>
        <time>2019-12-19T00:49:17Z</time>
      </trkpt>
      <trkpt lat="45.36165" lon="2.87559">
        <ele>1198</ele>
        <time>2019-12-19T00:49:19Z</time>
      </trkpt>
      <trkpt lat="45.3615" lon="2.87577">
        <ele>1198</ele>
        <time>2019-12-19T00:49:23Z</time>
      </trkpt>
      <trkpt lat="45.36135" lon="2.87588">
        <ele>1197</ele>
        <time>2019-12-19T00:49:26Z</time>
      </trkpt>
      <trkpt lat="45.35925" lon="2.87673">
        <ele>1194</ele>
        <time>2019-12-19T00:50:05Z</time>
      </trkpt>
      <trkpt lat="45.3589" lon="2.87701">
        <ele>1195</ele>
        <time>2019-12-19T00:50:12Z</time>
      </trkpt>
      <trkpt lat="45.3587" lon="2.87714">
        <ele>1195</ele>
        <time>2019-12-19T00:50:16Z</time>
      </trkpt>
      <trkpt lat="45.35854" lon="2.8772">
        <ele>1195</ele>
        <time>2019-12-19T00:50:19Z</time>
      </trkpt>
      <trkpt lat="45.35839" lon="2.8772">
        <ele>1194</ele>
        <time>2019-12-19T00:50:21Z</time>
      </trkpt>
      <trkpt lat="45.35826" lon="2.87716">
        <ele>1193</ele>
        <time>2019-12-19T00:50:24Z</time>
      </trkpt>
      <trkpt lat="45.35819" lon="2.8771">
        <ele>1192</ele>
        <time>2019-12-19T00:50:25Z</time>
      </trkpt>
      <trkpt lat="45.35808" lon="2.87686">
        <ele>1189</ele>
        <time>2019-12-19T00:50:29Z</time>
      </trkpt>
      <trkpt lat="45.35795" lon="2.87666">
        <ele>1187</ele>
        <time>2019-12-19T00:50:32Z</time>
      </trkpt>
      <trkpt lat="45.35764" lon="2.8765">
        <ele>1184</ele>
        <time>2019-12-19T00:50:38Z</time>
      </trkpt>
      <trkpt lat="45.35751" lon="2.87637">
        <ele>1182</ele>
        <time>2019-12-19T00:50:41Z</time>
      </trkpt>
      <trkpt lat="45.357" lon="2.87552">
        <ele>1174</ele>
        <time>2019-12-19T00:50:55Z</time>
      </trkpt>
      <trkpt lat="45.3569" lon="2.8754">
        <ele>1173</ele>
        <time>2019-12-19T00:50:57Z</time>
      </trkpt>
      <trkpt lat="45.35669" lon="2.87532">
        <ele>1172</ele>
        <time>2019-12-19T00:51:01Z</time>
      </trkpt>
      <trkpt lat="45.35552" lon="2.87521">
        <ele>1167</ele>
        <time>2019-12-19T00:51:22Z</time>
      </trkpt>
      <trkpt lat="45.35529" lon="2.87529">
        <ele>1166</ele>
        <time>2019-12-19T00:51:26Z</time>
      </trkpt>
      <trkpt lat="45.35484" lon="2.87554">
        <ele>1165</ele>
        <time>2019-12-19T00:51:35Z</time>
      </trkpt>
      <trkpt lat="45.35422" lon="2.87574">
        <ele>1164</ele>
        <time>2019-12-19T00:51:46Z</time>
      </trkpt>
      <trkpt lat="45.35318" lon="2.87622">
        <ele>1161</ele>
        <time>2019-12-19T00:52:05Z</time>
      </trkpt>
      <trkpt lat="45.35305" lon="2.87631">
        <ele>1161</ele>
        <time>2019-12-19T00:52:08Z</time>
      </trkpt>
      <trkpt lat="45.35286" lon="2.87651">
        <ele>1162</ele>
        <time>2019-12-19T00:52:12Z</time>
      </trkpt>
      <trkpt lat="45.35262" lon="2.8768">
        <ele>1162</ele>
        <time>2019-12-19T00:52:18Z</time>
      </trkpt>
      <trkpt lat="45.35257" lon="2.87686">
        <ele>1162</ele>
        <time>2019-12-19T00:52:19Z</time>
      </trkpt>
      <trkpt lat="45.35202" lon="2.87752">
        <ele>1164</ele>
        <time>2019-12-19T00:52:32Z</time>
      </trkpt>
      <trkpt lat="45.35189" lon="2.87767">
        <ele>1164</ele>
        <time>2019-12-19T00:52:35Z</time>
      </trkpt>
      <trkpt lat="45.35169" lon="2.87771">
        <ele>1164</ele>
        <time>2019-12-19T00:52:38Z</time>
      </trkpt>
      <trkpt lat="45.3513" lon="2.87766">
        <ele>1166</ele>
        <time>2019-12-19T00:52:45Z</time>
      </trkpt>
      <trkpt lat="45.34958" lon="2.87725">
        <ele>1183</ele>
        <time>2019-12-19T00:53:16Z</time>
      </trkpt>
      <trkpt lat="45.34935" lon="2.87716">
        <ele>1185</ele>
        <time>2019-12-19T00:53:21Z</time>
      </trkpt>
      <trkpt lat="45.34928" lon="2.87704">
        <ele>1185</ele>
        <time>2019-12-19T00:53:22Z</time>
      </trkpt>
      <trkpt lat="45.34798" lon="2.87416">
        <ele>1197</ele>
        <time>2019-12-19T00:54:05Z</time>
      </trkpt>
      <trkpt lat="45.34787" lon="2.87396">
        <ele>1199</ele>
        <time>2019-12-19T00:54:08Z</time>
      </trkpt>
      <trkpt lat="45.34769" lon="2.8737">
        <ele>1201</ele>
        <time>2019-12-19T00:54:13Z</time>
      </trkpt>
      <trkpt lat="45.34753" lon="2.87351">
        <ele>1203</ele>
        <time>2019-12-19T00:54:17Z</time>
      </trkpt>
      <trkpt lat="45.34693" lon="2.87286">
        <ele>1213</ele>
        <time>2019-12-19T00:54:30Z</time>
      </trkpt>
      <trkpt lat="45.34664" lon="2.87262">
        <ele>1217</ele>
        <time>2019-12-19T00:54:36Z</time>
      </trkpt>
      <trkpt lat="45.3464" lon="2.87251">
        <ele>1219</ele>
        <time>2019-12-19T00:54:41Z</time>
      </trkpt>
      <trkpt lat="45.34598" lon="2.87254">
        <ele>1223</ele>
        <time>2019-12-19T00:54:48Z</time>
      </trkpt>
      <trkpt lat="45.34561" lon="2.87241">
        <ele>1223</ele>
        <time>2019-12-19T00:54:55Z</time>
      </trkpt>
      <trkpt lat="45.34515" lon="2.87213">
        <ele>1223</ele>
        <time>2019-12-19T00:55:04Z</time>
      </trkpt>
      <trkpt lat="45.34441" lon="2.87159">
        <ele>1224</ele>
        <time>2019-12-19T00:55:19Z</time>
      </trkpt>
      <trkpt lat="45.3439" lon="2.87106">
        <ele>1226</ele>
        <time>2019-12-19T00:55:30Z</time>
      </trkpt>
      <trkpt lat="45.34256" lon="2.8712">
        <ele>1218</ele>
        <time>2019-12-19T00:55:54Z</time>
      </trkpt>
      <trkpt lat="45.34192" lon="2.87116">
        <ele>1219</ele>
        <time>2019-12-19T00:56:05Z</time>
      </trkpt>
      <trkpt lat="45.34168" lon="2.87121">
        <ele>1218</ele>
        <time>2019-12-19T00:56:09Z</time>
      </trkpt>
      <trkpt lat="45.34148" lon="2.87134">
        <ele>1216</ele>
        <time>2019-12-19T00:56:13Z</time>
      </trkpt>
      <trkpt lat="45.34132" lon="2.87149">
        <ele>1213</ele>
        <time>2019-12-19T00:56:17Z</time>
      </trkpt>
      <trkpt lat="45.34002" lon="2.87307">
        <ele>1196</ele>
        <time>2019-12-19T00:56:47Z</time>
      </trkpt>
      <trkpt lat="45.33986" lon="2.87322">
        <ele>1194</ele>
        <time>2019-12-19T00:56:51Z</time>
      </trkpt>
      <trkpt lat="45.33957" lon="2.87336">
        <ele>1192</ele>
        <time>2019-12-19T00:56:56Z</time>
      </trkpt>
      <trkpt lat="45.33895" lon="2.87358">
        <ele>1187</ele>
        <time>2019-12-19T00:57:07Z</time>
      </trkpt>
      <trkpt lat="45.3384" lon="2.87365">
        <ele>1182</ele>
        <time>2019-12-19T00:57:17Z</time>
      </trkpt>
      <trkpt lat="45.33774" lon="2.87345">
        <ele>1183</ele>
        <time>2019-12-19T00:57:29Z</time>
      </trkpt>
      <trkpt lat="45.33751" lon="2.87349">
        <ele>1181</ele>
        <time>2019-12-19T00:57:33Z</time>
      </trkpt>
      <trkpt lat="45.33726" lon="2.87362">
        <ele>1179</ele>
        <time>2019-12-19T00:57:38Z</time>
      </trkpt>
      <trkpt lat="45.33708" lon="2.87378">
        <ele>1176</ele>
        <time>2019-12-19T00:57:42Z</time>
      </trkpt>
      <trkpt lat="45.33693" lon="2.874">
        <ele>1173</ele>
        <time>2019-12-19T00:57:46Z</time>
      </trkpt>
      <trkpt lat="45.33687" lon="2.87421">
        <ele>1171</ele>
        <time>2019-12-19T00:57:49Z</time>
      </trkpt>
      <trkpt lat="45.33683" lon="2.87448">
        <ele>1168</ele>
        <time>2019-12-19T00:57:52Z</time>
      </trkpt>
      <trkpt lat="45.33681" lon="2.87479">
        <ele>1166</ele>
        <time>2019-12-19T00:57:56Z</time>
      </trkpt>
      <trkpt lat="45.33685" lon="2.87578">
        <ele>1156</ele>
        <time>2019-12-19T00:58:08Z</time>
      </trkpt>
      <trkpt lat="45.33703" lon="2.87696">
        <ele>1148</ele>
        <time>2019-12-19T00:58:23Z</time>
      </trkpt>
      <trkpt lat="45.33704" lon="2.87712">
        <ele>1147</ele>
        <time>2019-12-19T00:58:25Z</time>
      </trkpt>
      <trkpt lat="45.33702" lon="2.87731">
        <ele>1146</ele>
        <time>2019-12-19T00:58:28Z</time>
      </trkpt>
      <trkpt lat="45.33652" lon="2.87887">
        <ele>1136</ele>
        <time>2019-12-19T00:58:49Z</time>
      </trkpt>
      <trkpt lat="45.33642" lon="2.87905">
        <ele>1134</ele>
        <time>2019-12-19T00:58:52Z</time>
      </trkpt>
      <trkpt lat="45.33633" lon="2.87917">
        <ele>1133</ele>
        <time>2019-12-19T00:58:54Z</time>
      </trkpt>
      <trkpt lat="45.33621" lon="2.87925">
        <ele>1132</ele>
        <time>2019-12-19T00:58:57Z</time>
      </trkpt>
      <trkpt lat="45.336" lon="2.87934">
        <ele>1131</ele>
        <time>2019-12-19T00:59:01Z</time>
      </trkpt>
      <trkpt lat="45.33548" lon="2.87938">
        <ele>1128</ele>
        <time>2019-12-19T00:59:10Z</time>
      </trkpt>
      <trkpt lat="45.33491" lon="2.87959">
        <ele>1120</ele>
        <time>2019-12-19T00:59:20Z</time>
      </trkpt>
      <trkpt lat="45.33466" lon="2.87959">
        <ele>1117</ele>
        <time>2019-12-19T00:59:25Z</time>
      </trkpt>
      <trkpt lat="45.33447" lon="2.8794">
        <ele>1116</ele>
        <time>2019-12-19T00:59:29Z</time>
      </trkpt>
      <trkpt lat="45.33428" lon="2.87911">
        <ele>1117</ele>
        <time>2019-12-19T00:59:34Z</time>
      </trkpt>
      <trkpt lat="45.33415" lon="2.87899">
        <ele>1117</ele>
        <time>2019-12-19T00:59:37Z</time>
      </trkpt>
      <trkpt lat="45.33397" lon="2.87894">
        <ele>1115</ele>
        <time>2019-12-19T00:59:40Z</time>
      </trkpt>
      <trkpt lat="45.33369" lon="2.87896">
        <ele>1111</ele>
        <time>2019-12-19T00:59:45Z</time>
      </trkpt>
      <trkpt lat="45.33355" lon="2.87894">
        <ele>1109</ele>
        <time>2019-12-19T00:59:47Z</time>
      </trkpt>
      <trkpt lat="45.33316" lon="2.87871">
        <ele>1108</ele>
        <time>2019-12-19T00:59:55Z</time>
      </trkpt>
      <trkpt lat="45.333" lon="2.8787">
        <ele>1107</ele>
        <time>2019-12-19T00:59:58Z</time>
      </trkpt>
      <trkpt lat="45.33246" lon="2.87898">
        <ele>1095</ele>
        <time>2019-12-19T01:00:08Z</time>
      </trkpt>
      <trkpt lat="45.33227" lon="2.87906">
        <ele>1091</ele>
        <time>2019-12-19T01:00:11Z</time>
      </trkpt>
      <trkpt lat="45.33202" lon="2.87908">
        <ele>1088</ele>
        <time>2019-12-19T01:00:16Z</time>
      </trkpt>
      <trkpt lat="45.33117" lon="2.87892">
        <ele>1083</ele>
        <time>2019-12-19T01:00:31Z</time>
      </trkpt>
      <trkpt lat="45.33097" lon="2.87883">
        <ele>1082</ele>
        <time>2019-12-19T01:00:35Z</time>
      </trkpt>
      <trkpt lat="45.33051" lon="2.87835">
        <ele>1078</ele>
        <time>2019-12-19T01:00:45Z</time>
      </trkpt>
      <trkpt lat="45.33033" lon="2.87809">
        <ele>1074</ele>
        <time>2019-12-19T01:00:50Z</time>
      </trkpt>
      <trkpt lat="45.3302" lon="2.87787">
        <ele>1072</ele>
        <time>2019-12-19T01:00:53Z</time>
      </trkpt>
      <trkpt lat="45.33002" lon="2.87743">
        <ele>1071</ele>
        <time>2019-12-19T01:01:00Z</time>
      </trkpt>
      <trkpt lat="45.32988" lon="2.87697">
        <ele>1070</ele>
        <time>2019-12-19T01:01:06Z</time>
      </trkpt>
      <trkpt lat="45.3296" lon="2.87631">
        <ele>1066</ele>
        <time>2019-12-19T01:01:16Z</time>
      </trkpt>
      <trkpt lat="45.32906" lon="2.87486">
        <ele>1064</ele>
        <time>2019-12-19T01:01:36Z</time>
      </trkpt>
      <trkpt lat="45.32851" lon="2.87375">
        <ele>1061</ele>
        <time>2019-12-19T01:01:53Z</time>
      </trkpt>
      <trkpt lat="45.32817" lon="2.87334">
        <ele>1055</ele>
        <time>2019-12-19T01:02:01Z</time>
      </trkpt>
      <trkpt lat="45.3279" lon="2.87284">
        <ele>1053</ele>
        <time>2019-12-19T01:02:09Z</time>
      </trkpt>
      <trkpt lat="45.32736" lon="2.87203">
        <ele>1041</ele>
        <time>2019-12-19T01:02:23Z</time>
      </trkpt>
      <trkpt lat="45.32697" lon="2.87109">
        <ele>1033</ele>
        <time>2019-12-19T01:02:36Z</time>
      </trkpt>
      <trkpt lat="45.32673" lon="2.87057">
        <ele>1027</ele>
        <time>2019-12-19T01:02:44Z</time>
      </trkpt>
      <trkpt lat="45.32643" lon="2.86955">
        <ele>1025</ele>
        <time>2019-12-19T01:02:58Z</time>
      </trkpt>
      <trkpt lat="45.32622" lon="2.86858">
        <ele>1020</ele>
        <time>2019-12-19T01:03:11Z</time>
      </trkpt>
      <trkpt lat="45.32597" lon="2.86642">
        <ele>1012</ele>
        <time>2019-12-19T01:03:38Z</time>
      </trkpt>
      <trkpt lat="45.32568" lon="2.8649">
        <ele>1006</ele>
        <time>2019-12-19T01:03:58Z</time>
      </trkpt>
      <trkpt lat="45.32555" lon="2.8644">
        <ele>1003</ele>
        <time>2019-12-19T01:04:05Z</time>
      </trkpt>
      <trkpt lat="45.32541" lon="2.86387">
        <ele>1000</ele>
        <time>2019-12-19T01:04:12Z</time>
      </trkpt>
      <trkpt lat="45.32534" lon="2.86376">
        <ele>999</ele>
        <time>2019-12-19T01:04:13Z</time>
      </trkpt>
      <trkpt lat="45.32513" lon="2.8636">
        <ele>997</ele>
        <time>2019-12-19T01:04:18Z</time>
      </trkpt>
      <trkpt lat="45.32502" lon="2.86345">
        <ele>995</ele>
        <time>2019-12-19T01:04:20Z</time>
      </trkpt>
      <trkpt lat="45.32494" lon="2.86325">
        <ele>994</ele>
        <time>2019-12-19T01:04:23Z</time>
      </trkpt>
      <trkpt lat="45.32484" lon="2.86289">
        <ele>993</ele>
        <time>2019-12-19T01:04:28Z</time>
      </trkpt>
      <trkpt lat="45.32475" lon="2.86266">
        <ele>992</ele>
        <time>2019-12-19T01:04:31Z</time>
      </trkpt>
      <trkpt lat="45.32454" lon="2.86231">
        <ele>992</ele>
        <time>2019-12-19T01:04:37Z</time>
      </trkpt>
      <trkpt lat="45.32344" lon="2.86113">
        <ele>989</ele>
        <time>2019-12-19T01:05:02Z</time>
      </trkpt>
      <trkpt lat="45.32336" lon="2.86105">
        <ele>989</ele>
        <time>2019-12-19T01:05:03Z</time>
      </trkpt>
      <trkpt lat="45.32328" lon="2.86101">
        <ele>988</ele>
        <time>2019-12-19T01:05:05Z</time>
      </trkpt>
      <trkpt lat="45.32318" lon="2.86099">
        <ele>988</ele>
        <time>2019-12-19T01:05:07Z</time>
      </trkpt>
      <trkpt lat="45.32307" lon="2.86101">
        <ele>988</ele>
        <time>2019-12-19T01:05:09Z</time>
      </trkpt>
      <trkpt lat="45.32294" lon="2.86106">
        <ele>989</ele>
        <time>2019-12-19T01:05:11Z</time>
      </trkpt>
      <trkpt lat="45.32221" lon="2.86156">
        <ele>1002</ele>
        <time>2019-12-19T01:05:26Z</time>
      </trkpt>
      <trkpt lat="45.32216" lon="2.86158">
        <ele>1002</ele>
        <time>2019-12-19T01:05:26Z</time>
      </trkpt>
      <trkpt lat="45.32197" lon="2.86155">
        <ele>1004</ele>
        <time>2019-12-19T01:05:30Z</time>
      </trkpt>
      <trkpt lat="45.32171" lon="2.8614">
        <ele>1004</ele>
        <time>2019-12-19T01:05:35Z</time>
      </trkpt>
      <trkpt lat="45.3215" lon="2.86133">
        <ele>1006</ele>
        <time>2019-12-19T01:05:39Z</time>
      </trkpt>
      <trkpt lat="45.32111" lon="2.86129">
        <ele>1011</ele>
        <time>2019-12-19T01:05:46Z</time>
      </trkpt>
      <trkpt lat="45.3209" lon="2.8612">
        <ele>1013</ele>
        <time>2019-12-19T01:05:50Z</time>
      </trkpt>
      <trkpt lat="45.32029" lon="2.86046">
        <ele>1011</ele>
        <time>2019-12-19T01:06:04Z</time>
      </trkpt>
      <trkpt lat="45.32008" lon="2.86029">
        <ele>1012</ele>
        <time>2019-12-19T01:06:08Z</time>
      </trkpt>
      <trkpt lat="45.31961" lon="2.86001">
        <ele>1012</ele>
        <time>2019-12-19T01:06:17Z</time>
      </trkpt>
      <trkpt lat="45.31942" lon="2.85993">
        <ele>1012</ele>
        <time>2019-12-19T01:06:21Z</time>
      </trkpt>
      <trkpt lat="45.31905" lon="2.85992">
        <ele>1016</ele>
        <time>2019-12-19T01:06:27Z</time>
      </trkpt>
      <trkpt lat="45.31893" lon="2.85984">
        <ele>1016</ele>
        <time>2019-12-19T01:06:30Z</time>
      </trkpt>
      <trkpt lat="45.31866" lon="2.85954">
        <ele>1014</ele>
        <time>2019-12-19T01:06:36Z</time>
      </trkpt>
      <trkpt lat="45.31845" lon="2.8594">
        <ele>1014</ele>
        <time>2019-12-19T01:06:40Z</time>
      </trkpt>
      <trkpt lat="45.3177" lon="2.85909">
        <ele>1013</ele>
        <time>2019-12-19T01:06:54Z</time>
      </trkpt>
      <trkpt lat="45.31722" lon="2.85903">
        <ele>1019</ele>
        <time>2019-12-19T01:07:02Z</time>
      </trkpt>
      <trkpt lat="45.31708" lon="2.85897">
        <ele>1020</ele>
        <time>2019-12-19T01:07:05Z</time>
      </trkpt>
      <trkpt lat="45.31694" lon="2.85883">
        <ele>1021</ele>
        <time>2019-12-19T01:07:08Z</time>
      </trkpt>
      <trkpt lat="45.31679" lon="2.85861">
        <ele>1022</ele>
        <time>2019-12-19T01:07:12Z</time>
      </trkpt>
      <trkpt lat="45.31649" lon="2.85791">
        <ele>1018</ele>
        <time>2019-12-19T01:07:22Z</time>
      </trkpt>
      <trkpt lat="45.31635" lon="2.85777">
        <ele>1018</ele>
        <time>2019-12-19T01:07:25Z</time>
      </trkpt>
      <trkpt lat="45.31625" lon="2.85775">
        <ele>1019</ele>
        <time>2019-12-19T01:07:27Z</time>
      </trkpt>
      <trkpt lat="45.31617" lon="2.85779">
        <ele>1020</ele>
        <time>2019-12-19T01:07:28Z</time>
      </trkpt>
      <trkpt lat="45.31575" lon="2.85817">
        <ele>1029</ele>
        <time>2019-12-19T01:07:37Z</time>
      </trkpt>
      <trkpt lat="45.31567" lon="2.8582">
        <ele>1030</ele>
        <time>2019-12-19T01:07:39Z</time>
      </trkpt>
      <trkpt lat="45.31554" lon="2.85814">
        <ele>1030</ele>
        <time>2019-12-19T01:07:41Z</time>
      </trkpt>
      <trkpt lat="45.31537" lon="2.85771">
        <ele>1027</ele>
        <time>2019-12-19T01:07:47Z</time>
      </trkpt>
      <trkpt lat="45.31509" lon="2.85733">
        <ele>1027</ele>
        <time>2019-12-19T01:07:54Z</time>
      </trkpt>
      <trkpt lat="45.31505" lon="2.85723">
        <ele>1027</ele>
        <time>2019-12-19T01:07:56Z</time>
      </trkpt>
      <trkpt lat="45.31502" lon="2.85694">
        <ele>1027</ele>
        <time>2019-12-19T01:07:59Z</time>
      </trkpt>
      <trkpt lat="45.31515" lon="2.85626">
        <ele>1027</ele>
        <time>2019-12-19T01:08:08Z</time>
      </trkpt>
      <trkpt lat="45.31514" lon="2.85571">
        <ele>1030</ele>
        <time>2019-12-19T01:08:15Z</time>
      </trkpt>
      <trkpt lat="45.31519" lon="2.85486">
        <ele>1031</ele>
        <time>2019-12-19T01:08:26Z</time>
      </trkpt>
      <trkpt lat="45.31528" lon="2.85433">
        <ele>1028</ele>
        <time>2019-12-19T01:08:33Z</time>
      </trkpt>
      <trkpt lat="45.31526" lon="2.85416">
        <ele>1028</ele>
        <time>2019-12-19T01:08:35Z</time>
      </trkpt>
      <trkpt lat="45.3152" lon="2.85404">
        <ele>1030</ele>
        <time>2019-12-19T01:08:37Z</time>
      </trkpt>
      <trkpt lat="45.31507" lon="2.85388">
        <ele>1033</ele>
        <time>2019-12-19T01:08:40Z</time>
      </trkpt>
      <trkpt lat="45.31484" lon="2.85371">
        <ele>1034</ele>
        <time>2019-12-19T01:08:44Z</time>
      </trkpt>
      <trkpt lat="45.31444" lon="2.85361">
        <ele>1035</ele>
        <time>2019-12-19T01:08:51Z</time>
      </trkpt>
      <trkpt lat="45.31357" lon="2.85297">
        <ele>1035</ele>
        <time>2019-12-19T01:09:09Z</time>
      </trkpt>
      <trkpt lat="45.31341" lon="2.85277">
        <ele>1035</ele>
        <time>2019-12-19T01:09:13Z</time>
      </trkpt>
      <trkpt lat="45.31333" lon="2.85259">
        <ele>1035</ele>
        <time>2019-12-19T01:09:15Z</time>
      </trkpt>
      <trkpt lat="45.3133" lon="2.8523">
        <ele>1037</ele>
        <time>2019-12-19T01:09:19Z</time>
      </trkpt>
      <trkpt lat="45.31336" lon="2.85131">
        <ele>1040</ele>
        <time>2019-12-19T01:09:31Z</time>
      </trkpt>
      <trkpt lat="45.31332" lon="2.85075">
        <ele>1042</ele>
        <time>2019-12-19T01:09:38Z</time>
      </trkpt>
      <trkpt lat="45.31315" lon="2.85011">
        <ele>1047</ele>
        <time>2019-12-19T01:09:47Z</time>
      </trkpt>
      <trkpt lat="45.31313" lon="2.8498">
        <ele>1048</ele>
        <time>2019-12-19T01:09:51Z</time>
      </trkpt>
      <trkpt lat="45.31329" lon="2.84896">
        <ele>1049</ele>
        <time>2019-12-19T01:10:02Z</time>
      </trkpt>
      <trkpt lat="45.31354" lon="2.84837">
        <ele>1046</ele>
        <time>2019-12-19T01:10:10Z</time>
      </trkpt>
      <trkpt lat="45.31371" lon="2.84741">
        <ele>1049</ele>
        <time>2019-12-19T01:10:23Z</time>
      </trkpt>
      <trkpt lat="45.31386" lon="2.8469">
        <ele>1048</ele>
        <time>2019-12-19T01:10:30Z</time>
      </trkpt>
      <trkpt lat="45.31385" lon="2.84649">
        <ele>1048</ele>
        <time>2019-12-19T01:10:35Z</time>
      </trkpt>
      <trkpt lat="45.3137" lon="2.84617">
        <ele>1048</ele>
        <time>2019-12-19T01:10:40Z</time>
      </trkpt>
      <trkpt lat="45.31352" lon="2.84606">
        <ele>1051</ele>
        <time>2019-12-19T01:10:43Z</time>
      </trkpt>
      <trkpt lat="45.31326" lon="2.84599">
        <ele>1055</ele>
        <time>2019-12-19T01:10:48Z</time>
      </trkpt>
      <trkpt lat="45.31315" lon="2.84576">
        <ele>1055</ele>
        <time>2019-12-19T01:10:51Z</time>
      </trkpt>
      <trkpt lat="45.31342" lon="2.84489">
        <ele>1055</ele>
        <time>2019-12-19T01:11:03Z</time>
      </trkpt>
      <trkpt lat="45.31344" lon="2.84455">
        <ele>1057</ele>
        <time>2019-12-19T01:11:08Z</time>
      </trkpt>
      <trkpt lat="45.3133" lon="2.84275">
        <ele>1062</ele>
        <time>2019-12-19T01:11:30Z</time>
      </trkpt>
      <trkpt lat="45.31307" lon="2.84044">
        <ele>1066</ele>
        <time>2019-12-19T01:11:59Z</time>
      </trkpt>
      <trkpt lat="45.31296" lon="2.83978">
        <ele>1065</ele>
        <time>2019-12-19T01:12:08Z</time>
      </trkpt>
      <trkpt lat="45.31259" lon="2.83819">
        <ele>1064</ele>
        <time>2019-12-19T01:12:29Z</time>
      </trkpt>
      <trkpt lat="45.30886" lon="2.82966">
        <ele>1055</ele>
        <time>2019-12-19T01:14:35Z</time>
      </trkpt>
      <trkpt lat="45.30866" lon="2.82922">
        <ele>1057</ele>
        <time>2019-12-19T01:14:41Z</time>
      </trkpt>
      <trkpt lat="45.3083" lon="2.82834">
        <ele>1059</ele>
        <time>2019-12-19T01:14:54Z</time>
      </trkpt>
      <trkpt lat="45.30805" lon="2.82787">
        <ele>1061</ele>
        <time>2019-12-19T01:15:01Z</time>
      </trkpt>
      <trkpt lat="45.30779" lon="2.82756">
        <ele>1063</ele>
        <time>2019-12-19T01:15:07Z</time>
      </trkpt>
      <trkpt lat="45.30776" lon="2.82744">
        <ele>1063</ele>
        <time>2019-12-19T01:15:09Z</time>
      </trkpt>
      <trkpt lat="45.30719" lon="2.82718">
        <ele>1065</ele>
        <time>2019-12-19T01:15:19Z</time>
      </trkpt>
      <trkpt lat="45.30691" lon="2.82716">
        <ele>1066</ele>
        <time>2019-12-19T01:15:24Z</time>
      </trkpt>
      <trkpt lat="45.30661" lon="2.82721">
        <ele>1066</ele>
        <time>2019-12-19T01:15:30Z</time>
      </trkpt>
      <trkpt lat="45.3062" lon="2.82736">
        <ele>1066</ele>
        <time>2019-12-19T01:15:37Z</time>
      </trkpt>
      <trkpt lat="45.30561" lon="2.82802">
        <ele>1068</ele>
        <time>2019-12-19T01:15:51Z</time>
      </trkpt>
      <trkpt lat="45.30497" lon="2.82825">
        <ele>1071</ele>
        <time>2019-12-19T01:16:02Z</time>
      </trkpt>
      <trkpt lat="45.30457" lon="2.82835">
        <ele>1072</ele>
        <time>2019-12-19T01:16:10Z</time>
      </trkpt>
      <trkpt lat="45.3044" lon="2.82834">
        <ele>1071</ele>
        <time>2019-12-19T01:16:13Z</time>
      </trkpt>
      <trkpt lat="45.30403" lon="2.82818">
        <ele>1069</ele>
        <time>2019-12-19T01:16:20Z</time>
      </trkpt>
      <trkpt lat="45.30296" lon="2.82755">
        <ele>1060</ele>
        <time>2019-12-19T01:16:40Z</time>
      </trkpt>
      <trkpt lat="45.30283" lon="2.82756">
        <ele>1059</ele>
        <time>2019-12-19T01:16:43Z</time>
      </trkpt>
      <trkpt lat="45.30268" lon="2.82762">
        <ele>1058</ele>
        <time>2019-12-19T01:16:45Z</time>
      </trkpt>
      <trkpt lat="45.30256" lon="2.82776">
        <ele>1058</ele>
        <time>2019-12-19T01:16:48Z</time>
      </trkpt>
      <trkpt lat="45.30248" lon="2.82792">
        <ele>1058</ele>
        <time>2019-12-19T01:16:51Z</time>
      </trkpt>
      <trkpt lat="45.30241" lon="2.82825">
        <ele>1058</ele>
        <time>2019-12-19T01:16:55Z</time>
      </trkpt>
      <trkpt lat="45.30219" lon="2.82993">
        <ele>1055</ele>
        <time>2019-12-19T01:17:16Z</time>
      </trkpt>
      <trkpt lat="45.30202" lon="2.8305">
        <ele>1054</ele>
        <time>2019-12-19T01:17:24Z</time>
      </trkpt>
      <trkpt lat="45.30119" lon="2.83182">
        <ele>1058</ele>
        <time>2019-12-19T01:17:46Z</time>
      </trkpt>
      <trkpt lat="45.30102" lon="2.83189">
        <ele>1059</ele>
        <time>2019-12-19T01:17:49Z</time>
      </trkpt>
      <trkpt lat="45.30081" lon="2.83182">
        <ele>1059</ele>
        <time>2019-12-19T01:17:53Z</time>
      </trkpt>
      <trkpt lat="45.30064" lon="2.83095">
        <ele>1061</ele>
        <time>2019-12-19T01:18:04Z</time>
      </trkpt>
      <trkpt lat="45.30069" lon="2.83054">
        <ele>1059</ele>
        <time>2019-12-19T01:18:10Z</time>
      </trkpt>
      <trkpt lat="45.30078" lon="2.83012">
        <ele>1058</ele>
        <time>2019-12-19T01:18:15Z</time>
      </trkpt>
      <trkpt lat="45.30085" lon="2.82962">
        <ele>1056</ele>
        <time>2019-12-19T01:18:21Z</time>
      </trkpt>
      <trkpt lat="45.30081" lon="2.82933">
        <ele>1057</ele>
        <time>2019-12-19T01:18:25Z</time>
      </trkpt>
      <trkpt lat="45.29994" lon="2.82715">
        <ele>1056</ele>
        <time>2019-12-19T01:18:57Z</time>
      </trkpt>
      <trkpt lat="45.29994" lon="2.82695">
        <ele>1055</ele>
        <time>2019-12-19T01:18:59Z</time>
      </trkpt>
      <trkpt lat="45.30007" lon="2.82633">
        <ele>1051</ele>
        <time>2019-12-19T01:19:07Z</time>
      </trkpt>
      <trkpt lat="45.30007" lon="2.82609">
        <ele>1049</ele>
        <time>2019-12-19T01:19:10Z</time>
      </trkpt>
      <trkpt lat="45.29855" lon="2.82016">
        <ele>1050</ele>
        <time>2019-12-19T01:20:29Z</time>
      </trkpt>
      <trkpt lat="45.29779" lon="2.81826">
        <ele>1060</ele>
        <time>2019-12-19T01:20:57Z</time>
      </trkpt>
      <trkpt lat="45.2977" lon="2.81788">
        <ele>1058</ele>
        <time>2019-12-19T01:21:02Z</time>
      </trkpt>
      <trkpt lat="45.29773" lon="2.81728">
        <ele>1052</ele>
        <time>2019-12-19T01:21:09Z</time>
      </trkpt>
      <trkpt lat="45.29773" lon="2.81693">
        <ele>1050</ele>
        <time>2019-12-19T01:21:13Z</time>
      </trkpt>
      <trkpt lat="45.29758" lon="2.81595">
        <ele>1057</ele>
        <time>2019-12-19T01:21:26Z</time>
      </trkpt>
      <trkpt lat="45.29758" lon="2.81527">
        <ele>1058</ele>
        <time>2019-12-19T01:21:34Z</time>
      </trkpt>
      <trkpt lat="45.29764" lon="2.81492">
        <ele>1057</ele>
        <time>2019-12-19T01:21:39Z</time>
      </trkpt>
      <trkpt lat="45.29788" lon="2.81431">
        <ele>1051</ele>
        <time>2019-12-19T01:21:48Z</time>
      </trkpt>
      <trkpt lat="45.29788" lon="2.8141">
        <ele>1052</ele>
        <time>2019-12-19T01:21:50Z</time>
      </trkpt>
      <trkpt lat="45.29799" lon="2.81308">
        <ele>1051</ele>
        <time>2019-12-19T01:22:03Z</time>
      </trkpt>
      <trkpt lat="45.29806" lon="2.81206">
        <ele>1046</ele>
        <time>2019-12-19T01:22:16Z</time>
      </trkpt>
      <trkpt lat="45.29806" lon="2.81183">
        <ele>1045</ele>
        <time>2019-12-19T01:22:19Z</time>
      </trkpt>
      <trkpt lat="45.29796" lon="2.81144">
        <ele>1048</ele>
        <time>2019-12-19T01:22:24Z</time>
      </trkpt>
      <trkpt lat="45.29796" lon="2.81107">
        <ele>1046</ele>
        <time>2019-12-19T01:22:29Z</time>
      </trkpt>
      <trkpt lat="45.29802" lon="2.81066">
        <ele>1042</ele>
        <time>2019-12-19T01:22:34Z</time>
      </trkpt>
      <trkpt lat="45.29802" lon="2.81006">
        <ele>1039</ele>
        <time>2019-12-19T01:22:42Z</time>
      </trkpt>
      <trkpt lat="45.29797" lon="2.80973">
        <ele>1040</ele>
        <time>2019-12-19T01:22:46Z</time>
      </trkpt>
      <trkpt lat="45.29781" lon="2.80928">
        <ele>1041</ele>
        <time>2019-12-19T01:22:52Z</time>
      </trkpt>
      <trkpt lat="45.29756" lon="2.80892">
        <ele>1043</ele>
        <time>2019-12-19T01:22:58Z</time>
      </trkpt>
      <trkpt lat="45.29731" lon="2.80873">
        <ele>1043</ele>
        <time>2019-12-19T01:23:03Z</time>
      </trkpt>
      <trkpt lat="45.29703" lon="2.80864">
        <ele>1044</ele>
        <time>2019-12-19T01:23:09Z</time>
      </trkpt>
      <trkpt lat="45.29668" lon="2.80876">
        <ele>1047</ele>
        <time>2019-12-19T01:23:15Z</time>
      </trkpt>
      <trkpt lat="45.29581" lon="2.80897">
        <ele>1049</ele>
        <time>2019-12-19T01:23:31Z</time>
      </trkpt>
      <trkpt lat="45.2955" lon="2.80885">
        <ele>1048</ele>
        <time>2019-12-19T01:23:36Z</time>
      </trkpt>
      <trkpt lat="45.29511" lon="2.80861">
        <ele>1046</ele>
        <time>2019-12-19T01:23:44Z</time>
      </trkpt>
      <trkpt lat="45.29486" lon="2.80825">
        <ele>1044</ele>
        <time>2019-12-19T01:23:50Z</time>
      </trkpt>
      <trkpt lat="45.29475" lon="2.80771">
        <ele>1040</ele>
        <time>2019-12-19T01:23:57Z</time>
      </trkpt>
      <trkpt lat="45.29474" lon="2.80715">
        <ele>1036</ele>
        <time>2019-12-19T01:24:04Z</time>
      </trkpt>
      <trkpt lat="45.29466" lon="2.80626">
        <ele>1030</ele>
        <time>2019-12-19T01:24:16Z</time>
      </trkpt>
      <trkpt lat="45.29451" lon="2.80597">
        <ele>1029</ele>
        <time>2019-12-19T01:24:20Z</time>
      </trkpt>
      <trkpt lat="45.29396" lon="2.80516">
        <ele>1024</ele>
        <time>2019-12-19T01:24:34Z</time>
      </trkpt>
      <trkpt lat="45.29288" lon="2.80403">
        <ele>1022</ele>
        <time>2019-12-19T01:24:58Z</time>
      </trkpt>
      <trkpt lat="45.29256" lon="2.80376">
        <ele>1022</ele>
        <time>2019-12-19T01:25:05Z</time>
      </trkpt>
      <trkpt lat="45.2924" lon="2.80343">
        <ele>1021</ele>
        <time>2019-12-19T01:25:10Z</time>
      </trkpt>
      <trkpt lat="45.29223" lon="2.80324">
        <ele>1021</ele>
        <time>2019-12-19T01:25:14Z</time>
      </trkpt>
      <trkpt lat="45.29186" lon="2.80308">
        <ele>1021</ele>
        <time>2019-12-19T01:25:20Z</time>
      </trkpt>
      <trkpt lat="45.29127" lon="2.80293">
        <ele>1022</ele>
        <time>2019-12-19T01:25:31Z</time>
      </trkpt>
      <trkpt lat="45.29054" lon="2.8024">
        <ele>1022</ele>
        <time>2019-12-19T01:25:46Z</time>
      </trkpt>
      <trkpt lat="45.29023" lon="2.80209">
        <ele>1023</ele>
        <time>2019-12-19T01:25:52Z</time>
      </trkpt>
      <trkpt lat="45.28931" lon="2.80046">
        <ele>1028</ele>
        <time>2019-12-19T01:26:19Z</time>
      </trkpt>
      <trkpt lat="45.28894" lon="2.80006">
        <ele>1031</ele>
        <time>2019-12-19T01:26:27Z</time>
      </trkpt>
      <trkpt lat="45.28846" lon="2.79966">
        <ele>1035</ele>
        <time>2019-12-19T01:26:37Z</time>
      </trkpt>
      <trkpt lat="45.28769" lon="2.79909">
        <ele>1043</ele>
        <time>2019-12-19T01:26:52Z</time>
      </trkpt>
      <trkpt lat="45.28723" lon="2.79866">
        <ele>1043</ele>
        <time>2019-12-19T01:27:02Z</time>
      </trkpt>
      <trkpt lat="45.28681" lon="2.79801">
        <ele>1044</ele>
        <time>2019-12-19T01:27:13Z</time>
      </trkpt>
      <trkpt lat="45.28549" lon="2.79505">
        <ele>1031</ele>
        <time>2019-12-19T01:27:57Z</time>
      </trkpt>
      <trkpt lat="45.28551" lon="2.79478">
        <ele>1032</ele>
        <time>2019-12-19T01:28:00Z</time>
      </trkpt>
      <trkpt lat="45.28566" lon="2.79436">
        <ele>1037</ele>
        <time>2019-12-19T01:28:06Z</time>
      </trkpt>
      <trkpt lat="45.28563" lon="2.79388">
        <ele>1038</ele>
        <time>2019-12-19T01:28:12Z</time>
      </trkpt>
      <trkpt lat="45.28538" lon="2.79352">
        <ele>1031</ele>
        <time>2019-12-19T01:28:19Z</time>
      </trkpt>
      <trkpt lat="45.28499" lon="2.79257">
        <ele>1031</ele>
        <time>2019-12-19T01:28:32Z</time>
      </trkpt>
      <trkpt lat="45.2839" lon="2.79034">
        <ele>1014</ele>
        <time>2019-12-19T01:29:06Z</time>
      </trkpt>
      <trkpt lat="45.28385" lon="2.78972">
        <ele>1011</ele>
        <time>2019-12-19T01:29:14Z</time>
      </trkpt>
      <trkpt lat="45.28421" lon="2.78723">
        <ele>999</ele>
        <time>2019-12-19T01:29:46Z</time>
      </trkpt>
      <trkpt lat="45.28424" lon="2.78676">
        <ele>994</ele>
        <time>2019-12-19T01:29:52Z</time>
      </trkpt>
      <trkpt lat="45.28424" lon="2.7862">
        <ele>982</ele>
        <time>2019-12-19T01:29:59Z</time>
      </trkpt>
      <trkpt lat="45.28432" lon="2.78585">
        <ele>978</ele>
        <time>2019-12-19T01:30:03Z</time>
      </trkpt>
      <trkpt lat="45.28474" lon="2.78507">
        <ele>978</ele>
        <time>2019-12-19T01:30:16Z</time>
      </trkpt>
      <trkpt lat="45.2848" lon="2.78492">
        <ele>977</ele>
        <time>2019-12-19T01:30:18Z</time>
      </trkpt>
      <trkpt lat="45.2849" lon="2.78447">
        <ele>972</ele>
        <time>2019-12-19T01:30:24Z</time>
      </trkpt>
      <trkpt lat="45.28495" lon="2.7843">
        <ele>970</ele>
        <time>2019-12-19T01:30:26Z</time>
      </trkpt>
      <trkpt lat="45.28517" lon="2.78395">
        <ele>969</ele>
        <time>2019-12-19T01:30:32Z</time>
      </trkpt>
      <trkpt lat="45.28549" lon="2.78357">
        <ele>969</ele>
        <time>2019-12-19T01:30:39Z</time>
      </trkpt>
      <trkpt lat="45.2857" lon="2.783">
        <ele>964</ele>
        <time>2019-12-19T01:30:48Z</time>
      </trkpt>
      <trkpt lat="45.28594" lon="2.78255">
        <ele>961</ele>
        <time>2019-12-19T01:30:55Z</time>
      </trkpt>
      <trkpt lat="45.28599" lon="2.78243">
        <ele>960</ele>
        <time>2019-12-19T01:30:56Z</time>
      </trkpt>
      <trkpt lat="45.28602" lon="2.78228">
        <ele>958</ele>
        <time>2019-12-19T01:30:58Z</time>
      </trkpt>
      <trkpt lat="45.28602" lon="2.78215">
        <ele>956</ele>
        <time>2019-12-19T01:31:00Z</time>
      </trkpt>
      <trkpt lat="45.28596" lon="2.78202">
        <ele>952</ele>
        <time>2019-12-19T01:31:02Z</time>
      </trkpt>
      <trkpt lat="45.28586" lon="2.78194">
        <ele>949</ele>
        <time>2019-12-19T01:31:04Z</time>
      </trkpt>
      <trkpt lat="45.28574" lon="2.78188">
        <ele>946</ele>
        <time>2019-12-19T01:31:06Z</time>
      </trkpt>
      <trkpt lat="45.28562" lon="2.78188">
        <ele>944</ele>
        <time>2019-12-19T01:31:08Z</time>
      </trkpt>
      <trkpt lat="45.28548" lon="2.78195">
        <ele>943</ele>
        <time>2019-12-19T01:31:11Z</time>
      </trkpt>
      <trkpt lat="45.28534" lon="2.7821">
        <ele>943</ele>
        <time>2019-12-19T01:31:14Z</time>
      </trkpt>
      <trkpt lat="45.28472" lon="2.78291">
        <ele>943</ele>
        <time>2019-12-19T01:31:29Z</time>
      </trkpt>
      <trkpt lat="45.28381" lon="2.78331">
        <ele>929</ele>
        <time>2019-12-19T01:31:46Z</time>
      </trkpt>
      <trkpt lat="45.28355" lon="2.7836">
        <ele>926</ele>
        <time>2019-12-19T01:31:52Z</time>
      </trkpt>
      <trkpt lat="45.28328" lon="2.78384">
        <ele>922</ele>
        <time>2019-12-19T01:31:58Z</time>
      </trkpt>
      <trkpt lat="45.2832" lon="2.78411">
        <ele>922</ele>
        <time>2019-12-19T01:32:01Z</time>
      </trkpt>
      <trkpt lat="45.2832" lon="2.78438">
        <ele>924</ele>
        <time>2019-12-19T01:32:05Z</time>
      </trkpt>
      <trkpt lat="45.28326" lon="2.78501">
        <ele>928</ele>
        <time>2019-12-19T01:32:13Z</time>
      </trkpt>
      <trkpt lat="45.2832" lon="2.78538">
        <ele>927</ele>
        <time>2019-12-19T01:32:17Z</time>
      </trkpt>
      <trkpt lat="45.28314" lon="2.78561">
        <ele>926</ele>
        <time>2019-12-19T01:32:20Z</time>
      </trkpt>
      <trkpt lat="45.28292" lon="2.78598">
        <ele>923</ele>
        <time>2019-12-19T01:32:26Z</time>
      </trkpt>
      <trkpt lat="45.28247" lon="2.78641">
        <ele>913</ele>
        <time>2019-12-19T01:32:36Z</time>
      </trkpt>
      <trkpt lat="45.2821" lon="2.78668">
        <ele>910</ele>
        <time>2019-12-19T01:32:43Z</time>
      </trkpt>
      <trkpt lat="45.2819" lon="2.78688">
        <ele>908</ele>
        <time>2019-12-19T01:32:48Z</time>
      </trkpt>
      <trkpt lat="45.28147" lon="2.78779">
        <ele>907</ele>
        <time>2019-12-19T01:33:02Z</time>
      </trkpt>
      <trkpt lat="45.28133" lon="2.78795">
        <ele>907</ele>
        <time>2019-12-19T01:33:05Z</time>
      </trkpt>
      <trkpt lat="45.28126" lon="2.78798">
        <ele>906</ele>
        <time>2019-12-19T01:33:06Z</time>
      </trkpt>
      <trkpt lat="45.28118" lon="2.78797">
        <ele>905</ele>
        <time>2019-12-19T01:33:07Z</time>
      </trkpt>
      <trkpt lat="45.28111" lon="2.78805">
        <ele>904</ele>
        <time>2019-12-19T01:33:09Z</time>
      </trkpt>
      <trkpt lat="45.28101" lon="2.78809">
        <ele>903</ele>
        <time>2019-12-19T01:33:11Z</time>
      </trkpt>
      <trkpt lat="45.28093" lon="2.78809">
        <ele>902</ele>
        <time>2019-12-19T01:33:12Z</time>
      </trkpt>
      <trkpt lat="45.28071" lon="2.78811">
        <ele>901</ele>
        <time>2019-12-19T01:33:16Z</time>
      </trkpt>
      <trkpt lat="45.27939" lon="2.78819">
        <ele>902</ele>
        <time>2019-12-19T01:33:40Z</time>
      </trkpt>
      <trkpt lat="45.27885" lon="2.78757">
        <ele>900</ele>
        <time>2019-12-19T01:33:52Z</time>
      </trkpt>
      <trkpt lat="45.27866" lon="2.78738">
        <ele>899</ele>
        <time>2019-12-19T01:33:56Z</time>
      </trkpt>
      <trkpt lat="45.27826" lon="2.78691">
        <ele>901</ele>
        <time>2019-12-19T01:34:05Z</time>
      </trkpt>
      <trkpt lat="45.27823" lon="2.7868">
        <ele>901</ele>
        <time>2019-12-19T01:34:07Z</time>
      </trkpt>
      <trkpt lat="45.27798" lon="2.78689">
        <ele>903</ele>
        <time>2019-12-19T01:34:12Z</time>
      </trkpt>
      <trkpt lat="45.27756" lon="2.78711">
        <ele>904</ele>
        <time>2019-12-19T01:34:20Z</time>
      </trkpt>
      <trkpt lat="45.27726" lon="2.78717">
        <ele>906</ele>
        <time>2019-12-19T01:34:25Z</time>
      </trkpt>
      <trkpt lat="45.27694" lon="2.78709">
        <ele>910</ele>
        <time>2019-12-19T01:34:31Z</time>
      </trkpt>
      <trkpt lat="45.27675" lon="2.78714">
        <ele>911</ele>
        <time>2019-12-19T01:34:34Z</time>
      </trkpt>
      <trkpt lat="45.27576" lon="2.78779">
        <ele>916</ele>
        <time>2019-12-19T01:34:54Z</time>
      </trkpt>
      <trkpt lat="45.27529" lon="2.78815">
        <ele>918</ele>
        <time>2019-12-19T01:35:03Z</time>
      </trkpt>
      <trkpt lat="45.27483" lon="2.78859">
        <ele>920</ele>
        <time>2019-12-19T01:35:13Z</time>
      </trkpt>
      <trkpt lat="45.27463" lon="2.78883">
        <ele>921</ele>
        <time>2019-12-19T01:35:18Z</time>
      </trkpt>
      <trkpt lat="45.27454" lon="2.789">
        <ele>920</ele>
        <time>2019-12-19T01:35:20Z</time>
      </trkpt>
      <trkpt lat="45.27436" lon="2.78947">
        <ele>918</ele>
        <time>2019-12-19T01:35:27Z</time>
      </trkpt>
      <trkpt lat="45.27417" lon="2.78983">
        <ele>917</ele>
        <time>2019-12-19T01:35:33Z</time>
      </trkpt>
      <trkpt lat="45.27389" lon="2.79013">
        <ele>918</ele>
        <time>2019-12-19T01:35:39Z</time>
      </trkpt>
      <trkpt lat="45.27358" lon="2.79031">
        <ele>920</ele>
        <time>2019-12-19T01:35:45Z</time>
      </trkpt>
      <trkpt lat="45.27333" lon="2.79034">
        <ele>923</ele>
        <time>2019-12-19T01:35:49Z</time>
      </trkpt>
      <trkpt lat="45.27292" lon="2.79026">
        <ele>926</ele>
        <time>2019-12-19T01:35:57Z</time>
      </trkpt>
      <trkpt lat="45.27123" lon="2.79042">
        <ele>927</ele>
        <time>2019-12-19T01:36:27Z</time>
      </trkpt>
      <trkpt lat="45.27089" lon="2.79033">
        <ele>929</ele>
        <time>2019-12-19T01:36:33Z</time>
      </trkpt>
      <trkpt lat="45.27064" lon="2.79022">
        <ele>931</ele>
        <time>2019-12-19T01:36:38Z</time>
      </trkpt>
      <trkpt lat="45.27047" lon="2.7903">
        <ele>931</ele>
        <time>2019-12-19T01:36:41Z</time>
      </trkpt>
      <trkpt lat="45.2702" lon="2.7906">
        <ele>930</ele>
        <time>2019-12-19T01:36:47Z</time>
      </trkpt>
      <trkpt lat="45.26956" lon="2.79148">
        <ele>931</ele>
        <time>2019-12-19T01:37:03Z</time>
      </trkpt>
      <trkpt lat="45.26938" lon="2.79163">
        <ele>932</ele>
        <time>2019-12-19T01:37:06Z</time>
      </trkpt>
      <trkpt lat="45.26915" lon="2.79175">
        <ele>934</ele>
        <time>2019-12-19T01:37:11Z</time>
      </trkpt>
      <trkpt lat="45.26888" lon="2.79175">
        <ele>934</ele>
        <time>2019-12-19T01:37:16Z</time>
      </trkpt>
      <trkpt lat="45.26805" lon="2.7917">
        <ele>937</ele>
        <time>2019-12-19T01:37:30Z</time>
      </trkpt>
      <trkpt lat="45.26789" lon="2.79176">
        <ele>937</ele>
        <time>2019-12-19T01:37:33Z</time>
      </trkpt>
      <trkpt lat="45.26752" lon="2.79213">
        <ele>938</ele>
        <time>2019-12-19T01:37:41Z</time>
      </trkpt>
      <trkpt lat="45.26726" lon="2.79226">
        <ele>941</ele>
        <time>2019-12-19T01:37:46Z</time>
      </trkpt>
      <trkpt lat="45.26687" lon="2.79241">
        <ele>946</ele>
        <time>2019-12-19T01:37:53Z</time>
      </trkpt>
      <trkpt lat="45.26658" lon="2.79275">
        <ele>949</ele>
        <time>2019-12-19T01:38:00Z</time>
      </trkpt>
      <trkpt lat="45.26629" lon="2.79314">
        <ele>952</ele>
        <time>2019-12-19T01:38:07Z</time>
      </trkpt>
      <trkpt lat="45.2661" lon="2.79346">
        <ele>953</ele>
        <time>2019-12-19T01:38:12Z</time>
      </trkpt>
      <trkpt lat="45.26591" lon="2.79392">
        <ele>954</ele>
        <time>2019-12-19T01:38:19Z</time>
      </trkpt>
      <trkpt lat="45.26575" lon="2.79465">
        <ele>953</ele>
        <time>2019-12-19T01:38:29Z</time>
      </trkpt>
      <trkpt lat="45.26565" lon="2.79484">
        <ele>953</ele>
        <time>2019-12-19T01:38:32Z</time>
      </trkpt>
      <trkpt lat="45.26553" lon="2.79483">
        <ele>954</ele>
        <time>2019-12-19T01:38:34Z</time>
      </trkpt>
      <trkpt lat="45.26533" lon="2.79459">
        <ele>957</ele>
        <time>2019-12-19T01:38:38Z</time>
      </trkpt>
      <trkpt lat="45.2648" lon="2.79402">
        <ele>964</ele>
        <time>2019-12-19T01:38:50Z</time>
      </trkpt>
      <trkpt lat="45.26468" lon="2.79394">
        <ele>965</ele>
        <time>2019-12-19T01:38:53Z</time>
      </trkpt>
      <trkpt lat="45.26416" lon="2.79379">
        <ele>967</ele>
        <time>2019-12-19T01:39:02Z</time>
      </trkpt>
      <trkpt lat="45.26402" lon="2.79369">
        <ele>967</ele>
        <time>2019-12-19T01:39:05Z</time>
      </trkpt>
      <trkpt lat="45.26349" lon="2.79277">
        <ele>969</ele>
        <time>2019-12-19T01:39:20Z</time>
      </trkpt>
      <trkpt lat="45.26336" lon="2.79266">
        <ele>970</ele>
        <time>2019-12-19T01:39:22Z</time>
      </trkpt>
      <trkpt lat="45.26321" lon="2.79265">
        <ele>971</ele>
        <time>2019-12-19T01:39:25Z</time>
      </trkpt>
      <trkpt lat="45.26305" lon="2.79282">
        <ele>970</ele>
        <time>2019-12-19T01:39:29Z</time>
      </trkpt>
      <trkpt lat="45.26275" lon="2.79321">
        <ele>968</ele>
        <time>2019-12-19T01:39:36Z</time>
      </trkpt>
      <trkpt lat="45.26248" lon="2.79337">
        <ele>968</ele>
        <time>2019-12-19T01:39:41Z</time>
      </trkpt>
      <trkpt lat="45.26223" lon="2.79339">
        <ele>971</ele>
        <time>2019-12-19T01:39:46Z</time>
      </trkpt>
      <trkpt lat="45.26197" lon="2.79359">
        <ele>973</ele>
        <time>2019-12-19T01:39:51Z</time>
      </trkpt>
      <trkpt lat="45.26164" lon="2.79394">
        <ele>973</ele>
        <time>2019-12-19T01:39:58Z</time>
      </trkpt>
      <trkpt lat="45.26104" lon="2.79485">
        <ele>974</ele>
        <time>2019-12-19T01:40:14Z</time>
      </trkpt>
      <trkpt lat="45.26075" lon="2.79541">
        <ele>972</ele>
        <time>2019-12-19T01:40:22Z</time>
      </trkpt>
      <trkpt lat="45.26027" lon="2.79598">
        <ele>968</ele>
        <time>2019-12-19T01:40:34Z</time>
      </trkpt>
      <trkpt lat="45.25993" lon="2.79666">
        <ele>964</ele>
        <time>2019-12-19T01:40:44Z</time>
      </trkpt>
      <trkpt lat="45.25979" lon="2.79679">
        <ele>962</ele>
        <time>2019-12-19T01:40:47Z</time>
      </trkpt>
      <trkpt lat="45.25958" lon="2.79682">
        <ele>961</ele>
        <time>2019-12-19T01:40:51Z</time>
      </trkpt>
      <trkpt lat="45.25942" lon="2.79669">
        <ele>962</ele>
        <time>2019-12-19T01:40:54Z</time>
      </trkpt>
      <trkpt lat="45.25881" lon="2.79574">
        <ele>962</ele>
        <time>2019-12-19T01:41:10Z</time>
      </trkpt>
      <trkpt lat="45.25856" lon="2.79549">
        <ele>959</ele>
        <time>2019-12-19T01:41:16Z</time>
      </trkpt>
      <trkpt lat="45.25835" lon="2.79511">
        <ele>959</ele>
        <time>2019-12-19T01:41:22Z</time>
      </trkpt>
      <trkpt lat="45.25827" lon="2.79499">
        <ele>959</ele>
        <time>2019-12-19T01:41:24Z</time>
      </trkpt>
      <trkpt lat="45.25758" lon="2.79446">
        <ele>955</ele>
        <time>2019-12-19T01:41:38Z</time>
      </trkpt>
      <trkpt lat="45.25742" lon="2.7943">
        <ele>955</ele>
        <time>2019-12-19T01:41:41Z</time>
      </trkpt>
      <trkpt lat="45.25702" lon="2.79403">
        <ele>953</ele>
        <time>2019-12-19T01:41:49Z</time>
      </trkpt>
      <trkpt lat="45.25684" lon="2.79396">
        <ele>952</ele>
        <time>2019-12-19T01:41:52Z</time>
      </trkpt>
      <trkpt lat="45.25645" lon="2.79401">
        <ele>949</ele>
        <time>2019-12-19T01:41:59Z</time>
      </trkpt>
      <trkpt lat="45.25586" lon="2.79442">
        <ele>947</ele>
        <time>2019-12-19T01:42:11Z</time>
      </trkpt>
      <trkpt lat="45.25554" lon="2.79457">
        <ele>948</ele>
        <time>2019-12-19T01:42:17Z</time>
      </trkpt>
      <trkpt lat="45.25534" lon="2.79472">
        <ele>948</ele>
        <time>2019-12-19T01:42:21Z</time>
      </trkpt>
      <trkpt lat="45.25521" lon="2.79462">
        <ele>949</ele>
        <time>2019-12-19T01:42:24Z</time>
      </trkpt>
      <trkpt lat="45.25477" lon="2.79434">
        <ele>951</ele>
        <time>2019-12-19T01:42:32Z</time>
      </trkpt>
      <trkpt lat="45.25437" lon="2.79411">
        <ele>953</ele>
        <time>2019-12-19T01:42:40Z</time>
      </trkpt>
      <trkpt lat="45.25418" lon="2.7939">
        <ele>955</ele>
        <time>2019-12-19T01:42:44Z</time>
      </trkpt>
      <trkpt lat="45.2541" lon="2.79377">
        <ele>957</ele>
        <time>2019-12-19T01:42:46Z</time>
      </trkpt>
      <trkpt lat="45.25333" lon="2.79082">
        <ele>971</ele>
        <time>2019-12-19T01:43:26Z</time>
      </trkpt>
      <trkpt lat="45.25325" lon="2.79064">
        <ele>973</ele>
        <time>2019-12-19T01:43:28Z</time>
      </trkpt>
      <trkpt lat="45.25234" lon="2.78953">
        <ele>979</ele>
        <time>2019-12-19T01:43:50Z</time>
      </trkpt>
      <trkpt lat="45.25225" lon="2.78934">
        <ele>980</ele>
        <time>2019-12-19T01:43:53Z</time>
      </trkpt>
      <trkpt lat="45.25212" lon="2.7888">
        <ele>983</ele>
        <time>2019-12-19T01:44:00Z</time>
      </trkpt>
      <trkpt lat="45.25203" lon="2.7887">
        <ele>984</ele>
        <time>2019-12-19T01:44:02Z</time>
      </trkpt>
      <trkpt lat="45.2519" lon="2.78865">
        <ele>983</ele>
        <time>2019-12-19T01:44:04Z</time>
      </trkpt>
      <trkpt lat="45.25158" lon="2.78862">
        <ele>983</ele>
        <time>2019-12-19T01:44:10Z</time>
      </trkpt>
      <trkpt lat="45.25133" lon="2.78857">
        <ele>985</ele>
        <time>2019-12-19T01:44:14Z</time>
      </trkpt>
      <trkpt lat="45.25099" lon="2.78837">
        <ele>989</ele>
        <time>2019-12-19T01:44:21Z</time>
      </trkpt>
      <trkpt lat="45.25051" lon="2.78791">
        <ele>997</ele>
        <time>2019-12-19T01:44:31Z</time>
      </trkpt>
      <trkpt lat="45.25033" lon="2.78788">
        <ele>997</ele>
        <time>2019-12-19T01:44:35Z</time>
      </trkpt>
      <trkpt lat="45.25014" lon="2.78797">
        <ele>996</ele>
        <time>2019-12-19T01:44:38Z</time>
      </trkpt>
      <trkpt lat="45.24996" lon="2.78801">
        <ele>995</ele>
        <time>2019-12-19T01:44:41Z</time>
      </trkpt>
      <trkpt lat="45.24981" lon="2.78789">
        <ele>996</ele>
        <time>2019-12-19T01:44:44Z</time>
      </trkpt>
      <trkpt lat="45.24958" lon="2.78746">
        <ele>997</ele>
        <time>2019-12-19T01:44:51Z</time>
      </trkpt>
      <trkpt lat="45.24938" lon="2.78723">
        <ele>997</ele>
        <time>2019-12-19T01:44:56Z</time>
      </trkpt>
      <trkpt lat="45.24839" lon="2.78642">
        <ele>998</ele>
        <time>2019-12-19T01:45:16Z</time>
      </trkpt>
      <trkpt lat="45.24818" lon="2.78632">
        <ele>999</ele>
        <time>2019-12-19T01:45:20Z</time>
      </trkpt>
      <trkpt lat="45.24791" lon="2.78623">
        <ele>1001</ele>
        <time>2019-12-19T01:45:25Z</time>
      </trkpt>
      <trkpt lat="45.24691" lon="2.78598">
        <ele>1007</ele>
        <time>2019-12-19T01:45:43Z</time>
      </trkpt>
      <trkpt lat="45.24666" lon="2.78586">
        <ele>1009</ele>
        <time>2019-12-19T01:45:48Z</time>
      </trkpt>
      <trkpt lat="45.24626" lon="2.78556">
        <ele>1009</ele>
        <time>2019-12-19T01:45:56Z</time>
      </trkpt>
      <trkpt lat="45.24756" lon="2.78307">
        <ele>1026</ele>
        <time>2019-12-19T01:46:35Z</time>
      </trkpt>
      <trkpt lat="45.24766" lon="2.78304">
        <ele>1027</ele>
        <time>2019-12-19T01:46:36Z</time>
      </trkpt>
      <trkpt lat="45.24782" lon="2.78306">
        <ele>1028</ele>
        <time>2019-12-19T01:46:39Z</time>
      </trkpt>
      <trkpt lat="45.24787" lon="2.78298">
        <ele>1029</ele>
        <time>2019-12-19T01:46:41Z</time>
      </trkpt>
      <trkpt lat="45.2479" lon="2.78218">
        <ele>1034</ele>
        <time>2019-12-19T01:46:51Z</time>
      </trkpt>
      <trkpt lat="45.24783" lon="2.7819">
        <ele>1035</ele>
        <time>2019-12-19T01:46:54Z</time>
      </trkpt>
      <trkpt lat="45.2476" lon="2.78136">
        <ele>1038</ele>
        <time>2019-12-19T01:47:02Z</time>
      </trkpt>
      <trkpt lat="45.24787" lon="2.78038">
        <ele>1051</ele>
        <time>2019-12-19T01:47:15Z</time>
      </trkpt>
      <trkpt lat="45.24819" lon="2.7796">
        <ele>1061</ele>
        <time>2019-12-19T01:47:27Z</time>
      </trkpt>
      <trkpt lat="45.24814" lon="2.77945">
        <ele>1063</ele>
        <time>2019-12-19T01:47:29Z</time>
      </trkpt>
      <trkpt lat="45.24799" lon="2.77937">
        <ele>1063</ele>
        <time>2019-12-19T01:47:32Z</time>
      </trkpt>
      <trkpt lat="45.24765" lon="2.77938">
        <ele>1063</ele>
        <time>2019-12-19T01:47:38Z</time>
      </trkpt>
      <trkpt lat="45.24741" lon="2.77932">
        <ele>1064</ele>
        <time>2019-12-19T01:47:42Z</time>
      </trkpt>
      <trkpt lat="45.24683" lon="2.77898">
        <ele>1073</ele>
        <time>2019-12-19T01:47:53Z</time>
      </trkpt>
      <trkpt lat="45.24664" lon="2.77896">
        <ele>1075</ele>
        <time>2019-12-19T01:47:57Z</time>
      </trkpt>
      <trkpt lat="45.24645" lon="2.77903">
        <ele>1076</ele>
        <time>2019-12-19T01:48:00Z</time>
      </trkpt>
      <trkpt lat="45.24619" lon="2.77921">
        <ele>1077</ele>
        <time>2019-12-19T01:48:05Z</time>
      </trkpt>
      <trkpt lat="45.24606" lon="2.77922">
        <ele>1078</ele>
        <time>2019-12-19T01:48:08Z</time>
      </trkpt>
      <trkpt lat="45.24595" lon="2.77912">
        <ele>1080</ele>
        <time>2019-12-19T01:48:10Z</time>
      </trkpt>
      <trkpt lat="45.24578" lon="2.77875">
        <ele>1086</ele>
        <time>2019-12-19T01:48:15Z</time>
      </trkpt>
      <trkpt lat="45.24566" lon="2.77831">
        <ele>1090</ele>
        <time>2019-12-19T01:48:21Z</time>
      </trkpt>
      <trkpt lat="45.24558" lon="2.77776">
        <ele>1095</ele>
        <time>2019-12-19T01:48:28Z</time>
      </trkpt>
      <trkpt lat="45.24548" lon="2.77744">
        <ele>1098</ele>
        <time>2019-12-19T01:48:33Z</time>
      </trkpt>
      <trkpt lat="45.24476" lon="2.77547">
        <ele>1122</ele>
        <time>2019-12-19T01:49:01Z</time>
      </trkpt>
      <trkpt lat="45.24447" lon="2.77511">
        <ele>1123</ele>
        <time>2019-12-19T01:49:07Z</time>
      </trkpt>
      <trkpt lat="45.24413" lon="2.77463">
        <ele>1126</ele>
        <time>2019-12-19T01:49:16Z</time>
      </trkpt>
      <trkpt lat="45.24386" lon="2.7744">
        <ele>1126</ele>
        <time>2019-12-19T01:49:22Z</time>
      </trkpt>
      <trkpt lat="45.24373" lon="2.77418">
        <ele>1127</ele>
        <time>2019-12-19T01:49:25Z</time>
      </trkpt>
      <trkpt lat="45.24365" lon="2.77384">
        <ele>1131</ele>
        <time>2019-12-19T01:49:30Z</time>
      </trkpt>
      <trkpt lat="45.24345" lon="2.77353">
        <ele>1133</ele>
        <time>2019-12-19T01:49:35Z</time>
      </trkpt>
      <trkpt lat="45.24303" lon="2.77328">
        <ele>1131</ele>
        <time>2019-12-19T01:49:43Z</time>
      </trkpt>
      <trkpt lat="45.24291" lon="2.77305">
        <ele>1132</ele>
        <time>2019-12-19T01:49:47Z</time>
      </trkpt>
      <trkpt lat="45.24286" lon="2.77278">
        <ele>1134</ele>
        <time>2019-12-19T01:49:50Z</time>
      </trkpt>
      <trkpt lat="45.2428" lon="2.77222">
        <ele>1139</ele>
        <time>2019-12-19T01:49:57Z</time>
      </trkpt>
      <trkpt lat="45.24267" lon="2.7716">
        <ele>1141</ele>
        <time>2019-12-19T01:50:05Z</time>
      </trkpt>
      <trkpt lat="45.24252" lon="2.7702">
        <ele>1150</ele>
        <time>2019-12-19T01:50:23Z</time>
      </trkpt>
      <trkpt lat="45.24228" lon="2.76857">
        <ele>1156</ele>
        <time>2019-12-19T01:50:44Z</time>
      </trkpt>
      <trkpt lat="45.24193" lon="2.76846">
        <ele>1156</ele>
        <time>2019-12-19T01:50:50Z</time>
      </trkpt>
      <trkpt lat="45.24087" lon="2.76798">
        <ele>1158</ele>
        <time>2019-12-19T01:51:10Z</time>
      </trkpt>
      <trkpt lat="45.23911" lon="2.76694">
        <ele>1160</ele>
        <time>2019-12-19T01:51:44Z</time>
      </trkpt>
      <trkpt lat="45.23875" lon="2.76681">
        <ele>1160</ele>
        <time>2019-12-19T01:51:51Z</time>
      </trkpt>
      <trkpt lat="45.23798" lon="2.76667">
        <ele>1161</ele>
        <time>2019-12-19T01:52:04Z</time>
      </trkpt>
      <trkpt lat="45.23724" lon="2.76632">
        <ele>1162</ele>
        <time>2019-12-19T01:52:18Z</time>
      </trkpt>
      <trkpt lat="45.23692" lon="2.76625">
        <ele>1162</ele>
        <time>2019-12-19T01:52:24Z</time>
      </trkpt>
      <trkpt lat="45.23654" lon="2.7662">
        <ele>1161</ele>
        <time>2019-12-19T01:52:31Z</time>
      </trkpt>
      <trkpt lat="45.23471" lon="2.76613">
        <ele>1157</ele>
        <time>2019-12-19T01:53:03Z</time>
      </trkpt>
      <trkpt lat="45.23392" lon="2.76614">
        <ele>1159</ele>
        <time>2019-12-19T01:53:17Z</time>
      </trkpt>
      <trkpt lat="45.23343" lon="2.76631">
        <ele>1162</ele>
        <time>2019-12-19T01:53:26Z</time>
      </trkpt>
      <trkpt lat="45.2332" lon="2.76631">
        <ele>1163</ele>
        <time>2019-12-19T01:53:31Z</time>
      </trkpt>
      <trkpt lat="45.23165" lon="2.76603">
        <ele>1163</ele>
        <time>2019-12-19T01:53:58Z</time>
      </trkpt>
      <trkpt lat="45.23153" lon="2.76592">
        <ele>1163</ele>
        <time>2019-12-19T01:54:01Z</time>
      </trkpt>
      <trkpt lat="45.2313" lon="2.7655">
        <ele>1163</ele>
        <time>2019-12-19T01:54:08Z</time>
      </trkpt>
      <trkpt lat="45.23102" lon="2.76535">
        <ele>1162</ele>
        <time>2019-12-19T01:54:13Z</time>
      </trkpt>
      <trkpt lat="45.23051" lon="2.76513">
        <ele>1161</ele>
        <time>2019-12-19T01:54:22Z</time>
      </trkpt>
      <trkpt lat="45.22995" lon="2.76479">
        <ele>1161</ele>
        <time>2019-12-19T01:54:33Z</time>
      </trkpt>
      <trkpt lat="45.23013" lon="2.76437">
        <ele>1161</ele>
        <time>2019-12-19T01:54:39Z</time>
      </trkpt>
      <trkpt lat="45.23026" lon="2.76392">
        <ele>1162</ele>
        <time>2019-12-19T01:54:45Z</time>
      </trkpt>
      <trkpt lat="45.23069" lon="2.76199">
        <ele>1164</ele>
        <time>2019-12-19T01:55:11Z</time>
      </trkpt>
      <trkpt lat="45.23083" lon="2.76126">
        <ele>1161</ele>
        <time>2019-12-19T01:55:20Z</time>
      </trkpt>
      <trkpt lat="45.2309" lon="2.76068">
        <ele>1160</ele>
        <time>2019-12-19T01:55:28Z</time>
      </trkpt>
      <trkpt lat="45.23091" lon="2.76042">
        <ele>1159</ele>
        <time>2019-12-19T01:55:31Z</time>
      </trkpt>
      <trkpt lat="45.23091" lon="2.75989">
        <ele>1159</ele>
        <time>2019-12-19T01:55:38Z</time>
      </trkpt>
      <trkpt lat="45.23087" lon="2.75928">
        <ele>1158</ele>
        <time>2019-12-19T01:55:45Z</time>
      </trkpt>
      <trkpt lat="45.23046" lon="2.75648">
        <ele>1144</ele>
        <time>2019-12-19T01:56:21Z</time>
      </trkpt>
      <trkpt lat="45.23045" lon="2.75622">
        <ele>1141</ele>
        <time>2019-12-19T01:56:24Z</time>
      </trkpt>
      <trkpt lat="45.23046" lon="2.75598">
        <ele>1139</ele>
        <time>2019-12-19T01:56:27Z</time>
      </trkpt>
      <trkpt lat="45.2305" lon="2.7557">
        <ele>1136</ele>
        <time>2019-12-19T01:56:31Z</time>
      </trkpt>
      <trkpt lat="45.2306" lon="2.75528">
        <ele>1133</ele>
        <time>2019-12-19T01:56:37Z</time>
      </trkpt>
      <trkpt lat="45.2307" lon="2.75501">
        <ele>1130</ele>
        <time>2019-12-19T01:56:40Z</time>
      </trkpt>
      <trkpt lat="45.23081" lon="2.75479">
        <ele>1129</ele>
        <time>2019-12-19T01:56:44Z</time>
      </trkpt>
      <trkpt lat="45.23095" lon="2.75458">
        <ele>1129</ele>
        <time>2019-12-19T01:56:47Z</time>
      </trkpt>
      <trkpt lat="45.23121" lon="2.75429">
        <ele>1128</ele>
        <time>2019-12-19T01:56:53Z</time>
      </trkpt>
      <trkpt lat="45.23136" lon="2.75416">
        <ele>1128</ele>
        <time>2019-12-19T01:56:56Z</time>
      </trkpt>
      <trkpt lat="45.23237" lon="2.75349">
        <ele>1137</ele>
        <time>2019-12-19T01:57:16Z</time>
      </trkpt>
      <trkpt lat="45.23386" lon="2.7525">
        <ele>1135</ele>
        <time>2019-12-19T01:57:45Z</time>
      </trkpt>
      <trkpt lat="45.23414" lon="2.75229">
        <ele>1135</ele>
        <time>2019-12-19T01:57:51Z</time>
      </trkpt>
      <trkpt lat="45.23438" lon="2.75202">
        <ele>1135</ele>
        <time>2019-12-19T01:57:57Z</time>
      </trkpt>
      <trkpt lat="45.23461" lon="2.75169">
        <ele>1135</ele>
        <time>2019-12-19T01:58:02Z</time>
      </trkpt>
      <trkpt lat="45.23481" lon="2.7513">
        <ele>1134</ele>
        <time>2019-12-19T01:58:08Z</time>
      </trkpt>
      <trkpt lat="45.2349" lon="2.75107">
        <ele>1134</ele>
        <time>2019-12-19T01:58:12Z</time>
      </trkpt>
      <trkpt lat="45.23503" lon="2.75061">
        <ele>1133</ele>
        <time>2019-12-19T01:58:18Z</time>
      </trkpt>
      <trkpt lat="45.23507" lon="2.75038">
        <ele>1132</ele>
        <time>2019-12-19T01:58:21Z</time>
      </trkpt>
      <trkpt lat="45.23512" lon="2.74991">
        <ele>1131</ele>
        <time>2019-12-19T01:58:27Z</time>
      </trkpt>
      <trkpt lat="45.23511" lon="2.74944">
        <ele>1131</ele>
        <time>2019-12-19T01:58:33Z</time>
      </trkpt>
      <trkpt lat="45.23493" lon="2.74784">
        <ele>1130</ele>
        <time>2019-12-19T01:58:53Z</time>
      </trkpt>
      <trkpt lat="45.23493" lon="2.74739">
        <ele>1128</ele>
        <time>2019-12-19T01:58:59Z</time>
      </trkpt>
      <trkpt lat="45.23496" lon="2.74712">
        <ele>1125</ele>
        <time>2019-12-19T01:59:02Z</time>
      </trkpt>
      <trkpt lat="45.23501" lon="2.74684">
        <ele>1122</ele>
        <time>2019-12-19T01:59:06Z</time>
      </trkpt>
      <trkpt lat="45.2351" lon="2.74653">
        <ele>1119</ele>
        <time>2019-12-19T01:59:10Z</time>
      </trkpt>
      <trkpt lat="45.23522" lon="2.74621">
        <ele>1117</ele>
        <time>2019-12-19T01:59:14Z</time>
      </trkpt>
      <trkpt lat="45.23696" lon="2.74226">
        <ele>1088</ele>
        <time>2019-12-19T02:00:13Z</time>
      </trkpt>
      <trkpt lat="45.23716" lon="2.74168">
        <ele>1084</ele>
        <time>2019-12-19T02:00:21Z</time>
      </trkpt>
      <trkpt lat="45.23734" lon="2.74091">
        <ele>1081</ele>
        <time>2019-12-19T02:00:31Z</time>
      </trkpt>
      <trkpt lat="45.23742" lon="2.74065">
        <ele>1079</ele>
        <time>2019-12-19T02:00:35Z</time>
      </trkpt>
      <trkpt lat="45.23749" lon="2.74051">
        <ele>1078</ele>
        <time>2019-12-19T02:00:37Z</time>
      </trkpt>
      <trkpt lat="45.23777" lon="2.74003">
        <ele>1077</ele>
        <time>2019-12-19T02:00:45Z</time>
      </trkpt>
      <trkpt lat="45.23784" lon="2.73986">
        <ele>1076</ele>
        <time>2019-12-19T02:00:47Z</time>
      </trkpt>
      <trkpt lat="45.23789" lon="2.73967">
        <ele>1075</ele>
        <time>2019-12-19T02:00:50Z</time>
      </trkpt>
      <trkpt lat="45.23793" lon="2.73931">
        <ele>1073</ele>
        <time>2019-12-19T02:00:54Z</time>
      </trkpt>
      <trkpt lat="45.23792" lon="2.73894">
        <ele>1071</ele>
        <time>2019-12-19T02:00:59Z</time>
      </trkpt>
      <trkpt lat="45.23766" lon="2.73757">
        <ele>1063</ele>
        <time>2019-12-19T02:01:17Z</time>
      </trkpt>
      <trkpt lat="45.23757" lon="2.73729">
        <ele>1061</ele>
        <time>2019-12-19T02:01:20Z</time>
      </trkpt>
      <trkpt lat="45.23745" lon="2.73706">
        <ele>1060</ele>
        <time>2019-12-19T02:01:24Z</time>
      </trkpt>
      <trkpt lat="45.23728" lon="2.73685">
        <ele>1059</ele>
        <time>2019-12-19T02:01:28Z</time>
      </trkpt>
      <trkpt lat="45.23705" lon="2.7367">
        <ele>1058</ele>
        <time>2019-12-19T02:01:33Z</time>
      </trkpt>
      <trkpt lat="45.2369" lon="2.73665">
        <ele>1057</ele>
        <time>2019-12-19T02:01:35Z</time>
      </trkpt>
      <trkpt lat="45.23642" lon="2.73656">
        <ele>1056</ele>
        <time>2019-12-19T02:01:44Z</time>
      </trkpt>
      <trkpt lat="45.23624" lon="2.7365">
        <ele>1055</ele>
        <time>2019-12-19T02:01:47Z</time>
      </trkpt>
      <trkpt lat="45.23599" lon="2.73637">
        <ele>1053</ele>
        <time>2019-12-19T02:01:52Z</time>
      </trkpt>
      <trkpt lat="45.23569" lon="2.73608">
        <ele>1049</ele>
        <time>2019-12-19T02:01:58Z</time>
      </trkpt>
      <trkpt lat="45.23555" lon="2.73587">
        <ele>1047</ele>
        <time>2019-12-19T02:02:02Z</time>
      </trkpt>
      <trkpt lat="45.23503" lon="2.73506">
        <ele>1040</ele>
        <time>2019-12-19T02:02:16Z</time>
      </trkpt>
      <trkpt lat="45.23492" lon="2.73484">
        <ele>1038</ele>
        <time>2019-12-19T02:02:19Z</time>
      </trkpt>
      <trkpt lat="45.23485" lon="2.73466">
        <ele>1037</ele>
        <time>2019-12-19T02:02:22Z</time>
      </trkpt>
      <trkpt lat="45.23476" lon="2.73425">
        <ele>1034</ele>
        <time>2019-12-19T02:02:27Z</time>
      </trkpt>
      <trkpt lat="45.23475" lon="2.73398">
        <ele>1033</ele>
        <time>2019-12-19T02:02:30Z</time>
      </trkpt>
      <trkpt lat="45.23452" lon="2.73394">
        <ele>1034</ele>
        <time>2019-12-19T02:02:35Z</time>
      </trkpt>
      <trkpt lat="45.23418" lon="2.73385">
        <ele>1035</ele>
        <time>2019-12-19T02:02:41Z</time>
      </trkpt>
      <trkpt lat="45.23281" lon="2.73293">
        <ele>1037</ele>
        <time>2019-12-19T02:03:08Z</time>
      </trkpt>
      <trkpt lat="45.23238" lon="2.73258">
        <ele>1037</ele>
        <time>2019-12-19T02:03:17Z</time>
      </trkpt>
      <trkpt lat="45.2319" lon="2.73214">
        <ele>1036</ele>
        <time>2019-12-19T02:03:27Z</time>
      </trkpt>
      <trkpt lat="45.23176" lon="2.73199">
        <ele>1035</ele>
        <time>2019-12-19T02:03:30Z</time>
      </trkpt>
      <trkpt lat="45.23141" lon="2.73168">
        <ele>1036</ele>
        <time>2019-12-19T02:03:37Z</time>
      </trkpt>
      <trkpt lat="45.23106" lon="2.73152">
        <ele>1038</ele>
        <time>2019-12-19T02:03:44Z</time>
      </trkpt>
      <trkpt lat="45.22988" lon="2.73122">
        <ele>1042</ele>
        <time>2019-12-19T02:04:05Z</time>
      </trkpt>
      <trkpt lat="45.22956" lon="2.73107">
        <ele>1043</ele>
        <time>2019-12-19T02:04:11Z</time>
      </trkpt>
      <trkpt lat="45.2294" lon="2.73092">
        <ele>1044</ele>
        <time>2019-12-19T02:04:14Z</time>
      </trkpt>
      <trkpt lat="45.22925" lon="2.73068">
        <ele>1045</ele>
        <time>2019-12-19T02:04:18Z</time>
      </trkpt>
      <trkpt lat="45.22915" lon="2.73041">
        <ele>1046</ele>
        <time>2019-12-19T02:04:22Z</time>
      </trkpt>
      <trkpt lat="45.22903" lon="2.72966">
        <ele>1051</ele>
        <time>2019-12-19T02:04:32Z</time>
      </trkpt>
      <trkpt lat="45.22898" lon="2.72928">
        <ele>1055</ele>
        <time>2019-12-19T02:04:37Z</time>
      </trkpt>
      <trkpt lat="45.22893" lon="2.72885">
        <ele>1058</ele>
        <time>2019-12-19T02:04:42Z</time>
      </trkpt>
      <trkpt lat="45.22895" lon="2.72818">
        <ele>1059</ele>
        <time>2019-12-19T02:04:51Z</time>
      </trkpt>
      <trkpt lat="45.22878" lon="2.72702">
        <ele>1061</ele>
        <time>2019-12-19T02:05:05Z</time>
      </trkpt>
      <trkpt lat="45.22856" lon="2.72667">
        <ele>1062</ele>
        <time>2019-12-19T02:05:11Z</time>
      </trkpt>
      <trkpt lat="45.22819" lon="2.7265">
        <ele>1062</ele>
        <time>2019-12-19T02:05:18Z</time>
      </trkpt>
      <trkpt lat="45.22772" lon="2.72652">
        <ele>1063</ele>
        <time>2019-12-19T02:05:27Z</time>
      </trkpt>
      <trkpt lat="45.22709" lon="2.72645">
        <ele>1062</ele>
        <time>2019-12-19T02:05:38Z</time>
      </trkpt>
      <trkpt lat="45.22643" lon="2.72632">
        <ele>1063</ele>
        <time>2019-12-19T02:05:50Z</time>
      </trkpt>
      <trkpt lat="45.22473" lon="2.72553">
        <ele>1069</ele>
        <time>2019-12-19T02:06:22Z</time>
      </trkpt>
      <trkpt lat="45.2241" lon="2.72516">
        <ele>1070</ele>
        <time>2019-12-19T02:06:34Z</time>
      </trkpt>
      <trkpt lat="45.22366" lon="2.72484">
        <ele>1070</ele>
        <time>2019-12-19T02:06:42Z</time>
      </trkpt>
      <trkpt lat="45.2231" lon="2.72417">
        <ele>1061</ele>
        <time>2019-12-19T02:06:56Z</time>
      </trkpt>
      <trkpt lat="45.22296" lon="2.72391">
        <ele>1059</ele>
        <time>2019-12-19T02:07:00Z</time>
      </trkpt>
      <trkpt lat="45.22282" lon="2.72329">
        <ele>1054</ele>
        <time>2019-12-19T02:07:08Z</time>
      </trkpt>
      <trkpt lat="45.22274" lon="2.72285">
        <ele>1050</ele>
        <time>2019-12-19T02:07:13Z</time>
      </trkpt>
      <trkpt lat="45.22248" lon="2.7224">
        <ele>1049</ele>
        <time>2019-12-19T02:07:21Z</time>
      </trkpt>
      <trkpt lat="45.22217" lon="2.72201">
        <ele>1046</ele>
        <time>2019-12-19T02:07:28Z</time>
      </trkpt>
      <trkpt lat="45.22182" lon="2.72163">
        <ele>1044</ele>
        <time>2019-12-19T02:07:36Z</time>
      </trkpt>
      <trkpt lat="45.22144" lon="2.72142">
        <ele>1044</ele>
        <time>2019-12-19T02:07:43Z</time>
      </trkpt>
      <trkpt lat="45.22087" lon="2.72101">
        <ele>1041</ele>
        <time>2019-12-19T02:07:55Z</time>
      </trkpt>
      <trkpt lat="45.21999" lon="2.7206">
        <ele>1036</ele>
        <time>2019-12-19T02:08:11Z</time>
      </trkpt>
      <trkpt lat="45.21851" lon="2.71983">
        <ele>1018</ele>
        <time>2019-12-19T02:08:39Z</time>
      </trkpt>
      <trkpt lat="45.21789" lon="2.71973">
        <ele>1013</ele>
        <time>2019-12-19T02:08:50Z</time>
      </trkpt>
      <trkpt lat="45.21685" lon="2.71975">
        <ele>1010</ele>
        <time>2019-12-19T02:09:09Z</time>
      </trkpt>
      <trkpt lat="45.21649" lon="2.71962">
        <ele>1007</ele>
        <time>2019-12-19T02:09:15Z</time>
      </trkpt>
      <trkpt lat="45.21627" lon="2.7195">
        <ele>1004</ele>
        <time>2019-12-19T02:09:20Z</time>
      </trkpt>
      <trkpt lat="45.21597" lon="2.71938">
        <ele>1001</ele>
        <time>2019-12-19T02:09:25Z</time>
      </trkpt>
      <trkpt lat="45.21568" lon="2.71938">
        <ele>1000</ele>
        <time>2019-12-19T02:09:30Z</time>
      </trkpt>
      <trkpt lat="45.21508" lon="2.71963">
        <ele>1001</ele>
        <time>2019-12-19T02:09:41Z</time>
      </trkpt>
      <trkpt lat="45.21484" lon="2.71966">
        <ele>1000</ele>
        <time>2019-12-19T02:09:46Z</time>
      </trkpt>
      <trkpt lat="45.21431" lon="2.71955">
        <ele>996</ele>
        <time>2019-12-19T02:09:55Z</time>
      </trkpt>
      <trkpt lat="45.21374" lon="2.71929">
        <ele>989</ele>
        <time>2019-12-19T02:10:06Z</time>
      </trkpt>
      <trkpt lat="45.213" lon="2.71927">
        <ele>990</ele>
        <time>2019-12-19T02:10:19Z</time>
      </trkpt>
      <trkpt lat="45.21266" lon="2.71905">
        <ele>990</ele>
        <time>2019-12-19T02:10:26Z</time>
      </trkpt>
      <trkpt lat="45.21239" lon="2.71855">
        <ele>986</ele>
        <time>2019-12-19T02:10:34Z</time>
      </trkpt>
      <trkpt lat="45.21213" lon="2.71812">
        <ele>984</ele>
        <time>2019-12-19T02:10:41Z</time>
      </trkpt>
      <trkpt lat="45.21171" lon="2.71768">
        <ele>983</ele>
        <time>2019-12-19T02:10:50Z</time>
      </trkpt>
      <trkpt lat="45.21029" lon="2.71685">
        <ele>969</ele>
        <time>2019-12-19T02:11:17Z</time>
      </trkpt>
      <trkpt lat="45.21002" lon="2.71667">
        <ele>965</ele>
        <time>2019-12-19T02:11:23Z</time>
      </trkpt>
      <trkpt lat="45.20979" lon="2.71672">
        <ele>966</ele>
        <time>2019-12-19T02:11:27Z</time>
      </trkpt>
      <trkpt lat="45.20932" lon="2.71648">
        <ele>962</ele>
        <time>2019-12-19T02:11:36Z</time>
      </trkpt>
      <trkpt lat="45.20917" lon="2.71644">
        <ele>962</ele>
        <time>2019-12-19T02:11:38Z</time>
      </trkpt>
      <trkpt lat="45.20882" lon="2.71643">
        <ele>963</ele>
        <time>2019-12-19T02:11:45Z</time>
      </trkpt>
      <trkpt lat="45.2083" lon="2.71625">
        <ele>963</ele>
        <time>2019-12-19T02:11:54Z</time>
      </trkpt>
      <trkpt lat="45.20818" lon="2.71618">
        <ele>963</ele>
        <time>2019-12-19T02:11:56Z</time>
      </trkpt>
      <trkpt lat="45.20736" lon="2.71625">
        <ele>969</ele>
        <time>2019-12-19T02:12:11Z</time>
      </trkpt>
      <trkpt lat="45.20676" lon="2.71608">
        <ele>974</ele>
        <time>2019-12-19T02:12:22Z</time>
      </trkpt>
      <trkpt lat="45.2066" lon="2.71601">
        <ele>974</ele>
        <time>2019-12-19T02:12:25Z</time>
      </trkpt>
      <trkpt lat="45.20635" lon="2.71578">
        <ele>970</ele>
        <time>2019-12-19T02:12:30Z</time>
      </trkpt>
      <trkpt lat="45.20615" lon="2.71565">
        <ele>967</ele>
        <time>2019-12-19T02:12:34Z</time>
      </trkpt>
      <trkpt lat="45.20597" lon="2.71562">
        <ele>967</ele>
        <time>2019-12-19T02:12:37Z</time>
      </trkpt>
      <trkpt lat="45.20581" lon="2.71564">
        <ele>968</ele>
        <time>2019-12-19T02:12:40Z</time>
      </trkpt>
      <trkpt lat="45.20518" lon="2.71584">
        <ele>974</ele>
        <time>2019-12-19T02:12:52Z</time>
      </trkpt>
      <trkpt lat="45.20416" lon="2.71575">
        <ele>968</ele>
        <time>2019-12-19T02:13:10Z</time>
      </trkpt>
      <trkpt lat="45.20279" lon="2.71633">
        <ele>973</ele>
        <time>2019-12-19T02:13:35Z</time>
      </trkpt>
      <trkpt lat="45.2022" lon="2.71674">
        <ele>975</ele>
        <time>2019-12-19T02:13:47Z</time>
      </trkpt>
      <trkpt lat="45.20184" lon="2.71695">
        <ele>977</ele>
        <time>2019-12-19T02:13:54Z</time>
      </trkpt>
      <trkpt lat="45.20164" lon="2.71696">
        <ele>975</ele>
        <time>2019-12-19T02:13:57Z</time>
      </trkpt>
      <trkpt lat="45.20141" lon="2.71688">
        <ele>973</ele>
        <time>2019-12-19T02:14:02Z</time>
      </trkpt>
      <trkpt lat="45.20085" lon="2.71693">
        <ele>975</ele>
        <time>2019-12-19T02:14:12Z</time>
      </trkpt>
      <trkpt lat="45.20051" lon="2.71672">
        <ele>971</ele>
        <time>2019-12-19T02:14:18Z</time>
      </trkpt>
      <trkpt lat="45.20029" lon="2.7167">
        <ele>972</ele>
        <time>2019-12-19T02:14:22Z</time>
      </trkpt>
      <trkpt lat="45.19967" lon="2.71726">
        <ele>981</ele>
        <time>2019-12-19T02:14:35Z</time>
      </trkpt>
      <trkpt lat="45.19934" lon="2.71747">
        <ele>984</ele>
        <time>2019-12-19T02:14:42Z</time>
      </trkpt>
      <trkpt lat="45.19921" lon="2.71749">
        <ele>984</ele>
        <time>2019-12-19T02:14:44Z</time>
      </trkpt>
      <trkpt lat="45.19898" lon="2.71748">
        <ele>985</ele>
        <time>2019-12-19T02:14:48Z</time>
      </trkpt>
      <trkpt lat="45.19865" lon="2.71731">
        <ele>982</ele>
        <time>2019-12-19T02:14:54Z</time>
      </trkpt>
      <trkpt lat="45.19834" lon="2.71712">
        <ele>979</ele>
        <time>2019-12-19T02:15:00Z</time>
      </trkpt>
      <trkpt lat="45.19815" lon="2.71715">
        <ele>980</ele>
        <time>2019-12-19T02:15:04Z</time>
      </trkpt>
      <trkpt lat="45.19768" lon="2.71742">
        <ele>987</ele>
        <time>2019-12-19T02:15:13Z</time>
      </trkpt>
      <trkpt lat="45.19741" lon="2.71739">
        <ele>987</ele>
        <time>2019-12-19T02:15:18Z</time>
      </trkpt>
      <trkpt lat="45.19705" lon="2.71719">
        <ele>985</ele>
        <time>2019-12-19T02:15:24Z</time>
      </trkpt>
      <trkpt lat="45.19645" lon="2.71714">
        <ele>988</ele>
        <time>2019-12-19T02:15:35Z</time>
      </trkpt>
      <trkpt lat="45.1961" lon="2.71702">
        <ele>988</ele>
        <time>2019-12-19T02:15:42Z</time>
      </trkpt>
      <trkpt lat="45.19583" lon="2.71672">
        <ele>984</ele>
        <time>2019-12-19T02:15:48Z</time>
      </trkpt>
      <trkpt lat="45.1955" lon="2.71663">
        <ele>986</ele>
        <time>2019-12-19T02:15:54Z</time>
      </trkpt>
      <trkpt lat="45.19497" lon="2.71645">
        <ele>990</ele>
        <time>2019-12-19T02:16:03Z</time>
      </trkpt>
      <trkpt lat="45.19459" lon="2.71617">
        <ele>988</ele>
        <time>2019-12-19T02:16:11Z</time>
      </trkpt>
      <trkpt lat="45.19374" lon="2.71589">
        <ele>986</ele>
        <time>2019-12-19T02:16:26Z</time>
      </trkpt>
      <trkpt lat="45.193" lon="2.71585">
        <ele>984</ele>
        <time>2019-12-19T02:16:40Z</time>
      </trkpt>
      <trkpt lat="45.19226" lon="2.71594">
        <ele>985</ele>
        <time>2019-12-19T02:16:53Z</time>
      </trkpt>
      <trkpt lat="45.19171" lon="2.71579">
        <ele>983</ele>
        <time>2019-12-19T02:17:03Z</time>
      </trkpt>
      <trkpt lat="45.19096" lon="2.71564">
        <ele>987</ele>
        <time>2019-12-19T02:17:16Z</time>
      </trkpt>
      <trkpt lat="45.19058" lon="2.71549">
        <ele>985</ele>
        <time>2019-12-19T02:17:23Z</time>
      </trkpt>
      <trkpt lat="45.19019" lon="2.71529">
        <ele>983</ele>
        <time>2019-12-19T02:17:31Z</time>
      </trkpt>
      <trkpt lat="45.18953" lon="2.71512">
        <ele>980</ele>
        <time>2019-12-19T02:17:43Z</time>
      </trkpt>
      <trkpt lat="45.18871" lon="2.71512">
        <ele>979</ele>
        <time>2019-12-19T02:17:57Z</time>
      </trkpt>
      <trkpt lat="45.18828" lon="2.71517">
        <ele>978</ele>
        <time>2019-12-19T02:18:05Z</time>
      </trkpt>
      <trkpt lat="45.18797" lon="2.71526">
        <ele>977</ele>
        <time>2019-12-19T02:18:11Z</time>
      </trkpt>
      <trkpt lat="45.18786" lon="2.71481">
        <ele>975</ele>
        <time>2019-12-19T02:18:17Z</time>
      </trkpt>
      <trkpt lat="45.18754" lon="2.71398">
        <ele>973</ele>
        <time>2019-12-19T02:18:28Z</time>
      </trkpt>
      <trkpt lat="45.18751" lon="2.7138">
        <ele>972</ele>
        <time>2019-12-19T02:18:31Z</time>
      </trkpt>
      <trkpt lat="45.1875" lon="2.71364">
        <ele>972</ele>
        <time>2019-12-19T02:18:33Z</time>
      </trkpt>
      <trkpt lat="45.18751" lon="2.71342">
        <ele>971</ele>
        <time>2019-12-19T02:18:35Z</time>
      </trkpt>
      <trkpt lat="45.18773" lon="2.71281">
        <ele>969</ele>
        <time>2019-12-19T02:18:44Z</time>
      </trkpt>
      <trkpt lat="45.18781" lon="2.71246">
        <ele>968</ele>
        <time>2019-12-19T02:18:49Z</time>
      </trkpt>
      <trkpt lat="45.18786" lon="2.71198">
        <ele>967</ele>
        <time>2019-12-19T02:18:55Z</time>
      </trkpt>
      <trkpt lat="45.18796" lon="2.7116">
        <ele>966</ele>
        <time>2019-12-19T02:19:00Z</time>
      </trkpt>
      <trkpt lat="45.18798" lon="2.71141">
        <ele>965</ele>
        <time>2019-12-19T02:19:02Z</time>
      </trkpt>
      <trkpt lat="45.18798" lon="2.71123">
        <ele>965</ele>
        <time>2019-12-19T02:19:05Z</time>
      </trkpt>
      <trkpt lat="45.18797" lon="2.71112">
        <ele>964</ele>
        <time>2019-12-19T02:19:06Z</time>
      </trkpt>
      <trkpt lat="45.18792" lon="2.71094">
        <ele>964</ele>
        <time>2019-12-19T02:19:08Z</time>
      </trkpt>
      <trkpt lat="45.18785" lon="2.71064">
        <ele>963</ele>
        <time>2019-12-19T02:19:12Z</time>
      </trkpt>
      <trkpt lat="45.18787" lon="2.71043">
        <ele>963</ele>
        <time>2019-12-19T02:19:15Z</time>
      </trkpt>
      <trkpt lat="45.18795" lon="2.71027">
        <ele>963</ele>
        <time>2019-12-19T02:19:17Z</time>
      </trkpt>
      <trkpt lat="45.18832" lon="2.70987">
        <ele>961</ele>
        <time>2019-12-19T02:19:26Z</time>
      </trkpt>
      <trkpt lat="45.18835" lon="2.70976">
        <ele>961</ele>
        <time>2019-12-19T02:19:27Z</time>
      </trkpt>
      <trkpt lat="45.18838" lon="2.70914">
        <ele>960</ele>
        <time>2019-12-19T02:19:35Z</time>
      </trkpt>
      <trkpt lat="45.18837" lon="2.7089">
        <ele>960</ele>
        <time>2019-12-19T02:19:38Z</time>
      </trkpt>
      <trkpt lat="45.18826" lon="2.7085">
        <ele>961</ele>
        <time>2019-12-19T02:19:43Z</time>
      </trkpt>
      <trkpt lat="45.18821" lon="2.70813">
        <ele>962</ele>
        <time>2019-12-19T02:19:48Z</time>
      </trkpt>
      <trkpt lat="45.18821" lon="2.70795">
        <ele>963</ele>
        <time>2019-12-19T02:19:50Z</time>
      </trkpt>
      <trkpt lat="45.18829" lon="2.70777">
        <ele>964</ele>
        <time>2019-12-19T02:19:53Z</time>
      </trkpt>
      <trkpt lat="45.18845" lon="2.70773">
        <ele>964</ele>
        <time>2019-12-19T02:19:56Z</time>
      </trkpt>
      <trkpt lat="45.18853" lon="2.70762">
        <ele>964</ele>
        <time>2019-12-19T02:19:58Z</time>
      </trkpt>
      <trkpt lat="45.18864" lon="2.70737">
        <ele>965</ele>
        <time>2019-12-19T02:20:02Z</time>
      </trkpt>
      <trkpt lat="45.1887" lon="2.70695">
        <ele>967</ele>
        <time>2019-12-19T02:20:07Z</time>
      </trkpt>
      <trkpt lat="45.18906" lon="2.70657">
        <ele>969</ele>
        <time>2019-12-19T02:20:15Z</time>
      </trkpt>
      <trkpt lat="45.18911" lon="2.70643">
        <ele>969</ele>
        <time>2019-12-19T02:20:17Z</time>
      </trkpt>
      <trkpt lat="45.18912" lon="2.7062">
        <ele>970</ele>
        <time>2019-12-19T02:20:20Z</time>
      </trkpt>
      <trkpt lat="45.18916" lon="2.706">
        <ele>970</ele>
        <time>2019-12-19T02:20:22Z</time>
      </trkpt>
      <trkpt lat="45.18928" lon="2.70584">
        <ele>969</ele>
        <time>2019-12-19T02:20:25Z</time>
      </trkpt>
      <trkpt lat="45.18944" lon="2.70568">
        <ele>967</ele>
        <time>2019-12-19T02:20:29Z</time>
      </trkpt>
      <trkpt lat="45.18928" lon="2.70584">
        <ele>969</ele>
        <time>2019-12-19T02:20:32Z</time>
      </trkpt>
      <trkpt lat="45.18916" lon="2.706">
        <ele>970</ele>
        <time>2019-12-19T02:20:35Z</time>
      </trkpt>
      <trkpt lat="45.18912" lon="2.7062">
        <ele>970</ele>
        <time>2019-12-19T02:20:38Z</time>
      </trkpt>
      <trkpt lat="45.18911" lon="2.70643">
        <ele>969</ele>
        <time>2019-12-19T02:20:41Z</time>
      </trkpt>
      <trkpt lat="45.18906" lon="2.70657">
        <ele>969</ele>
        <time>2019-12-19T02:20:43Z</time>
      </trkpt>
      <trkpt lat="45.1887" lon="2.70695">
        <ele>967</ele>
        <time>2019-12-19T02:20:51Z</time>
      </trkpt>
      <trkpt lat="45.18864" lon="2.70737">
        <ele>965</ele>
        <time>2019-12-19T02:20:56Z</time>
      </trkpt>
      <trkpt lat="45.18853" lon="2.70762">
        <ele>964</ele>
        <time>2019-12-19T02:21:00Z</time>
      </trkpt>
      <trkpt lat="45.18845" lon="2.70773">
        <ele>964</ele>
        <time>2019-12-19T02:21:02Z</time>
      </trkpt>
      <trkpt lat="45.18829" lon="2.70777">
        <ele>964</ele>
        <time>2019-12-19T02:21:05Z</time>
      </trkpt>
      <trkpt lat="45.18821" lon="2.70795">
        <ele>963</ele>
        <time>2019-12-19T02:21:07Z</time>
      </trkpt>
      <trkpt lat="45.18821" lon="2.70813">
        <ele>962</ele>
        <time>2019-12-19T02:21:10Z</time>
      </trkpt>
      <trkpt lat="45.18826" lon="2.7085">
        <ele>961</ele>
        <time>2019-12-19T02:21:14Z</time>
      </trkpt>
      <trkpt lat="45.18837" lon="2.7089">
        <ele>960</ele>
        <time>2019-12-19T02:21:20Z</time>
      </trkpt>
      <trkpt lat="45.18838" lon="2.70914">
        <ele>960</ele>
        <time>2019-12-19T02:21:23Z</time>
      </trkpt>
      <trkpt lat="45.18835" lon="2.70976">
        <ele>961</ele>
        <time>2019-12-19T02:21:30Z</time>
      </trkpt>
      <trkpt lat="45.18832" lon="2.70987">
        <ele>961</ele>
        <time>2019-12-19T02:21:32Z</time>
      </trkpt>
      <trkpt lat="45.18795" lon="2.71027">
        <ele>963</ele>
        <time>2019-12-19T02:21:40Z</time>
      </trkpt>
      <trkpt lat="45.18787" lon="2.71043">
        <ele>963</ele>
        <time>2019-12-19T02:21:43Z</time>
      </trkpt>
      <trkpt lat="45.18785" lon="2.71064">
        <ele>963</ele>
        <time>2019-12-19T02:21:45Z</time>
      </trkpt>
      <trkpt lat="45.18792" lon="2.71094">
        <ele>964</ele>
        <time>2019-12-19T02:21:49Z</time>
      </trkpt>
      <trkpt lat="45.18797" lon="2.71112">
        <ele>964</ele>
        <time>2019-12-19T02:21:52Z</time>
      </trkpt>
      <trkpt lat="45.18798" lon="2.71123">
        <ele>965</ele>
        <time>2019-12-19T02:21:53Z</time>
      </trkpt>
      <trkpt lat="45.18798" lon="2.71141">
        <ele>965</ele>
        <time>2019-12-19T02:21:55Z</time>
      </trkpt>
      <trkpt lat="45.18796" lon="2.7116">
        <ele>966</ele>
        <time>2019-12-19T02:21:58Z</time>
      </trkpt>
      <trkpt lat="45.18786" lon="2.71198">
        <ele>967</ele>
        <time>2019-12-19T02:22:03Z</time>
      </trkpt>
      <trkpt lat="45.18781" lon="2.71246">
        <ele>968</ele>
        <time>2019-12-19T02:22:09Z</time>
      </trkpt>
      <trkpt lat="45.18773" lon="2.71281">
        <ele>969</ele>
        <time>2019-12-19T02:22:14Z</time>
      </trkpt>
      <trkpt lat="45.18751" lon="2.71342">
        <ele>971</ele>
        <time>2019-12-19T02:22:22Z</time>
      </trkpt>
      <trkpt lat="45.1875" lon="2.71364">
        <ele>972</ele>
        <time>2019-12-19T02:22:25Z</time>
      </trkpt>
      <trkpt lat="45.18751" lon="2.7138">
        <ele>972</ele>
        <time>2019-12-19T02:22:27Z</time>
      </trkpt>
      <trkpt lat="45.18754" lon="2.71398">
        <ele>973</ele>
        <time>2019-12-19T02:22:29Z</time>
      </trkpt>
      <trkpt lat="45.18786" lon="2.71481">
        <ele>975</ele>
        <time>2019-12-19T02:22:41Z</time>
      </trkpt>
      <trkpt lat="45.18797" lon="2.71526">
        <ele>977</ele>
        <time>2019-12-19T02:22:47Z</time>
      </trkpt>
      <trkpt lat="45.18777" lon="2.71541">
        <ele>977</ele>
        <time>2019-12-19T02:22:51Z</time>
      </trkpt>
      <trkpt lat="45.18736" lon="2.71556">
        <ele>976</ele>
        <time>2019-12-19T02:22:59Z</time>
      </trkpt>
      <trkpt lat="45.18723" lon="2.71565">
        <ele>977</ele>
        <time>2019-12-19T02:23:01Z</time>
      </trkpt>
      <trkpt lat="45.18666" lon="2.71621">
        <ele>978</ele>
        <time>2019-12-19T02:23:14Z</time>
      </trkpt>
      <trkpt lat="45.18655" lon="2.71636">
        <ele>978</ele>
        <time>2019-12-19T02:23:16Z</time>
      </trkpt>
      <trkpt lat="45.18641" lon="2.71664">
        <ele>979</ele>
        <time>2019-12-19T02:23:21Z</time>
      </trkpt>
      <trkpt lat="45.18626" lon="2.71684">
        <ele>980</ele>
        <time>2019-12-19T02:23:24Z</time>
      </trkpt>
      <trkpt lat="45.18565" lon="2.71742">
        <ele>981</ele>
        <time>2019-12-19T02:23:37Z</time>
      </trkpt>
      <trkpt lat="45.18512" lon="2.71788">
        <ele>983</ele>
        <time>2019-12-19T02:23:48Z</time>
      </trkpt>
      <trkpt lat="45.18469" lon="2.7181">
        <ele>983</ele>
        <time>2019-12-19T02:23:57Z</time>
      </trkpt>
      <trkpt lat="45.18431" lon="2.71853">
        <ele>985</ele>
        <time>2019-12-19T02:24:05Z</time>
      </trkpt>
      <trkpt lat="45.1832" lon="2.71928">
        <ele>988</ele>
        <time>2019-12-19T02:24:27Z</time>
      </trkpt>
      <trkpt lat="45.18255" lon="2.71984">
        <ele>992</ele>
        <time>2019-12-19T02:24:41Z</time>
      </trkpt>
      <trkpt lat="45.18202" lon="2.72009">
        <ele>995</ele>
        <time>2019-12-19T02:24:51Z</time>
      </trkpt>
      <trkpt lat="45.18085" lon="2.7199">
        <ele>993</ele>
        <time>2019-12-19T02:25:11Z</time>
      </trkpt>
      <trkpt lat="45.17938" lon="2.71954">
        <ele>989</ele>
        <time>2019-12-19T02:25:38Z</time>
      </trkpt>
      <trkpt lat="45.17677" lon="2.71886">
        <ele>989</ele>
        <time>2019-12-19T02:26:25Z</time>
      </trkpt>
      <trkpt lat="45.17616" lon="2.71822">
        <ele>991</ele>
        <time>2019-12-19T02:26:39Z</time>
      </trkpt>
      <trkpt lat="45.17518" lon="2.71747">
        <ele>994</ele>
        <time>2019-12-19T02:26:59Z</time>
      </trkpt>
      <trkpt lat="45.1743" lon="2.71683">
        <ele>994</ele>
        <time>2019-12-19T02:27:16Z</time>
      </trkpt>
      <trkpt lat="45.17408" lon="2.71668">
        <ele>995</ele>
        <time>2019-12-19T02:27:20Z</time>
      </trkpt>
      <trkpt lat="45.17363" lon="2.71637">
        <ele>999</ele>
        <time>2019-12-19T02:27:29Z</time>
      </trkpt>
      <trkpt lat="45.17305" lon="2.7159">
        <ele>1004</ele>
        <time>2019-12-19T02:27:41Z</time>
      </trkpt>
      <trkpt lat="45.1723" lon="2.71515">
        <ele>1006</ele>
        <time>2019-12-19T02:27:58Z</time>
      </trkpt>
      <trkpt lat="45.17166" lon="2.71486">
        <ele>1010</ele>
        <time>2019-12-19T02:28:10Z</time>
      </trkpt>
      <trkpt lat="45.1712" lon="2.71459">
        <ele>1010</ele>
        <time>2019-12-19T02:28:18Z</time>
      </trkpt>
      <trkpt lat="45.17075" lon="2.71426">
        <ele>1011</ele>
        <time>2019-12-19T02:28:27Z</time>
      </trkpt>
      <trkpt lat="45.16981" lon="2.71408">
        <ele>1014</ele>
        <time>2019-12-19T02:28:44Z</time>
      </trkpt>
      <trkpt lat="45.16912" lon="2.71393">
        <ele>1015</ele>
        <time>2019-12-19T02:28:57Z</time>
      </trkpt>
      <trkpt lat="45.16889" lon="2.714">
        <ele>1016</ele>
        <time>2019-12-19T02:29:01Z</time>
      </trkpt>
      <trkpt lat="45.16868" lon="2.71425">
        <ele>1018</ele>
        <time>2019-12-19T02:29:06Z</time>
      </trkpt>
      <trkpt lat="45.16833" lon="2.71428">
        <ele>1019</ele>
        <time>2019-12-19T02:29:12Z</time>
      </trkpt>
      <trkpt lat="45.16785" lon="2.71404">
        <ele>1020</ele>
        <time>2019-12-19T02:29:21Z</time>
      </trkpt>
      <trkpt lat="45.16752" lon="2.714">
        <ele>1021</ele>
        <time>2019-12-19T02:29:27Z</time>
      </trkpt>
      <trkpt lat="45.16744" lon="2.71399">
        <ele>1021</ele>
        <time>2019-12-19T02:29:28Z</time>
      </trkpt>
      <trkpt lat="45.16739" lon="2.71397">
        <ele>1022</ele>
        <time>2019-12-19T02:29:29Z</time>
      </trkpt>
      <trkpt lat="45.16734" lon="2.71391">
        <ele>1022</ele>
        <time>2019-12-19T02:29:30Z</time>
      </trkpt>
      <trkpt lat="45.16709" lon="2.71352">
        <ele>1021</ele>
        <time>2019-12-19T02:29:37Z</time>
      </trkpt>
      <trkpt lat="45.16666" lon="2.71269">
        <ele>1017</ele>
        <time>2019-12-19T02:29:50Z</time>
      </trkpt>
      <trkpt lat="45.16645" lon="2.71172">
        <ele>1016</ele>
        <time>2019-12-19T02:30:03Z</time>
      </trkpt>
      <trkpt lat="45.16643" lon="2.71151">
        <ele>1016</ele>
        <time>2019-12-19T02:30:05Z</time>
      </trkpt>
      <trkpt lat="45.16647" lon="2.71131">
        <ele>1016</ele>
        <time>2019-12-19T02:30:08Z</time>
      </trkpt>
      <trkpt lat="45.16649" lon="2.71124">
        <ele>1017</ele>
        <time>2019-12-19T02:30:09Z</time>
      </trkpt>
      <trkpt lat="45.16648" lon="2.71109">
        <ele>1017</ele>
        <time>2019-12-19T02:30:11Z</time>
      </trkpt>
      <trkpt lat="45.1663" lon="2.7109">
        <ele>1017</ele>
        <time>2019-12-19T02:30:15Z</time>
      </trkpt>
      <trkpt lat="45.1658" lon="2.71055">
        <ele>1016</ele>
        <time>2019-12-19T02:30:25Z</time>
      </trkpt>
      <trkpt lat="45.16563" lon="2.71034">
        <ele>1017</ele>
        <time>2019-12-19T02:30:29Z</time>
      </trkpt>
      <trkpt lat="45.1655" lon="2.70995">
        <ele>1018</ele>
        <time>2019-12-19T02:30:34Z</time>
      </trkpt>
      <trkpt lat="45.16533" lon="2.70949">
        <ele>1020</ele>
        <time>2019-12-19T02:30:41Z</time>
      </trkpt>
      <trkpt lat="45.16535" lon="2.70895">
        <ele>1023</ele>
        <time>2019-12-19T02:30:47Z</time>
      </trkpt>
      <trkpt lat="45.16531" lon="2.70878">
        <ele>1024</ele>
        <time>2019-12-19T02:30:50Z</time>
      </trkpt>
      <trkpt lat="45.16519" lon="2.70866">
        <ele>1024</ele>
        <time>2019-12-19T02:30:52Z</time>
      </trkpt>
      <trkpt lat="45.16445" lon="2.70823">
        <ele>1027</ele>
        <time>2019-12-19T02:31:07Z</time>
      </trkpt>
      <trkpt lat="45.16413" lon="2.70799">
        <ele>1028</ele>
        <time>2019-12-19T02:31:13Z</time>
      </trkpt>
      <trkpt lat="45.16331" lon="2.70765">
        <ele>1032</ele>
        <time>2019-12-19T02:31:28Z</time>
      </trkpt>
      <trkpt lat="45.163" lon="2.70736">
        <ele>1033</ele>
        <time>2019-12-19T02:31:35Z</time>
      </trkpt>
      <trkpt lat="45.16262" lon="2.70735">
        <ele>1033</ele>
        <time>2019-12-19T02:31:42Z</time>
      </trkpt>
      <trkpt lat="45.16204" lon="2.70699">
        <ele>1034</ele>
        <time>2019-12-19T02:31:53Z</time>
      </trkpt>
      <trkpt lat="45.16161" lon="2.70699">
        <ele>1034</ele>
        <time>2019-12-19T02:32:00Z</time>
      </trkpt>
      <trkpt lat="45.16094" lon="2.70713">
        <ele>1034</ele>
        <time>2019-12-19T02:32:13Z</time>
      </trkpt>
      <trkpt lat="45.16077" lon="2.70705">
        <ele>1035</ele>
        <time>2019-12-19T02:32:16Z</time>
      </trkpt>
      <trkpt lat="45.16058" lon="2.70676">
        <ele>1037</ele>
        <time>2019-12-19T02:32:21Z</time>
      </trkpt>
      <trkpt lat="45.16047" lon="2.70629">
        <ele>1038</ele>
        <time>2019-12-19T02:32:27Z</time>
      </trkpt>
      <trkpt lat="45.16025" lon="2.70614">
        <ele>1038</ele>
        <time>2019-12-19T02:32:31Z</time>
      </trkpt>
      <trkpt lat="45.1593" lon="2.70591">
        <ele>1038</ele>
        <time>2019-12-19T02:32:48Z</time>
      </trkpt>
      <trkpt lat="45.15905" lon="2.70583">
        <ele>1038</ele>
        <time>2019-12-19T02:32:53Z</time>
      </trkpt>
      <trkpt lat="45.15822" lon="2.70545">
        <ele>1039</ele>
        <time>2019-12-19T02:33:08Z</time>
      </trkpt>
      <trkpt lat="45.15785" lon="2.7051">
        <ele>1038</ele>
        <time>2019-12-19T02:33:16Z</time>
      </trkpt>
      <trkpt lat="45.15748" lon="2.70472">
        <ele>1036</ele>
        <time>2019-12-19T02:33:25Z</time>
      </trkpt>
      <trkpt lat="45.1573" lon="2.70399">
        <ele>1037</ele>
        <time>2019-12-19T02:33:34Z</time>
      </trkpt>
      <trkpt lat="45.15723" lon="2.70347">
        <ele>1040</ele>
        <time>2019-12-19T02:33:41Z</time>
      </trkpt>
      <trkpt lat="45.15707" lon="2.70328">
        <ele>1040</ele>
        <time>2019-12-19T02:33:45Z</time>
      </trkpt>
      <trkpt lat="45.15688" lon="2.70313">
        <ele>1040</ele>
        <time>2019-12-19T02:33:48Z</time>
      </trkpt>
      <trkpt lat="45.15629" lon="2.70285">
        <ele>1039</ele>
        <time>2019-12-19T02:34:00Z</time>
      </trkpt>
      <trkpt lat="45.15584" lon="2.70262">
        <ele>1040</ele>
        <time>2019-12-19T02:34:08Z</time>
      </trkpt>
      <trkpt lat="45.15568" lon="2.70259">
        <ele>1040</ele>
        <time>2019-12-19T02:34:11Z</time>
      </trkpt>
      <trkpt lat="45.15505" lon="2.70269">
        <ele>1039</ele>
        <time>2019-12-19T02:34:22Z</time>
      </trkpt>
      <trkpt lat="45.15489" lon="2.70269">
        <ele>1038</ele>
        <time>2019-12-19T02:34:25Z</time>
      </trkpt>
      <trkpt lat="45.15467" lon="2.70251">
        <ele>1039</ele>
        <time>2019-12-19T02:34:30Z</time>
      </trkpt>
      <trkpt lat="45.15445" lon="2.70238">
        <ele>1040</ele>
        <time>2019-12-19T02:34:34Z</time>
      </trkpt>
      <trkpt lat="45.15361" lon="2.70221">
        <ele>1040</ele>
        <time>2019-12-19T02:34:49Z</time>
      </trkpt>
      <trkpt lat="45.15269" lon="2.70141">
        <ele>1044</ele>
        <time>2019-12-19T02:35:08Z</time>
      </trkpt>
      <trkpt lat="45.15224" lon="2.70117">
        <ele>1044</ele>
        <time>2019-12-19T02:35:17Z</time>
      </trkpt>
      <trkpt lat="45.1511" lon="2.7002">
        <ele>1047</ele>
        <time>2019-12-19T02:35:40Z</time>
      </trkpt>
      <trkpt lat="45.14965" lon="2.69954">
        <ele>1051</ele>
        <time>2019-12-19T02:36:07Z</time>
      </trkpt>
      <trkpt lat="45.14945" lon="2.6994">
        <ele>1050</ele>
        <time>2019-12-19T02:36:11Z</time>
      </trkpt>
      <trkpt lat="45.14907" lon="2.69899">
        <ele>1052</ele>
        <time>2019-12-19T02:36:20Z</time>
      </trkpt>
      <trkpt lat="45.14882" lon="2.69877">
        <ele>1053</ele>
        <time>2019-12-19T02:36:25Z</time>
      </trkpt>
      <trkpt lat="45.14812" lon="2.69848">
        <ele>1050</ele>
        <time>2019-12-19T02:36:38Z</time>
      </trkpt>
      <trkpt lat="45.1477" lon="2.69817">
        <ele>1049</ele>
        <time>2019-12-19T02:36:47Z</time>
      </trkpt>
      <trkpt lat="45.14746" lon="2.6981">
        <ele>1047</ele>
        <time>2019-12-19T02:36:51Z</time>
      </trkpt>
      <trkpt lat="45.14726" lon="2.69815">
        <ele>1045</ele>
        <time>2019-12-19T02:36:54Z</time>
      </trkpt>
      <trkpt lat="45.14695" lon="2.69833">
        <ele>1042</ele>
        <time>2019-12-19T02:37:00Z</time>
      </trkpt>
      <trkpt lat="45.14665" lon="2.69848">
        <ele>1041</ele>
        <time>2019-12-19T02:37:06Z</time>
      </trkpt>
      <trkpt lat="45.14605" lon="2.69853">
        <ele>1041</ele>
        <time>2019-12-19T02:37:17Z</time>
      </trkpt>
      <trkpt lat="45.14443" lon="2.69857">
        <ele>1042</ele>
        <time>2019-12-19T02:37:46Z</time>
      </trkpt>
      <trkpt lat="45.14404" lon="2.69847">
        <ele>1042</ele>
        <time>2019-12-19T02:37:53Z</time>
      </trkpt>
      <trkpt lat="45.14373" lon="2.69835">
        <ele>1043</ele>
        <time>2019-12-19T02:37:58Z</time>
      </trkpt>
      <trkpt lat="45.14285" lon="2.69803">
        <ele>1044</ele>
        <time>2019-12-19T02:38:15Z</time>
      </trkpt>
      <trkpt lat="45.14155" lon="2.69687">
        <ele>1047</ele>
        <time>2019-12-19T02:38:42Z</time>
      </trkpt>
      <trkpt lat="45.14127" lon="2.69673">
        <ele>1047</ele>
        <time>2019-12-19T02:38:47Z</time>
      </trkpt>
      <trkpt lat="45.14086" lon="2.69675">
        <ele>1048</ele>
        <time>2019-12-19T02:38:54Z</time>
      </trkpt>
      <trkpt lat="45.13851" lon="2.69732">
        <ele>1063</ele>
        <time>2019-12-19T02:39:37Z</time>
      </trkpt>
      <trkpt lat="45.13803" lon="2.69755">
        <ele>1068</ele>
        <time>2019-12-19T02:39:46Z</time>
      </trkpt>
      <trkpt lat="45.1377" lon="2.69857">
        <ele>1077</ele>
        <time>2019-12-19T02:40:00Z</time>
      </trkpt>
      <trkpt lat="45.13753" lon="2.69868">
        <ele>1080</ele>
        <time>2019-12-19T02:40:03Z</time>
      </trkpt>
      <trkpt lat="45.13733" lon="2.69859">
        <ele>1081</ele>
        <time>2019-12-19T02:40:07Z</time>
      </trkpt>
      <trkpt lat="45.13701" lon="2.69794">
        <ele>1082</ele>
        <time>2019-12-19T02:40:17Z</time>
      </trkpt>
      <trkpt lat="45.1362" lon="2.69771">
        <ele>1089</ele>
        <time>2019-12-19T02:40:32Z</time>
      </trkpt>
      <trkpt lat="45.13561" lon="2.69736">
        <ele>1093</ele>
        <time>2019-12-19T02:40:43Z</time>
      </trkpt>
      <trkpt lat="45.13541" lon="2.69729">
        <ele>1094</ele>
        <time>2019-12-19T02:40:47Z</time>
      </trkpt>
      <trkpt lat="45.13525" lon="2.69731">
        <ele>1095</ele>
        <time>2019-12-19T02:40:50Z</time>
      </trkpt>
      <trkpt lat="45.13516" lon="2.69744">
        <ele>1096</ele>
        <time>2019-12-19T02:40:52Z</time>
      </trkpt>
      <trkpt lat="45.13512" lon="2.69893">
        <ele>1107</ele>
        <time>2019-12-19T02:41:11Z</time>
      </trkpt>
      <trkpt lat="45.13498" lon="2.69951">
        <ele>1117</ele>
        <time>2019-12-19T02:41:18Z</time>
      </trkpt>
      <trkpt lat="45.13502" lon="2.6997">
        <ele>1118</ele>
        <time>2019-12-19T02:41:21Z</time>
      </trkpt>
      <trkpt lat="45.13521" lon="2.7002">
        <ele>1123</ele>
        <time>2019-12-19T02:41:28Z</time>
      </trkpt>
      <trkpt lat="45.13518" lon="2.70027">
        <ele>1125</ele>
        <time>2019-12-19T02:41:29Z</time>
      </trkpt>
      <trkpt lat="45.1351" lon="2.70028">
        <ele>1127</ele>
        <time>2019-12-19T02:41:30Z</time>
      </trkpt>
      <trkpt lat="45.13502" lon="2.70018">
        <ele>1127</ele>
        <time>2019-12-19T02:41:32Z</time>
      </trkpt>
      <trkpt lat="45.13414" lon="2.69881">
        <ele>1130</ele>
        <time>2019-12-19T02:41:56Z</time>
      </trkpt>
      <trkpt lat="45.13399" lon="2.69866">
        <ele>1130</ele>
        <time>2019-12-19T02:41:59Z</time>
      </trkpt>
      <trkpt lat="45.13282" lon="2.69844">
        <ele>1152</ele>
        <time>2019-12-19T02:42:20Z</time>
      </trkpt>
      <trkpt lat="45.13262" lon="2.69835">
        <ele>1155</ele>
        <time>2019-12-19T02:42:24Z</time>
      </trkpt>
      <trkpt lat="45.1322" lon="2.69801">
        <ele>1162</ele>
        <time>2019-12-19T02:42:32Z</time>
      </trkpt>
      <trkpt lat="45.13172" lon="2.6977">
        <ele>1170</ele>
        <time>2019-12-19T02:42:42Z</time>
      </trkpt>
      <trkpt lat="45.13151" lon="2.69728">
        <ele>1166</ele>
        <time>2019-12-19T02:42:48Z</time>
      </trkpt>
      <trkpt lat="45.13144" lon="2.69723">
        <ele>1167</ele>
        <time>2019-12-19T02:42:49Z</time>
      </trkpt>
      <trkpt lat="45.13139" lon="2.69725">
        <ele>1169</ele>
        <time>2019-12-19T02:42:50Z</time>
      </trkpt>
      <trkpt lat="45.13136" lon="2.69735">
        <ele>1172</ele>
        <time>2019-12-19T02:42:52Z</time>
      </trkpt>
      <trkpt lat="45.13158" lon="2.69776">
        <ele>1177</ele>
        <time>2019-12-19T02:42:58Z</time>
      </trkpt>
      <trkpt lat="45.13184" lon="2.69848">
        <ele>1187</ele>
        <time>2019-12-19T02:43:08Z</time>
      </trkpt>
      <trkpt lat="45.1323" lon="2.69901">
        <ele>1182</ele>
        <time>2019-12-19T02:43:19Z</time>
      </trkpt>
      <trkpt lat="45.13235" lon="2.69952">
        <ele>1192</ele>
        <time>2019-12-19T02:43:25Z</time>
      </trkpt>
      <trkpt lat="45.13242" lon="2.69983">
        <ele>1196</ele>
        <time>2019-12-19T02:43:29Z</time>
      </trkpt>
      <trkpt lat="45.13304" lon="2.70057">
        <ele>1197</ele>
        <time>2019-12-19T02:43:44Z</time>
      </trkpt>
      <trkpt lat="45.13327" lon="2.70097">
        <ele>1200</ele>
        <time>2019-12-19T02:43:50Z</time>
      </trkpt>
      <trkpt lat="45.13336" lon="2.70126">
        <ele>1202</ele>
        <time>2019-12-19T02:43:54Z</time>
      </trkpt>
      <trkpt lat="45.13328" lon="2.70152">
        <ele>1208</ele>
        <time>2019-12-19T02:43:58Z</time>
      </trkpt>
      <trkpt lat="45.13318" lon="2.70178">
        <ele>1215</ele>
        <time>2019-12-19T02:44:02Z</time>
      </trkpt>
      <trkpt lat="45.13332" lon="2.70226">
        <ele>1218</ele>
        <time>2019-12-19T02:44:08Z</time>
      </trkpt>
      <trkpt lat="45.13345" lon="2.70259">
        <ele>1219</ele>
        <time>2019-12-19T02:44:13Z</time>
      </trkpt>
      <trkpt lat="45.13358" lon="2.70278">
        <ele>1220</ele>
        <time>2019-12-19T02:44:16Z</time>
      </trkpt>
      <trkpt lat="45.13399" lon="2.70322">
        <ele>1216</ele>
        <time>2019-12-19T02:44:25Z</time>
      </trkpt>
      <trkpt lat="45.13405" lon="2.70334">
        <ele>1217</ele>
        <time>2019-12-19T02:44:27Z</time>
      </trkpt>
      <trkpt lat="45.13406" lon="2.70343">
        <ele>1219</ele>
        <time>2019-12-19T02:44:28Z</time>
      </trkpt>
      <trkpt lat="45.13406" lon="2.7035">
        <ele>1221</ele>
        <time>2019-12-19T02:44:29Z</time>
      </trkpt>
      <trkpt lat="45.13403" lon="2.70356">
        <ele>1224</ele>
        <time>2019-12-19T02:44:30Z</time>
      </trkpt>
      <trkpt lat="45.13398" lon="2.70358">
        <ele>1226</ele>
        <time>2019-12-19T02:44:31Z</time>
      </trkpt>
      <trkpt lat="45.13394" lon="2.70356">
        <ele>1228</ele>
        <time>2019-12-19T02:44:32Z</time>
      </trkpt>
      <trkpt lat="45.13375" lon="2.70326">
        <ele>1228</ele>
        <time>2019-12-19T02:44:37Z</time>
      </trkpt>
      <trkpt lat="45.13361" lon="2.70313">
        <ele>1230</ele>
        <time>2019-12-19T02:44:40Z</time>
      </trkpt>
      <trkpt lat="45.13323" lon="2.70302">
        <ele>1241</ele>
        <time>2019-12-19T02:44:47Z</time>
      </trkpt>
      <trkpt lat="45.13276" lon="2.70282">
        <ele>1250</ele>
        <time>2019-12-19T02:44:55Z</time>
      </trkpt>
      <trkpt lat="45.13253" lon="2.70261">
        <ele>1249</ele>
        <time>2019-12-19T02:45:00Z</time>
      </trkpt>
      <trkpt lat="45.13229" lon="2.70225">
        <ele>1252</ele>
        <time>2019-12-19T02:45:06Z</time>
      </trkpt>
      <trkpt lat="45.13181" lon="2.70119">
        <ele>1251</ele>
        <time>2019-12-19T02:45:22Z</time>
      </trkpt>
      <trkpt lat="45.13158" lon="2.70077">
        <ele>1254</ele>
        <time>2019-12-19T02:45:29Z</time>
      </trkpt>
      <trkpt lat="45.13135" lon="2.70027">
        <ele>1256</ele>
        <time>2019-12-19T02:45:36Z</time>
      </trkpt>
      <trkpt lat="45.13109" lon="2.69989">
        <ele>1259</ele>
        <time>2019-12-19T02:45:43Z</time>
      </trkpt>
      <trkpt lat="45.13069" lon="2.6995">
        <ele>1265</ele>
        <time>2019-12-19T02:45:52Z</time>
      </trkpt>
      <trkpt lat="45.13021" lon="2.69912">
        <ele>1266</ele>
        <time>2019-12-19T02:46:02Z</time>
      </trkpt>
      <trkpt lat="45.12971" lon="2.69904">
        <ele>1278</ele>
        <time>2019-12-19T02:46:10Z</time>
      </trkpt>
      <trkpt lat="45.12925" lon="2.69882">
        <ele>1282</ele>
        <time>2019-12-19T02:46:19Z</time>
      </trkpt>
      <trkpt lat="45.12865" lon="2.69819">
        <ele>1285</ele>
        <time>2019-12-19T02:46:32Z</time>
      </trkpt>
      <trkpt lat="45.1285" lon="2.69818">
        <ele>1292</ele>
        <time>2019-12-19T02:46:35Z</time>
      </trkpt>
      <trkpt lat="45.12843" lon="2.69809">
        <ele>1292</ele>
        <time>2019-12-19T02:46:37Z</time>
      </trkpt>
      <trkpt lat="45.12836" lon="2.69792">
        <ele>1289</ele>
        <time>2019-12-19T02:46:39Z</time>
      </trkpt>
      <trkpt lat="45.12823" lon="2.69776">
        <ele>1288</ele>
        <time>2019-12-19T02:46:42Z</time>
      </trkpt>
      <trkpt lat="45.12768" lon="2.69741">
        <ele>1297</ele>
        <time>2019-12-19T02:46:53Z</time>
      </trkpt>
      <trkpt lat="45.1275" lon="2.69716">
        <ele>1297</ele>
        <time>2019-12-19T02:46:58Z</time>
      </trkpt>
      <trkpt lat="45.12745" lon="2.69713">
        <ele>1297</ele>
        <time>2019-12-19T02:46:58Z</time>
      </trkpt>
      <trkpt lat="45.1274" lon="2.69713">
        <ele>1299</ele>
        <time>2019-12-19T02:46:59Z</time>
      </trkpt>
      <trkpt lat="45.12736" lon="2.69722">
        <ele>1304</ele>
        <time>2019-12-19T02:47:01Z</time>
      </trkpt>
      <trkpt lat="45.12736" lon="2.69734">
        <ele>1308</ele>
        <time>2019-12-19T02:47:02Z</time>
      </trkpt>
      <trkpt lat="45.12754" lon="2.69752">
        <ele>1307</ele>
        <time>2019-12-19T02:47:06Z</time>
      </trkpt>
      <trkpt lat="45.12798" lon="2.69788">
        <ele>1302</ele>
        <time>2019-12-19T02:47:15Z</time>
      </trkpt>
      <trkpt lat="45.12809" lon="2.69806">
        <ele>1305</ele>
        <time>2019-12-19T02:47:18Z</time>
      </trkpt>
      <trkpt lat="45.12825" lon="2.69847">
        <ele>1313</ele>
        <time>2019-12-19T02:47:24Z</time>
      </trkpt>
      <trkpt lat="45.12846" lon="2.6987">
        <ele>1311</ele>
        <time>2019-12-19T02:47:29Z</time>
      </trkpt>
      <trkpt lat="45.12862" lon="2.69908">
        <ele>1316</ele>
        <time>2019-12-19T02:47:34Z</time>
      </trkpt>
      <trkpt lat="45.1289" lon="2.6995">
        <ele>1319</ele>
        <time>2019-12-19T02:47:42Z</time>
      </trkpt>
      <trkpt lat="45.12939" lon="2.70001">
        <ele>1325</ele>
        <time>2019-12-19T02:47:52Z</time>
      </trkpt>
      <trkpt lat="45.12984" lon="2.70031">
        <ele>1322</ele>
        <time>2019-12-19T02:48:01Z</time>
      </trkpt>
      <trkpt lat="45.13013" lon="2.70077">
        <ele>1326</ele>
        <time>2019-12-19T02:48:09Z</time>
      </trkpt>
      <trkpt lat="45.13035" lon="2.70105">
        <ele>1324</ele>
        <time>2019-12-19T02:48:14Z</time>
      </trkpt>
      <trkpt lat="45.1305" lon="2.70119">
        <ele>1323</ele>
        <time>2019-12-19T02:48:17Z</time>
      </trkpt>
      <trkpt lat="45.13056" lon="2.70133">
        <ele>1323</ele>
        <time>2019-12-19T02:48:19Z</time>
      </trkpt>
      <trkpt lat="45.1306" lon="2.70149">
        <ele>1325</ele>
        <time>2019-12-19T02:48:22Z</time>
      </trkpt>
      <trkpt lat="45.13058" lon="2.7018">
        <ele>1328</ele>
        <time>2019-12-19T02:48:26Z</time>
      </trkpt>
      <trkpt lat="45.13039" lon="2.70304">
        <ele>1323</ele>
        <time>2019-12-19T02:48:41Z</time>
      </trkpt>
      <trkpt lat="45.13038" lon="2.70316">
        <ele>1323</ele>
        <time>2019-12-19T02:48:43Z</time>
      </trkpt>
      <trkpt lat="45.13039" lon="2.70329">
        <ele>1322</ele>
        <time>2019-12-19T02:48:45Z</time>
      </trkpt>
      <trkpt lat="45.13044" lon="2.70344">
        <ele>1320</ele>
        <time>2019-12-19T02:48:47Z</time>
      </trkpt>
      <trkpt lat="45.13054" lon="2.70362">
        <ele>1319</ele>
        <time>2019-12-19T02:48:50Z</time>
      </trkpt>
      <trkpt lat="45.13073" lon="2.70388">
        <ele>1319</ele>
        <time>2019-12-19T02:48:54Z</time>
      </trkpt>
      <trkpt lat="45.13093" lon="2.7041">
        <ele>1320</ele>
        <time>2019-12-19T02:48:59Z</time>
      </trkpt>
      <trkpt lat="45.13101" lon="2.70423">
        <ele>1320</ele>
        <time>2019-12-19T02:49:01Z</time>
      </trkpt>
      <trkpt lat="45.1312" lon="2.70488">
        <ele>1315</ele>
        <time>2019-12-19T02:49:10Z</time>
      </trkpt>
      <trkpt lat="45.13156" lon="2.70624">
        <ele>1310</ele>
        <time>2019-12-19T02:49:28Z</time>
      </trkpt>
      <trkpt lat="45.13173" lon="2.70674">
        <ele>1310</ele>
        <time>2019-12-19T02:49:35Z</time>
      </trkpt>
      <trkpt lat="45.13218" lon="2.70861">
        <ele>1305</ele>
        <time>2019-12-19T02:50:00Z</time>
      </trkpt>
      <trkpt lat="45.13223" lon="2.709">
        <ele>1303</ele>
        <time>2019-12-19T02:50:05Z</time>
      </trkpt>
      <trkpt lat="45.13226" lon="2.70944">
        <ele>1299</ele>
        <time>2019-12-19T02:50:10Z</time>
      </trkpt>
      <trkpt lat="45.1324" lon="2.71021">
        <ele>1296</ele>
        <time>2019-12-19T02:50:20Z</time>
      </trkpt>
      <trkpt lat="45.13243" lon="2.71058">
        <ele>1294</ele>
        <time>2019-12-19T02:50:25Z</time>
      </trkpt>
      <trkpt lat="45.13243" lon="2.71082">
        <ele>1292</ele>
        <time>2019-12-19T02:50:28Z</time>
      </trkpt>
      <trkpt lat="45.13241" lon="2.7111">
        <ele>1290</ele>
        <time>2019-12-19T02:50:31Z</time>
      </trkpt>
      <trkpt lat="45.13241" lon="2.7117">
        <ele>1289</ele>
        <time>2019-12-19T02:50:39Z</time>
      </trkpt>
      <trkpt lat="45.13243" lon="2.71214">
        <ele>1286</ele>
        <time>2019-12-19T02:50:45Z</time>
      </trkpt>
      <trkpt lat="45.1325" lon="2.71279">
        <ele>1283</ele>
        <time>2019-12-19T02:50:53Z</time>
      </trkpt>
      <trkpt lat="45.13277" lon="2.71393">
        <ele>1281</ele>
        <time>2019-12-19T02:51:08Z</time>
      </trkpt>
      <trkpt lat="45.13303" lon="2.71572">
        <ele>1272</ele>
        <time>2019-12-19T02:51:31Z</time>
      </trkpt>
      <trkpt lat="45.13342" lon="2.71807">
        <ele>1261</ele>
        <time>2019-12-19T02:52:01Z</time>
      </trkpt>
      <trkpt lat="45.13358" lon="2.71921">
        <ele>1253</ele>
        <time>2019-12-19T02:52:16Z</time>
      </trkpt>
      <trkpt lat="45.13371" lon="2.72064">
        <ele>1243</ele>
        <time>2019-12-19T02:52:34Z</time>
      </trkpt>
      <trkpt lat="45.13381" lon="2.72102">
        <ele>1241</ele>
        <time>2019-12-19T02:52:39Z</time>
      </trkpt>
      <trkpt lat="45.13431" lon="2.722">
        <ele>1242</ele>
        <time>2019-12-19T02:52:54Z</time>
      </trkpt>
      <trkpt lat="45.13437" lon="2.72222">
        <ele>1240</ele>
        <time>2019-12-19T02:52:57Z</time>
      </trkpt>
      <trkpt lat="45.13439" lon="2.7228">
        <ele>1233</ele>
        <time>2019-12-19T02:53:04Z</time>
      </trkpt>
      <trkpt lat="45.13445" lon="2.72295">
        <ele>1233</ele>
        <time>2019-12-19T02:53:07Z</time>
      </trkpt>
      <trkpt lat="45.13466" lon="2.72322">
        <ele>1236</ele>
        <time>2019-12-19T02:53:12Z</time>
      </trkpt>
      <trkpt lat="45.13467" lon="2.72332">
        <ele>1235</ele>
        <time>2019-12-19T02:53:13Z</time>
      </trkpt>
      <trkpt lat="45.13463" lon="2.72346">
        <ele>1234</ele>
        <time>2019-12-19T02:53:15Z</time>
      </trkpt>
      <trkpt lat="45.13453" lon="2.72361">
        <ele>1231</ele>
        <time>2019-12-19T02:53:17Z</time>
      </trkpt>
      <trkpt lat="45.13447" lon="2.72376">
        <ele>1229</ele>
        <time>2019-12-19T02:53:19Z</time>
      </trkpt>
      <trkpt lat="45.13444" lon="2.72394">
        <ele>1228</ele>
        <time>2019-12-19T02:53:22Z</time>
      </trkpt>
      <trkpt lat="45.13445" lon="2.72434">
        <ele>1228</ele>
        <time>2019-12-19T02:53:27Z</time>
      </trkpt>
      <trkpt lat="45.13458" lon="2.72598">
        <ele>1224</ele>
        <time>2019-12-19T02:53:48Z</time>
      </trkpt>
      <trkpt lat="45.13472" lon="2.72699">
        <ele>1222</ele>
        <time>2019-12-19T02:54:00Z</time>
      </trkpt>
      <trkpt lat="45.1349" lon="2.728">
        <ele>1218</ele>
        <time>2019-12-19T02:54:14Z</time>
      </trkpt>
      <trkpt lat="45.13514" lon="2.72896">
        <ele>1214</ele>
        <time>2019-12-19T02:54:26Z</time>
      </trkpt>
      <trkpt lat="45.13545" lon="2.72996">
        <ele>1208</ele>
        <time>2019-12-19T02:54:40Z</time>
      </trkpt>
      <trkpt lat="45.1356" lon="2.73031">
        <ele>1205</ele>
        <time>2019-12-19T02:54:45Z</time>
      </trkpt>
      <trkpt lat="45.13579" lon="2.73064">
        <ele>1203</ele>
        <time>2019-12-19T02:54:51Z</time>
      </trkpt>
      <trkpt lat="45.13593" lon="2.73095">
        <ele>1201</ele>
        <time>2019-12-19T02:54:55Z</time>
      </trkpt>
      <trkpt lat="45.13607" lon="2.73135">
        <ele>1197</ele>
        <time>2019-12-19T02:55:01Z</time>
      </trkpt>
      <trkpt lat="45.13625" lon="2.73168">
        <ele>1196</ele>
        <time>2019-12-19T02:55:06Z</time>
      </trkpt>
      <trkpt lat="45.13632" lon="2.73177">
        <ele>1197</ele>
        <time>2019-12-19T02:55:08Z</time>
      </trkpt>
      <trkpt lat="45.13633" lon="2.73187">
        <ele>1197</ele>
        <time>2019-12-19T02:55:09Z</time>
      </trkpt>
      <trkpt lat="45.13621" lon="2.73251">
        <ele>1187</ele>
        <time>2019-12-19T02:55:17Z</time>
      </trkpt>
      <trkpt lat="45.13621" lon="2.73282">
        <ele>1186</ele>
        <time>2019-12-19T02:55:21Z</time>
      </trkpt>
      <trkpt lat="45.13623" lon="2.73299">
        <ele>1186</ele>
        <time>2019-12-19T02:55:23Z</time>
      </trkpt>
      <trkpt lat="45.13622" lon="2.73315">
        <ele>1185</ele>
        <time>2019-12-19T02:55:25Z</time>
      </trkpt>
      <trkpt lat="45.13611" lon="2.73377">
        <ele>1178</ele>
        <time>2019-12-19T02:55:33Z</time>
      </trkpt>
      <trkpt lat="45.13609" lon="2.73423">
        <ele>1175</ele>
        <time>2019-12-19T02:55:39Z</time>
      </trkpt>
      <trkpt lat="45.1361" lon="2.7349">
        <ele>1173</ele>
        <time>2019-12-19T02:55:48Z</time>
      </trkpt>
      <trkpt lat="45.13615" lon="2.73531">
        <ele>1171</ele>
        <time>2019-12-19T02:55:53Z</time>
      </trkpt>
      <trkpt lat="45.13617" lon="2.73562">
        <ele>1170</ele>
        <time>2019-12-19T02:55:57Z</time>
      </trkpt>
      <trkpt lat="45.13613" lon="2.73612">
        <ele>1165</ele>
        <time>2019-12-19T02:56:03Z</time>
      </trkpt>
      <trkpt lat="45.13619" lon="2.73658">
        <ele>1163</ele>
        <time>2019-12-19T02:56:09Z</time>
      </trkpt>
      <trkpt lat="45.1362" lon="2.73691">
        <ele>1160</ele>
        <time>2019-12-19T02:56:13Z</time>
      </trkpt>
      <trkpt lat="45.13624" lon="2.73706">
        <ele>1160</ele>
        <time>2019-12-19T02:56:15Z</time>
      </trkpt>
      <trkpt lat="45.13637" lon="2.73734">
        <ele>1160</ele>
        <time>2019-12-19T02:56:19Z</time>
      </trkpt>
      <trkpt lat="45.13681" lon="2.7385">
        <ele>1158</ele>
        <time>2019-12-19T02:56:36Z</time>
      </trkpt>
      <trkpt lat="45.13695" lon="2.73921">
        <ele>1153</ele>
        <time>2019-12-19T02:56:45Z</time>
      </trkpt>
      <trkpt lat="45.13723" lon="2.73976">
        <ele>1151</ele>
        <time>2019-12-19T02:56:54Z</time>
      </trkpt>
      <trkpt lat="45.13729" lon="2.73996">
        <ele>1150</ele>
        <time>2019-12-19T02:56:56Z</time>
      </trkpt>
      <trkpt lat="45.13729" lon="2.74012">
        <ele>1148</ele>
        <time>2019-12-19T02:56:58Z</time>
      </trkpt>
      <trkpt lat="45.13724" lon="2.74035">
        <ele>1145</ele>
        <time>2019-12-19T02:57:01Z</time>
      </trkpt>
      <trkpt lat="45.13724" lon="2.74052">
        <ele>1143</ele>
        <time>2019-12-19T02:57:03Z</time>
      </trkpt>
      <trkpt lat="45.13728" lon="2.74066">
        <ele>1142</ele>
        <time>2019-12-19T02:57:05Z</time>
      </trkpt>
      <trkpt lat="45.13742" lon="2.74102">
        <ele>1142</ele>
        <time>2019-12-19T02:57:10Z</time>
      </trkpt>
      <trkpt lat="45.13752" lon="2.74188">
        <ele>1136</ele>
        <time>2019-12-19T02:57:21Z</time>
      </trkpt>
      <trkpt lat="45.13769" lon="2.74323">
        <ele>1126</ele>
        <time>2019-12-19T02:57:39Z</time>
      </trkpt>
      <trkpt lat="45.13775" lon="2.74351">
        <ele>1125</ele>
        <time>2019-12-19T02:57:42Z</time>
      </trkpt>
      <trkpt lat="45.13786" lon="2.74379">
        <ele>1124</ele>
        <time>2019-12-19T02:57:46Z</time>
      </trkpt>
      <trkpt lat="45.13797" lon="2.74396">
        <ele>1125</ele>
        <time>2019-12-19T02:57:49Z</time>
      </trkpt>
      <trkpt lat="45.13812" lon="2.74427">
        <ele>1125</ele>
        <time>2019-12-19T02:57:54Z</time>
      </trkpt>
      <trkpt lat="45.13823" lon="2.74518">
        <ele>1119</ele>
        <time>2019-12-19T02:58:06Z</time>
      </trkpt>
      <trkpt lat="45.13829" lon="2.74546">
        <ele>1117</ele>
        <time>2019-12-19T02:58:09Z</time>
      </trkpt>
      <trkpt lat="45.13841" lon="2.7457">
        <ele>1118</ele>
        <time>2019-12-19T02:58:13Z</time>
      </trkpt>
      <trkpt lat="45.13855" lon="2.74594">
        <ele>1118</ele>
        <time>2019-12-19T02:58:17Z</time>
      </trkpt>
      <trkpt lat="45.1387" lon="2.74642">
        <ele>1117</ele>
        <time>2019-12-19T02:58:23Z</time>
      </trkpt>
      <trkpt lat="45.13881" lon="2.7466">
        <ele>1117</ele>
        <time>2019-12-19T02:58:26Z</time>
      </trkpt>
      <trkpt lat="45.13909" lon="2.74696">
        <ele>1119</ele>
        <time>2019-12-19T02:58:33Z</time>
      </trkpt>
      <trkpt lat="45.13922" lon="2.74717">
        <ele>1119</ele>
        <time>2019-12-19T02:58:37Z</time>
      </trkpt>
      <trkpt lat="45.13933" lon="2.74755">
        <ele>1117</ele>
        <time>2019-12-19T02:58:42Z</time>
      </trkpt>
      <trkpt lat="45.13945" lon="2.7478">
        <ele>1117</ele>
        <time>2019-12-19T02:58:46Z</time>
      </trkpt>
      <trkpt lat="45.13956" lon="2.74793">
        <ele>1118</ele>
        <time>2019-12-19T02:58:48Z</time>
      </trkpt>
      <trkpt lat="45.13975" lon="2.74811">
        <ele>1119</ele>
        <time>2019-12-19T02:58:52Z</time>
      </trkpt>
      <trkpt lat="45.13987" lon="2.74831">
        <ele>1119</ele>
        <time>2019-12-19T02:58:55Z</time>
      </trkpt>
      <trkpt lat="45.13999" lon="2.74864">
        <ele>1117</ele>
        <time>2019-12-19T02:59:00Z</time>
      </trkpt>
      <trkpt lat="45.1401" lon="2.74884">
        <ele>1117</ele>
        <time>2019-12-19T02:59:03Z</time>
      </trkpt>
      <trkpt lat="45.14024" lon="2.74901">
        <ele>1117</ele>
        <time>2019-12-19T02:59:07Z</time>
      </trkpt>
      <trkpt lat="45.14032" lon="2.74918">
        <ele>1116</ele>
        <time>2019-12-19T02:59:09Z</time>
      </trkpt>
      <trkpt lat="45.14043" lon="2.74975">
        <ele>1112</ele>
        <time>2019-12-19T02:59:17Z</time>
      </trkpt>
      <trkpt lat="45.14052" lon="2.74997">
        <ele>1111</ele>
        <time>2019-12-19T02:59:20Z</time>
      </trkpt>
      <trkpt lat="45.14095" lon="2.75059">
        <ele>1112</ele>
        <time>2019-12-19T02:59:31Z</time>
      </trkpt>
      <trkpt lat="45.14102" lon="2.75082">
        <ele>1111</ele>
        <time>2019-12-19T02:59:34Z</time>
      </trkpt>
      <trkpt lat="45.14122" lon="2.75201">
        <ele>1109</ele>
        <time>2019-12-19T02:59:49Z</time>
      </trkpt>
      <trkpt lat="45.14133" lon="2.75246">
        <ele>1108</ele>
        <time>2019-12-19T02:59:55Z</time>
      </trkpt>
      <trkpt lat="45.142" lon="2.75446">
        <ele>1109</ele>
        <time>2019-12-19T03:00:23Z</time>
      </trkpt>
      <trkpt lat="45.14206" lon="2.75486">
        <ele>1107</ele>
        <time>2019-12-19T03:00:28Z</time>
      </trkpt>
      <trkpt lat="45.14214" lon="2.75558">
        <ele>1104</ele>
        <time>2019-12-19T03:00:37Z</time>
      </trkpt>
      <trkpt lat="45.14223" lon="2.75596">
        <ele>1104</ele>
        <time>2019-12-19T03:00:42Z</time>
      </trkpt>
      <trkpt lat="45.14257" lon="2.75704">
        <ele>1108</ele>
        <time>2019-12-19T03:00:57Z</time>
      </trkpt>
      <trkpt lat="45.14261" lon="2.75742">
        <ele>1108</ele>
        <time>2019-12-19T03:01:02Z</time>
      </trkpt>
      <trkpt lat="45.14265" lon="2.75802">
        <ele>1106</ele>
        <time>2019-12-19T03:01:09Z</time>
      </trkpt>
      <trkpt lat="45.1427" lon="2.75846">
        <ele>1106</ele>
        <time>2019-12-19T03:01:15Z</time>
      </trkpt>
      <trkpt lat="45.14281" lon="2.759">
        <ele>1107</ele>
        <time>2019-12-19T03:01:22Z</time>
      </trkpt>
      <trkpt lat="45.14283" lon="2.75925">
        <ele>1107</ele>
        <time>2019-12-19T03:01:25Z</time>
      </trkpt>
      <trkpt lat="45.14282" lon="2.76081">
        <ele>1103</ele>
        <time>2019-12-19T03:01:45Z</time>
      </trkpt>
      <trkpt lat="45.1428" lon="2.76133">
        <ele>1103</ele>
        <time>2019-12-19T03:01:51Z</time>
      </trkpt>
      <trkpt lat="45.14273" lon="2.76184">
        <ele>1101</ele>
        <time>2019-12-19T03:01:58Z</time>
      </trkpt>
      <trkpt lat="45.14241" lon="2.7635">
        <ele>1095</ele>
        <time>2019-12-19T03:02:20Z</time>
      </trkpt>
      <trkpt lat="45.14234" lon="2.76401">
        <ele>1094</ele>
        <time>2019-12-19T03:02:26Z</time>
      </trkpt>
      <trkpt lat="45.14232" lon="2.76474">
        <ele>1093</ele>
        <time>2019-12-19T03:02:35Z</time>
      </trkpt>
      <trkpt lat="45.14232" lon="2.76518">
        <ele>1092</ele>
        <time>2019-12-19T03:02:41Z</time>
      </trkpt>
      <trkpt lat="45.14236" lon="2.76545">
        <ele>1090</ele>
        <time>2019-12-19T03:02:44Z</time>
      </trkpt>
      <trkpt lat="45.14244" lon="2.76575">
        <ele>1090</ele>
        <time>2019-12-19T03:02:48Z</time>
      </trkpt>
      <trkpt lat="45.14291" lon="2.7672">
        <ele>1088</ele>
        <time>2019-12-19T03:03:08Z</time>
      </trkpt>
      <trkpt lat="45.14381" lon="2.76922">
        <ele>1081</ele>
        <time>2019-12-19T03:03:38Z</time>
      </trkpt>
      <trkpt lat="45.14398" lon="2.76947">
        <ele>1081</ele>
        <time>2019-12-19T03:03:43Z</time>
      </trkpt>
      <trkpt lat="45.14482" lon="2.77052">
        <ele>1079</ele>
        <time>2019-12-19T03:04:02Z</time>
      </trkpt>
      <trkpt lat="45.14493" lon="2.77068">
        <ele>1078</ele>
        <time>2019-12-19T03:04:05Z</time>
      </trkpt>
      <trkpt lat="45.14503" lon="2.77084">
        <ele>1076</ele>
        <time>2019-12-19T03:04:08Z</time>
      </trkpt>
      <trkpt lat="45.14532" lon="2.77155">
        <ele>1071</ele>
        <time>2019-12-19T03:04:18Z</time>
      </trkpt>
      <trkpt lat="45.14557" lon="2.7719">
        <ele>1071</ele>
        <time>2019-12-19T03:04:25Z</time>
      </trkpt>
      <trkpt lat="45.14579" lon="2.77211">
        <ele>1072</ele>
        <time>2019-12-19T03:04:29Z</time>
      </trkpt>
      <trkpt lat="45.14707" lon="2.77292">
        <ele>1070</ele>
        <time>2019-12-19T03:04:54Z</time>
      </trkpt>
      <trkpt lat="45.14757" lon="2.77329">
        <ele>1068</ele>
        <time>2019-12-19T03:05:04Z</time>
      </trkpt>
      <trkpt lat="45.14897" lon="2.77454">
        <ele>1065</ele>
        <time>2019-12-19T03:05:34Z</time>
      </trkpt>
      <trkpt lat="45.14914" lon="2.77466">
        <ele>1065</ele>
        <time>2019-12-19T03:05:37Z</time>
      </trkpt>
      <trkpt lat="45.14961" lon="2.77484">
        <ele>1064</ele>
        <time>2019-12-19T03:05:46Z</time>
      </trkpt>
      <trkpt lat="45.14989" lon="2.775">
        <ele>1062</ele>
        <time>2019-12-19T03:05:51Z</time>
      </trkpt>
      <trkpt lat="45.15014" lon="2.7752">
        <ele>1062</ele>
        <time>2019-12-19T03:05:56Z</time>
      </trkpt>
      <trkpt lat="45.15131" lon="2.77628">
        <ele>1059</ele>
        <time>2019-12-19T03:06:21Z</time>
      </trkpt>
      <trkpt lat="45.15195" lon="2.77699">
        <ele>1057</ele>
        <time>2019-12-19T03:06:35Z</time>
      </trkpt>
      <trkpt lat="45.15316" lon="2.77797">
        <ele>1065</ele>
        <time>2019-12-19T03:07:00Z</time>
      </trkpt>
      <trkpt lat="45.15329" lon="2.77816">
        <ele>1063</ele>
        <time>2019-12-19T03:07:04Z</time>
      </trkpt>
      <trkpt lat="45.15349" lon="2.77876">
        <ele>1061</ele>
        <time>2019-12-19T03:07:12Z</time>
      </trkpt>
      <trkpt lat="45.15356" lon="2.77909">
        <ele>1059</ele>
        <time>2019-12-19T03:07:16Z</time>
      </trkpt>
      <trkpt lat="45.15368" lon="2.7802">
        <ele>1053</ele>
        <time>2019-12-19T03:07:30Z</time>
      </trkpt>
      <trkpt lat="45.15374" lon="2.78057">
        <ele>1052</ele>
        <time>2019-12-19T03:07:35Z</time>
      </trkpt>
      <trkpt lat="45.15382" lon="2.78088">
        <ele>1052</ele>
        <time>2019-12-19T03:07:39Z</time>
      </trkpt>
      <trkpt lat="45.15393" lon="2.78118">
        <ele>1054</ele>
        <time>2019-12-19T03:07:43Z</time>
      </trkpt>
      <trkpt lat="45.15409" lon="2.78153">
        <ele>1055</ele>
        <time>2019-12-19T03:07:49Z</time>
      </trkpt>
      <trkpt lat="45.15429" lon="2.78185">
        <ele>1056</ele>
        <time>2019-12-19T03:07:54Z</time>
      </trkpt>
      <trkpt lat="45.15464" lon="2.78231">
        <ele>1054</ele>
        <time>2019-12-19T03:08:03Z</time>
      </trkpt>
      <trkpt lat="45.155" lon="2.78272">
        <ele>1053</ele>
        <time>2019-12-19T03:08:11Z</time>
      </trkpt>
      <trkpt lat="45.15534" lon="2.78327">
        <ele>1055</ele>
        <time>2019-12-19T03:08:20Z</time>
      </trkpt>
      <trkpt lat="45.15675" lon="2.78509">
        <ele>1057</ele>
        <time>2019-12-19T03:08:54Z</time>
      </trkpt>
      <trkpt lat="45.1577" lon="2.78659">
        <ele>1065</ele>
        <time>2019-12-19T03:09:19Z</time>
      </trkpt>
      <trkpt lat="45.15812" lon="2.78687">
        <ele>1067</ele>
        <time>2019-12-19T03:09:27Z</time>
      </trkpt>
      <trkpt lat="45.15823" lon="2.78701">
        <ele>1067</ele>
        <time>2019-12-19T03:09:30Z</time>
      </trkpt>
      <trkpt lat="45.15833" lon="2.78728">
        <ele>1066</ele>
        <time>2019-12-19T03:09:34Z</time>
      </trkpt>
      <trkpt lat="45.15846" lon="2.78794">
        <ele>1066</ele>
        <time>2019-12-19T03:09:43Z</time>
      </trkpt>
      <trkpt lat="45.15849" lon="2.78819">
        <ele>1066</ele>
        <time>2019-12-19T03:09:46Z</time>
      </trkpt>
      <trkpt lat="45.15847" lon="2.78848">
        <ele>1066</ele>
        <time>2019-12-19T03:09:49Z</time>
      </trkpt>
      <trkpt lat="45.1583" lon="2.78908">
        <ele>1062</ele>
        <time>2019-12-19T03:09:57Z</time>
      </trkpt>
      <trkpt lat="45.15809" lon="2.78992">
        <ele>1057</ele>
        <time>2019-12-19T03:10:09Z</time>
      </trkpt>
      <trkpt lat="45.15797" lon="2.78957">
        <ele>1058</ele>
        <time>2019-12-19T03:10:14Z</time>
      </trkpt>
      <trkpt lat="45.15788" lon="2.78956">
        <ele>1058</ele>
        <time>2019-12-19T03:10:15Z</time>
      </trkpt>
      <trkpt lat="45.15777" lon="2.78962">
        <ele>1057</ele>
        <time>2019-12-19T03:10:17Z</time>
      </trkpt>
      <trkpt lat="45.15764" lon="2.78978">
        <ele>1056</ele>
        <time>2019-12-19T03:10:20Z</time>
      </trkpt>
      <trkpt lat="45.15741" lon="2.78994">
        <ele>1055</ele>
        <time>2019-12-19T03:10:25Z</time>
      </trkpt>
      <trkpt lat="45.15724" lon="2.78994">
        <ele>1054</ele>
        <time>2019-12-19T03:10:28Z</time>
      </trkpt>
      <trkpt lat="45.15645" lon="2.7896">
        <ele>1050</ele>
        <time>2019-12-19T03:10:43Z</time>
      </trkpt>
      <trkpt lat="45.15588" lon="2.78912">
        <ele>1049</ele>
        <time>2019-12-19T03:10:54Z</time>
      </trkpt>
      <trkpt lat="45.15574" lon="2.78906">
        <ele>1049</ele>
        <time>2019-12-19T03:10:57Z</time>
      </trkpt>
      <trkpt lat="45.1556" lon="2.7891">
        <ele>1049</ele>
        <time>2019-12-19T03:10:59Z</time>
      </trkpt>
      <trkpt lat="45.15537" lon="2.78921">
        <ele>1048</ele>
        <time>2019-12-19T03:11:04Z</time>
      </trkpt>
      <trkpt lat="45.15457" lon="2.78987">
        <ele>1048</ele>
        <time>2019-12-19T03:11:20Z</time>
      </trkpt>
      <trkpt lat="45.15428" lon="2.79005">
        <ele>1049</ele>
        <time>2019-12-19T03:11:26Z</time>
      </trkpt>
      <trkpt lat="45.15411" lon="2.79016">
        <ele>1049</ele>
        <time>2019-12-19T03:11:29Z</time>
      </trkpt>
      <trkpt lat="45.15406" lon="2.79017">
        <ele>1050</ele>
        <time>2019-12-19T03:11:30Z</time>
      </trkpt>
      <trkpt lat="45.15401" lon="2.79015">
        <ele>1050</ele>
        <time>2019-12-19T03:11:31Z</time>
      </trkpt>
      <trkpt lat="45.15396" lon="2.79009">
        <ele>1050</ele>
        <time>2019-12-19T03:11:32Z</time>
      </trkpt>
      <trkpt lat="45.15373" lon="2.78956">
        <ele>1051</ele>
        <time>2019-12-19T03:11:40Z</time>
      </trkpt>
      <trkpt lat="45.15355" lon="2.78923">
        <ele>1051</ele>
        <time>2019-12-19T03:11:45Z</time>
      </trkpt>
      <trkpt lat="45.15319" lon="2.78868">
        <ele>1052</ele>
        <time>2019-12-19T03:11:55Z</time>
      </trkpt>
      <trkpt lat="45.15281" lon="2.78827">
        <ele>1057</ele>
        <time>2019-12-19T03:12:03Z</time>
      </trkpt>
      <trkpt lat="45.15274" lon="2.78812">
        <ele>1057</ele>
        <time>2019-12-19T03:12:05Z</time>
      </trkpt>
      <trkpt lat="45.15258" lon="2.78768">
        <ele>1055</ele>
        <time>2019-12-19T03:12:12Z</time>
      </trkpt>
      <trkpt lat="45.15214" lon="2.78707">
        <ele>1060</ele>
        <time>2019-12-19T03:12:23Z</time>
      </trkpt>
      <trkpt lat="45.15126" lon="2.78626">
        <ele>1063</ele>
        <time>2019-12-19T03:12:41Z</time>
      </trkpt>
      <trkpt lat="45.15074" lon="2.78595">
        <ele>1064</ele>
        <time>2019-12-19T03:12:51Z</time>
      </trkpt>
      <trkpt lat="45.15045" lon="2.78572">
        <ele>1065</ele>
        <time>2019-12-19T03:12:57Z</time>
      </trkpt>
      <trkpt lat="45.15026" lon="2.78564">
        <ele>1067</ele>
        <time>2019-12-19T03:13:01Z</time>
      </trkpt>
      <trkpt lat="45.15007" lon="2.7856">
        <ele>1070</ele>
        <time>2019-12-19T03:13:04Z</time>
      </trkpt>
      <trkpt lat="45.14985" lon="2.78547">
        <ele>1070</ele>
        <time>2019-12-19T03:13:08Z</time>
      </trkpt>
      <trkpt lat="45.14968" lon="2.7854">
        <ele>1071</ele>
        <time>2019-12-19T03:13:12Z</time>
      </trkpt>
      <trkpt lat="45.14935" lon="2.78538">
        <ele>1074</ele>
        <time>2019-12-19T03:13:17Z</time>
      </trkpt>
      <trkpt lat="45.14904" lon="2.78529">
        <ele>1074</ele>
        <time>2019-12-19T03:13:23Z</time>
      </trkpt>
      <trkpt lat="45.14885" lon="2.78527">
        <ele>1073</ele>
        <time>2019-12-19T03:13:26Z</time>
      </trkpt>
      <trkpt lat="45.1484" lon="2.78557">
        <ele>1079</ele>
        <time>2019-12-19T03:13:35Z</time>
      </trkpt>
      <trkpt lat="45.14758" lon="2.78598">
        <ele>1090</ele>
        <time>2019-12-19T03:13:51Z</time>
      </trkpt>
      <trkpt lat="45.14746" lon="2.78605">
        <ele>1093</ele>
        <time>2019-12-19T03:13:53Z</time>
      </trkpt>
      <trkpt lat="45.14739" lon="2.78611">
        <ele>1095</ele>
        <time>2019-12-19T03:13:55Z</time>
      </trkpt>
      <trkpt lat="45.14739" lon="2.78616">
        <ele>1097</ele>
        <time>2019-12-19T03:13:55Z</time>
      </trkpt>
      <trkpt lat="45.1474" lon="2.78623">
        <ele>1098</ele>
        <time>2019-12-19T03:13:56Z</time>
      </trkpt>
      <trkpt lat="45.14762" lon="2.78646">
        <ele>1100</ele>
        <time>2019-12-19T03:14:01Z</time>
      </trkpt>
      <trkpt lat="45.14796" lon="2.78668">
        <ele>1101</ele>
        <time>2019-12-19T03:14:08Z</time>
      </trkpt>
      <trkpt lat="45.14799" lon="2.78674">
        <ele>1103</ele>
        <time>2019-12-19T03:14:08Z</time>
      </trkpt>
      <trkpt lat="45.14798" lon="2.78682">
        <ele>1105</ele>
        <time>2019-12-19T03:14:10Z</time>
      </trkpt>
      <trkpt lat="45.14795" lon="2.78686">
        <ele>1107</ele>
        <time>2019-12-19T03:14:10Z</time>
      </trkpt>
      <trkpt lat="45.14766" lon="2.78682">
        <ele>1109</ele>
        <time>2019-12-19T03:14:15Z</time>
      </trkpt>
      <trkpt lat="45.1476" lon="2.78683">
        <ele>1110</ele>
        <time>2019-12-19T03:14:17Z</time>
      </trkpt>
      <trkpt lat="45.14758" lon="2.78689">
        <ele>1112</ele>
        <time>2019-12-19T03:14:17Z</time>
      </trkpt>
      <trkpt lat="45.14758" lon="2.78695">
        <ele>1114</ele>
        <time>2019-12-19T03:14:18Z</time>
      </trkpt>
      <trkpt lat="45.14796" lon="2.78735">
        <ele>1121</ele>
        <time>2019-12-19T03:14:27Z</time>
      </trkpt>
      <trkpt lat="45.14796" lon="2.78741">
        <ele>1122</ele>
        <time>2019-12-19T03:14:27Z</time>
      </trkpt>
      <trkpt lat="45.14794" lon="2.78747">
        <ele>1124</ele>
        <time>2019-12-19T03:14:28Z</time>
      </trkpt>
      <trkpt lat="45.14788" lon="2.78747">
        <ele>1125</ele>
        <time>2019-12-19T03:14:29Z</time>
      </trkpt>
      <trkpt lat="45.14765" lon="2.7874">
        <ele>1126</ele>
        <time>2019-12-19T03:14:33Z</time>
      </trkpt>
      <trkpt lat="45.14745" lon="2.78737">
        <ele>1129</ele>
        <time>2019-12-19T03:14:37Z</time>
      </trkpt>
      <trkpt lat="45.14657" lon="2.78738">
        <ele>1155</ele>
        <time>2019-12-19T03:14:53Z</time>
      </trkpt>
      <trkpt lat="45.14619" lon="2.78734">
        <ele>1160</ele>
        <time>2019-12-19T03:14:59Z</time>
      </trkpt>
      <trkpt lat="45.14604" lon="2.78724">
        <ele>1160</ele>
        <time>2019-12-19T03:15:02Z</time>
      </trkpt>
      <trkpt lat="45.14579" lon="2.78692">
        <ele>1157</ele>
        <time>2019-12-19T03:15:08Z</time>
      </trkpt>
      <trkpt lat="45.14569" lon="2.78681">
        <ele>1156</ele>
        <time>2019-12-19T03:15:11Z</time>
      </trkpt>
      <trkpt lat="45.1456" lon="2.78678">
        <ele>1156</ele>
        <time>2019-12-19T03:15:12Z</time>
      </trkpt>
      <trkpt lat="45.14548" lon="2.78679">
        <ele>1157</ele>
        <time>2019-12-19T03:15:14Z</time>
      </trkpt>
      <trkpt lat="45.14535" lon="2.78686">
        <ele>1159</ele>
        <time>2019-12-19T03:15:17Z</time>
      </trkpt>
      <trkpt lat="45.14515" lon="2.78701">
        <ele>1163</ele>
        <time>2019-12-19T03:15:21Z</time>
      </trkpt>
      <trkpt lat="45.14508" lon="2.78704">
        <ele>1164</ele>
        <time>2019-12-19T03:15:22Z</time>
      </trkpt>
      <trkpt lat="45.14494" lon="2.787">
        <ele>1165</ele>
        <time>2019-12-19T03:15:25Z</time>
      </trkpt>
      <trkpt lat="45.14486" lon="2.78704">
        <ele>1166</ele>
        <time>2019-12-19T03:15:26Z</time>
      </trkpt>
      <trkpt lat="45.14478" lon="2.7871">
        <ele>1167</ele>
        <time>2019-12-19T03:15:28Z</time>
      </trkpt>
      <trkpt lat="45.14472" lon="2.78716">
        <ele>1168</ele>
        <time>2019-12-19T03:15:29Z</time>
      </trkpt>
      <trkpt lat="45.1447" lon="2.78726">
        <ele>1170</ele>
        <time>2019-12-19T03:15:30Z</time>
      </trkpt>
      <trkpt lat="45.14472" lon="2.78738">
        <ele>1171</ele>
        <time>2019-12-19T03:15:32Z</time>
      </trkpt>
      <trkpt lat="45.14484" lon="2.78762">
        <ele>1174</ele>
        <time>2019-12-19T03:15:36Z</time>
      </trkpt>
      <trkpt lat="45.1449" lon="2.788">
        <ele>1180</ele>
        <time>2019-12-19T03:15:41Z</time>
      </trkpt>
      <trkpt lat="45.14496" lon="2.78815">
        <ele>1183</ele>
        <time>2019-12-19T03:15:43Z</time>
      </trkpt>
      <trkpt lat="45.14504" lon="2.78826">
        <ele>1185</ele>
        <time>2019-12-19T03:15:45Z</time>
      </trkpt>
      <trkpt lat="45.14548" lon="2.7887">
        <ele>1193</ele>
        <time>2019-12-19T03:15:54Z</time>
      </trkpt>
      <trkpt lat="45.14563" lon="2.78902">
        <ele>1200</ele>
        <time>2019-12-19T03:15:59Z</time>
      </trkpt>
      <trkpt lat="45.14572" lon="2.78916">
        <ele>1203</ele>
        <time>2019-12-19T03:16:01Z</time>
      </trkpt>
      <trkpt lat="45.14599" lon="2.78929">
        <ele>1206</ele>
        <time>2019-12-19T03:16:07Z</time>
      </trkpt>
      <trkpt lat="45.14632" lon="2.78938">
        <ele>1210</ele>
        <time>2019-12-19T03:16:13Z</time>
      </trkpt>
      <trkpt lat="45.14643" lon="2.78949">
        <ele>1213</ele>
        <time>2019-12-19T03:16:15Z</time>
      </trkpt>
      <trkpt lat="45.14654" lon="2.7897">
        <ele>1220</ele>
        <time>2019-12-19T03:16:18Z</time>
      </trkpt>
      <trkpt lat="45.14657" lon="2.78983">
        <ele>1224</ele>
        <time>2019-12-19T03:16:20Z</time>
      </trkpt>
      <trkpt lat="45.14657" lon="2.78997">
        <ele>1228</ele>
        <time>2019-12-19T03:16:22Z</time>
      </trkpt>
      <trkpt lat="45.14637" lon="2.79057">
        <ele>1237</ele>
        <time>2019-12-19T03:16:30Z</time>
      </trkpt>
      <trkpt lat="45.14627" lon="2.79097">
        <ele>1242</ele>
        <time>2019-12-19T03:16:35Z</time>
      </trkpt>
      <trkpt lat="45.14604" lon="2.79151">
        <ele>1246</ele>
        <time>2019-12-19T03:16:43Z</time>
      </trkpt>
      <trkpt lat="45.14595" lon="2.79186">
        <ele>1249</ele>
        <time>2019-12-19T03:16:48Z</time>
      </trkpt>
      <trkpt lat="45.14586" lon="2.79233">
        <ele>1252</ele>
        <time>2019-12-19T03:16:54Z</time>
      </trkpt>
      <trkpt lat="45.14584" lon="2.79307">
        <ele>1254</ele>
        <time>2019-12-19T03:17:03Z</time>
      </trkpt>
      <trkpt lat="45.14593" lon="2.79411">
        <ele>1256</ele>
        <time>2019-12-19T03:17:16Z</time>
      </trkpt>
      <trkpt lat="45.14614" lon="2.79297">
        <ele>1258</ele>
        <time>2019-12-19T03:17:31Z</time>
      </trkpt>
      <trkpt lat="45.14619" lon="2.79288">
        <ele>1259</ele>
        <time>2019-12-19T03:17:33Z</time>
      </trkpt>
      <trkpt lat="45.14626" lon="2.79281">
        <ele>1259</ele>
        <time>2019-12-19T03:17:34Z</time>
      </trkpt>
      <trkpt lat="45.14637" lon="2.79277">
        <ele>1261</ele>
        <time>2019-12-19T03:17:36Z</time>
      </trkpt>
      <trkpt lat="45.14754" lon="2.7927">
        <ele>1268</ele>
        <time>2019-12-19T03:17:57Z</time>
      </trkpt>
      <trkpt lat="45.14764" lon="2.79274">
        <ele>1268</ele>
        <time>2019-12-19T03:17:59Z</time>
      </trkpt>
      <trkpt lat="45.14777" lon="2.79285">
        <ele>1270</ele>
        <time>2019-12-19T03:18:02Z</time>
      </trkpt>
      <trkpt lat="45.14795" lon="2.79314">
        <ele>1274</ele>
        <time>2019-12-19T03:18:06Z</time>
      </trkpt>
      <trkpt lat="45.14801" lon="2.79327">
        <ele>1276</ele>
        <time>2019-12-19T03:18:08Z</time>
      </trkpt>
      <trkpt lat="45.14804" lon="2.79343">
        <ele>1276</ele>
        <time>2019-12-19T03:18:10Z</time>
      </trkpt>
      <trkpt lat="45.14802" lon="2.79359">
        <ele>1276</ele>
        <time>2019-12-19T03:18:13Z</time>
      </trkpt>
      <trkpt lat="45.14804" lon="2.79375">
        <ele>1276</ele>
        <time>2019-12-19T03:18:15Z</time>
      </trkpt>
      <trkpt lat="45.14812" lon="2.79395">
        <ele>1276</ele>
        <time>2019-12-19T03:18:17Z</time>
      </trkpt>
      <trkpt lat="45.14819" lon="2.79403">
        <ele>1276</ele>
        <time>2019-12-19T03:18:19Z</time>
      </trkpt>
      <trkpt lat="45.14822" lon="2.794">
        <ele>1276</ele>
        <time>2019-12-19T03:18:20Z</time>
      </trkpt>
      <trkpt lat="45.14832" lon="2.79376">
        <ele>1276</ele>
        <time>2019-12-19T03:18:23Z</time>
      </trkpt>
      <trkpt lat="45.14832" lon="2.79376">
        <ele>1276</ele>
        <time>2019-12-18T23:51:29Z</time>
      </trkpt>
      <trkpt lat="45.14822" lon="2.794">
        <ele>1276</ele>
        <time>2019-12-18T23:51:32Z</time>
      </trkpt>
      <trkpt lat="45.14819" lon="2.79403">
        <ele>1276</ele>
        <time>2019-12-18T23:51:33Z</time>
      </trkpt>
      <trkpt lat="45.14812" lon="2.79395">
        <ele>1276</ele>
        <time>2019-12-18T23:51:35Z</time>
      </trkpt>
      <trkpt lat="45.14804" lon="2.79375">
        <ele>1276</ele>
        <time>2019-12-18T23:51:38Z</time>
      </trkpt>
      <trkpt lat="45.14802" lon="2.79359">
        <ele>1276</ele>
        <time>2019-12-18T23:51:40Z</time>
      </trkpt>
      <trkpt lat="45.14804" lon="2.79343">
        <ele>1276</ele>
        <time>2019-12-18T23:51:42Z</time>
      </trkpt>
      <trkpt lat="45.14801" lon="2.79327">
        <ele>1276</ele>
        <time>2019-12-18T23:51:44Z</time>
      </trkpt>
      <trkpt lat="45.14795" lon="2.79314">
        <ele>1274</ele>
        <time>2019-12-18T23:51:46Z</time>
      </trkpt>
      <trkpt lat="45.14777" lon="2.79285">
        <ele>1270</ele>
        <time>2019-12-18T23:51:51Z</time>
      </trkpt>
      <trkpt lat="45.14764" lon="2.79274">
        <ele>1268</ele>
        <time>2019-12-18T23:51:53Z</time>
      </trkpt>
      <trkpt lat="45.14754" lon="2.7927">
        <ele>1268</ele>
        <time>2019-12-18T23:51:55Z</time>
      </trkpt>
      <trkpt lat="45.14637" lon="2.79277">
        <ele>1261</ele>
        <time>2019-12-18T23:52:16Z</time>
      </trkpt>
      <trkpt lat="45.14626" lon="2.79281">
        <ele>1259</ele>
        <time>2019-12-18T23:52:18Z</time>
      </trkpt>
      <trkpt lat="45.14619" lon="2.79288">
        <ele>1259</ele>
        <time>2019-12-18T23:52:20Z</time>
      </trkpt>
      <trkpt lat="45.14614" lon="2.79297">
        <ele>1258</ele>
        <time>2019-12-18T23:52:21Z</time>
      </trkpt>
      <trkpt lat="45.14593" lon="2.79411">
        <ele>1256</ele>
        <time>2019-12-18T23:52:36Z</time>
      </trkpt>
      <trkpt lat="45.14584" lon="2.79307">
        <ele>1254</ele>
        <time>2019-12-18T23:52:49Z</time>
      </trkpt>
      <trkpt lat="45.14586" lon="2.79233">
        <ele>1252</ele>
        <time>2019-12-18T23:52:58Z</time>
      </trkpt>
      <trkpt lat="45.14595" lon="2.79186">
        <ele>1249</ele>
        <time>2019-12-18T23:53:04Z</time>
      </trkpt>
      <trkpt lat="45.14604" lon="2.79151">
        <ele>1246</ele>
        <time>2019-12-18T23:53:09Z</time>
      </trkpt>
      <trkpt lat="45.14627" lon="2.79097">
        <ele>1242</ele>
        <time>2019-12-18T23:53:17Z</time>
      </trkpt>
      <trkpt lat="45.14637" lon="2.79057">
        <ele>1237</ele>
        <time>2019-12-18T23:53:22Z</time>
      </trkpt>
      <trkpt lat="45.14657" lon="2.78997">
        <ele>1228</ele>
        <time>2019-12-18T23:53:31Z</time>
      </trkpt>
      <trkpt lat="45.14657" lon="2.78983">
        <ele>1224</ele>
        <time>2019-12-18T23:53:32Z</time>
      </trkpt>
      <trkpt lat="45.14654" lon="2.7897">
        <ele>1220</ele>
        <time>2019-12-18T23:53:34Z</time>
      </trkpt>
      <trkpt lat="45.14643" lon="2.78949">
        <ele>1213</ele>
        <time>2019-12-18T23:53:37Z</time>
      </trkpt>
      <trkpt lat="45.14632" lon="2.78938">
        <ele>1210</ele>
        <time>2019-12-18T23:53:40Z</time>
      </trkpt>
      <trkpt lat="45.14599" lon="2.78929">
        <ele>1206</ele>
        <time>2019-12-18T23:53:46Z</time>
      </trkpt>
      <trkpt lat="45.14572" lon="2.78916">
        <ele>1203</ele>
        <time>2019-12-18T23:53:51Z</time>
      </trkpt>
      <trkpt lat="45.14563" lon="2.78902">
        <ele>1200</ele>
        <time>2019-12-18T23:53:53Z</time>
      </trkpt>
      <trkpt lat="45.14548" lon="2.7887">
        <ele>1193</ele>
        <time>2019-12-18T23:53:58Z</time>
      </trkpt>
      <trkpt lat="45.14504" lon="2.78826">
        <ele>1185</ele>
        <time>2019-12-18T23:54:08Z</time>
      </trkpt>
      <trkpt lat="45.14496" lon="2.78815">
        <ele>1183</ele>
        <time>2019-12-18T23:54:10Z</time>
      </trkpt>
      <trkpt lat="45.1449" lon="2.788">
        <ele>1180</ele>
        <time>2019-12-18T23:54:12Z</time>
      </trkpt>
      <trkpt lat="45.14484" lon="2.78762">
        <ele>1174</ele>
        <time>2019-12-18T23:54:17Z</time>
      </trkpt>
      <trkpt lat="45.14472" lon="2.78738">
        <ele>1171</ele>
        <time>2019-12-18T23:54:20Z</time>
      </trkpt>
      <trkpt lat="45.1447" lon="2.78726">
        <ele>1170</ele>
        <time>2019-12-18T23:54:22Z</time>
      </trkpt>
      <trkpt lat="45.14472" lon="2.78716">
        <ele>1168</ele>
        <time>2019-12-18T23:54:23Z</time>
      </trkpt>
      <trkpt lat="45.14478" lon="2.7871">
        <ele>1167</ele>
        <time>2019-12-18T23:54:24Z</time>
      </trkpt>
      <trkpt lat="45.14486" lon="2.78704">
        <ele>1166</ele>
        <time>2019-12-18T23:54:26Z</time>
      </trkpt>
      <trkpt lat="45.14494" lon="2.787">
        <ele>1165</ele>
        <time>2019-12-18T23:54:28Z</time>
      </trkpt>
      <trkpt lat="45.14508" lon="2.78704">
        <ele>1164</ele>
        <time>2019-12-18T23:54:30Z</time>
      </trkpt>
      <trkpt lat="45.14515" lon="2.78701">
        <ele>1163</ele>
        <time>2019-12-18T23:54:31Z</time>
      </trkpt>
      <trkpt lat="45.14535" lon="2.78686">
        <ele>1159</ele>
        <time>2019-12-18T23:54:35Z</time>
      </trkpt>
      <trkpt lat="45.14548" lon="2.78679">
        <ele>1157</ele>
        <time>2019-12-18T23:54:38Z</time>
      </trkpt>
      <trkpt lat="45.1456" lon="2.78678">
        <ele>1156</ele>
        <time>2019-12-18T23:54:40Z</time>
      </trkpt>
      <trkpt lat="45.14569" lon="2.78681">
        <ele>1156</ele>
        <time>2019-12-18T23:54:42Z</time>
      </trkpt>
      <trkpt lat="45.14579" lon="2.78692">
        <ele>1157</ele>
        <time>2019-12-18T23:54:44Z</time>
      </trkpt>
      <trkpt lat="45.14604" lon="2.78724">
        <ele>1160</ele>
        <time>2019-12-18T23:54:50Z</time>
      </trkpt>
      <trkpt lat="45.14619" lon="2.78734">
        <ele>1160</ele>
        <time>2019-12-18T23:54:53Z</time>
      </trkpt>
      <trkpt lat="45.14657" lon="2.78738">
        <ele>1155</ele>
        <time>2019-12-18T23:55:00Z</time>
      </trkpt>
      <trkpt lat="45.14745" lon="2.78737">
        <ele>1129</ele>
        <time>2019-12-18T23:55:15Z</time>
      </trkpt>
      <trkpt lat="45.14765" lon="2.7874">
        <ele>1126</ele>
        <time>2019-12-18T23:55:19Z</time>
      </trkpt>
      <trkpt lat="45.14788" lon="2.78747">
        <ele>1125</ele>
        <time>2019-12-18T23:55:23Z</time>
      </trkpt>
      <trkpt lat="45.14794" lon="2.78747">
        <ele>1124</ele>
        <time>2019-12-18T23:55:24Z</time>
      </trkpt>
      <trkpt lat="45.14796" lon="2.78741">
        <ele>1122</ele>
        <time>2019-12-18T23:55:25Z</time>
      </trkpt>
      <trkpt lat="45.14796" lon="2.78735">
        <ele>1121</ele>
        <time>2019-12-18T23:55:26Z</time>
      </trkpt>
      <trkpt lat="45.14758" lon="2.78695">
        <ele>1114</ele>
        <time>2019-12-18T23:55:34Z</time>
      </trkpt>
      <trkpt lat="45.14758" lon="2.78689">
        <ele>1112</ele>
        <time>2019-12-18T23:55:35Z</time>
      </trkpt>
      <trkpt lat="45.1476" lon="2.78683">
        <ele>1110</ele>
        <time>2019-12-18T23:55:36Z</time>
      </trkpt>
      <trkpt lat="45.14766" lon="2.78682">
        <ele>1109</ele>
        <time>2019-12-18T23:55:37Z</time>
      </trkpt>
      <trkpt lat="45.14795" lon="2.78686">
        <ele>1107</ele>
        <time>2019-12-18T23:55:42Z</time>
      </trkpt>
      <trkpt lat="45.14798" lon="2.78682">
        <ele>1105</ele>
        <time>2019-12-18T23:55:43Z</time>
      </trkpt>
      <trkpt lat="45.14799" lon="2.78674">
        <ele>1103</ele>
        <time>2019-12-18T23:55:44Z</time>
      </trkpt>
      <trkpt lat="45.14796" lon="2.78668">
        <ele>1101</ele>
        <time>2019-12-18T23:55:45Z</time>
      </trkpt>
      <trkpt lat="45.14762" lon="2.78646">
        <ele>1100</ele>
        <time>2019-12-18T23:55:51Z</time>
      </trkpt>
      <trkpt lat="45.1474" lon="2.78623">
        <ele>1098</ele>
        <time>2019-12-18T23:55:56Z</time>
      </trkpt>
      <trkpt lat="45.14739" lon="2.78616">
        <ele>1097</ele>
        <time>2019-12-18T23:55:57Z</time>
      </trkpt>
      <trkpt lat="45.14739" lon="2.78611">
        <ele>1095</ele>
        <time>2019-12-18T23:55:58Z</time>
      </trkpt>
      <trkpt lat="45.14746" lon="2.78605">
        <ele>1093</ele>
        <time>2019-12-18T23:55:59Z</time>
      </trkpt>
      <trkpt lat="45.14758" lon="2.78598">
        <ele>1090</ele>
        <time>2019-12-18T23:56:01Z</time>
      </trkpt>
      <trkpt lat="45.1484" lon="2.78557">
        <ele>1079</ele>
        <time>2019-12-18T23:56:17Z</time>
      </trkpt>
      <trkpt lat="45.14885" lon="2.78527">
        <ele>1073</ele>
        <time>2019-12-18T23:56:26Z</time>
      </trkpt>
      <trkpt lat="45.14904" lon="2.78529">
        <ele>1074</ele>
        <time>2019-12-18T23:56:29Z</time>
      </trkpt>
      <trkpt lat="45.14935" lon="2.78538">
        <ele>1074</ele>
        <time>2019-12-18T23:56:35Z</time>
      </trkpt>
      <trkpt lat="45.14968" lon="2.7854">
        <ele>1071</ele>
        <time>2019-12-18T23:56:41Z</time>
      </trkpt>
      <trkpt lat="45.14985" lon="2.78547">
        <ele>1070</ele>
        <time>2019-12-18T23:56:44Z</time>
      </trkpt>
      <trkpt lat="45.15007" lon="2.7856">
        <ele>1070</ele>
        <time>2019-12-18T23:56:48Z</time>
      </trkpt>
      <trkpt lat="45.15026" lon="2.78564">
        <ele>1067</ele>
        <time>2019-12-18T23:56:51Z</time>
      </trkpt>
      <trkpt lat="45.15045" lon="2.78572">
        <ele>1065</ele>
        <time>2019-12-18T23:56:55Z</time>
      </trkpt>
      <trkpt lat="45.15074" lon="2.78595">
        <ele>1064</ele>
        <time>2019-12-18T23:57:01Z</time>
      </trkpt>
      <trkpt lat="45.15126" lon="2.78626">
        <ele>1063</ele>
        <time>2019-12-18T23:57:11Z</time>
      </trkpt>
      <trkpt lat="45.15214" lon="2.78707">
        <ele>1060</ele>
        <time>2019-12-18T23:57:30Z</time>
      </trkpt>
      <trkpt lat="45.15258" lon="2.78768">
        <ele>1055</ele>
        <time>2019-12-18T23:57:41Z</time>
      </trkpt>
      <trkpt lat="45.15274" lon="2.78812">
        <ele>1057</ele>
        <time>2019-12-18T23:57:47Z</time>
      </trkpt>
      <trkpt lat="45.15281" lon="2.78827">
        <ele>1057</ele>
        <time>2019-12-18T23:57:49Z</time>
      </trkpt>
      <trkpt lat="45.15319" lon="2.78868">
        <ele>1052</ele>
        <time>2019-12-18T23:57:58Z</time>
      </trkpt>
      <trkpt lat="45.15355" lon="2.78923">
        <ele>1051</ele>
        <time>2019-12-18T23:58:07Z</time>
      </trkpt>
      <trkpt lat="45.15373" lon="2.78956">
        <ele>1051</ele>
        <time>2019-12-18T23:58:12Z</time>
      </trkpt>
      <trkpt lat="45.15396" lon="2.79009">
        <ele>1050</ele>
        <time>2019-12-18T23:58:20Z</time>
      </trkpt>
      <trkpt lat="45.15401" lon="2.79015">
        <ele>1050</ele>
        <time>2019-12-18T23:58:21Z</time>
      </trkpt>
      <trkpt lat="45.15406" lon="2.79017">
        <ele>1050</ele>
        <time>2019-12-18T23:58:22Z</time>
      </trkpt>
      <trkpt lat="45.15411" lon="2.79016">
        <ele>1049</ele>
        <time>2019-12-18T23:58:23Z</time>
      </trkpt>
      <trkpt lat="45.15428" lon="2.79005">
        <ele>1049</ele>
        <time>2019-12-18T23:58:26Z</time>
      </trkpt>
      <trkpt lat="45.15457" lon="2.78987">
        <ele>1048</ele>
        <time>2019-12-18T23:58:32Z</time>
      </trkpt>
      <trkpt lat="45.15537" lon="2.78921">
        <ele>1048</ele>
        <time>2019-12-18T23:58:48Z</time>
      </trkpt>
      <trkpt lat="45.1556" lon="2.7891">
        <ele>1049</ele>
        <time>2019-12-18T23:58:53Z</time>
      </trkpt>
      <trkpt lat="45.15574" lon="2.78906">
        <ele>1049</ele>
        <time>2019-12-18T23:58:55Z</time>
      </trkpt>
      <trkpt lat="45.15588" lon="2.78912">
        <ele>1049</ele>
        <time>2019-12-18T23:58:58Z</time>
      </trkpt>
      <trkpt lat="45.15645" lon="2.7896">
        <ele>1050</ele>
        <time>2019-12-18T23:59:10Z</time>
      </trkpt>
      <trkpt lat="45.15724" lon="2.78994">
        <ele>1054</ele>
        <time>2019-12-18T23:59:24Z</time>
      </trkpt>
      <trkpt lat="45.15741" lon="2.78994">
        <ele>1055</ele>
        <time>2019-12-18T23:59:27Z</time>
      </trkpt>
      <trkpt lat="45.15764" lon="2.78978">
        <ele>1056</ele>
        <time>2019-12-18T23:59:32Z</time>
      </trkpt>
      <trkpt lat="45.15777" lon="2.78962">
        <ele>1057</ele>
        <time>2019-12-18T23:59:35Z</time>
      </trkpt>
      <trkpt lat="45.15788" lon="2.78956">
        <ele>1058</ele>
        <time>2019-12-18T23:59:37Z</time>
      </trkpt>
      <trkpt lat="45.15797" lon="2.78957">
        <ele>1058</ele>
        <time>2019-12-18T23:59:39Z</time>
      </trkpt>
      <trkpt lat="45.15809" lon="2.78992">
        <ele>1057</ele>
        <time>2019-12-18T23:59:44Z</time>
      </trkpt>
      <trkpt lat="45.15806" lon="2.79015">
        <ele>1057</ele>
        <time>2019-12-18T23:59:47Z</time>
      </trkpt>
      <trkpt lat="45.15805" lon="2.7905">
        <ele>1056</ele>
        <time>2019-12-18T23:59:51Z</time>
      </trkpt>
      <trkpt lat="45.15806" lon="2.79133">
        <ele>1055</ele>
        <time>2019-12-19T00:00:01Z</time>
      </trkpt>
      <trkpt lat="45.15798" lon="2.79171">
        <ele>1054</ele>
        <time>2019-12-19T00:00:06Z</time>
      </trkpt>
      <trkpt lat="45.1579" lon="2.79192">
        <ele>1053</ele>
        <time>2019-12-19T00:00:09Z</time>
      </trkpt>
      <trkpt lat="45.15756" lon="2.79245">
        <ele>1049</ele>
        <time>2019-12-19T00:00:18Z</time>
      </trkpt>
      <trkpt lat="45.15736" lon="2.79274">
        <ele>1049</ele>
        <time>2019-12-19T00:00:23Z</time>
      </trkpt>
      <trkpt lat="45.15725" lon="2.79296">
        <ele>1050</ele>
        <time>2019-12-19T00:00:27Z</time>
      </trkpt>
      <trkpt lat="45.15721" lon="2.79318">
        <ele>1050</ele>
        <time>2019-12-19T00:00:30Z</time>
      </trkpt>
      <trkpt lat="45.15722" lon="2.79341">
        <ele>1051</ele>
        <time>2019-12-19T00:00:32Z</time>
      </trkpt>
      <trkpt lat="45.15728" lon="2.79372">
        <ele>1051</ele>
        <time>2019-12-19T00:00:37Z</time>
      </trkpt>
      <trkpt lat="45.1573" lon="2.794">
        <ele>1052</ele>
        <time>2019-12-19T00:00:40Z</time>
      </trkpt>
      <trkpt lat="45.1573" lon="2.79421">
        <ele>1052</ele>
        <time>2019-12-19T00:00:43Z</time>
      </trkpt>
      <trkpt lat="45.15724" lon="2.79464">
        <ele>1052</ele>
        <time>2019-12-19T00:00:48Z</time>
      </trkpt>
      <trkpt lat="45.15701" lon="2.79566">
        <ele>1055</ele>
        <time>2019-12-19T00:01:02Z</time>
      </trkpt>
      <trkpt lat="45.15691" lon="2.79629">
        <ele>1057</ele>
        <time>2019-12-19T00:01:10Z</time>
      </trkpt>
      <trkpt lat="45.15686" lon="2.79648">
        <ele>1058</ele>
        <time>2019-12-19T00:01:12Z</time>
      </trkpt>
      <trkpt lat="45.1567" lon="2.79675">
        <ele>1060</ele>
        <time>2019-12-19T00:01:17Z</time>
      </trkpt>
      <trkpt lat="45.15654" lon="2.79691">
        <ele>1060</ele>
        <time>2019-12-19T00:01:20Z</time>
      </trkpt>
      <trkpt lat="45.15638" lon="2.79702">
        <ele>1060</ele>
        <time>2019-12-19T00:01:23Z</time>
      </trkpt>
      <trkpt lat="45.1562" lon="2.7971">
        <ele>1059</ele>
        <time>2019-12-19T00:01:27Z</time>
      </trkpt>
      <trkpt lat="45.15589" lon="2.79728">
        <ele>1060</ele>
        <time>2019-12-19T00:01:33Z</time>
      </trkpt>
      <trkpt lat="45.15576" lon="2.79738">
        <ele>1060</ele>
        <time>2019-12-19T00:01:35Z</time>
      </trkpt>
      <trkpt lat="45.15565" lon="2.7975">
        <ele>1061</ele>
        <time>2019-12-19T00:01:38Z</time>
      </trkpt>
      <trkpt lat="45.15552" lon="2.79771">
        <ele>1063</ele>
        <time>2019-12-19T00:01:41Z</time>
      </trkpt>
      <trkpt lat="45.15493" lon="2.79907">
        <ele>1077</ele>
        <time>2019-12-19T00:02:01Z</time>
      </trkpt>
      <trkpt lat="45.15485" lon="2.79939">
        <ele>1080</ele>
        <time>2019-12-19T00:02:06Z</time>
      </trkpt>
      <trkpt lat="45.15483" lon="2.79968">
        <ele>1081</ele>
        <time>2019-12-19T00:02:09Z</time>
      </trkpt>
      <trkpt lat="45.15485" lon="2.79996">
        <ele>1082</ele>
        <time>2019-12-19T00:02:13Z</time>
      </trkpt>
      <trkpt lat="45.15499" lon="2.80055">
        <ele>1083</ele>
        <time>2019-12-19T00:02:21Z</time>
      </trkpt>
      <trkpt lat="45.155" lon="2.80075">
        <ele>1084</ele>
        <time>2019-12-19T00:02:23Z</time>
      </trkpt>
      <trkpt lat="45.15499" lon="2.8009">
        <ele>1085</ele>
        <time>2019-12-19T00:02:25Z</time>
      </trkpt>
      <trkpt lat="45.15496" lon="2.80105">
        <ele>1085</ele>
        <time>2019-12-19T00:02:27Z</time>
      </trkpt>
      <trkpt lat="45.1549" lon="2.80121">
        <ele>1086</ele>
        <time>2019-12-19T00:02:29Z</time>
      </trkpt>
      <trkpt lat="45.15464" lon="2.80167">
        <ele>1093</ele>
        <time>2019-12-19T00:02:37Z</time>
      </trkpt>
      <trkpt lat="45.15455" lon="2.80198">
        <ele>1096</ele>
        <time>2019-12-19T00:02:41Z</time>
      </trkpt>
      <trkpt lat="45.15454" lon="2.80219">
        <ele>1096</ele>
        <time>2019-12-19T00:02:43Z</time>
      </trkpt>
      <trkpt lat="45.15461" lon="2.80283">
        <ele>1097</ele>
        <time>2019-12-19T00:02:52Z</time>
      </trkpt>
      <trkpt lat="45.15459" lon="2.80302">
        <ele>1098</ele>
        <time>2019-12-19T00:02:54Z</time>
      </trkpt>
      <trkpt lat="45.15456" lon="2.80322">
        <ele>1100</ele>
        <time>2019-12-19T00:02:57Z</time>
      </trkpt>
      <trkpt lat="45.15445" lon="2.80358">
        <ele>1104</ele>
        <time>2019-12-19T00:03:01Z</time>
      </trkpt>
      <trkpt lat="45.15437" lon="2.80391">
        <ele>1108</ele>
        <time>2019-12-19T00:03:06Z</time>
      </trkpt>
      <trkpt lat="45.1543" lon="2.80445">
        <ele>1112</ele>
        <time>2019-12-19T00:03:13Z</time>
      </trkpt>
      <trkpt lat="45.15423" lon="2.80477">
        <ele>1115</ele>
        <time>2019-12-19T00:03:17Z</time>
      </trkpt>
      <trkpt lat="45.15398" lon="2.80525">
        <ele>1121</ele>
        <time>2019-12-19T00:03:24Z</time>
      </trkpt>
      <trkpt lat="45.15392" lon="2.8054">
        <ele>1122</ele>
        <time>2019-12-19T00:03:27Z</time>
      </trkpt>
      <trkpt lat="45.15389" lon="2.80561">
        <ele>1122</ele>
        <time>2019-12-19T00:03:29Z</time>
      </trkpt>
      <trkpt lat="45.15387" lon="2.80628">
        <ele>1122</ele>
        <time>2019-12-19T00:03:38Z</time>
      </trkpt>
      <trkpt lat="45.15383" lon="2.80647">
        <ele>1123</ele>
        <time>2019-12-19T00:03:40Z</time>
      </trkpt>
      <trkpt lat="45.15376" lon="2.80666">
        <ele>1125</ele>
        <time>2019-12-19T00:03:43Z</time>
      </trkpt>
      <trkpt lat="45.15356" lon="2.8071">
        <ele>1131</ele>
        <time>2019-12-19T00:03:49Z</time>
      </trkpt>
      <trkpt lat="45.15336" lon="2.80759">
        <ele>1136</ele>
        <time>2019-12-19T00:03:57Z</time>
      </trkpt>
      <trkpt lat="45.15332" lon="2.80783">
        <ele>1138</ele>
        <time>2019-12-19T00:04:00Z</time>
      </trkpt>
      <trkpt lat="45.15329" lon="2.80823">
        <ele>1140</ele>
        <time>2019-12-19T00:04:05Z</time>
      </trkpt>
      <trkpt lat="45.15335" lon="2.80858">
        <ele>1142</ele>
        <time>2019-12-19T00:04:09Z</time>
      </trkpt>
      <trkpt lat="45.15347" lon="2.80907">
        <ele>1144</ele>
        <time>2019-12-19T00:04:16Z</time>
      </trkpt>
      <trkpt lat="45.1535" lon="2.80929">
        <ele>1145</ele>
        <time>2019-12-19T00:04:19Z</time>
      </trkpt>
      <trkpt lat="45.15346" lon="2.80963">
        <ele>1147</ele>
        <time>2019-12-19T00:04:23Z</time>
      </trkpt>
      <trkpt lat="45.15339" lon="2.8098">
        <ele>1149</ele>
        <time>2019-12-19T00:04:25Z</time>
      </trkpt>
      <trkpt lat="45.15329" lon="2.80997">
        <ele>1152</ele>
        <time>2019-12-19T00:04:28Z</time>
      </trkpt>
      <trkpt lat="45.15317" lon="2.8101">
        <ele>1154</ele>
        <time>2019-12-19T00:04:31Z</time>
      </trkpt>
      <trkpt lat="45.15304" lon="2.8103">
        <ele>1157</ele>
        <time>2019-12-19T00:04:34Z</time>
      </trkpt>
      <trkpt lat="45.15298" lon="2.81058">
        <ele>1157</ele>
        <time>2019-12-19T00:04:38Z</time>
      </trkpt>
      <trkpt lat="45.15299" lon="2.81099">
        <ele>1157</ele>
        <time>2019-12-19T00:04:43Z</time>
      </trkpt>
      <trkpt lat="45.15299" lon="2.81128">
        <ele>1159</ele>
        <time>2019-12-19T00:04:47Z</time>
      </trkpt>
      <trkpt lat="45.15301" lon="2.81154">
        <ele>1160</ele>
        <time>2019-12-19T00:04:50Z</time>
      </trkpt>
      <trkpt lat="45.15308" lon="2.81173">
        <ele>1160</ele>
        <time>2019-12-19T00:04:53Z</time>
      </trkpt>
      <trkpt lat="45.15317" lon="2.81192">
        <ele>1160</ele>
        <time>2019-12-19T00:04:56Z</time>
      </trkpt>
      <trkpt lat="45.15321" lon="2.81213">
        <ele>1161</ele>
        <time>2019-12-19T00:04:58Z</time>
      </trkpt>
      <trkpt lat="45.1532" lon="2.81248">
        <ele>1164</ele>
        <time>2019-12-19T00:05:03Z</time>
      </trkpt>
      <trkpt lat="45.15322" lon="2.81286">
        <ele>1165</ele>
        <time>2019-12-19T00:05:07Z</time>
      </trkpt>
      <trkpt lat="45.15338" lon="2.81413">
        <ele>1168</ele>
        <time>2019-12-19T00:05:24Z</time>
      </trkpt>
      <trkpt lat="45.15335" lon="2.81427">
        <ele>1169</ele>
        <time>2019-12-19T00:05:25Z</time>
      </trkpt>
      <trkpt lat="45.15327" lon="2.8144">
        <ele>1171</ele>
        <time>2019-12-19T00:05:28Z</time>
      </trkpt>
      <trkpt lat="45.15288" lon="2.81464">
        <ele>1179</ele>
        <time>2019-12-19T00:05:35Z</time>
      </trkpt>
      <trkpt lat="45.1527" lon="2.81412">
        <ele>1180</ele>
        <time>2019-12-19T00:05:42Z</time>
      </trkpt>
      <trkpt lat="45.15246" lon="2.81349">
        <ele>1180</ele>
        <time>2019-12-19T00:05:51Z</time>
      </trkpt>
      <trkpt lat="45.15226" lon="2.8131">
        <ele>1181</ele>
        <time>2019-12-19T00:05:57Z</time>
      </trkpt>
      <trkpt lat="45.15185" lon="2.81259">
        <ele>1184</ele>
        <time>2019-12-19T00:06:07Z</time>
      </trkpt>
      <trkpt lat="45.15158" lon="2.81235">
        <ele>1186</ele>
        <time>2019-12-19T00:06:13Z</time>
      </trkpt>
      <trkpt lat="45.15138" lon="2.81222">
        <ele>1187</ele>
        <time>2019-12-19T00:06:17Z</time>
      </trkpt>
      <trkpt lat="45.15102" lon="2.81204">
        <ele>1188</ele>
        <time>2019-12-19T00:06:24Z</time>
      </trkpt>
      <trkpt lat="45.15071" lon="2.81196">
        <ele>1190</ele>
        <time>2019-12-19T00:06:29Z</time>
      </trkpt>
      <trkpt lat="45.15039" lon="2.81195">
        <ele>1191</ele>
        <time>2019-12-19T00:06:35Z</time>
      </trkpt>
      <trkpt lat="45.15003" lon="2.812">
        <ele>1193</ele>
        <time>2019-12-19T00:06:41Z</time>
      </trkpt>
      <trkpt lat="45.1497" lon="2.81212">
        <ele>1193</ele>
        <time>2019-12-19T00:06:47Z</time>
      </trkpt>
      <trkpt lat="45.14935" lon="2.81234">
        <ele>1193</ele>
        <time>2019-12-19T00:06:54Z</time>
      </trkpt>
      <trkpt lat="45.14887" lon="2.81274">
        <ele>1196</ele>
        <time>2019-12-19T00:07:04Z</time>
      </trkpt>
      <trkpt lat="45.14863" lon="2.81299">
        <ele>1198</ele>
        <time>2019-12-19T00:07:09Z</time>
      </trkpt>
      <trkpt lat="45.14826" lon="2.81341">
        <ele>1202</ele>
        <time>2019-12-19T00:07:18Z</time>
      </trkpt>
      <trkpt lat="45.14782" lon="2.81399">
        <ele>1204</ele>
        <time>2019-12-19T00:07:28Z</time>
      </trkpt>
      <trkpt lat="45.14742" lon="2.81447">
        <ele>1208</ele>
        <time>2019-12-19T00:07:38Z</time>
      </trkpt>
      <trkpt lat="45.14721" lon="2.81468">
        <ele>1209</ele>
        <time>2019-12-19T00:07:42Z</time>
      </trkpt>
      <trkpt lat="45.14605" lon="2.8157">
        <ele>1210</ele>
        <time>2019-12-19T00:08:07Z</time>
      </trkpt>
      <trkpt lat="45.14579" lon="2.81595">
        <ele>1208</ele>
        <time>2019-12-19T00:08:12Z</time>
      </trkpt>
      <trkpt lat="45.14082" lon="2.82135">
        <ele>1192</ele>
        <time>2019-12-19T00:10:04Z</time>
      </trkpt>
      <trkpt lat="45.14062" lon="2.82164">
        <ele>1190</ele>
        <time>2019-12-19T00:10:09Z</time>
      </trkpt>
      <trkpt lat="45.14048" lon="2.82189">
        <ele>1189</ele>
        <time>2019-12-19T00:10:13Z</time>
      </trkpt>
      <trkpt lat="45.1404" lon="2.82206">
        <ele>1189</ele>
        <time>2019-12-19T00:10:15Z</time>
      </trkpt>
      <trkpt lat="45.14022" lon="2.82252">
        <ele>1188</ele>
        <time>2019-12-19T00:10:22Z</time>
      </trkpt>
      <trkpt lat="45.13931" lon="2.82551">
        <ele>1181</ele>
        <time>2019-12-19T00:11:03Z</time>
      </trkpt>
      <trkpt lat="45.13907" lon="2.82614">
        <ele>1181</ele>
        <time>2019-12-19T00:11:12Z</time>
      </trkpt>
      <trkpt lat="45.13884" lon="2.82656">
        <ele>1180</ele>
        <time>2019-12-19T00:11:18Z</time>
      </trkpt>
      <trkpt lat="45.13869" lon="2.82677">
        <ele>1180</ele>
        <time>2019-12-19T00:11:22Z</time>
      </trkpt>
      <trkpt lat="45.13749" lon="2.82821">
        <ele>1176</ele>
        <time>2019-12-19T00:11:50Z</time>
      </trkpt>
      <trkpt lat="45.13716" lon="2.82856">
        <ele>1173</ele>
        <time>2019-12-19T00:11:58Z</time>
      </trkpt>
      <trkpt lat="45.13702" lon="2.82869">
        <ele>1173</ele>
        <time>2019-12-19T00:12:01Z</time>
      </trkpt>
      <trkpt lat="45.13664" lon="2.82897">
        <ele>1173</ele>
        <time>2019-12-19T00:12:08Z</time>
      </trkpt>
      <trkpt lat="45.13528" lon="2.82993">
        <ele>1172</ele>
        <time>2019-12-19T00:12:35Z</time>
      </trkpt>
      <trkpt lat="45.13505" lon="2.83011">
        <ele>1171</ele>
        <time>2019-12-19T00:12:40Z</time>
      </trkpt>
      <trkpt lat="45.13475" lon="2.83042">
        <ele>1170</ele>
        <time>2019-12-19T00:12:46Z</time>
      </trkpt>
      <trkpt lat="45.13449" lon="2.83073">
        <ele>1168</ele>
        <time>2019-12-19T00:12:52Z</time>
      </trkpt>
      <trkpt lat="45.13424" lon="2.83112">
        <ele>1167</ele>
        <time>2019-12-19T00:12:59Z</time>
      </trkpt>
      <trkpt lat="45.13403" lon="2.83151">
        <ele>1165</ele>
        <time>2019-12-19T00:13:05Z</time>
      </trkpt>
      <trkpt lat="45.13382" lon="2.83203">
        <ele>1163</ele>
        <time>2019-12-19T00:13:13Z</time>
      </trkpt>
      <trkpt lat="45.13371" lon="2.83235">
        <ele>1162</ele>
        <time>2019-12-19T00:13:17Z</time>
      </trkpt>
      <trkpt lat="45.13288" lon="2.83556">
        <ele>1147</ele>
        <time>2019-12-19T00:14:00Z</time>
      </trkpt>
      <trkpt lat="45.13255" lon="2.83688">
        <ele>1141</ele>
        <time>2019-12-19T00:14:18Z</time>
      </trkpt>
      <trkpt lat="45.1319" lon="2.83992">
        <ele>1127</ele>
        <time>2019-12-19T00:14:58Z</time>
      </trkpt>
      <trkpt lat="45.13179" lon="2.84029">
        <ele>1125</ele>
        <time>2019-12-19T00:15:03Z</time>
      </trkpt>
      <trkpt lat="45.13167" lon="2.84064">
        <ele>1123</ele>
        <time>2019-12-19T00:15:08Z</time>
      </trkpt>
      <trkpt lat="45.13114" lon="2.84185">
        <ele>1115</ele>
        <time>2019-12-19T00:15:25Z</time>
      </trkpt>
      <trkpt lat="45.13022" lon="2.84383">
        <ele>1112</ele>
        <time>2019-12-19T00:15:55Z</time>
      </trkpt>
      <trkpt lat="45.13011" lon="2.84406">
        <ele>1111</ele>
        <time>2019-12-19T00:15:59Z</time>
      </trkpt>
      <trkpt lat="45.12992" lon="2.84435">
        <ele>1111</ele>
        <time>2019-12-19T00:16:04Z</time>
      </trkpt>
      <trkpt lat="45.12949" lon="2.84486">
        <ele>1109</ele>
        <time>2019-12-19T00:16:14Z</time>
      </trkpt>
      <trkpt lat="45.12656" lon="2.8481">
        <ele>1085</ele>
        <time>2019-12-19T00:17:20Z</time>
      </trkpt>
      <trkpt lat="45.12641" lon="2.84832">
        <ele>1084</ele>
        <time>2019-12-19T00:17:24Z</time>
      </trkpt>
      <trkpt lat="45.12626" lon="2.84859">
        <ele>1083</ele>
        <time>2019-12-19T00:17:28Z</time>
      </trkpt>
      <trkpt lat="45.12588" lon="2.84935">
        <ele>1081</ele>
        <time>2019-12-19T00:17:40Z</time>
      </trkpt>
      <trkpt lat="45.12569" lon="2.84962">
        <ele>1079</ele>
        <time>2019-12-19T00:17:44Z</time>
      </trkpt>
      <trkpt lat="45.12546" lon="2.84988">
        <ele>1077</ele>
        <time>2019-12-19T00:17:50Z</time>
      </trkpt>
      <trkpt lat="45.12516" lon="2.85011">
        <ele>1076</ele>
        <time>2019-12-19T00:17:56Z</time>
      </trkpt>
      <trkpt lat="45.1249" lon="2.85022">
        <ele>1075</ele>
        <time>2019-12-19T00:18:00Z</time>
      </trkpt>
      <trkpt lat="45.12466" lon="2.85028">
        <ele>1075</ele>
        <time>2019-12-19T00:18:05Z</time>
      </trkpt>
      <trkpt lat="45.12216" lon="2.85035">
        <ele>1055</ele>
        <time>2019-12-19T00:18:49Z</time>
      </trkpt>
      <trkpt lat="45.12146" lon="2.85039">
        <ele>1049</ele>
        <time>2019-12-19T00:19:02Z</time>
      </trkpt>
      <trkpt lat="45.12099" lon="2.85052">
        <ele>1046</ele>
        <time>2019-12-19T00:19:10Z</time>
      </trkpt>
      <trkpt lat="45.12058" lon="2.85071">
        <ele>1042</ele>
        <time>2019-12-19T00:19:18Z</time>
      </trkpt>
      <trkpt lat="45.12037" lon="2.85083">
        <ele>1040</ele>
        <time>2019-12-19T00:19:22Z</time>
      </trkpt>
      <trkpt lat="45.11993" lon="2.85119">
        <ele>1035</ele>
        <time>2019-12-19T00:19:31Z</time>
      </trkpt>
      <trkpt lat="45.11974" lon="2.85138">
        <ele>1034</ele>
        <time>2019-12-19T00:19:35Z</time>
      </trkpt>
      <trkpt lat="45.11939" lon="2.8518">
        <ele>1032</ele>
        <time>2019-12-19T00:19:43Z</time>
      </trkpt>
      <trkpt lat="45.11901" lon="2.85241">
        <ele>1029</ele>
        <time>2019-12-19T00:19:54Z</time>
      </trkpt>
      <trkpt lat="45.11881" lon="2.85283">
        <ele>1028</ele>
        <time>2019-12-19T00:20:00Z</time>
      </trkpt>
      <trkpt lat="45.11857" lon="2.8535">
        <ele>1029</ele>
        <time>2019-12-19T00:20:09Z</time>
      </trkpt>
      <trkpt lat="45.11806" lon="2.85561">
        <ele>1029</ele>
        <time>2019-12-19T00:20:37Z</time>
      </trkpt>
      <trkpt lat="45.11798" lon="2.8559">
        <ele>1028</ele>
        <time>2019-12-19T00:20:41Z</time>
      </trkpt>
      <trkpt lat="45.11782" lon="2.85628">
        <ele>1028</ele>
        <time>2019-12-19T00:20:47Z</time>
      </trkpt>
      <trkpt lat="45.1177" lon="2.85653">
        <ele>1026</ele>
        <time>2019-12-19T00:20:51Z</time>
      </trkpt>
      <trkpt lat="45.11708" lon="2.85748">
        <ele>1016</ele>
        <time>2019-12-19T00:21:07Z</time>
      </trkpt>
      <trkpt lat="45.11691" lon="2.85785">
        <ele>1014</ele>
        <time>2019-12-19T00:21:12Z</time>
      </trkpt>
      <trkpt lat="45.11678" lon="2.85822">
        <ele>1013</ele>
        <time>2019-12-19T00:21:18Z</time>
      </trkpt>
      <trkpt lat="45.11638" lon="2.85963">
        <ele>1013</ele>
        <time>2019-12-19T00:21:37Z</time>
      </trkpt>
      <trkpt lat="45.11617" lon="2.86012">
        <ele>1011</ele>
        <time>2019-12-19T00:21:44Z</time>
      </trkpt>
      <trkpt lat="45.11576" lon="2.861">
        <ele>1007</ele>
        <time>2019-12-19T00:21:57Z</time>
      </trkpt>
      <trkpt lat="45.1156" lon="2.8614">
        <ele>1006</ele>
        <time>2019-12-19T00:22:03Z</time>
      </trkpt>
      <trkpt lat="45.11515" lon="2.86268">
        <ele>999</ele>
        <time>2019-12-19T00:22:21Z</time>
      </trkpt>
      <trkpt lat="45.11509" lon="2.86281">
        <ele>997</ele>
        <time>2019-12-19T00:22:23Z</time>
      </trkpt>
      <trkpt lat="45.11499" lon="2.86296">
        <ele>995</ele>
        <time>2019-12-19T00:22:25Z</time>
      </trkpt>
      <trkpt lat="45.11479" lon="2.86315">
        <ele>993</ele>
        <time>2019-12-19T00:22:30Z</time>
      </trkpt>
      <trkpt lat="45.11472" lon="2.86316">
        <ele>992</ele>
        <time>2019-12-19T00:22:31Z</time>
      </trkpt>
      <trkpt lat="45.11455" lon="2.86311">
        <ele>989</ele>
        <time>2019-12-19T00:22:34Z</time>
      </trkpt>
      <trkpt lat="45.1145" lon="2.86301">
        <ele>988</ele>
        <time>2019-12-19T00:22:36Z</time>
      </trkpt>
      <trkpt lat="45.11443" lon="2.86296">
        <ele>987</ele>
        <time>2019-12-19T00:22:37Z</time>
      </trkpt>
      <trkpt lat="45.11435" lon="2.86293">
        <ele>986</ele>
        <time>2019-12-19T00:22:38Z</time>
      </trkpt>
      <trkpt lat="45.11426" lon="2.86296">
        <ele>984</ele>
        <time>2019-12-19T00:22:40Z</time>
      </trkpt>
      <trkpt lat="45.11419" lon="2.86303">
        <ele>984</ele>
        <time>2019-12-19T00:22:42Z</time>
      </trkpt>
      <trkpt lat="45.11414" lon="2.86313">
        <ele>984</ele>
        <time>2019-12-19T00:22:43Z</time>
      </trkpt>
      <trkpt lat="45.11413" lon="2.86324">
        <ele>984</ele>
        <time>2019-12-19T00:22:45Z</time>
      </trkpt>
      <trkpt lat="45.11413" lon="2.86333">
        <ele>985</ele>
        <time>2019-12-19T00:22:46Z</time>
      </trkpt>
      <trkpt lat="45.11416" lon="2.86342">
        <ele>984</ele>
        <time>2019-12-19T00:22:47Z</time>
      </trkpt>
      <trkpt lat="45.11422" lon="2.8635">
        <ele>984</ele>
        <time>2019-12-19T00:22:48Z</time>
      </trkpt>
      <trkpt lat="45.1143" lon="2.86355">
        <ele>985</ele>
        <time>2019-12-19T00:22:50Z</time>
      </trkpt>
      <trkpt lat="45.11436" lon="2.86356">
        <ele>986</ele>
        <time>2019-12-19T00:22:51Z</time>
      </trkpt>
      <trkpt lat="45.11448" lon="2.86366">
        <ele>988</ele>
        <time>2019-12-19T00:22:53Z</time>
      </trkpt>
      <trkpt lat="45.11458" lon="2.86385">
        <ele>990</ele>
        <time>2019-12-19T00:22:56Z</time>
      </trkpt>
      <trkpt lat="45.11471" lon="2.8642">
        <ele>992</ele>
        <time>2019-12-19T00:23:01Z</time>
      </trkpt>
      <trkpt lat="45.11477" lon="2.86457">
        <ele>992</ele>
        <time>2019-12-19T00:23:06Z</time>
      </trkpt>
      <trkpt lat="45.11476" lon="2.86486">
        <ele>991</ele>
        <time>2019-12-19T00:23:10Z</time>
      </trkpt>
      <trkpt lat="45.1147" lon="2.86514">
        <ele>989</ele>
        <time>2019-12-19T00:23:14Z</time>
      </trkpt>
      <trkpt lat="45.11452" lon="2.86567">
        <ele>984</ele>
        <time>2019-12-19T00:23:21Z</time>
      </trkpt>
      <trkpt lat="45.11414" lon="2.86629">
        <ele>977</ele>
        <time>2019-12-19T00:23:31Z</time>
      </trkpt>
      <trkpt lat="45.11384" lon="2.86653">
        <ele>975</ele>
        <time>2019-12-19T00:23:37Z</time>
      </trkpt>
      <trkpt lat="45.11362" lon="2.86652">
        <ele>974</ele>
        <time>2019-12-19T00:23:41Z</time>
      </trkpt>
      <trkpt lat="45.11321" lon="2.86692">
        <ele>969</ele>
        <time>2019-12-19T00:23:50Z</time>
      </trkpt>
      <trkpt lat="45.11297" lon="2.86699">
        <ele>967</ele>
        <time>2019-12-19T00:23:54Z</time>
      </trkpt>
      <trkpt lat="45.1128" lon="2.86699">
        <ele>966</ele>
        <time>2019-12-19T00:23:57Z</time>
      </trkpt>
      <trkpt lat="45.11272" lon="2.86706">
        <ele>964</ele>
        <time>2019-12-19T00:23:59Z</time>
      </trkpt>
      <trkpt lat="45.11271" lon="2.86712">
        <ele>963</ele>
        <time>2019-12-19T00:24:00Z</time>
      </trkpt>
      <trkpt lat="45.1128" lon="2.86726">
        <ele>962</ele>
        <time>2019-12-19T00:24:02Z</time>
      </trkpt>
      <trkpt lat="45.11281" lon="2.86736">
        <ele>960</ele>
        <time>2019-12-19T00:24:04Z</time>
      </trkpt>
      <trkpt lat="45.11264" lon="2.86761">
        <ele>954</ele>
        <time>2019-12-19T00:24:08Z</time>
      </trkpt>
      <trkpt lat="45.11237" lon="2.8674">
        <ele>951</ele>
        <time>2019-12-19T00:24:13Z</time>
      </trkpt>
      <trkpt lat="45.11225" lon="2.86755">
        <ele>946</ele>
        <time>2019-12-19T00:24:16Z</time>
      </trkpt>
      <trkpt lat="45.11202" lon="2.86741">
        <ele>945</ele>
        <time>2019-12-19T00:24:21Z</time>
      </trkpt>
      <trkpt lat="45.11195" lon="2.86758">
        <ele>941</ele>
        <time>2019-12-19T00:24:23Z</time>
      </trkpt>
      <trkpt lat="45.11191" lon="2.86759">
        <ele>941</ele>
        <time>2019-12-19T00:24:24Z</time>
      </trkpt>
      <trkpt lat="45.1119" lon="2.86771">
        <ele>941</ele>
        <time>2019-12-19T00:24:25Z</time>
      </trkpt>
      <trkpt lat="45.11195" lon="2.86807">
        <ele>941</ele>
        <time>2019-12-19T00:24:30Z</time>
      </trkpt>
      <trkpt lat="45.11202" lon="2.86824">
        <ele>942</ele>
        <time>2019-12-19T00:24:33Z</time>
      </trkpt>
      <trkpt lat="45.11213" lon="2.86849">
        <ele>945</ele>
        <time>2019-12-19T00:24:36Z</time>
      </trkpt>
      <trkpt lat="45.11201" lon="2.86877">
        <ele>944</ele>
        <time>2019-12-19T00:24:40Z</time>
      </trkpt>
      <trkpt lat="45.11192" lon="2.86872">
        <ele>942</ele>
        <time>2019-12-19T00:24:42Z</time>
      </trkpt>
      <trkpt lat="45.11188" lon="2.86875">
        <ele>941</ele>
        <time>2019-12-19T00:24:43Z</time>
      </trkpt>
      <trkpt lat="45.11172" lon="2.869">
        <ele>939</ele>
        <time>2019-12-19T00:24:47Z</time>
      </trkpt>
      <trkpt lat="45.11156" lon="2.86907">
        <ele>935</ele>
        <time>2019-12-19T00:24:50Z</time>
      </trkpt>
      <trkpt lat="45.11145" lon="2.86929">
        <ele>934</ele>
        <time>2019-12-19T00:24:53Z</time>
      </trkpt>
      <trkpt lat="45.11139" lon="2.86937">
        <ele>933</ele>
        <time>2019-12-19T00:24:55Z</time>
      </trkpt>
      <trkpt lat="45.11131" lon="2.86958">
        <ele>932</ele>
        <time>2019-12-19T00:24:58Z</time>
      </trkpt>
      <trkpt lat="45.11128" lon="2.86989">
        <ele>932</ele>
        <time>2019-12-19T00:25:02Z</time>
      </trkpt>
      <trkpt lat="45.11124" lon="2.87004">
        <ele>931</ele>
        <time>2019-12-19T00:25:04Z</time>
      </trkpt>
      <trkpt lat="45.11118" lon="2.87015">
        <ele>930</ele>
        <time>2019-12-19T00:25:06Z</time>
      </trkpt>
      <trkpt lat="45.11074" lon="2.87065">
        <ele>920</ele>
        <time>2019-12-19T00:25:16Z</time>
      </trkpt>
      <trkpt lat="45.11045" lon="2.87085">
        <ele>916</ele>
        <time>2019-12-19T00:25:21Z</time>
      </trkpt>
      <trkpt lat="45.11019" lon="2.87116">
        <ele>914</ele>
        <time>2019-12-19T00:25:27Z</time>
      </trkpt>
      <trkpt lat="45.10994" lon="2.87164">
        <ele>912</ele>
        <time>2019-12-19T00:25:35Z</time>
      </trkpt>
      <trkpt lat="45.1099" lon="2.87158">
        <ele>912</ele>
        <time>2019-12-19T00:25:36Z</time>
      </trkpt>
      <trkpt lat="45.10977" lon="2.87157">
        <ele>911</ele>
        <time>2019-12-19T00:25:38Z</time>
      </trkpt>
      <trkpt lat="45.10951" lon="2.87178">
        <ele>909</ele>
        <time>2019-12-19T00:25:44Z</time>
      </trkpt>
      <trkpt lat="45.10941" lon="2.87175">
        <ele>909</ele>
        <time>2019-12-19T00:25:45Z</time>
      </trkpt>
      <trkpt lat="45.10935" lon="2.87192">
        <ele>908</ele>
        <time>2019-12-19T00:25:48Z</time>
      </trkpt>
      <trkpt lat="45.10924" lon="2.87205">
        <ele>907</ele>
        <time>2019-12-19T00:25:50Z</time>
      </trkpt>
      <trkpt lat="45.10913" lon="2.87214">
        <ele>906</ele>
        <time>2019-12-19T00:25:53Z</time>
      </trkpt>
      <trkpt lat="45.1081" lon="2.87309">
        <ele>897</ele>
        <time>2019-12-19T00:26:14Z</time>
      </trkpt>
      <trkpt lat="45.10777" lon="2.87334">
        <ele>896</ele>
        <time>2019-12-19T00:26:21Z</time>
      </trkpt>
      <trkpt lat="45.10766" lon="2.8734">
        <ele>896</ele>
        <time>2019-12-19T00:26:23Z</time>
      </trkpt>
      <trkpt lat="45.10725" lon="2.87353">
        <ele>893</ele>
        <time>2019-12-19T00:26:31Z</time>
      </trkpt>
      <trkpt lat="45.107" lon="2.87355">
        <ele>890</ele>
        <time>2019-12-19T00:26:35Z</time>
      </trkpt>
      <trkpt lat="45.10676" lon="2.87351">
        <ele>889</ele>
        <time>2019-12-19T00:26:39Z</time>
      </trkpt>
      <trkpt lat="45.10652" lon="2.87337">
        <ele>888</ele>
        <time>2019-12-19T00:26:44Z</time>
      </trkpt>
      <trkpt lat="45.10593" lon="2.87273">
        <ele>887</ele>
        <time>2019-12-19T00:26:57Z</time>
      </trkpt>
      <trkpt lat="45.10578" lon="2.87264">
        <ele>887</ele>
        <time>2019-12-19T00:27:00Z</time>
      </trkpt>
      <trkpt lat="45.10568" lon="2.87263">
        <ele>888</ele>
        <time>2019-12-19T00:27:02Z</time>
      </trkpt>
      <trkpt lat="45.10535" lon="2.8726">
        <ele>890</ele>
        <time>2019-12-19T00:27:08Z</time>
      </trkpt>
      <trkpt lat="45.10517" lon="2.87271">
        <ele>891</ele>
        <time>2019-12-19T00:27:11Z</time>
      </trkpt>
      <trkpt lat="45.10509" lon="2.87285">
        <ele>891</ele>
        <time>2019-12-19T00:27:14Z</time>
      </trkpt>
      <trkpt lat="45.10504" lon="2.87299">
        <ele>891</ele>
        <time>2019-12-19T00:27:16Z</time>
      </trkpt>
      <trkpt lat="45.10481" lon="2.87401">
        <ele>896</ele>
        <time>2019-12-19T00:27:29Z</time>
      </trkpt>
      <trkpt lat="45.10463" lon="2.87507">
        <ele>897</ele>
        <time>2019-12-19T00:27:43Z</time>
      </trkpt>
      <trkpt lat="45.10457" lon="2.87531">
        <ele>896</ele>
        <time>2019-12-19T00:27:46Z</time>
      </trkpt>
      <trkpt lat="45.10448" lon="2.87555">
        <ele>895</ele>
        <time>2019-12-19T00:27:49Z</time>
      </trkpt>
      <trkpt lat="45.10424" lon="2.87591">
        <ele>892</ele>
        <time>2019-12-19T00:27:56Z</time>
      </trkpt>
      <trkpt lat="45.1036" lon="2.87645">
        <ele>890</ele>
        <time>2019-12-19T00:28:09Z</time>
      </trkpt>
      <trkpt lat="45.10345" lon="2.87661">
        <ele>888</ele>
        <time>2019-12-19T00:28:12Z</time>
      </trkpt>
      <trkpt lat="45.10332" lon="2.87679">
        <ele>887</ele>
        <time>2019-12-19T00:28:15Z</time>
      </trkpt>
      <trkpt lat="45.10296" lon="2.87742">
        <ele>887</ele>
        <time>2019-12-19T00:28:26Z</time>
      </trkpt>
      <trkpt lat="45.10046" lon="2.88225">
        <ele>902</ele>
        <time>2019-12-19T00:29:41Z</time>
      </trkpt>
      <trkpt lat="45.10026" lon="2.8822">
        <ele>904</ele>
        <time>2019-12-19T00:29:44Z</time>
      </trkpt>
      <trkpt lat="45.10016" lon="2.88224">
        <ele>905</ele>
        <time>2019-12-19T00:29:46Z</time>
      </trkpt>
      <trkpt lat="45.10003" lon="2.88246">
        <ele>906</ele>
        <time>2019-12-19T00:29:50Z</time>
      </trkpt>
      <trkpt lat="45.0999" lon="2.88283">
        <ele>906</ele>
        <time>2019-12-19T00:29:55Z</time>
      </trkpt>
      <trkpt lat="45.09974" lon="2.88318">
        <ele>907</ele>
        <time>2019-12-19T00:30:00Z</time>
      </trkpt>
      <trkpt lat="45.09961" lon="2.88338">
        <ele>909</ele>
        <time>2019-12-19T00:30:04Z</time>
      </trkpt>
      <trkpt lat="45.09947" lon="2.88344">
        <ele>910</ele>
        <time>2019-12-19T00:30:06Z</time>
      </trkpt>
      <trkpt lat="45.09904" lon="2.88346">
        <ele>916</ele>
        <time>2019-12-19T00:30:14Z</time>
      </trkpt>
      <trkpt lat="45.09881" lon="2.88353">
        <ele>919</ele>
        <time>2019-12-19T00:30:18Z</time>
      </trkpt>
      <trkpt lat="45.09854" lon="2.88369">
        <ele>922</ele>
        <time>2019-12-19T00:30:23Z</time>
      </trkpt>
      <trkpt lat="45.09831" lon="2.88386">
        <ele>925</ele>
        <time>2019-12-19T00:30:28Z</time>
      </trkpt>
      <trkpt lat="45.09816" lon="2.88391">
        <ele>926</ele>
        <time>2019-12-19T00:30:31Z</time>
      </trkpt>
      <trkpt lat="45.09772" lon="2.8839">
        <ele>929</ele>
        <time>2019-12-19T00:30:39Z</time>
      </trkpt>
      <trkpt lat="45.09754" lon="2.88392">
        <ele>931</ele>
        <time>2019-12-19T00:30:42Z</time>
      </trkpt>
      <trkpt lat="45.09713" lon="2.88401">
        <ele>933</ele>
        <time>2019-12-19T00:30:49Z</time>
      </trkpt>
      <trkpt lat="45.09697" lon="2.88398">
        <ele>935</ele>
        <time>2019-12-19T00:30:52Z</time>
      </trkpt>
      <trkpt lat="45.09626" lon="2.88355">
        <ele>943</ele>
        <time>2019-12-19T00:31:06Z</time>
      </trkpt>
      <trkpt lat="45.09596" lon="2.88332">
        <ele>945</ele>
        <time>2019-12-19T00:31:12Z</time>
      </trkpt>
      <trkpt lat="45.0956" lon="2.88308">
        <ele>951</ele>
        <time>2019-12-19T00:31:19Z</time>
      </trkpt>
      <trkpt lat="45.09493" lon="2.88279">
        <ele>961</ele>
        <time>2019-12-19T00:31:31Z</time>
      </trkpt>
      <trkpt lat="45.09442" lon="2.88246">
        <ele>966</ele>
        <time>2019-12-19T00:31:41Z</time>
      </trkpt>
      <trkpt lat="45.09416" lon="2.88218">
        <ele>968</ele>
        <time>2019-12-19T00:31:47Z</time>
      </trkpt>
      <trkpt lat="45.09406" lon="2.88202">
        <ele>970</ele>
        <time>2019-12-19T00:31:50Z</time>
      </trkpt>
      <trkpt lat="45.09381" lon="2.88132">
        <ele>976</ele>
        <time>2019-12-19T00:32:00Z</time>
      </trkpt>
      <trkpt lat="45.0937" lon="2.88115">
        <ele>978</ele>
        <time>2019-12-19T00:32:03Z</time>
      </trkpt>
      <trkpt lat="45.09352" lon="2.88097">
        <ele>979</ele>
        <time>2019-12-19T00:32:06Z</time>
      </trkpt>
      <trkpt lat="45.09332" lon="2.88084">
        <ele>978</ele>
        <time>2019-12-19T00:32:10Z</time>
      </trkpt>
      <trkpt lat="45.0931" lon="2.88062">
        <ele>982</ele>
        <time>2019-12-19T00:32:15Z</time>
      </trkpt>
      <trkpt lat="45.09214" lon="2.87906">
        <ele>991</ele>
        <time>2019-12-19T00:32:41Z</time>
      </trkpt>
      <trkpt lat="45.09195" lon="2.87884">
        <ele>992</ele>
        <time>2019-12-19T00:32:46Z</time>
      </trkpt>
      <trkpt lat="45.09184" lon="2.87866">
        <ele>992</ele>
        <time>2019-12-19T00:32:49Z</time>
      </trkpt>
      <trkpt lat="45.09163" lon="2.87822">
        <ele>993</ele>
        <time>2019-12-19T00:32:55Z</time>
      </trkpt>
      <trkpt lat="45.09112" lon="2.87733">
        <ele>997</ele>
        <time>2019-12-19T00:33:10Z</time>
      </trkpt>
      <trkpt lat="45.09101" lon="2.87718">
        <ele>997</ele>
        <time>2019-12-19T00:33:12Z</time>
      </trkpt>
      <trkpt lat="45.09082" lon="2.87699">
        <ele>996</ele>
        <time>2019-12-19T00:33:16Z</time>
      </trkpt>
      <trkpt lat="45.09048" lon="2.87635">
        <ele>997</ele>
        <time>2019-12-19T00:33:27Z</time>
      </trkpt>
      <trkpt lat="45.09033" lon="2.87601">
        <ele>997</ele>
        <time>2019-12-19T00:33:32Z</time>
      </trkpt>
      <trkpt lat="45.09032" lon="2.87623">
        <ele>997</ele>
        <time>2019-12-19T00:33:34Z</time>
      </trkpt>
      <trkpt lat="45.0903" lon="2.87637">
        <ele>997</ele>
        <time>2019-12-19T00:33:36Z</time>
      </trkpt>
      <trkpt lat="45.0903" lon="2.87649">
        <ele>998</ele>
        <time>2019-12-19T00:33:38Z</time>
      </trkpt>
      <trkpt lat="45.09032" lon="2.87664">
        <ele>998</ele>
        <time>2019-12-19T00:33:40Z</time>
      </trkpt>
      <trkpt lat="45.09037" lon="2.87682">
        <ele>998</ele>
        <time>2019-12-19T00:33:42Z</time>
      </trkpt>
      <trkpt lat="45.09058" lon="2.87725">
        <ele>998</ele>
        <time>2019-12-19T00:33:49Z</time>
      </trkpt>
      <trkpt lat="45.09065" lon="2.87745">
        <ele>998</ele>
        <time>2019-12-19T00:33:51Z</time>
      </trkpt>
      <trkpt lat="45.09069" lon="2.87762">
        <ele>998</ele>
        <time>2019-12-19T00:33:54Z</time>
      </trkpt>
      <trkpt lat="45.09104" lon="2.88034">
        <ele>1009</ele>
        <time>2019-12-19T00:34:28Z</time>
      </trkpt>
      <trkpt lat="45.09133" lon="2.88276">
        <ele>1026</ele>
        <time>2019-12-19T00:34:59Z</time>
      </trkpt>
      <trkpt lat="45.09134" lon="2.88302">
        <ele>1028</ele>
        <time>2019-12-19T00:35:02Z</time>
      </trkpt>
      <trkpt lat="45.09129" lon="2.8837">
        <ele>1033</ele>
        <time>2019-12-19T00:35:11Z</time>
      </trkpt>
      <trkpt lat="45.09124" lon="2.88411">
        <ele>1035</ele>
        <time>2019-12-19T00:35:16Z</time>
      </trkpt>
      <trkpt lat="45.09115" lon="2.88445">
        <ele>1039</ele>
        <time>2019-12-19T00:35:21Z</time>
      </trkpt>
      <trkpt lat="45.09102" lon="2.88487">
        <ele>1042</ele>
        <time>2019-12-19T00:35:27Z</time>
      </trkpt>
      <trkpt lat="45.09104" lon="2.88501">
        <ele>1042</ele>
        <time>2019-12-19T00:35:28Z</time>
      </trkpt>
      <trkpt lat="45.09109" lon="2.88515">
        <ele>1044</ele>
        <time>2019-12-19T00:35:30Z</time>
      </trkpt>
      <trkpt lat="45.09122" lon="2.88529">
        <ele>1045</ele>
        <time>2019-12-19T00:35:33Z</time>
      </trkpt>
      <trkpt lat="45.09173" lon="2.88575">
        <ele>1049</ele>
        <time>2019-12-19T00:35:44Z</time>
      </trkpt>
      <trkpt lat="45.09258" lon="2.88643">
        <ele>1059</ele>
        <time>2019-12-19T00:36:01Z</time>
      </trkpt>
      <trkpt lat="45.09262" lon="2.88649">
        <ele>1060</ele>
        <time>2019-12-19T00:36:02Z</time>
      </trkpt>
      <trkpt lat="45.09263" lon="2.88657">
        <ele>1062</ele>
        <time>2019-12-19T00:36:03Z</time>
      </trkpt>
      <trkpt lat="45.09176" lon="2.88633">
        <ele>1065</ele>
        <time>2019-12-19T00:36:19Z</time>
      </trkpt>
      <trkpt lat="45.09162" lon="2.88631">
        <ele>1066</ele>
        <time>2019-12-19T00:36:22Z</time>
      </trkpt>
      <trkpt lat="45.09142" lon="2.88632">
        <ele>1067</ele>
        <time>2019-12-19T00:36:25Z</time>
      </trkpt>
      <trkpt lat="45.09115" lon="2.88638">
        <ele>1070</ele>
        <time>2019-12-19T00:36:30Z</time>
      </trkpt>
      <trkpt lat="45.09067" lon="2.88661">
        <ele>1076</ele>
        <time>2019-12-19T00:36:39Z</time>
      </trkpt>
      <trkpt lat="45.09017" lon="2.88687">
        <ele>1080</ele>
        <time>2019-12-19T00:36:49Z</time>
      </trkpt>
      <trkpt lat="45.08994" lon="2.88694">
        <ele>1082</ele>
        <time>2019-12-19T00:36:53Z</time>
      </trkpt>
      <trkpt lat="45.08976" lon="2.88699">
        <ele>1084</ele>
        <time>2019-12-19T00:36:56Z</time>
      </trkpt>
      <trkpt lat="45.08959" lon="2.88697">
        <ele>1085</ele>
        <time>2019-12-19T00:36:59Z</time>
      </trkpt>
      <trkpt lat="45.08933" lon="2.88686">
        <ele>1085</ele>
        <time>2019-12-19T00:37:04Z</time>
      </trkpt>
      <trkpt lat="45.08921" lon="2.88686">
        <ele>1085</ele>
        <time>2019-12-19T00:37:06Z</time>
      </trkpt>
      <trkpt lat="45.08793" lon="2.88714">
        <ele>1098</ele>
        <time>2019-12-19T00:37:29Z</time>
      </trkpt>
      <trkpt lat="45.08704" lon="2.88741">
        <ele>1101</ele>
        <time>2019-12-19T00:37:45Z</time>
      </trkpt>
      <trkpt lat="45.08687" lon="2.88752">
        <ele>1101</ele>
        <time>2019-12-19T00:37:49Z</time>
      </trkpt>
      <trkpt lat="45.08661" lon="2.88781">
        <ele>1101</ele>
        <time>2019-12-19T00:37:55Z</time>
      </trkpt>
      <trkpt lat="45.08649" lon="2.88804">
        <ele>1102</ele>
        <time>2019-12-19T00:37:58Z</time>
      </trkpt>
      <trkpt lat="45.08633" lon="2.88826">
        <ele>1102</ele>
        <time>2019-12-19T00:38:02Z</time>
      </trkpt>
      <trkpt lat="45.08616" lon="2.88844">
        <ele>1101</ele>
        <time>2019-12-19T00:38:06Z</time>
      </trkpt>
      <trkpt lat="45.08587" lon="2.88863">
        <ele>1101</ele>
        <time>2019-12-19T00:38:12Z</time>
      </trkpt>
      <trkpt lat="45.08552" lon="2.88882">
        <ele>1104</ele>
        <time>2019-12-19T00:38:18Z</time>
      </trkpt>
      <trkpt lat="45.0853" lon="2.88897">
        <ele>1105</ele>
        <time>2019-12-19T00:38:23Z</time>
      </trkpt>
      <trkpt lat="45.08519" lon="2.88912">
        <ele>1106</ele>
        <time>2019-12-19T00:38:25Z</time>
      </trkpt>
      <trkpt lat="45.08505" lon="2.88937">
        <ele>1107</ele>
        <time>2019-12-19T00:38:29Z</time>
      </trkpt>
      <trkpt lat="45.08492" lon="2.88953">
        <ele>1108</ele>
        <time>2019-12-19T00:38:32Z</time>
      </trkpt>
      <trkpt lat="45.0848" lon="2.88963">
        <ele>1108</ele>
        <time>2019-12-19T00:38:35Z</time>
      </trkpt>
      <trkpt lat="45.08461" lon="2.88971">
        <ele>1109</ele>
        <time>2019-12-19T00:38:38Z</time>
      </trkpt>
      <trkpt lat="45.08416" lon="2.88995">
        <ele>1110</ele>
        <time>2019-12-19T00:38:47Z</time>
      </trkpt>
      <trkpt lat="45.084" lon="2.88995">
        <ele>1111</ele>
        <time>2019-12-19T00:38:50Z</time>
      </trkpt>
      <trkpt lat="45.08383" lon="2.88989">
        <ele>1111</ele>
        <time>2019-12-19T00:38:53Z</time>
      </trkpt>
      <trkpt lat="45.08363" lon="2.8898">
        <ele>1112</ele>
        <time>2019-12-19T00:38:57Z</time>
      </trkpt>
      <trkpt lat="45.08317" lon="2.88941">
        <ele>1116</ele>
        <time>2019-12-19T00:39:06Z</time>
      </trkpt>
      <trkpt lat="45.08305" lon="2.88936">
        <ele>1116</ele>
        <time>2019-12-19T00:39:08Z</time>
      </trkpt>
      <trkpt lat="45.08293" lon="2.88936">
        <ele>1115</ele>
        <time>2019-12-19T00:39:11Z</time>
      </trkpt>
      <trkpt lat="45.0828" lon="2.88939">
        <ele>1114</ele>
        <time>2019-12-19T00:39:13Z</time>
      </trkpt>
      <trkpt lat="45.08261" lon="2.88939">
        <ele>1113</ele>
        <time>2019-12-19T00:39:16Z</time>
      </trkpt>
      <trkpt lat="45.08249" lon="2.88936">
        <ele>1113</ele>
        <time>2019-12-19T00:39:18Z</time>
      </trkpt>
      <trkpt lat="45.08237" lon="2.88927">
        <ele>1113</ele>
        <time>2019-12-19T00:39:21Z</time>
      </trkpt>
      <trkpt lat="45.08231" lon="2.8892">
        <ele>1113</ele>
        <time>2019-12-19T00:39:22Z</time>
      </trkpt>
      <trkpt lat="45.08228" lon="2.88909">
        <ele>1114</ele>
        <time>2019-12-19T00:39:24Z</time>
      </trkpt>
      <trkpt lat="45.08227" lon="2.88896">
        <ele>1114</ele>
        <time>2019-12-19T00:39:25Z</time>
      </trkpt>
      <trkpt lat="45.08233" lon="2.88852">
        <ele>1117</ele>
        <time>2019-12-19T00:39:31Z</time>
      </trkpt>
      <trkpt lat="45.08228" lon="2.88835">
        <ele>1118</ele>
        <time>2019-12-19T00:39:33Z</time>
      </trkpt>
      <trkpt lat="45.08218" lon="2.88822">
        <ele>1117</ele>
        <time>2019-12-19T00:39:36Z</time>
      </trkpt>
      <trkpt lat="45.08199" lon="2.88808">
        <ele>1115</ele>
        <time>2019-12-19T00:39:40Z</time>
      </trkpt>
      <trkpt lat="45.08163" lon="2.88788">
        <ele>1112</ele>
        <time>2019-12-19T00:39:46Z</time>
      </trkpt>
      <trkpt lat="45.08142" lon="2.88773">
        <ele>1112</ele>
        <time>2019-12-19T00:39:51Z</time>
      </trkpt>
      <trkpt lat="45.08092" lon="2.8872">
        <ele>1112</ele>
        <time>2019-12-19T00:40:02Z</time>
      </trkpt>
      <trkpt lat="45.08076" lon="2.88705">
        <ele>1113</ele>
        <time>2019-12-19T00:40:05Z</time>
      </trkpt>
      <trkpt lat="45.08072" lon="2.88703">
        <ele>1113</ele>
        <time>2019-12-19T00:40:06Z</time>
      </trkpt>
      <trkpt lat="45.08054" lon="2.887">
        <ele>1113</ele>
        <time>2019-12-19T00:40:09Z</time>
      </trkpt>
      <trkpt lat="45.0804" lon="2.88702">
        <ele>1113</ele>
        <time>2019-12-19T00:40:12Z</time>
      </trkpt>
      <trkpt lat="45.07945" lon="2.88802">
        <ele>1109</ele>
        <time>2019-12-19T00:40:33Z</time>
      </trkpt>
      <trkpt lat="45.07927" lon="2.88805">
        <ele>1109</ele>
        <time>2019-12-19T00:40:36Z</time>
      </trkpt>
      <trkpt lat="45.07883" lon="2.8879">
        <ele>1114</ele>
        <time>2019-12-19T00:40:44Z</time>
      </trkpt>
      <trkpt lat="45.07866" lon="2.88789">
        <ele>1116</ele>
        <time>2019-12-19T00:40:47Z</time>
      </trkpt>
      <trkpt lat="45.07849" lon="2.88793">
        <ele>1117</ele>
        <time>2019-12-19T00:40:50Z</time>
      </trkpt>
      <trkpt lat="45.07832" lon="2.88811">
        <ele>1116</ele>
        <time>2019-12-19T00:40:54Z</time>
      </trkpt>
      <trkpt lat="45.07819" lon="2.88837">
        <ele>1115</ele>
        <time>2019-12-19T00:40:58Z</time>
      </trkpt>
      <trkpt lat="45.07811" lon="2.88879">
        <ele>1112</ele>
        <time>2019-12-19T00:41:03Z</time>
      </trkpt>
      <trkpt lat="45.07798" lon="2.8897">
        <ele>1109</ele>
        <time>2019-12-19T00:41:15Z</time>
      </trkpt>
      <trkpt lat="45.07785" lon="2.89047">
        <ele>1110</ele>
        <time>2019-12-19T00:41:25Z</time>
      </trkpt>
      <trkpt lat="45.07778" lon="2.89137">
        <ele>1114</ele>
        <time>2019-12-19T00:41:36Z</time>
      </trkpt>
      <trkpt lat="45.07771" lon="2.89202">
        <ele>1114</ele>
        <time>2019-12-19T00:41:45Z</time>
      </trkpt>
      <trkpt lat="45.07767" lon="2.89268">
        <ele>1113</ele>
        <time>2019-12-19T00:41:53Z</time>
      </trkpt>
      <trkpt lat="45.07758" lon="2.89395">
        <ele>1111</ele>
        <time>2019-12-19T00:42:09Z</time>
      </trkpt>
      <trkpt lat="45.07758" lon="2.89555">
        <ele>1108</ele>
        <time>2019-12-19T00:42:29Z</time>
      </trkpt>
      <trkpt lat="45.07755" lon="2.89587">
        <ele>1108</ele>
        <time>2019-12-19T00:42:33Z</time>
      </trkpt>
      <trkpt lat="45.07752" lon="2.89617">
        <ele>1107</ele>
        <time>2019-12-19T00:42:37Z</time>
      </trkpt>
      <trkpt lat="45.07723" lon="2.89738">
        <ele>1106</ele>
        <time>2019-12-19T00:42:53Z</time>
      </trkpt>
      <trkpt lat="45.077" lon="2.89869">
        <ele>1106</ele>
        <time>2019-12-19T00:43:10Z</time>
      </trkpt>
      <trkpt lat="45.07692" lon="2.89923">
        <ele>1108</ele>
        <time>2019-12-19T00:43:17Z</time>
      </trkpt>
      <trkpt lat="45.07681" lon="2.90035">
        <ele>1107</ele>
        <time>2019-12-19T00:43:31Z</time>
      </trkpt>
      <trkpt lat="45.07678" lon="2.90177">
        <ele>1105</ele>
        <time>2019-12-19T00:43:49Z</time>
      </trkpt>
      <trkpt lat="45.07671" lon="2.90202">
        <ele>1104</ele>
        <time>2019-12-19T00:43:52Z</time>
      </trkpt>
      <trkpt lat="45.07663" lon="2.90218">
        <ele>1105</ele>
        <time>2019-12-19T00:43:55Z</time>
      </trkpt>
      <trkpt lat="45.07599" lon="2.90321">
        <ele>1109</ele>
        <time>2019-12-19T00:44:12Z</time>
      </trkpt>
      <trkpt lat="45.0758" lon="2.90345">
        <ele>1109</ele>
        <time>2019-12-19T00:44:16Z</time>
      </trkpt>
      <trkpt lat="45.07561" lon="2.9036">
        <ele>1108</ele>
        <time>2019-12-19T00:44:20Z</time>
      </trkpt>
      <trkpt lat="45.07542" lon="2.90369">
        <ele>1107</ele>
        <time>2019-12-19T00:44:24Z</time>
      </trkpt>
      <trkpt lat="45.07503" lon="2.90368">
        <ele>1107</ele>
        <time>2019-12-19T00:44:31Z</time>
      </trkpt>
      <trkpt lat="45.07453" lon="2.9035">
        <ele>1107</ele>
        <time>2019-12-19T00:44:40Z</time>
      </trkpt>
      <trkpt lat="45.07433" lon="2.90345">
        <ele>1108</ele>
        <time>2019-12-19T00:44:44Z</time>
      </trkpt>
      <trkpt lat="45.07413" lon="2.90345">
        <ele>1108</ele>
        <time>2019-12-19T00:44:47Z</time>
      </trkpt>
      <trkpt lat="45.0735" lon="2.90351">
        <ele>1108</ele>
        <time>2019-12-19T00:44:58Z</time>
      </trkpt>
      <trkpt lat="45.07324" lon="2.90356">
        <ele>1108</ele>
        <time>2019-12-19T00:45:03Z</time>
      </trkpt>
      <trkpt lat="45.07245" lon="2.90379">
        <ele>1108</ele>
        <time>2019-12-19T00:45:17Z</time>
      </trkpt>
      <trkpt lat="45.07211" lon="2.90386">
        <ele>1107</ele>
        <time>2019-12-19T00:45:24Z</time>
      </trkpt>
      <trkpt lat="45.07181" lon="2.90388">
        <ele>1107</ele>
        <time>2019-12-19T00:45:29Z</time>
      </trkpt>
      <trkpt lat="45.07146" lon="2.90395">
        <ele>1106</ele>
        <time>2019-12-19T00:45:35Z</time>
      </trkpt>
      <trkpt lat="45.0713" lon="2.90401">
        <ele>1105</ele>
        <time>2019-12-19T00:45:38Z</time>
      </trkpt>
      <trkpt lat="45.07114" lon="2.90415">
        <ele>1104</ele>
        <time>2019-12-19T00:45:41Z</time>
      </trkpt>
      <trkpt lat="45.07107" lon="2.90426">
        <ele>1104</ele>
        <time>2019-12-19T00:45:43Z</time>
      </trkpt>
      <trkpt lat="45.07095" lon="2.9044">
        <ele>1104</ele>
        <time>2019-12-19T00:45:46Z</time>
      </trkpt>
      <trkpt lat="45.0708" lon="2.90448">
        <ele>1104</ele>
        <time>2019-12-19T00:45:49Z</time>
      </trkpt>
      <trkpt lat="45.06976" lon="2.90452">
        <ele>1106</ele>
        <time>2019-12-19T00:46:07Z</time>
      </trkpt>
      <trkpt lat="45.06923" lon="2.90442">
        <ele>1108</ele>
        <time>2019-12-19T00:46:17Z</time>
      </trkpt>
      <trkpt lat="45.06855" lon="2.90422">
        <ele>1110</ele>
        <time>2019-12-19T00:46:29Z</time>
      </trkpt>
      <trkpt lat="45.06833" lon="2.90418">
        <ele>1111</ele>
        <time>2019-12-19T00:46:33Z</time>
      </trkpt>
      <trkpt lat="45.0674" lon="2.90422">
        <ele>1115</ele>
        <time>2019-12-19T00:46:50Z</time>
      </trkpt>
      <trkpt lat="45.06714" lon="2.90431">
        <ele>1115</ele>
        <time>2019-12-19T00:46:55Z</time>
      </trkpt>
      <trkpt lat="45.06689" lon="2.90446">
        <ele>1115</ele>
        <time>2019-12-19T00:46:59Z</time>
      </trkpt>
      <trkpt lat="45.06664" lon="2.9047">
        <ele>1115</ele>
        <time>2019-12-19T00:47:05Z</time>
      </trkpt>
      <trkpt lat="45.06641" lon="2.90497">
        <ele>1114</ele>
        <time>2019-12-19T00:47:10Z</time>
      </trkpt>
      <trkpt lat="45.06596" lon="2.90579">
        <ele>1111</ele>
        <time>2019-12-19T00:47:23Z</time>
      </trkpt>
      <trkpt lat="45.06574" lon="2.90626">
        <ele>1109</ele>
        <time>2019-12-19T00:47:30Z</time>
      </trkpt>
      <trkpt lat="45.06556" lon="2.90651">
        <ele>1107</ele>
        <time>2019-12-19T00:47:35Z</time>
      </trkpt>
      <trkpt lat="45.06533" lon="2.90666">
        <ele>1106</ele>
        <time>2019-12-19T00:47:39Z</time>
      </trkpt>
      <trkpt lat="45.06521" lon="2.90678">
        <ele>1105</ele>
        <time>2019-12-19T00:47:42Z</time>
      </trkpt>
      <trkpt lat="45.06517" lon="2.90706">
        <ele>1103</ele>
        <time>2019-12-19T00:47:45Z</time>
      </trkpt>
      <trkpt lat="45.06519" lon="2.90764">
        <ele>1100</ele>
        <time>2019-12-19T00:47:53Z</time>
      </trkpt>
      <trkpt lat="45.06533" lon="2.9082">
        <ele>1098</ele>
        <time>2019-12-19T00:48:00Z</time>
      </trkpt>
      <trkpt lat="45.06549" lon="2.90925">
        <ele>1093</ele>
        <time>2019-12-19T00:48:14Z</time>
      </trkpt>
      <trkpt lat="45.06557" lon="2.90965">
        <ele>1091</ele>
        <time>2019-12-19T00:48:19Z</time>
      </trkpt>
      <trkpt lat="45.06559" lon="2.90997">
        <ele>1089</ele>
        <time>2019-12-19T00:48:23Z</time>
      </trkpt>
      <trkpt lat="45.06557" lon="2.91028">
        <ele>1087</ele>
        <time>2019-12-19T00:48:27Z</time>
      </trkpt>
      <trkpt lat="45.06548" lon="2.91055">
        <ele>1085</ele>
        <time>2019-12-19T00:48:31Z</time>
      </trkpt>
      <trkpt lat="45.06448" lon="2.91211">
        <ele>1080</ele>
        <time>2019-12-19T00:48:57Z</time>
      </trkpt>
      <trkpt lat="45.06421" lon="2.91261">
        <ele>1080</ele>
        <time>2019-12-19T00:49:05Z</time>
      </trkpt>
      <trkpt lat="45.06397" lon="2.91323">
        <ele>1078</ele>
        <time>2019-12-19T00:49:14Z</time>
      </trkpt>
      <trkpt lat="45.06348" lon="2.91462">
        <ele>1082</ele>
        <time>2019-12-19T00:49:33Z</time>
      </trkpt>
      <trkpt lat="45.06277" lon="2.91692">
        <ele>1087</ele>
        <time>2019-12-19T00:50:05Z</time>
      </trkpt>
      <trkpt lat="45.06219" lon="2.91812">
        <ele>1086</ele>
        <time>2019-12-19T00:50:23Z</time>
      </trkpt>
      <trkpt lat="45.062" lon="2.91862">
        <ele>1085</ele>
        <time>2019-12-19T00:50:30Z</time>
      </trkpt>
      <trkpt lat="45.06193" lon="2.91893">
        <ele>1084</ele>
        <time>2019-12-19T00:50:34Z</time>
      </trkpt>
      <trkpt lat="45.06177" lon="2.91927">
        <ele>1083</ele>
        <time>2019-12-19T00:50:40Z</time>
      </trkpt>
      <trkpt lat="45.06155" lon="2.91957">
        <ele>1082</ele>
        <time>2019-12-19T00:50:45Z</time>
      </trkpt>
      <trkpt lat="45.06113" lon="2.91989">
        <ele>1080</ele>
        <time>2019-12-19T00:50:54Z</time>
      </trkpt>
      <trkpt lat="45.06008" lon="2.92086">
        <ele>1077</ele>
        <time>2019-12-19T00:51:16Z</time>
      </trkpt>
      <trkpt lat="45.05986" lon="2.92118">
        <ele>1075</ele>
        <time>2019-12-19T00:51:21Z</time>
      </trkpt>
      <trkpt lat="45.05946" lon="2.92207">
        <ele>1070</ele>
        <time>2019-12-19T00:51:35Z</time>
      </trkpt>
      <trkpt lat="45.05904" lon="2.92326">
        <ele>1063</ele>
        <time>2019-12-19T00:51:51Z</time>
      </trkpt>
      <trkpt lat="45.05896" lon="2.92358">
        <ele>1062</ele>
        <time>2019-12-19T00:51:56Z</time>
      </trkpt>
      <trkpt lat="45.05883" lon="2.92384">
        <ele>1061</ele>
        <time>2019-12-19T00:52:00Z</time>
      </trkpt>
      <trkpt lat="45.05746" lon="2.92553">
        <ele>1051</ele>
        <time>2019-12-19T00:52:32Z</time>
      </trkpt>
      <trkpt lat="45.05739" lon="2.92563">
        <ele>1051</ele>
        <time>2019-12-19T00:52:34Z</time>
      </trkpt>
      <trkpt lat="45.05735" lon="2.92568">
        <ele>1051</ele>
        <time>2019-12-19T00:52:35Z</time>
      </trkpt>
      <trkpt lat="45.05717" lon="2.92602">
        <ele>1051</ele>
        <time>2019-12-19T00:52:40Z</time>
      </trkpt>
      <trkpt lat="45.05698" lon="2.9265">
        <ele>1049</ele>
        <time>2019-12-19T00:52:47Z</time>
      </trkpt>
      <trkpt lat="45.05664" lon="2.92847">
        <ele>1057</ele>
        <time>2019-12-19T00:53:12Z</time>
      </trkpt>
      <trkpt lat="45.05656" lon="2.92871">
        <ele>1058</ele>
        <time>2019-12-19T00:53:16Z</time>
      </trkpt>
      <trkpt lat="45.05614" lon="2.92963">
        <ele>1063</ele>
        <time>2019-12-19T00:53:30Z</time>
      </trkpt>
      <trkpt lat="45.05595" lon="2.93037">
        <ele>1064</ele>
        <time>2019-12-19T00:53:39Z</time>
      </trkpt>
      <trkpt lat="45.05585" lon="2.93061">
        <ele>1064</ele>
        <time>2019-12-19T00:53:43Z</time>
      </trkpt>
      <trkpt lat="45.05552" lon="2.93128">
        <ele>1064</ele>
        <time>2019-12-19T00:53:53Z</time>
      </trkpt>
      <trkpt lat="45.05532" lon="2.93166">
        <ele>1064</ele>
        <time>2019-12-19T00:53:59Z</time>
      </trkpt>
      <trkpt lat="45.05506" lon="2.932">
        <ele>1065</ele>
        <time>2019-12-19T00:54:06Z</time>
      </trkpt>
      <trkpt lat="45.05378" lon="2.93352">
        <ele>1063</ele>
        <time>2019-12-19T00:54:35Z</time>
      </trkpt>
      <trkpt lat="45.05374" lon="2.93362">
        <ele>1063</ele>
        <time>2019-12-19T00:54:37Z</time>
      </trkpt>
      <trkpt lat="45.05342" lon="2.93362">
        <ele>1064</ele>
        <time>2019-12-19T00:54:42Z</time>
      </trkpt>
      <trkpt lat="45.05338" lon="2.93396">
        <ele>1064</ele>
        <time>2019-12-19T00:54:47Z</time>
      </trkpt>
      <trkpt lat="45.05327" lon="2.93444">
        <ele>1063</ele>
        <time>2019-12-19T00:54:53Z</time>
      </trkpt>
      <trkpt lat="45.05307" lon="2.93511">
        <ele>1061</ele>
        <time>2019-12-19T00:55:02Z</time>
      </trkpt>
      <trkpt lat="45.05294" lon="2.93528">
        <ele>1061</ele>
        <time>2019-12-19T00:55:05Z</time>
      </trkpt>
      <trkpt lat="45.05274" lon="2.93541">
        <ele>1061</ele>
        <time>2019-12-19T00:55:09Z</time>
      </trkpt>
      <trkpt lat="45.05247" lon="2.93571">
        <ele>1060</ele>
        <time>2019-12-19T00:55:15Z</time>
      </trkpt>
      <trkpt lat="45.05225" lon="2.93598">
        <ele>1058</ele>
        <time>2019-12-19T00:55:21Z</time>
      </trkpt>
      <trkpt lat="45.05208" lon="2.93634">
        <ele>1056</ele>
        <time>2019-12-19T00:55:26Z</time>
      </trkpt>
      <trkpt lat="45.05139" lon="2.93792">
        <ele>1049</ele>
        <time>2019-12-19T00:55:49Z</time>
      </trkpt>
      <trkpt lat="45.05129" lon="2.93815">
        <ele>1048</ele>
        <time>2019-12-19T00:55:53Z</time>
      </trkpt>
      <trkpt lat="45.05123" lon="2.93839">
        <ele>1047</ele>
        <time>2019-12-19T00:55:56Z</time>
      </trkpt>
      <trkpt lat="45.05116" lon="2.93845">
        <ele>1047</ele>
        <time>2019-12-19T00:55:57Z</time>
      </trkpt>
      <trkpt lat="45.05095" lon="2.93887">
        <ele>1045</ele>
        <time>2019-12-19T00:56:04Z</time>
      </trkpt>
      <trkpt lat="45.05072" lon="2.93941">
        <ele>1043</ele>
        <time>2019-12-19T00:56:12Z</time>
      </trkpt>
      <trkpt lat="45.05003" lon="2.94185">
        <ele>1038</ele>
        <time>2019-12-19T00:56:45Z</time>
      </trkpt>
      <trkpt lat="45.04997" lon="2.94199">
        <ele>1038</ele>
        <time>2019-12-19T00:56:47Z</time>
      </trkpt>
      <trkpt lat="45.0492" lon="2.94286">
        <ele>1034</ele>
        <time>2019-12-19T00:57:04Z</time>
      </trkpt>
      <trkpt lat="45.04688" lon="2.946">
        <ele>1015</ele>
        <time>2019-12-19T00:58:02Z</time>
      </trkpt>
      <trkpt lat="45.04657" lon="2.94649">
        <ele>1012</ele>
        <time>2019-12-19T00:58:10Z</time>
      </trkpt>
      <trkpt lat="45.04648" lon="2.94678">
        <ele>1010</ele>
        <time>2019-12-19T00:58:14Z</time>
      </trkpt>
      <trkpt lat="45.04642" lon="2.94709">
        <ele>1009</ele>
        <time>2019-12-19T00:58:18Z</time>
      </trkpt>
      <trkpt lat="45.04646" lon="2.94739">
        <ele>1009</ele>
        <time>2019-12-19T00:58:22Z</time>
      </trkpt>
      <trkpt lat="45.04647" lon="2.94766">
        <ele>1009</ele>
        <time>2019-12-19T00:58:25Z</time>
      </trkpt>
      <trkpt lat="45.04642" lon="2.9479">
        <ele>1007</ele>
        <time>2019-12-19T00:58:28Z</time>
      </trkpt>
      <trkpt lat="45.04634" lon="2.94812">
        <ele>1006</ele>
        <time>2019-12-19T00:58:31Z</time>
      </trkpt>
      <trkpt lat="45.04619" lon="2.94902">
        <ele>1001</ele>
        <time>2019-12-19T00:58:43Z</time>
      </trkpt>
      <trkpt lat="45.04641" lon="2.9498">
        <ele>1001</ele>
        <time>2019-12-19T00:58:54Z</time>
      </trkpt>
      <trkpt lat="45.04652" lon="2.95044">
        <ele>999</ele>
        <time>2019-12-19T00:59:02Z</time>
      </trkpt>
      <trkpt lat="45.0466" lon="2.95117">
        <ele>995</ele>
        <time>2019-12-19T00:59:11Z</time>
      </trkpt>
      <trkpt lat="45.04652" lon="2.95128">
        <ele>994</ele>
        <time>2019-12-19T00:59:13Z</time>
      </trkpt>
      <trkpt lat="45.04486" lon="2.95209">
        <ele>983</ele>
        <time>2019-12-19T00:59:44Z</time>
      </trkpt>
      <trkpt lat="45.04474" lon="2.95217">
        <ele>983</ele>
        <time>2019-12-19T00:59:47Z</time>
      </trkpt>
      <trkpt lat="45.04417" lon="2.9527">
        <ele>982</ele>
        <time>2019-12-19T00:59:59Z</time>
      </trkpt>
      <trkpt lat="45.04338" lon="2.95313">
        <ele>984</ele>
        <time>2019-12-19T01:00:14Z</time>
      </trkpt>
      <trkpt lat="45.04182" lon="2.95345">
        <ele>985</ele>
        <time>2019-12-19T01:00:42Z</time>
      </trkpt>
      <trkpt lat="45.03768" lon="2.95585">
        <ele>994</ele>
        <time>2019-12-19T01:02:01Z</time>
      </trkpt>
      <trkpt lat="45.03727" lon="2.95652">
        <ele>993</ele>
        <time>2019-12-19T01:02:13Z</time>
      </trkpt>
      <trkpt lat="45.03663" lon="2.95765">
        <ele>994</ele>
        <time>2019-12-19T01:02:31Z</time>
      </trkpt>
      <trkpt lat="45.0359" lon="2.95842">
        <ele>996</ele>
        <time>2019-12-19T01:02:47Z</time>
      </trkpt>
      <trkpt lat="45.035" lon="2.95916">
        <ele>999</ele>
        <time>2019-12-19T01:03:06Z</time>
      </trkpt>
      <trkpt lat="45.03345" lon="2.96022">
        <ele>991</ele>
        <time>2019-12-19T01:03:36Z</time>
      </trkpt>
      <trkpt lat="45.033" lon="2.96038">
        <ele>990</ele>
        <time>2019-12-19T01:03:44Z</time>
      </trkpt>
      <trkpt lat="45.03288" lon="2.96046">
        <ele>989</ele>
        <time>2019-12-19T01:03:47Z</time>
      </trkpt>
      <trkpt lat="45.03282" lon="2.96054">
        <ele>989</ele>
        <time>2019-12-19T01:03:48Z</time>
      </trkpt>
      <trkpt lat="45.0322" lon="2.96208">
        <ele>990</ele>
        <time>2019-12-19T01:04:11Z</time>
      </trkpt>
      <trkpt lat="45.03201" lon="2.96242">
        <ele>991</ele>
        <time>2019-12-19T01:04:16Z</time>
      </trkpt>
      <trkpt lat="45.03083" lon="2.96274">
        <ele>1001</ele>
        <time>2019-12-19T01:04:37Z</time>
      </trkpt>
      <trkpt lat="45.03032" lon="2.96319">
        <ele>1004</ele>
        <time>2019-12-19T01:04:48Z</time>
      </trkpt>
      <trkpt lat="45.02944" lon="2.9642">
        <ele>1010</ele>
        <time>2019-12-19T01:05:08Z</time>
      </trkpt>
      <trkpt lat="45.02892" lon="2.96464">
        <ele>1013</ele>
        <time>2019-12-19T01:05:19Z</time>
      </trkpt>
      <trkpt lat="45.02825" lon="2.96517">
        <ele>1014</ele>
        <time>2019-12-19T01:05:33Z</time>
      </trkpt>
      <trkpt lat="45.02785" lon="2.96539">
        <ele>1012</ele>
        <time>2019-12-19T01:05:40Z</time>
      </trkpt>
      <trkpt lat="45.02776" lon="2.96565">
        <ele>1011</ele>
        <time>2019-12-19T01:05:44Z</time>
      </trkpt>
      <trkpt lat="45.02762" lon="2.96641">
        <ele>1008</ele>
        <time>2019-12-19T01:05:54Z</time>
      </trkpt>
      <trkpt lat="45.02768" lon="2.96686">
        <ele>1006</ele>
        <time>2019-12-19T01:06:00Z</time>
      </trkpt>
      <trkpt lat="45.02768" lon="2.96698">
        <ele>1005</ele>
        <time>2019-12-19T01:06:01Z</time>
      </trkpt>
      <trkpt lat="45.02765" lon="2.96714">
        <ele>1004</ele>
        <time>2019-12-19T01:06:03Z</time>
      </trkpt>
      <trkpt lat="45.02751" lon="2.96759">
        <ele>1002</ele>
        <time>2019-12-19T01:06:09Z</time>
      </trkpt>
      <trkpt lat="45.0274" lon="2.96808">
        <ele>1002</ele>
        <time>2019-12-19T01:06:16Z</time>
      </trkpt>
      <trkpt lat="45.02736" lon="2.96826">
        <ele>1002</ele>
        <time>2019-12-19T01:06:18Z</time>
      </trkpt>
      <trkpt lat="45.02731" lon="2.96854">
        <ele>1002</ele>
        <time>2019-12-19T01:06:22Z</time>
      </trkpt>
      <trkpt lat="45.0272" lon="2.96888">
        <ele>1004</ele>
        <time>2019-12-19T01:06:27Z</time>
      </trkpt>
      <trkpt lat="45.027" lon="2.96913">
        <ele>1007</ele>
        <time>2019-12-19T01:06:31Z</time>
      </trkpt>
      <trkpt lat="45.02685" lon="2.96926">
        <ele>1009</ele>
        <time>2019-12-19T01:06:34Z</time>
      </trkpt>
      <trkpt lat="45.02663" lon="2.96955">
        <ele>1011</ele>
        <time>2019-12-19T01:06:40Z</time>
      </trkpt>
      <trkpt lat="45.02639" lon="2.96982">
        <ele>1012</ele>
        <time>2019-12-19T01:06:45Z</time>
      </trkpt>
      <trkpt lat="45.02586" lon="2.97021">
        <ele>1012</ele>
        <time>2019-12-19T01:06:56Z</time>
      </trkpt>
      <trkpt lat="45.02572" lon="2.97035">
        <ele>1013</ele>
        <time>2019-12-19T01:06:59Z</time>
      </trkpt>
      <trkpt lat="45.02557" lon="2.97019">
        <ele>1013</ele>
        <time>2019-12-19T01:07:02Z</time>
      </trkpt>
      <trkpt lat="45.02428" lon="2.96818">
        <ele>1010</ele>
        <time>2019-12-19T01:07:36Z</time>
      </trkpt>
      <trkpt lat="45.02412" lon="2.96809">
        <ele>1011</ele>
        <time>2019-12-19T01:07:39Z</time>
      </trkpt>
      <trkpt lat="45.02387" lon="2.96809">
        <ele>1011</ele>
        <time>2019-12-19T01:07:44Z</time>
      </trkpt>
      <trkpt lat="45.02353" lon="2.9682">
        <ele>1012</ele>
        <time>2019-12-19T01:07:50Z</time>
      </trkpt>
      <trkpt lat="45.02293" lon="2.96846">
        <ele>1013</ele>
        <time>2019-12-19T01:08:01Z</time>
      </trkpt>
      <trkpt lat="45.02269" lon="2.96869">
        <ele>1013</ele>
        <time>2019-12-19T01:08:06Z</time>
      </trkpt>
      <trkpt lat="45.02162" lon="2.97005">
        <ele>1011</ele>
        <time>2019-12-19T01:08:32Z</time>
      </trkpt>
      <trkpt lat="45.02142" lon="2.97022">
        <ele>1011</ele>
        <time>2019-12-19T01:08:36Z</time>
      </trkpt>
      <trkpt lat="45.02128" lon="2.97029">
        <ele>1010</ele>
        <time>2019-12-19T01:08:39Z</time>
      </trkpt>
      <trkpt lat="45.02044" lon="2.9703">
        <ele>1010</ele>
        <time>2019-12-19T01:08:54Z</time>
      </trkpt>
      <trkpt lat="45.0195" lon="2.97054">
        <ele>1010</ele>
        <time>2019-12-19T01:09:11Z</time>
      </trkpt>
      <trkpt lat="45.01856" lon="2.97083">
        <ele>1011</ele>
        <time>2019-12-19T01:09:28Z</time>
      </trkpt>
      <trkpt lat="45.01824" lon="2.97098">
        <ele>1012</ele>
        <time>2019-12-19T01:09:34Z</time>
      </trkpt>
      <trkpt lat="45.01794" lon="2.97121">
        <ele>1011</ele>
        <time>2019-12-19T01:09:40Z</time>
      </trkpt>
      <trkpt lat="45.01771" lon="2.97147">
        <ele>1011</ele>
        <time>2019-12-19T01:09:45Z</time>
      </trkpt>
      <trkpt lat="45.0175" lon="2.97177">
        <ele>1010</ele>
        <time>2019-12-19T01:09:51Z</time>
      </trkpt>
      <trkpt lat="45.01661" lon="2.97336">
        <ele>1010</ele>
        <time>2019-12-19T01:10:16Z</time>
      </trkpt>
      <trkpt lat="45.01639" lon="2.97365">
        <ele>1010</ele>
        <time>2019-12-19T01:10:21Z</time>
      </trkpt>
      <trkpt lat="45.01542" lon="2.97451">
        <ele>1010</ele>
        <time>2019-12-19T01:10:42Z</time>
      </trkpt>
      <trkpt lat="45.01301" lon="2.97738">
        <ele>1008</ele>
        <time>2019-12-19T01:11:38Z</time>
      </trkpt>
      <trkpt lat="45.01245" lon="2.97833">
        <ele>1008</ele>
        <time>2019-12-19T01:11:53Z</time>
      </trkpt>
      <trkpt lat="45.01235" lon="2.97845">
        <ele>1008</ele>
        <time>2019-12-19T01:11:56Z</time>
      </trkpt>
      <trkpt lat="45.01219" lon="2.97885">
        <ele>1007</ele>
        <time>2019-12-19T01:12:01Z</time>
      </trkpt>
      <trkpt lat="45.01212" lon="2.97888">
        <ele>1007</ele>
        <time>2019-12-19T01:12:03Z</time>
      </trkpt>
      <trkpt lat="45.01169" lon="2.97941">
        <ele>1008</ele>
        <time>2019-12-19T01:12:13Z</time>
      </trkpt>
      <trkpt lat="45.01145" lon="2.9796">
        <ele>1008</ele>
        <time>2019-12-19T01:12:18Z</time>
      </trkpt>
      <trkpt lat="45.0112" lon="2.97975">
        <ele>1009</ele>
        <time>2019-12-19T01:12:23Z</time>
      </trkpt>
      <trkpt lat="45.01066" lon="2.98002">
        <ele>1009</ele>
        <time>2019-12-19T01:12:33Z</time>
      </trkpt>
      <trkpt lat="45.01015" lon="2.98045">
        <ele>1009</ele>
        <time>2019-12-19T01:12:43Z</time>
      </trkpt>
      <trkpt lat="45.00953" lon="2.98108">
        <ele>1009</ele>
        <time>2019-12-19T01:12:57Z</time>
      </trkpt>
      <trkpt lat="45.0091" lon="2.98138">
        <ele>1009</ele>
        <time>2019-12-19T01:13:06Z</time>
      </trkpt>
      <trkpt lat="45.00875" lon="2.98137">
        <ele>1010</ele>
        <time>2019-12-19T01:13:12Z</time>
      </trkpt>
      <trkpt lat="45.00817" lon="2.9812">
        <ele>1010</ele>
        <time>2019-12-19T01:13:22Z</time>
      </trkpt>
      <trkpt lat="45.00793" lon="2.98119">
        <ele>1010</ele>
        <time>2019-12-19T01:13:27Z</time>
      </trkpt>
      <trkpt lat="45.00722" lon="2.98127">
        <ele>1008</ele>
        <time>2019-12-19T01:13:39Z</time>
      </trkpt>
      <trkpt lat="45.00697" lon="2.98135">
        <ele>1007</ele>
        <time>2019-12-19T01:13:44Z</time>
      </trkpt>
      <trkpt lat="45.00676" lon="2.98147">
        <ele>1007</ele>
        <time>2019-12-19T01:13:48Z</time>
      </trkpt>
      <trkpt lat="45.00527" lon="2.98251">
        <ele>1007</ele>
        <time>2019-12-19T01:14:17Z</time>
      </trkpt>
      <trkpt lat="45.00407" lon="2.9834">
        <ele>1007</ele>
        <time>2019-12-19T01:14:41Z</time>
      </trkpt>
      <trkpt lat="45.00372" lon="2.98351">
        <ele>1009</ele>
        <time>2019-12-19T01:14:48Z</time>
      </trkpt>
      <trkpt lat="45.0006" lon="2.98397">
        <ele>1014</ele>
        <time>2019-12-19T01:15:44Z</time>
      </trkpt>
      <trkpt lat="44.99984" lon="2.98403">
        <ele>1014</ele>
        <time>2019-12-19T01:15:57Z</time>
      </trkpt>
      <trkpt lat="44.9984" lon="2.984">
        <ele>1011</ele>
        <time>2019-12-19T01:16:23Z</time>
      </trkpt>
      <trkpt lat="44.99745" lon="2.98391">
        <ele>1006</ele>
        <time>2019-12-19T01:16:40Z</time>
      </trkpt>
      <trkpt lat="44.99658" lon="2.98406">
        <ele>1004</ele>
        <time>2019-12-19T01:16:55Z</time>
      </trkpt>
      <trkpt lat="44.99631" lon="2.98414">
        <ele>1005</ele>
        <time>2019-12-19T01:17:00Z</time>
      </trkpt>
      <trkpt lat="44.99622" lon="2.9842">
        <ele>1005</ele>
        <time>2019-12-19T01:17:02Z</time>
      </trkpt>
      <trkpt lat="44.99615" lon="2.98426">
        <ele>1006</ele>
        <time>2019-12-19T01:17:04Z</time>
      </trkpt>
      <trkpt lat="44.99605" lon="2.98444">
        <ele>1006</ele>
        <time>2019-12-19T01:17:06Z</time>
      </trkpt>
      <trkpt lat="44.99587" lon="2.98486">
        <ele>1008</ele>
        <time>2019-12-19T01:17:13Z</time>
      </trkpt>
      <trkpt lat="44.99568" lon="2.98524">
        <ele>1007</ele>
        <time>2019-12-19T01:17:18Z</time>
      </trkpt>
      <trkpt lat="44.99556" lon="2.98539">
        <ele>1007</ele>
        <time>2019-12-19T01:17:21Z</time>
      </trkpt>
      <trkpt lat="44.99539" lon="2.98552">
        <ele>1008</ele>
        <time>2019-12-19T01:17:25Z</time>
      </trkpt>
      <trkpt lat="44.99463" lon="2.98591">
        <ele>1009</ele>
        <time>2019-12-19T01:17:39Z</time>
      </trkpt>
      <trkpt lat="44.99351" lon="2.9864">
        <ele>1005</ele>
        <time>2019-12-19T01:18:00Z</time>
      </trkpt>
      <trkpt lat="44.9931" lon="2.98665">
        <ele>1004</ele>
        <time>2019-12-19T01:18:08Z</time>
      </trkpt>
      <trkpt lat="44.99227" lon="2.98702">
        <ele>1003</ele>
        <time>2019-12-19T01:18:23Z</time>
      </trkpt>
      <trkpt lat="44.99204" lon="2.98707">
        <ele>1002</ele>
        <time>2019-12-19T01:18:28Z</time>
      </trkpt>
      <trkpt lat="44.99186" lon="2.98707">
        <ele>1003</ele>
        <time>2019-12-19T01:18:31Z</time>
      </trkpt>
      <trkpt lat="44.99168" lon="2.98704">
        <ele>1003</ele>
        <time>2019-12-19T01:18:34Z</time>
      </trkpt>
      <trkpt lat="44.9915" lon="2.98696">
        <ele>1002</ele>
        <time>2019-12-19T01:18:37Z</time>
      </trkpt>
      <trkpt lat="44.99136" lon="2.98686">
        <ele>1001</ele>
        <time>2019-12-19T01:18:40Z</time>
      </trkpt>
      <trkpt lat="44.99094" lon="2.98647">
        <ele>1000</ele>
        <time>2019-12-19T01:18:49Z</time>
      </trkpt>
      <trkpt lat="44.99066" lon="2.98625">
        <ele>999</ele>
        <time>2019-12-19T01:18:55Z</time>
      </trkpt>
      <trkpt lat="44.9902" lon="2.98601">
        <ele>997</ele>
        <time>2019-12-19T01:19:03Z</time>
      </trkpt>
      <trkpt lat="44.98982" lon="2.98567">
        <ele>996</ele>
        <time>2019-12-19T01:19:11Z</time>
      </trkpt>
      <trkpt lat="44.98935" lon="2.98507">
        <ele>993</ele>
        <time>2019-12-19T01:19:23Z</time>
      </trkpt>
      <trkpt lat="44.98925" lon="2.98502">
        <ele>992</ele>
        <time>2019-12-19T01:19:25Z</time>
      </trkpt>
      <trkpt lat="44.98913" lon="2.985">
        <ele>991</ele>
        <time>2019-12-19T01:19:27Z</time>
      </trkpt>
      <trkpt lat="44.98877" lon="2.9851">
        <ele>994</ele>
        <time>2019-12-19T01:19:33Z</time>
      </trkpt>
      <trkpt lat="44.9886" lon="2.98514">
        <ele>995</ele>
        <time>2019-12-19T01:19:36Z</time>
      </trkpt>
      <trkpt lat="44.98852" lon="2.98521">
        <ele>996</ele>
        <time>2019-12-19T01:19:38Z</time>
      </trkpt>
      <trkpt lat="44.98849" lon="2.9853">
        <ele>996</ele>
        <time>2019-12-19T01:19:39Z</time>
      </trkpt>
      <trkpt lat="44.98833" lon="2.98699">
        <ele>1001</ele>
        <time>2019-12-19T01:20:01Z</time>
      </trkpt>
      <trkpt lat="44.98826" lon="2.9872">
        <ele>1002</ele>
        <time>2019-12-19T01:20:04Z</time>
      </trkpt>
      <trkpt lat="44.98817" lon="2.98728">
        <ele>1003</ele>
        <time>2019-12-19T01:20:06Z</time>
      </trkpt>
      <trkpt lat="44.9877" lon="2.98736">
        <ele>1007</ele>
        <time>2019-12-19T01:20:14Z</time>
      </trkpt>
      <trkpt lat="44.98661" lon="2.98751">
        <ele>1011</ele>
        <time>2019-12-19T01:20:33Z</time>
      </trkpt>
      <trkpt lat="44.98621" lon="2.98751">
        <ele>1010</ele>
        <time>2019-12-19T01:20:41Z</time>
      </trkpt>
      <trkpt lat="44.98543" lon="2.98746">
        <ele>1010</ele>
        <time>2019-12-19T01:20:54Z</time>
      </trkpt>
      <trkpt lat="44.98493" lon="2.98744">
        <ele>1010</ele>
        <time>2019-12-19T01:21:03Z</time>
      </trkpt>
      <trkpt lat="44.98455" lon="2.98754">
        <ele>1009</ele>
        <time>2019-12-19T01:21:10Z</time>
      </trkpt>
      <trkpt lat="44.9842" lon="2.98766">
        <ele>1008</ele>
        <time>2019-12-19T01:21:17Z</time>
      </trkpt>
      <trkpt lat="44.98181" lon="2.98858">
        <ele>1003</ele>
        <time>2019-12-19T01:22:01Z</time>
      </trkpt>
      <trkpt lat="44.97817" lon="2.99038">
        <ele>1005</ele>
        <time>2019-12-19T01:23:09Z</time>
      </trkpt>
      <trkpt lat="44.97789" lon="2.99039">
        <ele>1004</ele>
        <time>2019-12-19T01:23:14Z</time>
      </trkpt>
      <trkpt lat="44.97757" lon="2.99018">
        <ele>1005</ele>
        <time>2019-12-19T01:23:21Z</time>
      </trkpt>
      <trkpt lat="44.97744" lon="2.99002">
        <ele>1005</ele>
        <time>2019-12-19T01:23:24Z</time>
      </trkpt>
      <trkpt lat="44.97646" lon="2.98908">
        <ele>1002</ele>
        <time>2019-12-19T01:23:45Z</time>
      </trkpt>
      <trkpt lat="44.97633" lon="2.98894">
        <ele>1002</ele>
        <time>2019-12-19T01:23:48Z</time>
      </trkpt>
      <trkpt lat="44.97621" lon="2.98876">
        <ele>1002</ele>
        <time>2019-12-19T01:23:51Z</time>
      </trkpt>
      <trkpt lat="44.97585" lon="2.98839">
        <ele>1001</ele>
        <time>2019-12-19T01:23:59Z</time>
      </trkpt>
      <trkpt lat="44.97572" lon="2.98828">
        <ele>1001</ele>
        <time>2019-12-19T01:24:01Z</time>
      </trkpt>
      <trkpt lat="44.97545" lon="2.98817">
        <ele>1000</ele>
        <time>2019-12-19T01:24:06Z</time>
      </trkpt>
      <trkpt lat="44.97453" lon="2.98787">
        <ele>1000</ele>
        <time>2019-12-19T01:24:23Z</time>
      </trkpt>
      <trkpt lat="44.97424" lon="2.9878">
        <ele>1001</ele>
        <time>2019-12-19T01:24:28Z</time>
      </trkpt>
      <trkpt lat="44.97358" lon="2.98807">
        <ele>1005</ele>
        <time>2019-12-19T01:24:41Z</time>
      </trkpt>
      <trkpt lat="44.97281" lon="2.98846">
        <ele>1009</ele>
        <time>2019-12-19T01:24:55Z</time>
      </trkpt>
      <trkpt lat="44.97257" lon="2.98871">
        <ele>1010</ele>
        <time>2019-12-19T01:25:01Z</time>
      </trkpt>
      <trkpt lat="44.97236" lon="2.98944">
        <ele>1012</ele>
        <time>2019-12-19T01:25:10Z</time>
      </trkpt>
      <trkpt lat="44.97222" lon="2.99017">
        <ele>1014</ele>
        <time>2019-12-19T01:25:20Z</time>
      </trkpt>
      <trkpt lat="44.97223" lon="2.99026">
        <ele>1014</ele>
        <time>2019-12-19T01:25:21Z</time>
      </trkpt>
      <trkpt lat="44.97229" lon="2.99042">
        <ele>1014</ele>
        <time>2019-12-19T01:25:23Z</time>
      </trkpt>
      <trkpt lat="44.97231" lon="2.99055">
        <ele>1014</ele>
        <time>2019-12-19T01:25:25Z</time>
      </trkpt>
      <trkpt lat="44.97228" lon="2.99065">
        <ele>1014</ele>
        <time>2019-12-19T01:25:26Z</time>
      </trkpt>
      <trkpt lat="44.97214" lon="2.99084">
        <ele>1014</ele>
        <time>2019-12-19T01:25:30Z</time>
      </trkpt>
      <trkpt lat="44.97184" lon="2.99097">
        <ele>1015</ele>
        <time>2019-12-19T01:25:35Z</time>
      </trkpt>
      <trkpt lat="44.97092" lon="2.99128">
        <ele>1014</ele>
        <time>2019-12-19T01:25:52Z</time>
      </trkpt>
      <trkpt lat="44.97049" lon="2.99149">
        <ele>1013</ele>
        <time>2019-12-19T01:26:00Z</time>
      </trkpt>
      <trkpt lat="44.96951" lon="2.992">
        <ele>1011</ele>
        <time>2019-12-19T01:26:19Z</time>
      </trkpt>
      <trkpt lat="44.96812" lon="2.99282">
        <ele>1010</ele>
        <time>2019-12-19T01:26:46Z</time>
      </trkpt>
      <trkpt lat="44.96776" lon="2.99284">
        <ele>1012</ele>
        <time>2019-12-19T01:26:52Z</time>
      </trkpt>
      <trkpt lat="44.96667" lon="2.99267">
        <ele>1023</ele>
        <time>2019-12-19T01:27:12Z</time>
      </trkpt>
      <trkpt lat="44.96591" lon="2.99278">
        <ele>1028</ele>
        <time>2019-12-19T01:27:25Z</time>
      </trkpt>
      <trkpt lat="44.96577" lon="2.99274">
        <ele>1029</ele>
        <time>2019-12-19T01:27:28Z</time>
      </trkpt>
      <trkpt lat="44.96569" lon="2.99266">
        <ele>1028</ele>
        <time>2019-12-19T01:27:30Z</time>
      </trkpt>
      <trkpt lat="44.96558" lon="2.99235">
        <ele>1028</ele>
        <time>2019-12-19T01:27:34Z</time>
      </trkpt>
      <trkpt lat="44.96554" lon="2.99231">
        <ele>1028</ele>
        <time>2019-12-19T01:27:35Z</time>
      </trkpt>
      <trkpt lat="44.96519" lon="2.9922">
        <ele>1027</ele>
        <time>2019-12-19T01:27:41Z</time>
      </trkpt>
      <trkpt lat="44.96506" lon="2.99219">
        <ele>1027</ele>
        <time>2019-12-19T01:27:43Z</time>
      </trkpt>
      <trkpt lat="44.96498" lon="2.99215">
        <ele>1026</ele>
        <time>2019-12-19T01:27:45Z</time>
      </trkpt>
      <trkpt lat="44.96473" lon="2.99191">
        <ele>1026</ele>
        <time>2019-12-19T01:27:50Z</time>
      </trkpt>
      <trkpt lat="44.96441" lon="2.99153">
        <ele>1026</ele>
        <time>2019-12-19T01:27:58Z</time>
      </trkpt>
      <trkpt lat="44.96373" lon="2.99086">
        <ele>1028</ele>
        <time>2019-12-19T01:28:13Z</time>
      </trkpt>
      <trkpt lat="44.96281" lon="2.99028">
        <ele>1032</ele>
        <time>2019-12-19T01:28:30Z</time>
      </trkpt>
      <trkpt lat="44.96212" lon="2.98995">
        <ele>1035</ele>
        <time>2019-12-19T01:28:43Z</time>
      </trkpt>
      <trkpt lat="44.96021" lon="2.99029">
        <ele>1037</ele>
        <time>2019-12-19T01:29:18Z</time>
      </trkpt>
      <trkpt lat="44.95949" lon="2.99025">
        <ele>1036</ele>
        <time>2019-12-19T01:29:31Z</time>
      </trkpt>
      <trkpt lat="44.9582" lon="2.98922">
        <ele>1032</ele>
        <time>2019-12-19T01:29:57Z</time>
      </trkpt>
      <trkpt lat="44.95795" lon="2.98884">
        <ele>1031</ele>
        <time>2019-12-19T01:30:03Z</time>
      </trkpt>
      <trkpt lat="44.95767" lon="2.98823">
        <ele>1026</ele>
        <time>2019-12-19T01:30:13Z</time>
      </trkpt>
      <trkpt lat="44.95754" lon="2.98802">
        <ele>1023</ele>
        <time>2019-12-19T01:30:16Z</time>
      </trkpt>
      <trkpt lat="44.95736" lon="2.98787">
        <ele>1023</ele>
        <time>2019-12-19T01:30:20Z</time>
      </trkpt>
      <trkpt lat="44.95659" lon="2.98754">
        <ele>1020</ele>
        <time>2019-12-19T01:30:34Z</time>
      </trkpt>
      <trkpt lat="44.95608" lon="2.98725">
        <ele>1017</ele>
        <time>2019-12-19T01:30:44Z</time>
      </trkpt>
      <trkpt lat="44.95582" lon="2.98707">
        <ele>1015</ele>
        <time>2019-12-19T01:30:49Z</time>
      </trkpt>
      <trkpt lat="44.95562" lon="2.9869">
        <ele>1015</ele>
        <time>2019-12-19T01:30:53Z</time>
      </trkpt>
      <trkpt lat="44.95547" lon="2.9867">
        <ele>1013</ele>
        <time>2019-12-19T01:30:57Z</time>
      </trkpt>
      <trkpt lat="44.95523" lon="2.98627">
        <ele>1011</ele>
        <time>2019-12-19T01:31:04Z</time>
      </trkpt>
      <trkpt lat="44.95503" lon="2.98563">
        <ele>1008</ele>
        <time>2019-12-19T01:31:13Z</time>
      </trkpt>
      <trkpt lat="44.95485" lon="2.98534">
        <ele>1007</ele>
        <time>2019-12-19T01:31:17Z</time>
      </trkpt>
      <trkpt lat="44.95441" lon="2.98479">
        <ele>1003</ele>
        <time>2019-12-19T01:31:28Z</time>
      </trkpt>
      <trkpt lat="44.95418" lon="2.98457">
        <ele>1002</ele>
        <time>2019-12-19T01:31:33Z</time>
      </trkpt>
      <trkpt lat="44.95353" lon="2.98417">
        <ele>999</ele>
        <time>2019-12-19T01:31:45Z</time>
      </trkpt>
      <trkpt lat="44.95312" lon="2.98397">
        <ele>997</ele>
        <time>2019-12-19T01:31:53Z</time>
      </trkpt>
      <trkpt lat="44.95236" lon="2.98378">
        <ele>994</ele>
        <time>2019-12-19T01:32:07Z</time>
      </trkpt>
      <trkpt lat="44.95219" lon="2.98369">
        <ele>993</ele>
        <time>2019-12-19T01:32:10Z</time>
      </trkpt>
      <trkpt lat="44.95192" lon="2.98341">
        <ele>991</ele>
        <time>2019-12-19T01:32:16Z</time>
      </trkpt>
      <trkpt lat="44.95173" lon="2.98316">
        <ele>991</ele>
        <time>2019-12-19T01:32:21Z</time>
      </trkpt>
      <trkpt lat="44.95169" lon="2.98303">
        <ele>991</ele>
        <time>2019-12-19T01:32:22Z</time>
      </trkpt>
      <trkpt lat="44.95158" lon="2.98252">
        <ele>991</ele>
        <time>2019-12-19T01:32:29Z</time>
      </trkpt>
      <trkpt lat="44.95145" lon="2.98227">
        <ele>991</ele>
        <time>2019-12-19T01:32:33Z</time>
      </trkpt>
      <trkpt lat="44.95024" lon="2.98144">
        <ele>991</ele>
        <time>2019-12-19T01:32:57Z</time>
      </trkpt>
      <trkpt lat="44.94992" lon="2.98123">
        <ele>992</ele>
        <time>2019-12-19T01:33:03Z</time>
      </trkpt>
      <trkpt lat="44.94959" lon="2.98105">
        <ele>991</ele>
        <time>2019-12-19T01:33:10Z</time>
      </trkpt>
      <trkpt lat="44.9492" lon="2.98078">
        <ele>991</ele>
        <time>2019-12-19T01:33:17Z</time>
      </trkpt>
      <trkpt lat="44.94843" lon="2.97999">
        <ele>995</ele>
        <time>2019-12-19T01:33:34Z</time>
      </trkpt>
      <trkpt lat="44.94819" lon="2.97981">
        <ele>995</ele>
        <time>2019-12-19T01:33:39Z</time>
      </trkpt>
      <trkpt lat="44.94793" lon="2.97951">
        <ele>995</ele>
        <time>2019-12-19T01:33:45Z</time>
      </trkpt>
      <trkpt lat="44.9476" lon="2.97891">
        <ele>998</ele>
        <time>2019-12-19T01:33:55Z</time>
      </trkpt>
      <trkpt lat="44.94751" lon="2.9786">
        <ele>1000</ele>
        <time>2019-12-19T01:33:59Z</time>
      </trkpt>
      <trkpt lat="44.94736" lon="2.97843">
        <ele>1001</ele>
        <time>2019-12-19T01:34:02Z</time>
      </trkpt>
      <trkpt lat="44.94723" lon="2.97837">
        <ele>1001</ele>
        <time>2019-12-19T01:34:05Z</time>
      </trkpt>
      <trkpt lat="44.94716" lon="2.9785">
        <ele>1000</ele>
        <time>2019-12-19T01:34:07Z</time>
      </trkpt>
      <trkpt lat="44.94703" lon="2.97864">
        <ele>1000</ele>
        <time>2019-12-19T01:34:10Z</time>
      </trkpt>
      <trkpt lat="44.94673" lon="2.97872">
        <ele>999</ele>
        <time>2019-12-19T01:34:15Z</time>
      </trkpt>
      <trkpt lat="44.94641" lon="2.97894">
        <ele>998</ele>
        <time>2019-12-19T01:34:21Z</time>
      </trkpt>
      <trkpt lat="44.94603" lon="2.97909">
        <ele>998</ele>
        <time>2019-12-19T01:34:28Z</time>
      </trkpt>
      <trkpt lat="44.9456" lon="2.97924">
        <ele>996</ele>
        <time>2019-12-19T01:34:36Z</time>
      </trkpt>
      <trkpt lat="44.94546" lon="2.97926">
        <ele>995</ele>
        <time>2019-12-19T01:34:39Z</time>
      </trkpt>
      <trkpt lat="44.94535" lon="2.97921">
        <ele>994</ele>
        <time>2019-12-19T01:34:41Z</time>
      </trkpt>
      <trkpt lat="44.94528" lon="2.97914">
        <ele>994</ele>
        <time>2019-12-19T01:34:42Z</time>
      </trkpt>
      <trkpt lat="44.94515" lon="2.97896">
        <ele>993</ele>
        <time>2019-12-19T01:34:46Z</time>
      </trkpt>
      <trkpt lat="44.94487" lon="2.97844">
        <ele>991</ele>
        <time>2019-12-19T01:34:54Z</time>
      </trkpt>
      <trkpt lat="44.94452" lon="2.97784">
        <ele>988</ele>
        <time>2019-12-19T01:35:04Z</time>
      </trkpt>
      <trkpt lat="44.94439" lon="2.9775">
        <ele>987</ele>
        <time>2019-12-19T01:35:09Z</time>
      </trkpt>
      <trkpt lat="44.94421" lon="2.97716">
        <ele>985</ele>
        <time>2019-12-19T01:35:14Z</time>
      </trkpt>
      <trkpt lat="44.94387" lon="2.97678">
        <ele>981</ele>
        <time>2019-12-19T01:35:22Z</time>
      </trkpt>
      <trkpt lat="44.94367" lon="2.97666">
        <ele>979</ele>
        <time>2019-12-19T01:35:25Z</time>
      </trkpt>
      <trkpt lat="44.94349" lon="2.97652">
        <ele>977</ele>
        <time>2019-12-19T01:35:29Z</time>
      </trkpt>
      <trkpt lat="44.94335" lon="2.97636">
        <ele>975</ele>
        <time>2019-12-19T01:35:32Z</time>
      </trkpt>
      <trkpt lat="44.94324" lon="2.97628">
        <ele>974</ele>
        <time>2019-12-19T01:35:35Z</time>
      </trkpt>
      <trkpt lat="44.94293" lon="2.9762">
        <ele>972</ele>
        <time>2019-12-19T01:35:40Z</time>
      </trkpt>
      <trkpt lat="44.94287" lon="2.97627">
        <ele>971</ele>
        <time>2019-12-19T01:35:42Z</time>
      </trkpt>
      <trkpt lat="44.94279" lon="2.97621">
        <ele>970</ele>
        <time>2019-12-19T01:35:43Z</time>
      </trkpt>
      <trkpt lat="44.94247" lon="2.97619">
        <ele>968</ele>
        <time>2019-12-19T01:35:49Z</time>
      </trkpt>
      <trkpt lat="44.9423" lon="2.97621">
        <ele>969</ele>
        <time>2019-12-19T01:35:52Z</time>
      </trkpt>
      <trkpt lat="44.94184" lon="2.97624">
        <ele>970</ele>
        <time>2019-12-19T01:36:00Z</time>
      </trkpt>
      <trkpt lat="44.94169" lon="2.9762">
        <ele>971</ele>
        <time>2019-12-19T01:36:03Z</time>
      </trkpt>
      <trkpt lat="44.94158" lon="2.97612">
        <ele>971</ele>
        <time>2019-12-19T01:36:05Z</time>
      </trkpt>
      <trkpt lat="44.94113" lon="2.97567">
        <ele>969</ele>
        <time>2019-12-19T01:36:15Z</time>
      </trkpt>
      <trkpt lat="44.94097" lon="2.97555">
        <ele>969</ele>
        <time>2019-12-19T01:36:18Z</time>
      </trkpt>
      <trkpt lat="44.93996" lon="2.975">
        <ele>968</ele>
        <time>2019-12-19T01:36:37Z</time>
      </trkpt>
      <trkpt lat="44.93979" lon="2.97495">
        <ele>967</ele>
        <time>2019-12-19T01:36:40Z</time>
      </trkpt>
      <trkpt lat="44.93962" lon="2.97496">
        <ele>967</ele>
        <time>2019-12-19T01:36:43Z</time>
      </trkpt>
      <trkpt lat="44.93947" lon="2.97502">
        <ele>967</ele>
        <time>2019-12-19T01:36:46Z</time>
      </trkpt>
      <trkpt lat="44.93929" lon="2.97517">
        <ele>967</ele>
        <time>2019-12-19T01:36:50Z</time>
      </trkpt>
      <trkpt lat="44.93903" lon="2.97541">
        <ele>966</ele>
        <time>2019-12-19T01:36:55Z</time>
      </trkpt>
      <trkpt lat="44.93884" lon="2.97568">
        <ele>966</ele>
        <time>2019-12-19T01:37:00Z</time>
      </trkpt>
      <trkpt lat="44.93857" lon="2.97615">
        <ele>967</ele>
        <time>2019-12-19T01:37:08Z</time>
      </trkpt>
      <trkpt lat="44.93842" lon="2.97636">
        <ele>966</ele>
        <time>2019-12-19T01:37:12Z</time>
      </trkpt>
      <trkpt lat="44.93741" lon="2.97738">
        <ele>969</ele>
        <time>2019-12-19T01:37:34Z</time>
      </trkpt>
      <trkpt lat="44.93713" lon="2.97761">
        <ele>970</ele>
        <time>2019-12-19T01:37:39Z</time>
      </trkpt>
      <trkpt lat="44.93696" lon="2.97771">
        <ele>970</ele>
        <time>2019-12-19T01:37:43Z</time>
      </trkpt>
      <trkpt lat="44.93674" lon="2.97778">
        <ele>970</ele>
        <time>2019-12-19T01:37:47Z</time>
      </trkpt>
      <trkpt lat="44.93656" lon="2.97787">
        <ele>971</ele>
        <time>2019-12-19T01:37:50Z</time>
      </trkpt>
      <trkpt lat="44.93596" lon="2.97837">
        <ele>973</ele>
        <time>2019-12-19T01:38:03Z</time>
      </trkpt>
      <trkpt lat="44.93556" lon="2.97865">
        <ele>973</ele>
        <time>2019-12-19T01:38:10Z</time>
      </trkpt>
      <trkpt lat="44.93534" lon="2.9789">
        <ele>974</ele>
        <time>2019-12-19T01:38:16Z</time>
      </trkpt>
      <trkpt lat="44.9345" lon="2.98013">
        <ele>975</ele>
        <time>2019-12-19T01:38:37Z</time>
      </trkpt>
      <trkpt lat="44.93407" lon="2.98103">
        <ele>975</ele>
        <time>2019-12-19T01:38:51Z</time>
      </trkpt>
      <trkpt lat="44.93394" lon="2.98122">
        <ele>974</ele>
        <time>2019-12-19T01:38:54Z</time>
      </trkpt>
      <trkpt lat="44.93377" lon="2.98138">
        <ele>973</ele>
        <time>2019-12-19T01:38:58Z</time>
      </trkpt>
      <trkpt lat="44.93353" lon="2.98154">
        <ele>972</ele>
        <time>2019-12-19T01:39:02Z</time>
      </trkpt>
      <trkpt lat="44.93323" lon="2.98171">
        <ele>971</ele>
        <time>2019-12-19T01:39:08Z</time>
      </trkpt>
      <trkpt lat="44.93235" lon="2.982">
        <ele>968</ele>
        <time>2019-12-19T01:39:24Z</time>
      </trkpt>
      <trkpt lat="44.93203" lon="2.98205">
        <ele>965</ele>
        <time>2019-12-19T01:39:30Z</time>
      </trkpt>
      <trkpt lat="44.93123" lon="2.98195">
        <ele>956</ele>
        <time>2019-12-19T01:39:44Z</time>
      </trkpt>
      <trkpt lat="44.93058" lon="2.98184">
        <ele>950</ele>
        <time>2019-12-19T01:39:56Z</time>
      </trkpt>
      <trkpt lat="44.93041" lon="2.98183">
        <ele>948</ele>
        <time>2019-12-19T01:39:59Z</time>
      </trkpt>
      <trkpt lat="44.93028" lon="2.98186">
        <ele>947</ele>
        <time>2019-12-19T01:40:01Z</time>
      </trkpt>
      <trkpt lat="44.93006" lon="2.98205">
        <ele>944</ele>
        <time>2019-12-19T01:40:06Z</time>
      </trkpt>
      <trkpt lat="44.92982" lon="2.98235">
        <ele>941</ele>
        <time>2019-12-19T01:40:12Z</time>
      </trkpt>
      <trkpt lat="44.92923" lon="2.98332">
        <ele>938</ele>
        <time>2019-12-19T01:40:28Z</time>
      </trkpt>
      <trkpt lat="44.92917" lon="2.98375">
        <ele>937</ele>
        <time>2019-12-19T01:40:33Z</time>
      </trkpt>
      <trkpt lat="44.92991" lon="2.98418">
        <ele>932</ele>
        <time>2019-12-19T01:40:47Z</time>
      </trkpt>
      <trkpt lat="44.92998" lon="2.98426">
        <ele>931</ele>
        <time>2019-12-19T01:40:49Z</time>
      </trkpt>
      <trkpt lat="44.93015" lon="2.98424">
        <ele>931</ele>
        <time>2019-12-19T01:40:52Z</time>
      </trkpt>
      <trkpt lat="44.93042" lon="2.98425">
        <ele>930</ele>
        <time>2019-12-19T01:40:57Z</time>
      </trkpt>
      <trkpt lat="44.93064" lon="2.9843">
        <ele>929</ele>
        <time>2019-12-19T01:41:01Z</time>
      </trkpt>
      <trkpt lat="44.9308" lon="2.9844">
        <ele>928</ele>
        <time>2019-12-19T01:41:04Z</time>
      </trkpt>
      <trkpt lat="44.93087" lon="2.98448">
        <ele>928</ele>
        <time>2019-12-19T01:41:06Z</time>
      </trkpt>
      <trkpt lat="44.93097" lon="2.98465">
        <ele>927</ele>
        <time>2019-12-19T01:41:08Z</time>
      </trkpt>
      <trkpt lat="44.93104" lon="2.98485">
        <ele>927</ele>
        <time>2019-12-19T01:41:11Z</time>
      </trkpt>
      <trkpt lat="44.93106" lon="2.98508">
        <ele>926</ele>
        <time>2019-12-19T01:41:14Z</time>
      </trkpt>
      <trkpt lat="44.93104" lon="2.98534">
        <ele>927</ele>
        <time>2019-12-19T01:41:17Z</time>
      </trkpt>
      <trkpt lat="44.9307" lon="2.98696">
        <ele>929</ele>
        <time>2019-12-19T01:41:39Z</time>
      </trkpt>
      <trkpt lat="44.93068" lon="2.9872">
        <ele>930</ele>
        <time>2019-12-19T01:41:42Z</time>
      </trkpt>
      <trkpt lat="44.93071" lon="2.98764">
        <ele>931</ele>
        <time>2019-12-19T01:41:47Z</time>
      </trkpt>
      <trkpt lat="44.93076" lon="2.9879">
        <ele>931</ele>
        <time>2019-12-19T01:41:51Z</time>
      </trkpt>
      <trkpt lat="44.93083" lon="2.98809">
        <ele>931</ele>
        <time>2019-12-19T01:41:53Z</time>
      </trkpt>
      <trkpt lat="44.93095" lon="2.98829">
        <ele>933</ele>
        <time>2019-12-19T01:41:57Z</time>
      </trkpt>
      <trkpt lat="44.93142" lon="2.98879">
        <ele>937</ele>
        <time>2019-12-19T01:42:07Z</time>
      </trkpt>
      <trkpt lat="44.93154" lon="2.98903">
        <ele>936</ele>
        <time>2019-12-19T01:42:11Z</time>
      </trkpt>
      <trkpt lat="44.93157" lon="2.98922">
        <ele>935</ele>
        <time>2019-12-19T01:42:13Z</time>
      </trkpt>
      <trkpt lat="44.93156" lon="2.98951">
        <ele>937</ele>
        <time>2019-12-19T01:42:17Z</time>
      </trkpt>
      <trkpt lat="44.93151" lon="2.98969">
        <ele>937</ele>
        <time>2019-12-19T01:42:19Z</time>
      </trkpt>
      <trkpt lat="44.93143" lon="2.98984">
        <ele>937</ele>
        <time>2019-12-19T01:42:22Z</time>
      </trkpt>
      <trkpt lat="44.93135" lon="2.98994">
        <ele>937</ele>
        <time>2019-12-19T01:42:24Z</time>
      </trkpt>
      <trkpt lat="44.93047" lon="2.99062">
        <ele>937</ele>
        <time>2019-12-19T01:42:41Z</time>
      </trkpt>
      <trkpt lat="44.93029" lon="2.99079">
        <ele>936</ele>
        <time>2019-12-19T01:42:45Z</time>
      </trkpt>
      <trkpt lat="44.9302" lon="2.99089">
        <ele>936</ele>
        <time>2019-12-19T01:42:47Z</time>
      </trkpt>
      <trkpt lat="44.93007" lon="2.99109">
        <ele>936</ele>
        <time>2019-12-19T01:42:51Z</time>
      </trkpt>
      <trkpt lat="44.92979" lon="2.99176">
        <ele>938</ele>
        <time>2019-12-19T01:43:01Z</time>
      </trkpt>
      <trkpt lat="44.92973" lon="2.99193">
        <ele>938</ele>
        <time>2019-12-19T01:43:03Z</time>
      </trkpt>
      <trkpt lat="44.92967" lon="2.99224">
        <ele>939</ele>
        <time>2019-12-19T01:43:07Z</time>
      </trkpt>
      <trkpt lat="44.92965" lon="2.99239">
        <ele>940</ele>
        <time>2019-12-19T01:43:09Z</time>
      </trkpt>
      <trkpt lat="44.92966" lon="2.9927">
        <ele>940</ele>
        <time>2019-12-19T01:43:13Z</time>
      </trkpt>
      <trkpt lat="44.92969" lon="2.99284">
        <ele>941</ele>
        <time>2019-12-19T01:43:15Z</time>
      </trkpt>
      <trkpt lat="44.9299" lon="2.99394">
        <ele>944</ele>
        <time>2019-12-19T01:43:29Z</time>
      </trkpt>
      <trkpt lat="44.92991" lon="2.99419">
        <ele>944</ele>
        <time>2019-12-19T01:43:32Z</time>
      </trkpt>
      <trkpt lat="44.92989" lon="2.99433">
        <ele>945</ele>
        <time>2019-12-19T01:43:34Z</time>
      </trkpt>
      <trkpt lat="44.92983" lon="2.99459">
        <ele>945</ele>
        <time>2019-12-19T01:43:37Z</time>
      </trkpt>
      <trkpt lat="44.92977" lon="2.99473">
        <ele>945</ele>
        <time>2019-12-19T01:43:40Z</time>
      </trkpt>
      <trkpt lat="44.92963" lon="2.99496">
        <ele>945</ele>
        <time>2019-12-19T01:43:43Z</time>
      </trkpt>
      <trkpt lat="44.92939" lon="2.99517">
        <ele>944</ele>
        <time>2019-12-19T01:43:48Z</time>
      </trkpt>
      <trkpt lat="44.92879" lon="2.99556">
        <ele>944</ele>
        <time>2019-12-19T01:44:00Z</time>
      </trkpt>
      <trkpt lat="44.92854" lon="2.99575">
        <ele>945</ele>
        <time>2019-12-19T01:44:05Z</time>
      </trkpt>
      <trkpt lat="44.92845" lon="2.99585">
        <ele>945</ele>
        <time>2019-12-19T01:44:07Z</time>
      </trkpt>
      <trkpt lat="44.92828" lon="2.99608">
        <ele>945</ele>
        <time>2019-12-19T01:44:11Z</time>
      </trkpt>
      <trkpt lat="44.92821" lon="2.99622">
        <ele>945</ele>
        <time>2019-12-19T01:44:14Z</time>
      </trkpt>
      <trkpt lat="44.92817" lon="2.99632">
        <ele>945</ele>
        <time>2019-12-19T01:44:15Z</time>
      </trkpt>
      <trkpt lat="44.92809" lon="2.99658">
        <ele>945</ele>
        <time>2019-12-19T01:44:19Z</time>
      </trkpt>
      <trkpt lat="44.92803" lon="2.99703">
        <ele>944</ele>
        <time>2019-12-19T01:44:24Z</time>
      </trkpt>
      <trkpt lat="44.92802" lon="2.99713">
        <ele>944</ele>
        <time>2019-12-19T01:44:26Z</time>
      </trkpt>
      <trkpt lat="44.92805" lon="2.99723">
        <ele>944</ele>
        <time>2019-12-19T01:44:27Z</time>
      </trkpt>
      <trkpt lat="44.92808" lon="2.99732">
        <ele>943</ele>
        <time>2019-12-19T01:44:28Z</time>
      </trkpt>
      <trkpt lat="44.92839" lon="2.99783">
        <ele>941</ele>
        <time>2019-12-19T01:44:37Z</time>
      </trkpt>
      <trkpt lat="44.92851" lon="2.99806">
        <ele>941</ele>
        <time>2019-12-19T01:44:40Z</time>
      </trkpt>
      <trkpt lat="44.9281" lon="2.9984">
        <ele>938</ele>
        <time>2019-12-19T01:44:49Z</time>
      </trkpt>
      <trkpt lat="44.9279" lon="2.99863">
        <ele>937</ele>
        <time>2019-12-19T01:44:53Z</time>
      </trkpt>
      <trkpt lat="44.92526" lon="3.00187">
        <ele>914</ele>
        <time>2019-12-19T01:45:56Z</time>
      </trkpt>
      <trkpt lat="44.92477" lon="3.00231">
        <ele>911</ele>
        <time>2019-12-19T01:46:06Z</time>
      </trkpt>
      <trkpt lat="44.92269" lon="3.00387">
        <ele>898</ele>
        <time>2019-12-19T01:46:48Z</time>
      </trkpt>
      <trkpt lat="44.92068" lon="3.00484">
        <ele>888</ele>
        <time>2019-12-19T01:47:26Z</time>
      </trkpt>
      <trkpt lat="44.91996" lon="3.00524">
        <ele>880</ele>
        <time>2019-12-19T01:47:39Z</time>
      </trkpt>
      <trkpt lat="44.91947" lon="3.00563">
        <ele>876</ele>
        <time>2019-12-19T01:47:49Z</time>
      </trkpt>
      <trkpt lat="44.91803" lon="3.00691">
        <ele>868</ele>
        <time>2019-12-19T01:48:20Z</time>
      </trkpt>
      <trkpt lat="44.91774" lon="3.00713">
        <ele>869</ele>
        <time>2019-12-19T01:48:26Z</time>
      </trkpt>
      <trkpt lat="44.9172" lon="3.00748">
        <ele>869</ele>
        <time>2019-12-19T01:48:36Z</time>
      </trkpt>
      <trkpt lat="44.91685" lon="3.00758">
        <ele>870</ele>
        <time>2019-12-19T01:48:42Z</time>
      </trkpt>
      <trkpt lat="44.91657" lon="3.00761">
        <ele>869</ele>
        <time>2019-12-19T01:48:47Z</time>
      </trkpt>
      <trkpt lat="44.9162" lon="3.00757">
        <ele>866</ele>
        <time>2019-12-19T01:48:54Z</time>
      </trkpt>
      <trkpt lat="44.91587" lon="3.00745">
        <ele>863</ele>
        <time>2019-12-19T01:49:00Z</time>
      </trkpt>
      <trkpt lat="44.91548" lon="3.00722">
        <ele>859</ele>
        <time>2019-12-19T01:49:08Z</time>
      </trkpt>
      <trkpt lat="44.91455" lon="3.00645">
        <ele>856</ele>
        <time>2019-12-19T01:49:27Z</time>
      </trkpt>
      <trkpt lat="44.91401" lon="3.00608">
        <ele>861</ele>
        <time>2019-12-19T01:49:37Z</time>
      </trkpt>
      <trkpt lat="44.91371" lon="3.00596">
        <ele>862</ele>
        <time>2019-12-19T01:49:43Z</time>
      </trkpt>
      <trkpt lat="44.91333" lon="3.00585">
        <ele>862</ele>
        <time>2019-12-19T01:49:50Z</time>
      </trkpt>
      <trkpt lat="44.91288" lon="3.00584">
        <ele>860</ele>
        <time>2019-12-19T01:49:58Z</time>
      </trkpt>
      <trkpt lat="44.91262" lon="3.00588">
        <ele>858</ele>
        <time>2019-12-19T01:50:03Z</time>
      </trkpt>
      <trkpt lat="44.91158" lon="3.00617">
        <ele>844</ele>
        <time>2019-12-19T01:50:21Z</time>
      </trkpt>
      <trkpt lat="44.91143" lon="3.00619">
        <ele>843</ele>
        <time>2019-12-19T01:50:24Z</time>
      </trkpt>
      <trkpt lat="44.91116" lon="3.00615">
        <ele>841</ele>
        <time>2019-12-19T01:50:29Z</time>
      </trkpt>
      <trkpt lat="44.91055" lon="3.00598">
        <ele>841</ele>
        <time>2019-12-19T01:50:40Z</time>
      </trkpt>
      <trkpt lat="44.91033" lon="3.00596">
        <ele>839</ele>
        <time>2019-12-19T01:50:44Z</time>
      </trkpt>
      <trkpt lat="44.91021" lon="3.00597">
        <ele>838</ele>
        <time>2019-12-19T01:50:46Z</time>
      </trkpt>
      <trkpt lat="44.91013" lon="3.006">
        <ele>836</ele>
        <time>2019-12-19T01:50:48Z</time>
      </trkpt>
      <trkpt lat="44.90978" lon="3.00625">
        <ele>834</ele>
        <time>2019-12-19T01:50:55Z</time>
      </trkpt>
      <trkpt lat="44.90952" lon="3.00653">
        <ele>832</ele>
        <time>2019-12-19T01:51:00Z</time>
      </trkpt>
      <trkpt lat="44.90932" lon="3.00669">
        <ele>831</ele>
        <time>2019-12-19T01:51:04Z</time>
      </trkpt>
      <trkpt lat="44.90917" lon="3.00675">
        <ele>831</ele>
        <time>2019-12-19T01:51:07Z</time>
      </trkpt>
      <trkpt lat="44.90883" lon="3.00684">
        <ele>834</ele>
        <time>2019-12-19T01:51:13Z</time>
      </trkpt>
      <trkpt lat="44.90861" lon="3.00694">
        <ele>835</ele>
        <time>2019-12-19T01:51:17Z</time>
      </trkpt>
      <trkpt lat="44.90818" lon="3.00737">
        <ele>826</ele>
        <time>2019-12-19T01:51:27Z</time>
      </trkpt>
      <trkpt lat="44.90789" lon="3.00759">
        <ele>823</ele>
        <time>2019-12-19T01:51:33Z</time>
      </trkpt>
      <trkpt lat="44.90722" lon="3.00787">
        <ele>820</ele>
        <time>2019-12-19T01:51:45Z</time>
      </trkpt>
      <trkpt lat="44.9069" lon="3.00797">
        <ele>816</ele>
        <time>2019-12-19T01:51:51Z</time>
      </trkpt>
      <trkpt lat="44.90652" lon="3.00802">
        <ele>814</ele>
        <time>2019-12-19T01:51:58Z</time>
      </trkpt>
      <trkpt lat="44.90583" lon="3.00789">
        <ele>822</ele>
        <time>2019-12-19T01:52:10Z</time>
      </trkpt>
      <trkpt lat="44.90548" lon="3.00797">
        <ele>815</ele>
        <time>2019-12-19T01:52:16Z</time>
      </trkpt>
      <trkpt lat="44.90499" lon="3.00819">
        <ele>797</ele>
        <time>2019-12-19T01:52:26Z</time>
      </trkpt>
      <trkpt lat="44.90485" lon="3.00823">
        <ele>794</ele>
        <time>2019-12-19T01:52:28Z</time>
      </trkpt>
      <trkpt lat="44.9047" lon="3.0082">
        <ele>796</ele>
        <time>2019-12-19T01:52:31Z</time>
      </trkpt>
      <trkpt lat="44.9042" lon="3.00799">
        <ele>805</ele>
        <time>2019-12-19T01:52:40Z</time>
      </trkpt>
      <trkpt lat="44.90395" lon="3.00796">
        <ele>809</ele>
        <time>2019-12-19T01:52:45Z</time>
      </trkpt>
      <trkpt lat="44.90377" lon="3.00807">
        <ele>807</ele>
        <time>2019-12-19T01:52:48Z</time>
      </trkpt>
      <trkpt lat="44.9033" lon="3.0087">
        <ele>790</ele>
        <time>2019-12-19T01:53:00Z</time>
      </trkpt>
      <trkpt lat="44.90286" lon="3.00902">
        <ele>772</ele>
        <time>2019-12-19T01:53:08Z</time>
      </trkpt>
      <trkpt lat="44.90265" lon="3.00903">
        <ele>770</ele>
        <time>2019-12-19T01:53:12Z</time>
      </trkpt>
      <trkpt lat="44.90247" lon="3.00896">
        <ele>771</ele>
        <time>2019-12-19T01:53:15Z</time>
      </trkpt>
      <trkpt lat="44.90226" lon="3.00874">
        <ele>771</ele>
        <time>2019-12-19T01:53:20Z</time>
      </trkpt>
      <trkpt lat="44.90207" lon="3.00848">
        <ele>772</ele>
        <time>2019-12-19T01:53:25Z</time>
      </trkpt>
      <trkpt lat="44.9019" lon="3.00813">
        <ele>778</ele>
        <time>2019-12-19T01:53:30Z</time>
      </trkpt>
      <trkpt lat="44.90178" lon="3.00791">
        <ele>783</ele>
        <time>2019-12-19T01:53:34Z</time>
      </trkpt>
      <trkpt lat="44.90158" lon="3.00782">
        <ele>779</ele>
        <time>2019-12-19T01:53:37Z</time>
      </trkpt>
      <trkpt lat="44.90114" lon="3.00785">
        <ele>758</ele>
        <time>2019-12-19T01:53:45Z</time>
      </trkpt>
      <trkpt lat="44.90096" lon="3.00772">
        <ele>755</ele>
        <time>2019-12-19T01:53:49Z</time>
      </trkpt>
      <trkpt lat="44.90074" lon="3.00705">
        <ele>771</ele>
        <time>2019-12-19T01:53:58Z</time>
      </trkpt>
      <trkpt lat="44.90065" lon="3.0069">
        <ele>773</ele>
        <time>2019-12-19T01:54:01Z</time>
      </trkpt>
      <trkpt lat="44.90052" lon="3.00682">
        <ele>770</ele>
        <time>2019-12-19T01:54:03Z</time>
      </trkpt>
      <trkpt lat="44.90022" lon="3.00678">
        <ele>758</ele>
        <time>2019-12-19T01:54:09Z</time>
      </trkpt>
      <trkpt lat="44.90006" lon="3.00671">
        <ele>754</ele>
        <time>2019-12-19T01:54:12Z</time>
      </trkpt>
      <trkpt lat="44.89994" lon="3.00658">
        <ele>753</ele>
        <time>2019-12-19T01:54:14Z</time>
      </trkpt>
      <trkpt lat="44.89968" lon="3.00604">
        <ele>761</ele>
        <time>2019-12-19T01:54:22Z</time>
      </trkpt>
      <trkpt lat="44.89953" lon="3.00585">
        <ele>762</ele>
        <time>2019-12-19T01:54:26Z</time>
      </trkpt>
      <trkpt lat="44.89871" lon="3.00516">
        <ele>762</ele>
        <time>2019-12-19T01:54:43Z</time>
      </trkpt>
      <trkpt lat="44.89828" lon="3.00499">
        <ele>754</ele>
        <time>2019-12-19T01:54:51Z</time>
      </trkpt>
      <trkpt lat="44.89756" lon="3.00482">
        <ele>742</ele>
        <time>2019-12-19T01:55:04Z</time>
      </trkpt>
      <trkpt lat="44.89683" lon="3.00472">
        <ele>732</ele>
        <time>2019-12-19T01:55:17Z</time>
      </trkpt>
      <trkpt lat="44.89581" lon="3.00434">
        <ele>725</ele>
        <time>2019-12-19T01:55:36Z</time>
      </trkpt>
      <trkpt lat="44.89524" lon="3.00425">
        <ele>719</ele>
        <time>2019-12-19T01:55:46Z</time>
      </trkpt>
      <trkpt lat="44.8942" lon="3.00391">
        <ele>701</ele>
        <time>2019-12-19T01:56:05Z</time>
      </trkpt>
      <trkpt lat="44.89378" lon="3.0035">
        <ele>698</ele>
        <time>2019-12-19T01:56:14Z</time>
      </trkpt>
      <trkpt lat="44.89363" lon="3.00323">
        <ele>698</ele>
        <time>2019-12-19T01:56:18Z</time>
      </trkpt>
      <trkpt lat="44.89349" lon="3.00294">
        <ele>696</ele>
        <time>2019-12-19T01:56:23Z</time>
      </trkpt>
      <trkpt lat="44.89339" lon="3.00242">
        <ele>696</ele>
        <time>2019-12-19T01:56:30Z</time>
      </trkpt>
      <trkpt lat="44.89329" lon="3.00058">
        <ele>686</ele>
        <time>2019-12-19T01:56:53Z</time>
      </trkpt>
      <trkpt lat="44.89321" lon="3.00004">
        <ele>681</ele>
        <time>2019-12-19T01:57:00Z</time>
      </trkpt>
      <trkpt lat="44.89306" lon="2.99954">
        <ele>679</ele>
        <time>2019-12-19T01:57:07Z</time>
      </trkpt>
      <trkpt lat="44.89286" lon="2.99908">
        <ele>676</ele>
        <time>2019-12-19T01:57:13Z</time>
      </trkpt>
      <trkpt lat="44.89249" lon="2.9985">
        <ele>673</ele>
        <time>2019-12-19T01:57:23Z</time>
      </trkpt>
      <trkpt lat="44.89129" lon="2.99677">
        <ele>662</ele>
        <time>2019-12-19T01:57:54Z</time>
      </trkpt>
      <trkpt lat="44.89109" lon="2.99637">
        <ele>661</ele>
        <time>2019-12-19T01:58:00Z</time>
      </trkpt>
      <trkpt lat="44.89081" lon="2.99563">
        <ele>662</ele>
        <time>2019-12-19T01:58:11Z</time>
      </trkpt>
      <trkpt lat="44.8906" lon="2.99538">
        <ele>662</ele>
        <time>2019-12-19T01:58:15Z</time>
      </trkpt>
      <trkpt lat="44.8904" lon="2.99537">
        <ele>658</ele>
        <time>2019-12-19T01:58:19Z</time>
      </trkpt>
      <trkpt lat="44.89023" lon="2.99544">
        <ele>654</ele>
        <time>2019-12-19T01:58:22Z</time>
      </trkpt>
      <trkpt lat="44.88953" lon="2.99588">
        <ele>651</ele>
        <time>2019-12-19T01:58:36Z</time>
      </trkpt>
      <trkpt lat="44.88939" lon="2.99595">
        <ele>653</ele>
        <time>2019-12-19T01:58:38Z</time>
      </trkpt>
      <trkpt lat="44.88903" lon="2.99594">
        <ele>656</ele>
        <time>2019-12-19T01:58:45Z</time>
      </trkpt>
      <trkpt lat="44.88888" lon="2.99596">
        <ele>656</ele>
        <time>2019-12-19T01:58:48Z</time>
      </trkpt>
      <trkpt lat="44.88865" lon="2.99602">
        <ele>657</ele>
        <time>2019-12-19T01:58:52Z</time>
      </trkpt>
      <trkpt lat="44.88748" lon="2.99647">
        <ele>662</ele>
        <time>2019-12-19T01:59:13Z</time>
      </trkpt>
      <trkpt lat="44.88728" lon="2.99651">
        <ele>664</ele>
        <time>2019-12-19T01:59:17Z</time>
      </trkpt>
      <trkpt lat="44.88612" lon="2.99662">
        <ele>675</ele>
        <time>2019-12-19T01:59:38Z</time>
      </trkpt>
      <trkpt lat="44.88595" lon="2.9966">
        <ele>676</ele>
        <time>2019-12-19T01:59:41Z</time>
      </trkpt>
      <trkpt lat="44.88578" lon="2.99655">
        <ele>677</ele>
        <time>2019-12-19T01:59:44Z</time>
      </trkpt>
      <trkpt lat="44.88562" lon="2.99646">
        <ele>677</ele>
        <time>2019-12-19T01:59:47Z</time>
      </trkpt>
      <trkpt lat="44.88473" lon="2.99581">
        <ele>660</ele>
        <time>2019-12-19T02:00:05Z</time>
      </trkpt>
      <trkpt lat="44.8846" lon="2.99579">
        <ele>660</ele>
        <time>2019-12-19T02:00:07Z</time>
      </trkpt>
      <trkpt lat="44.88442" lon="2.99584">
        <ele>661</ele>
        <time>2019-12-19T02:00:10Z</time>
      </trkpt>
      <trkpt lat="44.88429" lon="2.99593">
        <ele>663</ele>
        <time>2019-12-19T02:00:13Z</time>
      </trkpt>
      <trkpt lat="44.88418" lon="2.99606">
        <ele>666</ele>
        <time>2019-12-19T02:00:15Z</time>
      </trkpt>
      <trkpt lat="44.88322" lon="2.99741">
        <ele>671</ele>
        <time>2019-12-19T02:00:39Z</time>
      </trkpt>
      <trkpt lat="44.88281" lon="2.99776">
        <ele>675</ele>
        <time>2019-12-19T02:00:48Z</time>
      </trkpt>
      <trkpt lat="44.88257" lon="2.99787">
        <ele>674</ele>
        <time>2019-12-19T02:00:52Z</time>
      </trkpt>
      <trkpt lat="44.88233" lon="2.99794">
        <ele>675</ele>
        <time>2019-12-19T02:00:57Z</time>
      </trkpt>
      <trkpt lat="44.88207" lon="2.99796">
        <ele>676</ele>
        <time>2019-12-19T02:01:01Z</time>
      </trkpt>
      <trkpt lat="44.88181" lon="2.99793">
        <ele>675</ele>
        <time>2019-12-19T02:01:06Z</time>
      </trkpt>
      <trkpt lat="44.88152" lon="2.99784">
        <ele>675</ele>
        <time>2019-12-19T02:01:11Z</time>
      </trkpt>
      <trkpt lat="44.88073" lon="2.99742">
        <ele>672</ele>
        <time>2019-12-19T02:01:26Z</time>
      </trkpt>
      <trkpt lat="44.88048" lon="2.99738">
        <ele>672</ele>
        <time>2019-12-19T02:01:31Z</time>
      </trkpt>
      <trkpt lat="44.88018" lon="2.99739">
        <ele>672</ele>
        <time>2019-12-19T02:01:36Z</time>
      </trkpt>
      <trkpt lat="44.87992" lon="2.99747">
        <ele>672</ele>
        <time>2019-12-19T02:01:41Z</time>
      </trkpt>
      <trkpt lat="44.87963" lon="2.9976">
        <ele>673</ele>
        <time>2019-12-19T02:01:46Z</time>
      </trkpt>
      <trkpt lat="44.87937" lon="2.99782">
        <ele>675</ele>
        <time>2019-12-19T02:01:52Z</time>
      </trkpt>
      <trkpt lat="44.87918" lon="2.99802">
        <ele>675</ele>
        <time>2019-12-19T02:01:56Z</time>
      </trkpt>
      <trkpt lat="44.87854" lon="2.99884">
        <ele>682</ele>
        <time>2019-12-19T02:02:11Z</time>
      </trkpt>
      <trkpt lat="44.8777" lon="2.9996">
        <ele>679</ele>
        <time>2019-12-19T02:02:29Z</time>
      </trkpt>
      <trkpt lat="44.87743" lon="2.9998">
        <ele>677</ele>
        <time>2019-12-19T02:02:34Z</time>
      </trkpt>
      <trkpt lat="44.87719" lon="2.99988">
        <ele>675</ele>
        <time>2019-12-19T02:02:39Z</time>
      </trkpt>
      <trkpt lat="44.87653" lon="2.99984">
        <ele>671</ele>
        <time>2019-12-19T02:02:51Z</time>
      </trkpt>
      <trkpt lat="44.87611" lon="2.99985">
        <ele>679</ele>
        <time>2019-12-19T02:02:58Z</time>
      </trkpt>
      <trkpt lat="44.87593" lon="2.99991">
        <ele>680</ele>
        <time>2019-12-19T02:03:01Z</time>
      </trkpt>
      <trkpt lat="44.87575" lon="3.00002">
        <ele>681</ele>
        <time>2019-12-19T02:03:05Z</time>
      </trkpt>
      <trkpt lat="44.87392" lon="3.0013">
        <ele>692</ele>
        <time>2019-12-19T02:03:41Z</time>
      </trkpt>
      <trkpt lat="44.87366" lon="3.00157">
        <ele>698</ele>
        <time>2019-12-19T02:03:47Z</time>
      </trkpt>
      <trkpt lat="44.87346" lon="3.00188">
        <ele>701</ele>
        <time>2019-12-19T02:03:52Z</time>
      </trkpt>
      <trkpt lat="44.87318" lon="3.00256">
        <ele>698</ele>
        <time>2019-12-19T02:04:02Z</time>
      </trkpt>
      <trkpt lat="44.87298" lon="3.00293">
        <ele>699</ele>
        <time>2019-12-19T02:04:08Z</time>
      </trkpt>
      <trkpt lat="44.8728" lon="3.00316">
        <ele>701</ele>
        <time>2019-12-19T02:04:12Z</time>
      </trkpt>
      <trkpt lat="44.8726" lon="3.00338">
        <ele>702</ele>
        <time>2019-12-19T02:04:17Z</time>
      </trkpt>
      <trkpt lat="44.87187" lon="3.0039">
        <ele>708</ele>
        <time>2019-12-19T02:04:31Z</time>
      </trkpt>
      <trkpt lat="44.87144" lon="3.00433">
        <ele>706</ele>
        <time>2019-12-19T02:04:41Z</time>
      </trkpt>
      <trkpt lat="44.87121" lon="3.00454">
        <ele>705</ele>
        <time>2019-12-19T02:04:46Z</time>
      </trkpt>
      <trkpt lat="44.871" lon="3.00467">
        <ele>706</ele>
        <time>2019-12-19T02:04:50Z</time>
      </trkpt>
      <trkpt lat="44.87031" lon="3.00495">
        <ele>705</ele>
        <time>2019-12-19T02:05:03Z</time>
      </trkpt>
      <trkpt lat="44.87014" lon="3.00508">
        <ele>705</ele>
        <time>2019-12-19T02:05:06Z</time>
      </trkpt>
      <trkpt lat="44.86995" lon="3.00525">
        <ele>707</ele>
        <time>2019-12-19T02:05:10Z</time>
      </trkpt>
      <trkpt lat="44.86979" lon="3.00549">
        <ele>710</ele>
        <time>2019-12-19T02:05:14Z</time>
      </trkpt>
      <trkpt lat="44.86961" lon="3.00582">
        <ele>715</ele>
        <time>2019-12-19T02:05:19Z</time>
      </trkpt>
      <trkpt lat="44.86938" lon="3.00615">
        <ele>720</ele>
        <time>2019-12-19T02:05:25Z</time>
      </trkpt>
      <trkpt lat="44.86908" lon="3.00649">
        <ele>727</ele>
        <time>2019-12-19T02:05:32Z</time>
      </trkpt>
      <trkpt lat="44.86893" lon="3.00672">
        <ele>730</ele>
        <time>2019-12-19T02:05:36Z</time>
      </trkpt>
      <trkpt lat="44.86877" lon="3.00701">
        <ele>732</ele>
        <time>2019-12-19T02:05:41Z</time>
      </trkpt>
      <trkpt lat="44.86863" lon="3.00737">
        <ele>732</ele>
        <time>2019-12-19T02:05:46Z</time>
      </trkpt>
      <trkpt lat="44.86842" lon="3.00813">
        <ele>729</ele>
        <time>2019-12-19T02:05:56Z</time>
      </trkpt>
      <trkpt lat="44.86832" lon="3.00838">
        <ele>729</ele>
        <time>2019-12-19T02:06:00Z</time>
      </trkpt>
      <trkpt lat="44.86821" lon="3.00862">
        <ele>729</ele>
        <time>2019-12-19T02:06:03Z</time>
      </trkpt>
      <trkpt lat="44.86782" lon="3.00936">
        <ele>731</ele>
        <time>2019-12-19T02:06:15Z</time>
      </trkpt>
      <trkpt lat="44.8674" lon="3.01028">
        <ele>729</ele>
        <time>2019-12-19T02:06:29Z</time>
      </trkpt>
      <trkpt lat="44.86731" lon="3.01044">
        <ele>725</ele>
        <time>2019-12-19T02:06:31Z</time>
      </trkpt>
      <trkpt lat="44.86718" lon="3.01054">
        <ele>723</ele>
        <time>2019-12-19T02:06:34Z</time>
      </trkpt>
      <trkpt lat="44.86702" lon="3.01055">
        <ele>723</ele>
        <time>2019-12-19T02:06:37Z</time>
      </trkpt>
      <trkpt lat="44.8668" lon="3.01043">
        <ele>728</ele>
        <time>2019-12-19T02:06:41Z</time>
      </trkpt>
      <trkpt lat="44.86646" lon="3.00984">
        <ele>743</ele>
        <time>2019-12-19T02:06:51Z</time>
      </trkpt>
      <trkpt lat="44.86626" lon="3.00962">
        <ele>747</ele>
        <time>2019-12-19T02:06:55Z</time>
      </trkpt>
      <trkpt lat="44.86604" lon="3.00944">
        <ele>749</ele>
        <time>2019-12-19T02:07:00Z</time>
      </trkpt>
      <trkpt lat="44.86585" lon="3.00933">
        <ele>751</ele>
        <time>2019-12-19T02:07:03Z</time>
      </trkpt>
      <trkpt lat="44.86556" lon="3.00922">
        <ele>753</ele>
        <time>2019-12-19T02:07:09Z</time>
      </trkpt>
      <trkpt lat="44.86522" lon="3.00917">
        <ele>752</ele>
        <time>2019-12-19T02:07:15Z</time>
      </trkpt>
      <trkpt lat="44.86488" lon="3.00922">
        <ele>748</ele>
        <time>2019-12-19T02:07:21Z</time>
      </trkpt>
      <trkpt lat="44.86458" lon="3.00937">
        <ele>745</ele>
        <time>2019-12-19T02:07:26Z</time>
      </trkpt>
      <trkpt lat="44.86432" lon="3.00962">
        <ele>744</ele>
        <time>2019-12-19T02:07:32Z</time>
      </trkpt>
      <trkpt lat="44.86417" lon="3.00988">
        <ele>745</ele>
        <time>2019-12-19T02:07:36Z</time>
      </trkpt>
      <trkpt lat="44.8641" lon="3.01013">
        <ele>747</ele>
        <time>2019-12-19T02:07:40Z</time>
      </trkpt>
      <trkpt lat="44.86409" lon="3.0107">
        <ele>745</ele>
        <time>2019-12-19T02:07:47Z</time>
      </trkpt>
      <trkpt lat="44.86402" lon="3.01096">
        <ele>744</ele>
        <time>2019-12-19T02:07:50Z</time>
      </trkpt>
      <trkpt lat="44.86387" lon="3.01113">
        <ele>744</ele>
        <time>2019-12-19T02:07:54Z</time>
      </trkpt>
      <trkpt lat="44.86367" lon="3.01127">
        <ele>746</ele>
        <time>2019-12-19T02:07:58Z</time>
      </trkpt>
      <trkpt lat="44.86238" lon="3.01185">
        <ele>756</ele>
        <time>2019-12-19T02:08:22Z</time>
      </trkpt>
      <trkpt lat="44.86206" lon="3.0119">
        <ele>756</ele>
        <time>2019-12-19T02:08:28Z</time>
      </trkpt>
      <trkpt lat="44.86168" lon="3.01186">
        <ele>757</ele>
        <time>2019-12-19T02:08:34Z</time>
      </trkpt>
      <trkpt lat="44.86103" lon="3.01159">
        <ele>760</ele>
        <time>2019-12-19T02:08:46Z</time>
      </trkpt>
      <trkpt lat="44.86011" lon="3.01135">
        <ele>753</ele>
        <time>2019-12-19T02:09:03Z</time>
      </trkpt>
      <trkpt lat="44.85995" lon="3.01128">
        <ele>752</ele>
        <time>2019-12-19T02:09:06Z</time>
      </trkpt>
      <trkpt lat="44.85979" lon="3.01117">
        <ele>750</ele>
        <time>2019-12-19T02:09:09Z</time>
      </trkpt>
      <trkpt lat="44.85965" lon="3.01091">
        <ele>751</ele>
        <time>2019-12-19T02:09:13Z</time>
      </trkpt>
      <trkpt lat="44.85954" lon="3.01054">
        <ele>755</ele>
        <time>2019-12-19T02:09:18Z</time>
      </trkpt>
      <trkpt lat="44.85949" lon="3.01017">
        <ele>762</ele>
        <time>2019-12-19T02:09:23Z</time>
      </trkpt>
      <trkpt lat="44.85943" lon="3.00992">
        <ele>765</ele>
        <time>2019-12-19T02:09:26Z</time>
      </trkpt>
      <trkpt lat="44.85935" lon="3.00973">
        <ele>766</ele>
        <time>2019-12-19T02:09:29Z</time>
      </trkpt>
      <trkpt lat="44.85907" lon="3.00932">
        <ele>768</ele>
        <time>2019-12-19T02:09:36Z</time>
      </trkpt>
      <trkpt lat="44.85885" lon="3.00912">
        <ele>770</ele>
        <time>2019-12-19T02:09:41Z</time>
      </trkpt>
      <trkpt lat="44.85842" lon="3.00899">
        <ele>765</ele>
        <time>2019-12-19T02:09:49Z</time>
      </trkpt>
      <trkpt lat="44.85808" lon="3.00897">
        <ele>765</ele>
        <time>2019-12-19T02:09:55Z</time>
      </trkpt>
      <trkpt lat="44.85749" lon="3.00909">
        <ele>761</ele>
        <time>2019-12-19T02:10:06Z</time>
      </trkpt>
      <trkpt lat="44.85724" lon="3.00911">
        <ele>757</ele>
        <time>2019-12-19T02:10:10Z</time>
      </trkpt>
      <trkpt lat="44.85696" lon="3.00904">
        <ele>755</ele>
        <time>2019-12-19T02:10:15Z</time>
      </trkpt>
      <trkpt lat="44.85682" lon="3.00893">
        <ele>753</ele>
        <time>2019-12-19T02:10:18Z</time>
      </trkpt>
      <trkpt lat="44.85677" lon="3.00886">
        <ele>753</ele>
        <time>2019-12-19T02:10:19Z</time>
      </trkpt>
      <trkpt lat="44.85672" lon="3.00872">
        <ele>753</ele>
        <time>2019-12-19T02:10:21Z</time>
      </trkpt>
      <trkpt lat="44.85674" lon="3.00849">
        <ele>756</ele>
        <time>2019-12-19T02:10:24Z</time>
      </trkpt>
      <trkpt lat="44.85685" lon="3.00777">
        <ele>766</ele>
        <time>2019-12-19T02:10:33Z</time>
      </trkpt>
      <trkpt lat="44.85682" lon="3.00762">
        <ele>766</ele>
        <time>2019-12-19T02:10:35Z</time>
      </trkpt>
      <trkpt lat="44.85664" lon="3.00716">
        <ele>762</ele>
        <time>2019-12-19T02:10:42Z</time>
      </trkpt>
      <trkpt lat="44.85633" lon="3.00655">
        <ele>759</ele>
        <time>2019-12-19T02:10:51Z</time>
      </trkpt>
      <trkpt lat="44.85623" lon="3.0064">
        <ele>758</ele>
        <time>2019-12-19T02:10:54Z</time>
      </trkpt>
      <trkpt lat="44.85613" lon="3.0063">
        <ele>756</ele>
        <time>2019-12-19T02:10:56Z</time>
      </trkpt>
      <trkpt lat="44.85601" lon="3.00627">
        <ele>753</ele>
        <time>2019-12-19T02:10:58Z</time>
      </trkpt>
      <trkpt lat="44.85555" lon="3.00633">
        <ele>752</ele>
        <time>2019-12-19T02:11:07Z</time>
      </trkpt>
      <trkpt lat="44.85544" lon="3.00629">
        <ele>754</ele>
        <time>2019-12-19T02:11:09Z</time>
      </trkpt>
      <trkpt lat="44.85516" lon="3.00591">
        <ele>753</ele>
        <time>2019-12-19T02:11:16Z</time>
      </trkpt>
      <trkpt lat="44.85451" lon="3.00487">
        <ele>754</ele>
        <time>2019-12-19T02:11:33Z</time>
      </trkpt>
      <trkpt lat="44.85429" lon="3.00455">
        <ele>755</ele>
        <time>2019-12-19T02:11:39Z</time>
      </trkpt>
      <trkpt lat="44.85404" lon="3.00429">
        <ele>756</ele>
        <time>2019-12-19T02:11:44Z</time>
      </trkpt>
      <trkpt lat="44.8536" lon="3.00389">
        <ele>758</ele>
        <time>2019-12-19T02:11:54Z</time>
      </trkpt>
      <trkpt lat="44.85338" lon="3.00375">
        <ele>758</ele>
        <time>2019-12-19T02:11:58Z</time>
      </trkpt>
      <trkpt lat="44.8519" lon="3.00317">
        <ele>765</ele>
        <time>2019-12-19T02:12:25Z</time>
      </trkpt>
      <trkpt lat="44.85116" lon="3.00285">
        <ele>772</ele>
        <time>2019-12-19T02:12:39Z</time>
      </trkpt>
      <trkpt lat="44.85108" lon="3.00285">
        <ele>772</ele>
        <time>2019-12-19T02:12:40Z</time>
      </trkpt>
      <trkpt lat="44.85055" lon="3.00265">
        <ele>774</ele>
        <time>2019-12-19T02:12:50Z</time>
      </trkpt>
      <trkpt lat="44.8505" lon="3.00272">
        <ele>774</ele>
        <time>2019-12-19T02:12:51Z</time>
      </trkpt>
      <trkpt lat="44.8505" lon="3.00286">
        <ele>773</ele>
        <time>2019-12-19T02:12:53Z</time>
      </trkpt>
      <trkpt lat="44.85051" lon="3.00312">
        <ele>772</ele>
        <time>2019-12-19T02:12:56Z</time>
      </trkpt>
      <trkpt lat="44.85059" lon="3.00329">
        <ele>771</ele>
        <time>2019-12-19T02:12:59Z</time>
      </trkpt>
      <trkpt lat="44.85151" lon="3.00401">
        <ele>772</ele>
        <time>2019-12-19T02:13:18Z</time>
      </trkpt>
      <trkpt lat="44.8526" lon="3.00481">
        <ele>778</ele>
        <time>2019-12-19T02:13:40Z</time>
      </trkpt>
      <trkpt lat="44.85306" lon="3.0051">
        <ele>779</ele>
        <time>2019-12-19T02:13:49Z</time>
      </trkpt>
      <trkpt lat="44.85329" lon="3.00528">
        <ele>781</ele>
        <time>2019-12-19T02:13:53Z</time>
      </trkpt>
      <trkpt lat="44.85369" lon="3.0058">
        <ele>786</ele>
        <time>2019-12-19T02:14:03Z</time>
      </trkpt>
      <trkpt lat="44.85415" lon="3.00619">
        <ele>784</ele>
        <time>2019-12-19T02:14:12Z</time>
      </trkpt>
      <trkpt lat="44.8546" lon="3.00671">
        <ele>782</ele>
        <time>2019-12-19T02:14:23Z</time>
      </trkpt>
      <trkpt lat="44.85467" lon="3.00695">
        <ele>784</ele>
        <time>2019-12-19T02:14:26Z</time>
      </trkpt>
      <trkpt lat="44.85469" lon="3.00718">
        <ele>787</ele>
        <time>2019-12-19T02:14:29Z</time>
      </trkpt>
      <trkpt lat="44.85463" lon="3.00737">
        <ele>792</ele>
        <time>2019-12-19T02:14:32Z</time>
      </trkpt>
      <trkpt lat="44.85454" lon="3.00752">
        <ele>797</ele>
        <time>2019-12-19T02:14:34Z</time>
      </trkpt>
      <trkpt lat="44.85443" lon="3.00764">
        <ele>798</ele>
        <time>2019-12-19T02:14:37Z</time>
      </trkpt>
      <trkpt lat="44.85438" lon="3.00764">
        <ele>800</ele>
        <time>2019-12-19T02:14:37Z</time>
      </trkpt>
      <trkpt lat="44.85433" lon="3.0076">
        <ele>802</ele>
        <time>2019-12-19T02:14:38Z</time>
      </trkpt>
      <trkpt lat="44.8543" lon="3.00752">
        <ele>804</ele>
        <time>2019-12-19T02:14:40Z</time>
      </trkpt>
      <trkpt lat="44.85432" lon="3.0074">
        <ele>803</ele>
        <time>2019-12-19T02:14:41Z</time>
      </trkpt>
      <trkpt lat="44.85442" lon="3.00714">
        <ele>795</ele>
        <time>2019-12-19T02:14:45Z</time>
      </trkpt>
      <trkpt lat="44.8544" lon="3.00698">
        <ele>793</ele>
        <time>2019-12-19T02:14:47Z</time>
      </trkpt>
      <trkpt lat="44.85431" lon="3.00683">
        <ele>794</ele>
        <time>2019-12-19T02:14:49Z</time>
      </trkpt>
      <trkpt lat="44.85412" lon="3.00664">
        <ele>798</ele>
        <time>2019-12-19T02:14:54Z</time>
      </trkpt>
      <trkpt lat="44.85382" lon="3.0064">
        <ele>801</ele>
        <time>2019-12-19T02:15:00Z</time>
      </trkpt>
      <trkpt lat="44.85374" lon="3.00636">
        <ele>802</ele>
        <time>2019-12-19T02:15:01Z</time>
      </trkpt>
      <trkpt lat="44.85367" lon="3.0064">
        <ele>806</ele>
        <time>2019-12-19T02:15:03Z</time>
      </trkpt>
      <trkpt lat="44.85363" lon="3.00649">
        <ele>810</ele>
        <time>2019-12-19T02:15:04Z</time>
      </trkpt>
      <trkpt lat="44.85367" lon="3.00663">
        <ele>813</ele>
        <time>2019-12-19T02:15:06Z</time>
      </trkpt>
      <trkpt lat="44.85399" lon="3.00682">
        <ele>805</ele>
        <time>2019-12-19T02:15:12Z</time>
      </trkpt>
      <trkpt lat="44.85408" lon="3.00696">
        <ele>804</ele>
        <time>2019-12-19T02:15:14Z</time>
      </trkpt>
      <trkpt lat="44.85412" lon="3.00709">
        <ele>805</ele>
        <time>2019-12-19T02:15:16Z</time>
      </trkpt>
      <trkpt lat="44.8541" lon="3.00726">
        <ele>808</ele>
        <time>2019-12-19T02:15:18Z</time>
      </trkpt>
      <trkpt lat="44.85395" lon="3.00751">
        <ele>815</ele>
        <time>2019-12-19T02:15:22Z</time>
      </trkpt>
      <trkpt lat="44.85369" lon="3.00778">
        <ele>817</ele>
        <time>2019-12-19T02:15:28Z</time>
      </trkpt>
      <trkpt lat="44.85343" lon="3.00794">
        <ele>822</ele>
        <time>2019-12-19T02:15:33Z</time>
      </trkpt>
      <trkpt lat="44.85325" lon="3.00812">
        <ele>822</ele>
        <time>2019-12-19T02:15:37Z</time>
      </trkpt>
      <trkpt lat="44.85314" lon="3.00838">
        <ele>819</ele>
        <time>2019-12-19T02:15:41Z</time>
      </trkpt>
      <trkpt lat="44.85305" lon="3.00852">
        <ele>816</ele>
        <time>2019-12-19T02:15:43Z</time>
      </trkpt>
      <trkpt lat="44.85298" lon="3.00859">
        <ele>816</ele>
        <time>2019-12-19T02:15:45Z</time>
      </trkpt>
      <trkpt lat="44.85282" lon="3.0086">
        <ele>817</ele>
        <time>2019-12-19T02:15:48Z</time>
      </trkpt>
      <trkpt lat="44.85235" lon="3.00847">
        <ele>829</ele>
        <time>2019-12-19T02:15:56Z</time>
      </trkpt>
      <trkpt lat="44.85229" lon="3.00841">
        <ele>832</ele>
        <time>2019-12-19T02:15:58Z</time>
      </trkpt>
      <trkpt lat="44.85227" lon="3.00834">
        <ele>834</ele>
        <time>2019-12-19T02:15:59Z</time>
      </trkpt>
      <trkpt lat="44.85227" lon="3.00827">
        <ele>836</ele>
        <time>2019-12-19T02:15:59Z</time>
      </trkpt>
      <trkpt lat="44.85232" lon="3.00821">
        <ele>836</ele>
        <time>2019-12-19T02:16:01Z</time>
      </trkpt>
      <trkpt lat="44.85239" lon="3.00818">
        <ele>836</ele>
        <time>2019-12-19T02:16:02Z</time>
      </trkpt>
      <trkpt lat="44.8527" lon="3.00835">
        <ele>826</ele>
        <time>2019-12-19T02:16:08Z</time>
      </trkpt>
      <trkpt lat="44.85283" lon="3.00834">
        <ele>825</ele>
        <time>2019-12-19T02:16:10Z</time>
      </trkpt>
      <trkpt lat="44.8529" lon="3.00829">
        <ele>825</ele>
        <time>2019-12-19T02:16:12Z</time>
      </trkpt>
      <trkpt lat="44.85298" lon="3.00818">
        <ele>826</ele>
        <time>2019-12-19T02:16:13Z</time>
      </trkpt>
      <trkpt lat="44.85304" lon="3.00798">
        <ele>829</ele>
        <time>2019-12-19T02:16:16Z</time>
      </trkpt>
      <trkpt lat="44.85315" lon="3.00778">
        <ele>831</ele>
        <time>2019-12-19T02:16:19Z</time>
      </trkpt>
      <trkpt lat="44.85336" lon="3.00759">
        <ele>831</ele>
        <time>2019-12-19T02:16:24Z</time>
      </trkpt>
      <trkpt lat="44.85344" lon="3.00748">
        <ele>830</ele>
        <time>2019-12-19T02:16:26Z</time>
      </trkpt>
      <trkpt lat="44.85349" lon="3.0073">
        <ele>827</ele>
        <time>2019-12-19T02:16:28Z</time>
      </trkpt>
      <trkpt lat="44.85349" lon="3.00721">
        <ele>826</ele>
        <time>2019-12-19T02:16:29Z</time>
      </trkpt>
      <trkpt lat="44.85343" lon="3.00706">
        <ele>826</ele>
        <time>2019-12-19T02:16:32Z</time>
      </trkpt>
      <trkpt lat="44.85332" lon="3.00694">
        <ele>829</ele>
        <time>2019-12-19T02:16:34Z</time>
      </trkpt>
      <trkpt lat="44.85326" lon="3.00689">
        <ele>829</ele>
        <time>2019-12-19T02:16:35Z</time>
      </trkpt>
      <trkpt lat="44.85292" lon="3.00674">
        <ele>835</ele>
        <time>2019-12-19T02:16:42Z</time>
      </trkpt>
      <trkpt lat="44.85256" lon="3.00662">
        <ele>840</ele>
        <time>2019-12-19T02:16:48Z</time>
      </trkpt>
      <trkpt lat="44.8522" lon="3.00647">
        <ele>842</ele>
        <time>2019-12-19T02:16:55Z</time>
      </trkpt>
      <trkpt lat="44.85165" lon="3.0062">
        <ele>846</ele>
        <time>2019-12-19T02:17:05Z</time>
      </trkpt>
      <trkpt lat="44.85143" lon="3.00606">
        <ele>846</ele>
        <time>2019-12-19T02:17:10Z</time>
      </trkpt>
      <trkpt lat="44.85089" lon="3.00587">
        <ele>852</ele>
        <time>2019-12-19T02:17:19Z</time>
      </trkpt>
      <trkpt lat="44.85073" lon="3.00583">
        <ele>853</ele>
        <time>2019-12-19T02:17:22Z</time>
      </trkpt>
      <trkpt lat="44.85057" lon="3.00583">
        <ele>855</ele>
        <time>2019-12-19T02:17:25Z</time>
      </trkpt>
      <trkpt lat="44.85019" lon="3.0059">
        <ele>861</ele>
        <time>2019-12-19T02:17:32Z</time>
      </trkpt>
      <trkpt lat="44.85005" lon="3.00589">
        <ele>862</ele>
        <time>2019-12-19T02:17:35Z</time>
      </trkpt>
      <trkpt lat="44.8499" lon="3.00584">
        <ele>863</ele>
        <time>2019-12-19T02:17:37Z</time>
      </trkpt>
      <trkpt lat="44.84974" lon="3.00573">
        <ele>861</ele>
        <time>2019-12-19T02:17:40Z</time>
      </trkpt>
      <trkpt lat="44.84959" lon="3.00566">
        <ele>861</ele>
        <time>2019-12-19T02:17:43Z</time>
      </trkpt>
      <trkpt lat="44.84944" lon="3.00562">
        <ele>862</ele>
        <time>2019-12-19T02:17:46Z</time>
      </trkpt>
      <trkpt lat="44.84928" lon="3.00562">
        <ele>864</ele>
        <time>2019-12-19T02:17:49Z</time>
      </trkpt>
      <trkpt lat="44.84859" lon="3.00567">
        <ele>872</ele>
        <time>2019-12-19T02:18:01Z</time>
      </trkpt>
      <trkpt lat="44.84809" lon="3.00568">
        <ele>874</ele>
        <time>2019-12-19T02:18:10Z</time>
      </trkpt>
      <trkpt lat="44.84785" lon="3.00573">
        <ele>876</ele>
        <time>2019-12-19T02:18:14Z</time>
      </trkpt>
      <trkpt lat="44.84765" lon="3.00583">
        <ele>878</ele>
        <time>2019-12-19T02:18:18Z</time>
      </trkpt>
      <trkpt lat="44.84752" lon="3.00593">
        <ele>881</ele>
        <time>2019-12-19T02:18:21Z</time>
      </trkpt>
      <trkpt lat="44.84711" lon="3.0064">
        <ele>886</ele>
        <time>2019-12-19T02:18:30Z</time>
      </trkpt>
      <trkpt lat="44.84686" lon="3.00664">
        <ele>889</ele>
        <time>2019-12-19T02:18:36Z</time>
      </trkpt>
      <trkpt lat="44.84598" lon="3.00733">
        <ele>893</ele>
        <time>2019-12-19T02:18:53Z</time>
      </trkpt>
      <trkpt lat="44.84572" lon="3.00756">
        <ele>896</ele>
        <time>2019-12-19T02:18:59Z</time>
      </trkpt>
      <trkpt lat="44.84528" lon="3.00809">
        <ele>903</ele>
        <time>2019-12-19T02:19:09Z</time>
      </trkpt>
      <trkpt lat="44.84481" lon="3.00858">
        <ele>907</ele>
        <time>2019-12-19T02:19:20Z</time>
      </trkpt>
      <trkpt lat="44.84466" lon="3.00878">
        <ele>907</ele>
        <time>2019-12-19T02:19:23Z</time>
      </trkpt>
      <trkpt lat="44.84457" lon="3.00894">
        <ele>908</ele>
        <time>2019-12-19T02:19:26Z</time>
      </trkpt>
      <trkpt lat="44.84451" lon="3.0091">
        <ele>910</ele>
        <time>2019-12-19T02:19:28Z</time>
      </trkpt>
      <trkpt lat="44.84448" lon="3.00931">
        <ele>911</ele>
        <time>2019-12-19T02:19:31Z</time>
      </trkpt>
      <trkpt lat="44.84451" lon="3.00961">
        <ele>913</ele>
        <time>2019-12-19T02:19:35Z</time>
      </trkpt>
      <trkpt lat="44.84499" lon="3.01193">
        <ele>925</ele>
        <time>2019-12-19T02:20:05Z</time>
      </trkpt>
      <trkpt lat="44.84514" lon="3.0127">
        <ele>924</ele>
        <time>2019-12-19T02:20:15Z</time>
      </trkpt>
      <trkpt lat="44.8452" lon="3.01314">
        <ele>926</ele>
        <time>2019-12-19T02:20:21Z</time>
      </trkpt>
      <trkpt lat="44.84521" lon="3.01352">
        <ele>927</ele>
        <time>2019-12-19T02:20:26Z</time>
      </trkpt>
      <trkpt lat="44.84519" lon="3.01374">
        <ele>929</ele>
        <time>2019-12-19T02:20:28Z</time>
      </trkpt>
      <trkpt lat="44.84512" lon="3.01406">
        <ele>931</ele>
        <time>2019-12-19T02:20:33Z</time>
      </trkpt>
      <trkpt lat="44.84504" lon="3.01425">
        <ele>933</ele>
        <time>2019-12-19T02:20:35Z</time>
      </trkpt>
      <trkpt lat="44.84487" lon="3.01448">
        <ele>933</ele>
        <time>2019-12-19T02:20:40Z</time>
      </trkpt>
      <trkpt lat="44.84463" lon="3.01468">
        <ele>934</ele>
        <time>2019-12-19T02:20:45Z</time>
      </trkpt>
      <trkpt lat="44.84435" lon="3.01486">
        <ele>935</ele>
        <time>2019-12-19T02:20:50Z</time>
      </trkpt>
      <trkpt lat="44.84382" lon="3.01512">
        <ele>938</ele>
        <time>2019-12-19T02:21:00Z</time>
      </trkpt>
      <trkpt lat="44.84356" lon="3.01526">
        <ele>940</ele>
        <time>2019-12-19T02:21:05Z</time>
      </trkpt>
      <trkpt lat="44.84294" lon="3.01579">
        <ele>947</ele>
        <time>2019-12-19T02:21:18Z</time>
      </trkpt>
      <trkpt lat="44.8426" lon="3.01603">
        <ele>950</ele>
        <time>2019-12-19T02:21:25Z</time>
      </trkpt>
      <trkpt lat="44.84247" lon="3.01614">
        <ele>951</ele>
        <time>2019-12-19T02:21:27Z</time>
      </trkpt>
      <trkpt lat="44.84237" lon="3.01628">
        <ele>952</ele>
        <time>2019-12-19T02:21:30Z</time>
      </trkpt>
      <trkpt lat="44.84152" lon="3.01776">
        <ele>959</ele>
        <time>2019-12-19T02:21:54Z</time>
      </trkpt>
      <trkpt lat="44.84143" lon="3.01799">
        <ele>960</ele>
        <time>2019-12-19T02:21:57Z</time>
      </trkpt>
      <trkpt lat="44.84137" lon="3.01824">
        <ele>961</ele>
        <time>2019-12-19T02:22:01Z</time>
      </trkpt>
      <trkpt lat="44.84114" lon="3.01938">
        <ele>966</ele>
        <time>2019-12-19T02:22:16Z</time>
      </trkpt>
      <trkpt lat="44.84097" lon="3.02002">
        <ele>969</ele>
        <time>2019-12-19T02:22:24Z</time>
      </trkpt>
      <trkpt lat="44.84079" lon="3.02054">
        <ele>972</ele>
        <time>2019-12-19T02:22:31Z</time>
      </trkpt>
      <trkpt lat="44.84062" lon="3.02129">
        <ele>976</ele>
        <time>2019-12-19T02:22:41Z</time>
      </trkpt>
      <trkpt lat="44.84046" lon="3.02212">
        <ele>978</ele>
        <time>2019-12-19T02:22:52Z</time>
      </trkpt>
      <trkpt lat="44.84044" lon="3.02239">
        <ele>979</ele>
        <time>2019-12-19T02:22:56Z</time>
      </trkpt>
      <trkpt lat="44.84046" lon="3.02339">
        <ele>982</ele>
        <time>2019-12-19T02:23:08Z</time>
      </trkpt>
      <trkpt lat="44.84045" lon="3.02349">
        <ele>982</ele>
        <time>2019-12-19T02:23:10Z</time>
      </trkpt>
      <trkpt lat="44.84037" lon="3.02391">
        <ele>983</ele>
        <time>2019-12-19T02:23:15Z</time>
      </trkpt>
      <trkpt lat="44.84021" lon="3.02444">
        <ele>984</ele>
        <time>2019-12-19T02:23:22Z</time>
      </trkpt>
      <trkpt lat="44.84009" lon="3.02468">
        <ele>984</ele>
        <time>2019-12-19T02:23:26Z</time>
      </trkpt>
      <trkpt lat="44.83856" lon="3.02686">
        <ele>991</ele>
        <time>2019-12-19T02:24:05Z</time>
      </trkpt>
      <trkpt lat="44.83819" lon="3.02725">
        <ele>993</ele>
        <time>2019-12-19T02:24:13Z</time>
      </trkpt>
      <trkpt lat="44.83624" lon="3.02857">
        <ele>1007</ele>
        <time>2019-12-19T02:24:51Z</time>
      </trkpt>
      <trkpt lat="44.83607" lon="3.02859">
        <ele>1008</ele>
        <time>2019-12-19T02:24:54Z</time>
      </trkpt>
      <trkpt lat="44.83584" lon="3.02866">
        <ele>1009</ele>
        <time>2019-12-19T02:24:59Z</time>
      </trkpt>
      <trkpt lat="44.83537" lon="3.0288">
        <ele>1012</ele>
        <time>2019-12-19T02:25:07Z</time>
      </trkpt>
      <trkpt lat="44.8353" lon="3.02884">
        <ele>1012</ele>
        <time>2019-12-19T02:25:09Z</time>
      </trkpt>
      <trkpt lat="44.83476" lon="3.02894">
        <ele>1015</ele>
        <time>2019-12-19T02:25:18Z</time>
      </trkpt>
      <trkpt lat="44.83418" lon="3.02907">
        <ele>1018</ele>
        <time>2019-12-19T02:25:29Z</time>
      </trkpt>
      <trkpt lat="44.83368" lon="3.02937">
        <ele>1020</ele>
        <time>2019-12-19T02:25:38Z</time>
      </trkpt>
      <trkpt lat="44.83296" lon="3.02942">
        <ele>1023</ele>
        <time>2019-12-19T02:25:51Z</time>
      </trkpt>
      <trkpt lat="44.83217" lon="3.0291">
        <ele>1023</ele>
        <time>2019-12-19T02:26:06Z</time>
      </trkpt>
      <trkpt lat="44.83022" lon="3.02815">
        <ele>1024</ele>
        <time>2019-12-19T02:26:42Z</time>
      </trkpt>
      <trkpt lat="44.82827" lon="3.02724">
        <ele>1030</ele>
        <time>2019-12-19T02:27:19Z</time>
      </trkpt>
      <trkpt lat="44.82792" lon="3.02712">
        <ele>1032</ele>
        <time>2019-12-19T02:27:25Z</time>
      </trkpt>
      <trkpt lat="44.82748" lon="3.02703">
        <ele>1035</ele>
        <time>2019-12-19T02:27:33Z</time>
      </trkpt>
      <trkpt lat="44.82698" lon="3.02705">
        <ele>1037</ele>
        <time>2019-12-19T02:27:42Z</time>
      </trkpt>
      <trkpt lat="44.82658" lon="3.02714">
        <ele>1038</ele>
        <time>2019-12-19T02:27:49Z</time>
      </trkpt>
      <trkpt lat="44.8262" lon="3.02736">
        <ele>1038</ele>
        <time>2019-12-19T02:27:57Z</time>
      </trkpt>
      <trkpt lat="44.82555" lon="3.02794">
        <ele>1038</ele>
        <time>2019-12-19T02:28:10Z</time>
      </trkpt>
      <trkpt lat="44.82484" lon="3.02852">
        <ele>1043</ele>
        <time>2019-12-19T02:28:25Z</time>
      </trkpt>
      <trkpt lat="44.82446" lon="3.02877">
        <ele>1043</ele>
        <time>2019-12-19T02:28:33Z</time>
      </trkpt>
      <trkpt lat="44.82407" lon="3.02895">
        <ele>1044</ele>
        <time>2019-12-19T02:28:40Z</time>
      </trkpt>
      <trkpt lat="44.82019" lon="3.03003">
        <ele>1048</ele>
        <time>2019-12-19T02:29:50Z</time>
      </trkpt>
      <trkpt lat="44.81984" lon="3.0303">
        <ele>1046</ele>
        <time>2019-12-19T02:29:57Z</time>
      </trkpt>
      <trkpt lat="44.81966" lon="3.03055">
        <ele>1044</ele>
        <time>2019-12-19T02:30:02Z</time>
      </trkpt>
      <trkpt lat="44.81953" lon="3.03102">
        <ele>1043</ele>
        <time>2019-12-19T02:30:08Z</time>
      </trkpt>
      <trkpt lat="44.8195" lon="3.03144">
        <ele>1043</ele>
        <time>2019-12-19T02:30:13Z</time>
      </trkpt>
      <trkpt lat="44.81969" lon="3.03229">
        <ele>1043</ele>
        <time>2019-12-19T02:30:25Z</time>
      </trkpt>
      <trkpt lat="44.81976" lon="3.03282">
        <ele>1044</ele>
        <time>2019-12-19T02:30:32Z</time>
      </trkpt>
      <trkpt lat="44.81967" lon="3.03327">
        <ele>1043</ele>
        <time>2019-12-19T02:30:37Z</time>
      </trkpt>
      <trkpt lat="44.81958" lon="3.03356">
        <ele>1043</ele>
        <time>2019-12-19T02:30:41Z</time>
      </trkpt>
      <trkpt lat="44.81879" lon="3.03456">
        <ele>1045</ele>
        <time>2019-12-19T02:31:00Z</time>
      </trkpt>
      <trkpt lat="44.81839" lon="3.03485">
        <ele>1046</ele>
        <time>2019-12-19T02:31:08Z</time>
      </trkpt>
      <trkpt lat="44.81809" lon="3.03496">
        <ele>1047</ele>
        <time>2019-12-19T02:31:14Z</time>
      </trkpt>
      <trkpt lat="44.81772" lon="3.03497">
        <ele>1046</ele>
        <time>2019-12-19T02:31:20Z</time>
      </trkpt>
      <trkpt lat="44.81623" lon="3.03456">
        <ele>1049</ele>
        <time>2019-12-19T02:31:47Z</time>
      </trkpt>
      <trkpt lat="44.81603" lon="3.03442">
        <ele>1051</ele>
        <time>2019-12-19T02:31:51Z</time>
      </trkpt>
      <trkpt lat="44.81543" lon="3.03357">
        <ele>1052</ele>
        <time>2019-12-19T02:32:07Z</time>
      </trkpt>
      <trkpt lat="44.81522" lon="3.03344">
        <ele>1053</ele>
        <time>2019-12-19T02:32:11Z</time>
      </trkpt>
      <trkpt lat="44.815" lon="3.03342">
        <ele>1054</ele>
        <time>2019-12-19T02:32:15Z</time>
      </trkpt>
      <trkpt lat="44.81471" lon="3.03347">
        <ele>1054</ele>
        <time>2019-12-19T02:32:20Z</time>
      </trkpt>
      <trkpt lat="44.81312" lon="3.03401">
        <ele>1058</ele>
        <time>2019-12-19T02:32:49Z</time>
      </trkpt>
      <trkpt lat="44.8126" lon="3.03424">
        <ele>1060</ele>
        <time>2019-12-19T02:32:59Z</time>
      </trkpt>
      <trkpt lat="44.8123" lon="3.03443">
        <ele>1061</ele>
        <time>2019-12-19T02:33:04Z</time>
      </trkpt>
      <trkpt lat="44.80892" lon="3.0372">
        <ele>1073</ele>
        <time>2019-12-19T02:34:14Z</time>
      </trkpt>
      <trkpt lat="44.8085" lon="3.03751">
        <ele>1077</ele>
        <time>2019-12-19T02:34:22Z</time>
      </trkpt>
      <trkpt lat="44.80807" lon="3.03769">
        <ele>1078</ele>
        <time>2019-12-19T02:34:30Z</time>
      </trkpt>
      <trkpt lat="44.80761" lon="3.03778">
        <ele>1078</ele>
        <time>2019-12-19T02:34:39Z</time>
      </trkpt>
      <trkpt lat="44.80701" lon="3.03776">
        <ele>1078</ele>
        <time>2019-12-19T02:34:49Z</time>
      </trkpt>
      <trkpt lat="44.80642" lon="3.03757">
        <ele>1078</ele>
        <time>2019-12-19T02:35:00Z</time>
      </trkpt>
      <trkpt lat="44.80489" lon="3.03691">
        <ele>1082</ele>
        <time>2019-12-19T02:35:29Z</time>
      </trkpt>
      <trkpt lat="44.80382" lon="3.03648">
        <ele>1084</ele>
        <time>2019-12-19T02:35:48Z</time>
      </trkpt>
      <trkpt lat="44.80277" lon="3.03604">
        <ele>1087</ele>
        <time>2019-12-19T02:36:08Z</time>
      </trkpt>
      <trkpt lat="44.80213" lon="3.0358">
        <ele>1095</ele>
        <time>2019-12-19T02:36:20Z</time>
      </trkpt>
      <trkpt lat="44.80177" lon="3.03591">
        <ele>1098</ele>
        <time>2019-12-19T02:36:26Z</time>
      </trkpt>
      <trkpt lat="44.80143" lon="3.03624">
        <ele>1094</ele>
        <time>2019-12-19T02:36:34Z</time>
      </trkpt>
      <trkpt lat="44.80047" lon="3.03711">
        <ele>1096</ele>
        <time>2019-12-19T02:36:54Z</time>
      </trkpt>
      <trkpt lat="44.80011" lon="3.03757">
        <ele>1096</ele>
        <time>2019-12-19T02:37:02Z</time>
      </trkpt>
      <trkpt lat="44.79967" lon="3.03824">
        <ele>1093</ele>
        <time>2019-12-19T02:37:14Z</time>
      </trkpt>
      <trkpt lat="44.79933" lon="3.03846">
        <ele>1093</ele>
        <time>2019-12-19T02:37:21Z</time>
      </trkpt>
      <trkpt lat="44.79826" lon="3.03841">
        <ele>1094</ele>
        <time>2019-12-19T02:37:40Z</time>
      </trkpt>
      <trkpt lat="44.7976" lon="3.03819">
        <ele>1095</ele>
        <time>2019-12-19T02:37:52Z</time>
      </trkpt>
      <trkpt lat="44.79723" lon="3.03825">
        <ele>1093</ele>
        <time>2019-12-19T02:37:58Z</time>
      </trkpt>
      <trkpt lat="44.79591" lon="3.03871">
        <ele>1090</ele>
        <time>2019-12-19T02:38:23Z</time>
      </trkpt>
      <trkpt lat="44.79531" lon="3.03883">
        <ele>1087</ele>
        <time>2019-12-19T02:38:33Z</time>
      </trkpt>
      <trkpt lat="44.795" lon="3.03878">
        <ele>1088</ele>
        <time>2019-12-19T02:38:39Z</time>
      </trkpt>
      <trkpt lat="44.79429" lon="3.03832">
        <ele>1088</ele>
        <time>2019-12-19T02:38:53Z</time>
      </trkpt>
      <trkpt lat="44.79378" lon="3.03807">
        <ele>1089</ele>
        <time>2019-12-19T02:39:02Z</time>
      </trkpt>
      <trkpt lat="44.7934" lon="3.03798">
        <ele>1089</ele>
        <time>2019-12-19T02:39:09Z</time>
      </trkpt>
      <trkpt lat="44.79312" lon="3.03802">
        <ele>1087</ele>
        <time>2019-12-19T02:39:14Z</time>
      </trkpt>
      <trkpt lat="44.79229" lon="3.03829">
        <ele>1079</ele>
        <time>2019-12-19T02:39:29Z</time>
      </trkpt>
      <trkpt lat="44.79213" lon="3.0383">
        <ele>1079</ele>
        <time>2019-12-19T02:39:32Z</time>
      </trkpt>
      <trkpt lat="44.79192" lon="3.03827">
        <ele>1079</ele>
        <time>2019-12-19T02:39:36Z</time>
      </trkpt>
      <trkpt lat="44.79157" lon="3.03813">
        <ele>1081</ele>
        <time>2019-12-19T02:39:43Z</time>
      </trkpt>
      <trkpt lat="44.79134" lon="3.03809">
        <ele>1081</ele>
        <time>2019-12-19T02:39:47Z</time>
      </trkpt>
      <trkpt lat="44.79074" lon="3.03809">
        <ele>1082</ele>
        <time>2019-12-19T02:39:57Z</time>
      </trkpt>
      <trkpt lat="44.79" lon="3.03817">
        <ele>1085</ele>
        <time>2019-12-19T02:40:11Z</time>
      </trkpt>
      <trkpt lat="44.78977" lon="3.03817">
        <ele>1083</ele>
        <time>2019-12-19T02:40:15Z</time>
      </trkpt>
      <trkpt lat="44.7895" lon="3.03805">
        <ele>1084</ele>
        <time>2019-12-19T02:40:20Z</time>
      </trkpt>
      <trkpt lat="44.78906" lon="3.03773">
        <ele>1090</ele>
        <time>2019-12-19T02:40:28Z</time>
      </trkpt>
      <trkpt lat="44.78867" lon="3.03753">
        <ele>1091</ele>
        <time>2019-12-19T02:40:36Z</time>
      </trkpt>
      <trkpt lat="44.78839" lon="3.03747">
        <ele>1090</ele>
        <time>2019-12-19T02:40:41Z</time>
      </trkpt>
      <trkpt lat="44.78677" lon="3.03756">
        <ele>1085</ele>
        <time>2019-12-19T02:41:10Z</time>
      </trkpt>
      <trkpt lat="44.78635" lon="3.0375">
        <ele>1084</ele>
        <time>2019-12-19T02:41:17Z</time>
      </trkpt>
      <trkpt lat="44.78506" lon="3.03706">
        <ele>1078</ele>
        <time>2019-12-19T02:41:41Z</time>
      </trkpt>
      <trkpt lat="44.78462" lon="3.03678">
        <ele>1078</ele>
        <time>2019-12-19T02:41:49Z</time>
      </trkpt>
      <trkpt lat="44.7844" lon="3.03683">
        <ele>1075</ele>
        <time>2019-12-19T02:41:53Z</time>
      </trkpt>
      <trkpt lat="44.7838" lon="3.03654">
        <ele>1074</ele>
        <time>2019-12-19T02:42:05Z</time>
      </trkpt>
      <trkpt lat="44.78361" lon="3.0365">
        <ele>1073</ele>
        <time>2019-12-19T02:42:08Z</time>
      </trkpt>
      <trkpt lat="44.78242" lon="3.03681">
        <ele>1063</ele>
        <time>2019-12-19T02:42:30Z</time>
      </trkpt>
      <trkpt lat="44.7822" lon="3.03696">
        <ele>1061</ele>
        <time>2019-12-19T02:42:34Z</time>
      </trkpt>
      <trkpt lat="44.78135" lon="3.03773">
        <ele>1057</ele>
        <time>2019-12-19T02:42:52Z</time>
      </trkpt>
      <trkpt lat="44.7811" lon="3.03781">
        <ele>1055</ele>
        <time>2019-12-19T02:42:57Z</time>
      </trkpt>
      <trkpt lat="44.78092" lon="3.03776">
        <ele>1054</ele>
        <time>2019-12-19T02:43:00Z</time>
      </trkpt>
      <trkpt lat="44.78052" lon="3.03748">
        <ele>1052</ele>
        <time>2019-12-19T02:43:08Z</time>
      </trkpt>
      <trkpt lat="44.78038" lon="3.03747">
        <ele>1052</ele>
        <time>2019-12-19T02:43:10Z</time>
      </trkpt>
      <trkpt lat="44.77996" lon="3.03765">
        <ele>1051</ele>
        <time>2019-12-19T02:43:18Z</time>
      </trkpt>
      <trkpt lat="44.77949" lon="3.0378">
        <ele>1049</ele>
        <time>2019-12-19T02:43:27Z</time>
      </trkpt>
      <trkpt lat="44.77918" lon="3.0381">
        <ele>1049</ele>
        <time>2019-12-19T02:43:33Z</time>
      </trkpt>
      <trkpt lat="44.77876" lon="3.03825">
        <ele>1048</ele>
        <time>2019-12-19T02:43:41Z</time>
      </trkpt>
      <trkpt lat="44.77815" lon="3.03835">
        <ele>1046</ele>
        <time>2019-12-19T02:43:52Z</time>
      </trkpt>
      <trkpt lat="44.77796" lon="3.03827">
        <ele>1044</ele>
        <time>2019-12-19T02:43:56Z</time>
      </trkpt>
      <trkpt lat="44.77761" lon="3.03787">
        <ele>1041</ele>
        <time>2019-12-19T02:44:04Z</time>
      </trkpt>
      <trkpt lat="44.77717" lon="3.03791">
        <ele>1040</ele>
        <time>2019-12-19T02:44:11Z</time>
      </trkpt>
      <trkpt lat="44.77624" lon="3.03829">
        <ele>1034</ele>
        <time>2019-12-19T02:44:29Z</time>
      </trkpt>
      <trkpt lat="44.77609" lon="3.0384">
        <ele>1033</ele>
        <time>2019-12-19T02:44:32Z</time>
      </trkpt>
      <trkpt lat="44.77601" lon="3.03852">
        <ele>1032</ele>
        <time>2019-12-19T02:44:34Z</time>
      </trkpt>
      <trkpt lat="44.77593" lon="3.0391">
        <ele>1028</ele>
        <time>2019-12-19T02:44:41Z</time>
      </trkpt>
      <trkpt lat="44.77583" lon="3.03933">
        <ele>1026</ele>
        <time>2019-12-19T02:44:45Z</time>
      </trkpt>
      <trkpt lat="44.77532" lon="3.0397">
        <ele>1026</ele>
        <time>2019-12-19T02:44:55Z</time>
      </trkpt>
      <trkpt lat="44.77481" lon="3.04026">
        <ele>1022</ele>
        <time>2019-12-19T02:45:06Z</time>
      </trkpt>
      <trkpt lat="44.77454" lon="3.0406">
        <ele>1021</ele>
        <time>2019-12-19T02:45:13Z</time>
      </trkpt>
      <trkpt lat="44.77447" lon="3.04077">
        <ele>1020</ele>
        <time>2019-12-19T02:45:15Z</time>
      </trkpt>
      <trkpt lat="44.7744" lon="3.04118">
        <ele>1016</ele>
        <time>2019-12-19T02:45:21Z</time>
      </trkpt>
      <trkpt lat="44.7743" lon="3.04147">
        <ele>1013</ele>
        <time>2019-12-19T02:45:25Z</time>
      </trkpt>
      <trkpt lat="44.77384" lon="3.04193">
        <ele>1009</ele>
        <time>2019-12-19T02:45:35Z</time>
      </trkpt>
      <trkpt lat="44.77348" lon="3.0424">
        <ele>1004</ele>
        <time>2019-12-19T02:45:43Z</time>
      </trkpt>
      <trkpt lat="44.77338" lon="3.04249">
        <ele>1003</ele>
        <time>2019-12-19T02:45:45Z</time>
      </trkpt>
      <trkpt lat="44.77317" lon="3.04275">
        <ele>1001</ele>
        <time>2019-12-19T02:45:50Z</time>
      </trkpt>
      <trkpt lat="44.77301" lon="3.04311">
        <ele>999</ele>
        <time>2019-12-19T02:45:56Z</time>
      </trkpt>
      <trkpt lat="44.77279" lon="3.04365">
        <ele>1000</ele>
        <time>2019-12-19T02:46:04Z</time>
      </trkpt>
      <trkpt lat="44.77277" lon="3.04384">
        <ele>1001</ele>
        <time>2019-12-19T02:46:06Z</time>
      </trkpt>
      <trkpt lat="44.7728" lon="3.04402">
        <ele>1002</ele>
        <time>2019-12-19T02:46:08Z</time>
      </trkpt>
      <trkpt lat="44.77269" lon="3.04427">
        <ele>1004</ele>
        <time>2019-12-19T02:46:12Z</time>
      </trkpt>
      <trkpt lat="44.77265" lon="3.04459">
        <ele>1006</ele>
        <time>2019-12-19T02:46:16Z</time>
      </trkpt>
      <trkpt lat="44.77275" lon="3.04515">
        <ele>1012</ele>
        <time>2019-12-19T02:46:24Z</time>
      </trkpt>
      <trkpt lat="44.77268" lon="3.04526">
        <ele>1012</ele>
        <time>2019-12-19T02:46:25Z</time>
      </trkpt>
      <trkpt lat="44.76976" lon="3.04654">
        <ele>1009</ele>
        <time>2019-12-19T02:47:20Z</time>
      </trkpt>
      <trkpt lat="44.76958" lon="3.04653">
        <ele>1009</ele>
        <time>2019-12-19T02:47:23Z</time>
      </trkpt>
      <trkpt lat="44.7694" lon="3.04648">
        <ele>1008</ele>
        <time>2019-12-19T02:47:26Z</time>
      </trkpt>
      <trkpt lat="44.76914" lon="3.04629">
        <ele>1006</ele>
        <time>2019-12-19T02:47:32Z</time>
      </trkpt>
      <trkpt lat="44.76879" lon="3.04617">
        <ele>1005</ele>
        <time>2019-12-19T02:47:38Z</time>
      </trkpt>
      <trkpt lat="44.76845" lon="3.04621">
        <ele>1006</ele>
        <time>2019-12-19T02:47:44Z</time>
      </trkpt>
      <trkpt lat="44.76742" lon="3.04669">
        <ele>1010</ele>
        <time>2019-12-19T02:48:03Z</time>
      </trkpt>
      <trkpt lat="44.7667" lon="3.04725">
        <ele>1011</ele>
        <time>2019-12-19T02:48:18Z</time>
      </trkpt>
      <trkpt lat="44.76552" lon="3.04856">
        <ele>1013</ele>
        <time>2019-12-19T02:48:45Z</time>
      </trkpt>
      <trkpt lat="44.76512" lon="3.04935">
        <ele>1014</ele>
        <time>2019-12-19T02:48:57Z</time>
      </trkpt>
      <trkpt lat="44.76481" lon="3.04972">
        <ele>1014</ele>
        <time>2019-12-19T02:49:04Z</time>
      </trkpt>
      <trkpt lat="44.76361" lon="3.05076">
        <ele>1012</ele>
        <time>2019-12-19T02:49:29Z</time>
      </trkpt>
      <trkpt lat="44.76353" lon="3.05071">
        <ele>1012</ele>
        <time>2019-12-19T02:49:31Z</time>
      </trkpt>
      <trkpt lat="44.76309" lon="3.05032">
        <ele>1011</ele>
        <time>2019-12-19T02:49:40Z</time>
      </trkpt>
      <trkpt lat="44.76259" lon="3.04971">
        <ele>1011</ele>
        <time>2019-12-19T02:49:52Z</time>
      </trkpt>
      <trkpt lat="44.76237" lon="3.04935">
        <ele>1010</ele>
        <time>2019-12-19T02:49:58Z</time>
      </trkpt>
      <trkpt lat="44.76198" lon="3.04823">
        <ele>1010</ele>
        <time>2019-12-19T02:50:14Z</time>
      </trkpt>
      <trkpt lat="44.76044" lon="3.04522">
        <ele>1013</ele>
        <time>2019-12-19T02:51:00Z</time>
      </trkpt>
      <trkpt lat="44.75901" lon="3.04226">
        <ele>1016</ele>
        <time>2019-12-19T02:51:46Z</time>
      </trkpt>
      <trkpt lat="44.75854" lon="3.04137">
        <ele>1018</ele>
        <time>2019-12-19T02:52:00Z</time>
      </trkpt>
      <trkpt lat="44.75708" lon="3.03897">
        <ele>1021</ele>
        <time>2019-12-19T02:52:40Z</time>
      </trkpt>
      <trkpt lat="44.75659" lon="3.03812">
        <ele>1021</ele>
        <time>2019-12-19T02:52:53Z</time>
      </trkpt>
      <trkpt lat="44.7563" lon="3.03741">
        <ele>1021</ele>
        <time>2019-12-19T02:53:04Z</time>
      </trkpt>
      <trkpt lat="44.75618" lon="3.03722">
        <ele>1021</ele>
        <time>2019-12-19T02:53:07Z</time>
      </trkpt>
      <trkpt lat="44.75596" lon="3.03698">
        <ele>1021</ele>
        <time>2019-12-19T02:53:12Z</time>
      </trkpt>
      <trkpt lat="44.75538" lon="3.03653">
        <ele>1024</ele>
        <time>2019-12-19T02:53:24Z</time>
      </trkpt>
      <trkpt lat="44.75502" lon="3.03644">
        <ele>1026</ele>
        <time>2019-12-19T02:53:30Z</time>
      </trkpt>
      <trkpt lat="44.75468" lon="3.03646">
        <ele>1028</ele>
        <time>2019-12-19T02:53:36Z</time>
      </trkpt>
      <trkpt lat="44.75345" lon="3.03647">
        <ele>1031</ele>
        <time>2019-12-19T02:53:58Z</time>
      </trkpt>
      <trkpt lat="44.75319" lon="3.03642">
        <ele>1031</ele>
        <time>2019-12-19T02:54:03Z</time>
      </trkpt>
      <trkpt lat="44.75295" lon="3.03632">
        <ele>1031</ele>
        <time>2019-12-19T02:54:07Z</time>
      </trkpt>
      <trkpt lat="44.7527" lon="3.03617">
        <ele>1031</ele>
        <time>2019-12-19T02:54:12Z</time>
      </trkpt>
      <trkpt lat="44.75232" lon="3.03588">
        <ele>1029</ele>
        <time>2019-12-19T02:54:20Z</time>
      </trkpt>
      <trkpt lat="44.75217" lon="3.0358">
        <ele>1029</ele>
        <time>2019-12-19T02:54:23Z</time>
      </trkpt>
      <trkpt lat="44.75204" lon="3.03577">
        <ele>1030</ele>
        <time>2019-12-19T02:54:25Z</time>
      </trkpt>
      <trkpt lat="44.75173" lon="3.03583">
        <ele>1032</ele>
        <time>2019-12-19T02:54:31Z</time>
      </trkpt>
      <trkpt lat="44.7516" lon="3.0359">
        <ele>1032</ele>
        <time>2019-12-19T02:54:33Z</time>
      </trkpt>
      <trkpt lat="44.75147" lon="3.03602">
        <ele>1033</ele>
        <time>2019-12-19T02:54:36Z</time>
      </trkpt>
      <trkpt lat="44.75117" lon="3.03635">
        <ele>1035</ele>
        <time>2019-12-19T02:54:43Z</time>
      </trkpt>
      <trkpt lat="44.75021" lon="3.03764">
        <ele>1039</ele>
        <time>2019-12-19T02:55:06Z</time>
      </trkpt>
      <trkpt lat="44.74971" lon="3.03814">
        <ele>1040</ele>
        <time>2019-12-19T02:55:17Z</time>
      </trkpt>
      <trkpt lat="44.74916" lon="3.03827">
        <ele>1038</ele>
        <time>2019-12-19T02:55:27Z</time>
      </trkpt>
      <trkpt lat="44.749" lon="3.03827">
        <ele>1038</ele>
        <time>2019-12-19T02:55:30Z</time>
      </trkpt>
      <trkpt lat="44.74887" lon="3.03821">
        <ele>1037</ele>
        <time>2019-12-19T02:55:32Z</time>
      </trkpt>
      <trkpt lat="44.7483" lon="3.03765">
        <ele>1036</ele>
        <time>2019-12-19T02:55:45Z</time>
      </trkpt>
      <trkpt lat="44.74641" lon="3.03716">
        <ele>1038</ele>
        <time>2019-12-19T02:56:19Z</time>
      </trkpt>
      <trkpt lat="44.74481" lon="3.03722">
        <ele>1041</ele>
        <time>2019-12-19T02:56:47Z</time>
      </trkpt>
      <trkpt lat="44.74425" lon="3.03742">
        <ele>1041</ele>
        <time>2019-12-19T02:56:58Z</time>
      </trkpt>
      <trkpt lat="44.74162" lon="3.03881">
        <ele>1045</ele>
        <time>2019-12-19T02:57:48Z</time>
      </trkpt>
      <trkpt lat="44.7414" lon="3.03889">
        <ele>1045</ele>
        <time>2019-12-19T02:57:52Z</time>
      </trkpt>
      <trkpt lat="44.74114" lon="3.03893">
        <ele>1046</ele>
        <time>2019-12-19T02:57:56Z</time>
      </trkpt>
      <trkpt lat="44.74027" lon="3.03895">
        <ele>1048</ele>
        <time>2019-12-19T02:58:12Z</time>
      </trkpt>
      <trkpt lat="44.74013" lon="3.03898">
        <ele>1048</ele>
        <time>2019-12-19T02:58:14Z</time>
      </trkpt>
      <trkpt lat="44.74" lon="3.03895">
        <ele>1048</ele>
        <time>2019-12-19T02:58:17Z</time>
      </trkpt>
      <trkpt lat="44.73989" lon="3.0389">
        <ele>1048</ele>
        <time>2019-12-19T02:58:19Z</time>
      </trkpt>
      <trkpt lat="44.73972" lon="3.03876">
        <ele>1047</ele>
        <time>2019-12-19T02:58:22Z</time>
      </trkpt>
      <trkpt lat="44.73948" lon="3.03852">
        <ele>1047</ele>
        <time>2019-12-19T02:58:27Z</time>
      </trkpt>
      <trkpt lat="44.73913" lon="3.03811">
        <ele>1046</ele>
        <time>2019-12-19T02:58:36Z</time>
      </trkpt>
      <trkpt lat="44.73905" lon="3.03798">
        <ele>1046</ele>
        <time>2019-12-19T02:58:38Z</time>
      </trkpt>
      <trkpt lat="44.739" lon="3.03791">
        <ele>1046</ele>
        <time>2019-12-19T02:58:39Z</time>
      </trkpt>
      <trkpt lat="44.73868" lon="3.03736">
        <ele>1047</ele>
        <time>2019-12-19T02:58:48Z</time>
      </trkpt>
      <trkpt lat="44.73838" lon="3.03666">
        <ele>1050</ele>
        <time>2019-12-19T02:58:58Z</time>
      </trkpt>
      <trkpt lat="44.7382" lon="3.03622">
        <ele>1050</ele>
        <time>2019-12-19T02:59:05Z</time>
      </trkpt>
      <trkpt lat="44.73809" lon="3.03583">
        <ele>1050</ele>
        <time>2019-12-19T02:59:10Z</time>
      </trkpt>
      <trkpt lat="44.738" lon="3.0356">
        <ele>1050</ele>
        <time>2019-12-19T02:59:13Z</time>
      </trkpt>
      <trkpt lat="44.73783" lon="3.03533">
        <ele>1049</ele>
        <time>2019-12-19T02:59:18Z</time>
      </trkpt>
      <trkpt lat="44.73749" lon="3.03512">
        <ele>1051</ele>
        <time>2019-12-19T02:59:25Z</time>
      </trkpt>
      <trkpt lat="44.73532" lon="3.03409">
        <ele>1052</ele>
        <time>2019-12-19T03:00:05Z</time>
      </trkpt>
      <trkpt lat="44.73446" lon="3.03365">
        <ele>1052</ele>
        <time>2019-12-19T03:00:22Z</time>
      </trkpt>
      <trkpt lat="44.73399" lon="3.03321">
        <ele>1051</ele>
        <time>2019-12-19T03:00:32Z</time>
      </trkpt>
      <trkpt lat="44.73346" lon="3.03276">
        <ele>1050</ele>
        <time>2019-12-19T03:00:43Z</time>
      </trkpt>
      <trkpt lat="44.73306" lon="3.03247">
        <ele>1050</ele>
        <time>2019-12-19T03:00:51Z</time>
      </trkpt>
      <trkpt lat="44.73267" lon="3.03226">
        <ele>1051</ele>
        <time>2019-12-19T03:00:58Z</time>
      </trkpt>
      <trkpt lat="44.73157" lon="3.0318">
        <ele>1049</ele>
        <time>2019-12-19T03:01:18Z</time>
      </trkpt>
      <trkpt lat="44.73121" lon="3.03182">
        <ele>1050</ele>
        <time>2019-12-19T03:01:25Z</time>
      </trkpt>
      <trkpt lat="44.7308" lon="3.03192">
        <ele>1052</ele>
        <time>2019-12-19T03:01:32Z</time>
      </trkpt>
      <trkpt lat="44.72954" lon="3.03217">
        <ele>1053</ele>
        <time>2019-12-19T03:01:55Z</time>
      </trkpt>
      <trkpt lat="44.72831" lon="3.03185">
        <ele>1051</ele>
        <time>2019-12-19T03:02:17Z</time>
      </trkpt>
      <trkpt lat="44.72734" lon="3.0315">
        <ele>1054</ele>
        <time>2019-12-19T03:02:35Z</time>
      </trkpt>
      <trkpt lat="44.72678" lon="3.03128">
        <ele>1056</ele>
        <time>2019-12-19T03:02:45Z</time>
      </trkpt>
      <trkpt lat="44.72627" lon="3.03102">
        <ele>1057</ele>
        <time>2019-12-19T03:02:55Z</time>
      </trkpt>
      <trkpt lat="44.72564" lon="3.03066">
        <ele>1058</ele>
        <time>2019-12-19T03:03:07Z</time>
      </trkpt>
      <trkpt lat="44.72373" lon="3.02938">
        <ele>1061</ele>
        <time>2019-12-19T03:03:45Z</time>
      </trkpt>
      <trkpt lat="44.72298" lon="3.02876">
        <ele>1060</ele>
        <time>2019-12-19T03:04:00Z</time>
      </trkpt>
      <trkpt lat="44.72271" lon="3.02858">
        <ele>1061</ele>
        <time>2019-12-19T03:04:06Z</time>
      </trkpt>
      <trkpt lat="44.72244" lon="3.02846">
        <ele>1061</ele>
        <time>2019-12-19T03:04:11Z</time>
      </trkpt>
      <trkpt lat="44.7214" lon="3.02814">
        <ele>1062</ele>
        <time>2019-12-19T03:04:30Z</time>
      </trkpt>
      <trkpt lat="44.72083" lon="3.0279">
        <ele>1063</ele>
        <time>2019-12-19T03:04:40Z</time>
      </trkpt>
      <trkpt lat="44.7205" lon="3.0277">
        <ele>1064</ele>
        <time>2019-12-19T03:04:46Z</time>
      </trkpt>
      <trkpt lat="44.72016" lon="3.02744">
        <ele>1063</ele>
        <time>2019-12-19T03:04:53Z</time>
      </trkpt>
      <trkpt lat="44.71989" lon="3.0273">
        <ele>1064</ele>
        <time>2019-12-19T03:04:58Z</time>
      </trkpt>
      <trkpt lat="44.71967" lon="3.02727">
        <ele>1064</ele>
        <time>2019-12-19T03:05:02Z</time>
      </trkpt>
      <trkpt lat="44.71942" lon="3.02732">
        <ele>1065</ele>
        <time>2019-12-19T03:05:07Z</time>
      </trkpt>
      <trkpt lat="44.7192" lon="3.0273">
        <ele>1066</ele>
        <time>2019-12-19T03:05:11Z</time>
      </trkpt>
      <trkpt lat="44.71856" lon="3.02713">
        <ele>1064</ele>
        <time>2019-12-19T03:05:22Z</time>
      </trkpt>
      <trkpt lat="44.71796" lon="3.02695">
        <ele>1062</ele>
        <time>2019-12-19T03:05:33Z</time>
      </trkpt>
      <trkpt lat="44.71667" lon="3.02666">
        <ele>1063</ele>
        <time>2019-12-19T03:05:57Z</time>
      </trkpt>
      <trkpt lat="44.71422" lon="3.02626">
        <ele>1058</ele>
        <time>2019-12-19T03:06:40Z</time>
      </trkpt>
      <trkpt lat="44.71258" lon="3.02641">
        <ele>1059</ele>
        <time>2019-12-19T03:07:10Z</time>
      </trkpt>
      <trkpt lat="44.71202" lon="3.02633">
        <ele>1058</ele>
        <time>2019-12-19T03:07:20Z</time>
      </trkpt>
      <trkpt lat="44.71072" lon="3.02609">
        <ele>1056</ele>
        <time>2019-12-19T03:07:43Z</time>
      </trkpt>
      <trkpt lat="44.71039" lon="3.02607">
        <ele>1055</ele>
        <time>2019-12-19T03:07:49Z</time>
      </trkpt>
      <trkpt lat="44.71009" lon="3.02616">
        <ele>1056</ele>
        <time>2019-12-19T03:07:54Z</time>
      </trkpt>
      <trkpt lat="44.70979" lon="3.02635">
        <ele>1056</ele>
        <time>2019-12-19T03:08:00Z</time>
      </trkpt>
      <trkpt lat="44.70952" lon="3.0266">
        <ele>1058</ele>
        <time>2019-12-19T03:08:06Z</time>
      </trkpt>
      <trkpt lat="44.70839" lon="3.02789">
        <ele>1061</ele>
        <time>2019-12-19T03:08:32Z</time>
      </trkpt>
      <trkpt lat="44.70819" lon="3.02799">
        <ele>1061</ele>
        <time>2019-12-19T03:08:36Z</time>
      </trkpt>
      <trkpt lat="44.70768" lon="3.02795">
        <ele>1061</ele>
        <time>2019-12-19T03:08:45Z</time>
      </trkpt>
      <trkpt lat="44.70723" lon="3.02797">
        <ele>1061</ele>
        <time>2019-12-19T03:08:53Z</time>
      </trkpt>
      <trkpt lat="44.70618" lon="3.02842">
        <ele>1061</ele>
        <time>2019-12-19T03:09:12Z</time>
      </trkpt>
      <trkpt lat="44.70605" lon="3.02857">
        <ele>1061</ele>
        <time>2019-12-19T03:09:15Z</time>
      </trkpt>
      <trkpt lat="44.70588" lon="3.02891">
        <ele>1062</ele>
        <time>2019-12-19T03:09:21Z</time>
      </trkpt>
      <trkpt lat="44.70565" lon="3.02925">
        <ele>1063</ele>
        <time>2019-12-19T03:09:26Z</time>
      </trkpt>
      <trkpt lat="44.70543" lon="3.02946">
        <ele>1064</ele>
        <time>2019-12-19T03:09:31Z</time>
      </trkpt>
      <trkpt lat="44.70509" lon="3.02962">
        <ele>1064</ele>
        <time>2019-12-19T03:09:38Z</time>
      </trkpt>
      <trkpt lat="44.70451" lon="3.03003">
        <ele>1065</ele>
        <time>2019-12-19T03:09:49Z</time>
      </trkpt>
      <trkpt lat="44.70354" lon="3.03076">
        <ele>1064</ele>
        <time>2019-12-19T03:10:09Z</time>
      </trkpt>
      <trkpt lat="44.70347" lon="3.0308">
        <ele>1064</ele>
        <time>2019-12-19T03:10:10Z</time>
      </trkpt>
      <trkpt lat="44.70257" lon="3.03127">
        <ele>1065</ele>
        <time>2019-12-19T03:10:27Z</time>
      </trkpt>
      <trkpt lat="44.70223" lon="3.03138">
        <ele>1065</ele>
        <time>2019-12-19T03:10:33Z</time>
      </trkpt>
      <trkpt lat="44.70191" lon="3.03145">
        <ele>1065</ele>
        <time>2019-12-19T03:10:39Z</time>
      </trkpt>
      <trkpt lat="44.70162" lon="3.03145">
        <ele>1065</ele>
        <time>2019-12-19T03:10:44Z</time>
      </trkpt>
      <trkpt lat="44.70081" lon="3.03135">
        <ele>1063</ele>
        <time>2019-12-19T03:10:59Z</time>
      </trkpt>
      <trkpt lat="44.70046" lon="3.03148">
        <ele>1064</ele>
        <time>2019-12-19T03:11:05Z</time>
      </trkpt>
      <trkpt lat="44.69951" lon="3.03163">
        <ele>1065</ele>
        <time>2019-12-19T03:11:22Z</time>
      </trkpt>
      <trkpt lat="44.69898" lon="3.03176">
        <ele>1065</ele>
        <time>2019-12-19T03:11:32Z</time>
      </trkpt>
      <trkpt lat="44.69853" lon="3.03197">
        <ele>1065</ele>
        <time>2019-12-19T03:11:40Z</time>
      </trkpt>
      <trkpt lat="44.69829" lon="3.03216">
        <ele>1066</ele>
        <time>2019-12-19T03:11:45Z</time>
      </trkpt>
      <trkpt lat="44.69802" lon="3.0323">
        <ele>1066</ele>
        <time>2019-12-19T03:11:50Z</time>
      </trkpt>
      <trkpt lat="44.69775" lon="3.03242">
        <ele>1066</ele>
        <time>2019-12-19T03:11:55Z</time>
      </trkpt>
      <trkpt lat="44.69732" lon="3.03281">
        <ele>1068</ele>
        <time>2019-12-19T03:12:04Z</time>
      </trkpt>
      <trkpt lat="44.69636" lon="3.03384">
        <ele>1070</ele>
        <time>2019-12-19T03:12:26Z</time>
      </trkpt>
      <trkpt lat="44.69524" lon="3.03456">
        <ele>1069</ele>
        <time>2019-12-19T03:12:48Z</time>
      </trkpt>
      <trkpt lat="44.69501" lon="3.0347">
        <ele>1069</ele>
        <time>2019-12-19T03:12:52Z</time>
      </trkpt>
      <trkpt lat="44.69432" lon="3.03525">
        <ele>1069</ele>
        <time>2019-12-19T03:13:06Z</time>
      </trkpt>
      <trkpt lat="44.69422" lon="3.03522">
        <ele>1068</ele>
        <time>2019-12-19T03:13:08Z</time>
      </trkpt>
      <trkpt lat="44.69386" lon="3.03501">
        <ele>1068</ele>
        <time>2019-12-19T03:13:15Z</time>
      </trkpt>
      <trkpt lat="44.69371" lon="3.03489">
        <ele>1069</ele>
        <time>2019-12-19T03:13:18Z</time>
      </trkpt>
      <trkpt lat="44.69364" lon="3.03499">
        <ele>1069</ele>
        <time>2019-12-19T03:13:20Z</time>
      </trkpt>
      <trkpt lat="44.69351" lon="3.03509">
        <ele>1070</ele>
        <time>2019-12-19T03:13:23Z</time>
      </trkpt>
      <trkpt lat="44.69313" lon="3.0355">
        <ele>1069</ele>
        <time>2019-12-19T03:13:31Z</time>
      </trkpt>
      <trkpt lat="44.693" lon="3.03558">
        <ele>1069</ele>
        <time>2019-12-19T03:13:34Z</time>
      </trkpt>
      <trkpt lat="44.69285" lon="3.03564">
        <ele>1069</ele>
        <time>2019-12-19T03:13:36Z</time>
      </trkpt>
      <trkpt lat="44.69163" lon="3.03578">
        <ele>1073</ele>
        <time>2019-12-19T03:13:58Z</time>
      </trkpt>
      <trkpt lat="44.69081" lon="3.03604">
        <ele>1075</ele>
        <time>2019-12-19T03:14:13Z</time>
      </trkpt>
      <trkpt lat="44.69054" lon="3.03616">
        <ele>1075</ele>
        <time>2019-12-19T03:14:18Z</time>
      </trkpt>
      <trkpt lat="44.68982" lon="3.03676">
        <ele>1072</ele>
        <time>2019-12-19T03:14:33Z</time>
      </trkpt>
      <trkpt lat="44.68964" lon="3.03687">
        <ele>1074</ele>
        <time>2019-12-19T03:14:37Z</time>
      </trkpt>
      <trkpt lat="44.68948" lon="3.03692">
        <ele>1075</ele>
        <time>2019-12-19T03:14:39Z</time>
      </trkpt>
      <trkpt lat="44.68907" lon="3.03698">
        <ele>1077</ele>
        <time>2019-12-19T03:14:47Z</time>
      </trkpt>
      <trkpt lat="44.68891" lon="3.03705">
        <ele>1077</ele>
        <time>2019-12-19T03:14:50Z</time>
      </trkpt>
      <trkpt lat="44.68876" lon="3.03716">
        <ele>1076</ele>
        <time>2019-12-19T03:14:53Z</time>
      </trkpt>
      <trkpt lat="44.68862" lon="3.03728">
        <ele>1076</ele>
        <time>2019-12-19T03:14:56Z</time>
      </trkpt>
      <trkpt lat="44.68848" lon="3.03747">
        <ele>1075</ele>
        <time>2019-12-19T03:14:59Z</time>
      </trkpt>
      <trkpt lat="44.6881" lon="3.03807">
        <ele>1074</ele>
        <time>2019-12-19T03:15:09Z</time>
      </trkpt>
      <trkpt lat="44.6876" lon="3.03866">
        <ele>1076</ele>
        <time>2019-12-19T03:15:21Z</time>
      </trkpt>
      <trkpt lat="44.6873" lon="3.03898">
        <ele>1076</ele>
        <time>2019-12-19T03:15:28Z</time>
      </trkpt>
      <trkpt lat="44.68705" lon="3.03919">
        <ele>1076</ele>
        <time>2019-12-19T03:15:33Z</time>
      </trkpt>
      <trkpt lat="44.68679" lon="3.03934">
        <ele>1076</ele>
        <time>2019-12-19T03:15:38Z</time>
      </trkpt>
      <trkpt lat="44.68654" lon="3.03946">
        <ele>1076</ele>
        <time>2019-12-19T03:15:43Z</time>
      </trkpt>
      <trkpt lat="44.68626" lon="3.03955">
        <ele>1077</ele>
        <time>2019-12-19T03:15:48Z</time>
      </trkpt>
      <trkpt lat="44.68537" lon="3.03972">
        <ele>1082</ele>
        <time>2019-12-19T03:16:04Z</time>
      </trkpt>
      <trkpt lat="44.68421" lon="3.03988">
        <ele>1090</ele>
        <time>2019-12-19T03:16:24Z</time>
      </trkpt>
      <trkpt lat="44.68204" lon="3.04065">
        <ele>1105</ele>
        <time>2019-12-19T03:17:04Z</time>
      </trkpt>
      <trkpt lat="44.68186" lon="3.04068">
        <ele>1105</ele>
        <time>2019-12-19T03:17:07Z</time>
      </trkpt>
      <trkpt lat="44.68156" lon="3.04067">
        <ele>1107</ele>
        <time>2019-12-19T03:17:13Z</time>
      </trkpt>
      <trkpt lat="44.68128" lon="3.04062">
        <ele>1109</ele>
        <time>2019-12-19T03:17:18Z</time>
      </trkpt>
      <trkpt lat="44.67992" lon="3.04019">
        <ele>1118</ele>
        <time>2019-12-19T03:17:43Z</time>
      </trkpt>
      <trkpt lat="44.67926" lon="3.03996">
        <ele>1120</ele>
        <time>2019-12-19T03:17:55Z</time>
      </trkpt>
      <trkpt lat="44.67893" lon="3.0398">
        <ele>1122</ele>
        <time>2019-12-19T03:18:01Z</time>
      </trkpt>
      <trkpt lat="44.67873" lon="3.03966">
        <ele>1123</ele>
        <time>2019-12-19T03:18:05Z</time>
      </trkpt>
      <trkpt lat="44.67848" lon="3.03944">
        <ele>1124</ele>
        <time>2019-12-19T03:18:10Z</time>
      </trkpt>
      <trkpt lat="44.67813" lon="3.03921">
        <ele>1127</ele>
        <time>2019-12-19T03:18:17Z</time>
      </trkpt>
      <trkpt lat="44.67795" lon="3.03916">
        <ele>1128</ele>
        <time>2019-12-19T03:18:20Z</time>
      </trkpt>
      <trkpt lat="44.67767" lon="3.03915">
        <ele>1130</ele>
        <time>2019-12-19T03:18:25Z</time>
      </trkpt>
      <trkpt lat="44.67656" lon="3.03929">
        <ele>1139</ele>
        <time>2019-12-19T03:18:45Z</time>
      </trkpt>
      <trkpt lat="44.67507" lon="3.03951">
        <ele>1148</ele>
        <time>2019-12-19T03:19:12Z</time>
      </trkpt>
      <trkpt lat="44.67389" lon="3.03959">
        <ele>1154</ele>
        <time>2019-12-19T03:19:33Z</time>
      </trkpt>
      <trkpt lat="44.67302" lon="3.03959">
        <ele>1158</ele>
        <time>2019-12-19T03:19:48Z</time>
      </trkpt>
      <trkpt lat="44.67268" lon="3.03962">
        <ele>1159</ele>
        <time>2019-12-19T03:19:54Z</time>
      </trkpt>
      <trkpt lat="44.67245" lon="3.03969">
        <ele>1161</ele>
        <time>2019-12-19T03:19:58Z</time>
      </trkpt>
      <trkpt lat="44.67145" lon="3.04014">
        <ele>1166</ele>
        <time>2019-12-19T03:20:17Z</time>
      </trkpt>
      <trkpt lat="44.6713" lon="3.0402">
        <ele>1167</ele>
        <time>2019-12-19T03:20:20Z</time>
      </trkpt>
      <trkpt lat="44.66963" lon="3.04049">
        <ele>1174</ele>
        <time>2019-12-19T03:20:50Z</time>
      </trkpt>
      <trkpt lat="44.66743" lon="3.04092">
        <ele>1182</ele>
        <time>2019-12-19T03:21:29Z</time>
      </trkpt>
      <trkpt lat="44.66654" lon="3.04107">
        <ele>1182</ele>
        <time>2019-12-19T03:21:45Z</time>
      </trkpt>
      <trkpt lat="44.66618" lon="3.04118">
        <ele>1181</ele>
        <time>2019-12-19T03:21:52Z</time>
      </trkpt>
      <trkpt lat="44.66602" lon="3.04131">
        <ele>1181</ele>
        <time>2019-12-19T03:21:55Z</time>
      </trkpt>
      <trkpt lat="44.6659" lon="3.04146">
        <ele>1181</ele>
        <time>2019-12-19T03:21:58Z</time>
      </trkpt>
      <trkpt lat="44.66573" lon="3.04171">
        <ele>1181</ele>
        <time>2019-12-19T03:22:02Z</time>
      </trkpt>
      <trkpt lat="44.66544" lon="3.0423">
        <ele>1180</ele>
        <time>2019-12-19T03:22:11Z</time>
      </trkpt>
      <trkpt lat="44.66514" lon="3.04285">
        <ele>1180</ele>
        <time>2019-12-19T03:22:20Z</time>
      </trkpt>
      <trkpt lat="44.66497" lon="3.04306">
        <ele>1180</ele>
        <time>2019-12-19T03:22:24Z</time>
      </trkpt>
      <trkpt lat="44.66375" lon="3.04402">
        <ele>1181</ele>
        <time>2019-12-19T03:22:49Z</time>
      </trkpt>
      <trkpt lat="44.66326" lon="3.04439">
        <ele>1182</ele>
        <time>2019-12-19T03:22:59Z</time>
      </trkpt>
      <trkpt lat="44.66266" lon="3.04475">
        <ele>1181</ele>
        <time>2019-12-19T03:23:11Z</time>
      </trkpt>
      <trkpt lat="44.66263" lon="3.04516">
        <ele>1182</ele>
        <time>2019-12-19T03:23:16Z</time>
      </trkpt>
      <trkpt lat="44.66263" lon="3.04615">
        <ele>1182</ele>
        <time>2019-12-19T03:23:28Z</time>
      </trkpt>
      <trkpt lat="44.66259" lon="3.04657">
        <ele>1180</ele>
        <time>2019-12-19T03:23:34Z</time>
      </trkpt>
      <trkpt lat="44.66257" lon="3.04666">
        <ele>1180</ele>
        <time>2019-12-19T03:23:35Z</time>
      </trkpt>
      <trkpt lat="44.66251" lon="3.04674">
        <ele>1179</ele>
        <time>2019-12-19T03:23:36Z</time>
      </trkpt>
      <trkpt lat="44.66243" lon="3.04676">
        <ele>1178</ele>
        <time>2019-12-19T03:23:38Z</time>
      </trkpt>
      <trkpt lat="44.66231" lon="3.0467">
        <ele>1178</ele>
        <time>2019-12-19T03:23:40Z</time>
      </trkpt>
      <trkpt lat="44.6621" lon="3.04653">
        <ele>1177</ele>
        <time>2019-12-19T03:23:44Z</time>
      </trkpt>
      <trkpt lat="44.66209" lon="3.04674">
        <ele>1176</ele>
        <time>2019-12-19T03:23:47Z</time>
      </trkpt>
      <trkpt lat="44.66197" lon="3.04697">
        <ele>1176</ele>
        <time>2019-12-19T03:23:51Z</time>
      </trkpt>
      <trkpt lat="44.66191" lon="3.04717">
        <ele>1175</ele>
        <time>2019-12-19T03:23:53Z</time>
      </trkpt>
      <trkpt lat="44.66189" lon="3.04728">
        <ele>1175</ele>
        <time>2019-12-19T03:23:55Z</time>
      </trkpt>
      <trkpt lat="44.66181" lon="3.04809">
        <ele>1175</ele>
        <time>2019-12-19T03:24:05Z</time>
      </trkpt>
      <trkpt lat="44.6617" lon="3.04849">
        <ele>1177</ele>
        <time>2019-12-19T03:24:11Z</time>
      </trkpt>
      <trkpt lat="44.66165" lon="3.04857">
        <ele>1177</ele>
        <time>2019-12-19T03:24:12Z</time>
      </trkpt>
      <trkpt lat="44.66162" lon="3.04877">
        <ele>1178</ele>
        <time>2019-12-19T03:24:15Z</time>
      </trkpt>
      <trkpt lat="44.66163" lon="3.04911">
        <ele>1178</ele>
        <time>2019-12-19T03:24:19Z</time>
      </trkpt>
      <trkpt lat="44.66162" lon="3.04922">
        <ele>1178</ele>
        <time>2019-12-19T03:24:20Z</time>
      </trkpt>
      <trkpt lat="44.6616" lon="3.04932">
        <ele>1178</ele>
        <time>2019-12-19T03:24:22Z</time>
      </trkpt>
      <trkpt lat="44.66136" lon="3.04969">
        <ele>1179</ele>
        <time>2019-12-19T03:24:28Z</time>
      </trkpt>
      <trkpt lat="44.66123" lon="3.04987">
        <ele>1180</ele>
        <time>2019-12-19T03:24:31Z</time>
      </trkpt>
      <trkpt lat="44.66106" lon="3.05006">
        <ele>1181</ele>
        <time>2019-12-19T03:24:35Z</time>
      </trkpt>
      <trkpt lat="44.6607" lon="3.05037">
        <ele>1183</ele>
        <time>2019-12-19T03:24:43Z</time>
      </trkpt>
      <trkpt lat="44.6602" lon="3.051">
        <ele>1185</ele>
        <time>2019-12-19T03:24:55Z</time>
      </trkpt>
      <trkpt lat="44.65985" lon="3.05139">
        <ele>1186</ele>
        <time>2019-12-19T03:25:02Z</time>
      </trkpt>
      <trkpt lat="44.65895" lon="3.05231">
        <ele>1190</ele>
        <time>2019-12-19T03:25:22Z</time>
      </trkpt>
      <trkpt lat="44.65863" lon="3.05267">
        <ele>1191</ele>
        <time>2019-12-19T03:25:30Z</time>
      </trkpt>
      <trkpt lat="44.65839" lon="3.05302">
        <ele>1193</ele>
        <time>2019-12-19T03:25:36Z</time>
      </trkpt>
      <trkpt lat="44.65774" lon="3.05419">
        <ele>1197</ele>
        <time>2019-12-19T03:25:55Z</time>
      </trkpt>
      <trkpt lat="44.65764" lon="3.05446">
        <ele>1198</ele>
        <time>2019-12-19T03:25:58Z</time>
      </trkpt>
      <trkpt lat="44.6576" lon="3.05462">
        <ele>1198</ele>
        <time>2019-12-19T03:26:01Z</time>
      </trkpt>
      <trkpt lat="44.65759" lon="3.05479">
        <ele>1199</ele>
        <time>2019-12-19T03:26:03Z</time>
      </trkpt>
      <trkpt lat="44.65769" lon="3.05548">
        <ele>1201</ele>
        <time>2019-12-19T03:26:12Z</time>
      </trkpt>
      <trkpt lat="44.6577" lon="3.05571">
        <ele>1202</ele>
        <time>2019-12-19T03:26:14Z</time>
      </trkpt>
      <trkpt lat="44.65769" lon="3.05591">
        <ele>1203</ele>
        <time>2019-12-19T03:26:17Z</time>
      </trkpt>
      <trkpt lat="44.65765" lon="3.05606">
        <ele>1204</ele>
        <time>2019-12-19T03:26:19Z</time>
      </trkpt>
      <trkpt lat="44.65758" lon="3.05619">
        <ele>1205</ele>
        <time>2019-12-19T03:26:21Z</time>
      </trkpt>
      <trkpt lat="44.65749" lon="3.05632">
        <ele>1205</ele>
        <time>2019-12-19T03:26:23Z</time>
      </trkpt>
      <trkpt lat="44.65738" lon="3.0564">
        <ele>1206</ele>
        <time>2019-12-19T03:26:26Z</time>
      </trkpt>
      <trkpt lat="44.65623" lon="3.05688">
        <ele>1208</ele>
        <time>2019-12-19T03:26:47Z</time>
      </trkpt>
      <trkpt lat="44.65613" lon="3.05694">
        <ele>1208</ele>
        <time>2019-12-19T03:26:49Z</time>
      </trkpt>
      <trkpt lat="44.65607" lon="3.05701">
        <ele>1208</ele>
        <time>2019-12-19T03:26:50Z</time>
      </trkpt>
      <trkpt lat="44.65601" lon="3.05718">
        <ele>1209</ele>
        <time>2019-12-19T03:26:53Z</time>
      </trkpt>
      <trkpt lat="44.656" lon="3.05729">
        <ele>1209</ele>
        <time>2019-12-19T03:26:54Z</time>
      </trkpt>
      <trkpt lat="44.65602" lon="3.05737">
        <ele>1210</ele>
        <time>2019-12-19T03:26:55Z</time>
      </trkpt>
      <trkpt lat="44.65608" lon="3.0575">
        <ele>1211</ele>
        <time>2019-12-19T03:26:57Z</time>
      </trkpt>
      <trkpt lat="44.65649" lon="3.05777">
        <ele>1212</ele>
        <time>2019-12-19T03:27:05Z</time>
      </trkpt>
      <trkpt lat="44.65661" lon="3.05788">
        <ele>1212</ele>
        <time>2019-12-19T03:27:08Z</time>
      </trkpt>
      <trkpt lat="44.65668" lon="3.05799">
        <ele>1212</ele>
        <time>2019-12-19T03:27:10Z</time>
      </trkpt>
      <trkpt lat="44.65675" lon="3.05815">
        <ele>1212</ele>
        <time>2019-12-19T03:27:12Z</time>
      </trkpt>
      <trkpt lat="44.65679" lon="3.05835">
        <ele>1212</ele>
        <time>2019-12-19T03:27:15Z</time>
      </trkpt>
      <trkpt lat="44.65682" lon="3.05858">
        <ele>1212</ele>
        <time>2019-12-19T03:27:18Z</time>
      </trkpt>
      <trkpt lat="44.65682" lon="3.05877">
        <ele>1212</ele>
        <time>2019-12-19T03:27:20Z</time>
      </trkpt>
      <trkpt lat="44.65677" lon="3.05897">
        <ele>1211</ele>
        <time>2019-12-19T03:27:23Z</time>
      </trkpt>
      <trkpt lat="44.65653" lon="3.05945">
        <ele>1209</ele>
        <time>2019-12-19T03:27:30Z</time>
      </trkpt>
      <trkpt lat="44.65625" lon="3.05986">
        <ele>1209</ele>
        <time>2019-12-19T03:27:37Z</time>
      </trkpt>
      <trkpt lat="44.65573" lon="3.06047">
        <ele>1207</ele>
        <time>2019-12-19T03:27:49Z</time>
      </trkpt>
      <trkpt lat="44.65558" lon="3.06071">
        <ele>1206</ele>
        <time>2019-12-19T03:27:53Z</time>
      </trkpt>
      <trkpt lat="44.65543" lon="3.06105">
        <ele>1206</ele>
        <time>2019-12-19T03:27:58Z</time>
      </trkpt>
      <trkpt lat="44.65513" lon="3.06181">
        <ele>1205</ele>
        <time>2019-12-19T03:28:09Z</time>
      </trkpt>
      <trkpt lat="44.65509" lon="3.06196">
        <ele>1206</ele>
        <time>2019-12-19T03:28:11Z</time>
      </trkpt>
      <trkpt lat="44.65508" lon="3.06214">
        <ele>1207</ele>
        <time>2019-12-19T03:28:14Z</time>
      </trkpt>
      <trkpt lat="44.6551" lon="3.06229">
        <ele>1208</ele>
        <time>2019-12-19T03:28:16Z</time>
      </trkpt>
      <trkpt lat="44.65531" lon="3.06301">
        <ele>1209</ele>
        <time>2019-12-19T03:28:26Z</time>
      </trkpt>
      <trkpt lat="44.65533" lon="3.06328">
        <ele>1210</ele>
        <time>2019-12-19T03:28:29Z</time>
      </trkpt>
      <trkpt lat="44.65531" lon="3.06345">
        <ele>1210</ele>
        <time>2019-12-19T03:28:31Z</time>
      </trkpt>
      <trkpt lat="44.65527" lon="3.06361">
        <ele>1210</ele>
        <time>2019-12-19T03:28:33Z</time>
      </trkpt>
      <trkpt lat="44.65521" lon="3.0637">
        <ele>1210</ele>
        <time>2019-12-19T03:28:35Z</time>
      </trkpt>
      <trkpt lat="44.65485" lon="3.06409">
        <ele>1212</ele>
        <time>2019-12-19T03:28:43Z</time>
      </trkpt>
      <trkpt lat="44.65409" lon="3.06505">
        <ele>1215</ele>
        <time>2019-12-19T03:29:01Z</time>
      </trkpt>
      <trkpt lat="44.65394" lon="3.0652">
        <ele>1215</ele>
        <time>2019-12-19T03:29:04Z</time>
      </trkpt>
      <trkpt lat="44.65377" lon="3.06532">
        <ele>1216</ele>
        <time>2019-12-19T03:29:08Z</time>
      </trkpt>
      <trkpt lat="44.65356" lon="3.06555">
        <ele>1217</ele>
        <time>2019-12-19T03:29:13Z</time>
      </trkpt>
      <trkpt lat="44.6535" lon="3.06569">
        <ele>1216</ele>
        <time>2019-12-19T03:29:15Z</time>
      </trkpt>
      <trkpt lat="44.65332" lon="3.06637">
        <ele>1215</ele>
        <time>2019-12-19T03:29:24Z</time>
      </trkpt>
      <trkpt lat="44.65325" lon="3.06654">
        <ele>1216</ele>
        <time>2019-12-19T03:29:26Z</time>
      </trkpt>
      <trkpt lat="44.65318" lon="3.06671">
        <ele>1216</ele>
        <time>2019-12-19T03:29:29Z</time>
      </trkpt>
      <trkpt lat="44.65299" lon="3.06698">
        <ele>1216</ele>
        <time>2019-12-19T03:29:34Z</time>
      </trkpt>
      <trkpt lat="44.65292" lon="3.06713">
        <ele>1216</ele>
        <time>2019-12-19T03:29:36Z</time>
      </trkpt>
      <trkpt lat="44.65283" lon="3.06709">
        <ele>1216</ele>
        <time>2019-12-19T03:29:38Z</time>
      </trkpt>
      <trkpt lat="44.65267" lon="3.06716">
        <ele>1215</ele>
        <time>2019-12-19T03:29:40Z</time>
      </trkpt>
      <trkpt lat="44.65246" lon="3.06721">
        <ele>1214</ele>
        <time>2019-12-19T03:29:44Z</time>
      </trkpt>
      <trkpt lat="44.65238" lon="3.06719">
        <ele>1213</ele>
        <time>2019-12-19T03:29:46Z</time>
      </trkpt>
      <trkpt lat="44.65205" lon="3.06697">
        <ele>1212</ele>
        <time>2019-12-19T03:29:52Z</time>
      </trkpt>
      <trkpt lat="44.6514" lon="3.06647">
        <ele>1214</ele>
        <time>2019-12-19T03:30:05Z</time>
      </trkpt>
      <trkpt lat="44.6507" lon="3.06572">
        <ele>1218</ele>
        <time>2019-12-19T03:30:21Z</time>
      </trkpt>
      <trkpt lat="44.65045" lon="3.0655">
        <ele>1218</ele>
        <time>2019-12-19T03:30:26Z</time>
      </trkpt>
      <trkpt lat="44.65033" lon="3.06541">
        <ele>1218</ele>
        <time>2019-12-19T03:30:29Z</time>
      </trkpt>
      <trkpt lat="44.65009" lon="3.0653">
        <ele>1217</ele>
        <time>2019-12-19T03:30:33Z</time>
      </trkpt>
      <trkpt lat="44.64979" lon="3.06526">
        <ele>1217</ele>
        <time>2019-12-19T03:30:39Z</time>
      </trkpt>
      <trkpt lat="44.64953" lon="3.0653">
        <ele>1216</ele>
        <time>2019-12-19T03:30:43Z</time>
      </trkpt>
      <trkpt lat="44.64937" lon="3.06529">
        <ele>1216</ele>
        <time>2019-12-19T03:30:46Z</time>
      </trkpt>
      <trkpt lat="44.64916" lon="3.06523">
        <ele>1217</ele>
        <time>2019-12-19T03:30:50Z</time>
      </trkpt>
      <trkpt lat="44.64871" lon="3.06505">
        <ele>1220</ele>
        <time>2019-12-19T03:30:58Z</time>
      </trkpt>
      <trkpt lat="44.64858" lon="3.06502">
        <ele>1220</ele>
        <time>2019-12-19T03:31:01Z</time>
      </trkpt>
      <trkpt lat="44.64841" lon="3.06504">
        <ele>1220</ele>
        <time>2019-12-19T03:31:04Z</time>
      </trkpt>
      <trkpt lat="44.64819" lon="3.06514">
        <ele>1220</ele>
        <time>2019-12-19T03:31:08Z</time>
      </trkpt>
      <trkpt lat="44.64798" lon="3.06526">
        <ele>1219</ele>
        <time>2019-12-19T03:31:12Z</time>
      </trkpt>
      <trkpt lat="44.64773" lon="3.06577">
        <ele>1218</ele>
        <time>2019-12-19T03:31:20Z</time>
      </trkpt>
      <trkpt lat="44.64748" lon="3.06613">
        <ele>1217</ele>
        <time>2019-12-19T03:31:26Z</time>
      </trkpt>
      <trkpt lat="44.64657" lon="3.06827">
        <ele>1216</ele>
        <time>2019-12-19T03:31:58Z</time>
      </trkpt>
      <trkpt lat="44.64639" lon="3.06891">
        <ele>1213</ele>
        <time>2019-12-19T03:32:06Z</time>
      </trkpt>
      <trkpt lat="44.64619" lon="3.06929">
        <ele>1212</ele>
        <time>2019-12-19T03:32:12Z</time>
      </trkpt>
      <trkpt lat="44.64617" lon="3.06942">
        <ele>1211</ele>
        <time>2019-12-19T03:32:14Z</time>
      </trkpt>
      <trkpt lat="44.64621" lon="3.06953">
        <ele>1210</ele>
        <time>2019-12-19T03:32:15Z</time>
      </trkpt>
      <trkpt lat="44.64639" lon="3.06983">
        <ele>1209</ele>
        <time>2019-12-19T03:32:20Z</time>
      </trkpt>
      <trkpt lat="44.64646" lon="3.07002">
        <ele>1208</ele>
        <time>2019-12-19T03:32:23Z</time>
      </trkpt>
      <trkpt lat="44.64652" lon="3.07015">
        <ele>1207</ele>
        <time>2019-12-18T23:54:02Z</time>
      </trkpt>
      <trkpt lat="44.64646" lon="3.07003">
        <ele>1208</ele>
        <time>2019-12-18T23:54:04Z</time>
      </trkpt>
      <trkpt lat="44.64639" lon="3.06983">
        <ele>1209</ele>
        <time>2019-12-18T23:54:07Z</time>
      </trkpt>
      <trkpt lat="44.64621" lon="3.06953">
        <ele>1210</ele>
        <time>2019-12-18T23:54:12Z</time>
      </trkpt>
      <trkpt lat="44.64617" lon="3.06942">
        <ele>1211</ele>
        <time>2019-12-18T23:54:13Z</time>
      </trkpt>
      <trkpt lat="44.64619" lon="3.06929">
        <ele>1212</ele>
        <time>2019-12-18T23:54:15Z</time>
      </trkpt>
      <trkpt lat="44.64639" lon="3.06891">
        <ele>1213</ele>
        <time>2019-12-18T23:54:21Z</time>
      </trkpt>
      <trkpt lat="44.64657" lon="3.06827">
        <ele>1216</ele>
        <time>2019-12-18T23:54:30Z</time>
      </trkpt>
      <trkpt lat="44.64748" lon="3.06613">
        <ele>1217</ele>
        <time>2019-12-18T23:55:01Z</time>
      </trkpt>
      <trkpt lat="44.64773" lon="3.06577">
        <ele>1218</ele>
        <time>2019-12-18T23:55:08Z</time>
      </trkpt>
      <trkpt lat="44.64798" lon="3.06526">
        <ele>1219</ele>
        <time>2019-12-18T23:55:15Z</time>
      </trkpt>
      <trkpt lat="44.64781" lon="3.06535">
        <ele>1219</ele>
        <time>2019-12-18T23:55:19Z</time>
      </trkpt>
      <trkpt lat="44.64768" lon="3.06538">
        <ele>1219</ele>
        <time>2019-12-18T23:55:21Z</time>
      </trkpt>
      <trkpt lat="44.64757" lon="3.06538">
        <ele>1220</ele>
        <time>2019-12-18T23:55:23Z</time>
      </trkpt>
      <trkpt lat="44.64738" lon="3.06531">
        <ele>1219</ele>
        <time>2019-12-18T23:55:26Z</time>
      </trkpt>
      <trkpt lat="44.64704" lon="3.06514">
        <ele>1219</ele>
        <time>2019-12-18T23:55:33Z</time>
      </trkpt>
      <trkpt lat="44.64569" lon="3.06455">
        <ele>1217</ele>
        <time>2019-12-18T23:55:58Z</time>
      </trkpt>
      <trkpt lat="44.64546" lon="3.06447">
        <ele>1218</ele>
        <time>2019-12-18T23:56:02Z</time>
      </trkpt>
      <trkpt lat="44.64525" lon="3.06445">
        <ele>1218</ele>
        <time>2019-12-18T23:56:06Z</time>
      </trkpt>
      <trkpt lat="44.64465" lon="3.06448">
        <ele>1216</ele>
        <time>2019-12-18T23:56:17Z</time>
      </trkpt>
      <trkpt lat="44.64421" lon="3.0644">
        <ele>1214</ele>
        <time>2019-12-18T23:56:24Z</time>
      </trkpt>
      <trkpt lat="44.6437" lon="3.06435">
        <ele>1214</ele>
        <time>2019-12-18T23:56:34Z</time>
      </trkpt>
      <trkpt lat="44.64348" lon="3.06435">
        <ele>1214</ele>
        <time>2019-12-18T23:56:38Z</time>
      </trkpt>
      <trkpt lat="44.64332" lon="3.06435">
        <ele>1214</ele>
        <time>2019-12-18T23:56:40Z</time>
      </trkpt>
      <trkpt lat="44.6432" lon="3.06437">
        <ele>1214</ele>
        <time>2019-12-18T23:56:43Z</time>
      </trkpt>
      <trkpt lat="44.64275" lon="3.06453">
        <ele>1215</ele>
        <time>2019-12-18T23:56:51Z</time>
      </trkpt>
      <trkpt lat="44.64226" lon="3.06464">
        <ele>1215</ele>
        <time>2019-12-18T23:57:00Z</time>
      </trkpt>
      <trkpt lat="44.64176" lon="3.06481">
        <ele>1215</ele>
        <time>2019-12-18T23:57:09Z</time>
      </trkpt>
      <trkpt lat="44.64153" lon="3.06484">
        <ele>1216</ele>
        <time>2019-12-18T23:57:13Z</time>
      </trkpt>
      <trkpt lat="44.64123" lon="3.06485">
        <ele>1216</ele>
        <time>2019-12-18T23:57:18Z</time>
      </trkpt>
      <trkpt lat="44.64078" lon="3.06482">
        <ele>1218</ele>
        <time>2019-12-18T23:57:26Z</time>
      </trkpt>
      <trkpt lat="44.64057" lon="3.06476">
        <ele>1218</ele>
        <time>2019-12-18T23:57:30Z</time>
      </trkpt>
      <trkpt lat="44.64037" lon="3.06465">
        <ele>1218</ele>
        <time>2019-12-18T23:57:34Z</time>
      </trkpt>
      <trkpt lat="44.63977" lon="3.06417">
        <ele>1218</ele>
        <time>2019-12-18T23:57:46Z</time>
      </trkpt>
      <trkpt lat="44.63927" lon="3.06394">
        <ele>1218</ele>
        <time>2019-12-18T23:57:55Z</time>
      </trkpt>
      <trkpt lat="44.63859" lon="3.06357">
        <ele>1216</ele>
        <time>2019-12-18T23:58:08Z</time>
      </trkpt>
      <trkpt lat="44.63846" lon="3.06347">
        <ele>1216</ele>
        <time>2019-12-18T23:58:11Z</time>
      </trkpt>
      <trkpt lat="44.63833" lon="3.06325">
        <ele>1216</ele>
        <time>2019-12-18T23:58:15Z</time>
      </trkpt>
      <trkpt lat="44.63822" lon="3.063">
        <ele>1217</ele>
        <time>2019-12-18T23:58:18Z</time>
      </trkpt>
      <trkpt lat="44.6381" lon="3.06284">
        <ele>1217</ele>
        <time>2019-12-18T23:58:21Z</time>
      </trkpt>
      <trkpt lat="44.63793" lon="3.06272">
        <ele>1218</ele>
        <time>2019-12-18T23:58:25Z</time>
      </trkpt>
      <trkpt lat="44.63683" lon="3.06214">
        <ele>1222</ele>
        <time>2019-12-18T23:58:46Z</time>
      </trkpt>
      <trkpt lat="44.63607" lon="3.06181">
        <ele>1225</ele>
        <time>2019-12-18T23:59:00Z</time>
      </trkpt>
      <trkpt lat="44.6359" lon="3.06171">
        <ele>1225</ele>
        <time>2019-12-18T23:59:03Z</time>
      </trkpt>
      <trkpt lat="44.635" lon="3.06109">
        <ele>1225</ele>
        <time>2019-12-18T23:59:21Z</time>
      </trkpt>
      <trkpt lat="44.63147" lon="3.05854">
        <ele>1233</ele>
        <time>2019-12-19T00:00:32Z</time>
      </trkpt>
      <trkpt lat="44.63115" lon="3.05835">
        <ele>1233</ele>
        <time>2019-12-19T00:00:38Z</time>
      </trkpt>
      <trkpt lat="44.63101" lon="3.05831">
        <ele>1233</ele>
        <time>2019-12-19T00:00:40Z</time>
      </trkpt>
      <trkpt lat="44.63058" lon="3.05825">
        <ele>1233</ele>
        <time>2019-12-19T00:00:48Z</time>
      </trkpt>
      <trkpt lat="44.63027" lon="3.05824">
        <ele>1233</ele>
        <time>2019-12-19T00:00:53Z</time>
      </trkpt>
      <trkpt lat="44.6302" lon="3.05825">
        <ele>1233</ele>
        <time>2019-12-19T00:00:55Z</time>
      </trkpt>
      <trkpt lat="44.63007" lon="3.0583">
        <ele>1233</ele>
        <time>2019-12-19T00:00:57Z</time>
      </trkpt>
      <trkpt lat="44.62999" lon="3.05837">
        <ele>1233</ele>
        <time>2019-12-19T00:00:59Z</time>
      </trkpt>
      <trkpt lat="44.62992" lon="3.05846">
        <ele>1233</ele>
        <time>2019-12-19T00:01:01Z</time>
      </trkpt>
      <trkpt lat="44.62985" lon="3.0586">
        <ele>1234</ele>
        <time>2019-12-19T00:01:03Z</time>
      </trkpt>
      <trkpt lat="44.62981" lon="3.05893">
        <ele>1233</ele>
        <time>2019-12-19T00:01:07Z</time>
      </trkpt>
      <trkpt lat="44.62985" lon="3.05947">
        <ele>1231</ele>
        <time>2019-12-19T00:01:14Z</time>
      </trkpt>
      <trkpt lat="44.62985" lon="3.05969">
        <ele>1231</ele>
        <time>2019-12-19T00:01:17Z</time>
      </trkpt>
      <trkpt lat="44.62981" lon="3.05987">
        <ele>1231</ele>
        <time>2019-12-19T00:01:19Z</time>
      </trkpt>
      <trkpt lat="44.62971" lon="3.06016">
        <ele>1231</ele>
        <time>2019-12-19T00:01:23Z</time>
      </trkpt>
      <trkpt lat="44.62882" lon="3.06119">
        <ele>1231</ele>
        <time>2019-12-19T00:01:44Z</time>
      </trkpt>
      <trkpt lat="44.62863" lon="3.06136">
        <ele>1230</ele>
        <time>2019-12-19T00:01:48Z</time>
      </trkpt>
      <trkpt lat="44.62821" lon="3.06166">
        <ele>1230</ele>
        <time>2019-12-19T00:01:56Z</time>
      </trkpt>
      <trkpt lat="44.62814" lon="3.06175">
        <ele>1230</ele>
        <time>2019-12-19T00:01:58Z</time>
      </trkpt>
      <trkpt lat="44.6281" lon="3.06188">
        <ele>1230</ele>
        <time>2019-12-19T00:01:59Z</time>
      </trkpt>
      <trkpt lat="44.62805" lon="3.06236">
        <ele>1228</ele>
        <time>2019-12-19T00:02:06Z</time>
      </trkpt>
      <trkpt lat="44.62798" lon="3.06271">
        <ele>1227</ele>
        <time>2019-12-19T00:02:10Z</time>
      </trkpt>
      <trkpt lat="44.62793" lon="3.06285">
        <ele>1226</ele>
        <time>2019-12-19T00:02:12Z</time>
      </trkpt>
      <trkpt lat="44.62787" lon="3.06291">
        <ele>1225</ele>
        <time>2019-12-19T00:02:13Z</time>
      </trkpt>
      <trkpt lat="44.62779" lon="3.06296">
        <ele>1225</ele>
        <time>2019-12-19T00:02:15Z</time>
      </trkpt>
      <trkpt lat="44.62757" lon="3.063">
        <ele>1225</ele>
        <time>2019-12-19T00:02:19Z</time>
      </trkpt>
      <trkpt lat="44.62729" lon="3.06296">
        <ele>1225</ele>
        <time>2019-12-19T00:02:24Z</time>
      </trkpt>
      <trkpt lat="44.62706" lon="3.06286">
        <ele>1225</ele>
        <time>2019-12-19T00:02:28Z</time>
      </trkpt>
      <trkpt lat="44.62696" lon="3.06286">
        <ele>1225</ele>
        <time>2019-12-19T00:02:30Z</time>
      </trkpt>
      <trkpt lat="44.62684" lon="3.06289">
        <ele>1224</ele>
        <time>2019-12-19T00:02:32Z</time>
      </trkpt>
      <trkpt lat="44.62668" lon="3.063">
        <ele>1224</ele>
        <time>2019-12-19T00:02:35Z</time>
      </trkpt>
      <trkpt lat="44.62652" lon="3.06319">
        <ele>1225</ele>
        <time>2019-12-19T00:02:39Z</time>
      </trkpt>
      <trkpt lat="44.62599" lon="3.06394">
        <ele>1227</ele>
        <time>2019-12-19T00:02:52Z</time>
      </trkpt>
      <trkpt lat="44.62579" lon="3.06414">
        <ele>1227</ele>
        <time>2019-12-19T00:02:57Z</time>
      </trkpt>
      <trkpt lat="44.62569" lon="3.06427">
        <ele>1228</ele>
        <time>2019-12-19T00:02:59Z</time>
      </trkpt>
      <trkpt lat="44.62562" lon="3.06444">
        <ele>1228</ele>
        <time>2019-12-19T00:03:02Z</time>
      </trkpt>
      <trkpt lat="44.62553" lon="3.06485">
        <ele>1228</ele>
        <time>2019-12-19T00:03:07Z</time>
      </trkpt>
      <trkpt lat="44.62541" lon="3.06518">
        <ele>1228</ele>
        <time>2019-12-19T00:03:12Z</time>
      </trkpt>
      <trkpt lat="44.62516" lon="3.06554">
        <ele>1228</ele>
        <time>2019-12-19T00:03:18Z</time>
      </trkpt>
      <trkpt lat="44.62496" lon="3.06589">
        <ele>1228</ele>
        <time>2019-12-19T00:03:24Z</time>
      </trkpt>
      <trkpt lat="44.62488" lon="3.06609">
        <ele>1228</ele>
        <time>2019-12-19T00:03:27Z</time>
      </trkpt>
      <trkpt lat="44.62479" lon="3.06669">
        <ele>1228</ele>
        <time>2019-12-19T00:03:35Z</time>
      </trkpt>
      <trkpt lat="44.62473" lon="3.06682">
        <ele>1228</ele>
        <time>2019-12-19T00:03:37Z</time>
      </trkpt>
      <trkpt lat="44.62465" lon="3.06691">
        <ele>1227</ele>
        <time>2019-12-19T00:03:38Z</time>
      </trkpt>
      <trkpt lat="44.62454" lon="3.06696">
        <ele>1227</ele>
        <time>2019-12-19T00:03:40Z</time>
      </trkpt>
      <trkpt lat="44.62439" lon="3.06697">
        <ele>1227</ele>
        <time>2019-12-19T00:03:43Z</time>
      </trkpt>
      <trkpt lat="44.62396" lon="3.0669">
        <ele>1228</ele>
        <time>2019-12-19T00:03:51Z</time>
      </trkpt>
      <trkpt lat="44.62381" lon="3.06692">
        <ele>1228</ele>
        <time>2019-12-19T00:03:54Z</time>
      </trkpt>
      <trkpt lat="44.62312" lon="3.0673">
        <ele>1227</ele>
        <time>2019-12-19T00:04:07Z</time>
      </trkpt>
      <trkpt lat="44.623" lon="3.06742">
        <ele>1227</ele>
        <time>2019-12-19T00:04:09Z</time>
      </trkpt>
      <trkpt lat="44.62287" lon="3.06763">
        <ele>1226</ele>
        <time>2019-12-19T00:04:13Z</time>
      </trkpt>
      <trkpt lat="44.62282" lon="3.06778">
        <ele>1225</ele>
        <time>2019-12-19T00:04:15Z</time>
      </trkpt>
      <trkpt lat="44.6228" lon="3.06795">
        <ele>1224</ele>
        <time>2019-12-19T00:04:17Z</time>
      </trkpt>
      <trkpt lat="44.62282" lon="3.06811">
        <ele>1223</ele>
        <time>2019-12-19T00:04:19Z</time>
      </trkpt>
      <trkpt lat="44.62301" lon="3.06871">
        <ele>1222</ele>
        <time>2019-12-19T00:04:28Z</time>
      </trkpt>
      <trkpt lat="44.6231" lon="3.06924">
        <ele>1221</ele>
        <time>2019-12-19T00:04:34Z</time>
      </trkpt>
      <trkpt lat="44.62315" lon="3.0694">
        <ele>1221</ele>
        <time>2019-12-19T00:04:37Z</time>
      </trkpt>
      <trkpt lat="44.62326" lon="3.06965">
        <ele>1221</ele>
        <time>2019-12-19T00:04:40Z</time>
      </trkpt>
      <trkpt lat="44.62329" lon="3.06979">
        <ele>1221</ele>
        <time>2019-12-19T00:04:42Z</time>
      </trkpt>
      <trkpt lat="44.62328" lon="3.07019">
        <ele>1222</ele>
        <time>2019-12-19T00:04:47Z</time>
      </trkpt>
      <trkpt lat="44.62326" lon="3.07029">
        <ele>1223</ele>
        <time>2019-12-19T00:04:49Z</time>
      </trkpt>
      <trkpt lat="44.62313" lon="3.07045">
        <ele>1224</ele>
        <time>2019-12-19T00:04:52Z</time>
      </trkpt>
      <trkpt lat="44.62287" lon="3.07069">
        <ele>1226</ele>
        <time>2019-12-19T00:04:57Z</time>
      </trkpt>
      <trkpt lat="44.62274" lon="3.07084">
        <ele>1227</ele>
        <time>2019-12-19T00:05:00Z</time>
      </trkpt>
      <trkpt lat="44.62267" lon="3.07099">
        <ele>1227</ele>
        <time>2019-12-19T00:05:02Z</time>
      </trkpt>
      <trkpt lat="44.6226" lon="3.07125">
        <ele>1229</ele>
        <time>2019-12-19T00:05:06Z</time>
      </trkpt>
      <trkpt lat="44.62252" lon="3.07141">
        <ele>1230</ele>
        <time>2019-12-19T00:05:08Z</time>
      </trkpt>
      <trkpt lat="44.62244" lon="3.07152">
        <ele>1230</ele>
        <time>2019-12-19T00:05:10Z</time>
      </trkpt>
      <trkpt lat="44.62229" lon="3.07163">
        <ele>1230</ele>
        <time>2019-12-19T00:05:13Z</time>
      </trkpt>
      <trkpt lat="44.62215" lon="3.0717">
        <ele>1230</ele>
        <time>2019-12-19T00:05:16Z</time>
      </trkpt>
      <trkpt lat="44.62181" lon="3.07177">
        <ele>1230</ele>
        <time>2019-12-19T00:05:22Z</time>
      </trkpt>
      <trkpt lat="44.62137" lon="3.07184">
        <ele>1231</ele>
        <time>2019-12-19T00:05:30Z</time>
      </trkpt>
      <trkpt lat="44.62105" lon="3.07184">
        <ele>1233</ele>
        <time>2019-12-19T00:05:36Z</time>
      </trkpt>
      <trkpt lat="44.62006" lon="3.0717">
        <ele>1233</ele>
        <time>2019-12-19T00:05:53Z</time>
      </trkpt>
      <trkpt lat="44.61939" lon="3.07157">
        <ele>1234</ele>
        <time>2019-12-19T00:06:06Z</time>
      </trkpt>
      <trkpt lat="44.61912" lon="3.07156">
        <ele>1234</ele>
        <time>2019-12-19T00:06:10Z</time>
      </trkpt>
      <trkpt lat="44.61866" lon="3.07148">
        <ele>1232</ele>
        <time>2019-12-19T00:06:19Z</time>
      </trkpt>
      <trkpt lat="44.61814" lon="3.07166">
        <ele>1233</ele>
        <time>2019-12-19T00:06:28Z</time>
      </trkpt>
      <trkpt lat="44.61782" lon="3.0719">
        <ele>1233</ele>
        <time>2019-12-19T00:06:35Z</time>
      </trkpt>
      <trkpt lat="44.61703" lon="3.07242">
        <ele>1234</ele>
        <time>2019-12-19T00:06:50Z</time>
      </trkpt>
      <trkpt lat="44.61686" lon="3.07258">
        <ele>1235</ele>
        <time>2019-12-19T00:06:54Z</time>
      </trkpt>
      <trkpt lat="44.61699" lon="3.07284">
        <ele>1236</ele>
        <time>2019-12-19T00:06:58Z</time>
      </trkpt>
      <trkpt lat="44.61734" lon="3.0734">
        <ele>1240</ele>
        <time>2019-12-19T00:07:07Z</time>
      </trkpt>
      <trkpt lat="44.61747" lon="3.07364">
        <ele>1242</ele>
        <time>2019-12-19T00:07:11Z</time>
      </trkpt>
      <trkpt lat="44.61752" lon="3.07385">
        <ele>1243</ele>
        <time>2019-12-19T00:07:14Z</time>
      </trkpt>
      <trkpt lat="44.61754" lon="3.07402">
        <ele>1244</ele>
        <time>2019-12-19T00:07:16Z</time>
      </trkpt>
      <trkpt lat="44.6175" lon="3.07421">
        <ele>1245</ele>
        <time>2019-12-19T00:07:19Z</time>
      </trkpt>
      <trkpt lat="44.61731" lon="3.0747">
        <ele>1246</ele>
        <time>2019-12-19T00:07:26Z</time>
      </trkpt>
      <trkpt lat="44.61721" lon="3.07486">
        <ele>1247</ele>
        <time>2019-12-19T00:07:28Z</time>
      </trkpt>
      <trkpt lat="44.61702" lon="3.07506">
        <ele>1247</ele>
        <time>2019-12-19T00:07:32Z</time>
      </trkpt>
      <trkpt lat="44.61686" lon="3.07519">
        <ele>1247</ele>
        <time>2019-12-19T00:07:36Z</time>
      </trkpt>
      <trkpt lat="44.61664" lon="3.07531">
        <ele>1248</ele>
        <time>2019-12-19T00:07:40Z</time>
      </trkpt>
      <trkpt lat="44.61643" lon="3.07553">
        <ele>1250</ele>
        <time>2019-12-19T00:07:45Z</time>
      </trkpt>
      <trkpt lat="44.61607" lon="3.07598">
        <ele>1251</ele>
        <time>2019-12-19T00:07:53Z</time>
      </trkpt>
      <trkpt lat="44.616" lon="3.07613">
        <ele>1251</ele>
        <time>2019-12-19T00:07:55Z</time>
      </trkpt>
      <trkpt lat="44.61576" lon="3.07693">
        <ele>1249</ele>
        <time>2019-12-19T00:08:06Z</time>
      </trkpt>
      <trkpt lat="44.61561" lon="3.07764">
        <ele>1248</ele>
        <time>2019-12-19T00:08:16Z</time>
      </trkpt>
      <trkpt lat="44.6154" lon="3.0784">
        <ele>1248</ele>
        <time>2019-12-19T00:08:26Z</time>
      </trkpt>
      <trkpt lat="44.61537" lon="3.07858">
        <ele>1248</ele>
        <time>2019-12-19T00:08:29Z</time>
      </trkpt>
      <trkpt lat="44.61537" lon="3.07874">
        <ele>1248</ele>
        <time>2019-12-19T00:08:31Z</time>
      </trkpt>
      <trkpt lat="44.61548" lon="3.07998">
        <ele>1246</ele>
        <time>2019-12-19T00:08:46Z</time>
      </trkpt>
      <trkpt lat="44.61569" lon="3.08155">
        <ele>1244</ele>
        <time>2019-12-19T00:09:07Z</time>
      </trkpt>
      <trkpt lat="44.61548" lon="3.07998">
        <ele>1246</ele>
        <time>2019-12-19T00:09:27Z</time>
      </trkpt>
      <trkpt lat="44.61537" lon="3.07874">
        <ele>1248</ele>
        <time>2019-12-19T00:09:43Z</time>
      </trkpt>
      <trkpt lat="44.61537" lon="3.07858">
        <ele>1248</ele>
        <time>2019-12-19T00:09:45Z</time>
      </trkpt>
      <trkpt lat="44.6154" lon="3.0784">
        <ele>1248</ele>
        <time>2019-12-19T00:09:47Z</time>
      </trkpt>
      <trkpt lat="44.61561" lon="3.07764">
        <ele>1248</ele>
        <time>2019-12-19T00:09:57Z</time>
      </trkpt>
      <trkpt lat="44.61576" lon="3.07693">
        <ele>1249</ele>
        <time>2019-12-19T00:10:07Z</time>
      </trkpt>
      <trkpt lat="44.616" lon="3.07613">
        <ele>1251</ele>
        <time>2019-12-19T00:10:18Z</time>
      </trkpt>
      <trkpt lat="44.61607" lon="3.07598">
        <ele>1251</ele>
        <time>2019-12-19T00:10:20Z</time>
      </trkpt>
      <trkpt lat="44.61643" lon="3.07553">
        <ele>1250</ele>
        <time>2019-12-19T00:10:29Z</time>
      </trkpt>
      <trkpt lat="44.61664" lon="3.07531">
        <ele>1248</ele>
        <time>2019-12-19T00:10:33Z</time>
      </trkpt>
      <trkpt lat="44.61686" lon="3.07519">
        <ele>1247</ele>
        <time>2019-12-19T00:10:37Z</time>
      </trkpt>
      <trkpt lat="44.61702" lon="3.07506">
        <ele>1247</ele>
        <time>2019-12-19T00:10:41Z</time>
      </trkpt>
      <trkpt lat="44.61721" lon="3.07486">
        <ele>1247</ele>
        <time>2019-12-19T00:10:45Z</time>
      </trkpt>
      <trkpt lat="44.61731" lon="3.0747">
        <ele>1246</ele>
        <time>2019-12-19T00:10:48Z</time>
      </trkpt>
      <trkpt lat="44.6175" lon="3.07421">
        <ele>1245</ele>
        <time>2019-12-19T00:10:55Z</time>
      </trkpt>
      <trkpt lat="44.61754" lon="3.07402">
        <ele>1244</ele>
        <time>2019-12-19T00:10:57Z</time>
      </trkpt>
      <trkpt lat="44.61752" lon="3.07385">
        <ele>1243</ele>
        <time>2019-12-19T00:10:59Z</time>
      </trkpt>
      <trkpt lat="44.61747" lon="3.07364">
        <ele>1242</ele>
        <time>2019-12-19T00:11:02Z</time>
      </trkpt>
      <trkpt lat="44.61734" lon="3.0734">
        <ele>1240</ele>
        <time>2019-12-19T00:11:06Z</time>
      </trkpt>
      <trkpt lat="44.61699" lon="3.07284">
        <ele>1236</ele>
        <time>2019-12-19T00:11:15Z</time>
      </trkpt>
      <trkpt lat="44.61686" lon="3.07258">
        <ele>1235</ele>
        <time>2019-12-19T00:11:20Z</time>
      </trkpt>
      <trkpt lat="44.61653" lon="3.07294">
        <ele>1236</ele>
        <time>2019-12-19T00:11:27Z</time>
      </trkpt>
      <trkpt lat="44.61627" lon="3.07332">
        <ele>1237</ele>
        <time>2019-12-19T00:11:34Z</time>
      </trkpt>
      <trkpt lat="44.61611" lon="3.07349">
        <ele>1238</ele>
        <time>2019-12-19T00:11:37Z</time>
      </trkpt>
      <trkpt lat="44.61594" lon="3.07357">
        <ele>1239</ele>
        <time>2019-12-19T00:11:40Z</time>
      </trkpt>
      <trkpt lat="44.61583" lon="3.07357">
        <ele>1239</ele>
        <time>2019-12-19T00:11:42Z</time>
      </trkpt>
      <trkpt lat="44.61554" lon="3.07351">
        <ele>1238</ele>
        <time>2019-12-19T00:11:48Z</time>
      </trkpt>
      <trkpt lat="44.61477" lon="3.07314">
        <ele>1237</ele>
        <time>2019-12-19T00:12:02Z</time>
      </trkpt>
      <trkpt lat="44.61448" lon="3.07304">
        <ele>1238</ele>
        <time>2019-12-19T00:12:07Z</time>
      </trkpt>
      <trkpt lat="44.61413" lon="3.07301">
        <ele>1239</ele>
        <time>2019-12-19T00:12:14Z</time>
      </trkpt>
      <trkpt lat="44.61381" lon="3.07307">
        <ele>1240</ele>
        <time>2019-12-19T00:12:19Z</time>
      </trkpt>
      <trkpt lat="44.6137" lon="3.07306">
        <ele>1241</ele>
        <time>2019-12-19T00:12:21Z</time>
      </trkpt>
      <trkpt lat="44.61357" lon="3.07301">
        <ele>1241</ele>
        <time>2019-12-19T00:12:24Z</time>
      </trkpt>
      <trkpt lat="44.6134" lon="3.07285">
        <ele>1240</ele>
        <time>2019-12-19T00:12:27Z</time>
      </trkpt>
      <trkpt lat="44.61321" lon="3.07252">
        <ele>1237</ele>
        <time>2019-12-19T00:12:33Z</time>
      </trkpt>
      <trkpt lat="44.61315" lon="3.07246">
        <ele>1237</ele>
        <time>2019-12-19T00:12:34Z</time>
      </trkpt>
      <trkpt lat="44.61308" lon="3.07242">
        <ele>1237</ele>
        <time>2019-12-19T00:12:35Z</time>
      </trkpt>
      <trkpt lat="44.613" lon="3.07242">
        <ele>1237</ele>
        <time>2019-12-19T00:12:37Z</time>
      </trkpt>
      <trkpt lat="44.61292" lon="3.07245">
        <ele>1237</ele>
        <time>2019-12-19T00:12:38Z</time>
      </trkpt>
      <trkpt lat="44.61272" lon="3.07257">
        <ele>1238</ele>
        <time>2019-12-19T00:12:42Z</time>
      </trkpt>
      <trkpt lat="44.61178" lon="3.07322">
        <ele>1243</ele>
        <time>2019-12-19T00:13:01Z</time>
      </trkpt>
      <trkpt lat="44.61164" lon="3.07336">
        <ele>1243</ele>
        <time>2019-12-19T00:13:04Z</time>
      </trkpt>
      <trkpt lat="44.6112" lon="3.074">
        <ele>1243</ele>
        <time>2019-12-19T00:13:15Z</time>
      </trkpt>
      <trkpt lat="44.61099" lon="3.07415">
        <ele>1243</ele>
        <time>2019-12-19T00:13:19Z</time>
      </trkpt>
      <trkpt lat="44.61042" lon="3.07432">
        <ele>1242</ele>
        <time>2019-12-19T00:13:30Z</time>
      </trkpt>
      <trkpt lat="44.61028" lon="3.07439">
        <ele>1242</ele>
        <time>2019-12-19T00:13:32Z</time>
      </trkpt>
      <trkpt lat="44.6102" lon="3.07448">
        <ele>1242</ele>
        <time>2019-12-19T00:13:34Z</time>
      </trkpt>
      <trkpt lat="44.61012" lon="3.07459">
        <ele>1243</ele>
        <time>2019-12-19T00:13:36Z</time>
      </trkpt>
      <trkpt lat="44.61001" lon="3.07486">
        <ele>1244</ele>
        <time>2019-12-19T00:13:40Z</time>
      </trkpt>
      <trkpt lat="44.60965" lon="3.0759">
        <ele>1245</ele>
        <time>2019-12-19T00:13:55Z</time>
      </trkpt>
      <trkpt lat="44.60935" lon="3.0766">
        <ele>1244</ele>
        <time>2019-12-19T00:14:05Z</time>
      </trkpt>
      <trkpt lat="44.60924" lon="3.07682">
        <ele>1244</ele>
        <time>2019-12-19T00:14:08Z</time>
      </trkpt>
      <trkpt lat="44.6085" lon="3.07831">
        <ele>1248</ele>
        <time>2019-12-19T00:14:31Z</time>
      </trkpt>
      <trkpt lat="44.60841" lon="3.07851">
        <ele>1249</ele>
        <time>2019-12-19T00:14:34Z</time>
      </trkpt>
      <trkpt lat="44.60825" lon="3.07949">
        <ele>1251</ele>
        <time>2019-12-19T00:14:47Z</time>
      </trkpt>
      <trkpt lat="44.60817" lon="3.07976">
        <ele>1252</ele>
        <time>2019-12-19T00:14:51Z</time>
      </trkpt>
      <trkpt lat="44.60801" lon="3.08017">
        <ele>1252</ele>
        <time>2019-12-19T00:14:57Z</time>
      </trkpt>
      <trkpt lat="44.60777" lon="3.08092">
        <ele>1252</ele>
        <time>2019-12-19T00:15:07Z</time>
      </trkpt>
      <trkpt lat="44.60771" lon="3.08106">
        <ele>1253</ele>
        <time>2019-12-19T00:15:09Z</time>
      </trkpt>
      <trkpt lat="44.60758" lon="3.08121">
        <ele>1254</ele>
        <time>2019-12-19T00:15:12Z</time>
      </trkpt>
      <trkpt lat="44.60751" lon="3.08126">
        <ele>1254</ele>
        <time>2019-12-19T00:15:14Z</time>
      </trkpt>
      <trkpt lat="44.60733" lon="3.0813">
        <ele>1254</ele>
        <time>2019-12-19T00:15:17Z</time>
      </trkpt>
      <trkpt lat="44.60669" lon="3.08123">
        <ele>1253</ele>
        <time>2019-12-19T00:15:28Z</time>
      </trkpt>
      <trkpt lat="44.60645" lon="3.08127">
        <ele>1253</ele>
        <time>2019-12-19T00:15:33Z</time>
      </trkpt>
      <trkpt lat="44.6059" lon="3.08154">
        <ele>1253</ele>
        <time>2019-12-19T00:15:43Z</time>
      </trkpt>
      <trkpt lat="44.60554" lon="3.08178">
        <ele>1253</ele>
        <time>2019-12-19T00:15:50Z</time>
      </trkpt>
      <trkpt lat="44.60542" lon="3.08189">
        <ele>1253</ele>
        <time>2019-12-19T00:15:53Z</time>
      </trkpt>
      <trkpt lat="44.60536" lon="3.08198">
        <ele>1252</ele>
        <time>2019-12-19T00:15:54Z</time>
      </trkpt>
      <trkpt lat="44.60532" lon="3.08211">
        <ele>1252</ele>
        <time>2019-12-19T00:15:56Z</time>
      </trkpt>
      <trkpt lat="44.60531" lon="3.08222">
        <ele>1252</ele>
        <time>2019-12-19T00:15:57Z</time>
      </trkpt>
      <trkpt lat="44.60532" lon="3.08233">
        <ele>1253</ele>
        <time>2019-12-19T00:15:59Z</time>
      </trkpt>
      <trkpt lat="44.60556" lon="3.08326">
        <ele>1255</ele>
        <time>2019-12-19T00:16:11Z</time>
      </trkpt>
      <trkpt lat="44.60557" lon="3.08346">
        <ele>1256</ele>
        <time>2019-12-19T00:16:14Z</time>
      </trkpt>
      <trkpt lat="44.60553" lon="3.08367">
        <ele>1256</ele>
        <time>2019-12-19T00:16:17Z</time>
      </trkpt>
      <trkpt lat="44.60545" lon="3.08387">
        <ele>1257</ele>
        <time>2019-12-19T00:16:20Z</time>
      </trkpt>
      <trkpt lat="44.60537" lon="3.08398">
        <ele>1257</ele>
        <time>2019-12-19T00:16:22Z</time>
      </trkpt>
      <trkpt lat="44.60528" lon="3.08405">
        <ele>1257</ele>
        <time>2019-12-19T00:16:23Z</time>
      </trkpt>
      <trkpt lat="44.60515" lon="3.08409">
        <ele>1256</ele>
        <time>2019-12-19T00:16:26Z</time>
      </trkpt>
      <trkpt lat="44.60492" lon="3.08408">
        <ele>1255</ele>
        <time>2019-12-19T00:16:30Z</time>
      </trkpt>
      <trkpt lat="44.6048" lon="3.08411">
        <ele>1255</ele>
        <time>2019-12-19T00:16:32Z</time>
      </trkpt>
      <trkpt lat="44.6047" lon="3.0842">
        <ele>1255</ele>
        <time>2019-12-19T00:16:34Z</time>
      </trkpt>
      <trkpt lat="44.60463" lon="3.08433">
        <ele>1254</ele>
        <time>2019-12-19T00:16:36Z</time>
      </trkpt>
      <trkpt lat="44.60464" lon="3.0845">
        <ele>1254</ele>
        <time>2019-12-19T00:16:38Z</time>
      </trkpt>
      <trkpt lat="44.60468" lon="3.08463">
        <ele>1254</ele>
        <time>2019-12-19T00:16:40Z</time>
      </trkpt>
      <trkpt lat="44.60481" lon="3.08484">
        <ele>1255</ele>
        <time>2019-12-19T00:16:44Z</time>
      </trkpt>
      <trkpt lat="44.60507" lon="3.08516">
        <ele>1256</ele>
        <time>2019-12-19T00:16:50Z</time>
      </trkpt>
      <trkpt lat="44.60542" lon="3.08551">
        <ele>1257</ele>
        <time>2019-12-19T00:16:57Z</time>
      </trkpt>
      <trkpt lat="44.60577" lon="3.08581">
        <ele>1259</ele>
        <time>2019-12-19T00:17:05Z</time>
      </trkpt>
      <trkpt lat="44.60596" lon="3.08604">
        <ele>1259</ele>
        <time>2019-12-19T00:17:09Z</time>
      </trkpt>
      <trkpt lat="44.60606" lon="3.08618">
        <ele>1259</ele>
        <time>2019-12-19T00:17:12Z</time>
      </trkpt>
      <trkpt lat="44.60613" lon="3.08632">
        <ele>1258</ele>
        <time>2019-12-19T00:17:14Z</time>
      </trkpt>
      <trkpt lat="44.60618" lon="3.08652">
        <ele>1257</ele>
        <time>2019-12-19T00:17:17Z</time>
      </trkpt>
      <trkpt lat="44.6062" lon="3.08674">
        <ele>1256</ele>
        <time>2019-12-19T00:17:19Z</time>
      </trkpt>
      <trkpt lat="44.60619" lon="3.08697">
        <ele>1256</ele>
        <time>2019-12-19T00:17:22Z</time>
      </trkpt>
      <trkpt lat="44.60615" lon="3.08721">
        <ele>1255</ele>
        <time>2019-12-19T00:17:25Z</time>
      </trkpt>
      <trkpt lat="44.60608" lon="3.08741">
        <ele>1254</ele>
        <time>2019-12-19T00:17:28Z</time>
      </trkpt>
      <trkpt lat="44.60598" lon="3.08759">
        <ele>1254</ele>
        <time>2019-12-19T00:17:31Z</time>
      </trkpt>
      <trkpt lat="44.60587" lon="3.08768">
        <ele>1253</ele>
        <time>2019-12-19T00:17:33Z</time>
      </trkpt>
      <trkpt lat="44.60573" lon="3.08778">
        <ele>1254</ele>
        <time>2019-12-19T00:17:36Z</time>
      </trkpt>
      <trkpt lat="44.60507" lon="3.08798">
        <ele>1254</ele>
        <time>2019-12-19T00:17:48Z</time>
      </trkpt>
      <trkpt lat="44.60494" lon="3.08808">
        <ele>1254</ele>
        <time>2019-12-19T00:17:51Z</time>
      </trkpt>
      <trkpt lat="44.60472" lon="3.0883">
        <ele>1256</ele>
        <time>2019-12-19T00:17:56Z</time>
      </trkpt>
      <trkpt lat="44.60461" lon="3.08837">
        <ele>1256</ele>
        <time>2019-12-19T00:17:58Z</time>
      </trkpt>
      <trkpt lat="44.60448" lon="3.08849">
        <ele>1257</ele>
        <time>2019-12-19T00:18:01Z</time>
      </trkpt>
      <trkpt lat="44.6035" lon="3.08955">
        <ele>1261</ele>
        <time>2019-12-19T00:18:23Z</time>
      </trkpt>
      <trkpt lat="44.60338" lon="3.08965">
        <ele>1261</ele>
        <time>2019-12-19T00:18:25Z</time>
      </trkpt>
      <trkpt lat="44.60296" lon="3.08987">
        <ele>1262</ele>
        <time>2019-12-19T00:18:33Z</time>
      </trkpt>
      <trkpt lat="44.60277" lon="3.09013">
        <ele>1264</ele>
        <time>2019-12-19T00:18:38Z</time>
      </trkpt>
      <trkpt lat="44.60271" lon="3.09027">
        <ele>1264</ele>
        <time>2019-12-19T00:18:40Z</time>
      </trkpt>
      <trkpt lat="44.60257" lon="3.09083">
        <ele>1266</ele>
        <time>2019-12-19T00:18:47Z</time>
      </trkpt>
      <trkpt lat="44.6024" lon="3.09137">
        <ele>1269</ele>
        <time>2019-12-19T00:18:55Z</time>
      </trkpt>
      <trkpt lat="44.60233" lon="3.09153">
        <ele>1270</ele>
        <time>2019-12-19T00:18:57Z</time>
      </trkpt>
      <trkpt lat="44.60218" lon="3.09172">
        <ele>1271</ele>
        <time>2019-12-19T00:19:01Z</time>
      </trkpt>
      <trkpt lat="44.60094" lon="3.09259">
        <ele>1275</ele>
        <time>2019-12-19T00:19:25Z</time>
      </trkpt>
      <trkpt lat="44.60053" lon="3.09282">
        <ele>1277</ele>
        <time>2019-12-19T00:19:33Z</time>
      </trkpt>
      <trkpt lat="44.60032" lon="3.09289">
        <ele>1278</ele>
        <time>2019-12-19T00:19:37Z</time>
      </trkpt>
      <trkpt lat="44.60022" lon="3.09288">
        <ele>1279</ele>
        <time>2019-12-19T00:19:39Z</time>
      </trkpt>
      <trkpt lat="44.59975" lon="3.0927">
        <ele>1281</ele>
        <time>2019-12-19T00:19:48Z</time>
      </trkpt>
      <trkpt lat="44.59961" lon="3.09269">
        <ele>1281</ele>
        <time>2019-12-19T00:19:50Z</time>
      </trkpt>
      <trkpt lat="44.59953" lon="3.09272">
        <ele>1282</ele>
        <time>2019-12-19T00:19:52Z</time>
      </trkpt>
      <trkpt lat="44.59917" lon="3.09304">
        <ele>1284</ele>
        <time>2019-12-19T00:19:59Z</time>
      </trkpt>
      <trkpt lat="44.5989" lon="3.09325">
        <ele>1284</ele>
        <time>2019-12-19T00:20:05Z</time>
      </trkpt>
      <trkpt lat="44.59871" lon="3.09335">
        <ele>1284</ele>
        <time>2019-12-19T00:20:08Z</time>
      </trkpt>
      <trkpt lat="44.59858" lon="3.09338">
        <ele>1284</ele>
        <time>2019-12-19T00:20:11Z</time>
      </trkpt>
      <trkpt lat="44.59821" lon="3.09337">
        <ele>1286</ele>
        <time>2019-12-19T00:20:17Z</time>
      </trkpt>
      <trkpt lat="44.5981" lon="3.0934">
        <ele>1287</ele>
        <time>2019-12-19T00:20:19Z</time>
      </trkpt>
      <trkpt lat="44.59797" lon="3.09348">
        <ele>1288</ele>
        <time>2019-12-19T00:20:22Z</time>
      </trkpt>
      <trkpt lat="44.59785" lon="3.0936">
        <ele>1288</ele>
        <time>2019-12-19T00:20:24Z</time>
      </trkpt>
      <trkpt lat="44.59777" lon="3.09374">
        <ele>1289</ele>
        <time>2019-12-19T00:20:27Z</time>
      </trkpt>
      <trkpt lat="44.59771" lon="3.0939">
        <ele>1289</ele>
        <time>2019-12-19T00:20:29Z</time>
      </trkpt>
      <trkpt lat="44.59767" lon="3.09425">
        <ele>1288</ele>
        <time>2019-12-19T00:20:33Z</time>
      </trkpt>
      <trkpt lat="44.59766" lon="3.09514">
        <ele>1293</ele>
        <time>2019-12-19T00:20:45Z</time>
      </trkpt>
      <trkpt lat="44.59764" lon="3.09547">
        <ele>1295</ele>
        <time>2019-12-19T00:20:49Z</time>
      </trkpt>
      <trkpt lat="44.59761" lon="3.09568">
        <ele>1296</ele>
        <time>2019-12-19T00:20:52Z</time>
      </trkpt>
      <trkpt lat="44.59747" lon="3.09626">
        <ele>1301</ele>
        <time>2019-12-19T00:20:59Z</time>
      </trkpt>
      <trkpt lat="44.59737" lon="3.09651">
        <ele>1301</ele>
        <time>2019-12-19T00:21:03Z</time>
      </trkpt>
      <trkpt lat="44.59724" lon="3.09671">
        <ele>1302</ele>
        <time>2019-12-19T00:21:06Z</time>
      </trkpt>
      <trkpt lat="44.59708" lon="3.09685">
        <ele>1301</ele>
        <time>2019-12-19T00:21:10Z</time>
      </trkpt>
      <trkpt lat="44.59695" lon="3.0969">
        <ele>1301</ele>
        <time>2019-12-19T00:21:12Z</time>
      </trkpt>
      <trkpt lat="44.59684" lon="3.0969">
        <ele>1301</ele>
        <time>2019-12-19T00:21:14Z</time>
      </trkpt>
      <trkpt lat="44.59673" lon="3.09687">
        <ele>1302</ele>
        <time>2019-12-19T00:21:16Z</time>
      </trkpt>
      <trkpt lat="44.59664" lon="3.0968">
        <ele>1303</ele>
        <time>2019-12-19T00:21:18Z</time>
      </trkpt>
      <trkpt lat="44.5965" lon="3.09659">
        <ele>1303</ele>
        <time>2019-12-19T00:21:22Z</time>
      </trkpt>
      <trkpt lat="44.59635" lon="3.09632">
        <ele>1303</ele>
        <time>2019-12-19T00:21:26Z</time>
      </trkpt>
      <trkpt lat="44.59623" lon="3.09625">
        <ele>1303</ele>
        <time>2019-12-19T00:21:28Z</time>
      </trkpt>
      <trkpt lat="44.59559" lon="3.0961">
        <ele>1303</ele>
        <time>2019-12-19T00:21:40Z</time>
      </trkpt>
      <trkpt lat="44.59509" lon="3.09588">
        <ele>1306</ele>
        <time>2019-12-19T00:21:49Z</time>
      </trkpt>
      <trkpt lat="44.59491" lon="3.09585">
        <ele>1307</ele>
        <time>2019-12-19T00:21:52Z</time>
      </trkpt>
      <trkpt lat="44.59476" lon="3.09585">
        <ele>1308</ele>
        <time>2019-12-19T00:21:55Z</time>
      </trkpt>
      <trkpt lat="44.59465" lon="3.09588">
        <ele>1308</ele>
        <time>2019-12-19T00:21:57Z</time>
      </trkpt>
      <trkpt lat="44.59385" lon="3.09643">
        <ele>1314</ele>
        <time>2019-12-19T00:22:13Z</time>
      </trkpt>
      <trkpt lat="44.59359" lon="3.09662">
        <ele>1316</ele>
        <time>2019-12-19T00:22:18Z</time>
      </trkpt>
      <trkpt lat="44.59328" lon="3.09678">
        <ele>1317</ele>
        <time>2019-12-19T00:22:24Z</time>
      </trkpt>
      <trkpt lat="44.59315" lon="3.09688">
        <ele>1317</ele>
        <time>2019-12-19T00:22:27Z</time>
      </trkpt>
      <trkpt lat="44.59276" lon="3.0973">
        <ele>1317</ele>
        <time>2019-12-19T00:22:35Z</time>
      </trkpt>
      <trkpt lat="44.59264" lon="3.09737">
        <ele>1318</ele>
        <time>2019-12-19T00:22:38Z</time>
      </trkpt>
      <trkpt lat="44.59248" lon="3.0974">
        <ele>1319</ele>
        <time>2019-12-19T00:22:41Z</time>
      </trkpt>
      <trkpt lat="44.59206" lon="3.0974">
        <ele>1321</ele>
        <time>2019-12-19T00:22:48Z</time>
      </trkpt>
      <trkpt lat="44.59174" lon="3.09748">
        <ele>1322</ele>
        <time>2019-12-19T00:22:54Z</time>
      </trkpt>
      <trkpt lat="44.59164" lon="3.09753">
        <ele>1322</ele>
        <time>2019-12-19T00:22:56Z</time>
      </trkpt>
      <trkpt lat="44.59155" lon="3.0976">
        <ele>1322</ele>
        <time>2019-12-19T00:22:57Z</time>
      </trkpt>
      <trkpt lat="44.59144" lon="3.09773">
        <ele>1323</ele>
        <time>2019-12-19T00:23:00Z</time>
      </trkpt>
      <trkpt lat="44.59116" lon="3.09812">
        <ele>1323</ele>
        <time>2019-12-19T00:23:07Z</time>
      </trkpt>
      <trkpt lat="44.591" lon="3.09825">
        <ele>1324</ele>
        <time>2019-12-19T00:23:10Z</time>
      </trkpt>
      <trkpt lat="44.59058" lon="3.09848">
        <ele>1323</ele>
        <time>2019-12-19T00:23:18Z</time>
      </trkpt>
      <trkpt lat="44.59032" lon="3.09866">
        <ele>1321</ele>
        <time>2019-12-19T00:23:24Z</time>
      </trkpt>
      <trkpt lat="44.59018" lon="3.0988">
        <ele>1319</ele>
        <time>2019-12-19T00:23:27Z</time>
      </trkpt>
      <trkpt lat="44.59013" lon="3.0989">
        <ele>1318</ele>
        <time>2019-12-19T00:23:28Z</time>
      </trkpt>
      <trkpt lat="44.59008" lon="3.09907">
        <ele>1316</ele>
        <time>2019-12-19T00:23:30Z</time>
      </trkpt>
      <trkpt lat="44.59004" lon="3.09945">
        <ele>1312</ele>
        <time>2019-12-19T00:23:35Z</time>
      </trkpt>
      <trkpt lat="44.59005" lon="3.09963">
        <ele>1311</ele>
        <time>2019-12-19T00:23:38Z</time>
      </trkpt>
      <trkpt lat="44.59027" lon="3.10056">
        <ele>1307</ele>
        <time>2019-12-19T00:23:50Z</time>
      </trkpt>
      <trkpt lat="44.59052" lon="3.10106">
        <ele>1305</ele>
        <time>2019-12-19T00:23:58Z</time>
      </trkpt>
      <trkpt lat="44.5906" lon="3.10127">
        <ele>1304</ele>
        <time>2019-12-19T00:24:01Z</time>
      </trkpt>
      <trkpt lat="44.59065" lon="3.10211">
        <ele>1296</ele>
        <time>2019-12-19T00:24:11Z</time>
      </trkpt>
      <trkpt lat="44.59063" lon="3.10222">
        <ele>1295</ele>
        <time>2019-12-19T00:24:13Z</time>
      </trkpt>
      <trkpt lat="44.59061" lon="3.10229">
        <ele>1294</ele>
        <time>2019-12-19T00:24:14Z</time>
      </trkpt>
      <trkpt lat="44.59053" lon="3.10237">
        <ele>1293</ele>
        <time>2019-12-19T00:24:16Z</time>
      </trkpt>
      <trkpt lat="44.59045" lon="3.1024">
        <ele>1293</ele>
        <time>2019-12-19T00:24:17Z</time>
      </trkpt>
      <trkpt lat="44.58951" lon="3.10247">
        <ele>1291</ele>
        <time>2019-12-19T00:24:34Z</time>
      </trkpt>
      <trkpt lat="44.58921" lon="3.10258">
        <ele>1290</ele>
        <time>2019-12-19T00:24:39Z</time>
      </trkpt>
      <trkpt lat="44.58832" lon="3.10322">
        <ele>1286</ele>
        <time>2019-12-19T00:24:57Z</time>
      </trkpt>
      <trkpt lat="44.58803" lon="3.10348">
        <ele>1285</ele>
        <time>2019-12-19T00:25:03Z</time>
      </trkpt>
      <trkpt lat="44.58787" lon="3.10369">
        <ele>1284</ele>
        <time>2019-12-19T00:25:07Z</time>
      </trkpt>
      <trkpt lat="44.58773" lon="3.10392">
        <ele>1283</ele>
        <time>2019-12-19T00:25:11Z</time>
      </trkpt>
      <trkpt lat="44.58767" lon="3.10407">
        <ele>1283</ele>
        <time>2019-12-19T00:25:13Z</time>
      </trkpt>
      <trkpt lat="44.58755" lon="3.10478">
        <ele>1279</ele>
        <time>2019-12-19T00:25:22Z</time>
      </trkpt>
      <trkpt lat="44.58747" lon="3.10511">
        <ele>1278</ele>
        <time>2019-12-19T00:25:27Z</time>
      </trkpt>
      <trkpt lat="44.58736" lon="3.10528">
        <ele>1277</ele>
        <time>2019-12-19T00:25:30Z</time>
      </trkpt>
      <trkpt lat="44.58622" lon="3.10636">
        <ele>1282</ele>
        <time>2019-12-19T00:25:54Z</time>
      </trkpt>
      <trkpt lat="44.58606" lon="3.10649">
        <ele>1283</ele>
        <time>2019-12-19T00:25:58Z</time>
      </trkpt>
      <trkpt lat="44.58521" lon="3.10691">
        <ele>1286</ele>
        <time>2019-12-19T00:26:14Z</time>
      </trkpt>
      <trkpt lat="44.58504" lon="3.10702">
        <ele>1287</ele>
        <time>2019-12-19T00:26:17Z</time>
      </trkpt>
      <trkpt lat="44.58486" lon="3.10716">
        <ele>1287</ele>
        <time>2019-12-19T00:26:21Z</time>
      </trkpt>
      <trkpt lat="44.58471" lon="3.10732">
        <ele>1287</ele>
        <time>2019-12-19T00:26:24Z</time>
      </trkpt>
      <trkpt lat="44.58455" lon="3.10754">
        <ele>1288</ele>
        <time>2019-12-19T00:26:28Z</time>
      </trkpt>
      <trkpt lat="44.58384" lon="3.10866">
        <ele>1289</ele>
        <time>2019-12-19T00:26:47Z</time>
      </trkpt>
      <trkpt lat="44.58373" lon="3.10887">
        <ele>1289</ele>
        <time>2019-12-19T00:26:50Z</time>
      </trkpt>
      <trkpt lat="44.58364" lon="3.10914">
        <ele>1290</ele>
        <time>2019-12-19T00:26:54Z</time>
      </trkpt>
      <trkpt lat="44.58358" lon="3.10936">
        <ele>1290</ele>
        <time>2019-12-19T00:26:57Z</time>
      </trkpt>
      <trkpt lat="44.58351" lon="3.10982">
        <ele>1292</ele>
        <time>2019-12-19T00:27:03Z</time>
      </trkpt>
      <trkpt lat="44.58341" lon="3.11058">
        <ele>1293</ele>
        <time>2019-12-19T00:27:13Z</time>
      </trkpt>
      <trkpt lat="44.58338" lon="3.11121">
        <ele>1292</ele>
        <time>2019-12-19T00:27:21Z</time>
      </trkpt>
      <trkpt lat="44.58338" lon="3.11135">
        <ele>1292</ele>
        <time>2019-12-19T00:27:22Z</time>
      </trkpt>
      <trkpt lat="44.58354" lon="3.11205">
        <ele>1294</ele>
        <time>2019-12-19T00:27:32Z</time>
      </trkpt>
      <trkpt lat="44.58357" lon="3.11234">
        <ele>1294</ele>
        <time>2019-12-19T00:27:36Z</time>
      </trkpt>
      <trkpt lat="44.58356" lon="3.11247">
        <ele>1294</ele>
        <time>2019-12-19T00:27:37Z</time>
      </trkpt>
      <trkpt lat="44.58349" lon="3.11268">
        <ele>1294</ele>
        <time>2019-12-19T00:27:40Z</time>
      </trkpt>
      <trkpt lat="44.58342" lon="3.11277">
        <ele>1294</ele>
        <time>2019-12-19T00:27:42Z</time>
      </trkpt>
      <trkpt lat="44.58246" lon="3.11363">
        <ele>1298</ele>
        <time>2019-12-19T00:28:02Z</time>
      </trkpt>
      <trkpt lat="44.58226" lon="3.11379">
        <ele>1301</ele>
        <time>2019-12-19T00:28:06Z</time>
      </trkpt>
      <trkpt lat="44.58217" lon="3.11383">
        <ele>1301</ele>
        <time>2019-12-19T00:28:08Z</time>
      </trkpt>
      <trkpt lat="44.58208" lon="3.11384">
        <ele>1302</ele>
        <time>2019-12-19T00:28:09Z</time>
      </trkpt>
      <trkpt lat="44.58197" lon="3.11381">
        <ele>1302</ele>
        <time>2019-12-19T00:28:11Z</time>
      </trkpt>
      <trkpt lat="44.58188" lon="3.11374">
        <ele>1302</ele>
        <time>2019-12-19T00:28:13Z</time>
      </trkpt>
      <trkpt lat="44.58179" lon="3.11364">
        <ele>1302</ele>
        <time>2019-12-19T00:28:15Z</time>
      </trkpt>
      <trkpt lat="44.58119" lon="3.11276">
        <ele>1306</ele>
        <time>2019-12-19T00:28:31Z</time>
      </trkpt>
      <trkpt lat="44.58104" lon="3.11259">
        <ele>1307</ele>
        <time>2019-12-19T00:28:34Z</time>
      </trkpt>
      <trkpt lat="44.58068" lon="3.11245">
        <ele>1311</ele>
        <time>2019-12-19T00:28:41Z</time>
      </trkpt>
      <trkpt lat="44.58052" lon="3.11235">
        <ele>1312</ele>
        <time>2019-12-19T00:28:44Z</time>
      </trkpt>
      <trkpt lat="44.58039" lon="3.11224">
        <ele>1312</ele>
        <time>2019-12-19T00:28:47Z</time>
      </trkpt>
      <trkpt lat="44.58022" lon="3.11215">
        <ele>1313</ele>
        <time>2019-12-19T00:28:50Z</time>
      </trkpt>
      <trkpt lat="44.57999" lon="3.1121">
        <ele>1315</ele>
        <time>2019-12-19T00:28:54Z</time>
      </trkpt>
      <trkpt lat="44.5799" lon="3.11213">
        <ele>1316</ele>
        <time>2019-12-19T00:28:56Z</time>
      </trkpt>
      <trkpt lat="44.5798" lon="3.11223">
        <ele>1318</ele>
        <time>2019-12-19T00:28:58Z</time>
      </trkpt>
      <trkpt lat="44.57978" lon="3.11232">
        <ele>1319</ele>
        <time>2019-12-19T00:28:59Z</time>
      </trkpt>
      <trkpt lat="44.57978" lon="3.11311">
        <ele>1323</ele>
        <time>2019-12-19T00:29:09Z</time>
      </trkpt>
      <trkpt lat="44.57973" lon="3.11349">
        <ele>1324</ele>
        <time>2019-12-19T00:29:14Z</time>
      </trkpt>
      <trkpt lat="44.57968" lon="3.11365">
        <ele>1325</ele>
        <time>2019-12-19T00:29:16Z</time>
      </trkpt>
      <trkpt lat="44.57949" lon="3.114">
        <ele>1326</ele>
        <time>2019-12-19T00:29:22Z</time>
      </trkpt>
      <trkpt lat="44.57931" lon="3.11424">
        <ele>1327</ele>
        <time>2019-12-19T00:29:26Z</time>
      </trkpt>
      <trkpt lat="44.57904" lon="3.11448">
        <ele>1328</ele>
        <time>2019-12-19T00:29:32Z</time>
      </trkpt>
      <trkpt lat="44.57885" lon="3.11458">
        <ele>1329</ele>
        <time>2019-12-19T00:29:35Z</time>
      </trkpt>
      <trkpt lat="44.5787" lon="3.11464">
        <ele>1329</ele>
        <time>2019-12-19T00:29:38Z</time>
      </trkpt>
      <trkpt lat="44.57852" lon="3.11467">
        <ele>1330</ele>
        <time>2019-12-19T00:29:41Z</time>
      </trkpt>
      <trkpt lat="44.57835" lon="3.11467">
        <ele>1331</ele>
        <time>2019-12-19T00:29:44Z</time>
      </trkpt>
      <trkpt lat="44.57744" lon="3.11451">
        <ele>1331</ele>
        <time>2019-12-19T00:30:01Z</time>
      </trkpt>
      <trkpt lat="44.57714" lon="3.11444">
        <ele>1330</ele>
        <time>2019-12-19T00:30:06Z</time>
      </trkpt>
      <trkpt lat="44.57695" lon="3.11434">
        <ele>1330</ele>
        <time>2019-12-19T00:30:10Z</time>
      </trkpt>
      <trkpt lat="44.57637" lon="3.11373">
        <ele>1333</ele>
        <time>2019-12-19T00:30:23Z</time>
      </trkpt>
      <trkpt lat="44.57628" lon="3.11367">
        <ele>1333</ele>
        <time>2019-12-19T00:30:24Z</time>
      </trkpt>
      <trkpt lat="44.57615" lon="3.11365">
        <ele>1333</ele>
        <time>2019-12-19T00:30:27Z</time>
      </trkpt>
      <trkpt lat="44.576" lon="3.11367">
        <ele>1333</ele>
        <time>2019-12-19T00:30:29Z</time>
      </trkpt>
      <trkpt lat="44.57585" lon="3.11373">
        <ele>1332</ele>
        <time>2019-12-19T00:30:32Z</time>
      </trkpt>
      <trkpt lat="44.57556" lon="3.11394">
        <ele>1333</ele>
        <time>2019-12-19T00:30:38Z</time>
      </trkpt>
      <trkpt lat="44.57537" lon="3.11414">
        <ele>1334</ele>
        <time>2019-12-19T00:30:42Z</time>
      </trkpt>
      <trkpt lat="44.57523" lon="3.11433">
        <ele>1333</ele>
        <time>2019-12-19T00:30:46Z</time>
      </trkpt>
      <trkpt lat="44.57482" lon="3.11509">
        <ele>1330</ele>
        <time>2019-12-19T00:30:58Z</time>
      </trkpt>
      <trkpt lat="44.57473" lon="3.1152">
        <ele>1329</ele>
        <time>2019-12-19T00:31:00Z</time>
      </trkpt>
      <trkpt lat="44.57429" lon="3.11534">
        <ele>1330</ele>
        <time>2019-12-19T00:31:08Z</time>
      </trkpt>
      <trkpt lat="44.57413" lon="3.11541">
        <ele>1330</ele>
        <time>2019-12-19T00:31:11Z</time>
      </trkpt>
      <trkpt lat="44.574" lon="3.11551">
        <ele>1330</ele>
        <time>2019-12-19T00:31:14Z</time>
      </trkpt>
      <trkpt lat="44.57382" lon="3.11573">
        <ele>1329</ele>
        <time>2019-12-19T00:31:18Z</time>
      </trkpt>
      <trkpt lat="44.57367" lon="3.11585">
        <ele>1329</ele>
        <time>2019-12-19T00:31:21Z</time>
      </trkpt>
      <trkpt lat="44.57356" lon="3.11591">
        <ele>1329</ele>
        <time>2019-12-19T00:31:23Z</time>
      </trkpt>
      <trkpt lat="44.57305" lon="3.11611">
        <ele>1329</ele>
        <time>2019-12-19T00:31:32Z</time>
      </trkpt>
      <trkpt lat="44.57291" lon="3.1162">
        <ele>1328</ele>
        <time>2019-12-19T00:31:35Z</time>
      </trkpt>
      <trkpt lat="44.572" lon="3.11694">
        <ele>1327</ele>
        <time>2019-12-19T00:31:54Z</time>
      </trkpt>
      <trkpt lat="44.57157" lon="3.11726">
        <ele>1328</ele>
        <time>2019-12-19T00:32:03Z</time>
      </trkpt>
      <trkpt lat="44.57142" lon="3.1174">
        <ele>1328</ele>
        <time>2019-12-19T00:32:06Z</time>
      </trkpt>
      <trkpt lat="44.57138" lon="3.11747">
        <ele>1328</ele>
        <time>2019-12-19T00:32:07Z</time>
      </trkpt>
      <trkpt lat="44.57136" lon="3.11756">
        <ele>1328</ele>
        <time>2019-12-19T00:32:08Z</time>
      </trkpt>
      <trkpt lat="44.57139" lon="3.11778">
        <ele>1328</ele>
        <time>2019-12-19T00:32:11Z</time>
      </trkpt>
      <trkpt lat="44.57159" lon="3.11827">
        <ele>1327</ele>
        <time>2019-12-19T00:32:18Z</time>
      </trkpt>
      <trkpt lat="44.57171" lon="3.11865">
        <ele>1327</ele>
        <time>2019-12-19T00:32:23Z</time>
      </trkpt>
      <trkpt lat="44.57176" lon="3.11891">
        <ele>1327</ele>
        <time>2019-12-19T00:32:27Z</time>
      </trkpt>
      <trkpt lat="44.57183" lon="3.11954">
        <ele>1328</ele>
        <time>2019-12-19T00:32:35Z</time>
      </trkpt>
      <trkpt lat="44.5719" lon="3.12005">
        <ele>1329</ele>
        <time>2019-12-19T00:32:41Z</time>
      </trkpt>
      <trkpt lat="44.57196" lon="3.12058">
        <ele>1330</ele>
        <time>2019-12-19T00:32:48Z</time>
      </trkpt>
      <trkpt lat="44.57196" lon="3.12078">
        <ele>1330</ele>
        <time>2019-12-19T00:32:51Z</time>
      </trkpt>
      <trkpt lat="44.57191" lon="3.12115">
        <ele>1333</ele>
        <time>2019-12-19T00:32:56Z</time>
      </trkpt>
      <trkpt lat="44.5718" lon="3.12148">
        <ele>1335</ele>
        <time>2019-12-19T00:33:00Z</time>
      </trkpt>
      <trkpt lat="44.57154" lon="3.122">
        <ele>1338</ele>
        <time>2019-12-19T00:33:08Z</time>
      </trkpt>
      <trkpt lat="44.57138" lon="3.1224">
        <ele>1340</ele>
        <time>2019-12-19T00:33:14Z</time>
      </trkpt>
      <trkpt lat="44.57129" lon="3.1226">
        <ele>1341</ele>
        <time>2019-12-19T00:33:17Z</time>
      </trkpt>
      <trkpt lat="44.57091" lon="3.1231">
        <ele>1343</ele>
        <time>2019-12-19T00:33:26Z</time>
      </trkpt>
      <trkpt lat="44.57071" lon="3.12324">
        <ele>1344</ele>
        <time>2019-12-19T00:33:30Z</time>
      </trkpt>
      <trkpt lat="44.57048" lon="3.12332">
        <ele>1344</ele>
        <time>2019-12-19T00:33:34Z</time>
      </trkpt>
      <trkpt lat="44.56954" lon="3.1234">
        <ele>1342</ele>
        <time>2019-12-19T00:33:51Z</time>
      </trkpt>
      <trkpt lat="44.56929" lon="3.12345">
        <ele>1341</ele>
        <time>2019-12-19T00:33:56Z</time>
      </trkpt>
      <trkpt lat="44.56746" lon="3.12404">
        <ele>1342</ele>
        <time>2019-12-19T00:34:29Z</time>
      </trkpt>
      <trkpt lat="44.5668" lon="3.12432">
        <ele>1341</ele>
        <time>2019-12-19T00:34:41Z</time>
      </trkpt>
      <trkpt lat="44.56632" lon="3.12455">
        <ele>1342</ele>
        <time>2019-12-19T00:34:50Z</time>
      </trkpt>
      <trkpt lat="44.56618" lon="3.12457">
        <ele>1342</ele>
        <time>2019-12-19T00:34:53Z</time>
      </trkpt>
      <trkpt lat="44.56574" lon="3.12457">
        <ele>1341</ele>
        <time>2019-12-19T00:35:01Z</time>
      </trkpt>
      <trkpt lat="44.56557" lon="3.12458">
        <ele>1340</ele>
        <time>2019-12-19T00:35:04Z</time>
      </trkpt>
      <trkpt lat="44.5654" lon="3.12463">
        <ele>1339</ele>
        <time>2019-12-19T00:35:07Z</time>
      </trkpt>
      <trkpt lat="44.56518" lon="3.12479">
        <ele>1340</ele>
        <time>2019-12-19T00:35:11Z</time>
      </trkpt>
      <trkpt lat="44.56474" lon="3.12507">
        <ele>1340</ele>
        <time>2019-12-19T00:35:20Z</time>
      </trkpt>
      <trkpt lat="44.5646" lon="3.12513">
        <ele>1340</ele>
        <time>2019-12-19T00:35:23Z</time>
      </trkpt>
      <trkpt lat="44.564" lon="3.12529">
        <ele>1338</ele>
        <time>2019-12-19T00:35:33Z</time>
      </trkpt>
      <trkpt lat="44.5637" lon="3.12542">
        <ele>1336</ele>
        <time>2019-12-19T00:35:39Z</time>
      </trkpt>
      <trkpt lat="44.56342" lon="3.12571">
        <ele>1337</ele>
        <time>2019-12-19T00:35:45Z</time>
      </trkpt>
      <trkpt lat="44.56298" lon="3.12625">
        <ele>1340</ele>
        <time>2019-12-19T00:35:56Z</time>
      </trkpt>
      <trkpt lat="44.56287" lon="3.12634">
        <ele>1340</ele>
        <time>2019-12-19T00:35:58Z</time>
      </trkpt>
      <trkpt lat="44.56275" lon="3.12639">
        <ele>1340</ele>
        <time>2019-12-19T00:36:00Z</time>
      </trkpt>
      <trkpt lat="44.5626" lon="3.12639">
        <ele>1340</ele>
        <time>2019-12-19T00:36:03Z</time>
      </trkpt>
      <trkpt lat="44.56251" lon="3.12634">
        <ele>1339</ele>
        <time>2019-12-19T00:36:04Z</time>
      </trkpt>
      <trkpt lat="44.56244" lon="3.1262">
        <ele>1338</ele>
        <time>2019-12-19T00:36:07Z</time>
      </trkpt>
      <trkpt lat="44.56239" lon="3.12604">
        <ele>1338</ele>
        <time>2019-12-19T00:36:09Z</time>
      </trkpt>
      <trkpt lat="44.56234" lon="3.12577">
        <ele>1336</ele>
        <time>2019-12-19T00:36:12Z</time>
      </trkpt>
      <trkpt lat="44.56226" lon="3.12557">
        <ele>1334</ele>
        <time>2019-12-19T00:36:15Z</time>
      </trkpt>
      <trkpt lat="44.5622" lon="3.1255">
        <ele>1333</ele>
        <time>2019-12-19T00:36:17Z</time>
      </trkpt>
      <trkpt lat="44.56213" lon="3.12545">
        <ele>1333</ele>
        <time>2019-12-19T00:36:18Z</time>
      </trkpt>
      <trkpt lat="44.56201" lon="3.12542">
        <ele>1333</ele>
        <time>2019-12-19T00:36:20Z</time>
      </trkpt>
      <trkpt lat="44.56183" lon="3.12546">
        <ele>1334</ele>
        <time>2019-12-19T00:36:23Z</time>
      </trkpt>
      <trkpt lat="44.56146" lon="3.12564">
        <ele>1337</ele>
        <time>2019-12-19T00:36:30Z</time>
      </trkpt>
      <trkpt lat="44.56124" lon="3.12572">
        <ele>1337</ele>
        <time>2019-12-19T00:36:34Z</time>
      </trkpt>
      <trkpt lat="44.56038" lon="3.12588">
        <ele>1339</ele>
        <time>2019-12-19T00:36:50Z</time>
      </trkpt>
      <trkpt lat="44.56012" lon="3.12591">
        <ele>1339</ele>
        <time>2019-12-19T00:36:55Z</time>
      </trkpt>
      <trkpt lat="44.5597" lon="3.1259">
        <ele>1340</ele>
        <time>2019-12-19T00:37:02Z</time>
      </trkpt>
      <trkpt lat="44.5593" lon="3.12594">
        <ele>1341</ele>
        <time>2019-12-19T00:37:09Z</time>
      </trkpt>
      <trkpt lat="44.55904" lon="3.12606">
        <ele>1341</ele>
        <time>2019-12-19T00:37:14Z</time>
      </trkpt>
      <trkpt lat="44.55891" lon="3.12618">
        <ele>1341</ele>
        <time>2019-12-19T00:37:17Z</time>
      </trkpt>
      <trkpt lat="44.5588" lon="3.12635">
        <ele>1341</ele>
        <time>2019-12-19T00:37:20Z</time>
      </trkpt>
      <trkpt lat="44.55849" lon="3.12708">
        <ele>1339</ele>
        <time>2019-12-19T00:37:30Z</time>
      </trkpt>
      <trkpt lat="44.55843" lon="3.12719">
        <ele>1339</ele>
        <time>2019-12-19T00:37:32Z</time>
      </trkpt>
      <trkpt lat="44.55797" lon="3.12777">
        <ele>1339</ele>
        <time>2019-12-19T00:37:43Z</time>
      </trkpt>
      <trkpt lat="44.55781" lon="3.12816">
        <ele>1340</ele>
        <time>2019-12-19T00:37:49Z</time>
      </trkpt>
      <trkpt lat="44.55773" lon="3.12823">
        <ele>1340</ele>
        <time>2019-12-19T00:37:51Z</time>
      </trkpt>
      <trkpt lat="44.55691" lon="3.1285">
        <ele>1332</ele>
        <time>2019-12-19T00:38:06Z</time>
      </trkpt>
      <trkpt lat="44.55677" lon="3.1286">
        <ele>1331</ele>
        <time>2019-12-19T00:38:08Z</time>
      </trkpt>
      <trkpt lat="44.55663" lon="3.12876">
        <ele>1330</ele>
        <time>2019-12-19T00:38:12Z</time>
      </trkpt>
      <trkpt lat="44.55637" lon="3.12932">
        <ele>1329</ele>
        <time>2019-12-19T00:38:20Z</time>
      </trkpt>
      <trkpt lat="44.55623" lon="3.12951">
        <ele>1328</ele>
        <time>2019-12-19T00:38:24Z</time>
      </trkpt>
      <trkpt lat="44.55609" lon="3.12962">
        <ele>1327</ele>
        <time>2019-12-19T00:38:26Z</time>
      </trkpt>
      <trkpt lat="44.55579" lon="3.12975">
        <ele>1324</ele>
        <time>2019-12-19T00:38:32Z</time>
      </trkpt>
      <trkpt lat="44.55543" lon="3.12978">
        <ele>1322</ele>
        <time>2019-12-19T00:38:38Z</time>
      </trkpt>
      <trkpt lat="44.55482" lon="3.12979">
        <ele>1317</ele>
        <time>2019-12-19T00:38:49Z</time>
      </trkpt>
      <trkpt lat="44.55467" lon="3.12983">
        <ele>1316</ele>
        <time>2019-12-19T00:38:52Z</time>
      </trkpt>
      <trkpt lat="44.55433" lon="3.12997">
        <ele>1314</ele>
        <time>2019-12-19T00:38:58Z</time>
      </trkpt>
      <trkpt lat="44.55407" lon="3.13003">
        <ele>1313</ele>
        <time>2019-12-19T00:39:03Z</time>
      </trkpt>
      <trkpt lat="44.55367" lon="3.13011">
        <ele>1311</ele>
        <time>2019-12-19T00:39:10Z</time>
      </trkpt>
      <trkpt lat="44.55334" lon="3.1301">
        <ele>1309</ele>
        <time>2019-12-19T00:39:16Z</time>
      </trkpt>
      <trkpt lat="44.55314" lon="3.13018">
        <ele>1308</ele>
        <time>2019-12-19T00:39:20Z</time>
      </trkpt>
      <trkpt lat="44.55295" lon="3.13032">
        <ele>1307</ele>
        <time>2019-12-19T00:39:24Z</time>
      </trkpt>
      <trkpt lat="44.55288" lon="3.13044">
        <ele>1306</ele>
        <time>2019-12-19T00:39:26Z</time>
      </trkpt>
      <trkpt lat="44.55282" lon="3.13061">
        <ele>1306</ele>
        <time>2019-12-19T00:39:28Z</time>
      </trkpt>
      <trkpt lat="44.55279" lon="3.13093">
        <ele>1305</ele>
        <time>2019-12-19T00:39:32Z</time>
      </trkpt>
      <trkpt lat="44.55276" lon="3.13107">
        <ele>1305</ele>
        <time>2019-12-19T00:39:34Z</time>
      </trkpt>
      <trkpt lat="44.5525" lon="3.13156">
        <ele>1301</ele>
        <time>2019-12-19T00:39:42Z</time>
      </trkpt>
      <trkpt lat="44.55235" lon="3.13203">
        <ele>1300</ele>
        <time>2019-12-19T00:39:48Z</time>
      </trkpt>
      <trkpt lat="44.5523" lon="3.13219">
        <ele>1300</ele>
        <time>2019-12-19T00:39:50Z</time>
      </trkpt>
      <trkpt lat="44.55223" lon="3.13231">
        <ele>1299</ele>
        <time>2019-12-19T00:39:52Z</time>
      </trkpt>
      <trkpt lat="44.55216" lon="3.13236">
        <ele>1299</ele>
        <time>2019-12-19T00:39:54Z</time>
      </trkpt>
      <trkpt lat="44.55204" lon="3.13239">
        <ele>1297</ele>
        <time>2019-12-19T00:39:56Z</time>
      </trkpt>
      <trkpt lat="44.55171" lon="3.13241">
        <ele>1294</ele>
        <time>2019-12-19T00:40:02Z</time>
      </trkpt>
      <trkpt lat="44.5515" lon="3.13249">
        <ele>1293</ele>
        <time>2019-12-19T00:40:06Z</time>
      </trkpt>
      <trkpt lat="44.55062" lon="3.13299">
        <ele>1289</ele>
        <time>2019-12-19T00:40:23Z</time>
      </trkpt>
      <trkpt lat="44.55011" lon="3.13338">
        <ele>1285</ele>
        <time>2019-12-19T00:40:33Z</time>
      </trkpt>
      <trkpt lat="44.54985" lon="3.13355">
        <ele>1282</ele>
        <time>2019-12-19T00:40:38Z</time>
      </trkpt>
      <trkpt lat="44.54949" lon="3.1337">
        <ele>1278</ele>
        <time>2019-12-19T00:40:45Z</time>
      </trkpt>
      <trkpt lat="44.54901" lon="3.13415">
        <ele>1273</ele>
        <time>2019-12-19T00:40:55Z</time>
      </trkpt>
      <trkpt lat="44.54869" lon="3.13435">
        <ele>1269</ele>
        <time>2019-12-19T00:41:01Z</time>
      </trkpt>
      <trkpt lat="44.54861" lon="3.13444">
        <ele>1268</ele>
        <time>2019-12-19T00:41:03Z</time>
      </trkpt>
      <trkpt lat="44.54856" lon="3.13453">
        <ele>1268</ele>
        <time>2019-12-19T00:41:04Z</time>
      </trkpt>
      <trkpt lat="44.54851" lon="3.1347">
        <ele>1267</ele>
        <time>2019-12-19T00:41:07Z</time>
      </trkpt>
      <trkpt lat="44.54851" lon="3.13487">
        <ele>1267</ele>
        <time>2019-12-19T00:41:09Z</time>
      </trkpt>
      <trkpt lat="44.54854" lon="3.13525">
        <ele>1267</ele>
        <time>2019-12-19T00:41:14Z</time>
      </trkpt>
      <trkpt lat="44.54861" lon="3.13568">
        <ele>1267</ele>
        <time>2019-12-19T00:41:19Z</time>
      </trkpt>
      <trkpt lat="44.54861" lon="3.13581">
        <ele>1267</ele>
        <time>2019-12-19T00:41:21Z</time>
      </trkpt>
      <trkpt lat="44.54855" lon="3.13601">
        <ele>1265</ele>
        <time>2019-12-19T00:41:24Z</time>
      </trkpt>
      <trkpt lat="44.54827" lon="3.13636">
        <ele>1259</ele>
        <time>2019-12-19T00:41:30Z</time>
      </trkpt>
      <trkpt lat="44.54818" lon="3.13656">
        <ele>1256</ele>
        <time>2019-12-19T00:41:33Z</time>
      </trkpt>
      <trkpt lat="44.54812" lon="3.13683">
        <ele>1253</ele>
        <time>2019-12-19T00:41:37Z</time>
      </trkpt>
      <trkpt lat="44.54806" lon="3.13723">
        <ele>1250</ele>
        <time>2019-12-19T00:41:42Z</time>
      </trkpt>
      <trkpt lat="44.54806" lon="3.13745">
        <ele>1249</ele>
        <time>2019-12-19T00:41:45Z</time>
      </trkpt>
      <trkpt lat="44.54809" lon="3.13765">
        <ele>1250</ele>
        <time>2019-12-19T00:41:48Z</time>
      </trkpt>
      <trkpt lat="44.54814" lon="3.13781">
        <ele>1251</ele>
        <time>2019-12-19T00:41:50Z</time>
      </trkpt>
      <trkpt lat="44.54821" lon="3.13795">
        <ele>1252</ele>
        <time>2019-12-19T00:41:52Z</time>
      </trkpt>
      <trkpt lat="44.54839" lon="3.13814">
        <ele>1255</ele>
        <time>2019-12-19T00:41:56Z</time>
      </trkpt>
      <trkpt lat="44.54843" lon="3.13825">
        <ele>1255</ele>
        <time>2019-12-19T00:41:58Z</time>
      </trkpt>
      <trkpt lat="44.54843" lon="3.13835">
        <ele>1255</ele>
        <time>2019-12-19T00:41:59Z</time>
      </trkpt>
      <trkpt lat="44.54841" lon="3.13843">
        <ele>1255</ele>
        <time>2019-12-19T00:42:00Z</time>
      </trkpt>
      <trkpt lat="44.54831" lon="3.13853">
        <ele>1255</ele>
        <time>2019-12-19T00:42:02Z</time>
      </trkpt>
      <trkpt lat="44.54821" lon="3.13857">
        <ele>1254</ele>
        <time>2019-12-19T00:42:04Z</time>
      </trkpt>
      <trkpt lat="44.54753" lon="3.13862">
        <ele>1243</ele>
        <time>2019-12-19T00:42:16Z</time>
      </trkpt>
      <trkpt lat="44.54725" lon="3.13869">
        <ele>1240</ele>
        <time>2019-12-19T00:42:21Z</time>
      </trkpt>
      <trkpt lat="44.54676" lon="3.13885">
        <ele>1235</ele>
        <time>2019-12-19T00:42:30Z</time>
      </trkpt>
      <trkpt lat="44.54661" lon="3.13893">
        <ele>1235</ele>
        <time>2019-12-19T00:42:33Z</time>
      </trkpt>
      <trkpt lat="44.54647" lon="3.13905">
        <ele>1234</ele>
        <time>2019-12-19T00:42:36Z</time>
      </trkpt>
      <trkpt lat="44.54611" lon="3.13941">
        <ele>1235</ele>
        <time>2019-12-19T00:42:44Z</time>
      </trkpt>
      <trkpt lat="44.54602" lon="3.13947">
        <ele>1235</ele>
        <time>2019-12-19T00:42:45Z</time>
      </trkpt>
      <trkpt lat="44.54593" lon="3.13948">
        <ele>1235</ele>
        <time>2019-12-19T00:42:47Z</time>
      </trkpt>
      <trkpt lat="44.54576" lon="3.13945">
        <ele>1232</ele>
        <time>2019-12-19T00:42:50Z</time>
      </trkpt>
      <trkpt lat="44.5453" lon="3.13928">
        <ele>1225</ele>
        <time>2019-12-19T00:42:59Z</time>
      </trkpt>
      <trkpt lat="44.54506" lon="3.13922">
        <ele>1222</ele>
        <time>2019-12-19T00:43:03Z</time>
      </trkpt>
      <trkpt lat="44.54432" lon="3.13918">
        <ele>1215</ele>
        <time>2019-12-19T00:43:16Z</time>
      </trkpt>
      <trkpt lat="44.54412" lon="3.1392">
        <ele>1213</ele>
        <time>2019-12-19T00:43:20Z</time>
      </trkpt>
      <trkpt lat="44.54391" lon="3.13927">
        <ele>1210</ele>
        <time>2019-12-19T00:43:24Z</time>
      </trkpt>
      <trkpt lat="44.5435" lon="3.13946">
        <ele>1206</ele>
        <time>2019-12-19T00:43:31Z</time>
      </trkpt>
      <trkpt lat="44.54324" lon="3.13963">
        <ele>1204</ele>
        <time>2019-12-19T00:43:36Z</time>
      </trkpt>
      <trkpt lat="44.54309" lon="3.13977">
        <ele>1204</ele>
        <time>2019-12-19T00:43:39Z</time>
      </trkpt>
      <trkpt lat="44.54271" lon="3.14017">
        <ele>1203</ele>
        <time>2019-12-19T00:43:48Z</time>
      </trkpt>
      <trkpt lat="44.54256" lon="3.14036">
        <ele>1203</ele>
        <time>2019-12-19T00:43:52Z</time>
      </trkpt>
      <trkpt lat="44.54243" lon="3.14057">
        <ele>1204</ele>
        <time>2019-12-19T00:43:55Z</time>
      </trkpt>
      <trkpt lat="44.54235" lon="3.14065">
        <ele>1203</ele>
        <time>2019-12-19T00:43:57Z</time>
      </trkpt>
      <trkpt lat="44.54197" lon="3.14084">
        <ele>1196</ele>
        <time>2019-12-19T00:44:04Z</time>
      </trkpt>
      <trkpt lat="44.5418" lon="3.14098">
        <ele>1194</ele>
        <time>2019-12-19T00:44:08Z</time>
      </trkpt>
      <trkpt lat="44.54171" lon="3.14108">
        <ele>1193</ele>
        <time>2019-12-19T00:44:10Z</time>
      </trkpt>
      <trkpt lat="44.54154" lon="3.14139">
        <ele>1192</ele>
        <time>2019-12-19T00:44:15Z</time>
      </trkpt>
      <trkpt lat="44.54147" lon="3.14159">
        <ele>1193</ele>
        <time>2019-12-19T00:44:17Z</time>
      </trkpt>
      <trkpt lat="44.54141" lon="3.14183">
        <ele>1193</ele>
        <time>2019-12-19T00:44:21Z</time>
      </trkpt>
      <trkpt lat="44.54141" lon="3.14218">
        <ele>1195</ele>
        <time>2019-12-19T00:44:25Z</time>
      </trkpt>
      <trkpt lat="44.5414" lon="3.14228">
        <ele>1195</ele>
        <time>2019-12-19T00:44:26Z</time>
      </trkpt>
      <trkpt lat="44.54137" lon="3.14236">
        <ele>1194</ele>
        <time>2019-12-19T00:44:27Z</time>
      </trkpt>
      <trkpt lat="44.54134" lon="3.14243">
        <ele>1193</ele>
        <time>2019-12-19T00:44:28Z</time>
      </trkpt>
      <trkpt lat="44.5411" lon="3.14271">
        <ele>1186</ele>
        <time>2019-12-19T00:44:34Z</time>
      </trkpt>
      <trkpt lat="44.54092" lon="3.143">
        <ele>1183</ele>
        <time>2019-12-19T00:44:39Z</time>
      </trkpt>
      <trkpt lat="44.54084" lon="3.14316">
        <ele>1182</ele>
        <time>2019-12-19T00:44:41Z</time>
      </trkpt>
      <trkpt lat="44.54078" lon="3.14332">
        <ele>1182</ele>
        <time>2019-12-19T00:44:44Z</time>
      </trkpt>
      <trkpt lat="44.54074" lon="3.14352">
        <ele>1185</ele>
        <time>2019-12-19T00:44:46Z</time>
      </trkpt>
      <trkpt lat="44.54071" lon="3.1436">
        <ele>1186</ele>
        <time>2019-12-19T00:44:47Z</time>
      </trkpt>
      <trkpt lat="44.54066" lon="3.14365">
        <ele>1186</ele>
        <time>2019-12-19T00:44:49Z</time>
      </trkpt>
      <trkpt lat="44.54058" lon="3.14367">
        <ele>1185</ele>
        <time>2019-12-19T00:44:50Z</time>
      </trkpt>
      <trkpt lat="44.54032" lon="3.14365">
        <ele>1178</ele>
        <time>2019-12-19T00:44:55Z</time>
      </trkpt>
      <trkpt lat="44.5401" lon="3.1437">
        <ele>1175</ele>
        <time>2019-12-19T00:44:59Z</time>
      </trkpt>
      <trkpt lat="44.53974" lon="3.14384">
        <ele>1172</ele>
        <time>2019-12-19T00:45:05Z</time>
      </trkpt>
      <trkpt lat="44.53947" lon="3.14399">
        <ele>1171</ele>
        <time>2019-12-19T00:45:10Z</time>
      </trkpt>
      <trkpt lat="44.53911" lon="3.14424">
        <ele>1170</ele>
        <time>2019-12-19T00:45:18Z</time>
      </trkpt>
      <trkpt lat="44.53864" lon="3.14464">
        <ele>1170</ele>
        <time>2019-12-19T00:45:27Z</time>
      </trkpt>
      <trkpt lat="44.53847" lon="3.14475">
        <ele>1170</ele>
        <time>2019-12-19T00:45:31Z</time>
      </trkpt>
      <trkpt lat="44.53836" lon="3.14479">
        <ele>1169</ele>
        <time>2019-12-19T00:45:33Z</time>
      </trkpt>
      <trkpt lat="44.53826" lon="3.1448">
        <ele>1166</ele>
        <time>2019-12-19T00:45:34Z</time>
      </trkpt>
      <trkpt lat="44.53797" lon="3.14475">
        <ele>1156</ele>
        <time>2019-12-19T00:45:40Z</time>
      </trkpt>
      <trkpt lat="44.53786" lon="3.14477">
        <ele>1153</ele>
        <time>2019-12-19T00:45:42Z</time>
      </trkpt>
      <trkpt lat="44.53768" lon="3.1449">
        <ele>1151</ele>
        <time>2019-12-19T00:45:45Z</time>
      </trkpt>
      <trkpt lat="44.53756" lon="3.14505">
        <ele>1151</ele>
        <time>2019-12-19T00:45:48Z</time>
      </trkpt>
      <trkpt lat="44.53745" lon="3.14525">
        <ele>1151</ele>
        <time>2019-12-19T00:45:51Z</time>
      </trkpt>
      <trkpt lat="44.53724" lon="3.14579">
        <ele>1153</ele>
        <time>2019-12-19T00:45:59Z</time>
      </trkpt>
      <trkpt lat="44.53699" lon="3.14625">
        <ele>1151</ele>
        <time>2019-12-19T00:46:06Z</time>
      </trkpt>
      <trkpt lat="44.53657" lon="3.14694">
        <ele>1147</ele>
        <time>2019-12-19T00:46:18Z</time>
      </trkpt>
      <trkpt lat="44.53648" lon="3.14713">
        <ele>1148</ele>
        <time>2019-12-19T00:46:21Z</time>
      </trkpt>
      <trkpt lat="44.53633" lon="3.14753">
        <ele>1153</ele>
        <time>2019-12-19T00:46:27Z</time>
      </trkpt>
      <trkpt lat="44.53626" lon="3.14761">
        <ele>1151</ele>
        <time>2019-12-19T00:46:28Z</time>
      </trkpt>
      <trkpt lat="44.53616" lon="3.14766">
        <ele>1149</ele>
        <time>2019-12-19T00:46:30Z</time>
      </trkpt>
      <trkpt lat="44.53593" lon="3.14772">
        <ele>1143</ele>
        <time>2019-12-19T00:46:34Z</time>
      </trkpt>
      <trkpt lat="44.53574" lon="3.14786">
        <ele>1139</ele>
        <time>2019-12-19T00:46:38Z</time>
      </trkpt>
      <trkpt lat="44.53556" lon="3.14804">
        <ele>1137</ele>
        <time>2019-12-19T00:46:42Z</time>
      </trkpt>
      <trkpt lat="44.53542" lon="3.14823">
        <ele>1135</ele>
        <time>2019-12-19T00:46:45Z</time>
      </trkpt>
      <trkpt lat="44.53517" lon="3.14871">
        <ele>1134</ele>
        <time>2019-12-19T00:46:53Z</time>
      </trkpt>
      <trkpt lat="44.53506" lon="3.14896">
        <ele>1133</ele>
        <time>2019-12-19T00:46:57Z</time>
      </trkpt>
      <trkpt lat="44.53489" lon="3.14946">
        <ele>1131</ele>
        <time>2019-12-19T00:47:04Z</time>
      </trkpt>
      <trkpt lat="44.53487" lon="3.14963">
        <ele>1131</ele>
        <time>2019-12-19T00:47:06Z</time>
      </trkpt>
      <trkpt lat="44.53486" lon="3.14991">
        <ele>1132</ele>
        <time>2019-12-19T00:47:09Z</time>
      </trkpt>
      <trkpt lat="44.53484" lon="3.15005">
        <ele>1132</ele>
        <time>2019-12-19T00:47:11Z</time>
      </trkpt>
      <trkpt lat="44.53478" lon="3.15018">
        <ele>1130</ele>
        <time>2019-12-19T00:47:13Z</time>
      </trkpt>
      <trkpt lat="44.53466" lon="3.15041">
        <ele>1126</ele>
        <time>2019-12-19T00:47:17Z</time>
      </trkpt>
      <trkpt lat="44.53461" lon="3.15061">
        <ele>1124</ele>
        <time>2019-12-19T00:47:20Z</time>
      </trkpt>
      <trkpt lat="44.53459" lon="3.1508">
        <ele>1124</ele>
        <time>2019-12-19T00:47:22Z</time>
      </trkpt>
      <trkpt lat="44.5346" lon="3.15105">
        <ele>1122</ele>
        <time>2019-12-19T00:47:25Z</time>
      </trkpt>
      <trkpt lat="44.53475" lon="3.15162">
        <ele>1121</ele>
        <time>2019-12-19T00:47:33Z</time>
      </trkpt>
      <trkpt lat="44.53497" lon="3.1523">
        <ele>1119</ele>
        <time>2019-12-19T00:47:42Z</time>
      </trkpt>
      <trkpt lat="44.53508" lon="3.15245">
        <ele>1119</ele>
        <time>2019-12-19T00:47:45Z</time>
      </trkpt>
      <trkpt lat="44.53536" lon="3.15267">
        <ele>1122</ele>
        <time>2019-12-19T00:47:51Z</time>
      </trkpt>
      <trkpt lat="44.53543" lon="3.15275">
        <ele>1122</ele>
        <time>2019-12-19T00:47:52Z</time>
      </trkpt>
      <trkpt lat="44.53546" lon="3.15288">
        <ele>1122</ele>
        <time>2019-12-19T00:47:54Z</time>
      </trkpt>
      <trkpt lat="44.53543" lon="3.153">
        <ele>1121</ele>
        <time>2019-12-19T00:47:56Z</time>
      </trkpt>
      <trkpt lat="44.53506" lon="3.15373">
        <ele>1111</ele>
        <time>2019-12-19T00:48:07Z</time>
      </trkpt>
      <trkpt lat="44.53466" lon="3.15431">
        <ele>1103</ele>
        <time>2019-12-19T00:48:17Z</time>
      </trkpt>
      <trkpt lat="44.53461" lon="3.15448">
        <ele>1101</ele>
        <time>2019-12-19T00:48:20Z</time>
      </trkpt>
      <trkpt lat="44.5346" lon="3.15464">
        <ele>1101</ele>
        <time>2019-12-19T00:48:22Z</time>
      </trkpt>
      <trkpt lat="44.53463" lon="3.15547">
        <ele>1097</ele>
        <time>2019-12-19T00:48:32Z</time>
      </trkpt>
      <trkpt lat="44.53465" lon="3.15574">
        <ele>1095</ele>
        <time>2019-12-19T00:48:36Z</time>
      </trkpt>
      <trkpt lat="44.5347" lon="3.15588">
        <ele>1094</ele>
        <time>2019-12-19T00:48:38Z</time>
      </trkpt>
      <trkpt lat="44.53485" lon="3.15604">
        <ele>1095</ele>
        <time>2019-12-19T00:48:41Z</time>
      </trkpt>
      <trkpt lat="44.53533" lon="3.15623">
        <ele>1100</ele>
        <time>2019-12-19T00:48:50Z</time>
      </trkpt>
      <trkpt lat="44.53542" lon="3.1563">
        <ele>1100</ele>
        <time>2019-12-19T00:48:52Z</time>
      </trkpt>
      <trkpt lat="44.53549" lon="3.1564">
        <ele>1100</ele>
        <time>2019-12-19T00:48:54Z</time>
      </trkpt>
      <trkpt lat="44.53551" lon="3.1565">
        <ele>1099</ele>
        <time>2019-12-19T00:48:55Z</time>
      </trkpt>
      <trkpt lat="44.53552" lon="3.15661">
        <ele>1097</ele>
        <time>2019-12-19T00:48:56Z</time>
      </trkpt>
      <trkpt lat="44.53549" lon="3.15674">
        <ele>1097</ele>
        <time>2019-12-19T00:48:58Z</time>
      </trkpt>
      <trkpt lat="44.53542" lon="3.15681">
        <ele>1097</ele>
        <time>2019-12-19T00:48:59Z</time>
      </trkpt>
      <trkpt lat="44.53531" lon="3.15687">
        <ele>1096</ele>
        <time>2019-12-19T00:49:02Z</time>
      </trkpt>
      <trkpt lat="44.53499" lon="3.15696">
        <ele>1092</ele>
        <time>2019-12-19T00:49:07Z</time>
      </trkpt>
      <trkpt lat="44.53482" lon="3.15704">
        <ele>1089</ele>
        <time>2019-12-19T00:49:11Z</time>
      </trkpt>
      <trkpt lat="44.53468" lon="3.15715">
        <ele>1087</ele>
        <time>2019-12-19T00:49:13Z</time>
      </trkpt>
      <trkpt lat="44.53457" lon="3.15731">
        <ele>1085</ele>
        <time>2019-12-19T00:49:16Z</time>
      </trkpt>
      <trkpt lat="44.53442" lon="3.15783">
        <ele>1085</ele>
        <time>2019-12-19T00:49:23Z</time>
      </trkpt>
      <trkpt lat="44.53435" lon="3.158">
        <ele>1084</ele>
        <time>2019-12-19T00:49:26Z</time>
      </trkpt>
      <trkpt lat="44.53351" lon="3.15953">
        <ele>1071</ele>
        <time>2019-12-19T00:49:50Z</time>
      </trkpt>
      <trkpt lat="44.53343" lon="3.15972">
        <ele>1070</ele>
        <time>2019-12-19T00:49:53Z</time>
      </trkpt>
      <trkpt lat="44.53339" lon="3.15989">
        <ele>1070</ele>
        <time>2019-12-19T00:49:55Z</time>
      </trkpt>
      <trkpt lat="44.53334" lon="3.16027">
        <ele>1070</ele>
        <time>2019-12-19T00:50:00Z</time>
      </trkpt>
      <trkpt lat="44.53331" lon="3.1604">
        <ele>1069</ele>
        <time>2019-12-19T00:50:02Z</time>
      </trkpt>
      <trkpt lat="44.53327" lon="3.16052">
        <ele>1069</ele>
        <time>2019-12-19T00:50:04Z</time>
      </trkpt>
      <trkpt lat="44.53262" lon="3.16173">
        <ele>1059</ele>
        <time>2019-12-19T00:50:23Z</time>
      </trkpt>
      <trkpt lat="44.53251" lon="3.16197">
        <ele>1056</ele>
        <time>2019-12-19T00:50:27Z</time>
      </trkpt>
      <trkpt lat="44.53245" lon="3.16213">
        <ele>1055</ele>
        <time>2019-12-19T00:50:29Z</time>
      </trkpt>
      <trkpt lat="44.53243" lon="3.1623">
        <ele>1055</ele>
        <time>2019-12-19T00:50:31Z</time>
      </trkpt>
      <trkpt lat="44.53243" lon="3.16243">
        <ele>1055</ele>
        <time>2019-12-19T00:50:33Z</time>
      </trkpt>
      <trkpt lat="44.53246" lon="3.16257">
        <ele>1055</ele>
        <time>2019-12-19T00:50:35Z</time>
      </trkpt>
      <trkpt lat="44.5325" lon="3.16271">
        <ele>1055</ele>
        <time>2019-12-19T00:50:36Z</time>
      </trkpt>
      <trkpt lat="44.53265" lon="3.16306">
        <ele>1057</ele>
        <time>2019-12-19T00:50:42Z</time>
      </trkpt>
      <trkpt lat="44.53266" lon="3.16318">
        <ele>1057</ele>
        <time>2019-12-19T00:50:43Z</time>
      </trkpt>
      <trkpt lat="44.53264" lon="3.16331">
        <ele>1057</ele>
        <time>2019-12-19T00:50:45Z</time>
      </trkpt>
      <trkpt lat="44.53257" lon="3.16347">
        <ele>1057</ele>
        <time>2019-12-19T00:50:47Z</time>
      </trkpt>
      <trkpt lat="44.5325" lon="3.16356">
        <ele>1057</ele>
        <time>2019-12-19T00:50:49Z</time>
      </trkpt>
      <trkpt lat="44.53237" lon="3.16367">
        <ele>1058</ele>
        <time>2019-12-19T00:50:52Z</time>
      </trkpt>
      <trkpt lat="44.53227" lon="3.16368">
        <ele>1058</ele>
        <time>2019-12-19T00:50:53Z</time>
      </trkpt>
      <trkpt lat="44.53157" lon="3.16346">
        <ele>1056</ele>
        <time>2019-12-19T00:51:06Z</time>
      </trkpt>
      <trkpt lat="44.53144" lon="3.16352">
        <ele>1057</ele>
        <time>2019-12-19T00:51:09Z</time>
      </trkpt>
      <trkpt lat="44.53126" lon="3.16355">
        <ele>1058</ele>
        <time>2019-12-19T00:51:12Z</time>
      </trkpt>
      <trkpt lat="44.53097" lon="3.16354">
        <ele>1059</ele>
        <time>2019-12-19T00:51:17Z</time>
      </trkpt>
      <trkpt lat="44.53047" lon="3.16391">
        <ele>1066</ele>
        <time>2019-12-19T00:51:27Z</time>
      </trkpt>
      <trkpt lat="44.53026" lon="3.16403">
        <ele>1069</ele>
        <time>2019-12-19T00:51:31Z</time>
      </trkpt>
      <trkpt lat="44.52996" lon="3.16413">
        <ele>1073</ele>
        <time>2019-12-19T00:51:37Z</time>
      </trkpt>
      <trkpt lat="44.5298" lon="3.16408">
        <ele>1073</ele>
        <time>2019-12-19T00:51:40Z</time>
      </trkpt>
      <trkpt lat="44.52974" lon="3.16408">
        <ele>1073</ele>
        <time>2019-12-19T00:51:41Z</time>
      </trkpt>
      <trkpt lat="44.52969" lon="3.16412">
        <ele>1074</ele>
        <time>2019-12-19T00:51:42Z</time>
      </trkpt>
      <trkpt lat="44.52952" lon="3.16443">
        <ele>1077</ele>
        <time>2019-12-19T00:51:47Z</time>
      </trkpt>
      <trkpt lat="44.52932" lon="3.16477">
        <ele>1082</ele>
        <time>2019-12-19T00:51:52Z</time>
      </trkpt>
      <trkpt lat="44.52922" lon="3.16488">
        <ele>1083</ele>
        <time>2019-12-19T00:51:54Z</time>
      </trkpt>
      <trkpt lat="44.52908" lon="3.16498">
        <ele>1085</ele>
        <time>2019-12-19T00:51:57Z</time>
      </trkpt>
      <trkpt lat="44.52894" lon="3.16516">
        <ele>1088</ele>
        <time>2019-12-19T00:52:01Z</time>
      </trkpt>
      <trkpt lat="44.52882" lon="3.16536">
        <ele>1090</ele>
        <time>2019-12-19T00:52:04Z</time>
      </trkpt>
      <trkpt lat="44.52877" lon="3.1655">
        <ele>1091</ele>
        <time>2019-12-19T00:52:06Z</time>
      </trkpt>
      <trkpt lat="44.52894" lon="3.16627">
        <ele>1095</ele>
        <time>2019-12-19T00:52:16Z</time>
      </trkpt>
      <trkpt lat="44.52895" lon="3.16687">
        <ele>1098</ele>
        <time>2019-12-19T00:52:24Z</time>
      </trkpt>
      <trkpt lat="44.52901" lon="3.1676">
        <ele>1100</ele>
        <time>2019-12-19T00:52:33Z</time>
      </trkpt>
      <trkpt lat="44.52899" lon="3.16771">
        <ele>1101</ele>
        <time>2019-12-19T00:52:34Z</time>
      </trkpt>
      <trkpt lat="44.52894" lon="3.16779">
        <ele>1101</ele>
        <time>2019-12-19T00:52:36Z</time>
      </trkpt>
      <trkpt lat="44.52886" lon="3.16786">
        <ele>1101</ele>
        <time>2019-12-19T00:52:38Z</time>
      </trkpt>
      <trkpt lat="44.52866" lon="3.16817">
        <ele>1102</ele>
        <time>2019-12-19T00:52:43Z</time>
      </trkpt>
      <trkpt lat="44.52796" lon="3.1698">
        <ele>1100</ele>
        <time>2019-12-19T00:53:07Z</time>
      </trkpt>
      <trkpt lat="44.52785" lon="3.17">
        <ele>1100</ele>
        <time>2019-12-19T00:53:10Z</time>
      </trkpt>
      <trkpt lat="44.52783" lon="3.16982">
        <ele>1099</ele>
        <time>2019-12-19T00:53:12Z</time>
      </trkpt>
      <trkpt lat="44.52778" lon="3.16968">
        <ele>1098</ele>
        <time>2019-12-19T00:53:14Z</time>
      </trkpt>
      <trkpt lat="44.52774" lon="3.16965">
        <ele>1097</ele>
        <time>2019-12-19T00:53:15Z</time>
      </trkpt>
      <trkpt lat="44.52767" lon="3.16966">
        <ele>1097</ele>
        <time>2019-12-19T00:53:17Z</time>
      </trkpt>
      <trkpt lat="44.52753" lon="3.16985">
        <ele>1096</ele>
        <time>2019-12-19T00:53:20Z</time>
      </trkpt>
      <trkpt lat="44.52686" lon="3.1704">
        <ele>1089</ele>
        <time>2019-12-19T00:53:34Z</time>
      </trkpt>
      <trkpt lat="44.52654" lon="3.17071">
        <ele>1087</ele>
        <time>2019-12-19T00:53:41Z</time>
      </trkpt>
      <trkpt lat="44.52621" lon="3.1709">
        <ele>1084</ele>
        <time>2019-12-19T00:53:47Z</time>
      </trkpt>
      <trkpt lat="44.5258" lon="3.17102">
        <ele>1079</ele>
        <time>2019-12-19T00:53:55Z</time>
      </trkpt>
      <trkpt lat="44.52561" lon="3.17116">
        <ele>1078</ele>
        <time>2019-12-19T00:53:58Z</time>
      </trkpt>
      <trkpt lat="44.52546" lon="3.17117">
        <ele>1077</ele>
        <time>2019-12-19T00:54:01Z</time>
      </trkpt>
      <trkpt lat="44.52532" lon="3.17114">
        <ele>1076</ele>
        <time>2019-12-19T00:54:04Z</time>
      </trkpt>
      <trkpt lat="44.52524" lon="3.1711">
        <ele>1075</ele>
        <time>2019-12-19T00:54:05Z</time>
      </trkpt>
      <trkpt lat="44.52532" lon="3.17114">
        <ele>1076</ele>
        <time>2019-12-19T00:54:07Z</time>
      </trkpt>
      <trkpt lat="44.52477" lon="3.17133">
        <ele>1074</ele>
        <time>2019-12-19T00:54:17Z</time>
      </trkpt>
      <trkpt lat="44.52451" lon="3.17152">
        <ele>1073</ele>
        <time>2019-12-19T00:54:22Z</time>
      </trkpt>
      <trkpt lat="44.5244" lon="3.17167">
        <ele>1073</ele>
        <time>2019-12-19T00:54:25Z</time>
      </trkpt>
      <trkpt lat="44.52444" lon="3.17191">
        <ele>1072</ele>
        <time>2019-12-19T00:54:28Z</time>
      </trkpt>
      <trkpt lat="44.52479" lon="3.17294">
        <ele>1066</ele>
        <time>2019-12-19T00:54:42Z</time>
      </trkpt>
      <trkpt lat="44.52501" lon="3.17403">
        <ele>1058</ele>
        <time>2019-12-19T00:54:57Z</time>
      </trkpt>
      <trkpt lat="44.52511" lon="3.17442">
        <ele>1055</ele>
        <time>2019-12-19T00:55:02Z</time>
      </trkpt>
      <trkpt lat="44.52519" lon="3.17462">
        <ele>1053</ele>
        <time>2019-12-19T00:55:05Z</time>
      </trkpt>
      <trkpt lat="44.52534" lon="3.17475">
        <ele>1053</ele>
        <time>2019-12-19T00:55:08Z</time>
      </trkpt>
      <trkpt lat="44.5255" lon="3.17486">
        <ele>1054</ele>
        <time>2019-12-19T00:55:11Z</time>
      </trkpt>
      <trkpt lat="44.52561" lon="3.17502">
        <ele>1054</ele>
        <time>2019-12-19T00:55:14Z</time>
      </trkpt>
      <trkpt lat="44.52582" lon="3.17574">
        <ele>1048</ele>
        <time>2019-12-19T00:55:24Z</time>
      </trkpt>
      <trkpt lat="44.52589" lon="3.17596">
        <ele>1046</ele>
        <time>2019-12-19T00:55:27Z</time>
      </trkpt>
      <trkpt lat="44.52594" lon="3.17605">
        <ele>1044</ele>
        <time>2019-12-19T00:55:28Z</time>
      </trkpt>
      <trkpt lat="44.52605" lon="3.17613">
        <ele>1043</ele>
        <time>2019-12-19T00:55:30Z</time>
      </trkpt>
      <trkpt lat="44.52617" lon="3.17612">
        <ele>1043</ele>
        <time>2019-12-19T00:55:33Z</time>
      </trkpt>
      <trkpt lat="44.52659" lon="3.17595">
        <ele>1043</ele>
        <time>2019-12-19T00:55:40Z</time>
      </trkpt>
      <trkpt lat="44.52677" lon="3.17591">
        <ele>1044</ele>
        <time>2019-12-19T00:55:44Z</time>
      </trkpt>
      <trkpt lat="44.52705" lon="3.17605">
        <ele>1041</ele>
        <time>2019-12-19T00:55:49Z</time>
      </trkpt>
      <trkpt lat="44.52759" lon="3.17659">
        <ele>1034</ele>
        <time>2019-12-19T00:56:01Z</time>
      </trkpt>
      <trkpt lat="44.52775" lon="3.17663">
        <ele>1034</ele>
        <time>2019-12-19T00:56:04Z</time>
      </trkpt>
      <trkpt lat="44.5279" lon="3.17658">
        <ele>1035</ele>
        <time>2019-12-19T00:56:06Z</time>
      </trkpt>
      <trkpt lat="44.52819" lon="3.17631">
        <ele>1040</ele>
        <time>2019-12-19T00:56:13Z</time>
      </trkpt>
      <trkpt lat="44.5283" lon="3.17628">
        <ele>1041</ele>
        <time>2019-12-19T00:56:14Z</time>
      </trkpt>
      <trkpt lat="44.52844" lon="3.1764">
        <ele>1042</ele>
        <time>2019-12-19T00:56:17Z</time>
      </trkpt>
      <trkpt lat="44.52849" lon="3.17661">
        <ele>1041</ele>
        <time>2019-12-19T00:56:20Z</time>
      </trkpt>
      <trkpt lat="44.52839" lon="3.17739">
        <ele>1031</ele>
        <time>2019-12-19T00:56:30Z</time>
      </trkpt>
      <trkpt lat="44.52805" lon="3.17824">
        <ele>1021</ele>
        <time>2019-12-19T00:56:43Z</time>
      </trkpt>
      <trkpt lat="44.52804" lon="3.17852">
        <ele>1019</ele>
        <time>2019-12-19T00:56:46Z</time>
      </trkpt>
      <trkpt lat="44.52814" lon="3.17894">
        <ele>1019</ele>
        <time>2019-12-19T00:56:52Z</time>
      </trkpt>
      <trkpt lat="44.52826" lon="3.17922">
        <ele>1021</ele>
        <time>2019-12-19T00:56:56Z</time>
      </trkpt>
      <trkpt lat="44.5283" lon="3.17937">
        <ele>1023</ele>
        <time>2019-12-19T00:56:58Z</time>
      </trkpt>
      <trkpt lat="44.52823" lon="3.17954">
        <ele>1023</ele>
        <time>2019-12-19T00:57:00Z</time>
      </trkpt>
      <trkpt lat="44.5281" lon="3.17954">
        <ele>1021</ele>
        <time>2019-12-19T00:57:03Z</time>
      </trkpt>
      <trkpt lat="44.5279" lon="3.17932">
        <ele>1016</ele>
        <time>2019-12-19T00:57:07Z</time>
      </trkpt>
      <trkpt lat="44.52766" lon="3.17917">
        <ele>1010</ele>
        <time>2019-12-19T00:57:12Z</time>
      </trkpt>
      <trkpt lat="44.52739" lon="3.17918">
        <ele>1006</ele>
        <time>2019-12-19T00:57:17Z</time>
      </trkpt>
      <trkpt lat="44.52711" lon="3.17928">
        <ele>1003</ele>
        <time>2019-12-19T00:57:22Z</time>
      </trkpt>
      <trkpt lat="44.52689" lon="3.17943">
        <ele>1002</ele>
        <time>2019-12-19T00:57:26Z</time>
      </trkpt>
      <trkpt lat="44.52665" lon="3.17977">
        <ele>1000</ele>
        <time>2019-12-19T00:57:32Z</time>
      </trkpt>
      <trkpt lat="44.52624" lon="3.18062">
        <ele>1000</ele>
        <time>2019-12-19T00:57:45Z</time>
      </trkpt>
      <trkpt lat="44.52615" lon="3.18078">
        <ele>999</ele>
        <time>2019-12-19T00:57:48Z</time>
      </trkpt>
      <trkpt lat="44.52591" lon="3.1813">
        <ele>997</ele>
        <time>2019-12-19T00:57:56Z</time>
      </trkpt>
      <trkpt lat="44.52558" lon="3.18173">
        <ele>994</ele>
        <time>2019-12-19T00:58:04Z</time>
      </trkpt>
      <trkpt lat="44.52521" lon="3.18216">
        <ele>991</ele>
        <time>2019-12-19T00:58:12Z</time>
      </trkpt>
      <trkpt lat="44.52497" lon="3.18251">
        <ele>990</ele>
        <time>2019-12-19T00:58:19Z</time>
      </trkpt>
      <trkpt lat="44.52482" lon="3.18276">
        <ele>991</ele>
        <time>2019-12-19T00:58:23Z</time>
      </trkpt>
      <trkpt lat="44.52443" lon="3.18316">
        <ele>992</ele>
        <time>2019-12-19T00:58:31Z</time>
      </trkpt>
      <trkpt lat="44.52402" lon="3.18351">
        <ele>992</ele>
        <time>2019-12-19T00:58:40Z</time>
      </trkpt>
      <trkpt lat="44.52366" lon="3.18388">
        <ele>992</ele>
        <time>2019-12-19T00:58:48Z</time>
      </trkpt>
      <trkpt lat="44.52349" lon="3.18408">
        <ele>992</ele>
        <time>2019-12-19T00:58:52Z</time>
      </trkpt>
      <trkpt lat="44.52343" lon="3.18418">
        <ele>992</ele>
        <time>2019-12-19T00:58:53Z</time>
      </trkpt>
      <trkpt lat="44.52317" lon="3.1848">
        <ele>991</ele>
        <time>2019-12-19T00:59:02Z</time>
      </trkpt>
      <trkpt lat="44.52247" lon="3.18655">
        <ele>990</ele>
        <time>2019-12-19T00:59:28Z</time>
      </trkpt>
      <trkpt lat="44.52235" lon="3.18677">
        <ele>990</ele>
        <time>2019-12-19T00:59:31Z</time>
      </trkpt>
      <trkpt lat="44.52128" lon="3.18838">
        <ele>985</ele>
        <time>2019-12-19T00:59:59Z</time>
      </trkpt>
      <trkpt lat="44.521" lon="3.18919">
        <ele>987</ele>
        <time>2019-12-19T01:00:11Z</time>
      </trkpt>
      <trkpt lat="44.52086" lon="3.18953">
        <ele>988</ele>
        <time>2019-12-19T01:00:16Z</time>
      </trkpt>
      <trkpt lat="44.52072" lon="3.1897">
        <ele>988</ele>
        <time>2019-12-19T01:00:19Z</time>
      </trkpt>
      <trkpt lat="44.52009" lon="3.18999">
        <ele>988</ele>
        <time>2019-12-19T01:00:31Z</time>
      </trkpt>
      <trkpt lat="44.51966" lon="3.19015">
        <ele>985</ele>
        <time>2019-12-19T01:00:39Z</time>
      </trkpt>
      <trkpt lat="44.51881" lon="3.19088">
        <ele>985</ele>
        <time>2019-12-19T01:00:57Z</time>
      </trkpt>
      <trkpt lat="44.51826" lon="3.19116">
        <ele>983</ele>
        <time>2019-12-19T01:01:07Z</time>
      </trkpt>
      <trkpt lat="44.51795" lon="3.19148">
        <ele>983</ele>
        <time>2019-12-19T01:01:14Z</time>
      </trkpt>
      <trkpt lat="44.51656" lon="3.19282">
        <ele>975</ele>
        <time>2019-12-19T01:01:44Z</time>
      </trkpt>
      <trkpt lat="44.51606" lon="3.19382">
        <ele>972</ele>
        <time>2019-12-19T01:01:59Z</time>
      </trkpt>
      <trkpt lat="44.51539" lon="3.19434">
        <ele>965</ele>
        <time>2019-12-19T01:02:13Z</time>
      </trkpt>
      <trkpt lat="44.51532" lon="3.1945">
        <ele>964</ele>
        <time>2019-12-19T01:02:15Z</time>
      </trkpt>
      <trkpt lat="44.51533" lon="3.19472">
        <ele>964</ele>
        <time>2019-12-19T01:02:18Z</time>
      </trkpt>
      <trkpt lat="44.51541" lon="3.19489">
        <ele>964</ele>
        <time>2019-12-19T01:02:21Z</time>
      </trkpt>
      <trkpt lat="44.51555" lon="3.19497">
        <ele>964</ele>
        <time>2019-12-19T01:02:23Z</time>
      </trkpt>
      <trkpt lat="44.51585" lon="3.195">
        <ele>965</ele>
        <time>2019-12-19T01:02:29Z</time>
      </trkpt>
      <trkpt lat="44.51663" lon="3.19534">
        <ele>964</ele>
        <time>2019-12-19T01:02:43Z</time>
      </trkpt>
      <trkpt lat="44.51717" lon="3.19578">
        <ele>959</ele>
        <time>2019-12-19T01:02:54Z</time>
      </trkpt>
      <trkpt lat="44.51781" lon="3.19608">
        <ele>956</ele>
        <time>2019-12-19T01:03:06Z</time>
      </trkpt>
      <trkpt lat="44.51851" lon="3.19668">
        <ele>951</ele>
        <time>2019-12-19T01:03:21Z</time>
      </trkpt>
      <trkpt lat="44.51861" lon="3.19691">
        <ele>952</ele>
        <time>2019-12-19T01:03:24Z</time>
      </trkpt>
      <trkpt lat="44.51864" lon="3.19716">
        <ele>951</ele>
        <time>2019-12-19T01:03:28Z</time>
      </trkpt>
      <trkpt lat="44.51859" lon="3.19751">
        <ele>950</ele>
        <time>2019-12-19T01:03:32Z</time>
      </trkpt>
      <trkpt lat="44.51852" lon="3.19774">
        <ele>950</ele>
        <time>2019-12-19T01:03:35Z</time>
      </trkpt>
      <trkpt lat="44.51793" lon="3.19869">
        <ele>944</ele>
        <time>2019-12-19T01:03:51Z</time>
      </trkpt>
      <trkpt lat="44.51651" lon="3.20178">
        <ele>932</ele>
        <time>2019-12-19T01:04:38Z</time>
      </trkpt>
      <trkpt lat="44.51642" lon="3.20218">
        <ele>931</ele>
        <time>2019-12-19T01:04:43Z</time>
      </trkpt>
      <trkpt lat="44.51632" lon="3.20323">
        <ele>931</ele>
        <time>2019-12-19T01:04:57Z</time>
      </trkpt>
      <trkpt lat="44.51647" lon="3.20375">
        <ele>929</ele>
        <time>2019-12-19T01:05:04Z</time>
      </trkpt>
      <trkpt lat="44.5169" lon="3.20461">
        <ele>927</ele>
        <time>2019-12-19T01:05:17Z</time>
      </trkpt>
      <trkpt lat="44.51695" lon="3.20481">
        <ele>927</ele>
        <time>2019-12-19T01:05:20Z</time>
      </trkpt>
      <trkpt lat="44.51703" lon="3.20542">
        <ele>924</ele>
        <time>2019-12-19T01:05:28Z</time>
      </trkpt>
      <trkpt lat="44.51705" lon="3.2064">
        <ele>916</ele>
        <time>2019-12-19T01:05:40Z</time>
      </trkpt>
      <trkpt lat="44.51708" lon="3.2066">
        <ele>915</ele>
        <time>2019-12-19T01:05:43Z</time>
      </trkpt>
      <trkpt lat="44.51714" lon="3.20681">
        <ele>913</ele>
        <time>2019-12-19T01:05:46Z</time>
      </trkpt>
      <trkpt lat="44.51722" lon="3.20696">
        <ele>913</ele>
        <time>2019-12-19T01:05:48Z</time>
      </trkpt>
      <trkpt lat="44.51738" lon="3.20716">
        <ele>913</ele>
        <time>2019-12-19T01:05:52Z</time>
      </trkpt>
      <trkpt lat="44.51752" lon="3.20722">
        <ele>914</ele>
        <time>2019-12-19T01:05:54Z</time>
      </trkpt>
      <trkpt lat="44.51789" lon="3.20727">
        <ele>914</ele>
        <time>2019-12-19T01:06:01Z</time>
      </trkpt>
      <trkpt lat="44.51805" lon="3.20722">
        <ele>915</ele>
        <time>2019-12-19T01:06:04Z</time>
      </trkpt>
      <trkpt lat="44.51868" lon="3.20694">
        <ele>921</ele>
        <time>2019-12-19T01:06:16Z</time>
      </trkpt>
      <trkpt lat="44.51891" lon="3.20695">
        <ele>920</ele>
        <time>2019-12-19T01:06:20Z</time>
      </trkpt>
      <trkpt lat="44.51895" lon="3.20701">
        <ele>920</ele>
        <time>2019-12-19T01:06:21Z</time>
      </trkpt>
      <trkpt lat="44.519" lon="3.20711">
        <ele>919</ele>
        <time>2019-12-19T01:06:22Z</time>
      </trkpt>
      <trkpt lat="44.519" lon="3.20724">
        <ele>917</ele>
        <time>2019-12-19T01:06:24Z</time>
      </trkpt>
      <trkpt lat="44.51898" lon="3.2074">
        <ele>916</ele>
        <time>2019-12-19T01:06:26Z</time>
      </trkpt>
      <trkpt lat="44.51863" lon="3.20798">
        <ele>912</ele>
        <time>2019-12-19T01:06:36Z</time>
      </trkpt>
      <trkpt lat="44.51827" lon="3.20885">
        <ele>907</ele>
        <time>2019-12-19T01:06:48Z</time>
      </trkpt>
      <trkpt lat="44.51812" lon="3.20906">
        <ele>906</ele>
        <time>2019-12-19T01:06:52Z</time>
      </trkpt>
      <trkpt lat="44.51787" lon="3.2093">
        <ele>904</ele>
        <time>2019-12-19T01:06:58Z</time>
      </trkpt>
      <trkpt lat="44.51549" lon="3.21102">
        <ele>893</ele>
        <time>2019-12-19T01:07:45Z</time>
      </trkpt>
      <trkpt lat="44.5154" lon="3.21095">
        <ele>893</ele>
        <time>2019-12-19T01:07:47Z</time>
      </trkpt>
      <trkpt lat="44.51527" lon="3.211">
        <ele>893</ele>
        <time>2019-12-19T01:07:50Z</time>
      </trkpt>
      <trkpt lat="44.51492" lon="3.21103">
        <ele>894</ele>
        <time>2019-12-19T01:07:56Z</time>
      </trkpt>
      <trkpt lat="44.51482" lon="3.21102">
        <ele>895</ele>
        <time>2019-12-19T01:07:58Z</time>
      </trkpt>
      <trkpt lat="44.51469" lon="3.21105">
        <ele>895</ele>
        <time>2019-12-19T01:08:00Z</time>
      </trkpt>
      <trkpt lat="44.51456" lon="3.21112">
        <ele>896</ele>
        <time>2019-12-19T01:08:02Z</time>
      </trkpt>
      <trkpt lat="44.51392" lon="3.21171">
        <ele>897</ele>
        <time>2019-12-19T01:08:16Z</time>
      </trkpt>
      <trkpt lat="44.51364" lon="3.21201">
        <ele>898</ele>
        <time>2019-12-19T01:08:22Z</time>
      </trkpt>
      <trkpt lat="44.5131" lon="3.21279">
        <ele>897</ele>
        <time>2019-12-19T01:08:36Z</time>
      </trkpt>
      <trkpt lat="44.51292" lon="3.21295">
        <ele>898</ele>
        <time>2019-12-19T01:08:40Z</time>
      </trkpt>
      <trkpt lat="44.51271" lon="3.21306">
        <ele>900</ele>
        <time>2019-12-19T01:08:44Z</time>
      </trkpt>
      <trkpt lat="44.51242" lon="3.21311">
        <ele>903</ele>
        <time>2019-12-19T01:08:49Z</time>
      </trkpt>
      <trkpt lat="44.5122" lon="3.21311">
        <ele>903</ele>
        <time>2019-12-19T01:08:53Z</time>
      </trkpt>
      <trkpt lat="44.51172" lon="3.21317">
        <ele>904</ele>
        <time>2019-12-19T01:09:02Z</time>
      </trkpt>
      <trkpt lat="44.51153" lon="3.21331">
        <ele>903</ele>
        <time>2019-12-19T01:09:05Z</time>
      </trkpt>
      <trkpt lat="44.51147" lon="3.21338">
        <ele>902</ele>
        <time>2019-12-19T01:09:07Z</time>
      </trkpt>
      <trkpt lat="44.51135" lon="3.21356">
        <ele>902</ele>
        <time>2019-12-19T01:09:10Z</time>
      </trkpt>
      <trkpt lat="44.51096" lon="3.21387">
        <ele>903</ele>
        <time>2019-12-19T01:09:18Z</time>
      </trkpt>
      <trkpt lat="44.51073" lon="3.21414">
        <ele>904</ele>
        <time>2019-12-19T01:09:23Z</time>
      </trkpt>
      <trkpt lat="44.51053" lon="3.21431">
        <ele>904</ele>
        <time>2019-12-19T01:09:27Z</time>
      </trkpt>
      <trkpt lat="44.51001" lon="3.21467">
        <ele>906</ele>
        <time>2019-12-19T01:09:38Z</time>
      </trkpt>
      <trkpt lat="44.5096" lon="3.21504">
        <ele>907</ele>
        <time>2019-12-19T01:09:46Z</time>
      </trkpt>
      <trkpt lat="44.50941" lon="3.21526">
        <ele>907</ele>
        <time>2019-12-19T01:09:51Z</time>
      </trkpt>
      <trkpt lat="44.509" lon="3.21613">
        <ele>903</ele>
        <time>2019-12-19T01:10:04Z</time>
      </trkpt>
      <trkpt lat="44.50888" lon="3.21629">
        <ele>901</ele>
        <time>2019-12-19T01:10:07Z</time>
      </trkpt>
      <trkpt lat="44.50881" lon="3.21643">
        <ele>899</ele>
        <time>2019-12-19T01:10:09Z</time>
      </trkpt>
      <trkpt lat="44.50865" lon="3.21691">
        <ele>895</ele>
        <time>2019-12-19T01:10:16Z</time>
      </trkpt>
      <trkpt lat="44.50862" lon="3.21749">
        <ele>892</ele>
        <time>2019-12-19T01:10:23Z</time>
      </trkpt>
      <trkpt lat="44.50856" lon="3.21809">
        <ele>888</ele>
        <time>2019-12-19T01:10:31Z</time>
      </trkpt>
      <trkpt lat="44.50848" lon="3.21956">
        <ele>875</ele>
        <time>2019-12-19T01:10:50Z</time>
      </trkpt>
      <trkpt lat="44.50844" lon="3.2198">
        <ele>873</ele>
        <time>2019-12-19T01:10:53Z</time>
      </trkpt>
      <trkpt lat="44.50853" lon="3.22025">
        <ele>868</ele>
        <time>2019-12-19T01:10:59Z</time>
      </trkpt>
      <trkpt lat="44.50856" lon="3.2205">
        <ele>866</ele>
        <time>2019-12-19T01:11:02Z</time>
      </trkpt>
      <trkpt lat="44.50857" lon="3.22066">
        <ele>865</ele>
        <time>2019-12-19T01:11:04Z</time>
      </trkpt>
      <trkpt lat="44.50852" lon="3.22089">
        <ele>864</ele>
        <time>2019-12-19T01:11:07Z</time>
      </trkpt>
      <trkpt lat="44.50816" lon="3.22183">
        <ele>863</ele>
        <time>2019-12-19T01:11:20Z</time>
      </trkpt>
      <trkpt lat="44.50798" lon="3.22221">
        <ele>862</ele>
        <time>2019-12-19T01:11:26Z</time>
      </trkpt>
      <trkpt lat="44.50786" lon="3.22262">
        <ele>862</ele>
        <time>2019-12-19T01:11:32Z</time>
      </trkpt>
      <trkpt lat="44.50776" lon="3.22308">
        <ele>861</ele>
        <time>2019-12-19T01:11:38Z</time>
      </trkpt>
      <trkpt lat="44.5075" lon="3.224">
        <ele>859</ele>
        <time>2019-12-19T01:11:51Z</time>
      </trkpt>
      <trkpt lat="44.50747" lon="3.22417">
        <ele>858</ele>
        <time>2019-12-19T01:11:53Z</time>
      </trkpt>
      <trkpt lat="44.50746" lon="3.22435">
        <ele>858</ele>
        <time>2019-12-19T01:11:55Z</time>
      </trkpt>
      <trkpt lat="44.5074" lon="3.22445">
        <ele>857</ele>
        <time>2019-12-19T01:11:57Z</time>
      </trkpt>
      <trkpt lat="44.50709" lon="3.22532">
        <ele>857</ele>
        <time>2019-12-19T01:12:09Z</time>
      </trkpt>
      <trkpt lat="44.50675" lon="3.22662">
        <ele>859</ele>
        <time>2019-12-19T01:12:27Z</time>
      </trkpt>
      <trkpt lat="44.50671" lon="3.22721">
        <ele>860</ele>
        <time>2019-12-19T01:12:34Z</time>
      </trkpt>
      <trkpt lat="44.50666" lon="3.22765">
        <ele>859</ele>
        <time>2019-12-19T01:12:40Z</time>
      </trkpt>
      <trkpt lat="44.50662" lon="3.22822">
        <ele>858</ele>
        <time>2019-12-19T01:12:47Z</time>
      </trkpt>
      <trkpt lat="44.50667" lon="3.22856">
        <ele>856</ele>
        <time>2019-12-19T01:12:51Z</time>
      </trkpt>
      <trkpt lat="44.50667" lon="3.22871">
        <ele>856</ele>
        <time>2019-12-19T01:12:53Z</time>
      </trkpt>
      <trkpt lat="44.50663" lon="3.22888">
        <ele>856</ele>
        <time>2019-12-19T01:12:56Z</time>
      </trkpt>
      <trkpt lat="44.50656" lon="3.22907">
        <ele>856</ele>
        <time>2019-12-19T01:12:58Z</time>
      </trkpt>
      <trkpt lat="44.50654" lon="3.22928">
        <ele>856</ele>
        <time>2019-12-19T01:13:01Z</time>
      </trkpt>
      <trkpt lat="44.50646" lon="3.23053">
        <ele>855</ele>
        <time>2019-12-19T01:13:17Z</time>
      </trkpt>
      <trkpt lat="44.50642" lon="3.23073">
        <ele>856</ele>
        <time>2019-12-19T01:13:20Z</time>
      </trkpt>
      <trkpt lat="44.50628" lon="3.23121">
        <ele>857</ele>
        <time>2019-12-19T01:13:26Z</time>
      </trkpt>
      <trkpt lat="44.50626" lon="3.23136">
        <ele>858</ele>
        <time>2019-12-19T01:13:28Z</time>
      </trkpt>
      <trkpt lat="44.50629" lon="3.23163">
        <ele>857</ele>
        <time>2019-12-19T01:13:32Z</time>
      </trkpt>
      <trkpt lat="44.50635" lon="3.23184">
        <ele>855</ele>
        <time>2019-12-19T01:13:34Z</time>
      </trkpt>
      <trkpt lat="44.50647" lon="3.23205">
        <ele>853</ele>
        <time>2019-12-19T01:13:38Z</time>
      </trkpt>
      <trkpt lat="44.50664" lon="3.23224">
        <ele>849</ele>
        <time>2019-12-19T01:13:42Z</time>
      </trkpt>
      <trkpt lat="44.50671" lon="3.23236">
        <ele>848</ele>
        <time>2019-12-19T01:13:44Z</time>
      </trkpt>
      <trkpt lat="44.50674" lon="3.23247">
        <ele>847</ele>
        <time>2019-12-19T01:13:45Z</time>
      </trkpt>
      <trkpt lat="44.50671" lon="3.23263">
        <ele>847</ele>
        <time>2019-12-19T01:13:47Z</time>
      </trkpt>
      <trkpt lat="44.50666" lon="3.23275">
        <ele>847</ele>
        <time>2019-12-19T01:13:49Z</time>
      </trkpt>
      <trkpt lat="44.50654" lon="3.23292">
        <ele>848</ele>
        <time>2019-12-19T01:13:52Z</time>
      </trkpt>
      <trkpt lat="44.5063" lon="3.23316">
        <ele>850</ele>
        <time>2019-12-19T01:13:57Z</time>
      </trkpt>
      <trkpt lat="44.50616" lon="3.23343">
        <ele>849</ele>
        <time>2019-12-19T01:14:02Z</time>
      </trkpt>
      <trkpt lat="44.50604" lon="3.2338">
        <ele>845</ele>
        <time>2019-12-19T01:14:07Z</time>
      </trkpt>
      <trkpt lat="44.506" lon="3.23402">
        <ele>841</ele>
        <time>2019-12-19T01:14:10Z</time>
      </trkpt>
      <trkpt lat="44.50593" lon="3.23414">
        <ele>840</ele>
        <time>2019-12-19T01:14:12Z</time>
      </trkpt>
      <trkpt lat="44.50577" lon="3.23423">
        <ele>840</ele>
        <time>2019-12-19T01:14:15Z</time>
      </trkpt>
      <trkpt lat="44.50548" lon="3.23431">
        <ele>843</ele>
        <time>2019-12-19T01:14:20Z</time>
      </trkpt>
      <trkpt lat="44.50532" lon="3.23441">
        <ele>845</ele>
        <time>2019-12-19T01:14:23Z</time>
      </trkpt>
      <trkpt lat="44.50517" lon="3.23461">
        <ele>845</ele>
        <time>2019-12-19T01:14:27Z</time>
      </trkpt>
      <trkpt lat="44.50505" lon="3.23486">
        <ele>845</ele>
        <time>2019-12-19T01:14:31Z</time>
      </trkpt>
      <trkpt lat="44.505" lon="3.23504">
        <ele>845</ele>
        <time>2019-12-19T01:14:33Z</time>
      </trkpt>
      <trkpt lat="44.50502" lon="3.23526">
        <ele>845</ele>
        <time>2019-12-19T01:14:36Z</time>
      </trkpt>
      <trkpt lat="44.50511" lon="3.23549">
        <ele>843</ele>
        <time>2019-12-19T01:14:39Z</time>
      </trkpt>
      <trkpt lat="44.50527" lon="3.23608">
        <ele>838</ele>
        <time>2019-12-19T01:14:47Z</time>
      </trkpt>
      <trkpt lat="44.50548" lon="3.23639">
        <ele>831</ele>
        <time>2019-12-19T01:14:53Z</time>
      </trkpt>
      <trkpt lat="44.50553" lon="3.23651">
        <ele>830</ele>
        <time>2019-12-19T01:14:54Z</time>
      </trkpt>
      <trkpt lat="44.50561" lon="3.23699">
        <ele>827</ele>
        <time>2019-12-19T01:15:01Z</time>
      </trkpt>
      <trkpt lat="44.50583" lon="3.23749">
        <ele>824</ele>
        <time>2019-12-19T01:15:08Z</time>
      </trkpt>
      <trkpt lat="44.50583" lon="3.23759">
        <ele>823</ele>
        <time>2019-12-19T01:15:09Z</time>
      </trkpt>
      <trkpt lat="44.50568" lon="3.23855">
        <ele>813</ele>
        <time>2019-12-19T01:15:22Z</time>
      </trkpt>
      <trkpt lat="44.50553" lon="3.23919">
        <ele>804</ele>
        <time>2019-12-19T01:15:30Z</time>
      </trkpt>
      <trkpt lat="44.50545" lon="3.23942">
        <ele>801</ele>
        <time>2019-12-19T01:15:34Z</time>
      </trkpt>
      <trkpt lat="44.50533" lon="3.23964">
        <ele>798</ele>
        <time>2019-12-19T01:15:37Z</time>
      </trkpt>
      <trkpt lat="44.50526" lon="3.23971">
        <ele>797</ele>
        <time>2019-12-19T01:15:39Z</time>
      </trkpt>
      <trkpt lat="44.50521" lon="3.23974">
        <ele>796</ele>
        <time>2019-12-19T01:15:40Z</time>
      </trkpt>
      <trkpt lat="44.50476" lon="3.23974">
        <ele>794</ele>
        <time>2019-12-19T01:15:48Z</time>
      </trkpt>
      <trkpt lat="44.5045" lon="3.23964">
        <ele>792</ele>
        <time>2019-12-19T01:15:52Z</time>
      </trkpt>
      <trkpt lat="44.50428" lon="3.2395">
        <ele>791</ele>
        <time>2019-12-19T01:15:57Z</time>
      </trkpt>
      <trkpt lat="44.50415" lon="3.23946">
        <ele>791</ele>
        <time>2019-12-19T01:15:59Z</time>
      </trkpt>
      <trkpt lat="44.50368" lon="3.23946">
        <ele>786</ele>
        <time>2019-12-19T01:16:07Z</time>
      </trkpt>
      <trkpt lat="44.50356" lon="3.23942">
        <ele>785</ele>
        <time>2019-12-19T01:16:10Z</time>
      </trkpt>
      <trkpt lat="44.50331" lon="3.23922">
        <ele>784</ele>
        <time>2019-12-19T01:16:15Z</time>
      </trkpt>
      <trkpt lat="44.5032" lon="3.23919">
        <ele>784</ele>
        <time>2019-12-19T01:16:17Z</time>
      </trkpt>
      <trkpt lat="44.50297" lon="3.23925">
        <ele>783</ele>
        <time>2019-12-19T01:16:21Z</time>
      </trkpt>
      <trkpt lat="44.50276" lon="3.23936">
        <ele>781</ele>
        <time>2019-12-19T01:16:25Z</time>
      </trkpt>
      <trkpt lat="44.50256" lon="3.23951">
        <ele>777</ele>
        <time>2019-12-19T01:16:29Z</time>
      </trkpt>
      <trkpt lat="44.50243" lon="3.23956">
        <ele>776</ele>
        <time>2019-12-19T01:16:31Z</time>
      </trkpt>
      <trkpt lat="44.5022" lon="3.23957">
        <ele>775</ele>
        <time>2019-12-19T01:16:35Z</time>
      </trkpt>
      <trkpt lat="44.5019" lon="3.23976">
        <ele>770</ele>
        <time>2019-12-19T01:16:41Z</time>
      </trkpt>
      <trkpt lat="44.50173" lon="3.23993">
        <ele>767</ele>
        <time>2019-12-19T01:16:45Z</time>
      </trkpt>
      <trkpt lat="44.50133" lon="3.24023">
        <ele>760</ele>
        <time>2019-12-19T01:16:53Z</time>
      </trkpt>
      <trkpt lat="44.50105" lon="3.24038">
        <ele>755</ele>
        <time>2019-12-19T01:16:58Z</time>
      </trkpt>
      <trkpt lat="44.50096" lon="3.24046">
        <ele>753</ele>
        <time>2019-12-19T01:17:00Z</time>
      </trkpt>
      <trkpt lat="44.50087" lon="3.2405">
        <ele>752</ele>
        <time>2019-12-19T01:17:02Z</time>
      </trkpt>
      <trkpt lat="44.50034" lon="3.24059">
        <ele>745</ele>
        <time>2019-12-19T01:17:11Z</time>
      </trkpt>
      <trkpt lat="44.50026" lon="3.24062">
        <ele>744</ele>
        <time>2019-12-19T01:17:13Z</time>
      </trkpt>
      <trkpt lat="44.49989" lon="3.24133">
        <ele>734</ele>
        <time>2019-12-19T01:17:24Z</time>
      </trkpt>
      <trkpt lat="44.4997" lon="3.2415">
        <ele>732</ele>
        <time>2019-12-19T01:17:28Z</time>
      </trkpt>
      <trkpt lat="44.4995" lon="3.24164">
        <ele>731</ele>
        <time>2019-12-19T01:17:32Z</time>
      </trkpt>
      <trkpt lat="44.49929" lon="3.24171">
        <ele>730</ele>
        <time>2019-12-19T01:17:36Z</time>
      </trkpt>
      <trkpt lat="44.49926" lon="3.24157">
        <ele>731</ele>
        <time>2019-12-19T01:17:38Z</time>
      </trkpt>
      <trkpt lat="44.49923" lon="3.24112">
        <ele>733</ele>
        <time>2019-12-19T01:17:43Z</time>
      </trkpt>
      <trkpt lat="44.49917" lon="3.24101">
        <ele>733</ele>
        <time>2019-12-19T01:17:45Z</time>
      </trkpt>
      <trkpt lat="44.49909" lon="3.24094">
        <ele>733</ele>
        <time>2019-12-19T01:17:47Z</time>
      </trkpt>
      <trkpt lat="44.49896" lon="3.24091">
        <ele>732</ele>
        <time>2019-12-19T01:17:49Z</time>
      </trkpt>
      <trkpt lat="44.49874" lon="3.24091">
        <ele>731</ele>
        <time>2019-12-19T01:17:53Z</time>
      </trkpt>
      <trkpt lat="44.49792" lon="3.24099">
        <ele>725</ele>
        <time>2019-12-19T01:18:08Z</time>
      </trkpt>
      <trkpt lat="44.49784" lon="3.241">
        <ele>724</ele>
        <time>2019-12-19T01:18:09Z</time>
      </trkpt>
      <trkpt lat="44.49775" lon="3.24096">
        <ele>723</ele>
        <time>2019-12-19T01:18:11Z</time>
      </trkpt>
      <trkpt lat="44.49733" lon="3.24074">
        <ele>720</ele>
        <time>2019-12-19T01:18:19Z</time>
      </trkpt>
      <trkpt lat="44.49659" lon="3.2404">
        <ele>713</ele>
        <time>2019-12-19T01:18:33Z</time>
      </trkpt>
      <trkpt lat="44.49633" lon="3.24032">
        <ele>709</ele>
        <time>2019-12-19T01:18:37Z</time>
      </trkpt>
      <trkpt lat="44.49609" lon="3.2403">
        <ele>705</ele>
        <time>2019-12-19T01:18:42Z</time>
      </trkpt>
      <trkpt lat="44.49571" lon="3.24034">
        <ele>702</ele>
        <time>2019-12-19T01:18:49Z</time>
      </trkpt>
      <trkpt lat="44.49513" lon="3.24025">
        <ele>696</ele>
        <time>2019-12-19T01:18:59Z</time>
      </trkpt>
      <trkpt lat="44.49484" lon="3.24022">
        <ele>694</ele>
        <time>2019-12-19T01:19:04Z</time>
      </trkpt>
      <trkpt lat="44.49408" lon="3.23979">
        <ele>682</ele>
        <time>2019-12-19T01:19:19Z</time>
      </trkpt>
      <trkpt lat="44.49396" lon="3.23975">
        <ele>680</ele>
        <time>2019-12-19T01:19:21Z</time>
      </trkpt>
      <trkpt lat="44.49315" lon="3.23969">
        <ele>670</ele>
        <time>2019-12-19T01:19:35Z</time>
      </trkpt>
      <trkpt lat="44.49243" lon="3.23981">
        <ele>660</ele>
        <time>2019-12-19T01:19:48Z</time>
      </trkpt>
      <trkpt lat="44.49212" lon="3.23994">
        <ele>655</ele>
        <time>2019-12-19T01:19:54Z</time>
      </trkpt>
      <trkpt lat="44.49204" lon="3.23994">
        <ele>653</ele>
        <time>2019-12-19T01:19:55Z</time>
      </trkpt>
      <trkpt lat="44.49192" lon="3.2399">
        <ele>651</ele>
        <time>2019-12-19T01:19:58Z</time>
      </trkpt>
      <trkpt lat="44.49185" lon="3.23982">
        <ele>650</ele>
        <time>2019-12-19T01:19:59Z</time>
      </trkpt>
      <trkpt lat="44.49157" lon="3.23972">
        <ele>645</ele>
        <time>2019-12-19T01:20:04Z</time>
      </trkpt>
      <trkpt lat="44.49136" lon="3.23961">
        <ele>643</ele>
        <time>2019-12-19T01:20:08Z</time>
      </trkpt>
      <trkpt lat="44.49126" lon="3.23951">
        <ele>642</ele>
        <time>2019-12-19T01:20:11Z</time>
      </trkpt>
      <trkpt lat="44.49108" lon="3.23922">
        <ele>642</ele>
        <time>2019-12-19T01:20:15Z</time>
      </trkpt>
      <trkpt lat="44.49099" lon="3.23916">
        <ele>642</ele>
        <time>2019-12-19T01:20:17Z</time>
      </trkpt>
      <trkpt lat="44.49086" lon="3.23915">
        <ele>640</ele>
        <time>2019-12-19T01:20:19Z</time>
      </trkpt>
      <trkpt lat="44.49076" lon="3.23918">
        <ele>638</ele>
        <time>2019-12-19T01:20:21Z</time>
      </trkpt>
      <trkpt lat="44.49064" lon="3.23956">
        <ele>631</ele>
        <time>2019-12-19T01:20:27Z</time>
      </trkpt>
      <trkpt lat="44.49065" lon="3.23972">
        <ele>630</ele>
        <time>2019-12-19T01:20:29Z</time>
      </trkpt>
      <trkpt lat="44.49069" lon="3.23981">
        <ele>630</ele>
        <time>2019-12-19T01:20:30Z</time>
      </trkpt>
      <trkpt lat="44.49076" lon="3.23991">
        <ele>631</ele>
        <time>2019-12-19T01:20:32Z</time>
      </trkpt>
      <trkpt lat="44.4909" lon="3.24002">
        <ele>634</ele>
        <time>2019-12-19T01:20:35Z</time>
      </trkpt>
      <trkpt lat="44.49112" lon="3.24015">
        <ele>636</ele>
        <time>2019-12-19T01:20:39Z</time>
      </trkpt>
      <trkpt lat="44.49142" lon="3.2402">
        <ele>641</ele>
        <time>2019-12-19T01:20:44Z</time>
      </trkpt>
      <trkpt lat="44.49151" lon="3.24023">
        <ele>643</ele>
        <time>2019-12-19T01:20:46Z</time>
      </trkpt>
      <trkpt lat="44.49157" lon="3.24032">
        <ele>644</ele>
        <time>2019-12-19T01:20:47Z</time>
      </trkpt>
      <trkpt lat="44.4916" lon="3.24044">
        <ele>644</ele>
        <time>2019-12-19T01:20:49Z</time>
      </trkpt>
      <trkpt lat="44.4916" lon="3.24057">
        <ele>644</ele>
        <time>2019-12-19T01:20:51Z</time>
      </trkpt>
      <trkpt lat="44.49157" lon="3.24067">
        <ele>643</ele>
        <time>2019-12-19T01:20:52Z</time>
      </trkpt>
      <trkpt lat="44.49143" lon="3.24083">
        <ele>638</ele>
        <time>2019-12-19T01:20:55Z</time>
      </trkpt>
      <trkpt lat="44.491" lon="3.2412">
        <ele>629</ele>
        <time>2019-12-19T01:21:04Z</time>
      </trkpt>
      <trkpt lat="44.49089" lon="3.24136">
        <ele>627</ele>
        <time>2019-12-19T01:21:07Z</time>
      </trkpt>
      <trkpt lat="44.4908" lon="3.24155">
        <ele>625</ele>
        <time>2019-12-19T01:21:10Z</time>
      </trkpt>
      <trkpt lat="44.49072" lon="3.24176">
        <ele>623</ele>
        <time>2019-12-19T01:21:13Z</time>
      </trkpt>
      <trkpt lat="44.49067" lon="3.24199">
        <ele>622</ele>
        <time>2019-12-19T01:21:16Z</time>
      </trkpt>
      <trkpt lat="44.49067" lon="3.24235">
        <ele>624</ele>
        <time>2019-12-19T01:21:21Z</time>
      </trkpt>
      <trkpt lat="44.4906" lon="3.24275">
        <ele>621</ele>
        <time>2019-12-19T01:21:26Z</time>
      </trkpt>
      <trkpt lat="44.49059" lon="3.24297">
        <ele>621</ele>
        <time>2019-12-19T01:21:29Z</time>
      </trkpt>
      <trkpt lat="44.49044" lon="3.2437">
        <ele>612</ele>
        <time>2019-12-19T01:21:38Z</time>
      </trkpt>
      <trkpt lat="44.49042" lon="3.24413">
        <ele>609</ele>
        <time>2019-12-19T01:21:44Z</time>
      </trkpt>
      <trkpt lat="44.49046" lon="3.24445">
        <ele>605</ele>
        <time>2019-12-19T01:21:48Z</time>
      </trkpt>
      <trkpt lat="44.49049" lon="3.24454">
        <ele>605</ele>
        <time>2019-12-19T01:21:49Z</time>
      </trkpt>
      <trkpt lat="44.49052" lon="3.2446">
        <ele>604</ele>
        <time>2019-12-19T01:21:50Z</time>
      </trkpt>
      <trkpt lat="44.49117" lon="3.24492">
        <ele>610</ele>
        <time>2019-12-19T01:22:02Z</time>
      </trkpt>
      <trkpt lat="44.49158" lon="3.24529">
        <ele>610</ele>
        <time>2019-12-19T01:22:11Z</time>
      </trkpt>
      <trkpt lat="44.49168" lon="3.24536">
        <ele>610</ele>
        <time>2019-12-19T01:22:13Z</time>
      </trkpt>
      <trkpt lat="44.49188" lon="3.24545">
        <ele>613</ele>
        <time>2019-12-19T01:22:17Z</time>
      </trkpt>
      <trkpt lat="44.49193" lon="3.24549">
        <ele>612</ele>
        <time>2019-12-19T01:22:18Z</time>
      </trkpt>
      <trkpt lat="44.49196" lon="3.24559">
        <ele>609</ele>
        <time>2019-12-19T01:22:19Z</time>
      </trkpt>
      <trkpt lat="44.49154" lon="3.24538">
        <ele>606</ele>
        <time>2019-12-19T01:22:27Z</time>
      </trkpt>
      <trkpt lat="44.49125" lon="3.24514">
        <ele>606</ele>
        <time>2019-12-19T01:22:33Z</time>
      </trkpt>
      <trkpt lat="44.49103" lon="3.24507">
        <ele>602</ele>
        <time>2019-12-19T01:22:37Z</time>
      </trkpt>
      <trkpt lat="44.4907" lon="3.24507">
        <ele>596</ele>
        <time>2019-12-19T01:22:43Z</time>
      </trkpt>
      <trkpt lat="44.49068" lon="3.24526">
        <ele>595</ele>
        <time>2019-12-19T01:22:45Z</time>
      </trkpt>
      <trkpt lat="44.49064" lon="3.24568">
        <ele>594</ele>
        <time>2019-12-19T01:22:51Z</time>
      </trkpt>
      <trkpt lat="44.49065" lon="3.24586">
        <ele>593</ele>
        <time>2019-12-19T01:22:53Z</time>
      </trkpt>
      <trkpt lat="44.4907" lon="3.24604">
        <ele>594</ele>
        <time>2019-12-19T01:22:56Z</time>
      </trkpt>
      <trkpt lat="44.49109" lon="3.24692">
        <ele>599</ele>
        <time>2019-12-19T01:23:09Z</time>
      </trkpt>
      <trkpt lat="44.49118" lon="3.24724">
        <ele>603</ele>
        <time>2019-12-19T01:23:13Z</time>
      </trkpt>
      <trkpt lat="44.4912" lon="3.24753">
        <ele>606</ele>
        <time>2019-12-19T01:23:17Z</time>
      </trkpt>
      <trkpt lat="44.49119" lon="3.24773">
        <ele>608</ele>
        <time>2019-12-19T01:23:19Z</time>
      </trkpt>
      <trkpt lat="44.49114" lon="3.24796">
        <ele>609</ele>
        <time>2019-12-19T01:23:22Z</time>
      </trkpt>
      <trkpt lat="44.49102" lon="3.24826">
        <ele>606</ele>
        <time>2019-12-19T01:23:27Z</time>
      </trkpt>
      <trkpt lat="44.49041" lon="3.24969">
        <ele>613</ele>
        <time>2019-12-19T01:23:48Z</time>
      </trkpt>
      <trkpt lat="44.49005" lon="3.25043">
        <ele>608</ele>
        <time>2019-12-19T01:23:59Z</time>
      </trkpt>
      <trkpt lat="44.48971" lon="3.25092">
        <ele>611</ele>
        <time>2019-12-19T01:24:08Z</time>
      </trkpt>
      <trkpt lat="44.48918" lon="3.25146">
        <ele>605</ele>
        <time>2019-12-19T01:24:20Z</time>
      </trkpt>
      <trkpt lat="44.48884" lon="3.25206">
        <ele>614</ele>
        <time>2019-12-19T01:24:29Z</time>
      </trkpt>
      <trkpt lat="44.48848" lon="3.25257">
        <ele>611</ele>
        <time>2019-12-19T01:24:38Z</time>
      </trkpt>
      <trkpt lat="44.48803" lon="3.25303">
        <ele>617</ele>
        <time>2019-12-19T01:24:48Z</time>
      </trkpt>
      <trkpt lat="44.48778" lon="3.2532">
        <ele>616</ele>
        <time>2019-12-19T01:24:53Z</time>
      </trkpt>
      <trkpt lat="44.48754" lon="3.25323">
        <ele>613</ele>
        <time>2019-12-19T01:24:58Z</time>
      </trkpt>
      <trkpt lat="44.48662" lon="3.2532">
        <ele>606</ele>
        <time>2019-12-19T01:25:14Z</time>
      </trkpt>
      <trkpt lat="44.48637" lon="3.25324">
        <ele>605</ele>
        <time>2019-12-19T01:25:18Z</time>
      </trkpt>
      <trkpt lat="44.48608" lon="3.25335">
        <ele>603</ele>
        <time>2019-12-19T01:25:24Z</time>
      </trkpt>
      <trkpt lat="44.48558" lon="3.25361">
        <ele>606</ele>
        <time>2019-12-19T01:25:33Z</time>
      </trkpt>
      <trkpt lat="44.48533" lon="3.25378">
        <ele>607</ele>
        <time>2019-12-19T01:25:38Z</time>
      </trkpt>
      <trkpt lat="44.48514" lon="3.25402">
        <ele>606</ele>
        <time>2019-12-19T01:25:43Z</time>
      </trkpt>
      <trkpt lat="44.48498" lon="3.25432">
        <ele>605</ele>
        <time>2019-12-19T01:25:47Z</time>
      </trkpt>
      <trkpt lat="44.48488" lon="3.25466">
        <ele>609</ele>
        <time>2019-12-19T01:25:52Z</time>
      </trkpt>
      <trkpt lat="44.48485" lon="3.25507">
        <ele>612</ele>
        <time>2019-12-19T01:25:57Z</time>
      </trkpt>
      <trkpt lat="44.48488" lon="3.25545">
        <ele>611</ele>
        <time>2019-12-19T01:26:02Z</time>
      </trkpt>
      <trkpt lat="44.48498" lon="3.25584">
        <ele>609</ele>
        <time>2019-12-19T01:26:07Z</time>
      </trkpt>
      <trkpt lat="44.4851" lon="3.25615">
        <ele>611</ele>
        <time>2019-12-19T01:26:12Z</time>
      </trkpt>
      <trkpt lat="44.4853" lon="3.25641">
        <ele>612</ele>
        <time>2019-12-19T01:26:17Z</time>
      </trkpt>
      <trkpt lat="44.48552" lon="3.25663">
        <ele>610</ele>
        <time>2019-12-19T01:26:22Z</time>
      </trkpt>
      <trkpt lat="44.48577" lon="3.25675">
        <ele>609</ele>
        <time>2019-12-19T01:26:26Z</time>
      </trkpt>
      <trkpt lat="44.48604" lon="3.2568">
        <ele>609</ele>
        <time>2019-12-19T01:26:31Z</time>
      </trkpt>
      <trkpt lat="44.48633" lon="3.25675">
        <ele>609</ele>
        <time>2019-12-19T01:26:36Z</time>
      </trkpt>
      <trkpt lat="44.48661" lon="3.2566">
        <ele>610</ele>
        <time>2019-12-19T01:26:42Z</time>
      </trkpt>
      <trkpt lat="44.48821" lon="3.25554">
        <ele>618</ele>
        <time>2019-12-19T01:27:13Z</time>
      </trkpt>
      <trkpt lat="44.48846" lon="3.25545">
        <ele>620</ele>
        <time>2019-12-19T01:27:18Z</time>
      </trkpt>
      <trkpt lat="44.48868" lon="3.25543">
        <ele>621</ele>
        <time>2019-12-19T01:27:22Z</time>
      </trkpt>
      <trkpt lat="44.48911" lon="3.25553">
        <ele>618</ele>
        <time>2019-12-19T01:27:29Z</time>
      </trkpt>
      <trkpt lat="44.48937" lon="3.25563">
        <ele>618</ele>
        <time>2019-12-19T01:27:34Z</time>
      </trkpt>
      <trkpt lat="44.49032" lon="3.2561">
        <ele>619</ele>
        <time>2019-12-19T01:27:52Z</time>
      </trkpt>
      <trkpt lat="44.49074" lon="3.25628">
        <ele>616</ele>
        <time>2019-12-19T01:28:00Z</time>
      </trkpt>
      <trkpt lat="44.49104" lon="3.25632">
        <ele>614</ele>
        <time>2019-12-19T01:28:05Z</time>
      </trkpt>
      <trkpt lat="44.49126" lon="3.25627">
        <ele>614</ele>
        <time>2019-12-19T01:28:09Z</time>
      </trkpt>
      <trkpt lat="44.49155" lon="3.25608">
        <ele>616</ele>
        <time>2019-12-19T01:28:15Z</time>
      </trkpt>
      <trkpt lat="44.49177" lon="3.25579">
        <ele>619</ele>
        <time>2019-12-19T01:28:20Z</time>
      </trkpt>
      <trkpt lat="44.49219" lon="3.25506">
        <ele>624</ele>
        <time>2019-12-19T01:28:32Z</time>
      </trkpt>
      <trkpt lat="44.49251" lon="3.25447">
        <ele>625</ele>
        <time>2019-12-19T01:28:42Z</time>
      </trkpt>
      <trkpt lat="44.49277" lon="3.25407">
        <ele>630</ele>
        <time>2019-12-19T01:28:49Z</time>
      </trkpt>
      <trkpt lat="44.49303" lon="3.25383">
        <ele>635</ele>
        <time>2019-12-19T01:28:54Z</time>
      </trkpt>
      <trkpt lat="44.49326" lon="3.25371">
        <ele>636</ele>
        <time>2019-12-19T01:28:58Z</time>
      </trkpt>
      <trkpt lat="44.49351" lon="3.25369">
        <ele>636</ele>
        <time>2019-12-19T01:29:03Z</time>
      </trkpt>
      <trkpt lat="44.49377" lon="3.25381">
        <ele>631</ele>
        <time>2019-12-19T01:29:08Z</time>
      </trkpt>
      <trkpt lat="44.494" lon="3.25403">
        <ele>622</ele>
        <time>2019-12-19T01:29:13Z</time>
      </trkpt>
      <trkpt lat="44.49421" lon="3.2543">
        <ele>616</ele>
        <time>2019-12-19T01:29:18Z</time>
      </trkpt>
      <trkpt lat="44.4944" lon="3.25471">
        <ele>617</ele>
        <time>2019-12-19T01:29:24Z</time>
      </trkpt>
      <trkpt lat="44.49471" lon="3.25555">
        <ele>617</ele>
        <time>2019-12-19T01:29:36Z</time>
      </trkpt>
      <trkpt lat="44.49507" lon="3.25673">
        <ele>613</ele>
        <time>2019-12-19T01:29:52Z</time>
      </trkpt>
      <trkpt lat="44.49528" lon="3.25732">
        <ele>614</ele>
        <time>2019-12-19T01:30:01Z</time>
      </trkpt>
      <trkpt lat="44.49545" lon="3.25772">
        <ele>615</ele>
        <time>2019-12-19T01:30:07Z</time>
      </trkpt>
      <trkpt lat="44.49567" lon="3.25807">
        <ele>614</ele>
        <time>2019-12-19T01:30:13Z</time>
      </trkpt>
      <trkpt lat="44.49595" lon="3.25838">
        <ele>611</ele>
        <time>2019-12-19T01:30:19Z</time>
      </trkpt>
      <trkpt lat="44.49627" lon="3.25859">
        <ele>617</ele>
        <time>2019-12-19T01:30:25Z</time>
      </trkpt>
      <trkpt lat="44.49662" lon="3.25872">
        <ele>618</ele>
        <time>2019-12-19T01:30:32Z</time>
      </trkpt>
      <trkpt lat="44.49777" lon="3.25896">
        <ele>620</ele>
        <time>2019-12-19T01:30:52Z</time>
      </trkpt>
      <trkpt lat="44.49831" lon="3.2591">
        <ele>620</ele>
        <time>2019-12-19T01:31:02Z</time>
      </trkpt>
      <trkpt lat="44.4987" lon="3.25924">
        <ele>621</ele>
        <time>2019-12-19T01:31:09Z</time>
      </trkpt>
      <trkpt lat="44.49912" lon="3.25947">
        <ele>620</ele>
        <time>2019-12-19T01:31:17Z</time>
      </trkpt>
      <trkpt lat="44.49956" lon="3.25979">
        <ele>622</ele>
        <time>2019-12-19T01:31:26Z</time>
      </trkpt>
      <trkpt lat="44.49979" lon="3.26005">
        <ele>620</ele>
        <time>2019-12-19T01:31:31Z</time>
      </trkpt>
      <trkpt lat="44.49993" lon="3.26031">
        <ele>619</ele>
        <time>2019-12-19T01:31:35Z</time>
      </trkpt>
      <trkpt lat="44.50003" lon="3.26054">
        <ele>619</ele>
        <time>2019-12-19T01:31:39Z</time>
      </trkpt>
      <trkpt lat="44.50013" lon="3.26091">
        <ele>622</ele>
        <time>2019-12-19T01:31:44Z</time>
      </trkpt>
      <trkpt lat="44.50022" lon="3.26126">
        <ele>626</ele>
        <time>2019-12-19T01:31:49Z</time>
      </trkpt>
      <trkpt lat="44.50028" lon="3.26161">
        <ele>628</ele>
        <time>2019-12-19T01:31:53Z</time>
      </trkpt>
      <trkpt lat="44.50026" lon="3.26193">
        <ele>629</ele>
        <time>2019-12-19T01:31:57Z</time>
      </trkpt>
      <trkpt lat="44.50019" lon="3.2622">
        <ele>627</ele>
        <time>2019-12-19T01:32:01Z</time>
      </trkpt>
      <trkpt lat="44.50005" lon="3.26245">
        <ele>620</ele>
        <time>2019-12-19T01:32:05Z</time>
      </trkpt>
      <trkpt lat="44.49988" lon="3.2627">
        <ele>621</ele>
        <time>2019-12-19T01:32:09Z</time>
      </trkpt>
      <trkpt lat="44.49971" lon="3.26289">
        <ele>623</ele>
        <time>2019-12-19T01:32:13Z</time>
      </trkpt>
      <trkpt lat="44.49952" lon="3.26305">
        <ele>623</ele>
        <time>2019-12-19T01:32:17Z</time>
      </trkpt>
      <trkpt lat="44.49929" lon="3.26315">
        <ele>620</ele>
        <time>2019-12-19T01:32:21Z</time>
      </trkpt>
      <trkpt lat="44.49907" lon="3.26316">
        <ele>617</ele>
        <time>2019-12-19T01:32:25Z</time>
      </trkpt>
      <trkpt lat="44.49885" lon="3.26313">
        <ele>615</ele>
        <time>2019-12-19T01:32:29Z</time>
      </trkpt>
      <trkpt lat="44.49848" lon="3.26296">
        <ele>611</ele>
        <time>2019-12-19T01:32:36Z</time>
      </trkpt>
      <trkpt lat="44.49823" lon="3.26287">
        <ele>611</ele>
        <time>2019-12-19T01:32:41Z</time>
      </trkpt>
      <trkpt lat="44.49746" lon="3.26251">
        <ele>613</ele>
        <time>2019-12-19T01:32:55Z</time>
      </trkpt>
      <trkpt lat="44.4973" lon="3.26249">
        <ele>613</ele>
        <time>2019-12-19T01:32:58Z</time>
      </trkpt>
      <trkpt lat="44.49717" lon="3.26252">
        <ele>612</ele>
        <time>2019-12-19T01:33:00Z</time>
      </trkpt>
      <trkpt lat="44.49705" lon="3.26258">
        <ele>612</ele>
        <time>2019-12-19T01:33:03Z</time>
      </trkpt>
      <trkpt lat="44.49694" lon="3.26266">
        <ele>613</ele>
        <time>2019-12-19T01:33:05Z</time>
      </trkpt>
      <trkpt lat="44.49674" lon="3.26293">
        <ele>615</ele>
        <time>2019-12-19T01:33:10Z</time>
      </trkpt>
      <trkpt lat="44.49663" lon="3.26317">
        <ele>617</ele>
        <time>2019-12-19T01:33:13Z</time>
      </trkpt>
      <trkpt lat="44.4965" lon="3.26328">
        <ele>617</ele>
        <time>2019-12-19T01:33:16Z</time>
      </trkpt>
      <trkpt lat="44.49647" lon="3.26334">
        <ele>618</ele>
        <time>2019-12-19T01:33:17Z</time>
      </trkpt>
      <trkpt lat="44.49638" lon="3.2634">
        <ele>619</ele>
        <time>2019-12-19T01:33:19Z</time>
      </trkpt>
      <trkpt lat="44.49611" lon="3.26344">
        <ele>619</ele>
        <time>2019-12-19T01:33:24Z</time>
      </trkpt>
      <trkpt lat="44.49509" lon="3.26336">
        <ele>620</ele>
        <time>2019-12-19T01:33:42Z</time>
      </trkpt>
      <trkpt lat="44.49485" lon="3.26327">
        <ele>623</ele>
        <time>2019-12-19T01:33:46Z</time>
      </trkpt>
      <trkpt lat="44.49466" lon="3.26316">
        <ele>626</ele>
        <time>2019-12-19T01:33:50Z</time>
      </trkpt>
      <trkpt lat="44.49443" lon="3.26296">
        <ele>626</ele>
        <time>2019-12-19T01:33:55Z</time>
      </trkpt>
      <trkpt lat="44.49384" lon="3.26239">
        <ele>622</ele>
        <time>2019-12-19T01:34:08Z</time>
      </trkpt>
      <trkpt lat="44.49368" lon="3.26229">
        <ele>622</ele>
        <time>2019-12-19T01:34:11Z</time>
      </trkpt>
      <trkpt lat="44.49349" lon="3.26223">
        <ele>624</ele>
        <time>2019-12-19T01:34:14Z</time>
      </trkpt>
      <trkpt lat="44.4933" lon="3.26222">
        <ele>625</ele>
        <time>2019-12-19T01:34:17Z</time>
      </trkpt>
      <trkpt lat="44.49314" lon="3.26225">
        <ele>624</ele>
        <time>2019-12-19T01:34:20Z</time>
      </trkpt>
      <trkpt lat="44.49301" lon="3.26229">
        <ele>624</ele>
        <time>2019-12-19T01:34:23Z</time>
      </trkpt>
      <trkpt lat="44.49286" lon="3.26238">
        <ele>623</ele>
        <time>2019-12-19T01:34:26Z</time>
      </trkpt>
      <trkpt lat="44.4927" lon="3.26251">
        <ele>623</ele>
        <time>2019-12-19T01:34:29Z</time>
      </trkpt>
      <trkpt lat="44.49256" lon="3.26269">
        <ele>623</ele>
        <time>2019-12-19T01:34:32Z</time>
      </trkpt>
      <trkpt lat="44.49242" lon="3.26291">
        <ele>623</ele>
        <time>2019-12-19T01:34:36Z</time>
      </trkpt>
      <trkpt lat="44.49234" lon="3.26314">
        <ele>624</ele>
        <time>2019-12-19T01:34:39Z</time>
      </trkpt>
      <trkpt lat="44.49223" lon="3.2635">
        <ele>625</ele>
        <time>2019-12-19T01:34:44Z</time>
      </trkpt>
      <trkpt lat="44.49176" lon="3.2655">
        <ele>624</ele>
        <time>2019-12-19T01:35:11Z</time>
      </trkpt>
      <trkpt lat="44.49162" lon="3.26592">
        <ele>623</ele>
        <time>2019-12-19T01:35:17Z</time>
      </trkpt>
      <trkpt lat="44.49151" lon="3.26615">
        <ele>626</ele>
        <time>2019-12-19T01:35:20Z</time>
      </trkpt>
      <trkpt lat="44.49138" lon="3.26639">
        <ele>627</ele>
        <time>2019-12-19T01:35:24Z</time>
      </trkpt>
      <trkpt lat="44.49124" lon="3.26662">
        <ele>626</ele>
        <time>2019-12-19T01:35:28Z</time>
      </trkpt>
      <trkpt lat="44.49064" lon="3.2673">
        <ele>623</ele>
        <time>2019-12-19T01:35:42Z</time>
      </trkpt>
      <trkpt lat="44.49047" lon="3.26755">
        <ele>623</ele>
        <time>2019-12-19T01:35:46Z</time>
      </trkpt>
      <trkpt lat="44.49033" lon="3.26786">
        <ele>625</ele>
        <time>2019-12-19T01:35:51Z</time>
      </trkpt>
      <trkpt lat="44.49015" lon="3.2684">
        <ele>625</ele>
        <time>2019-12-19T01:35:58Z</time>
      </trkpt>
      <trkpt lat="44.48999" lon="3.26872">
        <ele>624</ele>
        <time>2019-12-19T01:36:03Z</time>
      </trkpt>
      <trkpt lat="44.48974" lon="3.2691">
        <ele>625</ele>
        <time>2019-12-19T01:36:10Z</time>
      </trkpt>
      <trkpt lat="44.48919" lon="3.26983">
        <ele>622</ele>
        <time>2019-12-19T01:36:23Z</time>
      </trkpt>
      <trkpt lat="44.48895" lon="3.27018">
        <ele>623</ele>
        <time>2019-12-19T01:36:30Z</time>
      </trkpt>
      <trkpt lat="44.48856" lon="3.27088">
        <ele>622</ele>
        <time>2019-12-19T01:36:41Z</time>
      </trkpt>
      <trkpt lat="44.48836" lon="3.27129">
        <ele>623</ele>
        <time>2019-12-19T01:36:47Z</time>
      </trkpt>
      <trkpt lat="44.4882" lon="3.27159">
        <ele>624</ele>
        <time>2019-12-19T01:36:52Z</time>
      </trkpt>
      <trkpt lat="44.48804" lon="3.27184">
        <ele>625</ele>
        <time>2019-12-19T01:36:56Z</time>
      </trkpt>
      <trkpt lat="44.48791" lon="3.27199">
        <ele>626</ele>
        <time>2019-12-19T01:36:59Z</time>
      </trkpt>
      <trkpt lat="44.4876" lon="3.27229">
        <ele>623</ele>
        <time>2019-12-19T01:37:06Z</time>
      </trkpt>
      <trkpt lat="44.4873" lon="3.27248">
        <ele>622</ele>
        <time>2019-12-19T01:37:12Z</time>
      </trkpt>
      <trkpt lat="44.48694" lon="3.27263">
        <ele>622</ele>
        <time>2019-12-19T01:37:18Z</time>
      </trkpt>
      <trkpt lat="44.48578" lon="3.27307">
        <ele>620</ele>
        <time>2019-12-19T01:37:40Z</time>
      </trkpt>
      <trkpt lat="44.48544" lon="3.27325">
        <ele>620</ele>
        <time>2019-12-19T01:37:46Z</time>
      </trkpt>
      <trkpt lat="44.48519" lon="3.27341">
        <ele>620</ele>
        <time>2019-12-19T01:37:51Z</time>
      </trkpt>
      <trkpt lat="44.48484" lon="3.27376">
        <ele>619</ele>
        <time>2019-12-19T01:37:59Z</time>
      </trkpt>
      <trkpt lat="44.48463" lon="3.27411">
        <ele>620</ele>
        <time>2019-12-19T01:38:05Z</time>
      </trkpt>
      <trkpt lat="44.48441" lon="3.27457">
        <ele>621</ele>
        <time>2019-12-19T01:38:12Z</time>
      </trkpt>
      <trkpt lat="44.48424" lon="3.27505">
        <ele>622</ele>
        <time>2019-12-19T01:38:18Z</time>
      </trkpt>
      <trkpt lat="44.48362" lon="3.27706">
        <ele>626</ele>
        <time>2019-12-19T01:38:46Z</time>
      </trkpt>
      <trkpt lat="44.48354" lon="3.27726">
        <ele>625</ele>
        <time>2019-12-19T01:38:49Z</time>
      </trkpt>
      <trkpt lat="44.48349" lon="3.27744">
        <ele>625</ele>
        <time>2019-12-19T01:38:52Z</time>
      </trkpt>
      <trkpt lat="44.48337" lon="3.27829">
        <ele>625</ele>
        <time>2019-12-19T01:39:03Z</time>
      </trkpt>
      <trkpt lat="44.4833" lon="3.2783">
        <ele>623</ele>
        <time>2019-12-19T01:39:04Z</time>
      </trkpt>
      <trkpt lat="44.48328" lon="3.27835">
        <ele>623</ele>
        <time>2019-12-19T01:39:05Z</time>
      </trkpt>
      <trkpt lat="44.48327" lon="3.27863">
        <ele>624</ele>
        <time>2019-12-19T01:39:08Z</time>
      </trkpt>
      <trkpt lat="44.48323" lon="3.27886">
        <ele>624</ele>
        <time>2019-12-19T01:39:11Z</time>
      </trkpt>
      <trkpt lat="44.48322" lon="3.2793">
        <ele>624</ele>
        <time>2019-12-19T01:39:17Z</time>
      </trkpt>
      <trkpt lat="44.48327" lon="3.27982">
        <ele>624</ele>
        <time>2019-12-19T01:39:23Z</time>
      </trkpt>
      <trkpt lat="44.48305" lon="3.27991">
        <ele>621</ele>
        <time>2019-12-19T01:39:27Z</time>
      </trkpt>
      <trkpt lat="44.48286" lon="3.27996">
        <ele>619</ele>
        <time>2019-12-19T01:39:31Z</time>
      </trkpt>
      <trkpt lat="44.48259" lon="3.28002">
        <ele>617</ele>
        <time>2019-12-19T01:39:36Z</time>
      </trkpt>
      <trkpt lat="44.48245" lon="3.28">
        <ele>616</ele>
        <time>2019-12-19T01:39:38Z</time>
      </trkpt>
      <trkpt lat="44.48215" lon="3.27991">
        <ele>616</ele>
        <time>2019-12-19T01:39:44Z</time>
      </trkpt>
      <trkpt lat="44.4821" lon="3.27989">
        <ele>616</ele>
        <time>2019-12-19T01:39:45Z</time>
      </trkpt>
      <trkpt lat="44.48208" lon="3.2801">
        <ele>616</ele>
        <time>2019-12-19T01:39:47Z</time>
      </trkpt>
      <trkpt lat="44.48203" lon="3.28058">
        <ele>615</ele>
        <time>2019-12-19T01:39:53Z</time>
      </trkpt>
      <trkpt lat="44.48205" lon="3.28086">
        <ele>615</ele>
        <time>2019-12-19T01:39:57Z</time>
      </trkpt>
      <trkpt lat="44.48221" lon="3.28181">
        <ele>614</ele>
        <time>2019-12-19T01:40:09Z</time>
      </trkpt>
      <trkpt lat="44.48237" lon="3.28245">
        <ele>615</ele>
        <time>2019-12-19T01:40:18Z</time>
      </trkpt>
      <trkpt lat="44.48247" lon="3.28273">
        <ele>616</ele>
        <time>2019-12-19T01:40:22Z</time>
      </trkpt>
      <trkpt lat="44.48285" lon="3.28353">
        <ele>616</ele>
        <time>2019-12-19T01:40:34Z</time>
      </trkpt>
      <trkpt lat="44.48318" lon="3.28411">
        <ele>616</ele>
        <time>2019-12-19T01:40:44Z</time>
      </trkpt>
      <trkpt lat="44.4833" lon="3.28437">
        <ele>616</ele>
        <time>2019-12-19T01:40:48Z</time>
      </trkpt>
      <trkpt lat="44.48339" lon="3.28468">
        <ele>616</ele>
        <time>2019-12-19T01:40:52Z</time>
      </trkpt>
      <trkpt lat="44.48348" lon="3.28523">
        <ele>616</ele>
        <time>2019-12-19T01:40:59Z</time>
      </trkpt>
      <trkpt lat="44.48368" lon="3.28582">
        <ele>616</ele>
        <time>2019-12-19T01:41:07Z</time>
      </trkpt>
      <trkpt lat="44.48398" lon="3.28659">
        <ele>617</ele>
        <time>2019-12-19T01:41:18Z</time>
      </trkpt>
      <trkpt lat="44.48411" lon="3.28703">
        <ele>617</ele>
        <time>2019-12-19T01:41:24Z</time>
      </trkpt>
      <trkpt lat="44.48424" lon="3.28729">
        <ele>617</ele>
        <time>2019-12-19T01:41:28Z</time>
      </trkpt>
      <trkpt lat="44.48438" lon="3.28762">
        <ele>617</ele>
        <time>2019-12-19T01:41:33Z</time>
      </trkpt>
      <trkpt lat="44.4845" lon="3.28802">
        <ele>617</ele>
        <time>2019-12-19T01:41:39Z</time>
      </trkpt>
      <trkpt lat="44.48469" lon="3.28895">
        <ele>617</ele>
        <time>2019-12-19T01:41:51Z</time>
      </trkpt>
      <trkpt lat="44.48472" lon="3.28926">
        <ele>618</ele>
        <time>2019-12-19T01:41:55Z</time>
      </trkpt>
      <trkpt lat="44.48469" lon="3.28943">
        <ele>617</ele>
        <time>2019-12-19T01:41:57Z</time>
      </trkpt>
      <trkpt lat="44.48457" lon="3.28989">
        <ele>617</ele>
        <time>2019-12-19T01:42:04Z</time>
      </trkpt>
      <trkpt lat="44.4843" lon="3.2908">
        <ele>616</ele>
        <time>2019-12-19T01:42:16Z</time>
      </trkpt>
      <trkpt lat="44.48424" lon="3.29096">
        <ele>616</ele>
        <time>2019-12-19T01:42:18Z</time>
      </trkpt>
      <trkpt lat="44.48407" lon="3.29128">
        <ele>616</ele>
        <time>2019-12-19T01:42:23Z</time>
      </trkpt>
      <trkpt lat="44.48387" lon="3.29172">
        <ele>617</ele>
        <time>2019-12-19T01:42:30Z</time>
      </trkpt>
      <trkpt lat="44.48374" lon="3.29209">
        <ele>617</ele>
        <time>2019-12-19T01:42:35Z</time>
      </trkpt>
      <trkpt lat="44.48369" lon="3.29231">
        <ele>617</ele>
        <time>2019-12-19T01:42:38Z</time>
      </trkpt>
      <trkpt lat="44.48369" lon="3.29257">
        <ele>617</ele>
        <time>2019-12-19T01:42:42Z</time>
      </trkpt>
      <trkpt lat="44.48366" lon="3.29286">
        <ele>617</ele>
        <time>2019-12-19T01:42:45Z</time>
      </trkpt>
      <trkpt lat="44.4836" lon="3.29309">
        <ele>617</ele>
        <time>2019-12-19T01:42:48Z</time>
      </trkpt>
      <trkpt lat="44.48359" lon="3.29348">
        <ele>618</ele>
        <time>2019-12-19T01:42:53Z</time>
      </trkpt>
      <trkpt lat="44.48362" lon="3.29437">
        <ele>619</ele>
        <time>2019-12-19T01:43:05Z</time>
      </trkpt>
      <trkpt lat="44.48366" lon="3.2948">
        <ele>619</ele>
        <time>2019-12-19T01:43:10Z</time>
      </trkpt>
      <trkpt lat="44.48363" lon="3.29502">
        <ele>619</ele>
        <time>2019-12-19T01:43:13Z</time>
      </trkpt>
      <trkpt lat="44.48366" lon="3.29575">
        <ele>620</ele>
        <time>2019-12-19T01:43:22Z</time>
      </trkpt>
      <trkpt lat="44.48362" lon="3.29614">
        <ele>621</ele>
        <time>2019-12-19T01:43:27Z</time>
      </trkpt>
      <trkpt lat="44.48353" lon="3.29654">
        <ele>621</ele>
        <time>2019-12-19T01:43:33Z</time>
      </trkpt>
      <trkpt lat="44.48331" lon="3.2973">
        <ele>621</ele>
        <time>2019-12-19T01:43:43Z</time>
      </trkpt>
      <trkpt lat="44.48321" lon="3.29734">
        <ele>622</ele>
        <time>2019-12-19T01:43:45Z</time>
      </trkpt>
      <trkpt lat="44.48313" lon="3.29746">
        <ele>623</ele>
        <time>2019-12-19T01:43:47Z</time>
      </trkpt>
      <trkpt lat="44.4831" lon="3.2976">
        <ele>623</ele>
        <time>2019-12-19T01:43:49Z</time>
      </trkpt>
      <trkpt lat="44.48283" lon="3.29775">
        <ele>625</ele>
        <time>2019-12-19T01:43:54Z</time>
      </trkpt>
      <trkpt lat="44.48273" lon="3.29776">
        <ele>626</ele>
        <time>2019-12-19T01:43:56Z</time>
      </trkpt>
      <trkpt lat="44.48261" lon="3.29769">
        <ele>627</ele>
        <time>2019-12-19T01:43:58Z</time>
      </trkpt>
      <trkpt lat="44.48232" lon="3.29743">
        <ele>634</ele>
        <time>2019-12-19T01:44:04Z</time>
      </trkpt>
      <trkpt lat="44.48208" lon="3.29734">
        <ele>642</ele>
        <time>2019-12-19T01:44:09Z</time>
      </trkpt>
      <trkpt lat="44.48195" lon="3.29733">
        <ele>646</ele>
        <time>2019-12-19T01:44:11Z</time>
      </trkpt>
      <trkpt lat="44.48166" lon="3.29741">
        <ele>654</ele>
        <time>2019-12-19T01:44:16Z</time>
      </trkpt>
      <trkpt lat="44.48109" lon="3.29781">
        <ele>665</ele>
        <time>2019-12-19T01:44:27Z</time>
      </trkpt>
      <trkpt lat="44.48087" lon="3.29802">
        <ele>667</ele>
        <time>2019-12-19T01:44:32Z</time>
      </trkpt>
      <trkpt lat="44.48049" lon="3.29853">
        <ele>669</ele>
        <time>2019-12-19T01:44:42Z</time>
      </trkpt>
      <trkpt lat="44.48032" lon="3.29867">
        <ele>669</ele>
        <time>2019-12-19T01:44:45Z</time>
      </trkpt>
      <trkpt lat="44.47994" lon="3.2989">
        <ele>669</ele>
        <time>2019-12-19T01:44:52Z</time>
      </trkpt>
      <trkpt lat="44.4799" lon="3.29894">
        <ele>669</ele>
        <time>2019-12-19T01:44:53Z</time>
      </trkpt>
      <trkpt lat="44.47982" lon="3.29909">
        <ele>669</ele>
        <time>2019-12-19T01:44:56Z</time>
      </trkpt>
      <trkpt lat="44.47989" lon="3.29913">
        <ele>669</ele>
        <time>2019-12-19T01:44:57Z</time>
      </trkpt>
      <trkpt lat="44.48003" lon="3.29914">
        <ele>668</ele>
        <time>2019-12-19T01:45:00Z</time>
      </trkpt>
      <trkpt lat="44.4803" lon="3.29907">
        <ele>671</ele>
        <time>2019-12-19T01:45:04Z</time>
      </trkpt>
      <trkpt lat="44.48064" lon="3.29892">
        <ele>672</ele>
        <time>2019-12-19T01:45:11Z</time>
      </trkpt>
      <trkpt lat="44.4807" lon="3.29886">
        <ele>672</ele>
        <time>2019-12-19T01:45:12Z</time>
      </trkpt>
      <trkpt lat="44.48094" lon="3.29912">
        <ele>674</ele>
        <time>2019-12-19T01:45:17Z</time>
      </trkpt>
      <trkpt lat="44.48105" lon="3.29907">
        <ele>672</ele>
        <time>2019-12-19T01:45:20Z</time>
      </trkpt>
      <trkpt lat="44.48114" lon="3.29924">
        <ele>672</ele>
        <time>2019-12-19T01:45:22Z</time>
      </trkpt>
      <trkpt lat="44.48107" lon="3.29958">
        <ele>672</ele>
        <time>2019-12-19T01:45:27Z</time>
      </trkpt>
      <trkpt lat="44.48107" lon="3.29985">
        <ele>672</ele>
        <time>2019-12-19T01:45:30Z</time>
      </trkpt>
      <trkpt lat="44.48103" lon="3.30003">
        <ele>673</ele>
        <time>2019-12-19T01:45:33Z</time>
      </trkpt>
      <trkpt lat="44.48091" lon="3.30029">
        <ele>676</ele>
        <time>2019-12-19T01:45:36Z</time>
      </trkpt>
      <trkpt lat="44.48087" lon="3.30045">
        <ele>677</ele>
        <time>2019-12-19T01:45:39Z</time>
      </trkpt>
      <trkpt lat="44.48089" lon="3.30079">
        <ele>675</ele>
        <time>2019-12-19T01:45:43Z</time>
      </trkpt>
      <trkpt lat="44.48085" lon="3.30105">
        <ele>677</ele>
        <time>2019-12-19T01:45:46Z</time>
      </trkpt>
      <trkpt lat="44.48081" lon="3.30153">
        <ele>679</ele>
        <time>2019-12-19T01:45:52Z</time>
      </trkpt>
      <trkpt lat="44.48087" lon="3.3033">
        <ele>673</ele>
        <time>2019-12-19T01:46:15Z</time>
      </trkpt>
      <trkpt lat="44.48093" lon="3.30417">
        <ele>668</ele>
        <time>2019-12-19T01:46:26Z</time>
      </trkpt>
      <trkpt lat="44.48098" lon="3.30459">
        <ele>665</ele>
        <time>2019-12-19T01:46:31Z</time>
      </trkpt>
      <trkpt lat="44.4812" lon="3.30573">
        <ele>655</ele>
        <time>2019-12-19T01:46:46Z</time>
      </trkpt>
      <trkpt lat="44.48137" lon="3.30635">
        <ele>649</ele>
        <time>2019-12-19T01:46:55Z</time>
      </trkpt>
      <trkpt lat="44.4817" lon="3.30776">
        <ele>641</ele>
        <time>2019-12-19T01:47:14Z</time>
      </trkpt>
      <trkpt lat="44.48172" lon="3.30805">
        <ele>642</ele>
        <time>2019-12-19T01:47:17Z</time>
      </trkpt>
      <trkpt lat="44.48168" lon="3.3087">
        <ele>643</ele>
        <time>2019-12-19T01:47:26Z</time>
      </trkpt>
      <trkpt lat="44.48169" lon="3.30904">
        <ele>642</ele>
        <time>2019-12-19T01:47:30Z</time>
      </trkpt>
      <trkpt lat="44.48172" lon="3.30948">
        <ele>639</ele>
        <time>2019-12-19T01:47:36Z</time>
      </trkpt>
      <trkpt lat="44.48176" lon="3.30993">
        <ele>637</ele>
        <time>2019-12-19T01:47:41Z</time>
      </trkpt>
      <trkpt lat="44.48181" lon="3.31037">
        <ele>634</ele>
        <time>2019-12-19T01:47:47Z</time>
      </trkpt>
      <trkpt lat="44.48185" lon="3.31083">
        <ele>631</ele>
        <time>2019-12-19T01:47:53Z</time>
      </trkpt>
      <trkpt lat="44.48182" lon="3.31103">
        <ele>631</ele>
        <time>2019-12-19T01:47:56Z</time>
      </trkpt>
      <trkpt lat="44.48166" lon="3.31174">
        <ele>630</ele>
        <time>2019-12-19T01:48:05Z</time>
      </trkpt>
      <trkpt lat="44.48146" lon="3.31236">
        <ele>633</ele>
        <time>2019-12-19T01:48:14Z</time>
      </trkpt>
      <trkpt lat="44.48138" lon="3.31254">
        <ele>634</ele>
        <time>2019-12-19T01:48:16Z</time>
      </trkpt>
      <trkpt lat="44.48117" lon="3.31293">
        <ele>637</ele>
        <time>2019-12-19T01:48:23Z</time>
      </trkpt>
      <trkpt lat="44.48076" lon="3.31361">
        <ele>637</ele>
        <time>2019-12-19T01:48:34Z</time>
      </trkpt>
      <trkpt lat="44.48019" lon="3.31437">
        <ele>637</ele>
        <time>2019-12-19T01:48:48Z</time>
      </trkpt>
      <trkpt lat="44.48004" lon="3.31461">
        <ele>635</ele>
        <time>2019-12-19T01:48:52Z</time>
      </trkpt>
      <trkpt lat="44.47982" lon="3.31501">
        <ele>631</ele>
        <time>2019-12-19T01:48:58Z</time>
      </trkpt>
      <trkpt lat="44.4791" lon="3.31607">
        <ele>629</ele>
        <time>2019-12-19T01:49:17Z</time>
      </trkpt>
      <trkpt lat="44.47886" lon="3.3165">
        <ele>628</ele>
        <time>2019-12-19T01:49:24Z</time>
      </trkpt>
      <trkpt lat="44.47866" lon="3.31668">
        <ele>629</ele>
        <time>2019-12-19T01:49:28Z</time>
      </trkpt>
      <trkpt lat="44.47802" lon="3.31755">
        <ele>627</ele>
        <time>2019-12-19T01:49:44Z</time>
      </trkpt>
      <trkpt lat="44.47789" lon="3.31764">
        <ele>627</ele>
        <time>2019-12-19T01:49:46Z</time>
      </trkpt>
      <trkpt lat="44.47781" lon="3.31777">
        <ele>627</ele>
        <time>2019-12-19T01:49:49Z</time>
      </trkpt>
      <trkpt lat="44.47772" lon="3.31783">
        <ele>627</ele>
        <time>2019-12-19T01:49:50Z</time>
      </trkpt>
      <trkpt lat="44.47761" lon="3.31801">
        <ele>626</ele>
        <time>2019-12-19T01:49:53Z</time>
      </trkpt>
      <trkpt lat="44.47752" lon="3.31826">
        <ele>624</ele>
        <time>2019-12-19T01:49:57Z</time>
      </trkpt>
      <trkpt lat="44.47718" lon="3.31897">
        <ele>623</ele>
        <time>2019-12-19T01:50:08Z</time>
      </trkpt>
      <trkpt lat="44.47711" lon="3.31926">
        <ele>623</ele>
        <time>2019-12-19T01:50:12Z</time>
      </trkpt>
      <trkpt lat="44.47706" lon="3.31964">
        <ele>623</ele>
        <time>2019-12-19T01:50:17Z</time>
      </trkpt>
      <trkpt lat="44.47709" lon="3.32027">
        <ele>624</ele>
        <time>2019-12-19T01:50:25Z</time>
      </trkpt>
      <trkpt lat="44.47708" lon="3.32052">
        <ele>624</ele>
        <time>2019-12-19T01:50:28Z</time>
      </trkpt>
      <trkpt lat="44.47705" lon="3.32075">
        <ele>624</ele>
        <time>2019-12-19T01:50:31Z</time>
      </trkpt>
      <trkpt lat="44.47696" lon="3.32104">
        <ele>624</ele>
        <time>2019-12-19T01:50:35Z</time>
      </trkpt>
      <trkpt lat="44.4768" lon="3.32127">
        <ele>624</ele>
        <time>2019-12-19T01:50:39Z</time>
      </trkpt>
      <trkpt lat="44.4764" lon="3.32164">
        <ele>624</ele>
        <time>2019-12-19T01:50:47Z</time>
      </trkpt>
      <trkpt lat="44.4762" lon="3.32191">
        <ele>624</ele>
        <time>2019-12-19T01:50:52Z</time>
      </trkpt>
      <trkpt lat="44.47591" lon="3.32255">
        <ele>624</ele>
        <time>2019-12-19T01:51:02Z</time>
      </trkpt>
      <trkpt lat="44.47586" lon="3.32271">
        <ele>624</ele>
        <time>2019-12-19T01:51:04Z</time>
      </trkpt>
      <trkpt lat="44.47577" lon="3.32291">
        <ele>624</ele>
        <time>2019-12-19T01:51:07Z</time>
      </trkpt>
      <trkpt lat="44.47565" lon="3.32308">
        <ele>625</ele>
        <time>2019-12-19T01:51:10Z</time>
      </trkpt>
      <trkpt lat="44.47529" lon="3.3234">
        <ele>625</ele>
        <time>2019-12-19T01:51:18Z</time>
      </trkpt>
      <trkpt lat="44.47502" lon="3.3237">
        <ele>625</ele>
        <time>2019-12-19T01:51:24Z</time>
      </trkpt>
      <trkpt lat="44.4748" lon="3.32403">
        <ele>626</ele>
        <time>2019-12-19T01:51:30Z</time>
      </trkpt>
      <trkpt lat="44.47473" lon="3.32421">
        <ele>626</ele>
        <time>2019-12-19T01:51:32Z</time>
      </trkpt>
      <trkpt lat="44.47466" lon="3.32474">
        <ele>627</ele>
        <time>2019-12-19T01:51:39Z</time>
      </trkpt>
      <trkpt lat="44.47463" lon="3.32514">
        <ele>627</ele>
        <time>2019-12-19T01:51:44Z</time>
      </trkpt>
      <trkpt lat="44.47462" lon="3.32549">
        <ele>626</ele>
        <time>2019-12-19T01:51:49Z</time>
      </trkpt>
      <trkpt lat="44.4746" lon="3.32572">
        <ele>625</ele>
        <time>2019-12-19T01:51:52Z</time>
      </trkpt>
      <trkpt lat="44.47443" lon="3.32626">
        <ele>626</ele>
        <time>2019-12-19T01:51:59Z</time>
      </trkpt>
      <trkpt lat="44.47436" lon="3.32637">
        <ele>626</ele>
        <time>2019-12-19T01:52:01Z</time>
      </trkpt>
      <trkpt lat="44.47423" lon="3.32669">
        <ele>627</ele>
        <time>2019-12-19T01:52:06Z</time>
      </trkpt>
      <trkpt lat="44.47418" lon="3.32695">
        <ele>627</ele>
        <time>2019-12-19T01:52:09Z</time>
      </trkpt>
      <trkpt lat="44.4742" lon="3.32743">
        <ele>628</ele>
        <time>2019-12-19T01:52:15Z</time>
      </trkpt>
      <trkpt lat="44.47419" lon="3.32773">
        <ele>627</ele>
        <time>2019-12-19T01:52:19Z</time>
      </trkpt>
      <trkpt lat="44.4741" lon="3.32818">
        <ele>626</ele>
        <time>2019-12-19T01:52:25Z</time>
      </trkpt>
      <trkpt lat="44.47395" lon="3.32867">
        <ele>626</ele>
        <time>2019-12-19T01:52:32Z</time>
      </trkpt>
      <trkpt lat="44.47377" lon="3.32944">
        <ele>626</ele>
        <time>2019-12-19T01:52:42Z</time>
      </trkpt>
      <trkpt lat="44.47351" lon="3.33103">
        <ele>629</ele>
        <time>2019-12-19T01:53:03Z</time>
      </trkpt>
      <trkpt lat="44.47328" lon="3.3316">
        <ele>631</ele>
        <time>2019-12-19T01:53:11Z</time>
      </trkpt>
      <trkpt lat="44.4726" lon="3.33303">
        <ele>629</ele>
        <time>2019-12-19T01:53:33Z</time>
      </trkpt>
      <trkpt lat="44.47226" lon="3.33349">
        <ele>629</ele>
        <time>2019-12-19T01:53:41Z</time>
      </trkpt>
      <trkpt lat="44.47214" lon="3.33362">
        <ele>629</ele>
        <time>2019-12-19T01:53:44Z</time>
      </trkpt>
      <trkpt lat="44.47138" lon="3.33414">
        <ele>630</ele>
        <time>2019-12-19T01:53:59Z</time>
      </trkpt>
      <trkpt lat="44.47099" lon="3.33444">
        <ele>630</ele>
        <time>2019-12-19T01:54:07Z</time>
      </trkpt>
      <trkpt lat="44.47076" lon="3.33466">
        <ele>630</ele>
        <time>2019-12-19T01:54:12Z</time>
      </trkpt>
      <trkpt lat="44.47063" lon="3.33472">
        <ele>631</ele>
        <time>2019-12-19T01:54:14Z</time>
      </trkpt>
      <trkpt lat="44.47057" lon="3.33449">
        <ele>632</ele>
        <time>2019-12-19T01:54:17Z</time>
      </trkpt>
      <trkpt lat="44.47049" lon="3.33431">
        <ele>634</ele>
        <time>2019-12-19T01:54:20Z</time>
      </trkpt>
      <trkpt lat="44.47033" lon="3.33419">
        <ele>636</ele>
        <time>2019-12-19T01:54:23Z</time>
      </trkpt>
      <trkpt lat="44.47023" lon="3.33416">
        <ele>638</ele>
        <time>2019-12-19T01:54:25Z</time>
      </trkpt>
      <trkpt lat="44.4701" lon="3.33417">
        <ele>639</ele>
        <time>2019-12-19T01:54:27Z</time>
      </trkpt>
      <trkpt lat="44.46946" lon="3.33442">
        <ele>642</ele>
        <time>2019-12-19T01:54:39Z</time>
      </trkpt>
      <trkpt lat="44.46898" lon="3.33453">
        <ele>648</ele>
        <time>2019-12-19T01:54:48Z</time>
      </trkpt>
      <trkpt lat="44.46883" lon="3.33459">
        <ele>650</ele>
        <time>2019-12-19T01:54:51Z</time>
      </trkpt>
      <trkpt lat="44.46865" lon="3.3347">
        <ele>652</ele>
        <time>2019-12-19T01:54:54Z</time>
      </trkpt>
      <trkpt lat="44.4685" lon="3.33483">
        <ele>653</ele>
        <time>2019-12-19T01:54:57Z</time>
      </trkpt>
      <trkpt lat="44.46826" lon="3.33514">
        <ele>655</ele>
        <time>2019-12-19T01:55:03Z</time>
      </trkpt>
      <trkpt lat="44.46801" lon="3.33569">
        <ele>658</ele>
        <time>2019-12-19T01:55:11Z</time>
      </trkpt>
      <trkpt lat="44.46766" lon="3.33668">
        <ele>663</ele>
        <time>2019-12-19T01:55:25Z</time>
      </trkpt>
      <trkpt lat="44.46745" lon="3.33735">
        <ele>661</ele>
        <time>2019-12-19T01:55:35Z</time>
      </trkpt>
      <trkpt lat="44.46716" lon="3.34012">
        <ele>660</ele>
        <time>2019-12-19T01:56:10Z</time>
      </trkpt>
      <trkpt lat="44.46713" lon="3.34037">
        <ele>662</ele>
        <time>2019-12-19T01:56:14Z</time>
      </trkpt>
      <trkpt lat="44.46708" lon="3.34044">
        <ele>663</ele>
        <time>2019-12-19T01:56:15Z</time>
      </trkpt>
      <trkpt lat="44.46722" lon="3.34074">
        <ele>661</ele>
        <time>2019-12-19T01:56:19Z</time>
      </trkpt>
      <trkpt lat="44.46719" lon="3.34077">
        <ele>662</ele>
        <time>2019-12-19T01:56:20Z</time>
      </trkpt>
      <trkpt lat="44.46718" lon="3.34081">
        <ele>662</ele>
        <time>2019-12-19T01:56:21Z</time>
      </trkpt>
      <trkpt lat="44.46725" lon="3.34114">
        <ele>663</ele>
        <time>2019-12-19T01:56:25Z</time>
      </trkpt>
      <trkpt lat="44.46678" lon="3.34154">
        <ele>671</ele>
        <time>2019-12-19T01:56:35Z</time>
      </trkpt>
      <trkpt lat="44.46659" lon="3.34193">
        <ele>673</ele>
        <time>2019-12-19T01:56:41Z</time>
      </trkpt>
      <trkpt lat="44.46646" lon="3.3421">
        <ele>672</ele>
        <time>2019-12-19T01:56:44Z</time>
      </trkpt>
      <trkpt lat="44.4664" lon="3.34212">
        <ele>672</ele>
        <time>2019-12-19T01:56:45Z</time>
      </trkpt>
      <trkpt lat="44.46628" lon="3.34229">
        <ele>671</ele>
        <time>2019-12-19T01:56:48Z</time>
      </trkpt>
      <trkpt lat="44.46621" lon="3.34242">
        <ele>670</ele>
        <time>2019-12-19T01:56:50Z</time>
      </trkpt>
      <trkpt lat="44.46597" lon="3.34246">
        <ele>668</ele>
        <time>2019-12-19T01:56:54Z</time>
      </trkpt>
      <trkpt lat="44.46574" lon="3.34311">
        <ele>665</ele>
        <time>2019-12-19T01:57:04Z</time>
      </trkpt>
      <trkpt lat="44.46569" lon="3.34326">
        <ele>664</ele>
        <time>2019-12-19T01:57:06Z</time>
      </trkpt>
      <trkpt lat="44.46567" lon="3.34339">
        <ele>663</ele>
        <time>2019-12-19T01:57:07Z</time>
      </trkpt>
      <trkpt lat="44.46547" lon="3.34373">
        <ele>659</ele>
        <time>2019-12-19T01:57:13Z</time>
      </trkpt>
      <trkpt lat="44.46539" lon="3.34407">
        <ele>657</ele>
        <time>2019-12-19T01:57:17Z</time>
      </trkpt>
      <trkpt lat="44.46525" lon="3.34439">
        <ele>655</ele>
        <time>2019-12-19T01:57:22Z</time>
      </trkpt>
      <trkpt lat="44.46521" lon="3.34452">
        <ele>655</ele>
        <time>2019-12-19T01:57:24Z</time>
      </trkpt>
      <trkpt lat="44.46505" lon="3.34466">
        <ele>654</ele>
        <time>2019-12-19T01:57:27Z</time>
      </trkpt>
      <trkpt lat="44.46486" lon="3.34477">
        <ele>655</ele>
        <time>2019-12-19T01:57:31Z</time>
      </trkpt>
      <trkpt lat="44.46458" lon="3.34483">
        <ele>657</ele>
        <time>2019-12-19T01:57:36Z</time>
      </trkpt>
      <trkpt lat="44.46447" lon="3.34489">
        <ele>658</ele>
        <time>2019-12-19T01:57:38Z</time>
      </trkpt>
      <trkpt lat="44.4644" lon="3.34497">
        <ele>659</ele>
        <time>2019-12-19T01:57:40Z</time>
      </trkpt>
      <trkpt lat="44.46416" lon="3.34561">
        <ele>660</ele>
        <time>2019-12-19T01:57:49Z</time>
      </trkpt>
      <trkpt lat="44.46389" lon="3.34623">
        <ele>661</ele>
        <time>2019-12-19T01:57:58Z</time>
      </trkpt>
      <trkpt lat="44.46379" lon="3.34642">
        <ele>661</ele>
        <time>2019-12-19T01:58:01Z</time>
      </trkpt>
      <trkpt lat="44.46362" lon="3.34664">
        <ele>661</ele>
        <time>2019-12-19T01:58:05Z</time>
      </trkpt>
      <trkpt lat="44.46334" lon="3.34694">
        <ele>662</ele>
        <time>2019-12-19T01:58:12Z</time>
      </trkpt>
      <trkpt lat="44.46317" lon="3.34715">
        <ele>664</ele>
        <time>2019-12-19T01:58:16Z</time>
      </trkpt>
      <trkpt lat="44.46277" lon="3.34788">
        <ele>666</ele>
        <time>2019-12-19T01:58:27Z</time>
      </trkpt>
      <trkpt lat="44.46187" lon="3.34903">
        <ele>668</ele>
        <time>2019-12-19T01:58:49Z</time>
      </trkpt>
      <trkpt lat="44.46127" lon="3.34986">
        <ele>670</ele>
        <time>2019-12-19T01:59:04Z</time>
      </trkpt>
      <trkpt lat="44.46101" lon="3.35019">
        <ele>671</ele>
        <time>2019-12-19T01:59:10Z</time>
      </trkpt>
      <trkpt lat="44.46075" lon="3.3504">
        <ele>673</ele>
        <time>2019-12-19T01:59:16Z</time>
      </trkpt>
      <trkpt lat="44.46044" lon="3.35058">
        <ele>674</ele>
        <time>2019-12-19T01:59:22Z</time>
      </trkpt>
      <trkpt lat="44.46" lon="3.35078">
        <ele>675</ele>
        <time>2019-12-19T01:59:30Z</time>
      </trkpt>
      <trkpt lat="44.45983" lon="3.35088">
        <ele>679</ele>
        <time>2019-12-19T01:59:33Z</time>
      </trkpt>
      <trkpt lat="44.45973" lon="3.35101">
        <ele>681</ele>
        <time>2019-12-19T01:59:35Z</time>
      </trkpt>
      <trkpt lat="44.45968" lon="3.35116">
        <ele>681</ele>
        <time>2019-12-19T01:59:38Z</time>
      </trkpt>
      <trkpt lat="44.45965" lon="3.35139">
        <ele>681</ele>
        <time>2019-12-19T01:59:41Z</time>
      </trkpt>
      <trkpt lat="44.45968" lon="3.35159">
        <ele>680</ele>
        <time>2019-12-19T01:59:43Z</time>
      </trkpt>
      <trkpt lat="44.45974" lon="3.3517">
        <ele>680</ele>
        <time>2019-12-19T01:59:45Z</time>
      </trkpt>
      <trkpt lat="44.45983" lon="3.35182">
        <ele>681</ele>
        <time>2019-12-19T01:59:47Z</time>
      </trkpt>
      <trkpt lat="44.45998" lon="3.35189">
        <ele>682</ele>
        <time>2019-12-19T01:59:50Z</time>
      </trkpt>
      <trkpt lat="44.46011" lon="3.35191">
        <ele>684</ele>
        <time>2019-12-19T01:59:52Z</time>
      </trkpt>
      <trkpt lat="44.46099" lon="3.35162">
        <ele>685</ele>
        <time>2019-12-19T02:00:08Z</time>
      </trkpt>
      <trkpt lat="44.46106" lon="3.35165">
        <ele>686</ele>
        <time>2019-12-19T02:00:10Z</time>
      </trkpt>
      <trkpt lat="44.4611" lon="3.35176">
        <ele>689</ele>
        <time>2019-12-19T02:00:11Z</time>
      </trkpt>
      <trkpt lat="44.46108" lon="3.35186">
        <ele>692</ele>
        <time>2019-12-19T02:00:13Z</time>
      </trkpt>
      <trkpt lat="44.46102" lon="3.35193">
        <ele>694</ele>
        <time>2019-12-19T02:00:14Z</time>
      </trkpt>
      <trkpt lat="44.46072" lon="3.35198">
        <ele>694</ele>
        <time>2019-12-19T02:00:19Z</time>
      </trkpt>
      <trkpt lat="44.46053" lon="3.35205">
        <ele>693</ele>
        <time>2019-12-19T02:00:23Z</time>
      </trkpt>
      <trkpt lat="44.46035" lon="3.35217">
        <ele>693</ele>
        <time>2019-12-19T02:00:26Z</time>
      </trkpt>
      <trkpt lat="44.46012" lon="3.35238">
        <ele>694</ele>
        <time>2019-12-19T02:00:31Z</time>
      </trkpt>
      <trkpt lat="44.45992" lon="3.35268">
        <ele>696</ele>
        <time>2019-12-19T02:00:36Z</time>
      </trkpt>
      <trkpt lat="44.45979" lon="3.35293">
        <ele>698</ele>
        <time>2019-12-19T02:00:40Z</time>
      </trkpt>
      <trkpt lat="44.45968" lon="3.35323">
        <ele>700</ele>
        <time>2019-12-19T02:00:45Z</time>
      </trkpt>
      <trkpt lat="44.45963" lon="3.35349">
        <ele>701</ele>
        <time>2019-12-19T02:00:48Z</time>
      </trkpt>
      <trkpt lat="44.45961" lon="3.35379">
        <ele>703</ele>
        <time>2019-12-19T02:00:52Z</time>
      </trkpt>
      <trkpt lat="44.45964" lon="3.35416">
        <ele>706</ele>
        <time>2019-12-19T02:00:57Z</time>
      </trkpt>
      <trkpt lat="44.45978" lon="3.35495">
        <ele>716</ele>
        <time>2019-12-19T02:01:07Z</time>
      </trkpt>
      <trkpt lat="44.45979" lon="3.35529">
        <ele>721</ele>
        <time>2019-12-19T02:01:11Z</time>
      </trkpt>
      <trkpt lat="44.45975" lon="3.3556">
        <ele>724</ele>
        <time>2019-12-19T02:01:15Z</time>
      </trkpt>
      <trkpt lat="44.45966" lon="3.35601">
        <ele>727</ele>
        <time>2019-12-19T02:01:21Z</time>
      </trkpt>
      <trkpt lat="44.45937" lon="3.35699">
        <ele>734</ele>
        <time>2019-12-19T02:01:34Z</time>
      </trkpt>
      <trkpt lat="44.45893" lon="3.35823">
        <ele>742</ele>
        <time>2019-12-19T02:01:52Z</time>
      </trkpt>
      <trkpt lat="44.45884" lon="3.35864">
        <ele>744</ele>
        <time>2019-12-19T02:01:57Z</time>
      </trkpt>
      <trkpt lat="44.45881" lon="3.35892">
        <ele>746</ele>
        <time>2019-12-19T02:02:01Z</time>
      </trkpt>
      <trkpt lat="44.4588" lon="3.35911">
        <ele>748</ele>
        <time>2019-12-19T02:02:03Z</time>
      </trkpt>
      <trkpt lat="44.45885" lon="3.35928">
        <ele>750</ele>
        <time>2019-12-19T02:02:06Z</time>
      </trkpt>
      <trkpt lat="44.45928" lon="3.35999">
        <ele>767</ele>
        <time>2019-12-19T02:02:17Z</time>
      </trkpt>
      <trkpt lat="44.45946" lon="3.36036">
        <ele>776</ele>
        <time>2019-12-19T02:02:23Z</time>
      </trkpt>
      <trkpt lat="44.45956" lon="3.36066">
        <ele>779</ele>
        <time>2019-12-19T02:02:27Z</time>
      </trkpt>
      <trkpt lat="44.45958" lon="3.36081">
        <ele>779</ele>
        <time>2019-12-19T02:02:29Z</time>
      </trkpt>
      <trkpt lat="44.45955" lon="3.36095">
        <ele>780</ele>
        <time>2019-12-19T02:02:31Z</time>
      </trkpt>
      <trkpt lat="44.4595" lon="3.36107">
        <ele>781</ele>
        <time>2019-12-19T02:02:33Z</time>
      </trkpt>
      <trkpt lat="44.45939" lon="3.36118">
        <ele>782</ele>
        <time>2019-12-19T02:02:35Z</time>
      </trkpt>
      <trkpt lat="44.45927" lon="3.36124">
        <ele>783</ele>
        <time>2019-12-19T02:02:38Z</time>
      </trkpt>
      <trkpt lat="44.45888" lon="3.36119">
        <ele>777</ele>
        <time>2019-12-19T02:02:45Z</time>
      </trkpt>
      <trkpt lat="44.4586" lon="3.36111">
        <ele>771</ele>
        <time>2019-12-19T02:02:50Z</time>
      </trkpt>
      <trkpt lat="44.45838" lon="3.36111">
        <ele>769</ele>
        <time>2019-12-19T02:02:54Z</time>
      </trkpt>
      <trkpt lat="44.45822" lon="3.36118">
        <ele>769</ele>
        <time>2019-12-19T02:02:56Z</time>
      </trkpt>
      <trkpt lat="44.45797" lon="3.3614">
        <ele>773</ele>
        <time>2019-12-19T02:03:02Z</time>
      </trkpt>
      <trkpt lat="44.4575" lon="3.36196">
        <ele>782</ele>
        <time>2019-12-19T02:03:13Z</time>
      </trkpt>
      <trkpt lat="44.45736" lon="3.36209">
        <ele>785</ele>
        <time>2019-12-19T02:03:16Z</time>
      </trkpt>
      <trkpt lat="44.45726" lon="3.36215">
        <ele>786</ele>
        <time>2019-12-19T02:03:18Z</time>
      </trkpt>
      <trkpt lat="44.45686" lon="3.36229">
        <ele>783</ele>
        <time>2019-12-19T02:03:25Z</time>
      </trkpt>
      <trkpt lat="44.45664" lon="3.36247">
        <ele>785</ele>
        <time>2019-12-19T02:03:30Z</time>
      </trkpt>
      <trkpt lat="44.45653" lon="3.36263">
        <ele>790</ele>
        <time>2019-12-19T02:03:32Z</time>
      </trkpt>
      <trkpt lat="44.45626" lon="3.36326">
        <ele>802</ele>
        <time>2019-12-19T02:03:42Z</time>
      </trkpt>
      <trkpt lat="44.4561" lon="3.36352">
        <ele>804</ele>
        <time>2019-12-19T02:03:46Z</time>
      </trkpt>
      <trkpt lat="44.45595" lon="3.36371">
        <ele>805</ele>
        <time>2019-12-19T02:03:50Z</time>
      </trkpt>
      <trkpt lat="44.45579" lon="3.36383">
        <ele>806</ele>
        <time>2019-12-19T02:03:53Z</time>
      </trkpt>
      <trkpt lat="44.45532" lon="3.36411">
        <ele>812</ele>
        <time>2019-12-19T02:04:02Z</time>
      </trkpt>
      <trkpt lat="44.45513" lon="3.36427">
        <ele>813</ele>
        <time>2019-12-19T02:04:06Z</time>
      </trkpt>
      <trkpt lat="44.45492" lon="3.36452">
        <ele>818</ele>
        <time>2019-12-19T02:04:11Z</time>
      </trkpt>
      <trkpt lat="44.45462" lon="3.36496">
        <ele>825</ele>
        <time>2019-12-19T02:04:19Z</time>
      </trkpt>
      <trkpt lat="44.45448" lon="3.36512">
        <ele>827</ele>
        <time>2019-12-19T02:04:22Z</time>
      </trkpt>
      <trkpt lat="44.45435" lon="3.36522">
        <ele>828</ele>
        <time>2019-12-19T02:04:24Z</time>
      </trkpt>
      <trkpt lat="44.45417" lon="3.3653">
        <ele>828</ele>
        <time>2019-12-19T02:04:28Z</time>
      </trkpt>
      <trkpt lat="44.45378" lon="3.36539">
        <ele>830</ele>
        <time>2019-12-19T02:04:35Z</time>
      </trkpt>
      <trkpt lat="44.45359" lon="3.3655">
        <ele>831</ele>
        <time>2019-12-19T02:04:38Z</time>
      </trkpt>
      <trkpt lat="44.45342" lon="3.36566">
        <ele>831</ele>
        <time>2019-12-19T02:04:42Z</time>
      </trkpt>
      <trkpt lat="44.45331" lon="3.3658">
        <ele>830</ele>
        <time>2019-12-19T02:04:45Z</time>
      </trkpt>
      <trkpt lat="44.45318" lon="3.36611">
        <ele>830</ele>
        <time>2019-12-19T02:04:49Z</time>
      </trkpt>
      <trkpt lat="44.45306" lon="3.36654">
        <ele>830</ele>
        <time>2019-12-19T02:04:55Z</time>
      </trkpt>
      <trkpt lat="44.45282" lon="3.36725">
        <ele>833</ele>
        <time>2019-12-19T02:05:05Z</time>
      </trkpt>
      <trkpt lat="44.45259" lon="3.36778">
        <ele>834</ele>
        <time>2019-12-19T02:05:13Z</time>
      </trkpt>
      <trkpt lat="44.45207" lon="3.3688">
        <ele>839</ele>
        <time>2019-12-19T02:05:29Z</time>
      </trkpt>
      <trkpt lat="44.45176" lon="3.36924">
        <ele>841</ele>
        <time>2019-12-19T02:05:37Z</time>
      </trkpt>
      <trkpt lat="44.45139" lon="3.36966">
        <ele>842</ele>
        <time>2019-12-19T02:05:45Z</time>
      </trkpt>
      <trkpt lat="44.45106" lon="3.36997">
        <ele>843</ele>
        <time>2019-12-19T02:05:52Z</time>
      </trkpt>
      <trkpt lat="44.45038" lon="3.37045">
        <ele>843</ele>
        <time>2019-12-19T02:06:06Z</time>
      </trkpt>
      <trkpt lat="44.45019" lon="3.37062">
        <ele>842</ele>
        <time>2019-12-19T02:06:10Z</time>
      </trkpt>
      <trkpt lat="44.44967" lon="3.37128">
        <ele>842</ele>
        <time>2019-12-19T02:06:22Z</time>
      </trkpt>
      <trkpt lat="44.44948" lon="3.37148">
        <ele>842</ele>
        <time>2019-12-19T02:06:27Z</time>
      </trkpt>
      <trkpt lat="44.4493" lon="3.3716">
        <ele>842</ele>
        <time>2019-12-19T02:06:30Z</time>
      </trkpt>
      <trkpt lat="44.44887" lon="3.37184">
        <ele>843</ele>
        <time>2019-12-19T02:06:38Z</time>
      </trkpt>
      <trkpt lat="44.44871" lon="3.37195">
        <ele>844</ele>
        <time>2019-12-19T02:06:42Z</time>
      </trkpt>
      <trkpt lat="44.44822" lon="3.37243">
        <ele>846</ele>
        <time>2019-12-19T02:06:52Z</time>
      </trkpt>
      <trkpt lat="44.44768" lon="3.37302">
        <ele>848</ele>
        <time>2019-12-19T02:07:04Z</time>
      </trkpt>
      <trkpt lat="44.44706" lon="3.37353">
        <ele>851</ele>
        <time>2019-12-19T02:07:17Z</time>
      </trkpt>
      <trkpt lat="44.44614" lon="3.3741">
        <ele>852</ele>
        <time>2019-12-19T02:07:35Z</time>
      </trkpt>
      <trkpt lat="44.44475" lon="3.37475">
        <ele>853</ele>
        <time>2019-12-19T02:08:01Z</time>
      </trkpt>
      <trkpt lat="44.44422" lon="3.37515">
        <ele>854</ele>
        <time>2019-12-19T02:08:12Z</time>
      </trkpt>
      <trkpt lat="44.44358" lon="3.37582">
        <ele>858</ele>
        <time>2019-12-19T02:08:26Z</time>
      </trkpt>
      <trkpt lat="44.44259" lon="3.37709">
        <ele>859</ele>
        <time>2019-12-19T02:08:50Z</time>
      </trkpt>
      <trkpt lat="44.4412" lon="3.3783">
        <ele>858</ele>
        <time>2019-12-19T02:09:19Z</time>
      </trkpt>
      <trkpt lat="44.44036" lon="3.37918">
        <ele>862</ele>
        <time>2019-12-19T02:09:38Z</time>
      </trkpt>
      <trkpt lat="44.43907" lon="3.38046">
        <ele>866</ele>
        <time>2019-12-19T02:10:06Z</time>
      </trkpt>
      <trkpt lat="44.43869" lon="3.38097">
        <ele>866</ele>
        <time>2019-12-19T02:10:15Z</time>
      </trkpt>
      <trkpt lat="44.43831" lon="3.38153">
        <ele>865</ele>
        <time>2019-12-19T02:10:25Z</time>
      </trkpt>
      <trkpt lat="44.43647" lon="3.38515">
        <ele>866</ele>
        <time>2019-12-19T02:11:21Z</time>
      </trkpt>
      <trkpt lat="44.43564" lon="3.38652">
        <ele>868</ele>
        <time>2019-12-19T02:11:44Z</time>
      </trkpt>
      <trkpt lat="44.43527" lon="3.38702">
        <ele>869</ele>
        <time>2019-12-19T02:11:53Z</time>
      </trkpt>
      <trkpt lat="44.435" lon="3.38721">
        <ele>869</ele>
        <time>2019-12-19T02:11:59Z</time>
      </trkpt>
      <trkpt lat="44.4347" lon="3.38734">
        <ele>868</ele>
        <time>2019-12-19T02:12:04Z</time>
      </trkpt>
      <trkpt lat="44.43437" lon="3.38743">
        <ele>868</ele>
        <time>2019-12-19T02:12:10Z</time>
      </trkpt>
      <trkpt lat="44.43407" lon="3.38767">
        <ele>867</ele>
        <time>2019-12-19T02:12:17Z</time>
      </trkpt>
      <trkpt lat="44.43293" lon="3.3891">
        <ele>870</ele>
        <time>2019-12-19T02:12:44Z</time>
      </trkpt>
      <trkpt lat="44.43286" lon="3.38925">
        <ele>870</ele>
        <time>2019-12-19T02:12:46Z</time>
      </trkpt>
      <trkpt lat="44.43276" lon="3.38958">
        <ele>870</ele>
        <time>2019-12-19T02:12:51Z</time>
      </trkpt>
      <trkpt lat="44.43264" lon="3.39054">
        <ele>871</ele>
        <time>2019-12-19T02:13:03Z</time>
      </trkpt>
      <trkpt lat="44.43256" lon="3.39089">
        <ele>872</ele>
        <time>2019-12-19T02:13:08Z</time>
      </trkpt>
      <trkpt lat="44.43139" lon="3.39345">
        <ele>876</ele>
        <time>2019-12-19T02:13:46Z</time>
      </trkpt>
      <trkpt lat="44.43117" lon="3.3939">
        <ele>877</ele>
        <time>2019-12-19T02:13:53Z</time>
      </trkpt>
      <trkpt lat="44.43082" lon="3.39435">
        <ele>878</ele>
        <time>2019-12-19T02:14:02Z</time>
      </trkpt>
      <trkpt lat="44.43059" lon="3.39473">
        <ele>879</ele>
        <time>2019-12-19T02:14:08Z</time>
      </trkpt>
      <trkpt lat="44.43027" lon="3.39547">
        <ele>880</ele>
        <time>2019-12-19T02:14:19Z</time>
      </trkpt>
      <trkpt lat="44.43012" lon="3.39572">
        <ele>879</ele>
        <time>2019-12-19T02:14:23Z</time>
      </trkpt>
      <trkpt lat="44.42968" lon="3.39615">
        <ele>880</ele>
        <time>2019-12-19T02:14:33Z</time>
      </trkpt>
      <trkpt lat="44.42937" lon="3.39664">
        <ele>881</ele>
        <time>2019-12-19T02:14:41Z</time>
      </trkpt>
      <trkpt lat="44.42903" lon="3.39742">
        <ele>879</ele>
        <time>2019-12-19T02:14:53Z</time>
      </trkpt>
      <trkpt lat="44.42878" lon="3.39849">
        <ele>882</ele>
        <time>2019-12-19T02:15:07Z</time>
      </trkpt>
      <trkpt lat="44.42866" lon="3.39876">
        <ele>883</ele>
        <time>2019-12-19T02:15:11Z</time>
      </trkpt>
      <trkpt lat="44.42843" lon="3.39901">
        <ele>884</ele>
        <time>2019-12-19T02:15:16Z</time>
      </trkpt>
      <trkpt lat="44.42741" lon="3.4006">
        <ele>886</ele>
        <time>2019-12-19T02:15:43Z</time>
      </trkpt>
      <trkpt lat="44.42722" lon="3.40078">
        <ele>886</ele>
        <time>2019-12-19T02:15:47Z</time>
      </trkpt>
      <trkpt lat="44.42689" lon="3.40093">
        <ele>885</ele>
        <time>2019-12-19T02:15:54Z</time>
      </trkpt>
      <trkpt lat="44.42655" lon="3.40111">
        <ele>885</ele>
        <time>2019-12-19T02:16:00Z</time>
      </trkpt>
      <trkpt lat="44.4241" lon="3.40358">
        <ele>890</ele>
        <time>2019-12-19T02:16:54Z</time>
      </trkpt>
      <trkpt lat="44.42318" lon="3.40466">
        <ele>891</ele>
        <time>2019-12-19T02:17:15Z</time>
      </trkpt>
      <trkpt lat="44.42272" lon="3.40525">
        <ele>893</ele>
        <time>2019-12-19T02:17:26Z</time>
      </trkpt>
      <trkpt lat="44.42218" lon="3.40565">
        <ele>895</ele>
        <time>2019-12-19T02:17:37Z</time>
      </trkpt>
      <trkpt lat="44.42076" lon="3.40658">
        <ele>896</ele>
        <time>2019-12-19T02:18:05Z</time>
      </trkpt>
      <trkpt lat="44.42028" lon="3.40677">
        <ele>896</ele>
        <time>2019-12-19T02:18:14Z</time>
      </trkpt>
      <trkpt lat="44.42001" lon="3.40682">
        <ele>896</ele>
        <time>2019-12-19T02:18:19Z</time>
      </trkpt>
      <trkpt lat="44.41939" lon="3.40684">
        <ele>899</ele>
        <time>2019-12-19T02:18:30Z</time>
      </trkpt>
      <trkpt lat="44.4192" lon="3.40689">
        <ele>900</ele>
        <time>2019-12-19T02:18:33Z</time>
      </trkpt>
      <trkpt lat="44.41897" lon="3.4071">
        <ele>900</ele>
        <time>2019-12-19T02:18:38Z</time>
      </trkpt>
      <trkpt lat="44.41874" lon="3.40746">
        <ele>900</ele>
        <time>2019-12-19T02:18:44Z</time>
      </trkpt>
      <trkpt lat="44.41845" lon="3.40777">
        <ele>902</ele>
        <time>2019-12-19T02:18:51Z</time>
      </trkpt>
      <trkpt lat="44.41789" lon="3.40823">
        <ele>905</ele>
        <time>2019-12-19T02:19:02Z</time>
      </trkpt>
      <trkpt lat="44.41771" lon="3.40842">
        <ele>905</ele>
        <time>2019-12-19T02:19:06Z</time>
      </trkpt>
      <trkpt lat="44.41723" lon="3.40942">
        <ele>908</ele>
        <time>2019-12-19T02:19:22Z</time>
      </trkpt>
      <trkpt lat="44.41692" lon="3.40969">
        <ele>911</ele>
        <time>2019-12-19T02:19:28Z</time>
      </trkpt>
      <trkpt lat="44.41631" lon="3.4101">
        <ele>914</ele>
        <time>2019-12-19T02:19:40Z</time>
      </trkpt>
      <trkpt lat="44.41596" lon="3.4103">
        <ele>916</ele>
        <time>2019-12-19T02:19:47Z</time>
      </trkpt>
      <trkpt lat="44.41562" lon="3.4107">
        <ele>918</ele>
        <time>2019-12-19T02:19:55Z</time>
      </trkpt>
      <trkpt lat="44.41531" lon="3.41118">
        <ele>918</ele>
        <time>2019-12-19T02:20:03Z</time>
      </trkpt>
      <trkpt lat="44.415" lon="3.41151">
        <ele>920</ele>
        <time>2019-12-19T02:20:10Z</time>
      </trkpt>
      <trkpt lat="44.41444" lon="3.41194">
        <ele>923</ele>
        <time>2019-12-19T02:20:21Z</time>
      </trkpt>
      <trkpt lat="44.41336" lon="3.41255">
        <ele>927</ele>
        <time>2019-12-19T02:20:42Z</time>
      </trkpt>
      <trkpt lat="44.41255" lon="3.41303">
        <ele>930</ele>
        <time>2019-12-19T02:20:58Z</time>
      </trkpt>
      <trkpt lat="44.41211" lon="3.41323">
        <ele>931</ele>
        <time>2019-12-19T02:21:06Z</time>
      </trkpt>
      <trkpt lat="44.41162" lon="3.41333">
        <ele>933</ele>
        <time>2019-12-19T02:21:15Z</time>
      </trkpt>
      <trkpt lat="44.41087" lon="3.41327">
        <ele>935</ele>
        <time>2019-12-19T02:21:28Z</time>
      </trkpt>
      <trkpt lat="44.41044" lon="3.41336">
        <ele>936</ele>
        <time>2019-12-19T02:21:36Z</time>
      </trkpt>
      <trkpt lat="44.41011" lon="3.41352">
        <ele>936</ele>
        <time>2019-12-19T02:21:42Z</time>
      </trkpt>
      <trkpt lat="44.40965" lon="3.41371">
        <ele>937</ele>
        <time>2019-12-19T02:21:50Z</time>
      </trkpt>
      <trkpt lat="44.40949" lon="3.41376">
        <ele>937</ele>
        <time>2019-12-19T02:21:53Z</time>
      </trkpt>
      <trkpt lat="44.40936" lon="3.41374">
        <ele>938</ele>
        <time>2019-12-19T02:21:56Z</time>
      </trkpt>
      <trkpt lat="44.40897" lon="3.41341">
        <ele>938</ele>
        <time>2019-12-19T02:22:04Z</time>
      </trkpt>
      <trkpt lat="44.4088" lon="3.41345">
        <ele>937</ele>
        <time>2019-12-19T02:22:07Z</time>
      </trkpt>
      <trkpt lat="44.40875" lon="3.4136">
        <ele>937</ele>
        <time>2019-12-19T02:22:09Z</time>
      </trkpt>
      <trkpt lat="44.40871" lon="3.41393">
        <ele>936</ele>
        <time>2019-12-19T02:22:13Z</time>
      </trkpt>
      <trkpt lat="44.40863" lon="3.41412">
        <ele>935</ele>
        <time>2019-12-19T02:22:16Z</time>
      </trkpt>
      <trkpt lat="44.40844" lon="3.41447">
        <ele>935</ele>
        <time>2019-12-19T02:22:22Z</time>
      </trkpt>
      <trkpt lat="44.40816" lon="3.4155">
        <ele>940</ele>
        <time>2019-12-19T02:22:36Z</time>
      </trkpt>
      <trkpt lat="44.40807" lon="3.41568">
        <ele>941</ele>
        <time>2019-12-19T02:22:38Z</time>
      </trkpt>
      <trkpt lat="44.40787" lon="3.41582">
        <ele>941</ele>
        <time>2019-12-19T02:22:42Z</time>
      </trkpt>
      <trkpt lat="44.40767" lon="3.4159">
        <ele>941</ele>
        <time>2019-12-19T02:22:46Z</time>
      </trkpt>
      <trkpt lat="44.40731" lon="3.41614">
        <ele>942</ele>
        <time>2019-12-19T02:22:53Z</time>
      </trkpt>
      <trkpt lat="44.40707" lon="3.41645">
        <ele>944</ele>
        <time>2019-12-19T02:22:59Z</time>
      </trkpt>
      <trkpt lat="44.40685" lon="3.41684">
        <ele>947</ele>
        <time>2019-12-19T02:23:05Z</time>
      </trkpt>
      <trkpt lat="44.40674" lon="3.41713">
        <ele>950</ele>
        <time>2019-12-19T02:23:10Z</time>
      </trkpt>
      <trkpt lat="44.40654" lon="3.41783">
        <ele>959</ele>
        <time>2019-12-19T02:23:19Z</time>
      </trkpt>
      <trkpt lat="44.40637" lon="3.41797">
        <ele>962</ele>
        <time>2019-12-19T02:23:23Z</time>
      </trkpt>
      <trkpt lat="44.40605" lon="3.41786">
        <ele>962</ele>
        <time>2019-12-19T02:23:28Z</time>
      </trkpt>
      <trkpt lat="44.40589" lon="3.41762">
        <ele>960</ele>
        <time>2019-12-19T02:23:33Z</time>
      </trkpt>
      <trkpt lat="44.40575" lon="3.41746">
        <ele>959</ele>
        <time>2019-12-19T02:23:36Z</time>
      </trkpt>
      <trkpt lat="44.40527" lon="3.41714">
        <ele>960</ele>
        <time>2019-12-19T02:23:45Z</time>
      </trkpt>
      <trkpt lat="44.40511" lon="3.41711">
        <ele>961</ele>
        <time>2019-12-19T02:23:48Z</time>
      </trkpt>
      <trkpt lat="44.4047" lon="3.41713">
        <ele>966</ele>
        <time>2019-12-19T02:23:56Z</time>
      </trkpt>
      <trkpt lat="44.40406" lon="3.41691">
        <ele>968</ele>
        <time>2019-12-19T02:24:07Z</time>
      </trkpt>
      <trkpt lat="44.4039" lon="3.41694">
        <ele>969</ele>
        <time>2019-12-19T02:24:10Z</time>
      </trkpt>
      <trkpt lat="44.40376" lon="3.41704">
        <ele>971</ele>
        <time>2019-12-19T02:24:13Z</time>
      </trkpt>
      <trkpt lat="44.40369" lon="3.41715">
        <ele>972</ele>
        <time>2019-12-19T02:24:15Z</time>
      </trkpt>
      <trkpt lat="44.40365" lon="3.41727">
        <ele>974</ele>
        <time>2019-12-19T02:24:16Z</time>
      </trkpt>
      <trkpt lat="44.40362" lon="3.41743">
        <ele>975</ele>
        <time>2019-12-19T02:24:19Z</time>
      </trkpt>
      <trkpt lat="44.40363" lon="3.41762">
        <ele>976</ele>
        <time>2019-12-19T02:24:21Z</time>
      </trkpt>
      <trkpt lat="44.4037" lon="3.41825">
        <ele>979</ele>
        <time>2019-12-19T02:24:29Z</time>
      </trkpt>
      <trkpt lat="44.40402" lon="3.4198">
        <ele>984</ele>
        <time>2019-12-19T02:24:50Z</time>
      </trkpt>
      <trkpt lat="44.40422" lon="3.42091">
        <ele>982</ele>
        <time>2019-12-19T02:25:04Z</time>
      </trkpt>
      <trkpt lat="44.40435" lon="3.42144">
        <ele>982</ele>
        <time>2019-12-19T02:25:11Z</time>
      </trkpt>
      <trkpt lat="44.40472" lon="3.42229">
        <ele>983</ele>
        <time>2019-12-19T02:25:24Z</time>
      </trkpt>
      <trkpt lat="44.40481" lon="3.42271">
        <ele>983</ele>
        <time>2019-12-19T02:25:30Z</time>
      </trkpt>
      <trkpt lat="44.40496" lon="3.42675">
        <ele>979</ele>
        <time>2019-12-19T02:26:21Z</time>
      </trkpt>
      <trkpt lat="44.40504" lon="3.42706">
        <ele>978</ele>
        <time>2019-12-19T02:26:25Z</time>
      </trkpt>
      <trkpt lat="44.40538" lon="3.42773">
        <ele>978</ele>
        <time>2019-12-19T02:26:36Z</time>
      </trkpt>
      <trkpt lat="44.40561" lon="3.42812">
        <ele>979</ele>
        <time>2019-12-19T02:26:42Z</time>
      </trkpt>
      <trkpt lat="44.4057" lon="3.42838">
        <ele>979</ele>
        <time>2019-12-19T02:26:46Z</time>
      </trkpt>
      <trkpt lat="44.4057" lon="3.42859">
        <ele>978</ele>
        <time>2019-12-19T02:26:48Z</time>
      </trkpt>
      <trkpt lat="44.40565" lon="3.42882">
        <ele>978</ele>
        <time>2019-12-19T02:26:51Z</time>
      </trkpt>
      <trkpt lat="44.4055" lon="3.42904">
        <ele>977</ele>
        <time>2019-12-19T02:26:55Z</time>
      </trkpt>
      <trkpt lat="44.40507" lon="3.42946">
        <ele>976</ele>
        <time>2019-12-19T02:27:05Z</time>
      </trkpt>
      <trkpt lat="44.40482" lon="3.42978">
        <ele>975</ele>
        <time>2019-12-19T02:27:11Z</time>
      </trkpt>
      <trkpt lat="44.40472" lon="3.43008">
        <ele>975</ele>
        <time>2019-12-19T02:27:15Z</time>
      </trkpt>
      <trkpt lat="44.40468" lon="3.43046">
        <ele>973</ele>
        <time>2019-12-19T02:27:20Z</time>
      </trkpt>
      <trkpt lat="44.40467" lon="3.43071">
        <ele>972</ele>
        <time>2019-12-19T02:27:23Z</time>
      </trkpt>
      <trkpt lat="44.40471" lon="3.43087">
        <ele>971</ele>
        <time>2019-12-19T02:27:25Z</time>
      </trkpt>
      <trkpt lat="44.40479" lon="3.43106">
        <ele>970</ele>
        <time>2019-12-19T02:27:28Z</time>
      </trkpt>
      <trkpt lat="44.40509" lon="3.43147">
        <ele>968</ele>
        <time>2019-12-19T02:27:35Z</time>
      </trkpt>
      <trkpt lat="44.40521" lon="3.43156">
        <ele>967</ele>
        <time>2019-12-19T02:27:38Z</time>
      </trkpt>
      <trkpt lat="44.40536" lon="3.43163">
        <ele>967</ele>
        <time>2019-12-19T02:27:41Z</time>
      </trkpt>
      <trkpt lat="44.40567" lon="3.43165">
        <ele>968</ele>
        <time>2019-12-19T02:27:46Z</time>
      </trkpt>
      <trkpt lat="44.40586" lon="3.4317">
        <ele>968</ele>
        <time>2019-12-19T02:27:50Z</time>
      </trkpt>
      <trkpt lat="44.40589" lon="3.43185">
        <ele>968</ele>
        <time>2019-12-19T02:27:51Z</time>
      </trkpt>
      <trkpt lat="44.40577" lon="3.43188">
        <ele>967</ele>
        <time>2019-12-19T02:27:54Z</time>
      </trkpt>
      <trkpt lat="44.40527" lon="3.43218">
        <ele>963</ele>
        <time>2019-12-19T02:28:03Z</time>
      </trkpt>
      <trkpt lat="44.40496" lon="3.43229">
        <ele>960</ele>
        <time>2019-12-19T02:28:09Z</time>
      </trkpt>
      <trkpt lat="44.40472" lon="3.43225">
        <ele>958</ele>
        <time>2019-12-19T02:28:13Z</time>
      </trkpt>
      <trkpt lat="44.40404" lon="3.432">
        <ele>955</ele>
        <time>2019-12-19T02:28:26Z</time>
      </trkpt>
      <trkpt lat="44.40218" lon="3.43064">
        <ele>943</ele>
        <time>2019-12-19T02:29:03Z</time>
      </trkpt>
      <trkpt lat="44.40081" lon="3.43007">
        <ele>936</ele>
        <time>2019-12-19T02:29:29Z</time>
      </trkpt>
      <trkpt lat="44.40002" lon="3.42986">
        <ele>930</ele>
        <time>2019-12-19T02:29:43Z</time>
      </trkpt>
      <trkpt lat="44.3996" lon="3.42981">
        <ele>927</ele>
        <time>2019-12-19T02:29:50Z</time>
      </trkpt>
      <trkpt lat="44.39937" lon="3.42973">
        <ele>925</ele>
        <time>2019-12-19T02:29:55Z</time>
      </trkpt>
      <trkpt lat="44.39911" lon="3.42956">
        <ele>923</ele>
        <time>2019-12-19T02:30:00Z</time>
      </trkpt>
      <trkpt lat="44.39839" lon="3.42896">
        <ele>916</ele>
        <time>2019-12-19T02:30:15Z</time>
      </trkpt>
      <trkpt lat="44.39686" lon="3.42775">
        <ele>909</ele>
        <time>2019-12-19T02:30:46Z</time>
      </trkpt>
      <trkpt lat="44.39649" lon="3.42751">
        <ele>906</ele>
        <time>2019-12-19T02:30:53Z</time>
      </trkpt>
      <trkpt lat="44.39523" lon="3.42634">
        <ele>903</ele>
        <time>2019-12-19T02:31:20Z</time>
      </trkpt>
      <trkpt lat="44.39496" lon="3.42603">
        <ele>898</ele>
        <time>2019-12-19T02:31:26Z</time>
      </trkpt>
      <trkpt lat="44.39415" lon="3.42563">
        <ele>897</ele>
        <time>2019-12-19T02:31:42Z</time>
      </trkpt>
      <trkpt lat="44.39317" lon="3.42499">
        <ele>887</ele>
        <time>2019-12-19T02:32:01Z</time>
      </trkpt>
      <trkpt lat="44.39273" lon="3.42488">
        <ele>885</ele>
        <time>2019-12-19T02:32:09Z</time>
      </trkpt>
      <trkpt lat="44.39221" lon="3.4248">
        <ele>883</ele>
        <time>2019-12-19T02:32:18Z</time>
      </trkpt>
      <trkpt lat="44.39179" lon="3.42467">
        <ele>880</ele>
        <time>2019-12-19T02:32:26Z</time>
      </trkpt>
      <trkpt lat="44.39119" lon="3.42427">
        <ele>876</ele>
        <time>2019-12-19T02:32:38Z</time>
      </trkpt>
      <trkpt lat="44.39066" lon="3.42407">
        <ele>875</ele>
        <time>2019-12-19T02:32:47Z</time>
      </trkpt>
      <trkpt lat="44.39035" lon="3.42373">
        <ele>873</ele>
        <time>2019-12-19T02:32:54Z</time>
      </trkpt>
      <trkpt lat="44.39019" lon="3.42338">
        <ele>870</ele>
        <time>2019-12-19T02:33:00Z</time>
      </trkpt>
      <trkpt lat="44.38992" lon="3.42282">
        <ele>865</ele>
        <time>2019-12-19T02:33:08Z</time>
      </trkpt>
      <trkpt lat="44.38977" lon="3.4225">
        <ele>861</ele>
        <time>2019-12-19T02:33:13Z</time>
      </trkpt>
      <trkpt lat="44.38965" lon="3.42231">
        <ele>862</ele>
        <time>2019-12-19T02:33:16Z</time>
      </trkpt>
      <trkpt lat="44.38948" lon="3.42216">
        <ele>863</ele>
        <time>2019-12-19T02:33:20Z</time>
      </trkpt>
      <trkpt lat="44.38936" lon="3.42211">
        <ele>863</ele>
        <time>2019-12-19T02:33:22Z</time>
      </trkpt>
      <trkpt lat="44.38837" lon="3.42201">
        <ele>860</ele>
        <time>2019-12-19T02:33:40Z</time>
      </trkpt>
      <trkpt lat="44.3877" lon="3.42209">
        <ele>856</ele>
        <time>2019-12-19T02:33:52Z</time>
      </trkpt>
      <trkpt lat="44.38698" lon="3.42225">
        <ele>850</ele>
        <time>2019-12-19T02:34:05Z</time>
      </trkpt>
      <trkpt lat="44.38606" lon="3.42256">
        <ele>841</ele>
        <time>2019-12-19T02:34:22Z</time>
      </trkpt>
      <trkpt lat="44.38572" lon="3.42259">
        <ele>841</ele>
        <time>2019-12-19T02:34:28Z</time>
      </trkpt>
      <trkpt lat="44.38553" lon="3.42254">
        <ele>841</ele>
        <time>2019-12-19T02:34:31Z</time>
      </trkpt>
      <trkpt lat="44.38488" lon="3.42203">
        <ele>839</ele>
        <time>2019-12-19T02:34:44Z</time>
      </trkpt>
      <trkpt lat="44.38427" lon="3.42185">
        <ele>833</ele>
        <time>2019-12-19T02:34:55Z</time>
      </trkpt>
      <trkpt lat="44.38398" lon="3.42178">
        <ele>829</ele>
        <time>2019-12-19T02:35:01Z</time>
      </trkpt>
      <trkpt lat="44.38345" lon="3.4218">
        <ele>826</ele>
        <time>2019-12-19T02:35:10Z</time>
      </trkpt>
      <trkpt lat="44.38287" lon="3.42194">
        <ele>825</ele>
        <time>2019-12-19T02:35:21Z</time>
      </trkpt>
      <trkpt lat="44.38231" lon="3.42194">
        <ele>820</ele>
        <time>2019-12-19T02:35:30Z</time>
      </trkpt>
      <trkpt lat="44.38162" lon="3.42174">
        <ele>808</ele>
        <time>2019-12-19T02:35:43Z</time>
      </trkpt>
      <trkpt lat="44.3814" lon="3.42176">
        <ele>806</ele>
        <time>2019-12-19T02:35:47Z</time>
      </trkpt>
      <trkpt lat="44.38047" lon="3.42199">
        <ele>799</ele>
        <time>2019-12-19T02:36:04Z</time>
      </trkpt>
      <trkpt lat="44.38028" lon="3.42199">
        <ele>796</ele>
        <time>2019-12-19T02:36:07Z</time>
      </trkpt>
      <trkpt lat="44.38014" lon="3.42193">
        <ele>793</ele>
        <time>2019-12-19T02:36:10Z</time>
      </trkpt>
      <trkpt lat="44.38003" lon="3.42186">
        <ele>790</ele>
        <time>2019-12-19T02:36:12Z</time>
      </trkpt>
      <trkpt lat="44.37922" lon="3.42104">
        <ele>777</ele>
        <time>2019-12-19T02:36:30Z</time>
      </trkpt>
      <trkpt lat="44.37913" lon="3.42092">
        <ele>776</ele>
        <time>2019-12-19T02:36:32Z</time>
      </trkpt>
      <trkpt lat="44.37901" lon="3.42072">
        <ele>777</ele>
        <time>2019-12-19T02:36:35Z</time>
      </trkpt>
      <trkpt lat="44.37888" lon="3.42032">
        <ele>778</ele>
        <time>2019-12-19T02:36:41Z</time>
      </trkpt>
      <trkpt lat="44.37875" lon="3.42002">
        <ele>774</ele>
        <time>2019-12-19T02:36:45Z</time>
      </trkpt>
      <trkpt lat="44.37825" lon="3.41917">
        <ele>767</ele>
        <time>2019-12-19T02:36:59Z</time>
      </trkpt>
      <trkpt lat="44.37798" lon="3.41883">
        <ele>769</ele>
        <time>2019-12-19T02:37:06Z</time>
      </trkpt>
      <trkpt lat="44.3773" lon="3.41827">
        <ele>757</ele>
        <time>2019-12-19T02:37:20Z</time>
      </trkpt>
      <trkpt lat="44.3772" lon="3.41812">
        <ele>758</ele>
        <time>2019-12-19T02:37:22Z</time>
      </trkpt>
      <trkpt lat="44.37702" lon="3.41779">
        <ele>764</ele>
        <time>2019-12-19T02:37:28Z</time>
      </trkpt>
      <trkpt lat="44.37686" lon="3.41761">
        <ele>764</ele>
        <time>2019-12-19T02:37:31Z</time>
      </trkpt>
      <trkpt lat="44.3761" lon="3.41692">
        <ele>755</ele>
        <time>2019-12-19T02:37:47Z</time>
      </trkpt>
      <trkpt lat="44.376" lon="3.41686">
        <ele>753</ele>
        <time>2019-12-19T02:37:49Z</time>
      </trkpt>
      <trkpt lat="44.37577" lon="3.41679">
        <ele>747</ele>
        <time>2019-12-19T02:37:54Z</time>
      </trkpt>
      <trkpt lat="44.37523" lon="3.41675">
        <ele>732</ele>
        <time>2019-12-19T02:38:03Z</time>
      </trkpt>
      <trkpt lat="44.37502" lon="3.41668">
        <ele>727</ele>
        <time>2019-12-19T02:38:07Z</time>
      </trkpt>
      <trkpt lat="44.37493" lon="3.41661">
        <ele>727</ele>
        <time>2019-12-19T02:38:09Z</time>
      </trkpt>
      <trkpt lat="44.37444" lon="3.41619">
        <ele>721</ele>
        <time>2019-12-19T02:38:19Z</time>
      </trkpt>
      <trkpt lat="44.37436" lon="3.41604">
        <ele>722</ele>
        <time>2019-12-19T02:38:21Z</time>
      </trkpt>
      <trkpt lat="44.37417" lon="3.41556">
        <ele>727</ele>
        <time>2019-12-19T02:38:28Z</time>
      </trkpt>
      <trkpt lat="44.37407" lon="3.41536">
        <ele>727</ele>
        <time>2019-12-19T02:38:32Z</time>
      </trkpt>
      <trkpt lat="44.37391" lon="3.41512">
        <ele>725</ele>
        <time>2019-12-19T02:38:36Z</time>
      </trkpt>
      <trkpt lat="44.37353" lon="3.41465">
        <ele>714</ele>
        <time>2019-12-19T02:38:45Z</time>
      </trkpt>
      <trkpt lat="44.37341" lon="3.41442">
        <ele>712</ele>
        <time>2019-12-19T02:38:48Z</time>
      </trkpt>
      <trkpt lat="44.37336" lon="3.41431">
        <ele>711</ele>
        <time>2019-12-19T02:38:50Z</time>
      </trkpt>
      <trkpt lat="44.37332" lon="3.41409">
        <ele>713</ele>
        <time>2019-12-19T02:38:53Z</time>
      </trkpt>
      <trkpt lat="44.37328" lon="3.41327">
        <ele>719</ele>
        <time>2019-12-19T02:39:03Z</time>
      </trkpt>
      <trkpt lat="44.37322" lon="3.41307">
        <ele>719</ele>
        <time>2019-12-19T02:39:06Z</time>
      </trkpt>
      <trkpt lat="44.37317" lon="3.41298">
        <ele>718</ele>
        <time>2019-12-19T02:39:08Z</time>
      </trkpt>
      <trkpt lat="44.37312" lon="3.41366">
        <ele>703</ele>
        <time>2019-12-19T02:39:16Z</time>
      </trkpt>
      <trkpt lat="44.37307" lon="3.41388">
        <ele>697</ele>
        <time>2019-12-19T02:39:19Z</time>
      </trkpt>
      <trkpt lat="44.37306" lon="3.41405">
        <ele>694</ele>
        <time>2019-12-19T02:39:21Z</time>
      </trkpt>
      <trkpt lat="44.37301" lon="3.41427">
        <ele>687</ele>
        <time>2019-12-19T02:39:24Z</time>
      </trkpt>
      <trkpt lat="44.37298" lon="3.4145">
        <ele>679</ele>
        <time>2019-12-19T02:39:27Z</time>
      </trkpt>
      <trkpt lat="44.37283" lon="3.41359">
        <ele>685</ele>
        <time>2019-12-19T02:39:39Z</time>
      </trkpt>
      <trkpt lat="44.37277" lon="3.41342">
        <ele>684</ele>
        <time>2019-12-19T02:39:42Z</time>
      </trkpt>
      <trkpt lat="44.37266" lon="3.41323">
        <ele>681</ele>
        <time>2019-12-19T02:39:45Z</time>
      </trkpt>
      <trkpt lat="44.37214" lon="3.41248">
        <ele>669</ele>
        <time>2019-12-19T02:39:58Z</time>
      </trkpt>
      <trkpt lat="44.37177" lon="3.41199">
        <ele>659</ele>
        <time>2019-12-19T02:40:07Z</time>
      </trkpt>
      <trkpt lat="44.3717" lon="3.41187">
        <ele>657</ele>
        <time>2019-12-19T02:40:09Z</time>
      </trkpt>
      <trkpt lat="44.37169" lon="3.41176">
        <ele>659</ele>
        <time>2019-12-19T02:40:10Z</time>
      </trkpt>
      <trkpt lat="44.37169" lon="3.41165">
        <ele>662</ele>
        <time>2019-12-19T02:40:12Z</time>
      </trkpt>
      <trkpt lat="44.37175" lon="3.41136">
        <ele>673</ele>
        <time>2019-12-19T02:40:16Z</time>
      </trkpt>
      <trkpt lat="44.37172" lon="3.41122">
        <ele>676</ele>
        <time>2019-12-19T02:40:17Z</time>
      </trkpt>
      <trkpt lat="44.37169" lon="3.41116">
        <ele>676</ele>
        <time>2019-12-19T02:40:18Z</time>
      </trkpt>
      <trkpt lat="44.3716" lon="3.4111">
        <ele>674</ele>
        <time>2019-12-19T02:40:20Z</time>
      </trkpt>
      <trkpt lat="44.37092" lon="3.41108">
        <ele>655</ele>
        <time>2019-12-19T02:40:32Z</time>
      </trkpt>
      <trkpt lat="44.37086" lon="3.4111">
        <ele>652</ele>
        <time>2019-12-19T02:40:33Z</time>
      </trkpt>
      <trkpt lat="44.37084" lon="3.41115">
        <ele>650</ele>
        <time>2019-12-19T02:40:34Z</time>
      </trkpt>
      <trkpt lat="44.37084" lon="3.41121">
        <ele>647</ele>
        <time>2019-12-19T02:40:35Z</time>
      </trkpt>
      <trkpt lat="44.37086" lon="3.41126">
        <ele>646</ele>
        <time>2019-12-19T02:40:36Z</time>
      </trkpt>
      <trkpt lat="44.3709" lon="3.41129">
        <ele>646</ele>
        <time>2019-12-19T02:40:36Z</time>
      </trkpt>
      <trkpt lat="44.37119" lon="3.41129">
        <ele>655</ele>
        <time>2019-12-19T02:40:42Z</time>
      </trkpt>
      <trkpt lat="44.37133" lon="3.41136">
        <ele>658</ele>
        <time>2019-12-19T02:40:44Z</time>
      </trkpt>
      <trkpt lat="44.37137" lon="3.41143">
        <ele>657</ele>
        <time>2019-12-19T02:40:45Z</time>
      </trkpt>
      <trkpt lat="44.37139" lon="3.41151">
        <ele>655</ele>
        <time>2019-12-19T02:40:46Z</time>
      </trkpt>
      <trkpt lat="44.37139" lon="3.41166">
        <ele>650</ele>
        <time>2019-12-19T02:40:48Z</time>
      </trkpt>
      <trkpt lat="44.37134" lon="3.41202">
        <ele>638</ele>
        <time>2019-12-19T02:40:53Z</time>
      </trkpt>
      <trkpt lat="44.37134" lon="3.41214">
        <ele>635</ele>
        <time>2019-12-19T02:40:55Z</time>
      </trkpt>
      <trkpt lat="44.37138" lon="3.41225">
        <ele>633</ele>
        <time>2019-12-19T02:40:56Z</time>
      </trkpt>
      <trkpt lat="44.37158" lon="3.41259">
        <ele>634</ele>
        <time>2019-12-19T02:41:02Z</time>
      </trkpt>
      <trkpt lat="44.37163" lon="3.41271">
        <ele>633</ele>
        <time>2019-12-19T02:41:03Z</time>
      </trkpt>
      <trkpt lat="44.37193" lon="3.41371">
        <ele>625</ele>
        <time>2019-12-19T02:41:17Z</time>
      </trkpt>
      <trkpt lat="44.37208" lon="3.41456">
        <ele>624</ele>
        <time>2019-12-19T02:41:28Z</time>
      </trkpt>
      <trkpt lat="44.37208" lon="3.41465">
        <ele>624</ele>
        <time>2019-12-19T02:41:30Z</time>
      </trkpt>
      <trkpt lat="44.37205" lon="3.41471">
        <ele>622</ele>
        <time>2019-12-19T02:41:30Z</time>
      </trkpt>
      <trkpt lat="44.37199" lon="3.4147">
        <ele>620</ele>
        <time>2019-12-19T02:41:32Z</time>
      </trkpt>
      <trkpt lat="44.37195" lon="3.41464">
        <ele>618</ele>
        <time>2019-12-19T02:41:33Z</time>
      </trkpt>
      <trkpt lat="44.3719" lon="3.41434">
        <ele>616</ele>
        <time>2019-12-19T02:41:37Z</time>
      </trkpt>
      <trkpt lat="44.37178" lon="3.414">
        <ele>611</ele>
        <time>2019-12-19T02:41:41Z</time>
      </trkpt>
      <trkpt lat="44.37165" lon="3.41367">
        <ele>609</ele>
        <time>2019-12-19T02:41:46Z</time>
      </trkpt>
      <trkpt lat="44.37151" lon="3.41342">
        <ele>607</ele>
        <time>2019-12-19T02:41:50Z</time>
      </trkpt>
      <trkpt lat="44.3712" lon="3.41303">
        <ele>602</ele>
        <time>2019-12-19T02:41:58Z</time>
      </trkpt>
      <trkpt lat="44.37089" lon="3.41279">
        <ele>594</ele>
        <time>2019-12-19T02:42:04Z</time>
      </trkpt>
      <trkpt lat="44.37047" lon="3.41254">
        <ele>587</ele>
        <time>2019-12-19T02:42:12Z</time>
      </trkpt>
      <trkpt lat="44.37034" lon="3.41254">
        <ele>583</ele>
        <time>2019-12-19T02:42:14Z</time>
      </trkpt>
      <trkpt lat="44.37015" lon="3.41261">
        <ele>576</ele>
        <time>2019-12-19T02:42:18Z</time>
      </trkpt>
      <trkpt lat="44.37007" lon="3.4126">
        <ele>574</ele>
        <time>2019-12-19T02:42:19Z</time>
      </trkpt>
      <trkpt lat="44.36987" lon="3.41248">
        <ele>569</ele>
        <time>2019-12-19T02:42:23Z</time>
      </trkpt>
      <trkpt lat="44.36982" lon="3.41248">
        <ele>567</ele>
        <time>2019-12-19T02:42:24Z</time>
      </trkpt>
      <trkpt lat="44.36978" lon="3.41253">
        <ele>564</ele>
        <time>2019-12-19T02:42:25Z</time>
      </trkpt>
      <trkpt lat="44.36977" lon="3.4126">
        <ele>562</ele>
        <time>2019-12-19T02:42:26Z</time>
      </trkpt>
      <trkpt lat="44.36978" lon="3.41266">
        <ele>562</ele>
        <time>2019-12-19T02:42:27Z</time>
      </trkpt>
      <trkpt lat="44.37006" lon="3.41297">
        <ele>566</ele>
        <time>2019-12-19T02:42:33Z</time>
      </trkpt>
      <trkpt lat="44.37015" lon="3.41302">
        <ele>568</ele>
        <time>2019-12-19T02:42:35Z</time>
      </trkpt>
      <trkpt lat="44.37036" lon="3.41306">
        <ele>572</ele>
        <time>2019-12-19T02:42:39Z</time>
      </trkpt>
      <trkpt lat="44.37059" lon="3.41317">
        <ele>575</ele>
        <time>2019-12-19T02:42:43Z</time>
      </trkpt>
      <trkpt lat="44.37066" lon="3.41321">
        <ele>575</ele>
        <time>2019-12-19T02:42:44Z</time>
      </trkpt>
      <trkpt lat="44.37068" lon="3.41328">
        <ele>574</ele>
        <time>2019-12-19T02:42:45Z</time>
      </trkpt>
      <trkpt lat="44.37068" lon="3.41333">
        <ele>573</ele>
        <time>2019-12-19T02:42:46Z</time>
      </trkpt>
      <trkpt lat="44.37063" lon="3.41337">
        <ele>572</ele>
        <time>2019-12-19T02:42:47Z</time>
      </trkpt>
      <trkpt lat="44.37013" lon="3.41347">
        <ele>564</ele>
        <time>2019-12-19T02:42:56Z</time>
      </trkpt>
      <trkpt lat="44.36988" lon="3.41346">
        <ele>558</ele>
        <time>2019-12-19T02:43:00Z</time>
      </trkpt>
      <trkpt lat="44.36967" lon="3.41349">
        <ele>555</ele>
        <time>2019-12-19T02:43:04Z</time>
      </trkpt>
      <trkpt lat="44.36959" lon="3.41344">
        <ele>552</ele>
        <time>2019-12-19T02:43:06Z</time>
      </trkpt>
      <trkpt lat="44.36955" lon="3.41332">
        <ele>547</ele>
        <time>2019-12-19T02:43:07Z</time>
      </trkpt>
      <trkpt lat="44.3694" lon="3.41268">
        <ele>547</ele>
        <time>2019-12-19T02:43:16Z</time>
      </trkpt>
      <trkpt lat="44.3693" lon="3.41247">
        <ele>544</ele>
        <time>2019-12-19T02:43:19Z</time>
      </trkpt>
      <trkpt lat="44.36916" lon="3.4123">
        <ele>544</ele>
        <time>2019-12-19T02:43:22Z</time>
      </trkpt>
      <trkpt lat="44.36887" lon="3.41208">
        <ele>543</ele>
        <time>2019-12-19T02:43:28Z</time>
      </trkpt>
      <trkpt lat="44.36867" lon="3.41201">
        <ele>539</ele>
        <time>2019-12-19T02:43:32Z</time>
      </trkpt>
      <trkpt lat="44.36857" lon="3.41201">
        <ele>535</ele>
        <time>2019-12-19T02:43:34Z</time>
      </trkpt>
      <trkpt lat="44.36844" lon="3.41206">
        <ele>529</ele>
        <time>2019-12-19T02:43:36Z</time>
      </trkpt>
      <trkpt lat="44.36834" lon="3.41216">
        <ele>523</ele>
        <time>2019-12-19T02:43:38Z</time>
      </trkpt>
      <trkpt lat="44.36825" lon="3.41229">
        <ele>518</ele>
        <time>2019-12-19T02:43:41Z</time>
      </trkpt>
      <trkpt lat="44.36817" lon="3.41234">
        <ele>515</ele>
        <time>2019-12-19T02:43:42Z</time>
      </trkpt>
      <trkpt lat="44.36808" lon="3.4123">
        <ele>514</ele>
        <time>2019-12-19T02:43:44Z</time>
      </trkpt>
      <trkpt lat="44.36755" lon="3.41148">
        <ele>511</ele>
        <time>2019-12-19T02:43:58Z</time>
      </trkpt>
      <trkpt lat="44.36752" lon="3.41142">
        <ele>509</ele>
        <time>2019-12-19T02:43:59Z</time>
      </trkpt>
      <trkpt lat="44.36751" lon="3.41135">
        <ele>509</ele>
        <time>2019-12-19T02:44:00Z</time>
      </trkpt>
      <trkpt lat="44.36752" lon="3.411">
        <ele>509</ele>
        <time>2019-12-19T02:44:04Z</time>
      </trkpt>
      <trkpt lat="44.36751" lon="3.41092">
        <ele>509</ele>
        <time>2019-12-19T02:44:05Z</time>
      </trkpt>
      <trkpt lat="44.36748" lon="3.41086">
        <ele>508</ele>
        <time>2019-12-19T02:44:06Z</time>
      </trkpt>
      <trkpt lat="44.36742" lon="3.41029">
        <ele>508</ele>
        <time>2019-12-19T02:44:13Z</time>
      </trkpt>
      <trkpt lat="44.36735" lon="3.41004">
        <ele>507</ele>
        <time>2019-12-19T02:44:17Z</time>
      </trkpt>
      <trkpt lat="44.36726" lon="3.40984">
        <ele>508</ele>
        <time>2019-12-19T02:44:20Z</time>
      </trkpt>
      <trkpt lat="44.36714" lon="3.40969">
        <ele>507</ele>
        <time>2019-12-19T02:44:23Z</time>
      </trkpt>
      <trkpt lat="44.3667" lon="3.40939">
        <ele>500</ele>
        <time>2019-12-19T02:44:31Z</time>
      </trkpt>
      <trkpt lat="44.36664" lon="3.40939">
        <ele>498</ele>
        <time>2019-12-19T02:44:32Z</time>
      </trkpt>
      <trkpt lat="44.3666" lon="3.40943">
        <ele>497</ele>
        <time>2019-12-19T02:44:33Z</time>
      </trkpt>
      <trkpt lat="44.36656" lon="3.40945">
        <ele>496</ele>
        <time>2019-12-19T02:44:34Z</time>
      </trkpt>
      <trkpt lat="44.36639" lon="3.40941">
        <ele>496</ele>
        <time>2019-12-19T02:44:37Z</time>
      </trkpt>
      <trkpt lat="44.36624" lon="3.40945">
        <ele>494</ele>
        <time>2019-12-19T02:44:40Z</time>
      </trkpt>
      <trkpt lat="44.36613" lon="3.40951">
        <ele>492</ele>
        <time>2019-12-19T02:44:42Z</time>
      </trkpt>
      <trkpt lat="44.3661" lon="3.40957">
        <ele>490</ele>
        <time>2019-12-19T02:44:43Z</time>
      </trkpt>
      <trkpt lat="44.36597" lon="3.40961">
        <ele>488</ele>
        <time>2019-12-19T02:44:45Z</time>
      </trkpt>
      <trkpt lat="44.36597" lon="3.40964">
        <ele>487</ele>
        <time>2019-12-19T02:44:46Z</time>
      </trkpt>
      <trkpt lat="44.366" lon="3.40967">
        <ele>487</ele>
        <time>2019-12-19T02:44:46Z</time>
      </trkpt>
      <trkpt lat="44.36595" lon="3.40978">
        <ele>483</ele>
        <time>2019-12-19T02:44:48Z</time>
      </trkpt>
      <trkpt lat="44.3659" lon="3.40982">
        <ele>482</ele>
        <time>2019-12-19T02:44:49Z</time>
      </trkpt>
      <trkpt lat="44.36591" lon="3.40985">
        <ele>481</ele>
        <time>2019-12-19T02:44:49Z</time>
      </trkpt>
      <trkpt lat="44.36596" lon="3.40986">
        <ele>482</ele>
        <time>2019-12-19T02:44:50Z</time>
      </trkpt>
      <trkpt lat="44.36596" lon="3.40995">
        <ele>479</ele>
        <time>2019-12-19T02:44:51Z</time>
      </trkpt>
      <trkpt lat="44.36585" lon="3.41006">
        <ele>477</ele>
        <time>2019-12-19T02:44:54Z</time>
      </trkpt>
      <trkpt lat="44.36556" lon="3.41029">
        <ele>474</ele>
        <time>2019-12-19T02:45:00Z</time>
      </trkpt>
      <trkpt lat="44.36557" lon="3.41033">
        <ele>474</ele>
        <time>2019-12-19T02:45:00Z</time>
      </trkpt>
      <trkpt lat="44.36558" lon="3.41042">
        <ele>474</ele>
        <time>2019-12-19T02:45:02Z</time>
      </trkpt>
      <trkpt lat="44.36558" lon="3.41052">
        <ele>474</ele>
        <time>2019-12-19T02:45:03Z</time>
      </trkpt>
      <trkpt lat="44.36551" lon="3.41074">
        <ele>473</ele>
        <time>2019-12-19T02:45:06Z</time>
      </trkpt>
      <trkpt lat="44.36542" lon="3.41118">
        <ele>473</ele>
        <time>2019-12-19T02:45:12Z</time>
      </trkpt>
      <trkpt lat="44.3654" lon="3.41161">
        <ele>474</ele>
        <time>2019-12-19T02:45:17Z</time>
      </trkpt>
      <trkpt lat="44.36544" lon="3.41199">
        <ele>474</ele>
        <time>2019-12-19T02:45:22Z</time>
      </trkpt>
      <trkpt lat="44.36548" lon="3.41212">
        <ele>474</ele>
        <time>2019-12-19T02:45:24Z</time>
      </trkpt>
      <trkpt lat="44.36555" lon="3.41224">
        <ele>474</ele>
        <time>2019-12-19T02:45:26Z</time>
      </trkpt>
      <trkpt lat="44.3658" lon="3.41227">
        <ele>474</ele>
        <time>2019-12-19T02:45:30Z</time>
      </trkpt>
      <trkpt lat="44.36583" lon="3.41229">
        <ele>474</ele>
        <time>2019-12-19T02:45:31Z</time>
      </trkpt>
      <trkpt lat="44.3659" lon="3.4124">
        <ele>475</ele>
        <time>2019-12-19T02:45:33Z</time>
      </trkpt>
      <trkpt lat="44.36613" lon="3.4135">
        <ele>481</ele>
        <time>2019-12-19T02:45:47Z</time>
      </trkpt>
      <trkpt lat="44.36616" lon="3.41371">
        <ele>483</ele>
        <time>2019-12-19T02:45:50Z</time>
      </trkpt>
      <trkpt lat="44.36615" lon="3.41411">
        <ele>484</ele>
        <time>2019-12-19T02:45:55Z</time>
      </trkpt>
      <trkpt lat="44.36604" lon="3.4148">
        <ele>484</ele>
        <time>2019-12-19T02:46:04Z</time>
      </trkpt>
      <trkpt lat="44.36602" lon="3.41514">
        <ele>485</ele>
        <time>2019-12-19T02:46:08Z</time>
      </trkpt>
      <trkpt lat="44.36606" lon="3.41549">
        <ele>486</ele>
        <time>2019-12-19T02:46:13Z</time>
      </trkpt>
      <trkpt lat="44.3662" lon="3.41615">
        <ele>491</ele>
        <time>2019-12-19T02:46:22Z</time>
      </trkpt>
      <trkpt lat="44.36621" lon="3.41632">
        <ele>491</ele>
        <time>2019-12-19T02:46:24Z</time>
      </trkpt>
      <trkpt lat="44.36622" lon="3.4176">
        <ele>490</ele>
        <time>2019-12-19T02:46:40Z</time>
      </trkpt>
      <trkpt lat="44.36628" lon="3.41882">
        <ele>496</ele>
        <time>2019-12-19T02:46:56Z</time>
      </trkpt>
      <trkpt lat="44.36625" lon="3.41936">
        <ele>497</ele>
        <time>2019-12-19T02:47:03Z</time>
      </trkpt>
      <trkpt lat="44.36614" lon="3.42025">
        <ele>495</ele>
        <time>2019-12-19T02:47:14Z</time>
      </trkpt>
      <trkpt lat="44.36602" lon="3.42109">
        <ele>489</ele>
        <time>2019-12-19T02:47:25Z</time>
      </trkpt>
      <trkpt lat="44.36597" lon="3.4216">
        <ele>487</ele>
        <time>2019-12-19T02:47:32Z</time>
      </trkpt>
      <trkpt lat="44.3659" lon="3.42189">
        <ele>486</ele>
        <time>2019-12-19T02:47:35Z</time>
      </trkpt>
      <trkpt lat="44.36561" lon="3.42295">
        <ele>493</ele>
        <time>2019-12-19T02:47:50Z</time>
      </trkpt>
      <trkpt lat="44.36544" lon="3.4235">
        <ele>494</ele>
        <time>2019-12-19T02:47:57Z</time>
      </trkpt>
      <trkpt lat="44.36535" lon="3.4239">
        <ele>494</ele>
        <time>2019-12-19T02:48:03Z</time>
      </trkpt>
      <trkpt lat="44.3653" lon="3.42436">
        <ele>494</ele>
        <time>2019-12-19T02:48:09Z</time>
      </trkpt>
      <trkpt lat="44.36531" lon="3.42477">
        <ele>494</ele>
        <time>2019-12-19T02:48:14Z</time>
      </trkpt>
      <trkpt lat="44.36549" lon="3.42684">
        <ele>494</ele>
        <time>2019-12-19T02:48:40Z</time>
      </trkpt>
      <trkpt lat="44.36553" lon="3.42707">
        <ele>494</ele>
        <time>2019-12-19T02:48:44Z</time>
      </trkpt>
      <trkpt lat="44.36558" lon="3.42728">
        <ele>495</ele>
        <time>2019-12-19T02:48:46Z</time>
      </trkpt>
      <trkpt lat="44.36578" lon="3.4278">
        <ele>491</ele>
        <time>2019-12-19T02:48:54Z</time>
      </trkpt>
      <trkpt lat="44.36596" lon="3.4282">
        <ele>489</ele>
        <time>2019-12-19T02:49:00Z</time>
      </trkpt>
      <trkpt lat="44.36623" lon="3.42864">
        <ele>496</ele>
        <time>2019-12-19T02:49:07Z</time>
      </trkpt>
      <trkpt lat="44.36634" lon="3.42889">
        <ele>496</ele>
        <time>2019-12-19T02:49:11Z</time>
      </trkpt>
      <trkpt lat="44.36651" lon="3.42938">
        <ele>492</ele>
        <time>2019-12-19T02:49:18Z</time>
      </trkpt>
      <trkpt lat="44.36668" lon="3.43005">
        <ele>484</ele>
        <time>2019-12-19T02:49:27Z</time>
      </trkpt>
      <trkpt lat="44.3667" lon="3.43013">
        <ele>485</ele>
        <time>2019-12-19T02:49:28Z</time>
      </trkpt>
      <trkpt lat="44.3668" lon="3.43064">
        <ele>488</ele>
        <time>2019-12-19T02:49:35Z</time>
      </trkpt>
      <trkpt lat="44.36681" lon="3.43086">
        <ele>488</ele>
        <time>2019-12-19T02:49:38Z</time>
      </trkpt>
      <trkpt lat="44.36681" lon="3.43128">
        <ele>488</ele>
        <time>2019-12-19T02:49:43Z</time>
      </trkpt>
      <trkpt lat="44.36677" lon="3.43218">
        <ele>486</ele>
        <time>2019-12-19T02:49:54Z</time>
      </trkpt>
      <trkpt lat="44.36675" lon="3.43234">
        <ele>485</ele>
        <time>2019-12-19T02:49:56Z</time>
      </trkpt>
      <trkpt lat="44.36668" lon="3.4326">
        <ele>485</ele>
        <time>2019-12-19T02:50:00Z</time>
      </trkpt>
      <trkpt lat="44.36662" lon="3.43275">
        <ele>488</ele>
        <time>2019-12-19T02:50:02Z</time>
      </trkpt>
      <trkpt lat="44.36646" lon="3.43309">
        <ele>493</ele>
        <time>2019-12-19T02:50:07Z</time>
      </trkpt>
      <trkpt lat="44.36591" lon="3.43403">
        <ele>498</ele>
        <time>2019-12-19T02:50:23Z</time>
      </trkpt>
      <trkpt lat="44.36566" lon="3.43434">
        <ele>499</ele>
        <time>2019-12-19T02:50:29Z</time>
      </trkpt>
      <trkpt lat="44.36551" lon="3.43448">
        <ele>499</ele>
        <time>2019-12-19T02:50:32Z</time>
      </trkpt>
      <trkpt lat="44.36516" lon="3.43472">
        <ele>493</ele>
        <time>2019-12-19T02:50:39Z</time>
      </trkpt>
      <trkpt lat="44.3649" lon="3.43489">
        <ele>490</ele>
        <time>2019-12-19T02:50:44Z</time>
      </trkpt>
      <trkpt lat="44.36471" lon="3.43498">
        <ele>489</ele>
        <time>2019-12-19T02:50:48Z</time>
      </trkpt>
      <trkpt lat="44.36425" lon="3.43513">
        <ele>489</ele>
        <time>2019-12-19T02:50:56Z</time>
      </trkpt>
      <trkpt lat="44.36357" lon="3.43527">
        <ele>491</ele>
        <time>2019-12-19T02:51:08Z</time>
      </trkpt>
      <trkpt lat="44.36309" lon="3.43531">
        <ele>491</ele>
        <time>2019-12-19T02:51:17Z</time>
      </trkpt>
      <trkpt lat="44.36174" lon="3.43538">
        <ele>491</ele>
        <time>2019-12-19T02:51:41Z</time>
      </trkpt>
      <trkpt lat="44.36063" lon="3.43546">
        <ele>492</ele>
        <time>2019-12-19T02:52:01Z</time>
      </trkpt>
      <trkpt lat="44.36011" lon="3.43554">
        <ele>491</ele>
        <time>2019-12-19T02:52:10Z</time>
      </trkpt>
      <trkpt lat="44.35919" lon="3.43582">
        <ele>490</ele>
        <time>2019-12-19T02:52:27Z</time>
      </trkpt>
      <trkpt lat="44.35876" lon="3.43605">
        <ele>493</ele>
        <time>2019-12-19T02:52:35Z</time>
      </trkpt>
      <trkpt lat="44.35843" lon="3.43631">
        <ele>494</ele>
        <time>2019-12-19T02:52:42Z</time>
      </trkpt>
      <trkpt lat="44.3582" lon="3.43657">
        <ele>495</ele>
        <time>2019-12-19T02:52:47Z</time>
      </trkpt>
      <trkpt lat="44.35804" lon="3.43682">
        <ele>495</ele>
        <time>2019-12-19T02:52:51Z</time>
      </trkpt>
      <trkpt lat="44.3579" lon="3.43713">
        <ele>496</ele>
        <time>2019-12-19T02:52:56Z</time>
      </trkpt>
      <trkpt lat="44.35784" lon="3.43734">
        <ele>497</ele>
        <time>2019-12-19T02:52:59Z</time>
      </trkpt>
      <trkpt lat="44.35781" lon="3.43751">
        <ele>497</ele>
        <time>2019-12-19T02:53:01Z</time>
      </trkpt>
      <trkpt lat="44.35778" lon="3.43785">
        <ele>496</ele>
        <time>2019-12-19T02:53:05Z</time>
      </trkpt>
      <trkpt lat="44.3578" lon="3.43832">
        <ele>497</ele>
        <time>2019-12-19T02:53:11Z</time>
      </trkpt>
      <trkpt lat="44.35792" lon="3.43903">
        <ele>500</ele>
        <time>2019-12-19T02:53:20Z</time>
      </trkpt>
      <trkpt lat="44.35799" lon="3.43934">
        <ele>501</ele>
        <time>2019-12-19T02:53:25Z</time>
      </trkpt>
      <trkpt lat="44.3582" lon="3.43988">
        <ele>502</ele>
        <time>2019-12-19T02:53:32Z</time>
      </trkpt>
      <trkpt lat="44.35857" lon="3.44069">
        <ele>506</ele>
        <time>2019-12-19T02:53:45Z</time>
      </trkpt>
      <trkpt lat="44.35873" lon="3.44096">
        <ele>509</ele>
        <time>2019-12-19T02:53:49Z</time>
      </trkpt>
      <trkpt lat="44.35914" lon="3.44153">
        <ele>516</ele>
        <time>2019-12-19T02:53:59Z</time>
      </trkpt>
      <trkpt lat="44.35981" lon="3.44297">
        <ele>523</ele>
        <time>2019-12-19T02:54:21Z</time>
      </trkpt>
      <trkpt lat="44.35985" lon="3.44312">
        <ele>523</ele>
        <time>2019-12-19T02:54:23Z</time>
      </trkpt>
      <trkpt lat="44.3599" lon="3.4434">
        <ele>522</ele>
        <time>2019-12-19T02:54:27Z</time>
      </trkpt>
      <trkpt lat="44.35991" lon="3.44356">
        <ele>522</ele>
        <time>2019-12-19T02:54:29Z</time>
      </trkpt>
      <trkpt lat="44.35987" lon="3.44453">
        <ele>522</ele>
        <time>2019-12-19T02:54:41Z</time>
      </trkpt>
      <trkpt lat="44.35985" lon="3.44468">
        <ele>523</ele>
        <time>2019-12-19T02:54:43Z</time>
      </trkpt>
      <trkpt lat="44.35953" lon="3.44569">
        <ele>524</ele>
        <time>2019-12-19T02:54:57Z</time>
      </trkpt>
      <trkpt lat="44.35945" lon="3.44582">
        <ele>522</ele>
        <time>2019-12-19T02:55:00Z</time>
      </trkpt>
      <trkpt lat="44.35932" lon="3.44595">
        <ele>518</ele>
        <time>2019-12-19T02:55:02Z</time>
      </trkpt>
      <trkpt lat="44.3592" lon="3.44612">
        <ele>516</ele>
        <time>2019-12-19T02:55:05Z</time>
      </trkpt>
      <trkpt lat="44.3589" lon="3.4467">
        <ele>524</ele>
        <time>2019-12-19T02:55:15Z</time>
      </trkpt>
      <trkpt lat="44.35882" lon="3.44684">
        <ele>527</ele>
        <time>2019-12-19T02:55:17Z</time>
      </trkpt>
      <trkpt lat="44.35872" lon="3.44693">
        <ele>528</ele>
        <time>2019-12-19T02:55:19Z</time>
      </trkpt>
      <trkpt lat="44.35838" lon="3.4471">
        <ele>523</ele>
        <time>2019-12-19T02:55:25Z</time>
      </trkpt>
      <trkpt lat="44.35772" lon="3.44724">
        <ele>520</ele>
        <time>2019-12-19T02:55:37Z</time>
      </trkpt>
      <trkpt lat="44.35763" lon="3.44729">
        <ele>521</ele>
        <time>2019-12-19T02:55:39Z</time>
      </trkpt>
      <trkpt lat="44.35735" lon="3.44751">
        <ele>528</ele>
        <time>2019-12-19T02:55:45Z</time>
      </trkpt>
      <trkpt lat="44.35726" lon="3.44754">
        <ele>528</ele>
        <time>2019-12-19T02:55:46Z</time>
      </trkpt>
      <trkpt lat="44.35687" lon="3.44751">
        <ele>522</ele>
        <time>2019-12-19T02:55:53Z</time>
      </trkpt>
      <trkpt lat="44.35646" lon="3.44754">
        <ele>519</ele>
        <time>2019-12-19T02:56:01Z</time>
      </trkpt>
      <trkpt lat="44.35623" lon="3.44759">
        <ele>520</ele>
        <time>2019-12-19T02:56:05Z</time>
      </trkpt>
      <trkpt lat="44.35541" lon="3.44784">
        <ele>524</ele>
        <time>2019-12-19T02:56:20Z</time>
      </trkpt>
      <trkpt lat="44.35505" lon="3.44803">
        <ele>528</ele>
        <time>2019-12-19T02:56:26Z</time>
      </trkpt>
      <trkpt lat="44.3547" lon="3.44824">
        <ele>527</ele>
        <time>2019-12-19T02:56:33Z</time>
      </trkpt>
      <trkpt lat="44.35437" lon="3.44849">
        <ele>523</ele>
        <time>2019-12-19T02:56:40Z</time>
      </trkpt>
      <trkpt lat="44.35422" lon="3.44865">
        <ele>519</ele>
        <time>2019-12-19T02:56:43Z</time>
      </trkpt>
      <trkpt lat="44.35414" lon="3.44882">
        <ele>518</ele>
        <time>2019-12-19T02:56:46Z</time>
      </trkpt>
      <trkpt lat="44.35415" lon="3.44898">
        <ele>520</ele>
        <time>2019-12-19T02:56:48Z</time>
      </trkpt>
      <trkpt lat="44.35418" lon="3.4491">
        <ele>522</ele>
        <time>2019-12-19T02:56:50Z</time>
      </trkpt>
      <trkpt lat="44.35433" lon="3.44944">
        <ele>527</ele>
        <time>2019-12-19T02:56:55Z</time>
      </trkpt>
      <trkpt lat="44.35456" lon="3.45012">
        <ele>535</ele>
        <time>2019-12-19T02:57:04Z</time>
      </trkpt>
      <trkpt lat="44.3546" lon="3.45033">
        <ele>536</ele>
        <time>2019-12-19T02:57:07Z</time>
      </trkpt>
      <trkpt lat="44.35464" lon="3.45101">
        <ele>537</ele>
        <time>2019-12-19T02:57:16Z</time>
      </trkpt>
      <trkpt lat="44.35463" lon="3.45118">
        <ele>538</ele>
        <time>2019-12-19T02:57:18Z</time>
      </trkpt>
      <trkpt lat="44.35443" lon="3.45207">
        <ele>530</ele>
        <time>2019-12-19T02:57:30Z</time>
      </trkpt>
      <trkpt lat="44.35441" lon="3.45232">
        <ele>532</ele>
        <time>2019-12-19T02:57:33Z</time>
      </trkpt>
      <trkpt lat="44.35442" lon="3.45257">
        <ele>537</ele>
        <time>2019-12-19T02:57:36Z</time>
      </trkpt>
      <trkpt lat="44.35441" lon="3.4527">
        <ele>539</ele>
        <time>2019-12-19T02:57:38Z</time>
      </trkpt>
      <trkpt lat="44.35434" lon="3.45313">
        <ele>541</ele>
        <time>2019-12-19T02:57:43Z</time>
      </trkpt>
      <trkpt lat="44.35428" lon="3.45338">
        <ele>541</ele>
        <time>2019-12-19T02:57:47Z</time>
      </trkpt>
      <trkpt lat="44.35381" lon="3.45493">
        <ele>541</ele>
        <time>2019-12-19T02:58:08Z</time>
      </trkpt>
      <trkpt lat="44.35366" lon="3.45571">
        <ele>543</ele>
        <time>2019-12-19T02:58:18Z</time>
      </trkpt>
      <trkpt lat="44.35339" lon="3.45655">
        <ele>540</ele>
        <time>2019-12-19T02:58:30Z</time>
      </trkpt>
      <trkpt lat="44.35278" lon="3.45866">
        <ele>541</ele>
        <time>2019-12-19T02:58:59Z</time>
      </trkpt>
      <trkpt lat="44.35274" lon="3.45876">
        <ele>541</ele>
        <time>2019-12-19T02:59:01Z</time>
      </trkpt>
      <trkpt lat="44.35269" lon="3.45886">
        <ele>541</ele>
        <time>2019-12-19T02:59:02Z</time>
      </trkpt>
      <trkpt lat="44.35234" lon="3.45933">
        <ele>541</ele>
        <time>2019-12-19T02:59:11Z</time>
      </trkpt>
      <trkpt lat="44.35228" lon="3.45939">
        <ele>541</ele>
        <time>2019-12-19T02:59:12Z</time>
      </trkpt>
      <trkpt lat="44.35218" lon="3.45945">
        <ele>541</ele>
        <time>2019-12-19T02:59:14Z</time>
      </trkpt>
      <trkpt lat="44.35161" lon="3.45966">
        <ele>536</ele>
        <time>2019-12-19T02:59:24Z</time>
      </trkpt>
      <trkpt lat="44.35145" lon="3.45968">
        <ele>536</ele>
        <time>2019-12-19T02:59:27Z</time>
      </trkpt>
      <trkpt lat="44.35061" lon="3.45962">
        <ele>528</ele>
        <time>2019-12-19T02:59:42Z</time>
      </trkpt>
      <trkpt lat="44.35049" lon="3.45965">
        <ele>525</ele>
        <time>2019-12-19T02:59:44Z</time>
      </trkpt>
      <trkpt lat="44.35044" lon="3.45972">
        <ele>525</ele>
        <time>2019-12-19T02:59:46Z</time>
      </trkpt>
      <trkpt lat="44.35039" lon="3.45986">
        <ele>526</ele>
        <time>2019-12-19T02:59:48Z</time>
      </trkpt>
      <trkpt lat="44.35036" lon="3.46004">
        <ele>529</ele>
        <time>2019-12-19T02:59:50Z</time>
      </trkpt>
      <trkpt lat="44.35028" lon="3.46025">
        <ele>533</ele>
        <time>2019-12-19T02:59:53Z</time>
      </trkpt>
      <trkpt lat="44.35012" lon="3.46054">
        <ele>539</ele>
        <time>2019-12-19T02:59:58Z</time>
      </trkpt>
      <trkpt lat="44.34992" lon="3.46083">
        <ele>542</ele>
        <time>2019-12-19T03:00:03Z</time>
      </trkpt>
      <trkpt lat="44.34961" lon="3.46117">
        <ele>543</ele>
        <time>2019-12-19T03:00:10Z</time>
      </trkpt>
      <trkpt lat="44.34945" lon="3.4613">
        <ele>542</ele>
        <time>2019-12-19T03:00:13Z</time>
      </trkpt>
      <trkpt lat="44.34911" lon="3.46154">
        <ele>539</ele>
        <time>2019-12-19T03:00:20Z</time>
      </trkpt>
      <trkpt lat="44.34897" lon="3.46167">
        <ele>537</ele>
        <time>2019-12-19T03:00:23Z</time>
      </trkpt>
      <trkpt lat="44.34881" lon="3.46189">
        <ele>538</ele>
        <time>2019-12-19T03:00:27Z</time>
      </trkpt>
      <trkpt lat="44.34875" lon="3.462">
        <ele>539</ele>
        <time>2019-12-19T03:00:29Z</time>
      </trkpt>
      <trkpt lat="44.34867" lon="3.46221">
        <ele>544</ele>
        <time>2019-12-19T03:00:32Z</time>
      </trkpt>
      <trkpt lat="44.34858" lon="3.46237">
        <ele>545</ele>
        <time>2019-12-19T03:00:34Z</time>
      </trkpt>
      <trkpt lat="44.34801" lon="3.46315">
        <ele>548</ele>
        <time>2019-12-19T03:00:48Z</time>
      </trkpt>
      <trkpt lat="44.34786" lon="3.46334">
        <ele>548</ele>
        <time>2019-12-19T03:00:52Z</time>
      </trkpt>
      <trkpt lat="44.34762" lon="3.46355">
        <ele>540</ele>
        <time>2019-12-19T03:00:57Z</time>
      </trkpt>
      <trkpt lat="44.3475" lon="3.46367">
        <ele>536</ele>
        <time>2019-12-19T03:01:00Z</time>
      </trkpt>
      <trkpt lat="44.34746" lon="3.46375">
        <ele>537</ele>
        <time>2019-12-19T03:01:01Z</time>
      </trkpt>
      <trkpt lat="44.34742" lon="3.46388">
        <ele>539</ele>
        <time>2019-12-19T03:01:03Z</time>
      </trkpt>
      <trkpt lat="44.34743" lon="3.46421">
        <ele>548</ele>
        <time>2019-12-19T03:01:07Z</time>
      </trkpt>
      <trkpt lat="44.34741" lon="3.46446">
        <ele>554</ele>
        <time>2019-12-19T03:01:10Z</time>
      </trkpt>
      <trkpt lat="44.34743" lon="3.46462">
        <ele>558</ele>
        <time>2019-12-19T03:01:12Z</time>
      </trkpt>
      <trkpt lat="44.3475" lon="3.46499">
        <ele>569</ele>
        <time>2019-12-19T03:01:17Z</time>
      </trkpt>
      <trkpt lat="44.34749" lon="3.46506">
        <ele>571</ele>
        <time>2019-12-19T03:01:18Z</time>
      </trkpt>
      <trkpt lat="44.34744" lon="3.46517">
        <ele>575</ele>
        <time>2019-12-19T03:01:20Z</time>
      </trkpt>
      <trkpt lat="44.3474" lon="3.4652">
        <ele>576</ele>
        <time>2019-12-19T03:01:20Z</time>
      </trkpt>
      <trkpt lat="44.34728" lon="3.46524">
        <ele>576</ele>
        <time>2019-12-19T03:01:23Z</time>
      </trkpt>
      <trkpt lat="44.34721" lon="3.46524">
        <ele>575</ele>
        <time>2019-12-19T03:01:24Z</time>
      </trkpt>
      <trkpt lat="44.34703" lon="3.46518">
        <ele>570</ele>
        <time>2019-12-19T03:01:27Z</time>
      </trkpt>
      <trkpt lat="44.34679" lon="3.46495">
        <ele>556</ele>
        <time>2019-12-19T03:01:32Z</time>
      </trkpt>
      <trkpt lat="44.34667" lon="3.46486">
        <ele>551</ele>
        <time>2019-12-19T03:01:35Z</time>
      </trkpt>
      <trkpt lat="44.34652" lon="3.46481">
        <ele>547</ele>
        <time>2019-12-19T03:01:38Z</time>
      </trkpt>
      <trkpt lat="44.34646" lon="3.46482">
        <ele>547</ele>
        <time>2019-12-19T03:01:39Z</time>
      </trkpt>
      <trkpt lat="44.34632" lon="3.46489">
        <ele>547</ele>
        <time>2019-12-19T03:01:41Z</time>
      </trkpt>
      <trkpt lat="44.34607" lon="3.46523">
        <ele>559</ele>
        <time>2019-12-19T03:01:47Z</time>
      </trkpt>
      <trkpt lat="44.34595" lon="3.46534">
        <ele>563</ele>
        <time>2019-12-19T03:01:50Z</time>
      </trkpt>
      <trkpt lat="44.34583" lon="3.46539">
        <ele>564</ele>
        <time>2019-12-19T03:01:52Z</time>
      </trkpt>
      <trkpt lat="44.34557" lon="3.46537">
        <ele>557</ele>
        <time>2019-12-19T03:01:57Z</time>
      </trkpt>
      <trkpt lat="44.34545" lon="3.4654">
        <ele>556</ele>
        <time>2019-12-19T03:01:59Z</time>
      </trkpt>
      <trkpt lat="44.34508" lon="3.46566">
        <ele>561</ele>
        <time>2019-12-19T03:02:06Z</time>
      </trkpt>
      <trkpt lat="44.34464" lon="3.46587">
        <ele>563</ele>
        <time>2019-12-19T03:02:15Z</time>
      </trkpt>
      <trkpt lat="44.34455" lon="3.46593">
        <ele>564</ele>
        <time>2019-12-19T03:02:16Z</time>
      </trkpt>
      <trkpt lat="44.34436" lon="3.46612">
        <ele>570</ele>
        <time>2019-12-19T03:02:21Z</time>
      </trkpt>
      <trkpt lat="44.34425" lon="3.46618">
        <ele>572</ele>
        <time>2019-12-19T03:02:23Z</time>
      </trkpt>
      <trkpt lat="44.34338" lon="3.46624">
        <ele>566</ele>
        <time>2019-12-19T03:02:38Z</time>
      </trkpt>
      <trkpt lat="44.34323" lon="3.46621">
        <ele>562</ele>
        <time>2019-12-19T03:02:41Z</time>
      </trkpt>
      <trkpt lat="44.34299" lon="3.46611">
        <ele>552</ele>
        <time>2019-12-19T03:02:45Z</time>
      </trkpt>
      <trkpt lat="44.34286" lon="3.4661">
        <ele>550</ele>
        <time>2019-12-19T03:02:48Z</time>
      </trkpt>
      <trkpt lat="44.3428" lon="3.46611">
        <ele>549</ele>
        <time>2019-12-19T03:02:49Z</time>
      </trkpt>
      <trkpt lat="44.3427" lon="3.46618">
        <ele>552</ele>
        <time>2019-12-19T03:02:51Z</time>
      </trkpt>
      <trkpt lat="44.34246" lon="3.46641">
        <ele>560</ele>
        <time>2019-12-19T03:02:56Z</time>
      </trkpt>
      <trkpt lat="44.34211" lon="3.4665">
        <ele>559</ele>
        <time>2019-12-19T03:03:02Z</time>
      </trkpt>
      <trkpt lat="44.34185" lon="3.46648">
        <ele>552</ele>
        <time>2019-12-19T03:03:07Z</time>
      </trkpt>
      <trkpt lat="44.34162" lon="3.46661">
        <ele>554</ele>
        <time>2019-12-19T03:03:11Z</time>
      </trkpt>
      <trkpt lat="44.34122" lon="3.46678">
        <ele>541</ele>
        <time>2019-12-19T03:03:19Z</time>
      </trkpt>
      <trkpt lat="44.3411" lon="3.46685">
        <ele>536</ele>
        <time>2019-12-19T03:03:21Z</time>
      </trkpt>
      <trkpt lat="44.34101" lon="3.46698">
        <ele>533</ele>
        <time>2019-12-19T03:03:23Z</time>
      </trkpt>
      <trkpt lat="44.34099" lon="3.46704">
        <ele>533</ele>
        <time>2019-12-19T03:03:24Z</time>
      </trkpt>
      <trkpt lat="44.34097" lon="3.46717">
        <ele>533</ele>
        <time>2019-12-19T03:03:26Z</time>
      </trkpt>
      <trkpt lat="44.341" lon="3.46741">
        <ele>539</ele>
        <time>2019-12-19T03:03:29Z</time>
      </trkpt>
      <trkpt lat="44.34108" lon="3.46784">
        <ele>546</ele>
        <time>2019-12-19T03:03:35Z</time>
      </trkpt>
      <trkpt lat="44.34111" lon="3.46813">
        <ele>549</ele>
        <time>2019-12-19T03:03:38Z</time>
      </trkpt>
      <trkpt lat="44.34112" lon="3.46869">
        <ele>549</ele>
        <time>2019-12-19T03:03:46Z</time>
      </trkpt>
      <trkpt lat="44.3411" lon="3.46937">
        <ele>545</ele>
        <time>2019-12-19T03:03:54Z</time>
      </trkpt>
      <trkpt lat="44.3411" lon="3.46996">
        <ele>544</ele>
        <time>2019-12-19T03:04:02Z</time>
      </trkpt>
      <trkpt lat="44.34114" lon="3.47078">
        <ele>539</ele>
        <time>2019-12-19T03:04:12Z</time>
      </trkpt>
      <trkpt lat="44.34123" lon="3.47152">
        <ele>541</ele>
        <time>2019-12-19T03:04:22Z</time>
      </trkpt>
      <trkpt lat="44.34121" lon="3.47175">
        <ele>541</ele>
        <time>2019-12-19T03:04:25Z</time>
      </trkpt>
      <trkpt lat="44.34114" lon="3.47194">
        <ele>540</ele>
        <time>2019-12-19T03:04:27Z</time>
      </trkpt>
      <trkpt lat="44.34104" lon="3.47208">
        <ele>538</ele>
        <time>2019-12-19T03:04:30Z</time>
      </trkpt>
      <trkpt lat="44.34097" lon="3.47215">
        <ele>537</ele>
        <time>2019-12-19T03:04:31Z</time>
      </trkpt>
      <trkpt lat="44.34075" lon="3.4723">
        <ele>535</ele>
        <time>2019-12-19T03:04:36Z</time>
      </trkpt>
      <trkpt lat="44.34032" lon="3.47249">
        <ele>532</ele>
        <time>2019-12-19T03:04:44Z</time>
      </trkpt>
      <trkpt lat="44.34006" lon="3.47271">
        <ele>530</ele>
        <time>2019-12-19T03:04:49Z</time>
      </trkpt>
      <trkpt lat="44.33974" lon="3.47301">
        <ele>527</ele>
        <time>2019-12-19T03:04:56Z</time>
      </trkpt>
      <trkpt lat="44.33961" lon="3.47317">
        <ele>526</ele>
        <time>2019-12-19T03:04:59Z</time>
      </trkpt>
      <trkpt lat="44.33953" lon="3.47332">
        <ele>526</ele>
        <time>2019-12-19T03:05:02Z</time>
      </trkpt>
      <trkpt lat="44.33949" lon="3.47328">
        <ele>525</ele>
        <time>2019-12-19T03:05:02Z</time>
      </trkpt>
      <trkpt lat="44.33948" lon="3.47322">
        <ele>524</ele>
        <time>2019-12-19T03:05:03Z</time>
      </trkpt>
      <trkpt lat="44.33949" lon="3.47298">
        <ele>522</ele>
        <time>2019-12-19T03:05:06Z</time>
      </trkpt>
      <trkpt lat="44.33953" lon="3.47279">
        <ele>521</ele>
        <time>2019-12-19T03:05:09Z</time>
      </trkpt>
      <trkpt lat="44.33971" lon="3.47232">
        <ele>520</ele>
        <time>2019-12-19T03:05:16Z</time>
      </trkpt>
      <trkpt lat="44.33992" lon="3.47191">
        <ele>518</ele>
        <time>2019-12-19T03:05:22Z</time>
      </trkpt>
      <trkpt lat="44.34008" lon="3.47165">
        <ele>517</ele>
        <time>2019-12-19T03:05:26Z</time>
      </trkpt>
      <trkpt lat="44.34011" lon="3.47156">
        <ele>517</ele>
        <time>2019-12-19T03:05:28Z</time>
      </trkpt>
      <trkpt lat="44.3401" lon="3.47149">
        <ele>516</ele>
        <time>2019-12-19T03:05:29Z</time>
      </trkpt>
      <trkpt lat="44.34007" lon="3.47146">
        <ele>515</ele>
        <time>2019-12-19T03:05:29Z</time>
      </trkpt>
      <trkpt lat="44.33939" lon="3.47154">
        <ele>508</ele>
        <time>2019-12-19T03:05:41Z</time>
      </trkpt>
      <trkpt lat="44.33899" lon="3.4715">
        <ele>502</ele>
        <time>2019-12-19T03:05:48Z</time>
      </trkpt>
      <trkpt lat="44.33893" lon="3.47145">
        <ele>500</ele>
        <time>2019-12-19T03:05:50Z</time>
      </trkpt>
      <trkpt lat="44.33891" lon="3.47136">
        <ele>499</ele>
        <time>2019-12-19T03:05:51Z</time>
      </trkpt>
      <trkpt lat="44.33893" lon="3.47125">
        <ele>498</ele>
        <time>2019-12-19T03:05:52Z</time>
      </trkpt>
      <trkpt lat="44.33935" lon="3.47046">
        <ele>497</ele>
        <time>2019-12-19T03:06:05Z</time>
      </trkpt>
      <trkpt lat="44.3394" lon="3.47033">
        <ele>496</ele>
        <time>2019-12-19T03:06:07Z</time>
      </trkpt>
      <trkpt lat="44.3394" lon="3.47022">
        <ele>495</ele>
        <time>2019-12-19T03:06:08Z</time>
      </trkpt>
      <trkpt lat="44.33922" lon="3.46984">
        <ele>490</ele>
        <time>2019-12-19T03:06:14Z</time>
      </trkpt>
      <trkpt lat="44.33904" lon="3.46923">
        <ele>487</ele>
        <time>2019-12-19T03:06:22Z</time>
      </trkpt>
      <trkpt lat="44.33893" lon="3.46898">
        <ele>485</ele>
        <time>2019-12-19T03:06:26Z</time>
      </trkpt>
      <trkpt lat="44.33886" lon="3.46894">
        <ele>486</ele>
        <time>2019-12-19T03:06:27Z</time>
      </trkpt>
      <trkpt lat="44.33879" lon="3.46894">
        <ele>486</ele>
        <time>2019-12-19T03:06:29Z</time>
      </trkpt>
      <trkpt lat="44.33866" lon="3.46899">
        <ele>486</ele>
        <time>2019-12-19T03:06:31Z</time>
      </trkpt>
      <trkpt lat="44.33858" lon="3.46891">
        <ele>487</ele>
        <time>2019-12-19T03:06:33Z</time>
      </trkpt>
      <trkpt lat="44.3385" lon="3.46812">
        <ele>495</ele>
        <time>2019-12-19T03:06:43Z</time>
      </trkpt>
      <trkpt lat="44.33855" lon="3.46804">
        <ele>496</ele>
        <time>2019-12-19T03:06:44Z</time>
      </trkpt>
      <trkpt lat="44.33862" lon="3.46797">
        <ele>495</ele>
        <time>2019-12-19T03:06:46Z</time>
      </trkpt>
      <trkpt lat="44.33892" lon="3.46787">
        <ele>488</ele>
        <time>2019-12-19T03:06:51Z</time>
      </trkpt>
      <trkpt lat="44.33902" lon="3.46779">
        <ele>486</ele>
        <time>2019-12-19T03:06:53Z</time>
      </trkpt>
      <trkpt lat="44.33912" lon="3.46766">
        <ele>484</ele>
        <time>2019-12-19T03:06:56Z</time>
      </trkpt>
      <trkpt lat="44.33944" lon="3.46707">
        <ele>486</ele>
        <time>2019-12-19T03:07:05Z</time>
      </trkpt>
      <trkpt lat="44.33961" lon="3.4662">
        <ele>488</ele>
        <time>2019-12-19T03:07:17Z</time>
      </trkpt>
      <trkpt lat="44.33966" lon="3.46563">
        <ele>491</ele>
        <time>2019-12-19T03:07:24Z</time>
      </trkpt>
      <trkpt lat="44.33966" lon="3.46536">
        <ele>495</ele>
        <time>2019-12-19T03:07:27Z</time>
      </trkpt>
      <trkpt lat="44.33961" lon="3.46486">
        <ele>507</ele>
        <time>2019-12-19T03:07:34Z</time>
      </trkpt>
      <trkpt lat="44.33956" lon="3.46499">
        <ele>505</ele>
        <time>2019-12-19T03:07:36Z</time>
      </trkpt>
      <trkpt lat="44.33948" lon="3.46534">
        <ele>501</ele>
        <time>2019-12-19T03:07:40Z</time>
      </trkpt>
      <trkpt lat="44.33938" lon="3.46563">
        <ele>497</ele>
        <time>2019-12-19T03:07:45Z</time>
      </trkpt>
      <trkpt lat="44.33923" lon="3.46585">
        <ele>495</ele>
        <time>2019-12-19T03:07:48Z</time>
      </trkpt>
      <trkpt lat="44.33903" lon="3.46599">
        <ele>502</ele>
        <time>2019-12-19T03:07:52Z</time>
      </trkpt>
      <trkpt lat="44.33881" lon="3.46619">
        <ele>511</ele>
        <time>2019-12-19T03:07:57Z</time>
      </trkpt>
      <trkpt lat="44.33868" lon="3.46659">
        <ele>514</ele>
        <time>2019-12-19T03:08:03Z</time>
      </trkpt>
      <trkpt lat="44.33871" lon="3.46728">
        <ele>504</ele>
        <time>2019-12-19T03:08:11Z</time>
      </trkpt>
      <trkpt lat="44.33866" lon="3.46754">
        <ele>502</ele>
        <time>2019-12-19T03:08:15Z</time>
      </trkpt>
      <trkpt lat="44.33849" lon="3.46778">
        <ele>503</ele>
        <time>2019-12-19T03:08:19Z</time>
      </trkpt>
      <trkpt lat="44.3382" lon="3.46791">
        <ele>513</ele>
        <time>2019-12-19T03:08:25Z</time>
      </trkpt>
      <trkpt lat="44.33802" lon="3.46808">
        <ele>517</ele>
        <time>2019-12-19T03:08:28Z</time>
      </trkpt>
      <trkpt lat="44.33777" lon="3.46841">
        <ele>519</ele>
        <time>2019-12-19T03:08:35Z</time>
      </trkpt>
      <trkpt lat="44.33763" lon="3.46864">
        <ele>517</ele>
        <time>2019-12-19T03:08:38Z</time>
      </trkpt>
      <trkpt lat="44.33743" lon="3.46881">
        <ele>518</ele>
        <time>2019-12-19T03:08:43Z</time>
      </trkpt>
      <trkpt lat="44.33719" lon="3.46887">
        <ele>529</ele>
        <time>2019-12-19T03:08:47Z</time>
      </trkpt>
      <trkpt lat="44.33698" lon="3.46922">
        <ele>528</ele>
        <time>2019-12-19T03:08:53Z</time>
      </trkpt>
      <trkpt lat="44.3368" lon="3.46975">
        <ele>525</ele>
        <time>2019-12-19T03:09:00Z</time>
      </trkpt>
      <trkpt lat="44.33655" lon="3.47063">
        <ele>523</ele>
        <time>2019-12-19T03:09:12Z</time>
      </trkpt>
      <trkpt lat="44.33641" lon="3.47148">
        <ele>522</ele>
        <time>2019-12-19T03:09:23Z</time>
      </trkpt>
      <trkpt lat="44.33638" lon="3.47206">
        <ele>519</ele>
        <time>2019-12-19T03:09:31Z</time>
      </trkpt>
      <trkpt lat="44.33629" lon="3.47249">
        <ele>520</ele>
        <time>2019-12-19T03:09:36Z</time>
      </trkpt>
      <trkpt lat="44.33584" lon="3.4739">
        <ele>518</ele>
        <time>2019-12-19T03:09:56Z</time>
      </trkpt>
      <trkpt lat="44.33572" lon="3.47412">
        <ele>515</ele>
        <time>2019-12-19T03:10:00Z</time>
      </trkpt>
      <trkpt lat="44.33555" lon="3.47421">
        <ele>516</ele>
        <time>2019-12-19T03:10:03Z</time>
      </trkpt>
      <trkpt lat="44.33535" lon="3.47421">
        <ele>519</ele>
        <time>2019-12-19T03:10:06Z</time>
      </trkpt>
      <trkpt lat="44.33495" lon="3.47413">
        <ele>528</ele>
        <time>2019-12-19T03:10:14Z</time>
      </trkpt>
      <trkpt lat="44.33484" lon="3.47415">
        <ele>531</ele>
        <time>2019-12-19T03:10:16Z</time>
      </trkpt>
      <trkpt lat="44.33478" lon="3.47429">
        <ele>533</ele>
        <time>2019-12-19T03:10:18Z</time>
      </trkpt>
      <trkpt lat="44.33488" lon="3.47454">
        <ele>530</ele>
        <time>2019-12-19T03:10:21Z</time>
      </trkpt>
      <trkpt lat="44.33514" lon="3.47497">
        <ele>519</ele>
        <time>2019-12-19T03:10:28Z</time>
      </trkpt>
      <trkpt lat="44.33527" lon="3.47532">
        <ele>512</ele>
        <time>2019-12-19T03:10:33Z</time>
      </trkpt>
      <trkpt lat="44.33524" lon="3.47554">
        <ele>511</ele>
        <time>2019-12-19T03:10:36Z</time>
      </trkpt>
      <trkpt lat="44.33506" lon="3.47591">
        <ele>516</ele>
        <time>2019-12-19T03:10:42Z</time>
      </trkpt>
      <trkpt lat="44.33468" lon="3.4768">
        <ele>511</ele>
        <time>2019-12-19T03:10:55Z</time>
      </trkpt>
      <trkpt lat="44.33445" lon="3.47721">
        <ele>511</ele>
        <time>2019-12-19T03:11:02Z</time>
      </trkpt>
      <trkpt lat="44.33438" lon="3.47745">
        <ele>508</ele>
        <time>2019-12-19T03:11:05Z</time>
      </trkpt>
      <trkpt lat="44.33438" lon="3.47961">
        <ele>499</ele>
        <time>2019-12-19T03:11:33Z</time>
      </trkpt>
      <trkpt lat="44.33437" lon="3.48031">
        <ele>501</ele>
        <time>2019-12-19T03:11:42Z</time>
      </trkpt>
      <trkpt lat="44.33427" lon="3.48105">
        <ele>503</ele>
        <time>2019-12-19T03:11:51Z</time>
      </trkpt>
      <trkpt lat="44.33418" lon="3.48153">
        <ele>502</ele>
        <time>2019-12-19T03:11:57Z</time>
      </trkpt>
      <trkpt lat="44.33386" lon="3.48234">
        <ele>505</ele>
        <time>2019-12-19T03:12:09Z</time>
      </trkpt>
      <trkpt lat="44.33366" lon="3.48265">
        <ele>509</ele>
        <time>2019-12-19T03:12:15Z</time>
      </trkpt>
      <trkpt lat="44.33336" lon="3.48303">
        <ele>511</ele>
        <time>2019-12-19T03:12:22Z</time>
      </trkpt>
      <trkpt lat="44.3332" lon="3.48339">
        <ele>515</ele>
        <time>2019-12-19T03:12:27Z</time>
      </trkpt>
      <trkpt lat="44.33305" lon="3.48386">
        <ele>518</ele>
        <time>2019-12-19T03:12:34Z</time>
      </trkpt>
      <trkpt lat="44.33294" lon="3.4843">
        <ele>518</ele>
        <time>2019-12-19T03:12:40Z</time>
      </trkpt>
      <trkpt lat="44.33294" lon="3.48464">
        <ele>515</ele>
        <time>2019-12-19T03:12:44Z</time>
      </trkpt>
      <trkpt lat="44.33291" lon="3.48499">
        <ele>514</ele>
        <time>2019-12-19T03:12:48Z</time>
      </trkpt>
      <trkpt lat="44.33274" lon="3.48547">
        <ele>526</ele>
        <time>2019-12-19T03:12:55Z</time>
      </trkpt>
      <trkpt lat="44.33275" lon="3.48602">
        <ele>527</ele>
        <time>2019-12-19T03:13:02Z</time>
      </trkpt>
      <trkpt lat="44.33279" lon="3.48661">
        <ele>523</ele>
        <time>2019-12-19T03:13:10Z</time>
      </trkpt>
      <trkpt lat="44.33274" lon="3.4872">
        <ele>526</ele>
        <time>2019-12-19T03:13:17Z</time>
      </trkpt>
      <trkpt lat="44.33297" lon="3.48778">
        <ele>517</ele>
        <time>2019-12-19T03:13:26Z</time>
      </trkpt>
      <trkpt lat="44.33296" lon="3.48809">
        <ele>519</ele>
        <time>2019-12-19T03:13:30Z</time>
      </trkpt>
      <trkpt lat="44.33285" lon="3.4884">
        <ele>526</ele>
        <time>2019-12-19T03:13:34Z</time>
      </trkpt>
      <trkpt lat="44.33276" lon="3.48856">
        <ele>532</ele>
        <time>2019-12-19T03:13:37Z</time>
      </trkpt>
      <trkpt lat="44.33271" lon="3.4887">
        <ele>537</ele>
        <time>2019-12-19T03:13:39Z</time>
      </trkpt>
      <trkpt lat="44.33278" lon="3.48886">
        <ele>537</ele>
        <time>2019-12-19T03:13:41Z</time>
      </trkpt>
      <trkpt lat="44.33295" lon="3.48903">
        <ele>533</ele>
        <time>2019-12-19T03:13:45Z</time>
      </trkpt>
      <trkpt lat="44.33332" lon="3.48931">
        <ele>523</ele>
        <time>2019-12-19T03:13:52Z</time>
      </trkpt>
      <trkpt lat="44.33345" lon="3.48963">
        <ele>528</ele>
        <time>2019-12-19T03:13:57Z</time>
      </trkpt>
      <trkpt lat="44.33378" lon="3.49015">
        <ele>530</ele>
        <time>2019-12-19T03:14:06Z</time>
      </trkpt>
      <trkpt lat="44.33428" lon="3.49064">
        <ele>521</ele>
        <time>2019-12-19T03:14:17Z</time>
      </trkpt>
      <trkpt lat="44.33451" lon="3.49103">
        <ele>516</ele>
        <time>2019-12-19T03:14:23Z</time>
      </trkpt>
      <trkpt lat="44.33454" lon="3.49119">
        <ele>512</ele>
        <time>2019-12-19T03:14:25Z</time>
      </trkpt>
      <trkpt lat="44.33445" lon="3.49135">
        <ele>512</ele>
        <time>2019-12-19T03:14:28Z</time>
      </trkpt>
      <trkpt lat="44.33422" lon="3.49161">
        <ele>514</ele>
        <time>2019-12-19T03:14:33Z</time>
      </trkpt>
      <trkpt lat="44.3336" lon="3.49222">
        <ele>517</ele>
        <time>2019-12-19T03:14:47Z</time>
      </trkpt>
      <trkpt lat="44.33379" lon="3.49218">
        <ele>512</ele>
        <time>2019-12-19T03:14:50Z</time>
      </trkpt>
      <trkpt lat="44.33427" lon="3.49173">
        <ele>510</ele>
        <time>2019-12-19T03:15:00Z</time>
      </trkpt>
      <trkpt lat="44.33488" lon="3.49133">
        <ele>501</ele>
        <time>2019-12-19T03:15:12Z</time>
      </trkpt>
      <trkpt lat="44.33514" lon="3.4913">
        <ele>497</ele>
        <time>2019-12-19T03:15:17Z</time>
      </trkpt>
      <trkpt lat="44.33526" lon="3.49127">
        <ele>496</ele>
        <time>2019-12-19T03:15:19Z</time>
      </trkpt>
      <trkpt lat="44.33578" lon="3.49088">
        <ele>493</ele>
        <time>2019-12-19T03:15:30Z</time>
      </trkpt>
      <trkpt lat="44.33589" lon="3.4907">
        <ele>491</ele>
        <time>2019-12-19T03:15:33Z</time>
      </trkpt>
      <trkpt lat="44.33578" lon="3.49088">
        <ele>493</ele>
        <time>2019-12-19T03:15:36Z</time>
      </trkpt>
      <trkpt lat="44.33526" lon="3.49127">
        <ele>496</ele>
        <time>2019-12-19T03:15:46Z</time>
      </trkpt>
      <trkpt lat="44.33514" lon="3.4913">
        <ele>497</ele>
        <time>2019-12-19T03:15:48Z</time>
      </trkpt>
      <trkpt lat="44.33488" lon="3.49133">
        <ele>501</ele>
        <time>2019-12-19T03:15:53Z</time>
      </trkpt>
      <trkpt lat="44.33427" lon="3.49173">
        <ele>510</ele>
        <time>2019-12-19T03:16:05Z</time>
      </trkpt>
      <trkpt lat="44.33379" lon="3.49218">
        <ele>512</ele>
        <time>2019-12-19T03:16:15Z</time>
      </trkpt>
      <trkpt lat="44.3336" lon="3.49222">
        <ele>517</ele>
        <time>2019-12-19T03:16:19Z</time>
      </trkpt>
      <trkpt lat="44.33307" lon="3.49271">
        <ele>518</ele>
        <time>2019-12-19T03:16:30Z</time>
      </trkpt>
      <trkpt lat="44.33276" lon="3.49289">
        <ele>524</ele>
        <time>2019-12-19T03:16:36Z</time>
      </trkpt>
      <trkpt lat="44.33254" lon="3.49314">
        <ele>520</ele>
        <time>2019-12-19T03:16:41Z</time>
      </trkpt>
      <trkpt lat="44.33226" lon="3.49361">
        <ele>519</ele>
        <time>2019-12-19T03:16:49Z</time>
      </trkpt>
      <trkpt lat="44.33206" lon="3.49388">
        <ele>523</ele>
        <time>2019-12-19T03:16:54Z</time>
      </trkpt>
      <trkpt lat="44.33192" lon="3.49425">
        <ele>521</ele>
        <time>2019-12-19T03:16:59Z</time>
      </trkpt>
      <trkpt lat="44.33183" lon="3.49458">
        <ele>522</ele>
        <time>2019-12-19T03:17:03Z</time>
      </trkpt>
      <trkpt lat="44.33185" lon="3.4949">
        <ele>518</ele>
        <time>2019-12-19T03:17:08Z</time>
      </trkpt>
      <trkpt lat="44.33172" lon="3.49531">
        <ele>522</ele>
        <time>2019-12-19T03:17:13Z</time>
      </trkpt>
      <trkpt lat="44.33162" lon="3.49546">
        <ele>528</ele>
        <time>2019-12-19T03:17:16Z</time>
      </trkpt>
      <trkpt lat="44.33162" lon="3.49575">
        <ele>528</ele>
        <time>2019-12-19T03:17:20Z</time>
      </trkpt>
      <trkpt lat="44.33173" lon="3.49601">
        <ele>524</ele>
        <time>2019-12-19T03:17:23Z</time>
      </trkpt>
      <trkpt lat="44.33187" lon="3.49623">
        <ele>522</ele>
        <time>2019-12-19T03:17:27Z</time>
      </trkpt>
      <trkpt lat="44.33198" lon="3.49651">
        <ele>522</ele>
        <time>2019-12-19T03:17:31Z</time>
      </trkpt>
      <trkpt lat="44.33212" lon="3.49666">
        <ele>518</ele>
        <time>2019-12-19T03:17:34Z</time>
      </trkpt>
      <trkpt lat="44.33231" lon="3.49678">
        <ele>512</ele>
        <time>2019-12-19T03:17:38Z</time>
      </trkpt>
      <trkpt lat="44.33266" lon="3.49698">
        <ele>505</ele>
        <time>2019-12-19T03:17:45Z</time>
      </trkpt>
      <trkpt lat="44.33283" lon="3.49705">
        <ele>504</ele>
        <time>2019-12-19T03:17:48Z</time>
      </trkpt>
      <trkpt lat="44.33285" lon="3.49711">
        <ele>505</ele>
        <time>2019-12-19T03:17:49Z</time>
      </trkpt>
      <trkpt lat="44.33299" lon="3.49729">
        <ele>506</ele>
        <time>2019-12-19T03:17:52Z</time>
      </trkpt>
      <trkpt lat="44.33343" lon="3.49768">
        <ele>505</ele>
        <time>2019-12-19T03:18:01Z</time>
      </trkpt>
      <trkpt lat="44.33398" lon="3.4982">
        <ele>506</ele>
        <time>2019-12-19T03:18:13Z</time>
      </trkpt>
      <trkpt lat="44.33418" lon="3.49851">
        <ele>506</ele>
        <time>2019-12-19T03:18:19Z</time>
      </trkpt>
      <trkpt lat="44.33423" lon="3.49865">
        <ele>507</ele>
        <time>2019-12-19T03:18:21Z</time>
      </trkpt>
      <trkpt lat="44.33425" lon="3.49882">
        <ele>508</ele>
        <time>2019-12-19T03:18:23Z</time>
      </trkpt>
      <trkpt lat="44.33425" lon="3.49925">
        <ele>512</ele>
        <time>2019-12-19T03:18:28Z</time>
      </trkpt>
      <trkpt lat="44.33427" lon="3.49952">
        <ele>515</ele>
        <time>2019-12-19T03:18:32Z</time>
      </trkpt>
      <trkpt lat="44.33447" lon="3.49996">
        <ele>520</ele>
        <time>2019-12-19T03:18:38Z</time>
      </trkpt>
      <trkpt lat="44.33458" lon="3.50003">
        <ele>521</ele>
        <time>2019-12-19T03:18:40Z</time>
      </trkpt>
      <trkpt lat="44.33469" lon="3.49998">
        <ele>519</ele>
        <time>2019-12-19T03:18:43Z</time>
      </trkpt>
      <trkpt lat="44.33483" lon="3.49987">
        <ele>517</ele>
        <time>2019-12-19T03:18:45Z</time>
      </trkpt>
      <trkpt lat="44.33492" lon="3.49976">
        <ele>515</ele>
        <time>2019-12-19T03:18:48Z</time>
      </trkpt>
      <trkpt lat="44.33514" lon="3.49975">
        <ele>514</ele>
        <time>2019-12-19T03:18:51Z</time>
      </trkpt>
      <trkpt lat="44.33551" lon="3.49984">
        <ele>516</ele>
        <time>2019-12-19T03:18:58Z</time>
      </trkpt>
      <trkpt lat="44.33599" lon="3.49999">
        <ele>516</ele>
        <time>2019-12-19T03:19:07Z</time>
      </trkpt>
      <trkpt lat="44.33611" lon="3.5001">
        <ele>516</ele>
        <time>2019-12-19T03:19:09Z</time>
      </trkpt>
      <trkpt lat="44.33621" lon="3.50039">
        <ele>517</ele>
        <time>2019-12-19T03:19:14Z</time>
      </trkpt>
      <trkpt lat="44.33628" lon="3.50083">
        <ele>520</ele>
        <time>2019-12-19T03:19:19Z</time>
      </trkpt>
      <trkpt lat="44.33628" lon="3.50109">
        <ele>521</ele>
        <time>2019-12-19T03:19:23Z</time>
      </trkpt>
      <trkpt lat="44.33623" lon="3.50164">
        <ele>526</ele>
        <time>2019-12-19T03:19:30Z</time>
      </trkpt>
      <trkpt lat="44.33616" lon="3.50179">
        <ele>527</ele>
        <time>2019-12-19T03:19:32Z</time>
      </trkpt>
      <trkpt lat="44.33597" lon="3.50195">
        <ele>530</ele>
        <time>2019-12-19T03:19:36Z</time>
      </trkpt>
      <trkpt lat="44.33569" lon="3.50212">
        <ele>533</ele>
        <time>2019-12-19T03:19:41Z</time>
      </trkpt>
      <trkpt lat="44.33546" lon="3.50248">
        <ele>537</ele>
        <time>2019-12-19T03:19:47Z</time>
      </trkpt>
      <trkpt lat="44.33511" lon="3.50311">
        <ele>536</ele>
        <time>2019-12-19T03:19:58Z</time>
      </trkpt>
      <trkpt lat="44.335" lon="3.50324">
        <ele>534</ele>
        <time>2019-12-19T03:20:00Z</time>
      </trkpt>
      <trkpt lat="44.33487" lon="3.50326">
        <ele>539</ele>
        <time>2019-12-19T03:20:02Z</time>
      </trkpt>
      <trkpt lat="44.33472" lon="3.50335">
        <ele>544</ele>
        <time>2019-12-19T03:20:05Z</time>
      </trkpt>
      <trkpt lat="44.33452" lon="3.50374">
        <ele>548</ele>
        <time>2019-12-19T03:20:11Z</time>
      </trkpt>
      <trkpt lat="44.33443" lon="3.504">
        <ele>546</ele>
        <time>2019-12-19T03:20:15Z</time>
      </trkpt>
      <trkpt lat="44.33436" lon="3.50433">
        <ele>546</ele>
        <time>2019-12-19T03:20:20Z</time>
      </trkpt>
      <trkpt lat="44.33427" lon="3.50456">
        <ele>548</ele>
        <time>2019-12-19T03:20:23Z</time>
      </trkpt>
      <trkpt lat="44.33409" lon="3.50465">
        <ele>550</ele>
        <time>2019-12-19T03:20:26Z</time>
      </trkpt>
      <trkpt lat="44.33399" lon="3.50488">
        <ele>553</ele>
        <time>2019-12-19T03:20:30Z</time>
      </trkpt>
      <trkpt lat="44.33396" lon="3.50507">
        <ele>557</ele>
        <time>2019-12-19T03:20:32Z</time>
      </trkpt>
      <trkpt lat="44.33401" lon="3.50518">
        <ele>560</ele>
        <time>2019-12-19T03:20:34Z</time>
      </trkpt>
      <trkpt lat="44.33419" lon="3.5052">
        <ele>556</ele>
        <time>2019-12-19T03:20:37Z</time>
      </trkpt>
      <trkpt lat="44.33457" lon="3.50505">
        <ele>558</ele>
        <time>2019-12-19T03:20:44Z</time>
      </trkpt>
      <trkpt lat="44.33485" lon="3.50477">
        <ele>554</ele>
        <time>2019-12-19T03:20:50Z</time>
      </trkpt>
      <trkpt lat="44.33516" lon="3.5043">
        <ele>546</ele>
        <time>2019-12-19T03:20:58Z</time>
      </trkpt>
      <trkpt lat="44.33548" lon="3.50415">
        <ele>554</ele>
        <time>2019-12-19T03:21:04Z</time>
      </trkpt>
      <trkpt lat="44.33565" lon="3.50403">
        <ele>556</ele>
        <time>2019-12-19T03:21:08Z</time>
      </trkpt>
      <trkpt lat="44.33579" lon="3.50384">
        <ele>553</ele>
        <time>2019-12-19T03:21:11Z</time>
      </trkpt>
      <trkpt lat="44.33592" lon="3.50361">
        <ele>546</ele>
        <time>2019-12-19T03:21:15Z</time>
      </trkpt>
      <trkpt lat="44.33598" lon="3.50355">
        <ele>545</ele>
        <time>2019-12-19T03:21:16Z</time>
      </trkpt>
      <trkpt lat="44.33619" lon="3.50346">
        <ele>546</ele>
        <time>2019-12-19T03:21:20Z</time>
      </trkpt>
      <trkpt lat="44.33685" lon="3.50328">
        <ele>551</ele>
        <time>2019-12-19T03:21:32Z</time>
      </trkpt>
      <trkpt lat="44.33709" lon="3.50315">
        <ele>549</ele>
        <time>2019-12-19T03:21:37Z</time>
      </trkpt>
      <trkpt lat="44.33705" lon="3.50331">
        <ele>554</ele>
        <time>2019-12-19T03:21:39Z</time>
      </trkpt>
      <trkpt lat="44.33701" lon="3.5034">
        <ele>555</ele>
        <time>2019-12-19T03:21:40Z</time>
      </trkpt>
      <trkpt lat="44.33693" lon="3.50347">
        <ele>557</ele>
        <time>2019-12-19T03:21:42Z</time>
      </trkpt>
      <trkpt lat="44.33675" lon="3.50373">
        <ele>564</ele>
        <time>2019-12-19T03:21:47Z</time>
      </trkpt>
      <trkpt lat="44.33668" lon="3.50379">
        <ele>566</ele>
        <time>2019-12-19T03:21:48Z</time>
      </trkpt>
      <trkpt lat="44.33664" lon="3.50393">
        <ele>570</ele>
        <time>2019-12-19T03:21:50Z</time>
      </trkpt>
      <trkpt lat="44.33649" lon="3.50401">
        <ele>570</ele>
        <time>2019-12-19T03:21:53Z</time>
      </trkpt>
      <trkpt lat="44.33628" lon="3.50422">
        <ele>573</ele>
        <time>2019-12-19T03:21:57Z</time>
      </trkpt>
      <trkpt lat="44.33616" lon="3.50428">
        <ele>573</ele>
        <time>2019-12-19T03:22:00Z</time>
      </trkpt>
      <trkpt lat="44.336" lon="3.50449">
        <ele>577</ele>
        <time>2019-12-19T03:22:04Z</time>
      </trkpt>
      <trkpt lat="44.33613" lon="3.50457">
        <ele>578</ele>
        <time>2019-12-19T03:22:06Z</time>
      </trkpt>
      <trkpt lat="44.33616" lon="3.50463">
        <ele>578</ele>
        <time>2019-12-19T03:22:07Z</time>
      </trkpt>
      <trkpt lat="44.33614" lon="3.50471">
        <ele>580</ele>
        <time>2019-12-19T03:22:08Z</time>
      </trkpt>
      <trkpt lat="44.33607" lon="3.50475">
        <ele>581</ele>
        <time>2019-12-19T03:22:09Z</time>
      </trkpt>
      <trkpt lat="44.3359" lon="3.50496">
        <ele>589</ele>
        <time>2019-12-19T03:22:13Z</time>
      </trkpt>
      <trkpt lat="44.33606" lon="3.50483">
        <ele>583</ele>
        <time>2019-12-19T03:22:17Z</time>
      </trkpt>
      <trkpt lat="44.33612" lon="3.50483">
        <ele>582</ele>
        <time>2019-12-19T03:22:18Z</time>
      </trkpt>
      <trkpt lat="44.33617" lon="3.50486">
        <ele>582</ele>
        <time>2019-12-19T03:22:19Z</time>
      </trkpt>
      <trkpt lat="44.33618" lon="3.50494">
        <ele>582</ele>
        <time>2019-12-19T03:22:20Z</time>
      </trkpt>
      <trkpt lat="44.33616" lon="3.50503">
        <ele>584</ele>
        <time>2019-12-19T03:22:21Z</time>
      </trkpt>
      <trkpt lat="44.33618" lon="3.50494">
        <ele>582</ele>
        <time>2019-12-19T03:22:22Z</time>
      </trkpt>
      <trkpt lat="44.33617" lon="3.50486">
        <ele>582</ele>
        <time>2019-12-19T03:22:23Z</time>
      </trkpt>
      <trkpt lat="44.33612" lon="3.50483">
        <ele>582</ele>
        <time>2019-12-19T03:22:24Z</time>
      </trkpt>
      <trkpt lat="44.33606" lon="3.50483">
        <ele>583</ele>
        <time>2019-12-19T03:22:25Z</time>
      </trkpt>
      <trkpt lat="44.33598" lon="3.50491">
        <ele>586</ele>
        <time>2019-12-19T03:22:27Z</time>
      </trkpt>
      <trkpt lat="44.33573" lon="3.50507">
        <ele>590</ele>
        <time>2019-12-19T03:22:32Z</time>
      </trkpt>
      <trkpt lat="44.33533" lon="3.50529">
        <ele>586</ele>
        <time>2019-12-19T03:22:40Z</time>
      </trkpt>
      <trkpt lat="44.33524" lon="3.50539">
        <ele>588</ele>
        <time>2019-12-19T03:22:42Z</time>
      </trkpt>
      <trkpt lat="44.33513" lon="3.50561">
        <ele>597</ele>
        <time>2019-12-19T03:22:45Z</time>
      </trkpt>
      <trkpt lat="44.33493" lon="3.50592">
        <ele>609</ele>
        <time>2019-12-19T03:22:50Z</time>
      </trkpt>
      <trkpt lat="44.33469" lon="3.50612">
        <ele>609</ele>
        <time>2019-12-19T03:22:55Z</time>
      </trkpt>
      <trkpt lat="44.33464" lon="3.50621">
        <ele>611</ele>
        <time>2019-12-19T03:22:57Z</time>
      </trkpt>
      <trkpt lat="44.3346" lon="3.50632">
        <ele>614</ele>
        <time>2019-12-19T03:22:58Z</time>
      </trkpt>
      <trkpt lat="44.33444" lon="3.5071">
        <ele>636</ele>
        <time>2019-12-19T03:23:09Z</time>
      </trkpt>
      <trkpt lat="44.33431" lon="3.50734">
        <ele>640</ele>
        <time>2019-12-19T03:23:12Z</time>
      </trkpt>
      <trkpt lat="44.33416" lon="3.50747">
        <ele>641</ele>
        <time>2019-12-19T03:23:16Z</time>
      </trkpt>
      <trkpt lat="44.33403" lon="3.50747">
        <ele>646</ele>
        <time>2019-12-19T03:23:18Z</time>
      </trkpt>
      <trkpt lat="44.33388" lon="3.50735">
        <ele>648</ele>
        <time>2019-12-19T03:23:21Z</time>
      </trkpt>
      <trkpt lat="44.33381" lon="3.50721">
        <ele>646</ele>
        <time>2019-12-19T03:23:23Z</time>
      </trkpt>
      <trkpt lat="44.33369" lon="3.50682">
        <ele>637</ele>
        <time>2019-12-19T03:23:29Z</time>
      </trkpt>
      <trkpt lat="44.33353" lon="3.50653">
        <ele>633</ele>
        <time>2019-12-19T03:23:33Z</time>
      </trkpt>
      <trkpt lat="44.33333" lon="3.50623">
        <ele>628</ele>
        <time>2019-12-19T03:23:38Z</time>
      </trkpt>
      <trkpt lat="44.3332" lon="3.5062">
        <ele>626</ele>
        <time>2019-12-19T03:23:41Z</time>
      </trkpt>
      <trkpt lat="44.33297" lon="3.50631">
        <ele>629</ele>
        <time>2019-12-19T03:23:45Z</time>
      </trkpt>
      <trkpt lat="44.3322" lon="3.50686">
        <ele>641</ele>
        <time>2019-12-19T03:24:01Z</time>
      </trkpt>
      <trkpt lat="44.33208" lon="3.50714">
        <ele>646</ele>
        <time>2019-12-19T03:24:05Z</time>
      </trkpt>
      <trkpt lat="44.33203" lon="3.50731">
        <ele>651</ele>
        <time>2019-12-19T03:24:07Z</time>
      </trkpt>
      <trkpt lat="44.33207" lon="3.50739">
        <ele>654</ele>
        <time>2019-12-19T03:24:08Z</time>
      </trkpt>
      <trkpt lat="44.33213" lon="3.50735">
        <ele>654</ele>
        <time>2019-12-19T03:24:09Z</time>
      </trkpt>
      <trkpt lat="44.33217" lon="3.50721">
        <ele>651</ele>
        <time>2019-12-19T03:24:11Z</time>
      </trkpt>
      <trkpt lat="44.33225" lon="3.50702">
        <ele>647</ele>
        <time>2019-12-19T03:24:14Z</time>
      </trkpt>
      <trkpt lat="44.33237" lon="3.50692">
        <ele>647</ele>
        <time>2019-12-19T03:24:17Z</time>
      </trkpt>
      <trkpt lat="44.33273" lon="3.50675">
        <ele>646</ele>
        <time>2019-12-19T03:24:23Z</time>
      </trkpt>
      <trkpt lat="44.33298" lon="3.50669">
        <ele>645</ele>
        <time>2019-12-19T03:24:28Z</time>
      </trkpt>
      <trkpt lat="44.33317" lon="3.50675">
        <ele>648</ele>
        <time>2019-12-19T03:24:31Z</time>
      </trkpt>
      <trkpt lat="44.33327" lon="3.50684">
        <ele>652</ele>
        <time>2019-12-19T03:24:33Z</time>
      </trkpt>
      <trkpt lat="44.33333" lon="3.50697">
        <ele>656</ele>
        <time>2019-12-19T03:24:35Z</time>
      </trkpt>
      <trkpt lat="44.33344" lon="3.50731">
        <ele>664</ele>
        <time>2019-12-19T03:24:40Z</time>
      </trkpt>
      <trkpt lat="44.3337" lon="3.50831">
        <ele>679</ele>
        <time>2019-12-19T03:24:54Z</time>
      </trkpt>
      <trkpt lat="44.33389" lon="3.50884">
        <ele>684</ele>
        <time>2019-12-19T03:25:01Z</time>
      </trkpt>
      <trkpt lat="44.33419" lon="3.50953">
        <ele>695</ele>
        <time>2019-12-19T03:25:12Z</time>
      </trkpt>
      <trkpt lat="44.33431" lon="3.50966">
        <ele>701</ele>
        <time>2019-12-19T03:25:14Z</time>
      </trkpt>
      <trkpt lat="44.3344" lon="3.5097">
        <ele>705</ele>
        <time>2019-12-19T03:25:16Z</time>
      </trkpt>
      <trkpt lat="44.3345" lon="3.50965">
        <ele>705</ele>
        <time>2019-12-19T03:25:18Z</time>
      </trkpt>
      <trkpt lat="44.33462" lon="3.50944">
        <ele>701</ele>
        <time>2019-12-19T03:25:21Z</time>
      </trkpt>
      <trkpt lat="44.33507" lon="3.50837">
        <ele>678</ele>
        <time>2019-12-19T03:25:37Z</time>
      </trkpt>
      <trkpt lat="44.33518" lon="3.50814">
        <ele>671</ele>
        <time>2019-12-19T03:25:41Z</time>
      </trkpt>
      <trkpt lat="44.33525" lon="3.50807">
        <ele>668</ele>
        <time>2019-12-19T03:25:42Z</time>
      </trkpt>
      <trkpt lat="44.33531" lon="3.50806">
        <ele>667</ele>
        <time>2019-12-19T03:25:43Z</time>
      </trkpt>
      <trkpt lat="44.33533" lon="3.5081">
        <ele>668</ele>
        <time>2019-12-19T03:25:44Z</time>
      </trkpt>
      <trkpt lat="44.33534" lon="3.50814">
        <ele>668</ele>
        <time>2019-12-19T03:25:44Z</time>
      </trkpt>
      <trkpt lat="44.33534" lon="3.50822">
        <ele>670</ele>
        <time>2019-12-19T03:25:45Z</time>
      </trkpt>
      <trkpt lat="44.33524" lon="3.50832">
        <ele>673</ele>
        <time>2019-12-19T03:25:48Z</time>
      </trkpt>
      <trkpt lat="44.33506" lon="3.50878">
        <ele>689</ele>
        <time>2019-12-19T03:25:54Z</time>
      </trkpt>
      <trkpt lat="44.33487" lon="3.50934">
        <ele>703</ele>
        <time>2019-12-19T03:26:02Z</time>
      </trkpt>
      <trkpt lat="44.33452" lon="3.51052">
        <ele>733</ele>
        <time>2019-12-19T03:26:18Z</time>
      </trkpt>
      <trkpt lat="44.33445" lon="3.51057">
        <ele>734</ele>
        <time>2019-12-19T03:26:20Z</time>
      </trkpt>
      <trkpt lat="44.33434" lon="3.51057">
        <ele>732</ele>
        <time>2019-12-19T03:26:22Z</time>
      </trkpt>
      <trkpt lat="44.33365" lon="3.50981">
        <ele>721</ele>
        <time>2019-12-19T03:26:37Z</time>
      </trkpt>
      <trkpt lat="44.33358" lon="3.50978">
        <ele>723</ele>
        <time>2019-12-19T03:26:39Z</time>
      </trkpt>
      <trkpt lat="44.33342" lon="3.50976">
        <ele>727</ele>
        <time>2019-12-19T03:26:42Z</time>
      </trkpt>
      <trkpt lat="44.33329" lon="3.50978">
        <ele>732</ele>
        <time>2019-12-19T03:26:44Z</time>
      </trkpt>
      <trkpt lat="44.3332" lon="3.50975">
        <ele>733</ele>
        <time>2019-12-19T03:26:45Z</time>
      </trkpt>
      <trkpt lat="44.33315" lon="3.50969">
        <ele>732</ele>
        <time>2019-12-19T03:26:47Z</time>
      </trkpt>
      <trkpt lat="44.33308" lon="3.50946">
        <ele>725</ele>
        <time>2019-12-19T03:26:50Z</time>
      </trkpt>
      <trkpt lat="44.33295" lon="3.5091">
        <ele>716</ele>
        <time>2019-12-19T03:26:55Z</time>
      </trkpt>
      <trkpt lat="44.33288" lon="3.50897">
        <ele>713</ele>
        <time>2019-12-19T03:26:57Z</time>
      </trkpt>
      <trkpt lat="44.33277" lon="3.50892">
        <ele>712</ele>
        <time>2019-12-19T03:26:59Z</time>
      </trkpt>
      <trkpt lat="44.33268" lon="3.50895">
        <ele>714</ele>
        <time>2019-12-19T03:27:01Z</time>
      </trkpt>
      <trkpt lat="44.3325" lon="3.50911">
        <ele>722</ele>
        <time>2019-12-19T03:27:05Z</time>
      </trkpt>
      <trkpt lat="44.33249" lon="3.50917">
        <ele>724</ele>
        <time>2019-12-19T03:27:05Z</time>
      </trkpt>
      <trkpt lat="44.33251" lon="3.50922">
        <ele>726</ele>
        <time>2019-12-19T03:27:06Z</time>
      </trkpt>
      <trkpt lat="44.33257" lon="3.5092">
        <ele>724</ele>
        <time>2019-12-19T03:27:07Z</time>
      </trkpt>
      <trkpt lat="44.33265" lon="3.50913">
        <ele>721</ele>
        <time>2019-12-19T03:27:09Z</time>
      </trkpt>
      <trkpt lat="44.33273" lon="3.50915">
        <ele>720</ele>
        <time>2019-12-19T03:27:10Z</time>
      </trkpt>
      <trkpt lat="44.3328" lon="3.50922">
        <ele>722</ele>
        <time>2019-12-19T03:27:12Z</time>
      </trkpt>
      <trkpt lat="44.33284" lon="3.50934">
        <ele>725</ele>
        <time>2019-12-19T03:27:14Z</time>
      </trkpt>
      <trkpt lat="44.33302" lon="3.51014">
        <ele>749</ele>
        <time>2019-12-19T03:27:24Z</time>
      </trkpt>
      <trkpt lat="44.33307" lon="3.51019">
        <ele>750</ele>
        <time>2019-12-19T03:27:25Z</time>
      </trkpt>
      <trkpt lat="44.33336" lon="3.51028">
        <ele>747</ele>
        <time>2019-12-19T03:27:31Z</time>
      </trkpt>
      <trkpt lat="44.33348" lon="3.51034">
        <ele>745</ele>
        <time>2019-12-19T03:27:33Z</time>
      </trkpt>
      <trkpt lat="44.33357" lon="3.51045">
        <ele>746</ele>
        <time>2019-12-19T03:27:35Z</time>
      </trkpt>
      <trkpt lat="44.33422" lon="3.51155">
        <ele>768</ele>
        <time>2019-12-19T03:27:53Z</time>
      </trkpt>
      <trkpt lat="44.33429" lon="3.5116">
        <ele>770</ele>
        <time>2019-12-19T03:27:55Z</time>
      </trkpt>
      <trkpt lat="44.33458" lon="3.5116">
        <ele>771</ele>
        <time>2019-12-19T03:28:00Z</time>
      </trkpt>
      <trkpt lat="44.33477" lon="3.51167">
        <ele>774</ele>
        <time>2019-12-19T03:28:03Z</time>
      </trkpt>
      <trkpt lat="44.33494" lon="3.51179">
        <ele>779</ele>
        <time>2019-12-19T03:28:07Z</time>
      </trkpt>
      <trkpt lat="44.33499" lon="3.51176">
        <ele>778</ele>
        <time>2019-12-19T03:28:08Z</time>
      </trkpt>
      <trkpt lat="44.33503" lon="3.51169">
        <ele>777</ele>
        <time>2019-12-19T03:28:09Z</time>
      </trkpt>
      <trkpt lat="44.3352" lon="3.51126">
        <ele>772</ele>
        <time>2019-12-19T03:28:15Z</time>
      </trkpt>
      <trkpt lat="44.33548" lon="3.5107">
        <ele>767</ele>
        <time>2019-12-19T03:28:24Z</time>
      </trkpt>
      <trkpt lat="44.3357" lon="3.51031">
        <ele>760</ele>
        <time>2019-12-19T03:28:30Z</time>
      </trkpt>
      <trkpt lat="44.33576" lon="3.51015">
        <ele>756</ele>
        <time>2019-12-19T03:28:32Z</time>
      </trkpt>
      <trkpt lat="44.33581" lon="3.51012">
        <ele>756</ele>
        <time>2019-12-19T03:28:33Z</time>
      </trkpt>
      <trkpt lat="44.33584" lon="3.51012">
        <ele>757</ele>
        <time>2019-12-19T03:28:34Z</time>
      </trkpt>
      <trkpt lat="44.33586" lon="3.51019">
        <ele>760</ele>
        <time>2019-12-19T03:28:35Z</time>
      </trkpt>
      <trkpt lat="44.33583" lon="3.5103">
        <ele>764</ele>
        <time>2019-12-19T03:28:36Z</time>
      </trkpt>
      <trkpt lat="44.33579" lon="3.51036">
        <ele>766</ele>
        <time>2019-12-19T03:28:37Z</time>
      </trkpt>
      <trkpt lat="44.33571" lon="3.51052">
        <ele>769</ele>
        <time>2019-12-19T03:28:40Z</time>
      </trkpt>
      <trkpt lat="44.33559" lon="3.51094">
        <ele>779</ele>
        <time>2019-12-19T03:28:45Z</time>
      </trkpt>
      <trkpt lat="44.33543" lon="3.5118">
        <ele>796</ele>
        <time>2019-12-19T03:28:57Z</time>
      </trkpt>
      <trkpt lat="44.33529" lon="3.51229">
        <ele>807</ele>
        <time>2019-12-19T03:29:04Z</time>
      </trkpt>
      <trkpt lat="44.3352" lon="3.5125">
        <ele>812</ele>
        <time>2019-12-19T03:29:07Z</time>
      </trkpt>
      <trkpt lat="44.33514" lon="3.51254">
        <ele>811</ele>
        <time>2019-12-19T03:29:08Z</time>
      </trkpt>
      <trkpt lat="44.33501" lon="3.5125">
        <ele>806</ele>
        <time>2019-12-19T03:29:10Z</time>
      </trkpt>
      <trkpt lat="44.33478" lon="3.51251">
        <ele>806</ele>
        <time>2019-12-19T03:29:14Z</time>
      </trkpt>
      <trkpt lat="44.33468" lon="3.51255">
        <ele>808</ele>
        <time>2019-12-19T03:29:16Z</time>
      </trkpt>
      <trkpt lat="44.3343" lon="3.51289">
        <ele>822</ele>
        <time>2019-12-19T03:29:24Z</time>
      </trkpt>
      <trkpt lat="44.3342" lon="3.5129">
        <ele>822</ele>
        <time>2019-12-19T03:29:26Z</time>
      </trkpt>
      <trkpt lat="44.3341" lon="3.51287">
        <ele>823</ele>
        <time>2019-12-19T03:29:28Z</time>
      </trkpt>
      <trkpt lat="44.334" lon="3.51276">
        <ele>822</ele>
        <time>2019-12-19T03:29:30Z</time>
      </trkpt>
      <trkpt lat="44.33374" lon="3.51238">
        <ele>817</ele>
        <time>2019-12-19T03:29:37Z</time>
      </trkpt>
      <trkpt lat="44.33352" lon="3.51222">
        <ele>819</ele>
        <time>2019-12-19T03:29:41Z</time>
      </trkpt>
      <trkpt lat="44.3333" lon="3.51209">
        <ele>821</ele>
        <time>2019-12-19T03:29:45Z</time>
      </trkpt>
      <trkpt lat="44.33319" lon="3.512">
        <ele>819</ele>
        <time>2019-12-19T03:29:48Z</time>
      </trkpt>
      <trkpt lat="44.33252" lon="3.51223">
        <ele>836</ele>
        <time>2019-12-19T03:30:00Z</time>
      </trkpt>
      <trkpt lat="44.33233" lon="3.51222">
        <ele>835</ele>
        <time>2019-12-19T03:30:03Z</time>
      </trkpt>
      <trkpt lat="44.33223" lon="3.51209">
        <ele>831</ele>
        <time>2019-12-19T03:30:06Z</time>
      </trkpt>
      <trkpt lat="44.33212" lon="3.51183">
        <ele>824</ele>
        <time>2019-12-19T03:30:10Z</time>
      </trkpt>
      <trkpt lat="44.33201" lon="3.5118">
        <ele>823</ele>
        <time>2019-12-19T03:30:12Z</time>
      </trkpt>
      <trkpt lat="44.33186" lon="3.51185">
        <ele>824</ele>
        <time>2019-12-19T03:30:14Z</time>
      </trkpt>
      <trkpt lat="44.33176" lon="3.51199">
        <ele>827</ele>
        <time>2019-12-19T03:30:17Z</time>
      </trkpt>
      <trkpt lat="44.33173" lon="3.51216">
        <ele>831</ele>
        <time>2019-12-19T03:30:19Z</time>
      </trkpt>
      <trkpt lat="44.3318" lon="3.51234">
        <ele>835</ele>
        <time>2019-12-19T03:30:22Z</time>
      </trkpt>
      <trkpt lat="44.33198" lon="3.51265">
        <ele>842</ele>
        <time>2019-12-19T03:30:27Z</time>
      </trkpt>
      <trkpt lat="44.3321" lon="3.51296">
        <ele>846</ele>
        <time>2019-12-19T03:30:31Z</time>
      </trkpt>
      <trkpt lat="44.3322" lon="3.51401">
        <ele>853</ele>
        <time>2019-12-19T03:30:45Z</time>
      </trkpt>
      <trkpt lat="44.33247" lon="3.51515">
        <ele>856</ele>
        <time>2019-12-19T03:31:00Z</time>
      </trkpt>
      <trkpt lat="44.33254" lon="3.51566">
        <ele>856</ele>
        <time>2019-12-19T03:31:07Z</time>
      </trkpt>
      <trkpt lat="44.33266" lon="3.51626">
        <ele>857</ele>
        <time>2019-12-19T03:31:15Z</time>
      </trkpt>
      <trkpt lat="44.33275" lon="3.51642">
        <ele>858</ele>
        <time>2019-12-19T03:31:17Z</time>
      </trkpt>
      <trkpt lat="44.33304" lon="3.51678">
        <ele>860</ele>
        <time>2019-12-19T03:31:24Z</time>
      </trkpt>
      <trkpt lat="44.33308" lon="3.51688">
        <ele>860</ele>
        <time>2019-12-19T03:31:25Z</time>
      </trkpt>
      <trkpt lat="44.33346" lon="3.51625">
        <ele>865</ele>
        <time>2019-12-19T03:31:36Z</time>
      </trkpt>
      <trkpt lat="44.33389" lon="3.5159">
        <ele>871</ele>
        <time>2019-12-19T03:31:45Z</time>
      </trkpt>
      <trkpt lat="44.33414" lon="3.51588">
        <ele>873</ele>
        <time>2019-12-19T03:31:49Z</time>
      </trkpt>
      <trkpt lat="44.3348" lon="3.51525">
        <ele>886</ele>
        <time>2019-12-19T03:32:03Z</time>
      </trkpt>
      <trkpt lat="44.33543" lon="3.51451">
        <ele>884</ele>
        <time>2019-12-19T03:32:18Z</time>
      </trkpt>
      <trkpt lat="44.33555" lon="3.51457">
        <ele>886</ele>
        <time>2019-12-19T03:32:20Z</time>
      </trkpt>
      <trkpt lat="44.33543" lon="3.51451">
        <ele>884</ele>
        <time>2019-12-18T23:54:50Z</time>
      </trkpt>
      <trkpt lat="44.3348" lon="3.51525">
        <ele>886</ele>
        <time>2019-12-18T23:55:05Z</time>
      </trkpt>
      <trkpt lat="44.33414" lon="3.51588">
        <ele>873</ele>
        <time>2019-12-18T23:55:19Z</time>
      </trkpt>
      <trkpt lat="44.33389" lon="3.5159">
        <ele>871</ele>
        <time>2019-12-18T23:55:23Z</time>
      </trkpt>
      <trkpt lat="44.33346" lon="3.51625">
        <ele>865</ele>
        <time>2019-12-18T23:55:32Z</time>
      </trkpt>
      <trkpt lat="44.33308" lon="3.51688">
        <ele>860</ele>
        <time>2019-12-18T23:55:43Z</time>
      </trkpt>
      <trkpt lat="44.33309" lon="3.5171">
        <ele>860</ele>
        <time>2019-12-18T23:55:45Z</time>
      </trkpt>
      <trkpt lat="44.33306" lon="3.51737">
        <ele>860</ele>
        <time>2019-12-18T23:55:49Z</time>
      </trkpt>
      <trkpt lat="44.33288" lon="3.51776">
        <ele>862</ele>
        <time>2019-12-18T23:55:55Z</time>
      </trkpt>
      <trkpt lat="44.33266" lon="3.51813">
        <ele>864</ele>
        <time>2019-12-18T23:56:01Z</time>
      </trkpt>
      <trkpt lat="44.33259" lon="3.51848">
        <ele>867</ele>
        <time>2019-12-18T23:56:06Z</time>
      </trkpt>
      <trkpt lat="44.33258" lon="3.51866">
        <ele>868</ele>
        <time>2019-12-18T23:56:08Z</time>
      </trkpt>
      <trkpt lat="44.33251" lon="3.51892">
        <ele>870</ele>
        <time>2019-12-18T23:56:11Z</time>
      </trkpt>
      <trkpt lat="44.33242" lon="3.51901">
        <ele>871</ele>
        <time>2019-12-18T23:56:13Z</time>
      </trkpt>
      <trkpt lat="44.33168" lon="3.51909">
        <ele>871</ele>
        <time>2019-12-18T23:56:27Z</time>
      </trkpt>
      <trkpt lat="44.33136" lon="3.51903">
        <ele>870</ele>
        <time>2019-12-18T23:56:32Z</time>
      </trkpt>
      <trkpt lat="44.33108" lon="3.51905">
        <ele>871</ele>
        <time>2019-12-18T23:56:37Z</time>
      </trkpt>
      <trkpt lat="44.33087" lon="3.51913">
        <ele>872</ele>
        <time>2019-12-18T23:56:41Z</time>
      </trkpt>
      <trkpt lat="44.33059" lon="3.51944">
        <ele>876</ele>
        <time>2019-12-18T23:56:48Z</time>
      </trkpt>
      <trkpt lat="44.32972" lon="3.5203">
        <ele>881</ele>
        <time>2019-12-18T23:57:07Z</time>
      </trkpt>
      <trkpt lat="44.32944" lon="3.52081">
        <ele>884</ele>
        <time>2019-12-18T23:57:15Z</time>
      </trkpt>
      <trkpt lat="44.32933" lon="3.52108">
        <ele>885</ele>
        <time>2019-12-18T23:57:19Z</time>
      </trkpt>
      <trkpt lat="44.32926" lon="3.52134">
        <ele>886</ele>
        <time>2019-12-18T23:57:22Z</time>
      </trkpt>
      <trkpt lat="44.32919" lon="3.52169">
        <ele>886</ele>
        <time>2019-12-18T23:57:27Z</time>
      </trkpt>
      <trkpt lat="44.32918" lon="3.52191">
        <ele>887</ele>
        <time>2019-12-18T23:57:30Z</time>
      </trkpt>
      <trkpt lat="44.32921" lon="3.52227">
        <ele>889</ele>
        <time>2019-12-18T23:57:34Z</time>
      </trkpt>
      <trkpt lat="44.32921" lon="3.52239">
        <ele>889</ele>
        <time>2019-12-18T23:57:36Z</time>
      </trkpt>
      <trkpt lat="44.32918" lon="3.52251">
        <ele>889</ele>
        <time>2019-12-18T23:57:37Z</time>
      </trkpt>
      <trkpt lat="44.32896" lon="3.52291">
        <ele>889</ele>
        <time>2019-12-18T23:57:44Z</time>
      </trkpt>
      <trkpt lat="44.32886" lon="3.52312">
        <ele>890</ele>
        <time>2019-12-18T23:57:47Z</time>
      </trkpt>
      <trkpt lat="44.32871" lon="3.52354">
        <ele>890</ele>
        <time>2019-12-18T23:57:53Z</time>
      </trkpt>
      <trkpt lat="44.32866" lon="3.52373">
        <ele>890</ele>
        <time>2019-12-18T23:57:56Z</time>
      </trkpt>
      <trkpt lat="44.32865" lon="3.5239">
        <ele>891</ele>
        <time>2019-12-18T23:57:58Z</time>
      </trkpt>
      <trkpt lat="44.32867" lon="3.52429">
        <ele>891</ele>
        <time>2019-12-18T23:58:03Z</time>
      </trkpt>
      <trkpt lat="44.32865" lon="3.52459">
        <ele>891</ele>
        <time>2019-12-18T23:58:07Z</time>
      </trkpt>
      <trkpt lat="44.32863" lon="3.52475">
        <ele>890</ele>
        <time>2019-12-18T23:58:09Z</time>
      </trkpt>
      <trkpt lat="44.32859" lon="3.52484">
        <ele>890</ele>
        <time>2019-12-18T23:58:10Z</time>
      </trkpt>
      <trkpt lat="44.32854" lon="3.52489">
        <ele>890</ele>
        <time>2019-12-18T23:58:11Z</time>
      </trkpt>
      <trkpt lat="44.32884" lon="3.52497">
        <ele>890</ele>
        <time>2019-12-18T23:58:16Z</time>
      </trkpt>
      <trkpt lat="44.32919" lon="3.52522">
        <ele>889</ele>
        <time>2019-12-18T23:58:23Z</time>
      </trkpt>
      <trkpt lat="44.32961" lon="3.52548">
        <ele>890</ele>
        <time>2019-12-18T23:58:32Z</time>
      </trkpt>
      <trkpt lat="44.32986" lon="3.52567">
        <ele>890</ele>
        <time>2019-12-18T23:58:37Z</time>
      </trkpt>
      <trkpt lat="44.33007" lon="3.52577">
        <ele>891</ele>
        <time>2019-12-18T23:58:41Z</time>
      </trkpt>
      <trkpt lat="44.33036" lon="3.526">
        <ele>893</ele>
        <time>2019-12-18T23:58:47Z</time>
      </trkpt>
      <trkpt lat="44.33076" lon="3.52645">
        <ele>893</ele>
        <time>2019-12-18T23:58:56Z</time>
      </trkpt>
      <trkpt lat="44.33123" lon="3.52669">
        <ele>895</ele>
        <time>2019-12-18T23:59:05Z</time>
      </trkpt>
      <trkpt lat="44.3314" lon="3.52684">
        <ele>895</ele>
        <time>2019-12-18T23:59:08Z</time>
      </trkpt>
      <trkpt lat="44.33172" lon="3.52704">
        <ele>896</ele>
        <time>2019-12-18T23:59:14Z</time>
      </trkpt>
      <trkpt lat="44.33207" lon="3.52715">
        <ele>899</ele>
        <time>2019-12-18T23:59:21Z</time>
      </trkpt>
      <trkpt lat="44.33226" lon="3.52728">
        <ele>899</ele>
        <time>2019-12-18T23:59:25Z</time>
      </trkpt>
      <trkpt lat="44.33242" lon="3.52742">
        <ele>899</ele>
        <time>2019-12-18T23:59:28Z</time>
      </trkpt>
      <trkpt lat="44.33293" lon="3.52801">
        <ele>898</ele>
        <time>2019-12-18T23:59:40Z</time>
      </trkpt>
      <trkpt lat="44.33335" lon="3.52842">
        <ele>899</ele>
        <time>2019-12-18T23:59:49Z</time>
      </trkpt>
      <trkpt lat="44.33371" lon="3.5289">
        <ele>902</ele>
        <time>2019-12-18T23:59:58Z</time>
      </trkpt>
      <trkpt lat="44.33405" lon="3.52948">
        <ele>903</ele>
        <time>2019-12-19T00:00:07Z</time>
      </trkpt>
      <trkpt lat="44.33426" lon="3.5298">
        <ele>905</ele>
        <time>2019-12-19T00:00:13Z</time>
      </trkpt>
      <trkpt lat="44.33452" lon="3.52989">
        <ele>907</ele>
        <time>2019-12-19T00:00:18Z</time>
      </trkpt>
      <trkpt lat="44.33459" lon="3.52995">
        <ele>908</ele>
        <time>2019-12-19T00:00:19Z</time>
      </trkpt>
      <trkpt lat="44.33469" lon="3.53">
        <ele>909</ele>
        <time>2019-12-19T00:00:21Z</time>
      </trkpt>
      <trkpt lat="44.33509" lon="3.53012">
        <ele>912</ele>
        <time>2019-12-19T00:00:28Z</time>
      </trkpt>
      <trkpt lat="44.33571" lon="3.53016">
        <ele>920</ele>
        <time>2019-12-19T00:00:39Z</time>
      </trkpt>
      <trkpt lat="44.33587" lon="3.53019">
        <ele>922</ele>
        <time>2019-12-19T00:00:42Z</time>
      </trkpt>
      <trkpt lat="44.33602" lon="3.53027">
        <ele>924</ele>
        <time>2019-12-19T00:00:45Z</time>
      </trkpt>
      <trkpt lat="44.33621" lon="3.53048">
        <ele>924</ele>
        <time>2019-12-19T00:00:49Z</time>
      </trkpt>
      <trkpt lat="44.33637" lon="3.53064">
        <ele>925</ele>
        <time>2019-12-19T00:00:53Z</time>
      </trkpt>
      <trkpt lat="44.33641" lon="3.53071">
        <ele>925</ele>
        <time>2019-12-19T00:00:54Z</time>
      </trkpt>
      <trkpt lat="44.33643" lon="3.5308">
        <ele>925</ele>
        <time>2019-12-19T00:00:55Z</time>
      </trkpt>
      <trkpt lat="44.33644" lon="3.53106">
        <ele>923</ele>
        <time>2019-12-19T00:00:58Z</time>
      </trkpt>
      <trkpt lat="44.33646" lon="3.53119">
        <ele>923</ele>
        <time>2019-12-19T00:01:00Z</time>
      </trkpt>
      <trkpt lat="44.33652" lon="3.53132">
        <ele>923</ele>
        <time>2019-12-19T00:01:02Z</time>
      </trkpt>
      <trkpt lat="44.33661" lon="3.53142">
        <ele>925</ele>
        <time>2019-12-19T00:01:04Z</time>
      </trkpt>
      <trkpt lat="44.33681" lon="3.53162">
        <ele>926</ele>
        <time>2019-12-19T00:01:08Z</time>
      </trkpt>
      <trkpt lat="44.33705" lon="3.53192">
        <ele>928</ele>
        <time>2019-12-19T00:01:14Z</time>
      </trkpt>
      <trkpt lat="44.33744" lon="3.53228">
        <ele>929</ele>
        <time>2019-12-19T00:01:23Z</time>
      </trkpt>
      <trkpt lat="44.33779" lon="3.53246">
        <ele>934</ele>
        <time>2019-12-19T00:01:29Z</time>
      </trkpt>
      <trkpt lat="44.33789" lon="3.53253">
        <ele>935</ele>
        <time>2019-12-19T00:01:31Z</time>
      </trkpt>
      <trkpt lat="44.33813" lon="3.53285">
        <ele>937</ele>
        <time>2019-12-19T00:01:37Z</time>
      </trkpt>
      <trkpt lat="44.33828" lon="3.53293">
        <ele>939</ele>
        <time>2019-12-19T00:01:40Z</time>
      </trkpt>
      <trkpt lat="44.33845" lon="3.53318">
        <ele>939</ele>
        <time>2019-12-19T00:01:44Z</time>
      </trkpt>
      <trkpt lat="44.33873" lon="3.53348">
        <ele>941</ele>
        <time>2019-12-19T00:01:51Z</time>
      </trkpt>
      <trkpt lat="44.33884" lon="3.53368">
        <ele>941</ele>
        <time>2019-12-19T00:01:54Z</time>
      </trkpt>
      <trkpt lat="44.33891" lon="3.53377">
        <ele>941</ele>
        <time>2019-12-19T00:01:55Z</time>
      </trkpt>
      <trkpt lat="44.33899" lon="3.53382">
        <ele>942</ele>
        <time>2019-12-19T00:01:57Z</time>
      </trkpt>
      <trkpt lat="44.33911" lon="3.53386">
        <ele>942</ele>
        <time>2019-12-19T00:01:59Z</time>
      </trkpt>
      <trkpt lat="44.33915" lon="3.5339">
        <ele>942</ele>
        <time>2019-12-19T00:02:00Z</time>
      </trkpt>
      <trkpt lat="44.33917" lon="3.53396">
        <ele>942</ele>
        <time>2019-12-19T00:02:01Z</time>
      </trkpt>
      <trkpt lat="44.33917" lon="3.53405">
        <ele>942</ele>
        <time>2019-12-19T00:02:02Z</time>
      </trkpt>
      <trkpt lat="44.33912" lon="3.5343">
        <ele>942</ele>
        <time>2019-12-19T00:02:05Z</time>
      </trkpt>
      <trkpt lat="44.33909" lon="3.53471">
        <ele>947</ele>
        <time>2019-12-19T00:02:11Z</time>
      </trkpt>
      <trkpt lat="44.3392" lon="3.53495">
        <ele>949</ele>
        <time>2019-12-19T00:02:14Z</time>
      </trkpt>
      <trkpt lat="44.3395" lon="3.53537">
        <ele>954</ele>
        <time>2019-12-19T00:02:22Z</time>
      </trkpt>
      <trkpt lat="44.33955" lon="3.53541">
        <ele>954</ele>
        <time>2019-12-19T00:02:23Z</time>
      </trkpt>
      <trkpt lat="44.33961" lon="3.53541">
        <ele>954</ele>
        <time>2019-12-19T00:02:24Z</time>
      </trkpt>
      <trkpt lat="44.34004" lon="3.53536">
        <ele>950</ele>
        <time>2019-12-19T00:02:32Z</time>
      </trkpt>
      <trkpt lat="44.34053" lon="3.53549">
        <ele>952</ele>
        <time>2019-12-19T00:02:40Z</time>
      </trkpt>
      <trkpt lat="44.34067" lon="3.53556">
        <ele>954</ele>
        <time>2019-12-19T00:02:43Z</time>
      </trkpt>
      <trkpt lat="44.34078" lon="3.53563">
        <ele>955</ele>
        <time>2019-12-19T00:02:45Z</time>
      </trkpt>
      <trkpt lat="44.341" lon="3.53586">
        <ele>958</ele>
        <time>2019-12-19T00:02:50Z</time>
      </trkpt>
      <trkpt lat="44.34119" lon="3.536">
        <ele>960</ele>
        <time>2019-12-19T00:02:54Z</time>
      </trkpt>
      <trkpt lat="44.34146" lon="3.53626">
        <ele>963</ele>
        <time>2019-12-19T00:03:00Z</time>
      </trkpt>
      <trkpt lat="44.34166" lon="3.5364">
        <ele>965</ele>
        <time>2019-12-19T00:03:04Z</time>
      </trkpt>
      <trkpt lat="44.34237" lon="3.53681">
        <ele>969</ele>
        <time>2019-12-19T00:03:17Z</time>
      </trkpt>
      <trkpt lat="44.34257" lon="3.53695">
        <ele>970</ele>
        <time>2019-12-19T00:03:21Z</time>
      </trkpt>
      <trkpt lat="44.34274" lon="3.53711">
        <ele>971</ele>
        <time>2019-12-19T00:03:25Z</time>
      </trkpt>
      <trkpt lat="44.34287" lon="3.53725">
        <ele>973</ele>
        <time>2019-12-19T00:03:28Z</time>
      </trkpt>
      <trkpt lat="44.34299" lon="3.53734">
        <ele>974</ele>
        <time>2019-12-19T00:03:30Z</time>
      </trkpt>
      <trkpt lat="44.34317" lon="3.53758">
        <ele>976</ele>
        <time>2019-12-19T00:03:35Z</time>
      </trkpt>
      <trkpt lat="44.34328" lon="3.53768">
        <ele>976</ele>
        <time>2019-12-19T00:03:37Z</time>
      </trkpt>
      <trkpt lat="44.34375" lon="3.53791">
        <ele>975</ele>
        <time>2019-12-19T00:03:46Z</time>
      </trkpt>
      <trkpt lat="44.3439" lon="3.53802">
        <ele>975</ele>
        <time>2019-12-19T00:03:49Z</time>
      </trkpt>
      <trkpt lat="44.34402" lon="3.53817">
        <ele>976</ele>
        <time>2019-12-19T00:03:52Z</time>
      </trkpt>
      <trkpt lat="44.3442" lon="3.53827">
        <ele>976</ele>
        <time>2019-12-19T00:03:55Z</time>
      </trkpt>
      <trkpt lat="44.34424" lon="3.53833">
        <ele>976</ele>
        <time>2019-12-19T00:03:56Z</time>
      </trkpt>
      <trkpt lat="44.34439" lon="3.53878">
        <ele>975</ele>
        <time>2019-12-19T00:04:03Z</time>
      </trkpt>
      <trkpt lat="44.34445" lon="3.53973">
        <ele>977</ele>
        <time>2019-12-19T00:04:15Z</time>
      </trkpt>
      <trkpt lat="44.34445" lon="3.54004">
        <ele>977</ele>
        <time>2019-12-19T00:04:19Z</time>
      </trkpt>
      <trkpt lat="44.34448" lon="3.54029">
        <ele>978</ele>
        <time>2019-12-19T00:04:22Z</time>
      </trkpt>
      <trkpt lat="44.3445" lon="3.54096">
        <ele>981</ele>
        <time>2019-12-19T00:04:31Z</time>
      </trkpt>
      <trkpt lat="44.34469" lon="3.54164">
        <ele>984</ele>
        <time>2019-12-19T00:04:40Z</time>
      </trkpt>
      <trkpt lat="44.34472" lon="3.542">
        <ele>986</ele>
        <time>2019-12-19T00:04:44Z</time>
      </trkpt>
      <trkpt lat="44.34502" lon="3.54337">
        <ele>994</ele>
        <time>2019-12-19T00:05:03Z</time>
      </trkpt>
      <trkpt lat="44.34505" lon="3.54354">
        <ele>994</ele>
        <time>2019-12-19T00:05:05Z</time>
      </trkpt>
      <trkpt lat="44.34505" lon="3.54371">
        <ele>995</ele>
        <time>2019-12-19T00:05:07Z</time>
      </trkpt>
      <trkpt lat="44.34502" lon="3.54389">
        <ele>996</ele>
        <time>2019-12-19T00:05:09Z</time>
      </trkpt>
      <trkpt lat="44.34497" lon="3.54402">
        <ele>996</ele>
        <time>2019-12-19T00:05:11Z</time>
      </trkpt>
      <trkpt lat="44.34488" lon="3.54418">
        <ele>997</ele>
        <time>2019-12-19T00:05:14Z</time>
      </trkpt>
      <trkpt lat="44.34466" lon="3.54443">
        <ele>998</ele>
        <time>2019-12-19T00:05:19Z</time>
      </trkpt>
      <trkpt lat="44.34457" lon="3.54456">
        <ele>998</ele>
        <time>2019-12-19T00:05:21Z</time>
      </trkpt>
      <trkpt lat="44.34441" lon="3.54504">
        <ele>1000</ele>
        <time>2019-12-19T00:05:28Z</time>
      </trkpt>
      <trkpt lat="44.34432" lon="3.54517">
        <ele>1001</ele>
        <time>2019-12-19T00:05:30Z</time>
      </trkpt>
      <trkpt lat="44.34395" lon="3.54556">
        <ele>1005</ele>
        <time>2019-12-19T00:05:39Z</time>
      </trkpt>
      <trkpt lat="44.34379" lon="3.5457">
        <ele>1006</ele>
        <time>2019-12-19T00:05:42Z</time>
      </trkpt>
      <trkpt lat="44.34333" lon="3.546">
        <ele>1010</ele>
        <time>2019-12-19T00:05:51Z</time>
      </trkpt>
      <trkpt lat="44.34309" lon="3.54621">
        <ele>1012</ele>
        <time>2019-12-19T00:05:56Z</time>
      </trkpt>
      <trkpt lat="44.34297" lon="3.54635">
        <ele>1013</ele>
        <time>2019-12-19T00:05:59Z</time>
      </trkpt>
      <trkpt lat="44.34265" lon="3.54692">
        <ele>1014</ele>
        <time>2019-12-19T00:06:08Z</time>
      </trkpt>
      <trkpt lat="44.3426" lon="3.5471">
        <ele>1014</ele>
        <time>2019-12-19T00:06:10Z</time>
      </trkpt>
      <trkpt lat="44.34257" lon="3.54729">
        <ele>1014</ele>
        <time>2019-12-19T00:06:13Z</time>
      </trkpt>
      <trkpt lat="44.34255" lon="3.54758">
        <ele>1013</ele>
        <time>2019-12-19T00:06:17Z</time>
      </trkpt>
      <trkpt lat="44.34251" lon="3.54774">
        <ele>1011</ele>
        <time>2019-12-19T00:06:19Z</time>
      </trkpt>
      <trkpt lat="44.34229" lon="3.54807">
        <ele>1008</ele>
        <time>2019-12-19T00:06:25Z</time>
      </trkpt>
      <trkpt lat="44.34222" lon="3.54826">
        <ele>1007</ele>
        <time>2019-12-19T00:06:27Z</time>
      </trkpt>
      <trkpt lat="44.34183" lon="3.55011">
        <ele>1015</ele>
        <time>2019-12-19T00:06:52Z</time>
      </trkpt>
      <trkpt lat="44.34176" lon="3.55026">
        <ele>1015</ele>
        <time>2019-12-19T00:06:54Z</time>
      </trkpt>
      <trkpt lat="44.34167" lon="3.55042">
        <ele>1015</ele>
        <time>2019-12-19T00:06:57Z</time>
      </trkpt>
      <trkpt lat="44.34163" lon="3.55057">
        <ele>1015</ele>
        <time>2019-12-19T00:06:59Z</time>
      </trkpt>
      <trkpt lat="44.34163" lon="3.55072">
        <ele>1015</ele>
        <time>2019-12-19T00:07:01Z</time>
      </trkpt>
      <trkpt lat="44.34166" lon="3.55088">
        <ele>1015</ele>
        <time>2019-12-19T00:07:03Z</time>
      </trkpt>
      <trkpt lat="44.34176" lon="3.55116">
        <ele>1014</ele>
        <time>2019-12-19T00:07:07Z</time>
      </trkpt>
      <trkpt lat="44.34177" lon="3.55128">
        <ele>1013</ele>
        <time>2019-12-19T00:07:08Z</time>
      </trkpt>
      <trkpt lat="44.34174" lon="3.55138">
        <ele>1013</ele>
        <time>2019-12-19T00:07:10Z</time>
      </trkpt>
      <trkpt lat="44.34168" lon="3.55146">
        <ele>1013</ele>
        <time>2019-12-19T00:07:11Z</time>
      </trkpt>
      <trkpt lat="44.34139" lon="3.5516">
        <ele>1012</ele>
        <time>2019-12-19T00:07:17Z</time>
      </trkpt>
      <trkpt lat="44.34124" lon="3.55165">
        <ele>1011</ele>
        <time>2019-12-19T00:07:19Z</time>
      </trkpt>
      <trkpt lat="44.34108" lon="3.55165">
        <ele>1011</ele>
        <time>2019-12-19T00:07:22Z</time>
      </trkpt>
      <trkpt lat="44.34097" lon="3.55168">
        <ele>1010</ele>
        <time>2019-12-19T00:07:24Z</time>
      </trkpt>
      <trkpt lat="44.34035" lon="3.55213">
        <ele>1010</ele>
        <time>2019-12-19T00:07:37Z</time>
      </trkpt>
      <trkpt lat="44.34022" lon="3.55226">
        <ele>1011</ele>
        <time>2019-12-19T00:07:39Z</time>
      </trkpt>
      <trkpt lat="44.34001" lon="3.55255">
        <ele>1012</ele>
        <time>2019-12-19T00:07:45Z</time>
      </trkpt>
      <trkpt lat="44.33993" lon="3.55262">
        <ele>1012</ele>
        <time>2019-12-19T00:07:46Z</time>
      </trkpt>
      <trkpt lat="44.33974" lon="3.55271">
        <ele>1011</ele>
        <time>2019-12-19T00:07:50Z</time>
      </trkpt>
      <trkpt lat="44.33963" lon="3.55278">
        <ele>1011</ele>
        <time>2019-12-19T00:07:52Z</time>
      </trkpt>
      <trkpt lat="44.33913" lon="3.55323">
        <ele>1012</ele>
        <time>2019-12-19T00:08:03Z</time>
      </trkpt>
      <trkpt lat="44.33901" lon="3.55329">
        <ele>1012</ele>
        <time>2019-12-19T00:08:05Z</time>
      </trkpt>
      <trkpt lat="44.33813" lon="3.55363">
        <ele>1011</ele>
        <time>2019-12-19T00:08:21Z</time>
      </trkpt>
      <trkpt lat="44.33766" lon="3.55395">
        <ele>1012</ele>
        <time>2019-12-19T00:08:30Z</time>
      </trkpt>
      <trkpt lat="44.33734" lon="3.55423">
        <ele>1012</ele>
        <time>2019-12-19T00:08:37Z</time>
      </trkpt>
      <trkpt lat="44.33701" lon="3.5544">
        <ele>1012</ele>
        <time>2019-12-19T00:08:43Z</time>
      </trkpt>
      <trkpt lat="44.33646" lon="3.55496">
        <ele>1014</ele>
        <time>2019-12-19T00:08:56Z</time>
      </trkpt>
      <trkpt lat="44.33624" lon="3.55525">
        <ele>1015</ele>
        <time>2019-12-19T00:09:01Z</time>
      </trkpt>
      <trkpt lat="44.33593" lon="3.55544">
        <ele>1015</ele>
        <time>2019-12-19T00:09:07Z</time>
      </trkpt>
      <trkpt lat="44.33525" lon="3.55595">
        <ele>1019</ele>
        <time>2019-12-19T00:09:21Z</time>
      </trkpt>
      <trkpt lat="44.33507" lon="3.55623">
        <ele>1020</ele>
        <time>2019-12-19T00:09:25Z</time>
      </trkpt>
      <trkpt lat="44.33497" lon="3.55644">
        <ele>1021</ele>
        <time>2019-12-19T00:09:29Z</time>
      </trkpt>
      <trkpt lat="44.33491" lon="3.55661">
        <ele>1022</ele>
        <time>2019-12-19T00:09:31Z</time>
      </trkpt>
      <trkpt lat="44.33489" lon="3.55688">
        <ele>1022</ele>
        <time>2019-12-19T00:09:35Z</time>
      </trkpt>
      <trkpt lat="44.33482" lon="3.55718">
        <ele>1022</ele>
        <time>2019-12-19T00:09:39Z</time>
      </trkpt>
      <trkpt lat="44.33478" lon="3.55752">
        <ele>1022</ele>
        <time>2019-12-19T00:09:43Z</time>
      </trkpt>
      <trkpt lat="44.33475" lon="3.55795">
        <ele>1021</ele>
        <time>2019-12-19T00:09:48Z</time>
      </trkpt>
      <trkpt lat="44.33476" lon="3.55853">
        <ele>1022</ele>
        <time>2019-12-19T00:09:56Z</time>
      </trkpt>
      <trkpt lat="44.33478" lon="3.55865">
        <ele>1023</ele>
        <time>2019-12-19T00:09:57Z</time>
      </trkpt>
      <trkpt lat="44.33527" lon="3.5599">
        <ele>1027</ele>
        <time>2019-12-19T00:10:16Z</time>
      </trkpt>
      <trkpt lat="44.33535" lon="3.56013">
        <ele>1027</ele>
        <time>2019-12-19T00:10:19Z</time>
      </trkpt>
      <trkpt lat="44.33564" lon="3.56138">
        <ele>1027</ele>
        <time>2019-12-19T00:10:35Z</time>
      </trkpt>
      <trkpt lat="44.33566" lon="3.56158">
        <ele>1026</ele>
        <time>2019-12-19T00:10:38Z</time>
      </trkpt>
      <trkpt lat="44.33567" lon="3.56188">
        <ele>1025</ele>
        <time>2019-12-19T00:10:42Z</time>
      </trkpt>
      <trkpt lat="44.33563" lon="3.56265">
        <ele>1022</ele>
        <time>2019-12-19T00:10:52Z</time>
      </trkpt>
      <trkpt lat="44.33565" lon="3.56292">
        <ele>1021</ele>
        <time>2019-12-19T00:10:55Z</time>
      </trkpt>
      <trkpt lat="44.33572" lon="3.56351">
        <ele>1016</ele>
        <time>2019-12-19T00:11:03Z</time>
      </trkpt>
      <trkpt lat="44.33576" lon="3.56395">
        <ele>1011</ele>
        <time>2019-12-19T00:11:08Z</time>
      </trkpt>
      <trkpt lat="44.33574" lon="3.56415">
        <ele>1010</ele>
        <time>2019-12-19T00:11:11Z</time>
      </trkpt>
      <trkpt lat="44.3357" lon="3.56428">
        <ele>1007</ele>
        <time>2019-12-19T00:11:13Z</time>
      </trkpt>
      <trkpt lat="44.33565" lon="3.56434">
        <ele>1007</ele>
        <time>2019-12-19T00:11:14Z</time>
      </trkpt>
      <trkpt lat="44.33556" lon="3.5644">
        <ele>1007</ele>
        <time>2019-12-19T00:11:16Z</time>
      </trkpt>
      <trkpt lat="44.33543" lon="3.56441">
        <ele>1010</ele>
        <time>2019-12-19T00:11:18Z</time>
      </trkpt>
      <trkpt lat="44.33535" lon="3.56444">
        <ele>1012</ele>
        <time>2019-12-19T00:11:20Z</time>
      </trkpt>
      <trkpt lat="44.33522" lon="3.56454">
        <ele>1012</ele>
        <time>2019-12-19T00:11:22Z</time>
      </trkpt>
      <trkpt lat="44.33513" lon="3.56463">
        <ele>1012</ele>
        <time>2019-12-19T00:11:24Z</time>
      </trkpt>
      <trkpt lat="44.33501" lon="3.56493">
        <ele>1007</ele>
        <time>2019-12-19T00:11:29Z</time>
      </trkpt>
      <trkpt lat="44.33495" lon="3.56503">
        <ele>1005</ele>
        <time>2019-12-19T00:11:30Z</time>
      </trkpt>
      <trkpt lat="44.33472" lon="3.56523">
        <ele>1001</ele>
        <time>2019-12-19T00:11:35Z</time>
      </trkpt>
      <trkpt lat="44.33443" lon="3.56554">
        <ele>994</ele>
        <time>2019-12-19T00:11:41Z</time>
      </trkpt>
      <trkpt lat="44.33434" lon="3.56561">
        <ele>993</ele>
        <time>2019-12-19T00:11:43Z</time>
      </trkpt>
      <trkpt lat="44.33423" lon="3.56567">
        <ele>993</ele>
        <time>2019-12-19T00:11:45Z</time>
      </trkpt>
      <trkpt lat="44.3339" lon="3.56575">
        <ele>997</ele>
        <time>2019-12-19T00:11:51Z</time>
      </trkpt>
      <trkpt lat="44.33378" lon="3.56579">
        <ele>998</ele>
        <time>2019-12-19T00:11:54Z</time>
      </trkpt>
      <trkpt lat="44.33368" lon="3.56585">
        <ele>998</ele>
        <time>2019-12-19T00:11:56Z</time>
      </trkpt>
      <trkpt lat="44.33347" lon="3.56611">
        <ele>992</ele>
        <time>2019-12-19T00:12:01Z</time>
      </trkpt>
      <trkpt lat="44.33313" lon="3.56636">
        <ele>993</ele>
        <time>2019-12-19T00:12:07Z</time>
      </trkpt>
      <trkpt lat="44.33284" lon="3.56669">
        <ele>993</ele>
        <time>2019-12-19T00:12:14Z</time>
      </trkpt>
      <trkpt lat="44.33264" lon="3.56706">
        <ele>989</ele>
        <time>2019-12-19T00:12:20Z</time>
      </trkpt>
      <trkpt lat="44.33247" lon="3.56768">
        <ele>978</ele>
        <time>2019-12-19T00:12:28Z</time>
      </trkpt>
      <trkpt lat="44.33235" lon="3.56797">
        <ele>975</ele>
        <time>2019-12-19T00:12:33Z</time>
      </trkpt>
      <trkpt lat="44.33218" lon="3.56831">
        <ele>971</ele>
        <time>2019-12-19T00:12:38Z</time>
      </trkpt>
      <trkpt lat="44.33198" lon="3.56855">
        <ele>969</ele>
        <time>2019-12-19T00:12:43Z</time>
      </trkpt>
      <trkpt lat="44.3318" lon="3.56872">
        <ele>969</ele>
        <time>2019-12-19T00:12:46Z</time>
      </trkpt>
      <trkpt lat="44.33178" lon="3.5688">
        <ele>967</ele>
        <time>2019-12-19T00:12:48Z</time>
      </trkpt>
      <trkpt lat="44.33179" lon="3.56885">
        <ele>965</ele>
        <time>2019-12-19T00:12:48Z</time>
      </trkpt>
      <trkpt lat="44.33229" lon="3.5685">
        <ele>961</ele>
        <time>2019-12-19T00:12:58Z</time>
      </trkpt>
      <trkpt lat="44.33241" lon="3.56839">
        <ele>961</ele>
        <time>2019-12-19T00:13:01Z</time>
      </trkpt>
      <trkpt lat="44.33269" lon="3.56807">
        <ele>956</ele>
        <time>2019-12-19T00:13:07Z</time>
      </trkpt>
      <trkpt lat="44.33275" lon="3.56808">
        <ele>953</ele>
        <time>2019-12-19T00:13:08Z</time>
      </trkpt>
      <trkpt lat="44.33276" lon="3.56812">
        <ele>951</ele>
        <time>2019-12-19T00:13:09Z</time>
      </trkpt>
      <trkpt lat="44.33276" lon="3.56817">
        <ele>950</ele>
        <time>2019-12-19T00:13:09Z</time>
      </trkpt>
      <trkpt lat="44.3323" lon="3.56883">
        <ele>950</ele>
        <time>2019-12-19T00:13:21Z</time>
      </trkpt>
      <trkpt lat="44.33177" lon="3.56948">
        <ele>943</ele>
        <time>2019-12-19T00:13:34Z</time>
      </trkpt>
      <trkpt lat="44.33139" lon="3.57001">
        <ele>940</ele>
        <time>2019-12-19T00:13:43Z</time>
      </trkpt>
      <trkpt lat="44.33128" lon="3.57022">
        <ele>940</ele>
        <time>2019-12-19T00:13:47Z</time>
      </trkpt>
      <trkpt lat="44.33115" lon="3.57065">
        <ele>937</ele>
        <time>2019-12-19T00:13:52Z</time>
      </trkpt>
      <trkpt lat="44.33111" lon="3.57085">
        <ele>935</ele>
        <time>2019-12-19T00:13:55Z</time>
      </trkpt>
      <trkpt lat="44.33105" lon="3.57131">
        <ele>930</ele>
        <time>2019-12-19T00:14:01Z</time>
      </trkpt>
      <trkpt lat="44.33099" lon="3.57161">
        <ele>927</ele>
        <time>2019-12-19T00:14:05Z</time>
      </trkpt>
      <trkpt lat="44.33093" lon="3.57181">
        <ele>926</ele>
        <time>2019-12-19T00:14:08Z</time>
      </trkpt>
      <trkpt lat="44.33085" lon="3.572">
        <ele>925</ele>
        <time>2019-12-19T00:14:11Z</time>
      </trkpt>
      <trkpt lat="44.33058" lon="3.57253">
        <ele>919</ele>
        <time>2019-12-19T00:14:19Z</time>
      </trkpt>
      <trkpt lat="44.33041" lon="3.57277">
        <ele>914</ele>
        <time>2019-12-19T00:14:23Z</time>
      </trkpt>
      <trkpt lat="44.33023" lon="3.57296">
        <ele>911</ele>
        <time>2019-12-19T00:14:27Z</time>
      </trkpt>
      <trkpt lat="44.32995" lon="3.57316">
        <ele>911</ele>
        <time>2019-12-19T00:14:33Z</time>
      </trkpt>
      <trkpt lat="44.32951" lon="3.57342">
        <ele>912</ele>
        <time>2019-12-19T00:14:41Z</time>
      </trkpt>
      <trkpt lat="44.32913" lon="3.57388">
        <ele>904</ele>
        <time>2019-12-19T00:14:50Z</time>
      </trkpt>
      <trkpt lat="44.32859" lon="3.57432">
        <ele>899</ele>
        <time>2019-12-19T00:15:01Z</time>
      </trkpt>
      <trkpt lat="44.32825" lon="3.5745">
        <ele>898</ele>
        <time>2019-12-19T00:15:08Z</time>
      </trkpt>
      <trkpt lat="44.32795" lon="3.5746">
        <ele>903</ele>
        <time>2019-12-19T00:15:13Z</time>
      </trkpt>
      <trkpt lat="44.32783" lon="3.57466">
        <ele>904</ele>
        <time>2019-12-19T00:15:16Z</time>
      </trkpt>
      <trkpt lat="44.32774" lon="3.57476">
        <ele>902</ele>
        <time>2019-12-19T00:15:18Z</time>
      </trkpt>
      <trkpt lat="44.32766" lon="3.57489">
        <ele>898</ele>
        <time>2019-12-19T00:15:20Z</time>
      </trkpt>
      <trkpt lat="44.32757" lon="3.57507">
        <ele>892</ele>
        <time>2019-12-19T00:15:23Z</time>
      </trkpt>
      <trkpt lat="44.32748" lon="3.5752">
        <ele>888</ele>
        <time>2019-12-19T00:15:25Z</time>
      </trkpt>
      <trkpt lat="44.32739" lon="3.5753">
        <ele>888</ele>
        <time>2019-12-19T00:15:27Z</time>
      </trkpt>
      <trkpt lat="44.32724" lon="3.57543">
        <ele>888</ele>
        <time>2019-12-19T00:15:30Z</time>
      </trkpt>
      <trkpt lat="44.32693" lon="3.57559">
        <ele>893</ele>
        <time>2019-12-19T00:15:36Z</time>
      </trkpt>
      <trkpt lat="44.32683" lon="3.57568">
        <ele>893</ele>
        <time>2019-12-19T00:15:38Z</time>
      </trkpt>
      <trkpt lat="44.32674" lon="3.5758">
        <ele>891</ele>
        <time>2019-12-19T00:15:40Z</time>
      </trkpt>
      <trkpt lat="44.32657" lon="3.57618">
        <ele>881</ele>
        <time>2019-12-19T00:15:46Z</time>
      </trkpt>
      <trkpt lat="44.32649" lon="3.57632">
        <ele>879</ele>
        <time>2019-12-19T00:15:48Z</time>
      </trkpt>
      <trkpt lat="44.32639" lon="3.57643">
        <ele>878</ele>
        <time>2019-12-19T00:15:51Z</time>
      </trkpt>
      <trkpt lat="44.32615" lon="3.57657">
        <ele>880</ele>
        <time>2019-12-19T00:15:55Z</time>
      </trkpt>
      <trkpt lat="44.32605" lon="3.57666">
        <ele>879</ele>
        <time>2019-12-19T00:15:57Z</time>
      </trkpt>
      <trkpt lat="44.32585" lon="3.57694">
        <ele>874</ele>
        <time>2019-12-19T00:16:02Z</time>
      </trkpt>
      <trkpt lat="44.32574" lon="3.57705">
        <ele>874</ele>
        <time>2019-12-19T00:16:05Z</time>
      </trkpt>
      <trkpt lat="44.32529" lon="3.57739">
        <ele>882</ele>
        <time>2019-12-19T00:16:14Z</time>
      </trkpt>
      <trkpt lat="44.32524" lon="3.57746">
        <ele>882</ele>
        <time>2019-12-19T00:16:15Z</time>
      </trkpt>
      <trkpt lat="44.32523" lon="3.57754">
        <ele>879</ele>
        <time>2019-12-19T00:16:16Z</time>
      </trkpt>
      <trkpt lat="44.32525" lon="3.57759">
        <ele>877</ele>
        <time>2019-12-19T00:16:17Z</time>
      </trkpt>
      <trkpt lat="44.3253" lon="3.5776">
        <ele>874</ele>
        <time>2019-12-19T00:16:18Z</time>
      </trkpt>
      <trkpt lat="44.32556" lon="3.57738">
        <ele>868</ele>
        <time>2019-12-19T00:16:23Z</time>
      </trkpt>
      <trkpt lat="44.32597" lon="3.57711">
        <ele>861</ele>
        <time>2019-12-19T00:16:31Z</time>
      </trkpt>
      <trkpt lat="44.32615" lon="3.57694">
        <ele>862</ele>
        <time>2019-12-19T00:16:35Z</time>
      </trkpt>
      <trkpt lat="44.32629" lon="3.57687">
        <ele>860</ele>
        <time>2019-12-19T00:16:38Z</time>
      </trkpt>
      <trkpt lat="44.32656" lon="3.57686">
        <ele>851</ele>
        <time>2019-12-19T00:16:43Z</time>
      </trkpt>
      <trkpt lat="44.32665" lon="3.57684">
        <ele>849</ele>
        <time>2019-12-19T00:16:44Z</time>
      </trkpt>
      <trkpt lat="44.32676" lon="3.57677">
        <ele>848</ele>
        <time>2019-12-19T00:16:46Z</time>
      </trkpt>
      <trkpt lat="44.32685" lon="3.57667">
        <ele>849</ele>
        <time>2019-12-19T00:16:48Z</time>
      </trkpt>
      <trkpt lat="44.32707" lon="3.57636">
        <ele>853</ele>
        <time>2019-12-19T00:16:54Z</time>
      </trkpt>
      <trkpt lat="44.32716" lon="3.57626">
        <ele>854</ele>
        <time>2019-12-19T00:16:56Z</time>
      </trkpt>
      <trkpt lat="44.32727" lon="3.5762">
        <ele>852</ele>
        <time>2019-12-19T00:16:58Z</time>
      </trkpt>
      <trkpt lat="44.32741" lon="3.57619">
        <ele>847</ele>
        <time>2019-12-19T00:17:01Z</time>
      </trkpt>
      <trkpt lat="44.32768" lon="3.57622">
        <ele>837</ele>
        <time>2019-12-19T00:17:05Z</time>
      </trkpt>
      <trkpt lat="44.32778" lon="3.57617">
        <ele>837</ele>
        <time>2019-12-19T00:17:07Z</time>
      </trkpt>
      <trkpt lat="44.32792" lon="3.57605">
        <ele>838</ele>
        <time>2019-12-19T00:17:10Z</time>
      </trkpt>
      <trkpt lat="44.32806" lon="3.57588">
        <ele>841</ele>
        <time>2019-12-19T00:17:13Z</time>
      </trkpt>
      <trkpt lat="44.32819" lon="3.57578">
        <ele>842</ele>
        <time>2019-12-19T00:17:16Z</time>
      </trkpt>
      <trkpt lat="44.32834" lon="3.57572">
        <ele>841</ele>
        <time>2019-12-19T00:17:19Z</time>
      </trkpt>
      <trkpt lat="44.32878" lon="3.57567">
        <ele>834</ele>
        <time>2019-12-19T00:17:27Z</time>
      </trkpt>
      <trkpt lat="44.32924" lon="3.57553">
        <ele>830</ele>
        <time>2019-12-19T00:17:35Z</time>
      </trkpt>
      <trkpt lat="44.33026" lon="3.5752">
        <ele>819</ele>
        <time>2019-12-19T00:17:54Z</time>
      </trkpt>
      <trkpt lat="44.3305" lon="3.57504">
        <ele>817</ele>
        <time>2019-12-19T00:17:58Z</time>
      </trkpt>
      <trkpt lat="44.33056" lon="3.57503">
        <ele>815</ele>
        <time>2019-12-19T00:18:00Z</time>
      </trkpt>
      <trkpt lat="44.33059" lon="3.57508">
        <ele>812</ele>
        <time>2019-12-19T00:18:00Z</time>
      </trkpt>
      <trkpt lat="44.33059" lon="3.57515">
        <ele>810</ele>
        <time>2019-12-19T00:18:01Z</time>
      </trkpt>
      <trkpt lat="44.33053" lon="3.57521">
        <ele>809</ele>
        <time>2019-12-19T00:18:03Z</time>
      </trkpt>
      <trkpt lat="44.33044" lon="3.57525">
        <ele>811</ele>
        <time>2019-12-19T00:18:04Z</time>
      </trkpt>
      <trkpt lat="44.33004" lon="3.57551">
        <ele>812</ele>
        <time>2019-12-19T00:18:12Z</time>
      </trkpt>
      <trkpt lat="44.32866" lon="3.5765">
        <ele>801</ele>
        <time>2019-12-19T00:18:40Z</time>
      </trkpt>
      <trkpt lat="44.32851" lon="3.57664">
        <ele>799</ele>
        <time>2019-12-19T00:18:43Z</time>
      </trkpt>
      <trkpt lat="44.3283" lon="3.57691">
        <ele>794</ele>
        <time>2019-12-19T00:18:48Z</time>
      </trkpt>
      <trkpt lat="44.32806" lon="3.57715">
        <ele>791</ele>
        <time>2019-12-19T00:18:53Z</time>
      </trkpt>
      <trkpt lat="44.32794" lon="3.57726">
        <ele>790</ele>
        <time>2019-12-19T00:18:56Z</time>
      </trkpt>
      <trkpt lat="44.32783" lon="3.57732">
        <ele>791</ele>
        <time>2019-12-19T00:18:58Z</time>
      </trkpt>
      <trkpt lat="44.32775" lon="3.57739">
        <ele>790</ele>
        <time>2019-12-19T00:19:00Z</time>
      </trkpt>
      <trkpt lat="44.3274" lon="3.57792">
        <ele>781</ele>
        <time>2019-12-19T00:19:09Z</time>
      </trkpt>
      <trkpt lat="44.32729" lon="3.57806">
        <ele>779</ele>
        <time>2019-12-19T00:19:11Z</time>
      </trkpt>
      <trkpt lat="44.32715" lon="3.57816">
        <ele>779</ele>
        <time>2019-12-19T00:19:14Z</time>
      </trkpt>
      <trkpt lat="44.32699" lon="3.57824">
        <ele>781</ele>
        <time>2019-12-19T00:19:17Z</time>
      </trkpt>
      <trkpt lat="44.32688" lon="3.57832">
        <ele>781</ele>
        <time>2019-12-19T00:19:19Z</time>
      </trkpt>
      <trkpt lat="44.32639" lon="3.57889">
        <ele>778</ele>
        <time>2019-12-19T00:19:31Z</time>
      </trkpt>
      <trkpt lat="44.32633" lon="3.57899">
        <ele>777</ele>
        <time>2019-12-19T00:19:32Z</time>
      </trkpt>
      <trkpt lat="44.3263" lon="3.57913">
        <ele>774</ele>
        <time>2019-12-19T00:19:34Z</time>
      </trkpt>
      <trkpt lat="44.32629" lon="3.57928">
        <ele>769</ele>
        <time>2019-12-19T00:19:36Z</time>
      </trkpt>
      <trkpt lat="44.32624" lon="3.57948">
        <ele>765</ele>
        <time>2019-12-19T00:19:39Z</time>
      </trkpt>
      <trkpt lat="44.32609" lon="3.57982">
        <ele>761</ele>
        <time>2019-12-19T00:19:44Z</time>
      </trkpt>
      <trkpt lat="44.32582" lon="3.5802">
        <ele>761</ele>
        <time>2019-12-19T00:19:51Z</time>
      </trkpt>
      <trkpt lat="44.32559" lon="3.58043">
        <ele>762</ele>
        <time>2019-12-19T00:19:56Z</time>
      </trkpt>
      <trkpt lat="44.32548" lon="3.58059">
        <ele>761</ele>
        <time>2019-12-19T00:19:59Z</time>
      </trkpt>
      <trkpt lat="44.32527" lon="3.58095">
        <ele>756</ele>
        <time>2019-12-19T00:20:05Z</time>
      </trkpt>
      <trkpt lat="44.32518" lon="3.58107">
        <ele>754</ele>
        <time>2019-12-19T00:20:07Z</time>
      </trkpt>
      <trkpt lat="44.32491" lon="3.58131">
        <ele>753</ele>
        <time>2019-12-19T00:20:12Z</time>
      </trkpt>
      <trkpt lat="44.32478" lon="3.58149">
        <ele>750</ele>
        <time>2019-12-19T00:20:16Z</time>
      </trkpt>
      <trkpt lat="44.3247" lon="3.58165">
        <ele>747</ele>
        <time>2019-12-19T00:20:18Z</time>
      </trkpt>
      <trkpt lat="44.32455" lon="3.58203">
        <ele>740</ele>
        <time>2019-12-19T00:20:24Z</time>
      </trkpt>
      <trkpt lat="44.32448" lon="3.58216">
        <ele>738</ele>
        <time>2019-12-19T00:20:26Z</time>
      </trkpt>
      <trkpt lat="44.3244" lon="3.58225">
        <ele>737</ele>
        <time>2019-12-19T00:20:28Z</time>
      </trkpt>
      <trkpt lat="44.32428" lon="3.58233">
        <ele>737</ele>
        <time>2019-12-19T00:20:30Z</time>
      </trkpt>
      <trkpt lat="44.32354" lon="3.58254">
        <ele>742</ele>
        <time>2019-12-19T00:20:43Z</time>
      </trkpt>
      <trkpt lat="44.32349" lon="3.58257">
        <ele>742</ele>
        <time>2019-12-19T00:20:44Z</time>
      </trkpt>
      <trkpt lat="44.32335" lon="3.58267">
        <ele>741</ele>
        <time>2019-12-19T00:20:47Z</time>
      </trkpt>
      <trkpt lat="44.32322" lon="3.58286">
        <ele>741</ele>
        <time>2019-12-19T00:20:51Z</time>
      </trkpt>
      <trkpt lat="44.32314" lon="3.58306">
        <ele>740</ele>
        <time>2019-12-19T00:20:53Z</time>
      </trkpt>
      <trkpt lat="44.3231" lon="3.58323">
        <ele>737</ele>
        <time>2019-12-19T00:20:56Z</time>
      </trkpt>
      <trkpt lat="44.32304" lon="3.58359">
        <ele>731</ele>
        <time>2019-12-19T00:21:00Z</time>
      </trkpt>
      <trkpt lat="44.32303" lon="3.58397">
        <ele>723</ele>
        <time>2019-12-19T00:21:05Z</time>
      </trkpt>
      <trkpt lat="44.32308" lon="3.5843">
        <ele>714</ele>
        <time>2019-12-19T00:21:10Z</time>
      </trkpt>
      <trkpt lat="44.32307" lon="3.5844">
        <ele>713</ele>
        <time>2019-12-19T00:21:11Z</time>
      </trkpt>
      <trkpt lat="44.32302" lon="3.58459">
        <ele>710</ele>
        <time>2019-12-19T00:21:13Z</time>
      </trkpt>
      <trkpt lat="44.32258" lon="3.5852">
        <ele>712</ele>
        <time>2019-12-19T00:21:24Z</time>
      </trkpt>
      <trkpt lat="44.32253" lon="3.58533">
        <ele>712</ele>
        <time>2019-12-19T00:21:26Z</time>
      </trkpt>
      <trkpt lat="44.32251" lon="3.58545">
        <ele>711</ele>
        <time>2019-12-19T00:21:28Z</time>
      </trkpt>
      <trkpt lat="44.32256" lon="3.58579">
        <ele>706</ele>
        <time>2019-12-19T00:21:32Z</time>
      </trkpt>
      <trkpt lat="44.32256" lon="3.58595">
        <ele>704</ele>
        <time>2019-12-19T00:21:34Z</time>
      </trkpt>
      <trkpt lat="44.32254" lon="3.58612">
        <ele>703</ele>
        <time>2019-12-19T00:21:37Z</time>
      </trkpt>
      <trkpt lat="44.32255" lon="3.58647">
        <ele>699</ele>
        <time>2019-12-19T00:21:41Z</time>
      </trkpt>
      <trkpt lat="44.32255" lon="3.58662">
        <ele>697</ele>
        <time>2019-12-19T00:21:43Z</time>
      </trkpt>
      <trkpt lat="44.3225" lon="3.58678">
        <ele>696</ele>
        <time>2019-12-19T00:21:45Z</time>
      </trkpt>
      <trkpt lat="44.32227" lon="3.58723">
        <ele>689</ele>
        <time>2019-12-19T00:21:52Z</time>
      </trkpt>
      <trkpt lat="44.3222" lon="3.58733">
        <ele>688</ele>
        <time>2019-12-19T00:21:54Z</time>
      </trkpt>
      <trkpt lat="44.32213" lon="3.58739">
        <ele>688</ele>
        <time>2019-12-19T00:21:55Z</time>
      </trkpt>
      <trkpt lat="44.32163" lon="3.58768">
        <ele>691</ele>
        <time>2019-12-19T00:22:05Z</time>
      </trkpt>
      <trkpt lat="44.32156" lon="3.58774">
        <ele>691</ele>
        <time>2019-12-19T00:22:07Z</time>
      </trkpt>
      <trkpt lat="44.32142" lon="3.58793">
        <ele>687</ele>
        <time>2019-12-19T00:22:10Z</time>
      </trkpt>
      <trkpt lat="44.32109" lon="3.58849">
        <ele>679</ele>
        <time>2019-12-19T00:22:19Z</time>
      </trkpt>
      <trkpt lat="44.32101" lon="3.58857">
        <ele>679</ele>
        <time>2019-12-19T00:22:21Z</time>
      </trkpt>
      <trkpt lat="44.32072" lon="3.5888">
        <ele>684</ele>
        <time>2019-12-19T00:22:27Z</time>
      </trkpt>
      <trkpt lat="44.32051" lon="3.58917">
        <ele>684</ele>
        <time>2019-12-19T00:22:33Z</time>
      </trkpt>
      <trkpt lat="44.3205" lon="3.58925">
        <ele>683</ele>
        <time>2019-12-19T00:22:34Z</time>
      </trkpt>
      <trkpt lat="44.32052" lon="3.5893">
        <ele>681</ele>
        <time>2019-12-19T00:22:35Z</time>
      </trkpt>
      <trkpt lat="44.32056" lon="3.5893">
        <ele>679</ele>
        <time>2019-12-19T00:22:35Z</time>
      </trkpt>
      <trkpt lat="44.3207" lon="3.58905">
        <ele>679</ele>
        <time>2019-12-19T00:22:39Z</time>
      </trkpt>
      <trkpt lat="44.32076" lon="3.58898">
        <ele>678</ele>
        <time>2019-12-19T00:22:41Z</time>
      </trkpt>
      <trkpt lat="44.32092" lon="3.58888">
        <ele>674</ele>
        <time>2019-12-19T00:22:44Z</time>
      </trkpt>
      <trkpt lat="44.32125" lon="3.58877">
        <ele>666</ele>
        <time>2019-12-19T00:22:50Z</time>
      </trkpt>
      <trkpt lat="44.32172" lon="3.58836">
        <ele>663</ele>
        <time>2019-12-19T00:23:00Z</time>
      </trkpt>
      <trkpt lat="44.3219" lon="3.58825">
        <ele>664</ele>
        <time>2019-12-19T00:23:03Z</time>
      </trkpt>
      <trkpt lat="44.3221" lon="3.58822">
        <ele>661</ele>
        <time>2019-12-19T00:23:07Z</time>
      </trkpt>
      <trkpt lat="44.32225" lon="3.58822">
        <ele>658</ele>
        <time>2019-12-19T00:23:10Z</time>
      </trkpt>
      <trkpt lat="44.32244" lon="3.58828">
        <ele>652</ele>
        <time>2019-12-19T00:23:13Z</time>
      </trkpt>
      <trkpt lat="44.32281" lon="3.5885">
        <ele>641</ele>
        <time>2019-12-19T00:23:20Z</time>
      </trkpt>
      <trkpt lat="44.32286" lon="3.58851">
        <ele>640</ele>
        <time>2019-12-19T00:23:21Z</time>
      </trkpt>
      <trkpt lat="44.32296" lon="3.5885">
        <ele>640</ele>
        <time>2019-12-19T00:23:23Z</time>
      </trkpt>
      <trkpt lat="44.32307" lon="3.58845">
        <ele>640</ele>
        <time>2019-12-19T00:23:25Z</time>
      </trkpt>
      <trkpt lat="44.32322" lon="3.58836">
        <ele>641</ele>
        <time>2019-12-19T00:23:28Z</time>
      </trkpt>
      <trkpt lat="44.32332" lon="3.58824">
        <ele>641</ele>
        <time>2019-12-19T00:23:30Z</time>
      </trkpt>
      <trkpt lat="44.32359" lon="3.58784">
        <ele>635</ele>
        <time>2019-12-19T00:23:37Z</time>
      </trkpt>
      <trkpt lat="44.32363" lon="3.58774">
        <ele>634</ele>
        <time>2019-12-19T00:23:39Z</time>
      </trkpt>
      <trkpt lat="44.32366" lon="3.5875">
        <ele>634</ele>
        <time>2019-12-19T00:23:42Z</time>
      </trkpt>
      <trkpt lat="44.32367" lon="3.58732">
        <ele>637</ele>
        <time>2019-12-19T00:23:44Z</time>
      </trkpt>
      <trkpt lat="44.32372" lon="3.58702">
        <ele>641</ele>
        <time>2019-12-19T00:23:48Z</time>
      </trkpt>
      <trkpt lat="44.32377" lon="3.58687">
        <ele>642</ele>
        <time>2019-12-19T00:23:50Z</time>
      </trkpt>
      <trkpt lat="44.32381" lon="3.58678">
        <ele>642</ele>
        <time>2019-12-19T00:23:51Z</time>
      </trkpt>
      <trkpt lat="44.32387" lon="3.58672">
        <ele>641</ele>
        <time>2019-12-19T00:23:53Z</time>
      </trkpt>
      <trkpt lat="44.32394" lon="3.58667">
        <ele>639</ele>
        <time>2019-12-19T00:23:54Z</time>
      </trkpt>
      <trkpt lat="44.32427" lon="3.58659">
        <ele>628</ele>
        <time>2019-12-19T00:24:00Z</time>
      </trkpt>
      <trkpt lat="44.32444" lon="3.5865">
        <ele>626</ele>
        <time>2019-12-19T00:24:03Z</time>
      </trkpt>
      <trkpt lat="44.32452" lon="3.58642">
        <ele>626</ele>
        <time>2019-12-19T00:24:05Z</time>
      </trkpt>
      <trkpt lat="44.32463" lon="3.58625">
        <ele>628</ele>
        <time>2019-12-19T00:24:08Z</time>
      </trkpt>
      <trkpt lat="44.32468" lon="3.58621">
        <ele>627</ele>
        <time>2019-12-19T00:24:09Z</time>
      </trkpt>
      <trkpt lat="44.32472" lon="3.58622">
        <ele>626</ele>
        <time>2019-12-19T00:24:10Z</time>
      </trkpt>
      <trkpt lat="44.32475" lon="3.58627">
        <ele>624</ele>
        <time>2019-12-19T00:24:11Z</time>
      </trkpt>
      <trkpt lat="44.32475" lon="3.58636">
        <ele>622</ele>
        <time>2019-12-19T00:24:12Z</time>
      </trkpt>
      <trkpt lat="44.32473" lon="3.58642">
        <ele>621</ele>
        <time>2019-12-19T00:24:13Z</time>
      </trkpt>
      <trkpt lat="44.32459" lon="3.58668">
        <ele>618</ele>
        <time>2019-12-19T00:24:17Z</time>
      </trkpt>
      <trkpt lat="44.32442" lon="3.58691">
        <ele>618</ele>
        <time>2019-12-19T00:24:21Z</time>
      </trkpt>
      <trkpt lat="44.32416" lon="3.5872">
        <ele>618</ele>
        <time>2019-12-19T00:24:27Z</time>
      </trkpt>
      <trkpt lat="44.32409" lon="3.5873">
        <ele>619</ele>
        <time>2019-12-19T00:24:29Z</time>
      </trkpt>
      <trkpt lat="44.32408" lon="3.58741">
        <ele>618</ele>
        <time>2019-12-19T00:24:30Z</time>
      </trkpt>
      <trkpt lat="44.32422" lon="3.58782">
        <ele>611</ele>
        <time>2019-12-19T00:24:36Z</time>
      </trkpt>
      <trkpt lat="44.32436" lon="3.58831">
        <ele>607</ele>
        <time>2019-12-19T00:24:43Z</time>
      </trkpt>
      <trkpt lat="44.32438" lon="3.58853">
        <ele>604</ele>
        <time>2019-12-19T00:24:45Z</time>
      </trkpt>
      <trkpt lat="44.32442" lon="3.58905">
        <ele>597</ele>
        <time>2019-12-19T00:24:52Z</time>
      </trkpt>
      <trkpt lat="44.3244" lon="3.58918">
        <ele>596</ele>
        <time>2019-12-19T00:24:54Z</time>
      </trkpt>
      <trkpt lat="44.32434" lon="3.58935">
        <ele>595</ele>
        <time>2019-12-19T00:24:56Z</time>
      </trkpt>
      <trkpt lat="44.32403" lon="3.58978">
        <ele>595</ele>
        <time>2019-12-19T00:25:04Z</time>
      </trkpt>
      <trkpt lat="44.32397" lon="3.58993">
        <ele>593</ele>
        <time>2019-12-19T00:25:06Z</time>
      </trkpt>
      <trkpt lat="44.32396" lon="3.5905">
        <ele>586</ele>
        <time>2019-12-19T00:25:13Z</time>
      </trkpt>
      <trkpt lat="44.32391" lon="3.59073">
        <ele>583</ele>
        <time>2019-12-19T00:25:16Z</time>
      </trkpt>
      <trkpt lat="44.32376" lon="3.59111">
        <ele>578</ele>
        <time>2019-12-19T00:25:22Z</time>
      </trkpt>
      <trkpt lat="44.32378" lon="3.59117">
        <ele>577</ele>
        <time>2019-12-19T00:25:23Z</time>
      </trkpt>
      <trkpt lat="44.32386" lon="3.59125">
        <ele>576</ele>
        <time>2019-12-19T00:25:25Z</time>
      </trkpt>
      <trkpt lat="44.32407" lon="3.59125">
        <ele>576</ele>
        <time>2019-12-19T00:25:28Z</time>
      </trkpt>
      <trkpt lat="44.32419" lon="3.59111">
        <ele>577</ele>
        <time>2019-12-19T00:25:31Z</time>
      </trkpt>
      <trkpt lat="44.32437" lon="3.59083">
        <ele>578</ele>
        <time>2019-12-19T00:25:36Z</time>
      </trkpt>
      <trkpt lat="44.3244" lon="3.59097">
        <ele>576</ele>
        <time>2019-12-19T00:25:38Z</time>
      </trkpt>
      <trkpt lat="44.32441" lon="3.59163">
        <ele>569</ele>
        <time>2019-12-19T00:25:46Z</time>
      </trkpt>
      <trkpt lat="44.32438" lon="3.59189">
        <ele>567</ele>
        <time>2019-12-19T00:25:49Z</time>
      </trkpt>
      <trkpt lat="44.32427" lon="3.59203">
        <ele>566</ele>
        <time>2019-12-19T00:25:52Z</time>
      </trkpt>
      <trkpt lat="44.32446" lon="3.59214">
        <ele>564</ele>
        <time>2019-12-19T00:25:56Z</time>
      </trkpt>
      <trkpt lat="44.32471" lon="3.59224">
        <ele>561</ele>
        <time>2019-12-19T00:26:00Z</time>
      </trkpt>
      <trkpt lat="44.3251" lon="3.59235">
        <ele>557</ele>
        <time>2019-12-19T00:26:07Z</time>
      </trkpt>
      <trkpt lat="44.32549" lon="3.59254">
        <ele>554</ele>
        <time>2019-12-19T00:26:15Z</time>
      </trkpt>
      <trkpt lat="44.326" lon="3.5923">
        <ele>553</ele>
        <time>2019-12-19T00:26:24Z</time>
      </trkpt>
      <trkpt lat="44.32617" lon="3.59225">
        <ele>553</ele>
        <time>2019-12-19T00:26:27Z</time>
      </trkpt>
      <trkpt lat="44.32639" lon="3.59226">
        <ele>552</ele>
        <time>2019-12-19T00:26:31Z</time>
      </trkpt>
      <trkpt lat="44.3266" lon="3.59232">
        <ele>551</ele>
        <time>2019-12-19T00:26:35Z</time>
      </trkpt>
      <trkpt lat="44.32698" lon="3.59228">
        <ele>549</ele>
        <time>2019-12-19T00:26:42Z</time>
      </trkpt>
      <trkpt lat="44.32716" lon="3.59223">
        <ele>548</ele>
        <time>2019-12-19T00:26:45Z</time>
      </trkpt>
      <trkpt lat="44.32747" lon="3.59193">
        <ele>548</ele>
        <time>2019-12-19T00:26:52Z</time>
      </trkpt>
      <trkpt lat="44.32765" lon="3.59171">
        <ele>548</ele>
        <time>2019-12-19T00:26:56Z</time>
      </trkpt>
      <trkpt lat="44.32786" lon="3.59154">
        <ele>547</ele>
        <time>2019-12-19T00:27:01Z</time>
      </trkpt>
      <trkpt lat="44.32819" lon="3.59135">
        <ele>546</ele>
        <time>2019-12-19T00:27:07Z</time>
      </trkpt>
      <trkpt lat="44.32846" lon="3.59125">
        <ele>545</ele>
        <time>2019-12-19T00:27:12Z</time>
      </trkpt>
      <trkpt lat="44.32857" lon="3.59132">
        <ele>545</ele>
        <time>2019-12-19T00:27:14Z</time>
      </trkpt>
      <trkpt lat="44.32871" lon="3.59146">
        <ele>545</ele>
        <time>2019-12-19T00:27:17Z</time>
      </trkpt>
      <trkpt lat="44.32872" lon="3.5916">
        <ele>545</ele>
        <time>2019-12-19T00:27:19Z</time>
      </trkpt>
      <trkpt lat="44.3287" lon="3.59169">
        <ele>545</ele>
        <time>2019-12-19T00:27:20Z</time>
      </trkpt>
      <trkpt lat="44.32872" lon="3.59177">
        <ele>545</ele>
        <time>2019-12-19T00:27:21Z</time>
      </trkpt>
      <trkpt lat="44.32878" lon="3.59183">
        <ele>545</ele>
        <time>2019-12-19T00:27:22Z</time>
      </trkpt>
      <trkpt lat="44.32886" lon="3.59181">
        <ele>544</ele>
        <time>2019-12-19T00:27:24Z</time>
      </trkpt>
      <trkpt lat="44.32889" lon="3.59175">
        <ele>544</ele>
        <time>2019-12-19T00:27:25Z</time>
      </trkpt>
      <trkpt lat="44.32901" lon="3.59166">
        <ele>544</ele>
        <time>2019-12-19T00:27:27Z</time>
      </trkpt>
      <trkpt lat="44.32914" lon="3.59159">
        <ele>544</ele>
        <time>2019-12-19T00:27:30Z</time>
      </trkpt>
      <trkpt lat="44.33038" lon="3.59061">
        <ele>543</ele>
        <time>2019-12-19T00:27:55Z</time>
      </trkpt>
      <trkpt lat="44.33062" lon="3.59048">
        <ele>543</ele>
        <time>2019-12-19T00:28:00Z</time>
      </trkpt>
      <trkpt lat="44.3307" lon="3.59046">
        <ele>542</ele>
        <time>2019-12-19T00:28:01Z</time>
      </trkpt>
      <trkpt lat="44.33085" lon="3.59047">
        <ele>542</ele>
        <time>2019-12-19T00:28:04Z</time>
      </trkpt>
      <trkpt lat="44.331" lon="3.59052">
        <ele>543</ele>
        <time>2019-12-19T00:28:07Z</time>
      </trkpt>
      <trkpt lat="44.33112" lon="3.59062">
        <ele>544</ele>
        <time>2019-12-19T00:28:09Z</time>
      </trkpt>
      <trkpt lat="44.33138" lon="3.591">
        <ele>550</ele>
        <time>2019-12-19T00:28:16Z</time>
      </trkpt>
      <trkpt lat="44.33148" lon="3.59125">
        <ele>557</ele>
        <time>2019-12-19T00:28:19Z</time>
      </trkpt>
      <trkpt lat="44.33151" lon="3.59128">
        <ele>559</ele>
        <time>2019-12-19T00:28:20Z</time>
      </trkpt>
      <trkpt lat="44.33156" lon="3.59126">
        <ele>559</ele>
        <time>2019-12-19T00:28:21Z</time>
      </trkpt>
      <trkpt lat="44.33177" lon="3.59096">
        <ele>558</ele>
        <time>2019-12-19T00:28:26Z</time>
      </trkpt>
      <trkpt lat="44.33217" lon="3.58997">
        <ele>556</ele>
        <time>2019-12-19T00:28:41Z</time>
      </trkpt>
      <trkpt lat="44.33283" lon="3.58822">
        <ele>558</ele>
        <time>2019-12-19T00:29:06Z</time>
      </trkpt>
      <trkpt lat="44.33309" lon="3.58766">
        <ele>555</ele>
        <time>2019-12-19T00:29:14Z</time>
      </trkpt>
      <trkpt lat="44.33339" lon="3.58718">
        <ele>553</ele>
        <time>2019-12-19T00:29:23Z</time>
      </trkpt>
      <trkpt lat="44.33377" lon="3.58674">
        <ele>553</ele>
        <time>2019-12-19T00:29:31Z</time>
      </trkpt>
      <trkpt lat="44.33416" lon="3.58644">
        <ele>553</ele>
        <time>2019-12-19T00:29:39Z</time>
      </trkpt>
      <trkpt lat="44.33449" lon="3.58628">
        <ele>552</ele>
        <time>2019-12-19T00:29:45Z</time>
      </trkpt>
      <trkpt lat="44.33488" lon="3.58616">
        <ele>552</ele>
        <time>2019-12-19T00:29:53Z</time>
      </trkpt>
      <trkpt lat="44.33523" lon="3.58613">
        <ele>551</ele>
        <time>2019-12-19T00:29:59Z</time>
      </trkpt>
      <trkpt lat="44.33537" lon="3.58613">
        <ele>550</ele>
        <time>2019-12-19T00:30:01Z</time>
      </trkpt>
      <trkpt lat="44.33585" lon="3.58625">
        <ele>547</ele>
        <time>2019-12-19T00:30:10Z</time>
      </trkpt>
      <trkpt lat="44.33594" lon="3.58654">
        <ele>550</ele>
        <time>2019-12-19T00:30:14Z</time>
      </trkpt>
      <trkpt lat="44.33595" lon="3.58731">
        <ele>553</ele>
        <time>2019-12-19T00:30:24Z</time>
      </trkpt>
      <trkpt lat="44.33557" lon="3.5894">
        <ele>559</ele>
        <time>2019-12-19T00:30:51Z</time>
      </trkpt>
      <trkpt lat="44.33555" lon="3.58975">
        <ele>559</ele>
        <time>2019-12-19T00:30:56Z</time>
      </trkpt>
      <trkpt lat="44.33572" lon="3.59208">
        <ele>561</ele>
        <time>2019-12-19T00:31:25Z</time>
      </trkpt>
      <trkpt lat="44.33575" lon="3.59236">
        <ele>562</ele>
        <time>2019-12-19T00:31:29Z</time>
      </trkpt>
      <trkpt lat="44.33609" lon="3.59348">
        <ele>570</ele>
        <time>2019-12-19T00:31:45Z</time>
      </trkpt>
      <trkpt lat="44.33628" lon="3.59384">
        <ele>569</ele>
        <time>2019-12-19T00:31:50Z</time>
      </trkpt>
      <trkpt lat="44.33665" lon="3.59559">
        <ele>576</ele>
        <time>2019-12-19T00:32:14Z</time>
      </trkpt>
      <trkpt lat="44.33677" lon="3.59586">
        <ele>575</ele>
        <time>2019-12-19T00:32:18Z</time>
      </trkpt>
      <trkpt lat="44.33694" lon="3.59611">
        <ele>579</ele>
        <time>2019-12-19T00:32:22Z</time>
      </trkpt>
      <trkpt lat="44.33765" lon="3.59677">
        <ele>581</ele>
        <time>2019-12-19T00:32:37Z</time>
      </trkpt>
      <trkpt lat="44.33783" lon="3.59684">
        <ele>581</ele>
        <time>2019-12-19T00:32:40Z</time>
      </trkpt>
      <trkpt lat="44.33903" lon="3.59698">
        <ele>579</ele>
        <time>2019-12-19T00:33:02Z</time>
      </trkpt>
      <trkpt lat="44.3399" lon="3.59702">
        <ele>585</ele>
        <time>2019-12-19T00:33:17Z</time>
      </trkpt>
      <trkpt lat="44.34095" lon="3.59681">
        <ele>589</ele>
        <time>2019-12-19T00:33:36Z</time>
      </trkpt>
      <trkpt lat="44.342" lon="3.59619">
        <ele>592</ele>
        <time>2019-12-19T00:33:57Z</time>
      </trkpt>
      <trkpt lat="44.34268" lon="3.59566">
        <ele>589</ele>
        <time>2019-12-19T00:34:10Z</time>
      </trkpt>
      <trkpt lat="44.34284" lon="3.59558">
        <ele>588</ele>
        <time>2019-12-19T00:34:13Z</time>
      </trkpt>
      <trkpt lat="44.34301" lon="3.59562">
        <ele>588</ele>
        <time>2019-12-19T00:34:16Z</time>
      </trkpt>
      <trkpt lat="44.34316" lon="3.59576">
        <ele>590</ele>
        <time>2019-12-19T00:34:20Z</time>
      </trkpt>
      <trkpt lat="44.34324" lon="3.59598">
        <ele>592</ele>
        <time>2019-12-19T00:34:23Z</time>
      </trkpt>
      <trkpt lat="44.3435" lon="3.59791">
        <ele>595</ele>
        <time>2019-12-19T00:34:48Z</time>
      </trkpt>
      <trkpt lat="44.3436" lon="3.59893">
        <ele>591</ele>
        <time>2019-12-19T00:35:01Z</time>
      </trkpt>
      <trkpt lat="44.34375" lon="3.59939">
        <ele>583</ele>
        <time>2019-12-19T00:35:07Z</time>
      </trkpt>
      <trkpt lat="44.34371" lon="3.6005">
        <ele>577</ele>
        <time>2019-12-19T00:35:21Z</time>
      </trkpt>
      <trkpt lat="44.34363" lon="3.60077">
        <ele>577</ele>
        <time>2019-12-19T00:35:25Z</time>
      </trkpt>
      <trkpt lat="44.34344" lon="3.60111">
        <ele>579</ele>
        <time>2019-12-19T00:35:31Z</time>
      </trkpt>
      <trkpt lat="44.34336" lon="3.60132">
        <ele>579</ele>
        <time>2019-12-19T00:35:34Z</time>
      </trkpt>
      <trkpt lat="44.34323" lon="3.60216">
        <ele>571</ele>
        <time>2019-12-19T00:35:45Z</time>
      </trkpt>
      <trkpt lat="44.34321" lon="3.60241">
        <ele>569</ele>
        <time>2019-12-19T00:35:48Z</time>
      </trkpt>
      <trkpt lat="44.34323" lon="3.60276">
        <ele>567</ele>
        <time>2019-12-19T00:35:52Z</time>
      </trkpt>
      <trkpt lat="44.34368" lon="3.60464">
        <ele>565</ele>
        <time>2019-12-19T00:36:18Z</time>
      </trkpt>
      <trkpt lat="44.34374" lon="3.60485">
        <ele>566</ele>
        <time>2019-12-19T00:36:20Z</time>
      </trkpt>
      <trkpt lat="44.34405" lon="3.60548">
        <ele>568</ele>
        <time>2019-12-19T00:36:30Z</time>
      </trkpt>
      <trkpt lat="44.34421" lon="3.60585">
        <ele>569</ele>
        <time>2019-12-19T00:36:36Z</time>
      </trkpt>
      <trkpt lat="44.34425" lon="3.6061">
        <ele>569</ele>
        <time>2019-12-19T00:36:39Z</time>
      </trkpt>
      <trkpt lat="44.34426" lon="3.60664">
        <ele>571</ele>
        <time>2019-12-19T00:36:46Z</time>
      </trkpt>
      <trkpt lat="44.34428" lon="3.60682">
        <ele>571</ele>
        <time>2019-12-19T00:36:48Z</time>
      </trkpt>
      <trkpt lat="44.34456" lon="3.60824">
        <ele>570</ele>
        <time>2019-12-19T00:37:07Z</time>
      </trkpt>
      <trkpt lat="44.34453" lon="3.60843">
        <ele>571</ele>
        <time>2019-12-19T00:37:09Z</time>
      </trkpt>
      <trkpt lat="44.34448" lon="3.6086">
        <ele>573</ele>
        <time>2019-12-19T00:37:12Z</time>
      </trkpt>
      <trkpt lat="44.34444" lon="3.60886">
        <ele>575</ele>
        <time>2019-12-19T00:37:15Z</time>
      </trkpt>
      <trkpt lat="44.34443" lon="3.60973">
        <ele>576</ele>
        <time>2019-12-19T00:37:26Z</time>
      </trkpt>
      <trkpt lat="44.34445" lon="3.60993">
        <ele>575</ele>
        <time>2019-12-19T00:37:29Z</time>
      </trkpt>
      <trkpt lat="44.34447" lon="3.60998">
        <ele>574</ele>
        <time>2019-12-19T00:37:29Z</time>
      </trkpt>
      <trkpt lat="44.34485" lon="3.61043">
        <ele>565</ele>
        <time>2019-12-19T00:37:38Z</time>
      </trkpt>
      <trkpt lat="44.34498" lon="3.61058">
        <ele>564</ele>
        <time>2019-12-19T00:37:41Z</time>
      </trkpt>
      <trkpt lat="44.34506" lon="3.61077">
        <ele>566</ele>
        <time>2019-12-19T00:37:44Z</time>
      </trkpt>
      <trkpt lat="44.34507" lon="3.61103">
        <ele>567</ele>
        <time>2019-12-19T00:37:47Z</time>
      </trkpt>
      <trkpt lat="44.34485" lon="3.61297">
        <ele>569</ele>
        <time>2019-12-19T00:38:12Z</time>
      </trkpt>
      <trkpt lat="44.34483" lon="3.61333">
        <ele>570</ele>
        <time>2019-12-19T00:38:17Z</time>
      </trkpt>
      <trkpt lat="44.34484" lon="3.61344">
        <ele>570</ele>
        <time>2019-12-19T00:38:18Z</time>
      </trkpt>
      <trkpt lat="44.34505" lon="3.6141">
        <ele>571</ele>
        <time>2019-12-19T00:38:28Z</time>
      </trkpt>
      <trkpt lat="44.3454" lon="3.61555">
        <ele>577</ele>
        <time>2019-12-19T00:38:47Z</time>
      </trkpt>
      <trkpt lat="44.34548" lon="3.61584">
        <ele>579</ele>
        <time>2019-12-19T00:38:51Z</time>
      </trkpt>
      <trkpt lat="44.34557" lon="3.61609">
        <ele>581</ele>
        <time>2019-12-19T00:38:55Z</time>
      </trkpt>
      <trkpt lat="44.34644" lon="3.61815">
        <ele>597</ele>
        <time>2019-12-19T00:39:25Z</time>
      </trkpt>
      <trkpt lat="44.3466" lon="3.61842">
        <ele>600</ele>
        <time>2019-12-19T00:39:29Z</time>
      </trkpt>
      <trkpt lat="44.34706" lon="3.61892">
        <ele>604</ele>
        <time>2019-12-19T00:39:40Z</time>
      </trkpt>
      <trkpt lat="44.3471" lon="3.61898">
        <ele>604</ele>
        <time>2019-12-19T00:39:41Z</time>
      </trkpt>
      <trkpt lat="44.34739" lon="3.61968">
        <ele>610</ele>
        <time>2019-12-19T00:39:51Z</time>
      </trkpt>
      <trkpt lat="44.34791" lon="3.62068">
        <ele>616</ele>
        <time>2019-12-19T00:40:07Z</time>
      </trkpt>
      <trkpt lat="44.34816" lon="3.62121">
        <ele>618</ele>
        <time>2019-12-19T00:40:15Z</time>
      </trkpt>
      <trkpt lat="44.34848" lon="3.62197">
        <ele>620</ele>
        <time>2019-12-19T00:40:26Z</time>
      </trkpt>
      <trkpt lat="44.34856" lon="3.62228">
        <ele>622</ele>
        <time>2019-12-19T00:40:30Z</time>
      </trkpt>
      <trkpt lat="44.34876" lon="3.6232">
        <ele>621</ele>
        <time>2019-12-19T00:40:43Z</time>
      </trkpt>
      <trkpt lat="44.34882" lon="3.62398">
        <ele>619</ele>
        <time>2019-12-19T00:40:53Z</time>
      </trkpt>
      <trkpt lat="44.34878" lon="3.6248">
        <ele>620</ele>
        <time>2019-12-19T00:41:03Z</time>
      </trkpt>
      <trkpt lat="44.34874" lon="3.62507">
        <ele>618</ele>
        <time>2019-12-19T00:41:07Z</time>
      </trkpt>
      <trkpt lat="44.34874" lon="3.62529">
        <ele>618</ele>
        <time>2019-12-19T00:41:09Z</time>
      </trkpt>
      <trkpt lat="44.34878" lon="3.62547">
        <ele>620</ele>
        <time>2019-12-19T00:41:12Z</time>
      </trkpt>
      <trkpt lat="44.34885" lon="3.62562">
        <ele>625</ele>
        <time>2019-12-19T00:41:14Z</time>
      </trkpt>
      <trkpt lat="44.34893" lon="3.6261">
        <ele>630</ele>
        <time>2019-12-19T00:41:20Z</time>
      </trkpt>
      <trkpt lat="44.3489" lon="3.6264">
        <ele>626</ele>
        <time>2019-12-19T00:41:24Z</time>
      </trkpt>
      <trkpt lat="44.34903" lon="3.62669">
        <ele>633</ele>
        <time>2019-12-19T00:41:29Z</time>
      </trkpt>
      <trkpt lat="44.34905" lon="3.62684">
        <ele>634</ele>
        <time>2019-12-19T00:41:30Z</time>
      </trkpt>
      <trkpt lat="44.34904" lon="3.62699">
        <ele>633</ele>
        <time>2019-12-19T00:41:32Z</time>
      </trkpt>
      <trkpt lat="44.34898" lon="3.62722">
        <ele>629</ele>
        <time>2019-12-19T00:41:36Z</time>
      </trkpt>
      <trkpt lat="44.34895" lon="3.62744">
        <ele>627</ele>
        <time>2019-12-19T00:41:38Z</time>
      </trkpt>
      <trkpt lat="44.34894" lon="3.6279">
        <ele>623</ele>
        <time>2019-12-19T00:41:44Z</time>
      </trkpt>
      <trkpt lat="44.34897" lon="3.62802">
        <ele>623</ele>
        <time>2019-12-19T00:41:46Z</time>
      </trkpt>
      <trkpt lat="44.3492" lon="3.62838">
        <ele>631</ele>
        <time>2019-12-19T00:41:52Z</time>
      </trkpt>
      <trkpt lat="44.34924" lon="3.62851">
        <ele>632</ele>
        <time>2019-12-19T00:41:54Z</time>
      </trkpt>
      <trkpt lat="44.34931" lon="3.6293">
        <ele>629</ele>
        <time>2019-12-19T00:42:04Z</time>
      </trkpt>
      <trkpt lat="44.34927" lon="3.63042">
        <ele>621</ele>
        <time>2019-12-19T00:42:18Z</time>
      </trkpt>
      <trkpt lat="44.3493" lon="3.63087">
        <ele>618</ele>
        <time>2019-12-19T00:42:24Z</time>
      </trkpt>
      <trkpt lat="44.34936" lon="3.63104">
        <ele>616</ele>
        <time>2019-12-19T00:42:26Z</time>
      </trkpt>
      <trkpt lat="44.34943" lon="3.63113">
        <ele>615</ele>
        <time>2019-12-19T00:42:28Z</time>
      </trkpt>
      <trkpt lat="44.34966" lon="3.63128">
        <ele>616</ele>
        <time>2019-12-19T00:42:33Z</time>
      </trkpt>
      <trkpt lat="44.34982" lon="3.63136">
        <ele>617</ele>
        <time>2019-12-19T00:42:36Z</time>
      </trkpt>
      <trkpt lat="44.35002" lon="3.63136">
        <ele>619</ele>
        <time>2019-12-19T00:42:39Z</time>
      </trkpt>
      <trkpt lat="44.3502" lon="3.63134">
        <ele>618</ele>
        <time>2019-12-19T00:42:42Z</time>
      </trkpt>
      <trkpt lat="44.3505" lon="3.63118">
        <ele>618</ele>
        <time>2019-12-19T00:42:48Z</time>
      </trkpt>
      <trkpt lat="44.35066" lon="3.63105">
        <ele>619</ele>
        <time>2019-12-19T00:42:51Z</time>
      </trkpt>
      <trkpt lat="44.35151" lon="3.63005">
        <ele>632</ele>
        <time>2019-12-19T00:43:11Z</time>
      </trkpt>
      <trkpt lat="44.35174" lon="3.62991">
        <ele>632</ele>
        <time>2019-12-19T00:43:16Z</time>
      </trkpt>
      <trkpt lat="44.35238" lon="3.62974">
        <ele>633</ele>
        <time>2019-12-19T00:43:27Z</time>
      </trkpt>
      <trkpt lat="44.35262" lon="3.62976">
        <ele>631</ele>
        <time>2019-12-19T00:43:31Z</time>
      </trkpt>
      <trkpt lat="44.35281" lon="3.62982">
        <ele>629</ele>
        <time>2019-12-19T00:43:35Z</time>
      </trkpt>
      <trkpt lat="44.35311" lon="3.62999">
        <ele>621</ele>
        <time>2019-12-19T00:43:41Z</time>
      </trkpt>
      <trkpt lat="44.35328" lon="3.63006">
        <ele>619</ele>
        <time>2019-12-19T00:43:44Z</time>
      </trkpt>
      <trkpt lat="44.35336" lon="3.63005">
        <ele>620</ele>
        <time>2019-12-19T00:43:45Z</time>
      </trkpt>
      <trkpt lat="44.3535" lon="3.62997">
        <ele>627</ele>
        <time>2019-12-19T00:43:48Z</time>
      </trkpt>
      <trkpt lat="44.3536" lon="3.62994">
        <ele>631</ele>
        <time>2019-12-19T00:43:50Z</time>
      </trkpt>
      <trkpt lat="44.35369" lon="3.62996">
        <ele>633</ele>
        <time>2019-12-19T00:43:51Z</time>
      </trkpt>
      <trkpt lat="44.35403" lon="3.63052">
        <ele>627</ele>
        <time>2019-12-19T00:44:01Z</time>
      </trkpt>
      <trkpt lat="44.35411" lon="3.6307">
        <ele>624</ele>
        <time>2019-12-19T00:44:03Z</time>
      </trkpt>
      <trkpt lat="44.35414" lon="3.63079">
        <ele>622</ele>
        <time>2019-12-19T00:44:05Z</time>
      </trkpt>
      <trkpt lat="44.3541" lon="3.63179">
        <ele>608</ele>
        <time>2019-12-19T00:44:17Z</time>
      </trkpt>
      <trkpt lat="44.35412" lon="3.63202">
        <ele>608</ele>
        <time>2019-12-19T00:44:20Z</time>
      </trkpt>
      <trkpt lat="44.35417" lon="3.63223">
        <ele>607</ele>
        <time>2019-12-19T00:44:23Z</time>
      </trkpt>
      <trkpt lat="44.35417" lon="3.63241">
        <ele>606</ele>
        <time>2019-12-19T00:44:25Z</time>
      </trkpt>
      <trkpt lat="44.35409" lon="3.6332">
        <ele>613</ele>
        <time>2019-12-19T00:44:36Z</time>
      </trkpt>
      <trkpt lat="44.35406" lon="3.6336">
        <ele>615</ele>
        <time>2019-12-19T00:44:41Z</time>
      </trkpt>
      <trkpt lat="44.35408" lon="3.63394">
        <ele>616</ele>
        <time>2019-12-19T00:44:45Z</time>
      </trkpt>
      <trkpt lat="44.35421" lon="3.6348">
        <ele>618</ele>
        <time>2019-12-19T00:44:56Z</time>
      </trkpt>
      <trkpt lat="44.35437" lon="3.6362">
        <ele>625</ele>
        <time>2019-12-19T00:45:14Z</time>
      </trkpt>
      <trkpt lat="44.35442" lon="3.6369">
        <ele>623</ele>
        <time>2019-12-19T00:45:23Z</time>
      </trkpt>
      <trkpt lat="44.35447" lon="3.63721">
        <ele>621</ele>
        <time>2019-12-19T00:45:27Z</time>
      </trkpt>
      <trkpt lat="44.35454" lon="3.63736">
        <ele>622</ele>
        <time>2019-12-19T00:45:30Z</time>
      </trkpt>
      <trkpt lat="44.35467" lon="3.6375">
        <ele>623</ele>
        <time>2019-12-19T00:45:32Z</time>
      </trkpt>
      <trkpt lat="44.35487" lon="3.63764">
        <ele>626</ele>
        <time>2019-12-19T00:45:36Z</time>
      </trkpt>
      <trkpt lat="44.35506" lon="3.63784">
        <ele>627</ele>
        <time>2019-12-19T00:45:41Z</time>
      </trkpt>
      <trkpt lat="44.35544" lon="3.63835">
        <ele>626</ele>
        <time>2019-12-19T00:45:50Z</time>
      </trkpt>
      <trkpt lat="44.35551" lon="3.63842">
        <ele>627</ele>
        <time>2019-12-19T00:45:52Z</time>
      </trkpt>
      <trkpt lat="44.35568" lon="3.63853">
        <ele>628</ele>
        <time>2019-12-19T00:45:55Z</time>
      </trkpt>
      <trkpt lat="44.35603" lon="3.63897">
        <ele>628</ele>
        <time>2019-12-19T00:46:03Z</time>
      </trkpt>
      <trkpt lat="44.35612" lon="3.63913">
        <ele>627</ele>
        <time>2019-12-19T00:46:06Z</time>
      </trkpt>
      <trkpt lat="44.35626" lon="3.63963">
        <ele>627</ele>
        <time>2019-12-19T00:46:13Z</time>
      </trkpt>
      <trkpt lat="44.35644" lon="3.64013">
        <ele>626</ele>
        <time>2019-12-19T00:46:20Z</time>
      </trkpt>
      <trkpt lat="44.35651" lon="3.64047">
        <ele>624</ele>
        <time>2019-12-19T00:46:24Z</time>
      </trkpt>
      <trkpt lat="44.35658" lon="3.64067">
        <ele>622</ele>
        <time>2019-12-19T00:46:27Z</time>
      </trkpt>
      <trkpt lat="44.3568" lon="3.6411">
        <ele>623</ele>
        <time>2019-12-19T00:46:34Z</time>
      </trkpt>
      <trkpt lat="44.35698" lon="3.64131">
        <ele>624</ele>
        <time>2019-12-19T00:46:38Z</time>
      </trkpt>
      <trkpt lat="44.35718" lon="3.64145">
        <ele>625</ele>
        <time>2019-12-19T00:46:42Z</time>
      </trkpt>
      <trkpt lat="44.35743" lon="3.64154">
        <ele>624</ele>
        <time>2019-12-19T00:46:47Z</time>
      </trkpt>
      <trkpt lat="44.35772" lon="3.6416">
        <ele>626</ele>
        <time>2019-12-19T00:46:52Z</time>
      </trkpt>
      <trkpt lat="44.35788" lon="3.64167">
        <ele>627</ele>
        <time>2019-12-19T00:46:55Z</time>
      </trkpt>
      <trkpt lat="44.358" lon="3.64178">
        <ele>629</ele>
        <time>2019-12-19T00:46:57Z</time>
      </trkpt>
      <trkpt lat="44.35813" lon="3.64196">
        <ele>630</ele>
        <time>2019-12-19T00:47:01Z</time>
      </trkpt>
      <trkpt lat="44.35828" lon="3.64225">
        <ele>631</ele>
        <time>2019-12-19T00:47:05Z</time>
      </trkpt>
      <trkpt lat="44.35834" lon="3.64244">
        <ele>630</ele>
        <time>2019-12-19T00:47:08Z</time>
      </trkpt>
      <trkpt lat="44.35835" lon="3.64262">
        <ele>630</ele>
        <time>2019-12-19T00:47:10Z</time>
      </trkpt>
      <trkpt lat="44.3583" lon="3.64275">
        <ele>629</ele>
        <time>2019-12-19T00:47:12Z</time>
      </trkpt>
      <trkpt lat="44.35823" lon="3.64283">
        <ele>629</ele>
        <time>2019-12-19T00:47:14Z</time>
      </trkpt>
      <trkpt lat="44.35818" lon="3.64286">
        <ele>630</ele>
        <time>2019-12-19T00:47:15Z</time>
      </trkpt>
      <trkpt lat="44.35812" lon="3.64289">
        <ele>630</ele>
        <time>2019-12-19T00:47:16Z</time>
      </trkpt>
      <trkpt lat="44.35798" lon="3.64287">
        <ele>631</ele>
        <time>2019-12-19T00:47:18Z</time>
      </trkpt>
      <trkpt lat="44.35783" lon="3.64277">
        <ele>632</ele>
        <time>2019-12-19T00:47:21Z</time>
      </trkpt>
      <trkpt lat="44.35798" lon="3.64287">
        <ele>631</ele>
        <time>2019-12-19T00:47:24Z</time>
      </trkpt>
      <trkpt lat="44.35812" lon="3.64289">
        <ele>630</ele>
        <time>2019-12-19T00:47:27Z</time>
      </trkpt>
      <trkpt lat="44.35818" lon="3.64286">
        <ele>630</ele>
        <time>2019-12-19T00:47:28Z</time>
      </trkpt>
      <trkpt lat="44.35823" lon="3.64283">
        <ele>629</ele>
        <time>2019-12-19T00:47:29Z</time>
      </trkpt>
      <trkpt lat="44.3583" lon="3.64275">
        <ele>629</ele>
        <time>2019-12-19T00:47:30Z</time>
      </trkpt>
      <trkpt lat="44.35835" lon="3.64261">
        <ele>630</ele>
        <time>2019-12-19T00:47:32Z</time>
      </trkpt>
      <trkpt lat="44.35847" lon="3.64285">
        <ele>633</ele>
        <time>2019-12-19T00:47:36Z</time>
      </trkpt>
      <trkpt lat="44.35855" lon="3.64309">
        <ele>635</ele>
        <time>2019-12-19T00:47:39Z</time>
      </trkpt>
      <trkpt lat="44.3586" lon="3.64333">
        <ele>634</ele>
        <time>2019-12-19T00:47:43Z</time>
      </trkpt>
      <trkpt lat="44.35869" lon="3.64353">
        <ele>636</ele>
        <time>2019-12-19T00:47:46Z</time>
      </trkpt>
      <trkpt lat="44.35918" lon="3.64429">
        <ele>636</ele>
        <time>2019-12-19T00:47:59Z</time>
      </trkpt>
      <trkpt lat="44.35924" lon="3.64446">
        <ele>637</ele>
        <time>2019-12-19T00:48:01Z</time>
      </trkpt>
      <trkpt lat="44.35933" lon="3.64525">
        <ele>636</ele>
        <time>2019-12-19T00:48:11Z</time>
      </trkpt>
      <trkpt lat="44.35936" lon="3.64539">
        <ele>637</ele>
        <time>2019-12-19T00:48:13Z</time>
      </trkpt>
      <trkpt lat="44.35944" lon="3.64554">
        <ele>638</ele>
        <time>2019-12-19T00:48:16Z</time>
      </trkpt>
      <trkpt lat="44.35976" lon="3.64576">
        <ele>644</ele>
        <time>2019-12-19T00:48:22Z</time>
      </trkpt>
      <trkpt lat="44.35989" lon="3.64587">
        <ele>647</ele>
        <time>2019-12-19T00:48:25Z</time>
      </trkpt>
      <trkpt lat="44.36001" lon="3.64616">
        <ele>647</ele>
        <time>2019-12-19T00:48:29Z</time>
      </trkpt>
      <trkpt lat="44.36011" lon="3.6466">
        <ele>649</ele>
        <time>2019-12-19T00:48:35Z</time>
      </trkpt>
      <trkpt lat="44.36015" lon="3.64672">
        <ele>649</ele>
        <time>2019-12-19T00:48:36Z</time>
      </trkpt>
      <trkpt lat="44.36028" lon="3.64694">
        <ele>653</ele>
        <time>2019-12-19T00:48:40Z</time>
      </trkpt>
      <trkpt lat="44.3605" lon="3.64715">
        <ele>658</ele>
        <time>2019-12-19T00:48:45Z</time>
      </trkpt>
      <trkpt lat="44.3606" lon="3.64729">
        <ele>659</ele>
        <time>2019-12-19T00:48:47Z</time>
      </trkpt>
      <trkpt lat="44.36071" lon="3.64747">
        <ele>659</ele>
        <time>2019-12-19T00:48:50Z</time>
      </trkpt>
      <trkpt lat="44.36089" lon="3.64787">
        <ele>658</ele>
        <time>2019-12-19T00:48:56Z</time>
      </trkpt>
      <trkpt lat="44.36102" lon="3.64823">
        <ele>658</ele>
        <time>2019-12-19T00:49:01Z</time>
      </trkpt>
      <trkpt lat="44.36114" lon="3.64865">
        <ele>658</ele>
        <time>2019-12-19T00:49:07Z</time>
      </trkpt>
      <trkpt lat="44.36123" lon="3.64876">
        <ele>660</ele>
        <time>2019-12-19T00:49:09Z</time>
      </trkpt>
      <trkpt lat="44.3615" lon="3.64875">
        <ele>668</ele>
        <time>2019-12-19T00:49:14Z</time>
      </trkpt>
      <trkpt lat="44.36155" lon="3.64879">
        <ele>669</ele>
        <time>2019-12-19T00:49:15Z</time>
      </trkpt>
      <trkpt lat="44.3616" lon="3.64889">
        <ele>670</ele>
        <time>2019-12-19T00:49:17Z</time>
      </trkpt>
      <trkpt lat="44.36163" lon="3.64908">
        <ele>668</ele>
        <time>2019-12-19T00:49:19Z</time>
      </trkpt>
      <trkpt lat="44.36162" lon="3.64927">
        <ele>667</ele>
        <time>2019-12-19T00:49:22Z</time>
      </trkpt>
      <trkpt lat="44.36158" lon="3.64945">
        <ele>666</ele>
        <time>2019-12-19T00:49:24Z</time>
      </trkpt>
      <trkpt lat="44.36157" lon="3.64958">
        <ele>666</ele>
        <time>2019-12-19T00:49:26Z</time>
      </trkpt>
      <trkpt lat="44.36159" lon="3.64975">
        <ele>666</ele>
        <time>2019-12-19T00:49:28Z</time>
      </trkpt>
      <trkpt lat="44.36157" lon="3.64996">
        <ele>666</ele>
        <time>2019-12-19T00:49:31Z</time>
      </trkpt>
      <trkpt lat="44.36161" lon="3.65034">
        <ele>664</ele>
        <time>2019-12-19T00:49:35Z</time>
      </trkpt>
      <trkpt lat="44.36167" lon="3.6505">
        <ele>664</ele>
        <time>2019-12-19T00:49:38Z</time>
      </trkpt>
      <trkpt lat="44.36226" lon="3.65082">
        <ele>675</ele>
        <time>2019-12-19T00:49:49Z</time>
      </trkpt>
      <trkpt lat="44.36238" lon="3.65092">
        <ele>676</ele>
        <time>2019-12-19T00:49:51Z</time>
      </trkpt>
      <trkpt lat="44.36256" lon="3.65116">
        <ele>674</ele>
        <time>2019-12-19T00:49:56Z</time>
      </trkpt>
      <trkpt lat="44.36264" lon="3.65121">
        <ele>674</ele>
        <time>2019-12-19T00:49:57Z</time>
      </trkpt>
      <trkpt lat="44.36272" lon="3.6512">
        <ele>675</ele>
        <time>2019-12-19T00:49:59Z</time>
      </trkpt>
      <trkpt lat="44.36308" lon="3.65109">
        <ele>683</ele>
        <time>2019-12-19T00:50:05Z</time>
      </trkpt>
      <trkpt lat="44.3633" lon="3.65105">
        <ele>687</ele>
        <time>2019-12-19T00:50:09Z</time>
      </trkpt>
      <trkpt lat="44.36342" lon="3.65105">
        <ele>688</ele>
        <time>2019-12-19T00:50:12Z</time>
      </trkpt>
      <trkpt lat="44.36354" lon="3.65112">
        <ele>687</ele>
        <time>2019-12-19T00:50:14Z</time>
      </trkpt>
      <trkpt lat="44.36365" lon="3.65124">
        <ele>685</ele>
        <time>2019-12-19T00:50:16Z</time>
      </trkpt>
      <trkpt lat="44.36376" lon="3.65133">
        <ele>684</ele>
        <time>2019-12-19T00:50:19Z</time>
      </trkpt>
      <trkpt lat="44.36387" lon="3.65139">
        <ele>683</ele>
        <time>2019-12-19T00:50:21Z</time>
      </trkpt>
      <trkpt lat="44.36401" lon="3.65137">
        <ele>684</ele>
        <time>2019-12-19T00:50:23Z</time>
      </trkpt>
      <trkpt lat="44.36414" lon="3.6513">
        <ele>686</ele>
        <time>2019-12-19T00:50:26Z</time>
      </trkpt>
      <trkpt lat="44.36433" lon="3.65113">
        <ele>690</ele>
        <time>2019-12-19T00:50:30Z</time>
      </trkpt>
      <trkpt lat="44.3645" lon="3.65103">
        <ele>694</ele>
        <time>2019-12-19T00:50:33Z</time>
      </trkpt>
      <trkpt lat="44.36487" lon="3.65113">
        <ele>697</ele>
        <time>2019-12-19T00:50:40Z</time>
      </trkpt>
      <trkpt lat="44.36499" lon="3.65118">
        <ele>697</ele>
        <time>2019-12-19T00:50:42Z</time>
      </trkpt>
      <trkpt lat="44.36506" lon="3.65127">
        <ele>697</ele>
        <time>2019-12-19T00:50:44Z</time>
      </trkpt>
      <trkpt lat="44.36511" lon="3.65149">
        <ele>694</ele>
        <time>2019-12-19T00:50:47Z</time>
      </trkpt>
      <trkpt lat="44.36518" lon="3.65162">
        <ele>692</ele>
        <time>2019-12-19T00:50:49Z</time>
      </trkpt>
      <trkpt lat="44.36528" lon="3.65169">
        <ele>692</ele>
        <time>2019-12-19T00:50:51Z</time>
      </trkpt>
      <trkpt lat="44.36538" lon="3.65169">
        <ele>694</ele>
        <time>2019-12-19T00:50:52Z</time>
      </trkpt>
      <trkpt lat="44.36553" lon="3.6516">
        <ele>697</ele>
        <time>2019-12-19T00:50:55Z</time>
      </trkpt>
      <trkpt lat="44.36568" lon="3.65155">
        <ele>700</ele>
        <time>2019-12-19T00:50:58Z</time>
      </trkpt>
      <trkpt lat="44.36578" lon="3.65155">
        <ele>702</ele>
        <time>2019-12-19T00:51:00Z</time>
      </trkpt>
      <trkpt lat="44.36587" lon="3.65159">
        <ele>702</ele>
        <time>2019-12-19T00:51:01Z</time>
      </trkpt>
      <trkpt lat="44.36598" lon="3.65166">
        <ele>701</ele>
        <time>2019-12-19T00:51:04Z</time>
      </trkpt>
      <trkpt lat="44.36611" lon="3.65168">
        <ele>702</ele>
        <time>2019-12-19T00:51:06Z</time>
      </trkpt>
      <trkpt lat="44.36651" lon="3.65149">
        <ele>708</ele>
        <time>2019-12-19T00:51:13Z</time>
      </trkpt>
      <trkpt lat="44.36666" lon="3.65145">
        <ele>710</ele>
        <time>2019-12-19T00:51:16Z</time>
      </trkpt>
      <trkpt lat="44.36717" lon="3.65143">
        <ele>712</ele>
        <time>2019-12-19T00:51:25Z</time>
      </trkpt>
      <trkpt lat="44.36751" lon="3.65146">
        <ele>712</ele>
        <time>2019-12-19T00:51:31Z</time>
      </trkpt>
      <trkpt lat="44.36771" lon="3.65141">
        <ele>715</ele>
        <time>2019-12-19T00:51:35Z</time>
      </trkpt>
      <trkpt lat="44.36813" lon="3.65117">
        <ele>724</ele>
        <time>2019-12-19T00:51:43Z</time>
      </trkpt>
      <trkpt lat="44.36835" lon="3.65111">
        <ele>727</ele>
        <time>2019-12-19T00:51:47Z</time>
      </trkpt>
      <trkpt lat="44.36856" lon="3.65112">
        <ele>728</ele>
        <time>2019-12-19T00:51:51Z</time>
      </trkpt>
      <trkpt lat="44.36867" lon="3.65118">
        <ele>728</ele>
        <time>2019-12-19T00:51:53Z</time>
      </trkpt>
      <trkpt lat="44.36876" lon="3.65134">
        <ele>727</ele>
        <time>2019-12-19T00:51:55Z</time>
      </trkpt>
      <trkpt lat="44.36882" lon="3.6516">
        <ele>724</ele>
        <time>2019-12-19T00:51:59Z</time>
      </trkpt>
      <trkpt lat="44.36891" lon="3.65183">
        <ele>723</ele>
        <time>2019-12-19T00:52:02Z</time>
      </trkpt>
      <trkpt lat="44.36905" lon="3.65198">
        <ele>725</ele>
        <time>2019-12-19T00:52:05Z</time>
      </trkpt>
      <trkpt lat="44.36935" lon="3.65224">
        <ele>729</ele>
        <time>2019-12-19T00:52:12Z</time>
      </trkpt>
      <trkpt lat="44.36946" lon="3.65242">
        <ele>729</ele>
        <time>2019-12-19T00:52:15Z</time>
      </trkpt>
      <trkpt lat="44.36958" lon="3.65283">
        <ele>725</ele>
        <time>2019-12-19T00:52:20Z</time>
      </trkpt>
      <trkpt lat="44.36966" lon="3.65296">
        <ele>724</ele>
        <time>2019-12-19T00:52:22Z</time>
      </trkpt>
      <trkpt lat="44.36971" lon="3.65298">
        <ele>724</ele>
        <time>2019-12-19T00:52:23Z</time>
      </trkpt>
      <trkpt lat="44.37046" lon="3.65281">
        <ele>735</ele>
        <time>2019-12-19T00:52:37Z</time>
      </trkpt>
      <trkpt lat="44.37066" lon="3.65271">
        <ele>739</ele>
        <time>2019-12-19T00:52:41Z</time>
      </trkpt>
      <trkpt lat="44.37088" lon="3.65271">
        <ele>741</ele>
        <time>2019-12-19T00:52:45Z</time>
      </trkpt>
      <trkpt lat="44.3711" lon="3.65267">
        <ele>743</ele>
        <time>2019-12-19T00:52:49Z</time>
      </trkpt>
      <trkpt lat="44.37136" lon="3.65275">
        <ele>743</ele>
        <time>2019-12-19T00:52:53Z</time>
      </trkpt>
      <trkpt lat="44.3715" lon="3.65277">
        <ele>744</ele>
        <time>2019-12-19T00:52:56Z</time>
      </trkpt>
      <trkpt lat="44.37174" lon="3.65273">
        <ele>747</ele>
        <time>2019-12-19T00:53:00Z</time>
      </trkpt>
      <trkpt lat="44.37187" lon="3.65274">
        <ele>748</ele>
        <time>2019-12-19T00:53:02Z</time>
      </trkpt>
      <trkpt lat="44.37219" lon="3.65287">
        <ele>749</ele>
        <time>2019-12-19T00:53:08Z</time>
      </trkpt>
      <trkpt lat="44.37236" lon="3.65291">
        <ele>750</ele>
        <time>2019-12-19T00:53:11Z</time>
      </trkpt>
      <trkpt lat="44.37256" lon="3.65293">
        <ele>751</ele>
        <time>2019-12-19T00:53:15Z</time>
      </trkpt>
      <trkpt lat="44.37285" lon="3.65292">
        <ele>753</ele>
        <time>2019-12-19T00:53:20Z</time>
      </trkpt>
      <trkpt lat="44.37337" lon="3.65281">
        <ele>757</ele>
        <time>2019-12-19T00:53:29Z</time>
      </trkpt>
      <trkpt lat="44.37362" lon="3.65286">
        <ele>757</ele>
        <time>2019-12-19T00:53:34Z</time>
      </trkpt>
      <trkpt lat="44.37406" lon="3.65289">
        <ele>758</ele>
        <time>2019-12-19T00:53:42Z</time>
      </trkpt>
      <trkpt lat="44.37445" lon="3.65272">
        <ele>762</ele>
        <time>2019-12-19T00:53:49Z</time>
      </trkpt>
      <trkpt lat="44.37455" lon="3.65265">
        <ele>763</ele>
        <time>2019-12-19T00:53:51Z</time>
      </trkpt>
      <trkpt lat="44.3746" lon="3.65259">
        <ele>764</ele>
        <time>2019-12-19T00:53:52Z</time>
      </trkpt>
      <trkpt lat="44.37471" lon="3.65256">
        <ele>765</ele>
        <time>2019-12-19T00:53:54Z</time>
      </trkpt>
      <trkpt lat="44.375" lon="3.65264">
        <ele>765</ele>
        <time>2019-12-19T00:54:00Z</time>
      </trkpt>
      <trkpt lat="44.37528" lon="3.65279">
        <ele>768</ele>
        <time>2019-12-19T00:54:05Z</time>
      </trkpt>
      <trkpt lat="44.3755" lon="3.65292">
        <ele>770</ele>
        <time>2019-12-19T00:54:09Z</time>
      </trkpt>
      <trkpt lat="44.37628" lon="3.65347">
        <ele>776</ele>
        <time>2019-12-19T00:54:25Z</time>
      </trkpt>
      <trkpt lat="44.37638" lon="3.65363">
        <ele>777</ele>
        <time>2019-12-19T00:54:27Z</time>
      </trkpt>
      <trkpt lat="44.3764" lon="3.65374">
        <ele>777</ele>
        <time>2019-12-19T00:54:29Z</time>
      </trkpt>
      <trkpt lat="44.37639" lon="3.65398">
        <ele>776</ele>
        <time>2019-12-19T00:54:32Z</time>
      </trkpt>
      <trkpt lat="44.37651" lon="3.65421">
        <ele>777</ele>
        <time>2019-12-19T00:54:35Z</time>
      </trkpt>
      <trkpt lat="44.37654" lon="3.65434">
        <ele>778</ele>
        <time>2019-12-19T00:54:37Z</time>
      </trkpt>
      <trkpt lat="44.37653" lon="3.65469">
        <ele>779</ele>
        <time>2019-12-19T00:54:42Z</time>
      </trkpt>
      <trkpt lat="44.3766" lon="3.65512">
        <ele>782</ele>
        <time>2019-12-19T00:54:47Z</time>
      </trkpt>
      <trkpt lat="44.37658" lon="3.65532">
        <ele>784</ele>
        <time>2019-12-19T00:54:50Z</time>
      </trkpt>
      <trkpt lat="44.37653" lon="3.65547">
        <ele>785</ele>
        <time>2019-12-19T00:54:52Z</time>
      </trkpt>
      <trkpt lat="44.37635" lon="3.65579">
        <ele>784</ele>
        <time>2019-12-19T00:54:57Z</time>
      </trkpt>
      <trkpt lat="44.37626" lon="3.65609">
        <ele>784</ele>
        <time>2019-12-19T00:55:01Z</time>
      </trkpt>
      <trkpt lat="44.37616" lon="3.65634">
        <ele>784</ele>
        <time>2019-12-19T00:55:05Z</time>
      </trkpt>
      <trkpt lat="44.37613" lon="3.65664">
        <ele>786</ele>
        <time>2019-12-19T00:55:09Z</time>
      </trkpt>
      <trkpt lat="44.37614" lon="3.65681">
        <ele>788</ele>
        <time>2019-12-19T00:55:11Z</time>
      </trkpt>
      <trkpt lat="44.37617" lon="3.65692">
        <ele>790</ele>
        <time>2019-12-19T00:55:12Z</time>
      </trkpt>
      <trkpt lat="44.37646" lon="3.65724">
        <ele>798</ele>
        <time>2019-12-19T00:55:19Z</time>
      </trkpt>
      <trkpt lat="44.37648" lon="3.65729">
        <ele>799</ele>
        <time>2019-12-19T00:55:20Z</time>
      </trkpt>
      <trkpt lat="44.37646" lon="3.65744">
        <ele>800</ele>
        <time>2019-12-19T00:55:22Z</time>
      </trkpt>
      <trkpt lat="44.37642" lon="3.65747">
        <ele>799</ele>
        <time>2019-12-19T00:55:22Z</time>
      </trkpt>
      <trkpt lat="44.37592" lon="3.65765">
        <ele>795</ele>
        <time>2019-12-19T00:55:32Z</time>
      </trkpt>
      <trkpt lat="44.37572" lon="3.65767">
        <ele>793</ele>
        <time>2019-12-19T00:55:35Z</time>
      </trkpt>
      <trkpt lat="44.37553" lon="3.65776">
        <ele>791</ele>
        <time>2019-12-19T00:55:39Z</time>
      </trkpt>
      <trkpt lat="44.37544" lon="3.65784">
        <ele>792</ele>
        <time>2019-12-19T00:55:41Z</time>
      </trkpt>
      <trkpt lat="44.37526" lon="3.65812">
        <ele>795</ele>
        <time>2019-12-19T00:55:45Z</time>
      </trkpt>
      <trkpt lat="44.37481" lon="3.65871">
        <ele>798</ele>
        <time>2019-12-19T00:55:56Z</time>
      </trkpt>
      <trkpt lat="44.3744" lon="3.65912">
        <ele>800</ele>
        <time>2019-12-19T00:56:05Z</time>
      </trkpt>
      <trkpt lat="44.37428" lon="3.65928">
        <ele>800</ele>
        <time>2019-12-19T00:56:08Z</time>
      </trkpt>
      <trkpt lat="44.37426" lon="3.65942">
        <ele>801</ele>
        <time>2019-12-19T00:56:10Z</time>
      </trkpt>
      <trkpt lat="44.37429" lon="3.65956">
        <ele>802</ele>
        <time>2019-12-19T00:56:12Z</time>
      </trkpt>
      <trkpt lat="44.37439" lon="3.65963">
        <ele>803</ele>
        <time>2019-12-19T00:56:14Z</time>
      </trkpt>
      <trkpt lat="44.37461" lon="3.65971">
        <ele>804</ele>
        <time>2019-12-19T00:56:18Z</time>
      </trkpt>
      <trkpt lat="44.37477" lon="3.65968">
        <ele>805</ele>
        <time>2019-12-19T00:56:21Z</time>
      </trkpt>
      <trkpt lat="44.37516" lon="3.6595">
        <ele>808</ele>
        <time>2019-12-19T00:56:28Z</time>
      </trkpt>
      <trkpt lat="44.37554" lon="3.65928">
        <ele>812</ele>
        <time>2019-12-19T00:56:36Z</time>
      </trkpt>
      <trkpt lat="44.37605" lon="3.65909">
        <ele>817</ele>
        <time>2019-12-19T00:56:45Z</time>
      </trkpt>
      <trkpt lat="44.37627" lon="3.65889">
        <ele>818</ele>
        <time>2019-12-19T00:56:50Z</time>
      </trkpt>
      <trkpt lat="44.37646" lon="3.65884">
        <ele>819</ele>
        <time>2019-12-19T00:56:53Z</time>
      </trkpt>
      <trkpt lat="44.37663" lon="3.65889">
        <ele>822</ele>
        <time>2019-12-19T00:56:56Z</time>
      </trkpt>
      <trkpt lat="44.37671" lon="3.65896">
        <ele>824</ele>
        <time>2019-12-19T00:56:58Z</time>
      </trkpt>
      <trkpt lat="44.37678" lon="3.65908">
        <ele>827</ele>
        <time>2019-12-19T00:57:00Z</time>
      </trkpt>
      <trkpt lat="44.37691" lon="3.65943">
        <ele>832</ele>
        <time>2019-12-19T00:57:05Z</time>
      </trkpt>
      <trkpt lat="44.37697" lon="3.65972">
        <ele>834</ele>
        <time>2019-12-19T00:57:09Z</time>
      </trkpt>
      <trkpt lat="44.37698" lon="3.66028">
        <ele>835</ele>
        <time>2019-12-19T00:57:16Z</time>
      </trkpt>
      <trkpt lat="44.377" lon="3.6605">
        <ele>835</ele>
        <time>2019-12-19T00:57:19Z</time>
      </trkpt>
      <trkpt lat="44.37712" lon="3.66094">
        <ele>840</ele>
        <time>2019-12-19T00:57:25Z</time>
      </trkpt>
      <trkpt lat="44.37713" lon="3.66097">
        <ele>840</ele>
        <time>2019-12-19T00:57:25Z</time>
      </trkpt>
      <trkpt lat="44.37718" lon="3.66097">
        <ele>843</ele>
        <time>2019-12-19T00:57:26Z</time>
      </trkpt>
      <trkpt lat="44.3772" lon="3.66092">
        <ele>843</ele>
        <time>2019-12-19T00:57:27Z</time>
      </trkpt>
      <trkpt lat="44.37724" lon="3.66022">
        <ele>844</ele>
        <time>2019-12-19T00:57:36Z</time>
      </trkpt>
      <trkpt lat="44.37731" lon="3.65986">
        <ele>845</ele>
        <time>2019-12-19T00:57:40Z</time>
      </trkpt>
      <trkpt lat="44.37743" lon="3.65943">
        <ele>845</ele>
        <time>2019-12-19T00:57:46Z</time>
      </trkpt>
      <trkpt lat="44.37747" lon="3.65915">
        <ele>844</ele>
        <time>2019-12-19T00:57:50Z</time>
      </trkpt>
      <trkpt lat="44.37767" lon="3.65847">
        <ele>843</ele>
        <time>2019-12-19T00:57:59Z</time>
      </trkpt>
      <trkpt lat="44.3777" lon="3.65843">
        <ele>844</ele>
        <time>2019-12-19T00:58:00Z</time>
      </trkpt>
      <trkpt lat="44.37776" lon="3.65842">
        <ele>845</ele>
        <time>2019-12-19T00:58:01Z</time>
      </trkpt>
      <trkpt lat="44.37778" lon="3.65845">
        <ele>846</ele>
        <time>2019-12-19T00:58:01Z</time>
      </trkpt>
      <trkpt lat="44.37778" lon="3.6585">
        <ele>847</ele>
        <time>2019-12-19T00:58:02Z</time>
      </trkpt>
      <trkpt lat="44.3777" lon="3.65881">
        <ele>848</ele>
        <time>2019-12-19T00:58:06Z</time>
      </trkpt>
      <trkpt lat="44.37767" lon="3.65907">
        <ele>850</ele>
        <time>2019-12-19T00:58:10Z</time>
      </trkpt>
      <trkpt lat="44.37768" lon="3.6593">
        <ele>853</ele>
        <time>2019-12-19T00:58:13Z</time>
      </trkpt>
      <trkpt lat="44.37765" lon="3.66002">
        <ele>858</ele>
        <time>2019-12-19T00:58:22Z</time>
      </trkpt>
      <trkpt lat="44.37768" lon="3.66028">
        <ele>861</ele>
        <time>2019-12-19T00:58:25Z</time>
      </trkpt>
      <trkpt lat="44.37773" lon="3.66054">
        <ele>864</ele>
        <time>2019-12-19T00:58:29Z</time>
      </trkpt>
      <trkpt lat="44.37772" lon="3.66081">
        <ele>865</ele>
        <time>2019-12-19T00:58:32Z</time>
      </trkpt>
      <trkpt lat="44.37766" lon="3.66171">
        <ele>867</ele>
        <time>2019-12-19T00:58:43Z</time>
      </trkpt>
      <trkpt lat="44.37765" lon="3.66201">
        <ele>864</ele>
        <time>2019-12-19T00:58:47Z</time>
      </trkpt>
      <trkpt lat="44.37769" lon="3.66221">
        <ele>863</ele>
        <time>2019-12-19T00:58:50Z</time>
      </trkpt>
      <trkpt lat="44.37778" lon="3.66246">
        <ele>864</ele>
        <time>2019-12-19T00:58:53Z</time>
      </trkpt>
      <trkpt lat="44.37788" lon="3.6626">
        <ele>863</ele>
        <time>2019-12-19T00:58:56Z</time>
      </trkpt>
      <trkpt lat="44.37812" lon="3.66279">
        <ele>865</ele>
        <time>2019-12-19T00:59:01Z</time>
      </trkpt>
      <trkpt lat="44.37843" lon="3.66284">
        <ele>873</ele>
        <time>2019-12-19T00:59:06Z</time>
      </trkpt>
      <trkpt lat="44.37864" lon="3.66279">
        <ele>880</ele>
        <time>2019-12-19T00:59:10Z</time>
      </trkpt>
      <trkpt lat="44.37874" lon="3.66281">
        <ele>882</ele>
        <time>2019-12-19T00:59:12Z</time>
      </trkpt>
      <trkpt lat="44.3789" lon="3.66302">
        <ele>881</ele>
        <time>2019-12-19T00:59:16Z</time>
      </trkpt>
      <trkpt lat="44.37906" lon="3.66329">
        <ele>880</ele>
        <time>2019-12-19T00:59:20Z</time>
      </trkpt>
      <trkpt lat="44.37929" lon="3.66355">
        <ele>879</ele>
        <time>2019-12-19T00:59:26Z</time>
      </trkpt>
      <trkpt lat="44.37961" lon="3.66374">
        <ele>883</ele>
        <time>2019-12-19T00:59:32Z</time>
      </trkpt>
      <trkpt lat="44.3798" lon="3.66379">
        <ele>888</ele>
        <time>2019-12-19T00:59:35Z</time>
      </trkpt>
      <trkpt lat="44.37997" lon="3.6638">
        <ele>893</ele>
        <time>2019-12-19T00:59:38Z</time>
      </trkpt>
      <trkpt lat="44.38007" lon="3.66385">
        <ele>896</ele>
        <time>2019-12-19T00:59:40Z</time>
      </trkpt>
      <trkpt lat="44.38018" lon="3.6641">
        <ele>895</ele>
        <time>2019-12-19T00:59:44Z</time>
      </trkpt>
      <trkpt lat="44.38033" lon="3.66433">
        <ele>896</ele>
        <time>2019-12-19T00:59:48Z</time>
      </trkpt>
      <trkpt lat="44.38038" lon="3.66445">
        <ele>896</ele>
        <time>2019-12-19T00:59:50Z</time>
      </trkpt>
      <trkpt lat="44.38045" lon="3.66485">
        <ele>890</ele>
        <time>2019-12-19T00:59:55Z</time>
      </trkpt>
      <trkpt lat="44.38047" lon="3.66507">
        <ele>886</ele>
        <time>2019-12-19T00:59:58Z</time>
      </trkpt>
      <trkpt lat="44.38055" lon="3.6652">
        <ele>886</ele>
        <time>2019-12-19T01:00:00Z</time>
      </trkpt>
      <trkpt lat="44.38099" lon="3.6656">
        <ele>890</ele>
        <time>2019-12-19T01:00:09Z</time>
      </trkpt>
      <trkpt lat="44.38109" lon="3.66566">
        <ele>889</ele>
        <time>2019-12-19T01:00:11Z</time>
      </trkpt>
      <trkpt lat="44.38122" lon="3.66568">
        <ele>891</ele>
        <time>2019-12-19T01:00:14Z</time>
      </trkpt>
      <trkpt lat="44.38173" lon="3.66547">
        <ele>904</ele>
        <time>2019-12-19T01:00:23Z</time>
      </trkpt>
      <trkpt lat="44.38188" lon="3.66536">
        <ele>911</ele>
        <time>2019-12-19T01:00:26Z</time>
      </trkpt>
      <trkpt lat="44.382" lon="3.66531">
        <ele>914</ele>
        <time>2019-12-19T01:00:28Z</time>
      </trkpt>
      <trkpt lat="44.3821" lon="3.66539">
        <ele>915</ele>
        <time>2019-12-19T01:00:30Z</time>
      </trkpt>
      <trkpt lat="44.38217" lon="3.66551">
        <ele>913</ele>
        <time>2019-12-19T01:00:32Z</time>
      </trkpt>
      <trkpt lat="44.38229" lon="3.66576">
        <ele>910</ele>
        <time>2019-12-19T01:00:36Z</time>
      </trkpt>
      <trkpt lat="44.38244" lon="3.66592">
        <ele>909</ele>
        <time>2019-12-19T01:00:39Z</time>
      </trkpt>
      <trkpt lat="44.38278" lon="3.66622">
        <ele>904</ele>
        <time>2019-12-19T01:00:47Z</time>
      </trkpt>
      <trkpt lat="44.38286" lon="3.66625">
        <ele>904</ele>
        <time>2019-12-19T01:00:48Z</time>
      </trkpt>
      <trkpt lat="44.38299" lon="3.66625">
        <ele>906</ele>
        <time>2019-12-19T01:00:50Z</time>
      </trkpt>
      <trkpt lat="44.38314" lon="3.66622">
        <ele>909</ele>
        <time>2019-12-19T01:00:53Z</time>
      </trkpt>
      <trkpt lat="44.38326" lon="3.66609">
        <ele>914</ele>
        <time>2019-12-19T01:00:56Z</time>
      </trkpt>
      <trkpt lat="44.38343" lon="3.66597">
        <ele>917</ele>
        <time>2019-12-19T01:00:59Z</time>
      </trkpt>
      <trkpt lat="44.38357" lon="3.66569">
        <ele>921</ele>
        <time>2019-12-19T01:01:03Z</time>
      </trkpt>
      <trkpt lat="44.3837" lon="3.66548">
        <ele>924</ele>
        <time>2019-12-19T01:01:07Z</time>
      </trkpt>
      <trkpt lat="44.38422" lon="3.66499">
        <ele>922</ele>
        <time>2019-12-19T01:01:18Z</time>
      </trkpt>
      <trkpt lat="44.38465" lon="3.66463">
        <ele>928</ele>
        <time>2019-12-19T01:01:27Z</time>
      </trkpt>
      <trkpt lat="44.38493" lon="3.66457">
        <ele>927</ele>
        <time>2019-12-19T01:01:32Z</time>
      </trkpt>
      <trkpt lat="44.385" lon="3.66458">
        <ele>926</ele>
        <time>2019-12-19T01:01:33Z</time>
      </trkpt>
      <trkpt lat="44.38509" lon="3.66468">
        <ele>926</ele>
        <time>2019-12-19T01:01:35Z</time>
      </trkpt>
      <trkpt lat="44.38516" lon="3.66478">
        <ele>925</ele>
        <time>2019-12-19T01:01:37Z</time>
      </trkpt>
      <trkpt lat="44.38524" lon="3.66496">
        <ele>923</ele>
        <time>2019-12-19T01:01:40Z</time>
      </trkpt>
      <trkpt lat="44.38528" lon="3.66512">
        <ele>925</ele>
        <time>2019-12-19T01:01:42Z</time>
      </trkpt>
      <trkpt lat="44.38525" lon="3.66531">
        <ele>926</ele>
        <time>2019-12-19T01:01:45Z</time>
      </trkpt>
      <trkpt lat="44.38514" lon="3.66555">
        <ele>926</ele>
        <time>2019-12-19T01:01:48Z</time>
      </trkpt>
      <trkpt lat="44.38488" lon="3.66589">
        <ele>924</ele>
        <time>2019-12-19T01:01:54Z</time>
      </trkpt>
      <trkpt lat="44.38469" lon="3.66623">
        <ele>928</ele>
        <time>2019-12-19T01:02:00Z</time>
      </trkpt>
      <trkpt lat="44.38458" lon="3.6665">
        <ele>930</ele>
        <time>2019-12-19T01:02:04Z</time>
      </trkpt>
      <trkpt lat="44.38444" lon="3.66711">
        <ele>936</ele>
        <time>2019-12-19T01:02:12Z</time>
      </trkpt>
      <trkpt lat="44.38427" lon="3.66755">
        <ele>937</ele>
        <time>2019-12-19T01:02:18Z</time>
      </trkpt>
      <trkpt lat="44.38418" lon="3.66784">
        <ele>940</ele>
        <time>2019-12-19T01:02:22Z</time>
      </trkpt>
      <trkpt lat="44.38405" lon="3.66814">
        <ele>943</ele>
        <time>2019-12-19T01:02:27Z</time>
      </trkpt>
      <trkpt lat="44.38389" lon="3.66844">
        <ele>945</ele>
        <time>2019-12-19T01:02:32Z</time>
      </trkpt>
      <trkpt lat="44.38369" lon="3.66869">
        <ele>945</ele>
        <time>2019-12-19T01:02:36Z</time>
      </trkpt>
      <trkpt lat="44.38352" lon="3.66887">
        <ele>945</ele>
        <time>2019-12-19T01:02:40Z</time>
      </trkpt>
      <trkpt lat="44.38325" lon="3.66904">
        <ele>944</ele>
        <time>2019-12-19T01:02:46Z</time>
      </trkpt>
      <trkpt lat="44.38305" lon="3.66913">
        <ele>945</ele>
        <time>2019-12-19T01:02:49Z</time>
      </trkpt>
      <trkpt lat="44.38288" lon="3.66926">
        <ele>948</ele>
        <time>2019-12-19T01:02:53Z</time>
      </trkpt>
      <trkpt lat="44.38278" lon="3.66929">
        <ele>948</ele>
        <time>2019-12-19T01:02:55Z</time>
      </trkpt>
      <trkpt lat="44.38253" lon="3.66927">
        <ele>944</ele>
        <time>2019-12-19T01:02:59Z</time>
      </trkpt>
      <trkpt lat="44.38242" lon="3.66932">
        <ele>946</ele>
        <time>2019-12-19T01:03:01Z</time>
      </trkpt>
      <trkpt lat="44.38227" lon="3.66943">
        <ele>951</ele>
        <time>2019-12-19T01:03:04Z</time>
      </trkpt>
      <trkpt lat="44.38212" lon="3.66951">
        <ele>954</ele>
        <time>2019-12-19T01:03:07Z</time>
      </trkpt>
      <trkpt lat="44.38142" lon="3.66955">
        <ele>953</ele>
        <time>2019-12-19T01:03:19Z</time>
      </trkpt>
      <trkpt lat="44.38114" lon="3.66961">
        <ele>955</ele>
        <time>2019-12-19T01:03:24Z</time>
      </trkpt>
      <trkpt lat="44.38064" lon="3.66981">
        <ele>962</ele>
        <time>2019-12-19T01:03:34Z</time>
      </trkpt>
      <trkpt lat="44.38039" lon="3.66988">
        <ele>964</ele>
        <time>2019-12-19T01:03:38Z</time>
      </trkpt>
      <trkpt lat="44.38021" lon="3.66991">
        <ele>964</ele>
        <time>2019-12-19T01:03:41Z</time>
      </trkpt>
      <trkpt lat="44.37983" lon="3.66991">
        <ele>961</ele>
        <time>2019-12-19T01:03:48Z</time>
      </trkpt>
      <trkpt lat="44.3794" lon="3.6697">
        <ele>950</ele>
        <time>2019-12-19T01:03:56Z</time>
      </trkpt>
      <trkpt lat="44.37932" lon="3.66972">
        <ele>950</ele>
        <time>2019-12-19T01:03:58Z</time>
      </trkpt>
      <trkpt lat="44.37927" lon="3.66977">
        <ele>952</ele>
        <time>2019-12-19T01:03:59Z</time>
      </trkpt>
      <trkpt lat="44.37925" lon="3.66993">
        <ele>956</ele>
        <time>2019-12-19T01:04:01Z</time>
      </trkpt>
      <trkpt lat="44.37923" lon="3.6702">
        <ele>960</ele>
        <time>2019-12-19T01:04:04Z</time>
      </trkpt>
      <trkpt lat="44.37923" lon="3.67068">
        <ele>965</ele>
        <time>2019-12-19T01:04:10Z</time>
      </trkpt>
      <trkpt lat="44.37925" lon="3.67102">
        <ele>968</ele>
        <time>2019-12-19T01:04:15Z</time>
      </trkpt>
      <trkpt lat="44.37924" lon="3.6712">
        <ele>969</ele>
        <time>2019-12-19T01:04:17Z</time>
      </trkpt>
      <trkpt lat="44.37924" lon="3.67142">
        <ele>969</ele>
        <time>2019-12-19T01:04:20Z</time>
      </trkpt>
      <trkpt lat="44.3793" lon="3.67163">
        <ele>973</ele>
        <time>2019-12-19T01:04:23Z</time>
      </trkpt>
      <trkpt lat="44.37947" lon="3.67206">
        <ele>976</ele>
        <time>2019-12-19T01:04:29Z</time>
      </trkpt>
      <trkpt lat="44.37966" lon="3.67243">
        <ele>980</ele>
        <time>2019-12-19T01:04:35Z</time>
      </trkpt>
      <trkpt lat="44.38022" lon="3.67311">
        <ele>983</ele>
        <time>2019-12-19T01:04:48Z</time>
      </trkpt>
      <trkpt lat="44.38044" lon="3.6733">
        <ele>983</ele>
        <time>2019-12-19T01:04:53Z</time>
      </trkpt>
      <trkpt lat="44.38064" lon="3.67328">
        <ele>986</ele>
        <time>2019-12-19T01:04:56Z</time>
      </trkpt>
      <trkpt lat="44.38076" lon="3.67324">
        <ele>989</ele>
        <time>2019-12-19T01:04:58Z</time>
      </trkpt>
      <trkpt lat="44.38105" lon="3.67322">
        <ele>992</ele>
        <time>2019-12-19T01:05:04Z</time>
      </trkpt>
      <trkpt lat="44.38127" lon="3.67328">
        <ele>993</ele>
        <time>2019-12-19T01:05:08Z</time>
      </trkpt>
      <trkpt lat="44.38208" lon="3.67366">
        <ele>995</ele>
        <time>2019-12-19T01:05:23Z</time>
      </trkpt>
      <trkpt lat="44.38245" lon="3.67372">
        <ele>997</ele>
        <time>2019-12-19T01:05:29Z</time>
      </trkpt>
      <trkpt lat="44.38318" lon="3.67388">
        <ele>1001</ele>
        <time>2019-12-19T01:05:42Z</time>
      </trkpt>
      <trkpt lat="44.38337" lon="3.67397">
        <ele>1001</ele>
        <time>2019-12-19T01:05:46Z</time>
      </trkpt>
      <trkpt lat="44.3834" lon="3.674">
        <ele>1001</ele>
        <time>2019-12-19T01:05:47Z</time>
      </trkpt>
      <trkpt lat="44.3834" lon="3.67406">
        <ele>1001</ele>
        <time>2019-12-19T01:05:47Z</time>
      </trkpt>
      <trkpt lat="44.38342" lon="3.67428">
        <ele>1000</ele>
        <time>2019-12-19T01:05:50Z</time>
      </trkpt>
      <trkpt lat="44.38348" lon="3.67439">
        <ele>1000</ele>
        <time>2019-12-19T01:05:52Z</time>
      </trkpt>
      <trkpt lat="44.38367" lon="3.67451">
        <ele>1002</ele>
        <time>2019-12-19T01:05:56Z</time>
      </trkpt>
      <trkpt lat="44.38374" lon="3.67462">
        <ele>1002</ele>
        <time>2019-12-19T01:05:58Z</time>
      </trkpt>
      <trkpt lat="44.38375" lon="3.6747">
        <ele>1003</ele>
        <time>2019-12-19T01:05:59Z</time>
      </trkpt>
      <trkpt lat="44.38374" lon="3.67478">
        <ele>1003</ele>
        <time>2019-12-19T01:06:00Z</time>
      </trkpt>
      <trkpt lat="44.38365" lon="3.67495">
        <ele>1002</ele>
        <time>2019-12-19T01:06:02Z</time>
      </trkpt>
      <trkpt lat="44.38365" lon="3.67507">
        <ele>1002</ele>
        <time>2019-12-19T01:06:04Z</time>
      </trkpt>
      <trkpt lat="44.38361" lon="3.6751">
        <ele>1002</ele>
        <time>2019-12-19T01:06:05Z</time>
      </trkpt>
      <trkpt lat="44.38349" lon="3.67538">
        <ele>1001</ele>
        <time>2019-12-19T01:06:09Z</time>
      </trkpt>
      <trkpt lat="44.38342" lon="3.67579">
        <ele>1000</ele>
        <time>2019-12-19T01:06:14Z</time>
      </trkpt>
      <trkpt lat="44.38308" lon="3.67651">
        <ele>1001</ele>
        <time>2019-12-19T01:06:25Z</time>
      </trkpt>
      <trkpt lat="44.383" lon="3.67656">
        <ele>1001</ele>
        <time>2019-12-19T01:06:27Z</time>
      </trkpt>
      <trkpt lat="44.38284" lon="3.6766">
        <ele>1000</ele>
        <time>2019-12-19T01:06:30Z</time>
      </trkpt>
      <trkpt lat="44.38204" lon="3.67672">
        <ele>999</ele>
        <time>2019-12-19T01:06:44Z</time>
      </trkpt>
      <trkpt lat="44.38191" lon="3.67675">
        <ele>999</ele>
        <time>2019-12-19T01:06:46Z</time>
      </trkpt>
      <trkpt lat="44.38121" lon="3.67732">
        <ele>1004</ele>
        <time>2019-12-19T01:07:01Z</time>
      </trkpt>
      <trkpt lat="44.38114" lon="3.67741">
        <ele>1004</ele>
        <time>2019-12-19T01:07:02Z</time>
      </trkpt>
      <trkpt lat="44.38099" lon="3.67777">
        <ele>1006</ele>
        <time>2019-12-19T01:07:08Z</time>
      </trkpt>
      <trkpt lat="44.38085" lon="3.67817">
        <ele>1009</ele>
        <time>2019-12-19T01:07:13Z</time>
      </trkpt>
      <trkpt lat="44.38077" lon="3.67831">
        <ele>1010</ele>
        <time>2019-12-19T01:07:16Z</time>
      </trkpt>
      <trkpt lat="44.38066" lon="3.67842">
        <ele>1011</ele>
        <time>2019-12-19T01:07:18Z</time>
      </trkpt>
      <trkpt lat="44.38024" lon="3.67878">
        <ele>1012</ele>
        <time>2019-12-19T01:07:27Z</time>
      </trkpt>
      <trkpt lat="44.37859" lon="3.68041">
        <ele>1012</ele>
        <time>2019-12-19T01:08:03Z</time>
      </trkpt>
      <trkpt lat="44.3776" lon="3.68213">
        <ele>1007</ele>
        <time>2019-12-19T01:08:31Z</time>
      </trkpt>
      <trkpt lat="44.37729" lon="3.68249">
        <ele>1000</ele>
        <time>2019-12-19T01:08:38Z</time>
      </trkpt>
      <trkpt lat="44.377" lon="3.68376">
        <ele>996</ele>
        <time>2019-12-19T01:08:55Z</time>
      </trkpt>
      <trkpt lat="44.37702" lon="3.68394">
        <ele>996</ele>
        <time>2019-12-19T01:08:57Z</time>
      </trkpt>
      <trkpt lat="44.3771" lon="3.68409">
        <ele>999</ele>
        <time>2019-12-19T01:09:00Z</time>
      </trkpt>
      <trkpt lat="44.37725" lon="3.68426">
        <ele>1001</ele>
        <time>2019-12-19T01:09:03Z</time>
      </trkpt>
      <trkpt lat="44.3774" lon="3.68435">
        <ele>1004</ele>
        <time>2019-12-19T01:09:06Z</time>
      </trkpt>
      <trkpt lat="44.37762" lon="3.68442">
        <ele>1007</ele>
        <time>2019-12-19T01:09:10Z</time>
      </trkpt>
      <trkpt lat="44.37776" lon="3.68454">
        <ele>1007</ele>
        <time>2019-12-19T01:09:13Z</time>
      </trkpt>
      <trkpt lat="44.37785" lon="3.68469">
        <ele>1005</ele>
        <time>2019-12-19T01:09:15Z</time>
      </trkpt>
      <trkpt lat="44.37801" lon="3.68513">
        <ele>1000</ele>
        <time>2019-12-19T01:09:22Z</time>
      </trkpt>
      <trkpt lat="44.37812" lon="3.68523">
        <ele>1000</ele>
        <time>2019-12-19T01:09:24Z</time>
      </trkpt>
      <trkpt lat="44.37827" lon="3.68527">
        <ele>1001</ele>
        <time>2019-12-19T01:09:27Z</time>
      </trkpt>
      <trkpt lat="44.37865" lon="3.68527">
        <ele>1007</ele>
        <time>2019-12-19T01:09:34Z</time>
      </trkpt>
      <trkpt lat="44.3788" lon="3.6853">
        <ele>1009</ele>
        <time>2019-12-19T01:09:36Z</time>
      </trkpt>
      <trkpt lat="44.37891" lon="3.68537">
        <ele>1009</ele>
        <time>2019-12-19T01:09:38Z</time>
      </trkpt>
      <trkpt lat="44.37902" lon="3.68551">
        <ele>1008</ele>
        <time>2019-12-19T01:09:41Z</time>
      </trkpt>
      <trkpt lat="44.3791" lon="3.68572">
        <ele>1005</ele>
        <time>2019-12-19T01:09:44Z</time>
      </trkpt>
      <trkpt lat="44.37917" lon="3.68602">
        <ele>1000</ele>
        <time>2019-12-19T01:09:48Z</time>
      </trkpt>
      <trkpt lat="44.37919" lon="3.68637">
        <ele>995</ele>
        <time>2019-12-19T01:09:53Z</time>
      </trkpt>
      <trkpt lat="44.37926" lon="3.68649">
        <ele>995</ele>
        <time>2019-12-19T01:09:55Z</time>
      </trkpt>
      <trkpt lat="44.37933" lon="3.68658">
        <ele>995</ele>
        <time>2019-12-19T01:09:56Z</time>
      </trkpt>
      <trkpt lat="44.37949" lon="3.68672">
        <ele>996</ele>
        <time>2019-12-19T01:10:00Z</time>
      </trkpt>
      <trkpt lat="44.37953" lon="3.68679">
        <ele>996</ele>
        <time>2019-12-19T01:10:01Z</time>
      </trkpt>
      <trkpt lat="44.37956" lon="3.68691">
        <ele>996</ele>
        <time>2019-12-19T01:10:02Z</time>
      </trkpt>
      <trkpt lat="44.37955" lon="3.68736">
        <ele>991</ele>
        <time>2019-12-19T01:10:08Z</time>
      </trkpt>
      <trkpt lat="44.37958" lon="3.68746">
        <ele>991</ele>
        <time>2019-12-19T01:10:09Z</time>
      </trkpt>
      <trkpt lat="44.37969" lon="3.68767">
        <ele>991</ele>
        <time>2019-12-19T01:10:13Z</time>
      </trkpt>
      <trkpt lat="44.37973" lon="3.68782">
        <ele>991</ele>
        <time>2019-12-19T01:10:15Z</time>
      </trkpt>
      <trkpt lat="44.37975" lon="3.688">
        <ele>991</ele>
        <time>2019-12-19T01:10:17Z</time>
      </trkpt>
      <trkpt lat="44.3797" lon="3.68831">
        <ele>987</ele>
        <time>2019-12-19T01:10:21Z</time>
      </trkpt>
      <trkpt lat="44.3797" lon="3.68854">
        <ele>984</ele>
        <time>2019-12-19T01:10:24Z</time>
      </trkpt>
      <trkpt lat="44.37975" lon="3.68875">
        <ele>983</ele>
        <time>2019-12-19T01:10:27Z</time>
      </trkpt>
      <trkpt lat="44.37984" lon="3.68905">
        <ele>984</ele>
        <time>2019-12-19T01:10:31Z</time>
      </trkpt>
      <trkpt lat="44.38003" lon="3.68978">
        <ele>979</ele>
        <time>2019-12-19T01:10:41Z</time>
      </trkpt>
      <trkpt lat="44.3801" lon="3.68989">
        <ele>979</ele>
        <time>2019-12-19T01:10:43Z</time>
      </trkpt>
      <trkpt lat="44.38021" lon="3.69001">
        <ele>981</ele>
        <time>2019-12-19T01:10:45Z</time>
      </trkpt>
      <trkpt lat="44.38061" lon="3.69019">
        <ele>988</ele>
        <time>2019-12-19T01:10:53Z</time>
      </trkpt>
      <trkpt lat="44.38074" lon="3.69033">
        <ele>988</ele>
        <time>2019-12-19T01:10:56Z</time>
      </trkpt>
      <trkpt lat="44.38093" lon="3.69066">
        <ele>985</ele>
        <time>2019-12-19T01:11:01Z</time>
      </trkpt>
      <trkpt lat="44.381" lon="3.6908">
        <ele>984</ele>
        <time>2019-12-19T01:11:03Z</time>
      </trkpt>
      <trkpt lat="44.38105" lon="3.69099">
        <ele>984</ele>
        <time>2019-12-19T01:11:06Z</time>
      </trkpt>
      <trkpt lat="44.38111" lon="3.69159">
        <ele>981</ele>
        <time>2019-12-19T01:11:13Z</time>
      </trkpt>
      <trkpt lat="44.38115" lon="3.69177">
        <ele>983</ele>
        <time>2019-12-19T01:11:16Z</time>
      </trkpt>
      <trkpt lat="44.38133" lon="3.69211">
        <ele>992</ele>
        <time>2019-12-19T01:11:21Z</time>
      </trkpt>
      <trkpt lat="44.38135" lon="3.69223">
        <ele>994</ele>
        <time>2019-12-19T01:11:23Z</time>
      </trkpt>
      <trkpt lat="44.38132" lon="3.69236">
        <ele>996</ele>
        <time>2019-12-19T01:11:25Z</time>
      </trkpt>
      <trkpt lat="44.38125" lon="3.69243">
        <ele>996</ele>
        <time>2019-12-19T01:11:26Z</time>
      </trkpt>
      <trkpt lat="44.38112" lon="3.69242">
        <ele>995</ele>
        <time>2019-12-19T01:11:28Z</time>
      </trkpt>
      <trkpt lat="44.38094" lon="3.69237">
        <ele>992</ele>
        <time>2019-12-19T01:11:32Z</time>
      </trkpt>
      <trkpt lat="44.38078" lon="3.69229">
        <ele>990</ele>
        <time>2019-12-19T01:11:35Z</time>
      </trkpt>
      <trkpt lat="44.38069" lon="3.6922">
        <ele>988</ele>
        <time>2019-12-19T01:11:37Z</time>
      </trkpt>
      <trkpt lat="44.38058" lon="3.69199">
        <ele>984</ele>
        <time>2019-12-19T01:11:40Z</time>
      </trkpt>
      <trkpt lat="44.38048" lon="3.69188">
        <ele>981</ele>
        <time>2019-12-19T01:11:42Z</time>
      </trkpt>
      <trkpt lat="44.38037" lon="3.69181">
        <ele>980</ele>
        <time>2019-12-19T01:11:44Z</time>
      </trkpt>
      <trkpt lat="44.38026" lon="3.69177">
        <ele>979</ele>
        <time>2019-12-19T01:11:46Z</time>
      </trkpt>
      <trkpt lat="44.37992" lon="3.69176">
        <ele>981</ele>
        <time>2019-12-19T01:11:52Z</time>
      </trkpt>
      <trkpt lat="44.37867" lon="3.69178">
        <ele>995</ele>
        <time>2019-12-19T01:12:15Z</time>
      </trkpt>
      <trkpt lat="44.37857" lon="3.69173">
        <ele>995</ele>
        <time>2019-12-19T01:12:17Z</time>
      </trkpt>
      <trkpt lat="44.37817" lon="3.69138">
        <ele>987</ele>
        <time>2019-12-19T01:12:25Z</time>
      </trkpt>
      <trkpt lat="44.37803" lon="3.69134">
        <ele>986</ele>
        <time>2019-12-19T01:12:28Z</time>
      </trkpt>
      <trkpt lat="44.3778" lon="3.69138">
        <ele>989</ele>
        <time>2019-12-19T01:12:32Z</time>
      </trkpt>
      <trkpt lat="44.37703" lon="3.69173">
        <ele>1004</ele>
        <time>2019-12-19T01:12:46Z</time>
      </trkpt>
      <trkpt lat="44.3769" lon="3.69172">
        <ele>1004</ele>
        <time>2019-12-19T01:12:48Z</time>
      </trkpt>
      <trkpt lat="44.37677" lon="3.69166">
        <ele>1003</ele>
        <time>2019-12-19T01:12:51Z</time>
      </trkpt>
      <trkpt lat="44.37669" lon="3.69157">
        <ele>1002</ele>
        <time>2019-12-19T01:12:53Z</time>
      </trkpt>
      <trkpt lat="44.37648" lon="3.69113">
        <ele>998</ele>
        <time>2019-12-19T01:12:59Z</time>
      </trkpt>
      <trkpt lat="44.37639" lon="3.69102">
        <ele>998</ele>
        <time>2019-12-19T01:13:01Z</time>
      </trkpt>
      <trkpt lat="44.37526" lon="3.69018">
        <ele>1000</ele>
        <time>2019-12-19T01:13:24Z</time>
      </trkpt>
      <trkpt lat="44.37513" lon="3.69013">
        <ele>1002</ele>
        <time>2019-12-19T01:13:27Z</time>
      </trkpt>
      <trkpt lat="44.37476" lon="3.69009">
        <ele>1001</ele>
        <time>2019-12-19T01:13:33Z</time>
      </trkpt>
      <trkpt lat="44.37465" lon="3.69012">
        <ele>1001</ele>
        <time>2019-12-19T01:13:35Z</time>
      </trkpt>
      <trkpt lat="44.37454" lon="3.69021">
        <ele>1001</ele>
        <time>2019-12-19T01:13:38Z</time>
      </trkpt>
      <trkpt lat="44.37445" lon="3.69036">
        <ele>1002</ele>
        <time>2019-12-19T01:13:40Z</time>
      </trkpt>
      <trkpt lat="44.37438" lon="3.69064">
        <ele>1007</ele>
        <time>2019-12-19T01:13:44Z</time>
      </trkpt>
      <trkpt lat="44.37422" lon="3.69158">
        <ele>1016</ele>
        <time>2019-12-19T01:13:56Z</time>
      </trkpt>
      <trkpt lat="44.37418" lon="3.69208">
        <ele>1024</ele>
        <time>2019-12-19T01:14:02Z</time>
      </trkpt>
      <trkpt lat="44.3738" lon="3.69361">
        <ele>1035</ele>
        <time>2019-12-19T01:14:23Z</time>
      </trkpt>
      <trkpt lat="44.37376" lon="3.69377">
        <ele>1037</ele>
        <time>2019-12-19T01:14:25Z</time>
      </trkpt>
      <trkpt lat="44.37359" lon="3.69406">
        <ele>1039</ele>
        <time>2019-12-19T01:14:30Z</time>
      </trkpt>
      <trkpt lat="44.37345" lon="3.69417">
        <ele>1038</ele>
        <time>2019-12-19T01:14:33Z</time>
      </trkpt>
      <trkpt lat="44.37329" lon="3.69421">
        <ele>1036</ele>
        <time>2019-12-19T01:14:36Z</time>
      </trkpt>
      <trkpt lat="44.37311" lon="3.6942">
        <ele>1036</ele>
        <time>2019-12-19T01:14:39Z</time>
      </trkpt>
      <trkpt lat="44.37276" lon="3.6941">
        <ele>1034</ele>
        <time>2019-12-19T01:14:45Z</time>
      </trkpt>
      <trkpt lat="44.37239" lon="3.69406">
        <ele>1034</ele>
        <time>2019-12-19T01:14:52Z</time>
      </trkpt>
      <trkpt lat="44.37227" lon="3.69402">
        <ele>1033</ele>
        <time>2019-12-19T01:14:54Z</time>
      </trkpt>
      <trkpt lat="44.37216" lon="3.69396">
        <ele>1033</ele>
        <time>2019-12-19T01:14:56Z</time>
      </trkpt>
      <trkpt lat="44.37208" lon="3.69394">
        <ele>1033</ele>
        <time>2019-12-19T01:14:58Z</time>
      </trkpt>
      <trkpt lat="44.37194" lon="3.69397">
        <ele>1034</ele>
        <time>2019-12-19T01:15:00Z</time>
      </trkpt>
      <trkpt lat="44.3718" lon="3.69403">
        <ele>1036</ele>
        <time>2019-12-19T01:15:03Z</time>
      </trkpt>
      <trkpt lat="44.3717" lon="3.69414">
        <ele>1038</ele>
        <time>2019-12-19T01:15:05Z</time>
      </trkpt>
      <trkpt lat="44.37167" lon="3.69423">
        <ele>1038</ele>
        <time>2019-12-19T01:15:06Z</time>
      </trkpt>
      <trkpt lat="44.37167" lon="3.6944">
        <ele>1038</ele>
        <time>2019-12-19T01:15:08Z</time>
      </trkpt>
      <trkpt lat="44.37175" lon="3.6946">
        <ele>1039</ele>
        <time>2019-12-19T01:15:11Z</time>
      </trkpt>
      <trkpt lat="44.37184" lon="3.69474">
        <ele>1040</ele>
        <time>2019-12-19T01:15:14Z</time>
      </trkpt>
      <trkpt lat="44.37205" lon="3.69496">
        <ele>1042</ele>
        <time>2019-12-19T01:15:18Z</time>
      </trkpt>
      <trkpt lat="44.37227" lon="3.69523">
        <ele>1043</ele>
        <time>2019-12-19T01:15:24Z</time>
      </trkpt>
      <trkpt lat="44.37255" lon="3.69579">
        <ele>1045</ele>
        <time>2019-12-19T01:15:32Z</time>
      </trkpt>
      <trkpt lat="44.37277" lon="3.69604">
        <ele>1045</ele>
        <time>2019-12-19T01:15:37Z</time>
      </trkpt>
      <trkpt lat="44.37303" lon="3.69629">
        <ele>1045</ele>
        <time>2019-12-19T01:15:43Z</time>
      </trkpt>
      <trkpt lat="44.37311" lon="3.69633">
        <ele>1045</ele>
        <time>2019-12-19T01:15:45Z</time>
      </trkpt>
      <trkpt lat="44.37321" lon="3.69634">
        <ele>1046</ele>
        <time>2019-12-19T01:15:46Z</time>
      </trkpt>
      <trkpt lat="44.37369" lon="3.69619">
        <ele>1056</ele>
        <time>2019-12-19T01:15:55Z</time>
      </trkpt>
      <trkpt lat="44.37375" lon="3.69621">
        <ele>1057</ele>
        <time>2019-12-19T01:15:56Z</time>
      </trkpt>
      <trkpt lat="44.3738" lon="3.69624">
        <ele>1057</ele>
        <time>2019-12-19T01:15:57Z</time>
      </trkpt>
      <trkpt lat="44.37387" lon="3.6963">
        <ele>1058</ele>
        <time>2019-12-19T01:15:59Z</time>
      </trkpt>
      <trkpt lat="44.3739" lon="3.69635">
        <ele>1058</ele>
        <time>2019-12-19T01:15:59Z</time>
      </trkpt>
      <trkpt lat="44.37408" lon="3.697">
        <ele>1057</ele>
        <time>2019-12-19T01:16:08Z</time>
      </trkpt>
      <trkpt lat="44.37412" lon="3.69719">
        <ele>1057</ele>
        <time>2019-12-19T01:16:11Z</time>
      </trkpt>
      <trkpt lat="44.37402" lon="3.69797">
        <ele>1057</ele>
        <time>2019-12-19T01:16:21Z</time>
      </trkpt>
      <trkpt lat="44.37386" lon="3.69849">
        <ele>1057</ele>
        <time>2019-12-19T01:16:28Z</time>
      </trkpt>
      <trkpt lat="44.3738" lon="3.69875">
        <ele>1058</ele>
        <time>2019-12-19T01:16:32Z</time>
      </trkpt>
      <trkpt lat="44.37381" lon="3.69909">
        <ele>1062</ele>
        <time>2019-12-19T01:16:36Z</time>
      </trkpt>
      <trkpt lat="44.37388" lon="3.69949">
        <ele>1063</ele>
        <time>2019-12-19T01:16:41Z</time>
      </trkpt>
      <trkpt lat="44.37392" lon="3.69989">
        <ele>1062</ele>
        <time>2019-12-19T01:16:46Z</time>
      </trkpt>
      <trkpt lat="44.37413" lon="3.70031">
        <ele>1064</ele>
        <time>2019-12-19T01:16:53Z</time>
      </trkpt>
      <trkpt lat="44.37452" lon="3.7013">
        <ele>1067</ele>
        <time>2019-12-19T01:17:07Z</time>
      </trkpt>
      <trkpt lat="44.37458" lon="3.70168">
        <ele>1064</ele>
        <time>2019-12-19T01:17:12Z</time>
      </trkpt>
      <trkpt lat="44.37467" lon="3.70206">
        <ele>1062</ele>
        <time>2019-12-19T01:17:17Z</time>
      </trkpt>
      <trkpt lat="44.37477" lon="3.70233">
        <ele>1061</ele>
        <time>2019-12-19T01:17:21Z</time>
      </trkpt>
      <trkpt lat="44.37524" lon="3.70306">
        <ele>1063</ele>
        <time>2019-12-19T01:17:34Z</time>
      </trkpt>
      <trkpt lat="44.37533" lon="3.70366">
        <ele>1057</ele>
        <time>2019-12-19T01:17:41Z</time>
      </trkpt>
      <trkpt lat="44.37589" lon="3.70461">
        <ele>1056</ele>
        <time>2019-12-19T01:17:57Z</time>
      </trkpt>
      <trkpt lat="44.37628" lon="3.70503">
        <ele>1056</ele>
        <time>2019-12-19T01:18:06Z</time>
      </trkpt>
      <trkpt lat="44.37687" lon="3.70589">
        <ele>1051</ele>
        <time>2019-12-19T01:18:21Z</time>
      </trkpt>
      <trkpt lat="44.37709" lon="3.70607">
        <ele>1051</ele>
        <time>2019-12-19T01:18:25Z</time>
      </trkpt>
      <trkpt lat="44.37765" lon="3.70635">
        <ele>1050</ele>
        <time>2019-12-19T01:18:36Z</time>
      </trkpt>
      <trkpt lat="44.37791" lon="3.70642">
        <ele>1049</ele>
        <time>2019-12-19T01:18:41Z</time>
      </trkpt>
      <trkpt lat="44.3781" lon="3.70644">
        <ele>1049</ele>
        <time>2019-12-19T01:18:44Z</time>
      </trkpt>
      <trkpt lat="44.37906" lon="3.70617">
        <ele>1054</ele>
        <time>2019-12-19T01:19:02Z</time>
      </trkpt>
      <trkpt lat="44.37914" lon="3.70617">
        <ele>1055</ele>
        <time>2019-12-19T01:19:03Z</time>
      </trkpt>
      <trkpt lat="44.37921" lon="3.70622">
        <ele>1054</ele>
        <time>2019-12-19T01:19:04Z</time>
      </trkpt>
      <trkpt lat="44.37926" lon="3.7063">
        <ele>1054</ele>
        <time>2019-12-19T01:19:06Z</time>
      </trkpt>
      <trkpt lat="44.37936" lon="3.70676">
        <ele>1047</ele>
        <time>2019-12-19T01:19:12Z</time>
      </trkpt>
      <trkpt lat="44.37961" lon="3.70729">
        <ele>1042</ele>
        <time>2019-12-19T01:19:20Z</time>
      </trkpt>
      <trkpt lat="44.37974" lon="3.7074">
        <ele>1042</ele>
        <time>2019-12-19T01:19:23Z</time>
      </trkpt>
      <trkpt lat="44.3799" lon="3.70748">
        <ele>1042</ele>
        <time>2019-12-19T01:19:26Z</time>
      </trkpt>
      <trkpt lat="44.38013" lon="3.70753">
        <ele>1045</ele>
        <time>2019-12-19T01:19:30Z</time>
      </trkpt>
      <trkpt lat="44.38026" lon="3.7076">
        <ele>1047</ele>
        <time>2019-12-19T01:19:32Z</time>
      </trkpt>
      <trkpt lat="44.38034" lon="3.70768">
        <ele>1047</ele>
        <time>2019-12-19T01:19:34Z</time>
      </trkpt>
      <trkpt lat="44.38044" lon="3.70783">
        <ele>1047</ele>
        <time>2019-12-19T01:19:37Z</time>
      </trkpt>
      <trkpt lat="44.38052" lon="3.70803">
        <ele>1046</ele>
        <time>2019-12-19T01:19:40Z</time>
      </trkpt>
      <trkpt lat="44.3806" lon="3.70828">
        <ele>1045</ele>
        <time>2019-12-19T01:19:43Z</time>
      </trkpt>
      <trkpt lat="44.38062" lon="3.70848">
        <ele>1045</ele>
        <time>2019-12-19T01:19:46Z</time>
      </trkpt>
      <trkpt lat="44.3806" lon="3.70866">
        <ele>1046</ele>
        <time>2019-12-19T01:19:48Z</time>
      </trkpt>
      <trkpt lat="44.38055" lon="3.70881">
        <ele>1046</ele>
        <time>2019-12-19T01:19:50Z</time>
      </trkpt>
      <trkpt lat="44.38043" lon="3.709">
        <ele>1045</ele>
        <time>2019-12-19T01:19:53Z</time>
      </trkpt>
      <trkpt lat="44.38036" lon="3.70905">
        <ele>1045</ele>
        <time>2019-12-19T01:19:55Z</time>
      </trkpt>
      <trkpt lat="44.38005" lon="3.70905">
        <ele>1042</ele>
        <time>2019-12-19T01:20:00Z</time>
      </trkpt>
      <trkpt lat="44.37883" lon="3.70931">
        <ele>1043</ele>
        <time>2019-12-19T01:20:22Z</time>
      </trkpt>
      <trkpt lat="44.3781" lon="3.70966">
        <ele>1048</ele>
        <time>2019-12-19T01:20:36Z</time>
      </trkpt>
      <trkpt lat="44.37746" lon="3.71006">
        <ele>1049</ele>
        <time>2019-12-19T01:20:48Z</time>
      </trkpt>
      <trkpt lat="44.37712" lon="3.71035">
        <ele>1053</ele>
        <time>2019-12-19T01:20:55Z</time>
      </trkpt>
      <trkpt lat="44.37653" lon="3.71059">
        <ele>1051</ele>
        <time>2019-12-19T01:21:06Z</time>
      </trkpt>
      <trkpt lat="44.3762" lon="3.71076">
        <ele>1053</ele>
        <time>2019-12-19T01:21:13Z</time>
      </trkpt>
      <trkpt lat="44.37559" lon="3.71126">
        <ele>1063</ele>
        <time>2019-12-19T01:21:25Z</time>
      </trkpt>
      <trkpt lat="44.3754" lon="3.71126">
        <ele>1063</ele>
        <time>2019-12-19T01:21:29Z</time>
      </trkpt>
      <trkpt lat="44.37481" lon="3.71102">
        <ele>1055</ele>
        <time>2019-12-19T01:21:39Z</time>
      </trkpt>
      <trkpt lat="44.37412" lon="3.71113">
        <ele>1061</ele>
        <time>2019-12-19T01:21:52Z</time>
      </trkpt>
      <trkpt lat="44.37373" lon="3.71144">
        <ele>1062</ele>
        <time>2019-12-19T01:22:00Z</time>
      </trkpt>
      <trkpt lat="44.37275" lon="3.71308">
        <ele>1074</ele>
        <time>2019-12-19T01:22:27Z</time>
      </trkpt>
      <trkpt lat="44.37234" lon="3.71361">
        <ele>1072</ele>
        <time>2019-12-19T01:22:37Z</time>
      </trkpt>
      <trkpt lat="44.37217" lon="3.71386">
        <ele>1070</ele>
        <time>2019-12-19T01:22:41Z</time>
      </trkpt>
      <trkpt lat="44.37176" lon="3.71506">
        <ele>1076</ele>
        <time>2019-12-19T01:22:58Z</time>
      </trkpt>
      <trkpt lat="44.37168" lon="3.7157">
        <ele>1082</ele>
        <time>2019-12-19T01:23:06Z</time>
      </trkpt>
      <trkpt lat="44.37156" lon="3.71607">
        <ele>1086</ele>
        <time>2019-12-19T01:23:12Z</time>
      </trkpt>
      <trkpt lat="44.37133" lon="3.71658">
        <ele>1090</ele>
        <time>2019-12-19T01:23:19Z</time>
      </trkpt>
      <trkpt lat="44.36992" lon="3.71829">
        <ele>1087</ele>
        <time>2019-12-19T01:23:53Z</time>
      </trkpt>
      <trkpt lat="44.36964" lon="3.71873">
        <ele>1085</ele>
        <time>2019-12-19T01:24:00Z</time>
      </trkpt>
      <trkpt lat="44.36943" lon="3.71919">
        <ele>1082</ele>
        <time>2019-12-19T01:24:07Z</time>
      </trkpt>
      <trkpt lat="44.36934" lon="3.71955">
        <ele>1080</ele>
        <time>2019-12-19T01:24:12Z</time>
      </trkpt>
      <trkpt lat="44.36927" lon="3.71994">
        <ele>1077</ele>
        <time>2019-12-19T01:24:17Z</time>
      </trkpt>
      <trkpt lat="44.36919" lon="3.72013">
        <ele>1077</ele>
        <time>2019-12-19T01:24:20Z</time>
      </trkpt>
      <trkpt lat="44.36901" lon="3.72033">
        <ele>1077</ele>
        <time>2019-12-19T01:24:24Z</time>
      </trkpt>
      <trkpt lat="44.36806" lon="3.72097">
        <ele>1071</ele>
        <time>2019-12-19T01:24:43Z</time>
      </trkpt>
      <trkpt lat="44.36747" lon="3.72131">
        <ele>1069</ele>
        <time>2019-12-19T01:24:54Z</time>
      </trkpt>
      <trkpt lat="44.3656" lon="3.72217">
        <ele>1043</ele>
        <time>2019-12-19T01:25:29Z</time>
      </trkpt>
      <trkpt lat="44.3654" lon="3.72244">
        <ele>1043</ele>
        <time>2019-12-19T01:25:34Z</time>
      </trkpt>
      <trkpt lat="44.36532" lon="3.72278">
        <ele>1039</ele>
        <time>2019-12-19T01:25:38Z</time>
      </trkpt>
      <trkpt lat="44.36532" lon="3.72293">
        <ele>1037</ele>
        <time>2019-12-19T01:25:40Z</time>
      </trkpt>
      <trkpt lat="44.36535" lon="3.72307">
        <ele>1036</ele>
        <time>2019-12-19T01:25:42Z</time>
      </trkpt>
      <trkpt lat="44.3655" lon="3.7233">
        <ele>1037</ele>
        <time>2019-12-19T01:25:46Z</time>
      </trkpt>
      <trkpt lat="44.36572" lon="3.72341">
        <ele>1040</ele>
        <time>2019-12-19T01:25:50Z</time>
      </trkpt>
      <trkpt lat="44.36618" lon="3.72349">
        <ele>1045</ele>
        <time>2019-12-19T01:25:59Z</time>
      </trkpt>
      <trkpt lat="44.3664" lon="3.72356">
        <ele>1046</ele>
        <time>2019-12-19T01:26:03Z</time>
      </trkpt>
      <trkpt lat="44.36696" lon="3.72403">
        <ele>1044</ele>
        <time>2019-12-19T01:26:14Z</time>
      </trkpt>
      <trkpt lat="44.36712" lon="3.72426">
        <ele>1044</ele>
        <time>2019-12-19T01:26:18Z</time>
      </trkpt>
      <trkpt lat="44.36715" lon="3.7245">
        <ele>1044</ele>
        <time>2019-12-19T01:26:21Z</time>
      </trkpt>
      <trkpt lat="44.36704" lon="3.7247">
        <ele>1041</ele>
        <time>2019-12-19T01:26:25Z</time>
      </trkpt>
      <trkpt lat="44.36661" lon="3.72512">
        <ele>1030</ele>
        <time>2019-12-19T01:26:34Z</time>
      </trkpt>
      <trkpt lat="44.36647" lon="3.7253">
        <ele>1029</ele>
        <time>2019-12-19T01:26:37Z</time>
      </trkpt>
      <trkpt lat="44.36608" lon="3.72596">
        <ele>1026</ele>
        <time>2019-12-19T01:26:48Z</time>
      </trkpt>
      <trkpt lat="44.36574" lon="3.72649">
        <ele>1023</ele>
        <time>2019-12-19T01:26:57Z</time>
      </trkpt>
      <trkpt lat="44.36541" lon="3.7269">
        <ele>1019</ele>
        <time>2019-12-19T01:27:05Z</time>
      </trkpt>
      <trkpt lat="44.36518" lon="3.72713">
        <ele>1017</ele>
        <time>2019-12-19T01:27:10Z</time>
      </trkpt>
      <trkpt lat="44.36496" lon="3.72726">
        <ele>1014</ele>
        <time>2019-12-19T01:27:14Z</time>
      </trkpt>
      <trkpt lat="44.36446" lon="3.72743">
        <ele>1004</ele>
        <time>2019-12-19T01:27:24Z</time>
      </trkpt>
      <trkpt lat="44.36432" lon="3.72752">
        <ele>1002</ele>
        <time>2019-12-19T01:27:26Z</time>
      </trkpt>
      <trkpt lat="44.36423" lon="3.72772">
        <ele>1000</ele>
        <time>2019-12-19T01:27:29Z</time>
      </trkpt>
      <trkpt lat="44.36416" lon="3.72851">
        <ele>1002</ele>
        <time>2019-12-19T01:27:39Z</time>
      </trkpt>
      <trkpt lat="44.36408" lon="3.72875">
        <ele>1000</ele>
        <time>2019-12-19T01:27:43Z</time>
      </trkpt>
      <trkpt lat="44.36371" lon="3.72945">
        <ele>987</ele>
        <time>2019-12-19T01:27:54Z</time>
      </trkpt>
      <trkpt lat="44.36367" lon="3.72974">
        <ele>986</ele>
        <time>2019-12-19T01:27:58Z</time>
      </trkpt>
      <trkpt lat="44.3637" lon="3.73001">
        <ele>987</ele>
        <time>2019-12-19T01:28:01Z</time>
      </trkpt>
      <trkpt lat="44.36399" lon="3.7306">
        <ele>992</ele>
        <time>2019-12-19T01:28:10Z</time>
      </trkpt>
      <trkpt lat="44.36404" lon="3.73087">
        <ele>991</ele>
        <time>2019-12-19T01:28:14Z</time>
      </trkpt>
      <trkpt lat="44.36402" lon="3.73127">
        <ele>988</ele>
        <time>2019-12-19T01:28:19Z</time>
      </trkpt>
      <trkpt lat="44.36385" lon="3.73189">
        <ele>978</ele>
        <time>2019-12-19T01:28:27Z</time>
      </trkpt>
      <trkpt lat="44.3632" lon="3.73319">
        <ele>960</ele>
        <time>2019-12-19T01:28:48Z</time>
      </trkpt>
      <trkpt lat="44.36314" lon="3.7335">
        <ele>956</ele>
        <time>2019-12-19T01:28:52Z</time>
      </trkpt>
      <trkpt lat="44.36318" lon="3.73374">
        <ele>954</ele>
        <time>2019-12-19T01:28:55Z</time>
      </trkpt>
      <trkpt lat="44.36335" lon="3.73388">
        <ele>954</ele>
        <time>2019-12-19T01:28:58Z</time>
      </trkpt>
      <trkpt lat="44.36402" lon="3.73392">
        <ele>953</ele>
        <time>2019-12-19T01:29:10Z</time>
      </trkpt>
      <trkpt lat="44.36477" lon="3.73351">
        <ele>959</ele>
        <time>2019-12-19T01:29:25Z</time>
      </trkpt>
      <trkpt lat="44.36508" lon="3.73352">
        <ele>955</ele>
        <time>2019-12-19T01:29:30Z</time>
      </trkpt>
      <trkpt lat="44.36589" lon="3.73379">
        <ele>939</ele>
        <time>2019-12-19T01:29:45Z</time>
      </trkpt>
      <trkpt lat="44.36614" lon="3.73379">
        <ele>937</ele>
        <time>2019-12-19T01:29:49Z</time>
      </trkpt>
      <trkpt lat="44.36628" lon="3.73375">
        <ele>938</ele>
        <time>2019-12-19T01:29:52Z</time>
      </trkpt>
      <trkpt lat="44.36684" lon="3.73345">
        <ele>946</ele>
        <time>2019-12-19T01:30:02Z</time>
      </trkpt>
      <trkpt lat="44.36707" lon="3.73341">
        <ele>948</ele>
        <time>2019-12-19T01:30:07Z</time>
      </trkpt>
      <trkpt lat="44.36714" lon="3.73344">
        <ele>948</ele>
        <time>2019-12-19T01:30:08Z</time>
      </trkpt>
      <trkpt lat="44.36718" lon="3.73351">
        <ele>947</ele>
        <time>2019-12-19T01:30:09Z</time>
      </trkpt>
      <trkpt lat="44.36722" lon="3.73376">
        <ele>941</ele>
        <time>2019-12-19T01:30:12Z</time>
      </trkpt>
      <trkpt lat="44.36727" lon="3.7339">
        <ele>938</ele>
        <time>2019-12-19T01:30:14Z</time>
      </trkpt>
      <trkpt lat="44.36741" lon="3.73409">
        <ele>935</ele>
        <time>2019-12-19T01:30:18Z</time>
      </trkpt>
      <trkpt lat="44.36745" lon="3.73417">
        <ele>934</ele>
        <time>2019-12-19T01:30:19Z</time>
      </trkpt>
      <trkpt lat="44.36745" lon="3.73426">
        <ele>934</ele>
        <time>2019-12-19T01:30:20Z</time>
      </trkpt>
      <trkpt lat="44.36743" lon="3.73437">
        <ele>934</ele>
        <time>2019-12-19T01:30:22Z</time>
      </trkpt>
      <trkpt lat="44.36738" lon="3.7345">
        <ele>933</ele>
        <time>2019-12-19T01:30:23Z</time>
      </trkpt>
      <trkpt lat="44.3673" lon="3.73455">
        <ele>931</ele>
        <time>2019-12-19T01:30:25Z</time>
      </trkpt>
      <trkpt lat="44.36726" lon="3.73473">
        <ele>929</ele>
        <time>2019-12-19T01:30:27Z</time>
      </trkpt>
      <trkpt lat="44.36698" lon="3.73564">
        <ele>921</ele>
        <time>2019-12-19T01:30:40Z</time>
      </trkpt>
      <trkpt lat="44.36676" lon="3.73617">
        <ele>913</ele>
        <time>2019-12-19T01:30:48Z</time>
      </trkpt>
      <trkpt lat="44.3667" lon="3.73639">
        <ele>911</ele>
        <time>2019-12-19T01:30:51Z</time>
      </trkpt>
      <trkpt lat="44.36667" lon="3.73659">
        <ele>911</ele>
        <time>2019-12-19T01:30:53Z</time>
      </trkpt>
      <trkpt lat="44.36667" lon="3.73702">
        <ele>911</ele>
        <time>2019-12-19T01:30:59Z</time>
      </trkpt>
      <trkpt lat="44.36673" lon="3.73725">
        <ele>914</ele>
        <time>2019-12-19T01:31:02Z</time>
      </trkpt>
      <trkpt lat="44.36688" lon="3.7376">
        <ele>922</ele>
        <time>2019-12-19T01:31:07Z</time>
      </trkpt>
      <trkpt lat="44.36687" lon="3.73776">
        <ele>923</ele>
        <time>2019-12-19T01:31:09Z</time>
      </trkpt>
      <trkpt lat="44.36685" lon="3.73781">
        <ele>922</ele>
        <time>2019-12-19T01:31:10Z</time>
      </trkpt>
      <trkpt lat="44.36645" lon="3.73839">
        <ele>908</ele>
        <time>2019-12-19T01:31:20Z</time>
      </trkpt>
      <trkpt lat="44.36638" lon="3.73855">
        <ele>908</ele>
        <time>2019-12-19T01:31:23Z</time>
      </trkpt>
      <trkpt lat="44.36628" lon="3.73902">
        <ele>909</ele>
        <time>2019-12-19T01:31:29Z</time>
      </trkpt>
      <trkpt lat="44.36622" lon="3.7392">
        <ele>908</ele>
        <time>2019-12-19T01:31:31Z</time>
      </trkpt>
      <trkpt lat="44.36608" lon="3.73952">
        <ele>905</ele>
        <time>2019-12-19T01:31:36Z</time>
      </trkpt>
      <trkpt lat="44.36582" lon="3.73998">
        <ele>897</ele>
        <time>2019-12-19T01:31:44Z</time>
      </trkpt>
      <trkpt lat="44.36562" lon="3.7403">
        <ele>898</ele>
        <time>2019-12-19T01:31:49Z</time>
      </trkpt>
      <trkpt lat="44.36529" lon="3.74075">
        <ele>896</ele>
        <time>2019-12-19T01:31:57Z</time>
      </trkpt>
      <trkpt lat="44.36489" lon="3.74124">
        <ele>890</ele>
        <time>2019-12-19T01:32:07Z</time>
      </trkpt>
      <trkpt lat="44.36466" lon="3.74159">
        <ele>890</ele>
        <time>2019-12-19T01:32:13Z</time>
      </trkpt>
      <trkpt lat="44.36488" lon="3.74138">
        <ele>892</ele>
        <time>2019-12-19T01:32:17Z</time>
      </trkpt>
      <trkpt lat="44.36466" lon="3.74159">
        <ele>890</ele>
        <time>2019-12-19T01:32:22Z</time>
      </trkpt>
      <trkpt lat="44.36449" lon="3.74185">
        <ele>890</ele>
        <time>2019-12-19T01:32:27Z</time>
      </trkpt>
      <trkpt lat="44.36397" lon="3.74242">
        <ele>884</ele>
        <time>2019-12-19T01:32:38Z</time>
      </trkpt>
      <trkpt lat="44.36377" lon="3.7427">
        <ele>883</ele>
        <time>2019-12-19T01:32:43Z</time>
      </trkpt>
      <trkpt lat="44.36374" lon="3.74283">
        <ele>882</ele>
        <time>2019-12-19T01:32:45Z</time>
      </trkpt>
      <trkpt lat="44.36374" lon="3.74317">
        <ele>883</ele>
        <time>2019-12-19T01:32:50Z</time>
      </trkpt>
      <trkpt lat="44.36367" lon="3.74335">
        <ele>882</ele>
        <time>2019-12-19T01:32:52Z</time>
      </trkpt>
      <trkpt lat="44.36343" lon="3.7435">
        <ele>878</ele>
        <time>2019-12-19T01:32:57Z</time>
      </trkpt>
      <trkpt lat="44.36339" lon="3.74356">
        <ele>877</ele>
        <time>2019-12-19T01:32:58Z</time>
      </trkpt>
      <trkpt lat="44.3633" lon="3.74357">
        <ele>876</ele>
        <time>2019-12-19T01:32:59Z</time>
      </trkpt>
      <trkpt lat="44.36303" lon="3.74475">
        <ele>881</ele>
        <time>2019-12-19T01:33:15Z</time>
      </trkpt>
      <trkpt lat="44.36301" lon="3.74492">
        <ele>881</ele>
        <time>2019-12-19T01:33:17Z</time>
      </trkpt>
      <trkpt lat="44.36306" lon="3.74623">
        <ele>886</ele>
        <time>2019-12-19T01:33:34Z</time>
      </trkpt>
      <trkpt lat="44.36336" lon="3.74705">
        <ele>889</ele>
        <time>2019-12-19T01:33:46Z</time>
      </trkpt>
      <trkpt lat="44.36341" lon="3.74692">
        <ele>891</ele>
        <time>2019-12-19T01:33:48Z</time>
      </trkpt>
      <trkpt lat="44.36341" lon="3.74687">
        <ele>891</ele>
        <time>2019-12-19T01:33:48Z</time>
      </trkpt>
      <trkpt lat="44.36338" lon="3.74662">
        <ele>889</ele>
        <time>2019-12-19T01:33:52Z</time>
      </trkpt>
      <trkpt lat="44.36338" lon="3.74632">
        <ele>889</ele>
        <time>2019-12-19T01:33:55Z</time>
      </trkpt>
      <trkpt lat="44.36341" lon="3.74618">
        <ele>889</ele>
        <time>2019-12-19T01:33:57Z</time>
      </trkpt>
      <trkpt lat="44.36351" lon="3.74584">
        <ele>891</ele>
        <time>2019-12-19T01:34:02Z</time>
      </trkpt>
      <trkpt lat="44.36377" lon="3.74532">
        <ele>891</ele>
        <time>2019-12-19T01:34:10Z</time>
      </trkpt>
      <trkpt lat="44.36384" lon="3.74528">
        <ele>892</ele>
        <time>2019-12-19T01:34:11Z</time>
      </trkpt>
      <trkpt lat="44.36391" lon="3.7453">
        <ele>893</ele>
        <time>2019-12-19T01:34:13Z</time>
      </trkpt>
      <trkpt lat="44.36397" lon="3.74535">
        <ele>894</ele>
        <time>2019-12-19T01:34:14Z</time>
      </trkpt>
      <trkpt lat="44.36399" lon="3.74541">
        <ele>895</ele>
        <time>2019-12-19T01:34:15Z</time>
      </trkpt>
      <trkpt lat="44.36399" lon="3.74556">
        <ele>896</ele>
        <time>2019-12-19T01:34:17Z</time>
      </trkpt>
      <trkpt lat="44.36363" lon="3.74712">
        <ele>901</ele>
        <time>2019-12-19T01:34:37Z</time>
      </trkpt>
      <trkpt lat="44.36363" lon="3.7472">
        <ele>902</ele>
        <time>2019-12-19T01:34:38Z</time>
      </trkpt>
      <trkpt lat="44.36366" lon="3.74728">
        <ele>904</ele>
        <time>2019-12-19T01:34:40Z</time>
      </trkpt>
      <trkpt lat="44.36372" lon="3.74728">
        <ele>906</ele>
        <time>2019-12-19T01:34:41Z</time>
      </trkpt>
      <trkpt lat="44.36374" lon="3.74724">
        <ele>907</ele>
        <time>2019-12-19T01:34:41Z</time>
      </trkpt>
      <trkpt lat="44.3638" lon="3.7469">
        <ele>905</ele>
        <time>2019-12-19T01:34:46Z</time>
      </trkpt>
      <trkpt lat="44.36388" lon="3.74668">
        <ele>906</ele>
        <time>2019-12-19T01:34:49Z</time>
      </trkpt>
      <trkpt lat="44.36393" lon="3.7466">
        <ele>906</ele>
        <time>2019-12-19T01:34:50Z</time>
      </trkpt>
      <trkpt lat="44.36399" lon="3.74656">
        <ele>908</ele>
        <time>2019-12-19T01:34:51Z</time>
      </trkpt>
      <trkpt lat="44.36436" lon="3.74646">
        <ele>914</ele>
        <time>2019-12-19T01:34:58Z</time>
      </trkpt>
      <trkpt lat="44.36464" lon="3.74644">
        <ele>916</ele>
        <time>2019-12-19T01:35:03Z</time>
      </trkpt>
      <trkpt lat="44.36489" lon="3.74648">
        <ele>919</ele>
        <time>2019-12-19T01:35:08Z</time>
      </trkpt>
      <trkpt lat="44.36521" lon="3.7466">
        <ele>923</ele>
        <time>2019-12-19T01:35:14Z</time>
      </trkpt>
      <trkpt lat="44.36518" lon="3.74668">
        <ele>925</ele>
        <time>2019-12-19T01:35:15Z</time>
      </trkpt>
      <trkpt lat="44.36514" lon="3.7467">
        <ele>926</ele>
        <time>2019-12-19T01:35:15Z</time>
      </trkpt>
      <trkpt lat="44.36509" lon="3.7467">
        <ele>926</ele>
        <time>2019-12-19T01:35:16Z</time>
      </trkpt>
      <trkpt lat="44.36496" lon="3.74663">
        <ele>924</ele>
        <time>2019-12-19T01:35:19Z</time>
      </trkpt>
      <trkpt lat="44.36487" lon="3.74662">
        <ele>922</ele>
        <time>2019-12-19T01:35:20Z</time>
      </trkpt>
      <trkpt lat="44.36478" lon="3.74665">
        <ele>922</ele>
        <time>2019-12-19T01:35:22Z</time>
      </trkpt>
      <trkpt lat="44.36462" lon="3.74672">
        <ele>922</ele>
        <time>2019-12-19T01:35:25Z</time>
      </trkpt>
      <trkpt lat="44.36443" lon="3.74685">
        <ele>922</ele>
        <time>2019-12-19T01:35:29Z</time>
      </trkpt>
      <trkpt lat="44.36423" lon="3.74703">
        <ele>923</ele>
        <time>2019-12-19T01:35:33Z</time>
      </trkpt>
      <trkpt lat="44.36417" lon="3.74713">
        <ele>923</ele>
        <time>2019-12-19T01:35:35Z</time>
      </trkpt>
      <trkpt lat="44.36412" lon="3.74728">
        <ele>924</ele>
        <time>2019-12-19T01:35:37Z</time>
      </trkpt>
      <trkpt lat="44.36409" lon="3.74746">
        <ele>926</ele>
        <time>2019-12-19T01:35:39Z</time>
      </trkpt>
      <trkpt lat="44.364" lon="3.74818">
        <ele>931</ele>
        <time>2019-12-19T01:35:48Z</time>
      </trkpt>
      <trkpt lat="44.36399" lon="3.74904">
        <ele>940</ele>
        <time>2019-12-19T01:35:59Z</time>
      </trkpt>
      <trkpt lat="44.36397" lon="3.74928">
        <ele>941</ele>
        <time>2019-12-19T01:36:02Z</time>
      </trkpt>
      <trkpt lat="44.36391" lon="3.74955">
        <ele>940</ele>
        <time>2019-12-19T01:36:06Z</time>
      </trkpt>
      <trkpt lat="44.36391" lon="3.74976">
        <ele>941</ele>
        <time>2019-12-19T01:36:09Z</time>
      </trkpt>
      <trkpt lat="44.36394" lon="3.75034">
        <ele>946</ele>
        <time>2019-12-19T01:36:16Z</time>
      </trkpt>
      <trkpt lat="44.36398" lon="3.7506">
        <ele>949</ele>
        <time>2019-12-19T01:36:19Z</time>
      </trkpt>
      <trkpt lat="44.36402" lon="3.75074">
        <ele>951</ele>
        <time>2019-12-19T01:36:21Z</time>
      </trkpt>
      <trkpt lat="44.36412" lon="3.75212">
        <ele>961</ele>
        <time>2019-12-19T01:36:39Z</time>
      </trkpt>
      <trkpt lat="44.36409" lon="3.75339">
        <ele>968</ele>
        <time>2019-12-19T01:36:55Z</time>
      </trkpt>
      <trkpt lat="44.36404" lon="3.75367">
        <ele>969</ele>
        <time>2019-12-19T01:36:59Z</time>
      </trkpt>
      <trkpt lat="44.36391" lon="3.75407">
        <ele>968</ele>
        <time>2019-12-19T01:37:04Z</time>
      </trkpt>
      <trkpt lat="44.36374" lon="3.75486">
        <ele>970</ele>
        <time>2019-12-19T01:37:15Z</time>
      </trkpt>
      <trkpt lat="44.36374" lon="3.75499">
        <ele>972</ele>
        <time>2019-12-19T01:37:17Z</time>
      </trkpt>
      <trkpt lat="44.36378" lon="3.75523">
        <ele>978</ele>
        <time>2019-12-19T01:37:20Z</time>
      </trkpt>
      <trkpt lat="44.36375" lon="3.75536">
        <ele>979</ele>
        <time>2019-12-19T01:37:21Z</time>
      </trkpt>
      <trkpt lat="44.36359" lon="3.75574">
        <ele>980</ele>
        <time>2019-12-19T01:37:27Z</time>
      </trkpt>
      <trkpt lat="44.3633" lon="3.75609">
        <ele>982</ele>
        <time>2019-12-19T01:37:34Z</time>
      </trkpt>
      <trkpt lat="44.36315" lon="3.75623">
        <ele>985</ele>
        <time>2019-12-19T01:37:37Z</time>
      </trkpt>
      <trkpt lat="44.36301" lon="3.75629">
        <ele>986</ele>
        <time>2019-12-19T01:37:40Z</time>
      </trkpt>
      <trkpt lat="44.36288" lon="3.75631">
        <ele>985</ele>
        <time>2019-12-19T01:37:42Z</time>
      </trkpt>
      <trkpt lat="44.3626" lon="3.75629">
        <ele>981</ele>
        <time>2019-12-19T01:37:47Z</time>
      </trkpt>
      <trkpt lat="44.36234" lon="3.75636">
        <ele>980</ele>
        <time>2019-12-19T01:37:52Z</time>
      </trkpt>
      <trkpt lat="44.36194" lon="3.75656">
        <ele>982</ele>
        <time>2019-12-19T01:37:59Z</time>
      </trkpt>
      <trkpt lat="44.36181" lon="3.75668">
        <ele>984</ele>
        <time>2019-12-19T01:38:02Z</time>
      </trkpt>
      <trkpt lat="44.36165" lon="3.75696">
        <ele>987</ele>
        <time>2019-12-19T01:38:07Z</time>
      </trkpt>
      <trkpt lat="44.36151" lon="3.75739">
        <ele>991</ele>
        <time>2019-12-19T01:38:13Z</time>
      </trkpt>
      <trkpt lat="44.36146" lon="3.75764">
        <ele>993</ele>
        <time>2019-12-19T01:38:16Z</time>
      </trkpt>
      <trkpt lat="44.36139" lon="3.75842">
        <ele>996</ele>
        <time>2019-12-19T01:38:26Z</time>
      </trkpt>
      <trkpt lat="44.36139" lon="3.75867">
        <ele>998</ele>
        <time>2019-12-19T01:38:29Z</time>
      </trkpt>
      <trkpt lat="44.36144" lon="3.75925">
        <ele>1003</ele>
        <time>2019-12-19T01:38:37Z</time>
      </trkpt>
      <trkpt lat="44.36147" lon="3.75991">
        <ele>1006</ele>
        <time>2019-12-19T01:38:45Z</time>
      </trkpt>
      <trkpt lat="44.36145" lon="3.76043">
        <ele>1009</ele>
        <time>2019-12-19T01:38:52Z</time>
      </trkpt>
      <trkpt lat="44.3614" lon="3.76086">
        <ele>1010</ele>
        <time>2019-12-19T01:38:57Z</time>
      </trkpt>
      <trkpt lat="44.36138" lon="3.7611">
        <ele>1010</ele>
        <time>2019-12-19T01:39:00Z</time>
      </trkpt>
      <trkpt lat="44.36144" lon="3.76181">
        <ele>1014</ele>
        <time>2019-12-19T01:39:09Z</time>
      </trkpt>
      <trkpt lat="44.36152" lon="3.76207">
        <ele>1018</ele>
        <time>2019-12-19T01:39:13Z</time>
      </trkpt>
      <trkpt lat="44.36159" lon="3.76248">
        <ele>1020</ele>
        <time>2019-12-19T01:39:18Z</time>
      </trkpt>
      <trkpt lat="44.36191" lon="3.7629">
        <ele>1026</ele>
        <time>2019-12-19T01:39:26Z</time>
      </trkpt>
      <trkpt lat="44.36215" lon="3.7634">
        <ele>1026</ele>
        <time>2019-12-19T01:39:34Z</time>
      </trkpt>
      <trkpt lat="44.36221" lon="3.76345">
        <ele>1027</ele>
        <time>2019-12-19T01:39:35Z</time>
      </trkpt>
      <trkpt lat="44.36229" lon="3.76348">
        <ele>1028</ele>
        <time>2019-12-19T01:39:36Z</time>
      </trkpt>
      <trkpt lat="44.36237" lon="3.76347">
        <ele>1030</ele>
        <time>2019-12-19T01:39:38Z</time>
      </trkpt>
      <trkpt lat="44.36245" lon="3.76343">
        <ele>1032</ele>
        <time>2019-12-19T01:39:39Z</time>
      </trkpt>
      <trkpt lat="44.3627" lon="3.76321">
        <ele>1035</ele>
        <time>2019-12-19T01:39:45Z</time>
      </trkpt>
      <trkpt lat="44.36278" lon="3.76312">
        <ele>1035</ele>
        <time>2019-12-19T01:39:46Z</time>
      </trkpt>
      <trkpt lat="44.3629" lon="3.76291">
        <ele>1038</ele>
        <time>2019-12-19T01:39:50Z</time>
      </trkpt>
      <trkpt lat="44.36386" lon="3.76166">
        <ele>1055</ele>
        <time>2019-12-19T01:40:13Z</time>
      </trkpt>
      <trkpt lat="44.36396" lon="3.76159">
        <ele>1055</ele>
        <time>2019-12-19T01:40:15Z</time>
      </trkpt>
      <trkpt lat="44.36423" lon="3.76155">
        <ele>1054</ele>
        <time>2019-12-19T01:40:20Z</time>
      </trkpt>
      <trkpt lat="44.36447" lon="3.76138">
        <ele>1056</ele>
        <time>2019-12-19T01:40:25Z</time>
      </trkpt>
      <trkpt lat="44.36468" lon="3.7612">
        <ele>1060</ele>
        <time>2019-12-19T01:40:29Z</time>
      </trkpt>
      <trkpt lat="44.36507" lon="3.76091">
        <ele>1068</ele>
        <time>2019-12-19T01:40:37Z</time>
      </trkpt>
      <trkpt lat="44.36585" lon="3.76057">
        <ele>1075</ele>
        <time>2019-12-19T01:40:52Z</time>
      </trkpt>
      <trkpt lat="44.36605" lon="3.76043">
        <ele>1079</ele>
        <time>2019-12-19T01:40:56Z</time>
      </trkpt>
      <trkpt lat="44.36642" lon="3.76008">
        <ele>1085</ele>
        <time>2019-12-19T01:41:04Z</time>
      </trkpt>
      <trkpt lat="44.36665" lon="3.7599">
        <ele>1086</ele>
        <time>2019-12-19T01:41:08Z</time>
      </trkpt>
      <trkpt lat="44.36711" lon="3.75939">
        <ele>1099</ele>
        <time>2019-12-19T01:41:19Z</time>
      </trkpt>
      <trkpt lat="44.36727" lon="3.7593">
        <ele>1101</ele>
        <time>2019-12-19T01:41:22Z</time>
      </trkpt>
      <trkpt lat="44.36737" lon="3.75935">
        <ele>1101</ele>
        <time>2019-12-19T01:41:24Z</time>
      </trkpt>
      <trkpt lat="44.36745" lon="3.75953">
        <ele>1100</ele>
        <time>2019-12-19T01:41:26Z</time>
      </trkpt>
      <trkpt lat="44.36751" lon="3.75983">
        <ele>1099</ele>
        <time>2019-12-19T01:41:30Z</time>
      </trkpt>
      <trkpt lat="44.36751" lon="3.76015">
        <ele>1098</ele>
        <time>2019-12-19T01:41:34Z</time>
      </trkpt>
      <trkpt lat="44.36746" lon="3.76141">
        <ele>1098</ele>
        <time>2019-12-19T01:41:50Z</time>
      </trkpt>
      <trkpt lat="44.3675" lon="3.76158">
        <ele>1098</ele>
        <time>2019-12-19T01:41:53Z</time>
      </trkpt>
      <trkpt lat="44.36771" lon="3.76171">
        <ele>1103</ele>
        <time>2019-12-19T01:41:57Z</time>
      </trkpt>
      <trkpt lat="44.36843" lon="3.76182">
        <ele>1122</ele>
        <time>2019-12-19T01:42:10Z</time>
      </trkpt>
      <trkpt lat="44.36853" lon="3.76187">
        <ele>1124</ele>
        <time>2019-12-19T01:42:12Z</time>
      </trkpt>
      <trkpt lat="44.3686" lon="3.762">
        <ele>1125</ele>
        <time>2019-12-19T01:42:14Z</time>
      </trkpt>
      <trkpt lat="44.36863" lon="3.76214">
        <ele>1124</ele>
        <time>2019-12-19T01:42:15Z</time>
      </trkpt>
      <trkpt lat="44.36861" lon="3.76227">
        <ele>1122</ele>
        <time>2019-12-19T01:42:17Z</time>
      </trkpt>
      <trkpt lat="44.36855" lon="3.76241">
        <ele>1118</ele>
        <time>2019-12-19T01:42:19Z</time>
      </trkpt>
      <trkpt lat="44.36854" lon="3.76254">
        <ele>1117</ele>
        <time>2019-12-19T01:42:21Z</time>
      </trkpt>
      <trkpt lat="44.36856" lon="3.76267">
        <ele>1118</ele>
        <time>2019-12-19T01:42:23Z</time>
      </trkpt>
      <trkpt lat="44.36862" lon="3.76286">
        <ele>1123</ele>
        <time>2019-12-19T01:42:25Z</time>
      </trkpt>
      <trkpt lat="44.36863" lon="3.76304">
        <ele>1125</ele>
        <time>2019-12-19T01:42:28Z</time>
      </trkpt>
      <trkpt lat="44.36856" lon="3.76359">
        <ele>1128</ele>
        <time>2019-12-19T01:42:35Z</time>
      </trkpt>
      <trkpt lat="44.36849" lon="3.76398">
        <ele>1132</ele>
        <time>2019-12-19T01:42:40Z</time>
      </trkpt>
      <trkpt lat="44.36839" lon="3.76428">
        <ele>1133</ele>
        <time>2019-12-19T01:42:44Z</time>
      </trkpt>
      <trkpt lat="44.36831" lon="3.76447">
        <ele>1133</ele>
        <time>2019-12-19T01:42:47Z</time>
      </trkpt>
      <trkpt lat="44.3681" lon="3.76471">
        <ele>1129</ele>
        <time>2019-12-19T01:42:52Z</time>
      </trkpt>
      <trkpt lat="44.36796" lon="3.76493">
        <ele>1127</ele>
        <time>2019-12-19T01:42:55Z</time>
      </trkpt>
      <trkpt lat="44.3679" lon="3.76511">
        <ele>1125</ele>
        <time>2019-12-19T01:42:58Z</time>
      </trkpt>
      <trkpt lat="44.36789" lon="3.76529">
        <ele>1125</ele>
        <time>2019-12-19T01:43:00Z</time>
      </trkpt>
      <trkpt lat="44.36796" lon="3.76546">
        <ele>1128</ele>
        <time>2019-12-19T01:43:03Z</time>
      </trkpt>
      <trkpt lat="44.36863" lon="3.76635">
        <ele>1156</ele>
        <time>2019-12-19T01:43:19Z</time>
      </trkpt>
      <trkpt lat="44.36865" lon="3.76654">
        <ele>1156</ele>
        <time>2019-12-19T01:43:22Z</time>
      </trkpt>
      <trkpt lat="44.36864" lon="3.76682">
        <ele>1156</ele>
        <time>2019-12-19T01:43:25Z</time>
      </trkpt>
      <trkpt lat="44.36856" lon="3.76708">
        <ele>1156</ele>
        <time>2019-12-19T01:43:29Z</time>
      </trkpt>
      <trkpt lat="44.36836" lon="3.76744">
        <ele>1150</ele>
        <time>2019-12-19T01:43:35Z</time>
      </trkpt>
      <trkpt lat="44.36832" lon="3.76758">
        <ele>1150</ele>
        <time>2019-12-19T01:43:36Z</time>
      </trkpt>
      <trkpt lat="44.36827" lon="3.76819">
        <ele>1158</ele>
        <time>2019-12-19T01:43:44Z</time>
      </trkpt>
      <trkpt lat="44.36815" lon="3.7687">
        <ele>1159</ele>
        <time>2019-12-19T01:43:51Z</time>
      </trkpt>
      <trkpt lat="44.36811" lon="3.76904">
        <ele>1161</ele>
        <time>2019-12-19T01:43:55Z</time>
      </trkpt>
      <trkpt lat="44.3681" lon="3.76928">
        <ele>1164</ele>
        <time>2019-12-19T01:43:59Z</time>
      </trkpt>
      <trkpt lat="44.36813" lon="3.76955">
        <ele>1167</ele>
        <time>2019-12-19T01:44:02Z</time>
      </trkpt>
      <trkpt lat="44.3681" lon="3.7698">
        <ele>1168</ele>
        <time>2019-12-19T01:44:05Z</time>
      </trkpt>
      <trkpt lat="44.36813" lon="3.7701">
        <ele>1172</ele>
        <time>2019-12-19T01:44:09Z</time>
      </trkpt>
      <trkpt lat="44.3682" lon="3.7704">
        <ele>1179</ele>
        <time>2019-12-19T01:44:13Z</time>
      </trkpt>
      <trkpt lat="44.3682" lon="3.77055">
        <ele>1180</ele>
        <time>2019-12-19T01:44:15Z</time>
      </trkpt>
      <trkpt lat="44.36809" lon="3.77085">
        <ele>1178</ele>
        <time>2019-12-19T01:44:19Z</time>
      </trkpt>
      <trkpt lat="44.36801" lon="3.77114">
        <ele>1175</ele>
        <time>2019-12-19T01:44:23Z</time>
      </trkpt>
      <trkpt lat="44.36798" lon="3.77136">
        <ele>1176</ele>
        <time>2019-12-19T01:44:26Z</time>
      </trkpt>
      <trkpt lat="44.36802" lon="3.77154">
        <ele>1178</ele>
        <time>2019-12-19T01:44:28Z</time>
      </trkpt>
      <trkpt lat="44.36811" lon="3.77171">
        <ele>1182</ele>
        <time>2019-12-19T01:44:31Z</time>
      </trkpt>
      <trkpt lat="44.36831" lon="3.77188">
        <ele>1185</ele>
        <time>2019-12-19T01:44:35Z</time>
      </trkpt>
      <trkpt lat="44.36908" lon="3.77244">
        <ele>1198</ele>
        <time>2019-12-19T01:44:51Z</time>
      </trkpt>
      <trkpt lat="44.3698" lon="3.77294">
        <ele>1201</ele>
        <time>2019-12-19T01:45:05Z</time>
      </trkpt>
      <trkpt lat="44.37005" lon="3.77299">
        <ele>1204</ele>
        <time>2019-12-19T01:45:10Z</time>
      </trkpt>
      <trkpt lat="44.37044" lon="3.77291">
        <ele>1211</ele>
        <time>2019-12-19T01:45:17Z</time>
      </trkpt>
      <trkpt lat="44.37152" lon="3.77302">
        <ele>1220</ele>
        <time>2019-12-19T01:45:36Z</time>
      </trkpt>
      <trkpt lat="44.3718" lon="3.7731">
        <ele>1222</ele>
        <time>2019-12-19T01:45:41Z</time>
      </trkpt>
      <trkpt lat="44.37236" lon="3.77332">
        <ele>1225</ele>
        <time>2019-12-19T01:45:51Z</time>
      </trkpt>
      <trkpt lat="44.3727" lon="3.7735">
        <ele>1228</ele>
        <time>2019-12-19T01:45:58Z</time>
      </trkpt>
      <trkpt lat="44.3736" lon="3.7743">
        <ele>1235</ele>
        <time>2019-12-19T01:46:17Z</time>
      </trkpt>
      <trkpt lat="44.37372" lon="3.77443">
        <ele>1237</ele>
        <time>2019-12-19T01:46:19Z</time>
      </trkpt>
      <trkpt lat="44.37383" lon="3.77467">
        <ele>1238</ele>
        <time>2019-12-19T01:46:23Z</time>
      </trkpt>
      <trkpt lat="44.37391" lon="3.77506">
        <ele>1240</ele>
        <time>2019-12-19T01:46:28Z</time>
      </trkpt>
      <trkpt lat="44.37392" lon="3.77538">
        <ele>1241</ele>
        <time>2019-12-19T01:46:32Z</time>
      </trkpt>
      <trkpt lat="44.37386" lon="3.77586">
        <ele>1241</ele>
        <time>2019-12-19T01:46:38Z</time>
      </trkpt>
      <trkpt lat="44.37378" lon="3.77625">
        <ele>1242</ele>
        <time>2019-12-19T01:46:44Z</time>
      </trkpt>
      <trkpt lat="44.37396" lon="3.77664">
        <ele>1246</ele>
        <time>2019-12-19T01:46:50Z</time>
      </trkpt>
      <trkpt lat="44.37401" lon="3.77685">
        <ele>1246</ele>
        <time>2019-12-19T01:46:52Z</time>
      </trkpt>
      <trkpt lat="44.37407" lon="3.77698">
        <ele>1247</ele>
        <time>2019-12-19T01:46:54Z</time>
      </trkpt>
      <trkpt lat="44.37433" lon="3.77769">
        <ele>1252</ele>
        <time>2019-12-19T01:47:04Z</time>
      </trkpt>
      <trkpt lat="44.37439" lon="3.7779">
        <ele>1253</ele>
        <time>2019-12-19T01:47:07Z</time>
      </trkpt>
      <trkpt lat="44.3744" lon="3.778">
        <ele>1254</ele>
        <time>2019-12-19T01:47:09Z</time>
      </trkpt>
      <trkpt lat="44.37438" lon="3.77811">
        <ele>1254</ele>
        <time>2019-12-19T01:47:10Z</time>
      </trkpt>
      <trkpt lat="44.37427" lon="3.77832">
        <ele>1252</ele>
        <time>2019-12-19T01:47:13Z</time>
      </trkpt>
      <trkpt lat="44.37389" lon="3.77886">
        <ele>1250</ele>
        <time>2019-12-19T01:47:23Z</time>
      </trkpt>
      <trkpt lat="44.37365" lon="3.7793">
        <ele>1249</ele>
        <time>2019-12-19T01:47:30Z</time>
      </trkpt>
      <trkpt lat="44.37337" lon="3.77995">
        <ele>1249</ele>
        <time>2019-12-19T01:47:40Z</time>
      </trkpt>
      <trkpt lat="44.37328" lon="3.78026">
        <ele>1249</ele>
        <time>2019-12-19T01:47:44Z</time>
      </trkpt>
      <trkpt lat="44.37323" lon="3.78058">
        <ele>1250</ele>
        <time>2019-12-19T01:47:48Z</time>
      </trkpt>
      <trkpt lat="44.37316" lon="3.78125">
        <ele>1254</ele>
        <time>2019-12-19T01:47:57Z</time>
      </trkpt>
      <trkpt lat="44.37316" lon="3.78173">
        <ele>1259</ele>
        <time>2019-12-19T01:48:03Z</time>
      </trkpt>
      <trkpt lat="44.37309" lon="3.7821">
        <ele>1261</ele>
        <time>2019-12-19T01:48:08Z</time>
      </trkpt>
      <trkpt lat="44.37293" lon="3.78252">
        <ele>1259</ele>
        <time>2019-12-19T01:48:14Z</time>
      </trkpt>
      <trkpt lat="44.37275" lon="3.78289">
        <ele>1257</ele>
        <time>2019-12-19T01:48:19Z</time>
      </trkpt>
      <trkpt lat="44.37262" lon="3.78335">
        <ele>1258</ele>
        <time>2019-12-19T01:48:26Z</time>
      </trkpt>
      <trkpt lat="44.37233" lon="3.78412">
        <ele>1259</ele>
        <time>2019-12-19T01:48:37Z</time>
      </trkpt>
      <trkpt lat="44.3723" lon="3.7843">
        <ele>1259</ele>
        <time>2019-12-19T01:48:39Z</time>
      </trkpt>
      <trkpt lat="44.37226" lon="3.7851">
        <ele>1265</ele>
        <time>2019-12-19T01:48:49Z</time>
      </trkpt>
      <trkpt lat="44.37203" lon="3.78632">
        <ele>1266</ele>
        <time>2019-12-19T01:49:05Z</time>
      </trkpt>
      <trkpt lat="44.37198" lon="3.78666">
        <ele>1265</ele>
        <time>2019-12-19T01:49:10Z</time>
      </trkpt>
      <trkpt lat="44.37196" lon="3.78728">
        <ele>1265</ele>
        <time>2019-12-19T01:49:18Z</time>
      </trkpt>
      <trkpt lat="44.37201" lon="3.78811">
        <ele>1265</ele>
        <time>2019-12-19T01:49:28Z</time>
      </trkpt>
      <trkpt lat="44.37205" lon="3.78831">
        <ele>1265</ele>
        <time>2019-12-19T01:49:31Z</time>
      </trkpt>
      <trkpt lat="44.37216" lon="3.78857">
        <ele>1267</ele>
        <time>2019-12-19T01:49:35Z</time>
      </trkpt>
      <trkpt lat="44.37228" lon="3.78881">
        <ele>1269</ele>
        <time>2019-12-19T01:49:39Z</time>
      </trkpt>
      <trkpt lat="44.37253" lon="3.78914">
        <ele>1271</ele>
        <time>2019-12-19T01:49:45Z</time>
      </trkpt>
      <trkpt lat="44.37318" lon="3.78993">
        <ele>1270</ele>
        <time>2019-12-19T01:50:00Z</time>
      </trkpt>
      <trkpt lat="44.37323" lon="3.79004">
        <ele>1269</ele>
        <time>2019-12-19T01:50:02Z</time>
      </trkpt>
      <trkpt lat="44.37324" lon="3.79015">
        <ele>1269</ele>
        <time>2019-12-19T01:50:03Z</time>
      </trkpt>
      <trkpt lat="44.37323" lon="3.79054">
        <ele>1269</ele>
        <time>2019-12-19T01:50:08Z</time>
      </trkpt>
      <trkpt lat="44.37325" lon="3.79059">
        <ele>1269</ele>
        <time>2019-12-19T01:50:09Z</time>
      </trkpt>
      <trkpt lat="44.37332" lon="3.79067">
        <ele>1269</ele>
        <time>2019-12-19T01:50:10Z</time>
      </trkpt>
      <trkpt lat="44.37391" lon="3.7911">
        <ele>1276</ele>
        <time>2019-12-19T01:50:22Z</time>
      </trkpt>
      <trkpt lat="44.37411" lon="3.7911">
        <ele>1277</ele>
        <time>2019-12-19T01:50:26Z</time>
      </trkpt>
      <trkpt lat="44.37442" lon="3.79104">
        <ele>1278</ele>
        <time>2019-12-19T01:50:31Z</time>
      </trkpt>
      <trkpt lat="44.37479" lon="3.79107">
        <ele>1281</ele>
        <time>2019-12-19T01:50:38Z</time>
      </trkpt>
      <trkpt lat="44.3754" lon="3.79127">
        <ele>1285</ele>
        <time>2019-12-19T01:50:49Z</time>
      </trkpt>
      <trkpt lat="44.3763" lon="3.79144">
        <ele>1290</ele>
        <time>2019-12-19T01:51:05Z</time>
      </trkpt>
      <trkpt lat="44.37642" lon="3.79145">
        <ele>1291</ele>
        <time>2019-12-19T01:51:07Z</time>
      </trkpt>
      <trkpt lat="44.37672" lon="3.79141">
        <ele>1291</ele>
        <time>2019-12-19T01:51:13Z</time>
      </trkpt>
      <trkpt lat="44.37685" lon="3.79141">
        <ele>1292</ele>
        <time>2019-12-19T01:51:15Z</time>
      </trkpt>
      <trkpt lat="44.37736" lon="3.79155">
        <ele>1295</ele>
        <time>2019-12-19T01:51:24Z</time>
      </trkpt>
      <trkpt lat="44.37761" lon="3.79165">
        <ele>1297</ele>
        <time>2019-12-19T01:51:29Z</time>
      </trkpt>
      <trkpt lat="44.37774" lon="3.79174">
        <ele>1298</ele>
        <time>2019-12-19T01:51:31Z</time>
      </trkpt>
      <trkpt lat="44.37895" lon="3.79298">
        <ele>1303</ele>
        <time>2019-12-19T01:51:58Z</time>
      </trkpt>
      <trkpt lat="44.38" lon="3.79411">
        <ele>1303</ele>
        <time>2019-12-19T01:52:22Z</time>
      </trkpt>
      <trkpt lat="44.38028" lon="3.79438">
        <ele>1306</ele>
        <time>2019-12-19T01:52:28Z</time>
      </trkpt>
      <trkpt lat="44.38065" lon="3.79458">
        <ele>1308</ele>
        <time>2019-12-19T01:52:35Z</time>
      </trkpt>
      <trkpt lat="44.38077" lon="3.79467">
        <ele>1309</ele>
        <time>2019-12-19T01:52:37Z</time>
      </trkpt>
      <trkpt lat="44.38096" lon="3.79491">
        <ele>1310</ele>
        <time>2019-12-19T01:52:42Z</time>
      </trkpt>
      <trkpt lat="44.38148" lon="3.79567">
        <ele>1316</ele>
        <time>2019-12-19T01:52:55Z</time>
      </trkpt>
      <trkpt lat="44.38217" lon="3.79656">
        <ele>1325</ele>
        <time>2019-12-19T01:53:12Z</time>
      </trkpt>
      <trkpt lat="44.38243" lon="3.79687">
        <ele>1329</ele>
        <time>2019-12-19T01:53:18Z</time>
      </trkpt>
      <trkpt lat="44.38269" lon="3.79696">
        <ele>1330</ele>
        <time>2019-12-19T01:53:23Z</time>
      </trkpt>
      <trkpt lat="44.3829" lon="3.79702">
        <ele>1331</ele>
        <time>2019-12-19T01:53:27Z</time>
      </trkpt>
      <trkpt lat="44.3842" lon="3.79722">
        <ele>1339</ele>
        <time>2019-12-19T01:53:50Z</time>
      </trkpt>
      <trkpt lat="44.38496" lon="3.79747">
        <ele>1345</ele>
        <time>2019-12-19T01:54:04Z</time>
      </trkpt>
      <trkpt lat="44.38521" lon="3.79756">
        <ele>1347</ele>
        <time>2019-12-19T01:54:08Z</time>
      </trkpt>
      <trkpt lat="44.38528" lon="3.79763">
        <ele>1348</ele>
        <time>2019-12-19T01:54:10Z</time>
      </trkpt>
      <trkpt lat="44.38534" lon="3.79775">
        <ele>1348</ele>
        <time>2019-12-19T01:54:12Z</time>
      </trkpt>
      <trkpt lat="44.3856" lon="3.79846">
        <ele>1350</ele>
        <time>2019-12-19T01:54:22Z</time>
      </trkpt>
      <trkpt lat="44.38582" lon="3.79913">
        <ele>1350</ele>
        <time>2019-12-19T01:54:31Z</time>
      </trkpt>
      <trkpt lat="44.3859" lon="3.79932">
        <ele>1350</ele>
        <time>2019-12-19T01:54:34Z</time>
      </trkpt>
      <trkpt lat="44.38632" lon="3.7998">
        <ele>1353</ele>
        <time>2019-12-19T01:54:44Z</time>
      </trkpt>
      <trkpt lat="44.38646" lon="3.80015">
        <ele>1353</ele>
        <time>2019-12-19T01:54:49Z</time>
      </trkpt>
      <trkpt lat="44.38658" lon="3.80056">
        <ele>1353</ele>
        <time>2019-12-19T01:54:54Z</time>
      </trkpt>
      <trkpt lat="44.38667" lon="3.80074">
        <ele>1353</ele>
        <time>2019-12-19T01:54:57Z</time>
      </trkpt>
      <trkpt lat="44.38677" lon="3.80087">
        <ele>1352</ele>
        <time>2019-12-19T01:55:00Z</time>
      </trkpt>
      <trkpt lat="44.3869" lon="3.80096">
        <ele>1352</ele>
        <time>2019-12-19T01:55:02Z</time>
      </trkpt>
      <trkpt lat="44.38703" lon="3.80101">
        <ele>1352</ele>
        <time>2019-12-19T01:55:05Z</time>
      </trkpt>
      <trkpt lat="44.38789" lon="3.80114">
        <ele>1355</ele>
        <time>2019-12-19T01:55:20Z</time>
      </trkpt>
      <trkpt lat="44.38806" lon="3.80118">
        <ele>1355</ele>
        <time>2019-12-19T01:55:23Z</time>
      </trkpt>
      <trkpt lat="44.38825" lon="3.80127">
        <ele>1356</ele>
        <time>2019-12-19T01:55:27Z</time>
      </trkpt>
      <trkpt lat="44.38838" lon="3.80136">
        <ele>1356</ele>
        <time>2019-12-19T01:55:29Z</time>
      </trkpt>
      <trkpt lat="44.3885" lon="3.80152">
        <ele>1356</ele>
        <time>2019-12-19T01:55:32Z</time>
      </trkpt>
      <trkpt lat="44.38856" lon="3.80175">
        <ele>1357</ele>
        <time>2019-12-19T01:55:35Z</time>
      </trkpt>
      <trkpt lat="44.38855" lon="3.802">
        <ele>1359</ele>
        <time>2019-12-19T01:55:38Z</time>
      </trkpt>
      <trkpt lat="44.38851" lon="3.80216">
        <ele>1360</ele>
        <time>2019-12-19T01:55:41Z</time>
      </trkpt>
      <trkpt lat="44.3883" lon="3.80262">
        <ele>1363</ele>
        <time>2019-12-19T01:55:48Z</time>
      </trkpt>
      <trkpt lat="44.38821" lon="3.80272">
        <ele>1364</ele>
        <time>2019-12-19T01:55:50Z</time>
      </trkpt>
      <trkpt lat="44.38726" lon="3.8032">
        <ele>1361</ele>
        <time>2019-12-19T01:56:08Z</time>
      </trkpt>
      <trkpt lat="44.38675" lon="3.80359">
        <ele>1361</ele>
        <time>2019-12-19T01:56:18Z</time>
      </trkpt>
      <trkpt lat="44.38643" lon="3.80394">
        <ele>1363</ele>
        <time>2019-12-19T01:56:25Z</time>
      </trkpt>
      <trkpt lat="44.38631" lon="3.80423">
        <ele>1365</ele>
        <time>2019-12-19T01:56:29Z</time>
      </trkpt>
      <trkpt lat="44.38628" lon="3.80442">
        <ele>1366</ele>
        <time>2019-12-19T01:56:32Z</time>
      </trkpt>
      <trkpt lat="44.3863" lon="3.80462">
        <ele>1368</ele>
        <time>2019-12-19T01:56:34Z</time>
      </trkpt>
      <trkpt lat="44.3863" lon="3.80495">
        <ele>1370</ele>
        <time>2019-12-19T01:56:39Z</time>
      </trkpt>
      <trkpt lat="44.3864" lon="3.80554">
        <ele>1374</ele>
        <time>2019-12-19T01:56:46Z</time>
      </trkpt>
      <trkpt lat="44.38642" lon="3.80604">
        <ele>1375</ele>
        <time>2019-12-19T01:56:53Z</time>
      </trkpt>
      <trkpt lat="44.38639" lon="3.8063">
        <ele>1375</ele>
        <time>2019-12-19T01:56:56Z</time>
      </trkpt>
      <trkpt lat="44.38629" lon="3.80659">
        <ele>1374</ele>
        <time>2019-12-19T01:57:00Z</time>
      </trkpt>
      <trkpt lat="44.38608" lon="3.80702">
        <ele>1372</ele>
        <time>2019-12-19T01:57:07Z</time>
      </trkpt>
      <trkpt lat="44.38573" lon="3.80753">
        <ele>1368</ele>
        <time>2019-12-19T01:57:16Z</time>
      </trkpt>
      <trkpt lat="44.38534" lon="3.80802">
        <ele>1367</ele>
        <time>2019-12-19T01:57:25Z</time>
      </trkpt>
      <trkpt lat="44.38515" lon="3.80823">
        <ele>1367</ele>
        <time>2019-12-19T01:57:29Z</time>
      </trkpt>
      <trkpt lat="44.38494" lon="3.80852">
        <ele>1366</ele>
        <time>2019-12-19T01:57:35Z</time>
      </trkpt>
      <trkpt lat="44.3848" lon="3.80875">
        <ele>1367</ele>
        <time>2019-12-19T01:57:39Z</time>
      </trkpt>
      <trkpt lat="44.38466" lon="3.80913">
        <ele>1368</ele>
        <time>2019-12-19T01:57:44Z</time>
      </trkpt>
      <trkpt lat="44.38464" lon="3.8093">
        <ele>1368</ele>
        <time>2019-12-19T01:57:46Z</time>
      </trkpt>
      <trkpt lat="44.38468" lon="3.80942">
        <ele>1368</ele>
        <time>2019-12-19T01:57:48Z</time>
      </trkpt>
      <trkpt lat="44.3848" lon="3.80955">
        <ele>1368</ele>
        <time>2019-12-19T01:57:51Z</time>
      </trkpt>
      <trkpt lat="44.38488" lon="3.80968">
        <ele>1368</ele>
        <time>2019-12-19T01:57:53Z</time>
      </trkpt>
      <trkpt lat="44.38498" lon="3.80978">
        <ele>1368</ele>
        <time>2019-12-19T01:57:55Z</time>
      </trkpt>
      <trkpt lat="44.38544" lon="3.80995">
        <ele>1366</ele>
        <time>2019-12-19T01:58:03Z</time>
      </trkpt>
      <trkpt lat="44.38572" lon="3.80992">
        <ele>1365</ele>
        <time>2019-12-19T01:58:08Z</time>
      </trkpt>
      <trkpt lat="44.38657" lon="3.80923">
        <ele>1365</ele>
        <time>2019-12-19T01:58:26Z</time>
      </trkpt>
      <trkpt lat="44.3869" lon="3.80905">
        <ele>1366</ele>
        <time>2019-12-19T01:58:32Z</time>
      </trkpt>
      <trkpt lat="44.38708" lon="3.80908">
        <ele>1366</ele>
        <time>2019-12-19T01:58:35Z</time>
      </trkpt>
      <trkpt lat="44.38723" lon="3.80919">
        <ele>1365</ele>
        <time>2019-12-19T01:58:38Z</time>
      </trkpt>
      <trkpt lat="44.38733" lon="3.8094">
        <ele>1365</ele>
        <time>2019-12-19T01:58:42Z</time>
      </trkpt>
      <trkpt lat="44.38739" lon="3.80963">
        <ele>1365</ele>
        <time>2019-12-19T01:58:45Z</time>
      </trkpt>
      <trkpt lat="44.38739" lon="3.80988">
        <ele>1365</ele>
        <time>2019-12-19T01:58:48Z</time>
      </trkpt>
      <trkpt lat="44.38734" lon="3.80995">
        <ele>1365</ele>
        <time>2019-12-19T01:58:49Z</time>
      </trkpt>
      <trkpt lat="44.38715" lon="3.81012">
        <ele>1364</ele>
        <time>2019-12-19T01:58:53Z</time>
      </trkpt>
      <trkpt lat="44.38696" lon="3.81054">
        <ele>1365</ele>
        <time>2019-12-19T01:58:59Z</time>
      </trkpt>
      <trkpt lat="44.38683" lon="3.81073">
        <ele>1364</ele>
        <time>2019-12-19T01:59:03Z</time>
      </trkpt>
      <trkpt lat="44.38662" lon="3.81093">
        <ele>1362</ele>
        <time>2019-12-19T01:59:07Z</time>
      </trkpt>
      <trkpt lat="44.38598" lon="3.81174">
        <ele>1362</ele>
        <time>2019-12-19T01:59:23Z</time>
      </trkpt>
      <trkpt lat="44.38587" lon="3.81193">
        <ele>1361</ele>
        <time>2019-12-19T01:59:26Z</time>
      </trkpt>
      <trkpt lat="44.38567" lon="3.81257">
        <ele>1363</ele>
        <time>2019-12-19T01:59:35Z</time>
      </trkpt>
      <trkpt lat="44.38563" lon="3.81287">
        <ele>1364</ele>
        <time>2019-12-19T01:59:39Z</time>
      </trkpt>
      <trkpt lat="44.3855" lon="3.81312">
        <ele>1363</ele>
        <time>2019-12-19T01:59:42Z</time>
      </trkpt>
      <trkpt lat="44.38528" lon="3.81342">
        <ele>1362</ele>
        <time>2019-12-19T01:59:48Z</time>
      </trkpt>
      <trkpt lat="44.38511" lon="3.81374">
        <ele>1362</ele>
        <time>2019-12-19T01:59:53Z</time>
      </trkpt>
      <trkpt lat="44.38502" lon="3.814">
        <ele>1363</ele>
        <time>2019-12-19T01:59:57Z</time>
      </trkpt>
      <trkpt lat="44.38499" lon="3.8142">
        <ele>1364</ele>
        <time>2019-12-19T01:59:59Z</time>
      </trkpt>
      <trkpt lat="44.38503" lon="3.81449">
        <ele>1365</ele>
        <time>2019-12-19T02:00:03Z</time>
      </trkpt>
      <trkpt lat="44.38515" lon="3.81489">
        <ele>1366</ele>
        <time>2019-12-19T02:00:09Z</time>
      </trkpt>
      <trkpt lat="44.38549" lon="3.81574">
        <ele>1366</ele>
        <time>2019-12-19T02:00:21Z</time>
      </trkpt>
      <trkpt lat="44.38561" lon="3.81629">
        <ele>1365</ele>
        <time>2019-12-19T02:00:28Z</time>
      </trkpt>
      <trkpt lat="44.38568" lon="3.81644">
        <ele>1365</ele>
        <time>2019-12-19T02:00:31Z</time>
      </trkpt>
      <trkpt lat="44.38579" lon="3.81658">
        <ele>1365</ele>
        <time>2019-12-19T02:00:33Z</time>
      </trkpt>
      <trkpt lat="44.38609" lon="3.81687">
        <ele>1362</ele>
        <time>2019-12-19T02:00:40Z</time>
      </trkpt>
      <trkpt lat="44.38622" lon="3.81696">
        <ele>1361</ele>
        <time>2019-12-19T02:00:42Z</time>
      </trkpt>
      <trkpt lat="44.38641" lon="3.817">
        <ele>1360</ele>
        <time>2019-12-19T02:00:46Z</time>
      </trkpt>
      <trkpt lat="44.38684" lon="3.81702">
        <ele>1359</ele>
        <time>2019-12-19T02:00:53Z</time>
      </trkpt>
      <trkpt lat="44.38711" lon="3.81687">
        <ele>1360</ele>
        <time>2019-12-19T02:00:59Z</time>
      </trkpt>
      <trkpt lat="44.38739" lon="3.81675">
        <ele>1359</ele>
        <time>2019-12-19T02:01:04Z</time>
      </trkpt>
      <trkpt lat="44.38754" lon="3.81667">
        <ele>1359</ele>
        <time>2019-12-19T02:01:07Z</time>
      </trkpt>
      <trkpt lat="44.38776" lon="3.81651">
        <ele>1360</ele>
        <time>2019-12-19T02:01:11Z</time>
      </trkpt>
      <trkpt lat="44.3879" lon="3.81647">
        <ele>1360</ele>
        <time>2019-12-19T02:01:14Z</time>
      </trkpt>
      <trkpt lat="44.38802" lon="3.81651">
        <ele>1360</ele>
        <time>2019-12-19T02:01:16Z</time>
      </trkpt>
      <trkpt lat="44.38818" lon="3.81664">
        <ele>1359</ele>
        <time>2019-12-19T02:01:19Z</time>
      </trkpt>
      <trkpt lat="44.38822" lon="3.81681">
        <ele>1359</ele>
        <time>2019-12-19T02:01:21Z</time>
      </trkpt>
      <trkpt lat="44.3882" lon="3.81698">
        <ele>1360</ele>
        <time>2019-12-19T02:01:23Z</time>
      </trkpt>
      <trkpt lat="44.38815" lon="3.81713">
        <ele>1360</ele>
        <time>2019-12-19T02:01:26Z</time>
      </trkpt>
      <trkpt lat="44.3872" lon="3.81811">
        <ele>1352</ele>
        <time>2019-12-19T02:01:47Z</time>
      </trkpt>
      <trkpt lat="44.38712" lon="3.81833">
        <ele>1351</ele>
        <time>2019-12-19T02:01:50Z</time>
      </trkpt>
      <trkpt lat="44.38712" lon="3.81851">
        <ele>1350</ele>
        <time>2019-12-19T02:01:52Z</time>
      </trkpt>
      <trkpt lat="44.38719" lon="3.8188">
        <ele>1350</ele>
        <time>2019-12-19T02:01:56Z</time>
      </trkpt>
      <trkpt lat="44.38719" lon="3.81911">
        <ele>1350</ele>
        <time>2019-12-19T02:02:00Z</time>
      </trkpt>
      <trkpt lat="44.38718" lon="3.81937">
        <ele>1352</ele>
        <time>2019-12-19T02:02:03Z</time>
      </trkpt>
      <trkpt lat="44.38717" lon="3.8195">
        <ele>1353</ele>
        <time>2019-12-19T02:02:05Z</time>
      </trkpt>
      <trkpt lat="44.38709" lon="3.81965">
        <ele>1355</ele>
        <time>2019-12-19T02:02:07Z</time>
      </trkpt>
      <trkpt lat="44.38651" lon="3.82026">
        <ele>1357</ele>
        <time>2019-12-19T02:02:20Z</time>
      </trkpt>
      <trkpt lat="44.38611" lon="3.82083">
        <ele>1361</ele>
        <time>2019-12-19T02:02:30Z</time>
      </trkpt>
      <trkpt lat="44.38597" lon="3.82094">
        <ele>1361</ele>
        <time>2019-12-19T02:02:33Z</time>
      </trkpt>
      <trkpt lat="44.38571" lon="3.82103">
        <ele>1360</ele>
        <time>2019-12-19T02:02:38Z</time>
      </trkpt>
      <trkpt lat="44.38552" lon="3.82115">
        <ele>1359</ele>
        <time>2019-12-19T02:02:42Z</time>
      </trkpt>
      <trkpt lat="44.38539" lon="3.8213">
        <ele>1359</ele>
        <time>2019-12-19T02:02:45Z</time>
      </trkpt>
      <trkpt lat="44.38525" lon="3.82148">
        <ele>1360</ele>
        <time>2019-12-19T02:02:48Z</time>
      </trkpt>
      <trkpt lat="44.38499" lon="3.82202">
        <ele>1364</ele>
        <time>2019-12-19T02:02:56Z</time>
      </trkpt>
      <trkpt lat="44.38468" lon="3.8225">
        <ele>1366</ele>
        <time>2019-12-19T02:03:04Z</time>
      </trkpt>
      <trkpt lat="44.38459" lon="3.82269">
        <ele>1366</ele>
        <time>2019-12-19T02:03:07Z</time>
      </trkpt>
      <trkpt lat="44.38458" lon="3.82277">
        <ele>1366</ele>
        <time>2019-12-19T02:03:08Z</time>
      </trkpt>
      <trkpt lat="44.38467" lon="3.82321">
        <ele>1370</ele>
        <time>2019-12-19T02:03:14Z</time>
      </trkpt>
      <trkpt lat="44.38465" lon="3.8236">
        <ele>1373</ele>
        <time>2019-12-19T02:03:19Z</time>
      </trkpt>
      <trkpt lat="44.38467" lon="3.82321">
        <ele>1370</ele>
        <time>2019-12-19T02:03:24Z</time>
      </trkpt>
      <trkpt lat="44.38458" lon="3.82277">
        <ele>1366</ele>
        <time>2019-12-19T02:03:30Z</time>
      </trkpt>
      <trkpt lat="44.38459" lon="3.82269">
        <ele>1366</ele>
        <time>2019-12-19T02:03:31Z</time>
      </trkpt>
      <trkpt lat="44.38468" lon="3.8225">
        <ele>1366</ele>
        <time>2019-12-19T02:03:34Z</time>
      </trkpt>
      <trkpt lat="44.38499" lon="3.82202">
        <ele>1364</ele>
        <time>2019-12-19T02:03:42Z</time>
      </trkpt>
      <trkpt lat="44.38525" lon="3.82148">
        <ele>1360</ele>
        <time>2019-12-19T02:03:50Z</time>
      </trkpt>
      <trkpt lat="44.38552" lon="3.82115">
        <ele>1359</ele>
        <time>2019-12-19T02:03:57Z</time>
      </trkpt>
      <trkpt lat="44.38571" lon="3.82103">
        <ele>1360</ele>
        <time>2019-12-19T02:04:01Z</time>
      </trkpt>
      <trkpt lat="44.38597" lon="3.82094">
        <ele>1361</ele>
        <time>2019-12-19T02:04:05Z</time>
      </trkpt>
      <trkpt lat="44.38611" lon="3.82083">
        <ele>1361</ele>
        <time>2019-12-19T02:04:08Z</time>
      </trkpt>
      <trkpt lat="44.38651" lon="3.82026">
        <ele>1357</ele>
        <time>2019-12-19T02:04:18Z</time>
      </trkpt>
      <trkpt lat="44.38709" lon="3.81965">
        <ele>1355</ele>
        <time>2019-12-19T02:04:31Z</time>
      </trkpt>
      <trkpt lat="44.38717" lon="3.8195">
        <ele>1353</ele>
        <time>2019-12-19T02:04:34Z</time>
      </trkpt>
      <trkpt lat="44.38718" lon="3.81937">
        <ele>1352</ele>
        <time>2019-12-19T02:04:35Z</time>
      </trkpt>
      <trkpt lat="44.38719" lon="3.81911">
        <ele>1350</ele>
        <time>2019-12-19T02:04:39Z</time>
      </trkpt>
      <trkpt lat="44.38719" lon="3.8188">
        <ele>1350</ele>
        <time>2019-12-19T02:04:43Z</time>
      </trkpt>
      <trkpt lat="44.38712" lon="3.81851">
        <ele>1350</ele>
        <time>2019-12-19T02:04:46Z</time>
      </trkpt>
      <trkpt lat="44.38712" lon="3.81833">
        <ele>1351</ele>
        <time>2019-12-19T02:04:49Z</time>
      </trkpt>
      <trkpt lat="44.3872" lon="3.81811">
        <ele>1352</ele>
        <time>2019-12-19T02:04:52Z</time>
      </trkpt>
      <trkpt lat="44.38815" lon="3.81713">
        <ele>1360</ele>
        <time>2019-12-19T02:05:13Z</time>
      </trkpt>
      <trkpt lat="44.3882" lon="3.81698">
        <ele>1360</ele>
        <time>2019-12-19T02:05:15Z</time>
      </trkpt>
      <trkpt lat="44.38822" lon="3.81681">
        <ele>1359</ele>
        <time>2019-12-19T02:05:17Z</time>
      </trkpt>
      <trkpt lat="44.38818" lon="3.81664">
        <ele>1359</ele>
        <time>2019-12-19T02:05:19Z</time>
      </trkpt>
      <trkpt lat="44.38802" lon="3.81651">
        <ele>1360</ele>
        <time>2019-12-19T02:05:23Z</time>
      </trkpt>
      <trkpt lat="44.3879" lon="3.81647">
        <ele>1360</ele>
        <time>2019-12-19T02:05:25Z</time>
      </trkpt>
      <trkpt lat="44.38776" lon="3.81651">
        <ele>1360</ele>
        <time>2019-12-19T02:05:27Z</time>
      </trkpt>
      <trkpt lat="44.38754" lon="3.81667">
        <ele>1359</ele>
        <time>2019-12-19T02:05:32Z</time>
      </trkpt>
      <trkpt lat="44.38729" lon="3.81679">
        <ele>1359</ele>
        <time>2019-12-19T02:05:37Z</time>
      </trkpt>
      <trkpt lat="44.38754" lon="3.81667">
        <ele>1359</ele>
        <time>2019-12-19T02:05:41Z</time>
      </trkpt>
      <trkpt lat="44.38776" lon="3.81651">
        <ele>1360</ele>
        <time>2019-12-19T02:05:46Z</time>
      </trkpt>
      <trkpt lat="44.3879" lon="3.81647">
        <ele>1360</ele>
        <time>2019-12-19T02:05:48Z</time>
      </trkpt>
      <trkpt lat="44.38802" lon="3.81651">
        <ele>1360</ele>
        <time>2019-12-19T02:05:50Z</time>
      </trkpt>
      <trkpt lat="44.38818" lon="3.81664">
        <ele>1359</ele>
        <time>2019-12-19T02:05:54Z</time>
      </trkpt>
      <trkpt lat="44.38822" lon="3.81681">
        <ele>1359</ele>
        <time>2019-12-19T02:05:56Z</time>
      </trkpt>
      <trkpt lat="44.3882" lon="3.81698">
        <ele>1360</ele>
        <time>2019-12-19T02:05:58Z</time>
      </trkpt>
      <trkpt lat="44.38815" lon="3.81713">
        <ele>1360</ele>
        <time>2019-12-19T02:06:00Z</time>
      </trkpt>
      <trkpt lat="44.3872" lon="3.81811">
        <ele>1352</ele>
        <time>2019-12-19T02:06:21Z</time>
      </trkpt>
      <trkpt lat="44.38712" lon="3.81833">
        <ele>1351</ele>
        <time>2019-12-19T02:06:24Z</time>
      </trkpt>
      <trkpt lat="44.38712" lon="3.81851">
        <ele>1350</ele>
        <time>2019-12-19T02:06:27Z</time>
      </trkpt>
      <trkpt lat="44.38719" lon="3.8188">
        <ele>1350</ele>
        <time>2019-12-19T02:06:31Z</time>
      </trkpt>
      <trkpt lat="44.38719" lon="3.81911">
        <ele>1350</ele>
        <time>2019-12-19T02:06:35Z</time>
      </trkpt>
      <trkpt lat="44.38718" lon="3.81937">
        <ele>1352</ele>
        <time>2019-12-19T02:06:38Z</time>
      </trkpt>
      <trkpt lat="44.38717" lon="3.8195">
        <ele>1353</ele>
        <time>2019-12-19T02:06:39Z</time>
      </trkpt>
      <trkpt lat="44.38709" lon="3.81965">
        <ele>1355</ele>
        <time>2019-12-19T02:06:42Z</time>
      </trkpt>
      <trkpt lat="44.38651" lon="3.82026">
        <ele>1357</ele>
        <time>2019-12-19T02:06:55Z</time>
      </trkpt>
      <trkpt lat="44.38611" lon="3.82083">
        <ele>1361</ele>
        <time>2019-12-19T02:07:05Z</time>
      </trkpt>
      <trkpt lat="44.38597" lon="3.82094">
        <ele>1361</ele>
        <time>2019-12-19T02:07:08Z</time>
      </trkpt>
      <trkpt lat="44.38571" lon="3.82103">
        <ele>1360</ele>
        <time>2019-12-19T02:07:13Z</time>
      </trkpt>
      <trkpt lat="44.38552" lon="3.82115">
        <ele>1359</ele>
        <time>2019-12-19T02:07:16Z</time>
      </trkpt>
      <trkpt lat="44.38539" lon="3.8213">
        <ele>1359</ele>
        <time>2019-12-19T02:07:19Z</time>
      </trkpt>
      <trkpt lat="44.38525" lon="3.82148">
        <ele>1360</ele>
        <time>2019-12-19T02:07:23Z</time>
      </trkpt>
      <trkpt lat="44.38499" lon="3.82202">
        <ele>1364</ele>
        <time>2019-12-19T02:07:31Z</time>
      </trkpt>
      <trkpt lat="44.38468" lon="3.8225">
        <ele>1366</ele>
        <time>2019-12-19T02:07:39Z</time>
      </trkpt>
      <trkpt lat="44.38459" lon="3.82269">
        <ele>1366</ele>
        <time>2019-12-19T02:07:42Z</time>
      </trkpt>
      <trkpt lat="44.38458" lon="3.82277">
        <ele>1366</ele>
        <time>2019-12-19T02:07:43Z</time>
      </trkpt>
      <trkpt lat="44.38467" lon="3.82321">
        <ele>1370</ele>
        <time>2019-12-19T02:07:49Z</time>
      </trkpt>
      <trkpt lat="44.38466" lon="3.82352">
        <ele>1372</ele>
        <time>2019-12-19T02:07:53Z</time>
      </trkpt>
      <trkpt lat="44.38463" lon="3.82372">
        <ele>1373</ele>
        <time>2019-12-19T02:07:55Z</time>
      </trkpt>
      <trkpt lat="44.38458" lon="3.82379">
        <ele>1374</ele>
        <time>2019-12-19T02:07:57Z</time>
      </trkpt>
      <trkpt lat="44.38448" lon="3.82386">
        <ele>1373</ele>
        <time>2019-12-19T02:07:59Z</time>
      </trkpt>
      <trkpt lat="44.38436" lon="3.824">
        <ele>1373</ele>
        <time>2019-12-19T02:08:01Z</time>
      </trkpt>
      <trkpt lat="44.38398" lon="3.82467">
        <ele>1376</ele>
        <time>2019-12-19T02:08:12Z</time>
      </trkpt>
      <trkpt lat="44.38376" lon="3.82518">
        <ele>1377</ele>
        <time>2019-12-19T02:08:20Z</time>
      </trkpt>
      <trkpt lat="44.38359" lon="3.82663">
        <ele>1377</ele>
        <time>2019-12-19T02:08:39Z</time>
      </trkpt>
      <trkpt lat="44.38346" lon="3.82728">
        <ele>1375</ele>
        <time>2019-12-19T02:08:47Z</time>
      </trkpt>
      <trkpt lat="44.38351" lon="3.82828">
        <ele>1370</ele>
        <time>2019-12-19T02:09:00Z</time>
      </trkpt>
      <trkpt lat="44.38343" lon="3.82872">
        <ele>1370</ele>
        <time>2019-12-19T02:09:06Z</time>
      </trkpt>
      <trkpt lat="44.38323" lon="3.82918">
        <ele>1369</ele>
        <time>2019-12-19T02:09:13Z</time>
      </trkpt>
      <trkpt lat="44.38277" lon="3.82966">
        <ele>1369</ele>
        <time>2019-12-19T02:09:23Z</time>
      </trkpt>
      <trkpt lat="44.38182" lon="3.83094">
        <ele>1367</ele>
        <time>2019-12-19T02:09:46Z</time>
      </trkpt>
      <trkpt lat="44.38169" lon="3.83126">
        <ele>1366</ele>
        <time>2019-12-19T02:09:51Z</time>
      </trkpt>
      <trkpt lat="44.38162" lon="3.83156">
        <ele>1366</ele>
        <time>2019-12-19T02:09:55Z</time>
      </trkpt>
      <trkpt lat="44.38161" lon="3.8324">
        <ele>1365</ele>
        <time>2019-12-19T02:10:06Z</time>
      </trkpt>
      <trkpt lat="44.38157" lon="3.83275">
        <ele>1365</ele>
        <time>2019-12-19T02:10:10Z</time>
      </trkpt>
      <trkpt lat="44.38142" lon="3.833">
        <ele>1365</ele>
        <time>2019-12-19T02:10:14Z</time>
      </trkpt>
      <trkpt lat="44.38138" lon="3.83325">
        <ele>1365</ele>
        <time>2019-12-19T02:10:18Z</time>
      </trkpt>
      <trkpt lat="44.38137" lon="3.8335">
        <ele>1365</ele>
        <time>2019-12-19T02:10:21Z</time>
      </trkpt>
      <trkpt lat="44.38141" lon="3.83373">
        <ele>1365</ele>
        <time>2019-12-19T02:10:24Z</time>
      </trkpt>
      <trkpt lat="44.38148" lon="3.83396">
        <ele>1366</ele>
        <time>2019-12-19T02:10:27Z</time>
      </trkpt>
      <trkpt lat="44.38171" lon="3.83445">
        <ele>1368</ele>
        <time>2019-12-19T02:10:34Z</time>
      </trkpt>
      <trkpt lat="44.38181" lon="3.83489">
        <ele>1369</ele>
        <time>2019-12-19T02:10:40Z</time>
      </trkpt>
      <trkpt lat="44.38181" lon="3.83507">
        <ele>1369</ele>
        <time>2019-12-19T02:10:43Z</time>
      </trkpt>
      <trkpt lat="44.38175" lon="3.83534">
        <ele>1368</ele>
        <time>2019-12-19T02:10:46Z</time>
      </trkpt>
      <trkpt lat="44.38175" lon="3.83558">
        <ele>1369</ele>
        <time>2019-12-19T02:10:49Z</time>
      </trkpt>
      <trkpt lat="44.3818" lon="3.83576">
        <ele>1370</ele>
        <time>2019-12-19T02:10:52Z</time>
      </trkpt>
      <trkpt lat="44.38202" lon="3.83599">
        <ele>1372</ele>
        <time>2019-12-19T02:10:57Z</time>
      </trkpt>
      <trkpt lat="44.38214" lon="3.83628">
        <ele>1372</ele>
        <time>2019-12-19T02:11:01Z</time>
      </trkpt>
      <trkpt lat="44.38229" lon="3.83698">
        <ele>1371</ele>
        <time>2019-12-19T02:11:10Z</time>
      </trkpt>
      <trkpt lat="44.38228" lon="3.83742">
        <ele>1367</ele>
        <time>2019-12-19T02:11:16Z</time>
      </trkpt>
      <trkpt lat="44.38211" lon="3.83849">
        <ele>1362</ele>
        <time>2019-12-19T02:11:30Z</time>
      </trkpt>
      <trkpt lat="44.38213" lon="3.83889">
        <ele>1362</ele>
        <time>2019-12-19T02:11:35Z</time>
      </trkpt>
      <trkpt lat="44.38219" lon="3.83939">
        <ele>1363</ele>
        <time>2019-12-19T02:11:41Z</time>
      </trkpt>
      <trkpt lat="44.38234" lon="3.83976">
        <ele>1364</ele>
        <time>2019-12-19T02:11:47Z</time>
      </trkpt>
      <trkpt lat="44.3824" lon="3.84023">
        <ele>1366</ele>
        <time>2019-12-19T02:11:53Z</time>
      </trkpt>
      <trkpt lat="44.38237" lon="3.84043">
        <ele>1366</ele>
        <time>2019-12-19T02:11:55Z</time>
      </trkpt>
      <trkpt lat="44.38237" lon="3.84064">
        <ele>1366</ele>
        <time>2019-12-19T02:11:58Z</time>
      </trkpt>
      <trkpt lat="44.3824" lon="3.84083">
        <ele>1367</ele>
        <time>2019-12-19T02:12:00Z</time>
      </trkpt>
      <trkpt lat="44.38254" lon="3.84102">
        <ele>1368</ele>
        <time>2019-12-19T02:12:04Z</time>
      </trkpt>
      <trkpt lat="44.38272" lon="3.84119">
        <ele>1369</ele>
        <time>2019-12-19T02:12:08Z</time>
      </trkpt>
      <trkpt lat="44.3828" lon="3.8413">
        <ele>1370</ele>
        <time>2019-12-19T02:12:10Z</time>
      </trkpt>
      <trkpt lat="44.38282" lon="3.84141">
        <ele>1370</ele>
        <time>2019-12-19T02:12:11Z</time>
      </trkpt>
      <trkpt lat="44.38279" lon="3.84159">
        <ele>1370</ele>
        <time>2019-12-19T02:12:14Z</time>
      </trkpt>
      <trkpt lat="44.38273" lon="3.84183">
        <ele>1371</ele>
        <time>2019-12-19T02:12:17Z</time>
      </trkpt>
      <trkpt lat="44.38258" lon="3.84202">
        <ele>1372</ele>
        <time>2019-12-19T02:12:20Z</time>
      </trkpt>
      <trkpt lat="44.38252" lon="3.84206">
        <ele>1373</ele>
        <time>2019-12-19T02:12:22Z</time>
      </trkpt>
      <trkpt lat="44.38243" lon="3.84206">
        <ele>1373</ele>
        <time>2019-12-19T02:12:23Z</time>
      </trkpt>
      <trkpt lat="44.38221" lon="3.842">
        <ele>1373</ele>
        <time>2019-12-19T02:12:27Z</time>
      </trkpt>
      <trkpt lat="44.38208" lon="3.842">
        <ele>1374</ele>
        <time>2019-12-19T02:12:29Z</time>
      </trkpt>
      <trkpt lat="44.38189" lon="3.84209">
        <ele>1376</ele>
        <time>2019-12-19T02:12:33Z</time>
      </trkpt>
      <trkpt lat="44.38174" lon="3.84209">
        <ele>1376</ele>
        <time>2019-12-19T02:12:36Z</time>
      </trkpt>
      <trkpt lat="44.38109" lon="3.84203">
        <ele>1376</ele>
        <time>2019-12-19T02:12:47Z</time>
      </trkpt>
      <trkpt lat="44.38082" lon="3.84223">
        <ele>1379</ele>
        <time>2019-12-19T02:12:53Z</time>
      </trkpt>
      <trkpt lat="44.38059" lon="3.84252">
        <ele>1380</ele>
        <time>2019-12-19T02:12:58Z</time>
      </trkpt>
      <trkpt lat="44.38026" lon="3.84329">
        <ele>1382</ele>
        <time>2019-12-19T02:13:10Z</time>
      </trkpt>
      <trkpt lat="44.38017" lon="3.84373">
        <ele>1383</ele>
        <time>2019-12-19T02:13:15Z</time>
      </trkpt>
      <trkpt lat="44.38016" lon="3.84412">
        <ele>1385</ele>
        <time>2019-12-19T02:13:20Z</time>
      </trkpt>
      <trkpt lat="44.3802" lon="3.84466">
        <ele>1388</ele>
        <time>2019-12-19T02:13:27Z</time>
      </trkpt>
      <trkpt lat="44.38041" lon="3.84576">
        <ele>1394</ele>
        <time>2019-12-19T02:13:42Z</time>
      </trkpt>
      <trkpt lat="44.38104" lon="3.84669">
        <ele>1399</ele>
        <time>2019-12-19T02:13:58Z</time>
      </trkpt>
      <trkpt lat="44.38131" lon="3.84714">
        <ele>1403</ele>
        <time>2019-12-19T02:14:06Z</time>
      </trkpt>
      <trkpt lat="44.38142" lon="3.84741">
        <ele>1404</ele>
        <time>2019-12-19T02:14:09Z</time>
      </trkpt>
      <trkpt lat="44.38146" lon="3.84793">
        <ele>1407</ele>
        <time>2019-12-19T02:14:16Z</time>
      </trkpt>
      <trkpt lat="44.3814" lon="3.84816">
        <ele>1407</ele>
        <time>2019-12-19T02:14:19Z</time>
      </trkpt>
      <trkpt lat="44.38122" lon="3.84856">
        <ele>1408</ele>
        <time>2019-12-19T02:14:25Z</time>
      </trkpt>
      <trkpt lat="44.38123" lon="3.84904">
        <ele>1409</ele>
        <time>2019-12-19T02:14:31Z</time>
      </trkpt>
      <trkpt lat="44.38173" lon="3.85066">
        <ele>1416</ele>
        <time>2019-12-19T02:14:54Z</time>
      </trkpt>
      <trkpt lat="44.38181" lon="3.85076">
        <ele>1416</ele>
        <time>2019-12-19T02:14:56Z</time>
      </trkpt>
      <trkpt lat="44.38214" lon="3.85085">
        <ele>1418</ele>
        <time>2019-12-19T02:15:02Z</time>
      </trkpt>
      <trkpt lat="44.38263" lon="3.85087">
        <ele>1421</ele>
        <time>2019-12-19T02:15:10Z</time>
      </trkpt>
      <trkpt lat="44.38302" lon="3.85072">
        <ele>1423</ele>
        <time>2019-12-19T02:15:18Z</time>
      </trkpt>
      <trkpt lat="44.38326" lon="3.85081">
        <ele>1422</ele>
        <time>2019-12-19T02:15:22Z</time>
      </trkpt>
      <trkpt lat="44.38362" lon="3.85082">
        <ele>1424</ele>
        <time>2019-12-19T02:15:28Z</time>
      </trkpt>
      <trkpt lat="44.38458" lon="3.85133">
        <ele>1428</ele>
        <time>2019-12-19T02:15:47Z</time>
      </trkpt>
      <trkpt lat="44.38472" lon="3.85146">
        <ele>1428</ele>
        <time>2019-12-19T02:15:50Z</time>
      </trkpt>
      <trkpt lat="44.38481" lon="3.85164">
        <ele>1429</ele>
        <time>2019-12-19T02:15:53Z</time>
      </trkpt>
      <trkpt lat="44.38483" lon="3.85209">
        <ele>1431</ele>
        <time>2019-12-19T02:15:58Z</time>
      </trkpt>
      <trkpt lat="44.38477" lon="3.85225">
        <ele>1431</ele>
        <time>2019-12-19T02:16:01Z</time>
      </trkpt>
      <trkpt lat="44.38467" lon="3.85236">
        <ele>1431</ele>
        <time>2019-12-19T02:16:03Z</time>
      </trkpt>
      <trkpt lat="44.3843" lon="3.85252">
        <ele>1430</ele>
        <time>2019-12-19T02:16:10Z</time>
      </trkpt>
      <trkpt lat="44.38396" lon="3.85274">
        <ele>1432</ele>
        <time>2019-12-19T02:16:16Z</time>
      </trkpt>
      <trkpt lat="44.38362" lon="3.8531">
        <ele>1436</ele>
        <time>2019-12-19T02:16:24Z</time>
      </trkpt>
      <trkpt lat="44.38345" lon="3.8532">
        <ele>1438</ele>
        <time>2019-12-19T02:16:27Z</time>
      </trkpt>
      <trkpt lat="44.38317" lon="3.85351">
        <ele>1439</ele>
        <time>2019-12-19T02:16:34Z</time>
      </trkpt>
      <trkpt lat="44.38297" lon="3.85386">
        <ele>1439</ele>
        <time>2019-12-19T02:16:39Z</time>
      </trkpt>
      <trkpt lat="44.38294" lon="3.854">
        <ele>1439</ele>
        <time>2019-12-19T02:16:41Z</time>
      </trkpt>
      <trkpt lat="44.38301" lon="3.85462">
        <ele>1437</ele>
        <time>2019-12-19T02:16:49Z</time>
      </trkpt>
      <trkpt lat="44.38327" lon="3.85558">
        <ele>1434</ele>
        <time>2019-12-19T02:17:02Z</time>
      </trkpt>
      <trkpt lat="44.38344" lon="3.85594">
        <ele>1434</ele>
        <time>2019-12-19T02:17:08Z</time>
      </trkpt>
      <trkpt lat="44.38365" lon="3.85697">
        <ele>1434</ele>
        <time>2019-12-19T02:17:21Z</time>
      </trkpt>
      <trkpt lat="44.38358" lon="3.86071">
        <ele>1433</ele>
        <time>2019-12-19T02:18:09Z</time>
      </trkpt>
      <trkpt lat="44.38403" lon="3.8612">
        <ele>1435</ele>
        <time>2019-12-19T02:18:19Z</time>
      </trkpt>
      <trkpt lat="44.3843" lon="3.86261">
        <ele>1441</ele>
        <time>2019-12-19T02:18:38Z</time>
      </trkpt>
      <trkpt lat="44.38423" lon="3.86291">
        <ele>1441</ele>
        <time>2019-12-19T02:18:42Z</time>
      </trkpt>
      <trkpt lat="44.38436" lon="3.86352">
        <ele>1441</ele>
        <time>2019-12-19T02:18:50Z</time>
      </trkpt>
      <trkpt lat="44.38444" lon="3.86406">
        <ele>1440</ele>
        <time>2019-12-19T02:18:57Z</time>
      </trkpt>
      <trkpt lat="44.38459" lon="3.86449">
        <ele>1440</ele>
        <time>2019-12-19T02:19:03Z</time>
      </trkpt>
      <trkpt lat="44.38457" lon="3.86455">
        <ele>1440</ele>
        <time>2019-12-19T02:19:04Z</time>
      </trkpt>
      <trkpt lat="44.3846" lon="3.86537">
        <ele>1438</ele>
        <time>2019-12-19T02:19:14Z</time>
      </trkpt>
      <trkpt lat="44.38459" lon="3.86593">
        <ele>1437</ele>
        <time>2019-12-19T02:19:21Z</time>
      </trkpt>
      <trkpt lat="44.38457" lon="3.86596">
        <ele>1436</ele>
        <time>2019-12-19T02:19:22Z</time>
      </trkpt>
      <trkpt lat="44.38459" lon="3.86608">
        <ele>1436</ele>
        <time>2019-12-19T02:19:23Z</time>
      </trkpt>
      <trkpt lat="44.38509" lon="3.8668">
        <ele>1435</ele>
        <time>2019-12-19T02:19:36Z</time>
      </trkpt>
      <trkpt lat="44.38555" lon="3.86679">
        <ele>1439</ele>
        <time>2019-12-19T02:19:44Z</time>
      </trkpt>
      <trkpt lat="44.38594" lon="3.86732">
        <ele>1439</ele>
        <time>2019-12-19T02:19:54Z</time>
      </trkpt>
      <trkpt lat="44.38615" lon="3.86774">
        <ele>1439</ele>
        <time>2019-12-19T02:20:00Z</time>
      </trkpt>
      <trkpt lat="44.38627" lon="3.86873">
        <ele>1441</ele>
        <time>2019-12-19T02:20:13Z</time>
      </trkpt>
      <trkpt lat="44.38609" lon="3.86901">
        <ele>1440</ele>
        <time>2019-12-19T02:20:18Z</time>
      </trkpt>
      <trkpt lat="44.38602" lon="3.86936">
        <ele>1439</ele>
        <time>2019-12-19T02:20:23Z</time>
      </trkpt>
      <trkpt lat="44.38626" lon="3.87017">
        <ele>1440</ele>
        <time>2019-12-19T02:20:34Z</time>
      </trkpt>
      <trkpt lat="44.38629" lon="3.87099">
        <ele>1437</ele>
        <time>2019-12-19T02:20:44Z</time>
      </trkpt>
      <trkpt lat="44.38648" lon="3.87153">
        <ele>1436</ele>
        <time>2019-12-19T02:20:52Z</time>
      </trkpt>
      <trkpt lat="44.3865" lon="3.8717">
        <ele>1435</ele>
        <time>2019-12-19T02:20:54Z</time>
      </trkpt>
      <trkpt lat="44.38645" lon="3.8718">
        <ele>1434</ele>
        <time>2019-12-19T02:20:56Z</time>
      </trkpt>
      <trkpt lat="44.38646" lon="3.87184">
        <ele>1434</ele>
        <time>2019-12-19T02:20:56Z</time>
      </trkpt>
      <trkpt lat="44.3864" lon="3.87294">
        <ele>1430</ele>
        <time>2019-12-19T02:21:10Z</time>
      </trkpt>
      <trkpt lat="44.3863" lon="3.87344">
        <ele>1429</ele>
        <time>2019-12-19T02:21:17Z</time>
      </trkpt>
      <trkpt lat="44.38623" lon="3.87358">
        <ele>1429</ele>
        <time>2019-12-19T02:21:19Z</time>
      </trkpt>
      <trkpt lat="44.38614" lon="3.87387">
        <ele>1429</ele>
        <time>2019-12-19T02:21:23Z</time>
      </trkpt>
      <trkpt lat="44.38608" lon="3.87438">
        <ele>1431</ele>
        <time>2019-12-19T02:21:30Z</time>
      </trkpt>
      <trkpt lat="44.386" lon="3.87465">
        <ele>1431</ele>
        <time>2019-12-19T02:21:33Z</time>
      </trkpt>
      <trkpt lat="44.38596" lon="3.87517">
        <ele>1431</ele>
        <time>2019-12-19T02:21:40Z</time>
      </trkpt>
      <trkpt lat="44.38608" lon="3.87559">
        <ele>1430</ele>
        <time>2019-12-19T02:21:46Z</time>
      </trkpt>
      <trkpt lat="44.38617" lon="3.87583">
        <ele>1430</ele>
        <time>2019-12-19T02:21:49Z</time>
      </trkpt>
      <trkpt lat="44.38626" lon="3.87592">
        <ele>1430</ele>
        <time>2019-12-19T02:21:51Z</time>
      </trkpt>
      <trkpt lat="44.38639" lon="3.87596">
        <ele>1431</ele>
        <time>2019-12-19T02:21:53Z</time>
      </trkpt>
      <trkpt lat="44.38661" lon="3.87588">
        <ele>1433</ele>
        <time>2019-12-19T02:21:57Z</time>
      </trkpt>
      <trkpt lat="44.38677" lon="3.87586">
        <ele>1436</ele>
        <time>2019-12-19T02:22:00Z</time>
      </trkpt>
      <trkpt lat="44.38691" lon="3.87593">
        <ele>1438</ele>
        <time>2019-12-19T02:22:03Z</time>
      </trkpt>
      <trkpt lat="44.38736" lon="3.87634">
        <ele>1443</ele>
        <time>2019-12-19T02:22:13Z</time>
      </trkpt>
      <trkpt lat="44.38748" lon="3.87651">
        <ele>1443</ele>
        <time>2019-12-19T02:22:16Z</time>
      </trkpt>
      <trkpt lat="44.3876" lon="3.87685">
        <ele>1443</ele>
        <time>2019-12-19T02:22:20Z</time>
      </trkpt>
      <trkpt lat="44.38789" lon="3.87748">
        <ele>1446</ele>
        <time>2019-12-19T02:22:30Z</time>
      </trkpt>
      <trkpt lat="44.38798" lon="3.87763">
        <ele>1447</ele>
        <time>2019-12-19T02:22:32Z</time>
      </trkpt>
      <trkpt lat="44.38859" lon="3.87826">
        <ele>1456</ele>
        <time>2019-12-19T02:22:46Z</time>
      </trkpt>
      <trkpt lat="44.38866" lon="3.87846">
        <ele>1457</ele>
        <time>2019-12-19T02:22:49Z</time>
      </trkpt>
      <trkpt lat="44.38868" lon="3.87912">
        <ele>1456</ele>
        <time>2019-12-19T02:22:57Z</time>
      </trkpt>
      <trkpt lat="44.38873" lon="3.87926">
        <ele>1456</ele>
        <time>2019-12-19T02:22:59Z</time>
      </trkpt>
      <trkpt lat="44.38901" lon="3.87957">
        <ele>1456</ele>
        <time>2019-12-19T02:23:05Z</time>
      </trkpt>
      <trkpt lat="44.38928" lon="3.88012">
        <ele>1453</ele>
        <time>2019-12-19T02:23:14Z</time>
      </trkpt>
      <trkpt lat="44.38968" lon="3.88066">
        <ele>1450</ele>
        <time>2019-12-19T02:23:24Z</time>
      </trkpt>
      <trkpt lat="44.39044" lon="3.88123">
        <ele>1451</ele>
        <time>2019-12-19T02:23:39Z</time>
      </trkpt>
      <trkpt lat="44.39081" lon="3.88172">
        <ele>1452</ele>
        <time>2019-12-19T02:23:48Z</time>
      </trkpt>
      <trkpt lat="44.39098" lon="3.88215">
        <ele>1453</ele>
        <time>2019-12-19T02:23:54Z</time>
      </trkpt>
      <trkpt lat="44.39104" lon="3.88273">
        <ele>1452</ele>
        <time>2019-12-19T02:24:02Z</time>
      </trkpt>
      <trkpt lat="44.39082" lon="3.88372">
        <ele>1450</ele>
        <time>2019-12-19T02:24:15Z</time>
      </trkpt>
      <trkpt lat="44.39054" lon="3.88477">
        <ele>1450</ele>
        <time>2019-12-19T02:24:29Z</time>
      </trkpt>
      <trkpt lat="44.39049" lon="3.88543">
        <ele>1450</ele>
        <time>2019-12-19T02:24:38Z</time>
      </trkpt>
      <trkpt lat="44.39067" lon="3.88604">
        <ele>1453</ele>
        <time>2019-12-19T02:24:46Z</time>
      </trkpt>
      <trkpt lat="44.39103" lon="3.88686">
        <ele>1455</ele>
        <time>2019-12-19T02:24:58Z</time>
      </trkpt>
      <trkpt lat="44.39115" lon="3.88724">
        <ele>1454</ele>
        <time>2019-12-19T02:25:04Z</time>
      </trkpt>
      <trkpt lat="44.39122" lon="3.88755">
        <ele>1452</ele>
        <time>2019-12-19T02:25:08Z</time>
      </trkpt>
      <trkpt lat="44.39137" lon="3.88776">
        <ele>1452</ele>
        <time>2019-12-19T02:25:12Z</time>
      </trkpt>
      <trkpt lat="44.39163" lon="3.88787">
        <ele>1454</ele>
        <time>2019-12-19T02:25:16Z</time>
      </trkpt>
      <trkpt lat="44.39223" lon="3.888">
        <ele>1457</ele>
        <time>2019-12-19T02:25:27Z</time>
      </trkpt>
      <trkpt lat="44.39243" lon="3.88807">
        <ele>1457</ele>
        <time>2019-12-19T02:25:31Z</time>
      </trkpt>
      <trkpt lat="44.39268" lon="3.88829">
        <ele>1455</ele>
        <time>2019-12-19T02:25:36Z</time>
      </trkpt>
      <trkpt lat="44.39289" lon="3.88858">
        <ele>1456</ele>
        <time>2019-12-19T02:25:41Z</time>
      </trkpt>
      <trkpt lat="44.39294" lon="3.88889">
        <ele>1454</ele>
        <time>2019-12-19T02:25:45Z</time>
      </trkpt>
      <trkpt lat="44.39292" lon="3.88926">
        <ele>1451</ele>
        <time>2019-12-19T02:25:50Z</time>
      </trkpt>
      <trkpt lat="44.39265" lon="3.89024">
        <ele>1450</ele>
        <time>2019-12-19T02:26:04Z</time>
      </trkpt>
      <trkpt lat="44.39229" lon="3.89204">
        <ele>1449</ele>
        <time>2019-12-19T02:26:27Z</time>
      </trkpt>
      <trkpt lat="44.39215" lon="3.8925">
        <ele>1447</ele>
        <time>2019-12-19T02:26:34Z</time>
      </trkpt>
      <trkpt lat="44.39213" lon="3.89288">
        <ele>1445</ele>
        <time>2019-12-19T02:26:39Z</time>
      </trkpt>
      <trkpt lat="44.39172" lon="3.89396">
        <ele>1441</ele>
        <time>2019-12-19T02:26:54Z</time>
      </trkpt>
      <trkpt lat="44.39137" lon="3.89452">
        <ele>1441</ele>
        <time>2019-12-19T02:27:04Z</time>
      </trkpt>
      <trkpt lat="44.3914" lon="3.89462">
        <ele>1439</ele>
        <time>2019-12-19T02:27:05Z</time>
      </trkpt>
      <trkpt lat="44.39149" lon="3.89459">
        <ele>1438</ele>
        <time>2019-12-19T02:27:07Z</time>
      </trkpt>
      <trkpt lat="44.39164" lon="3.89441">
        <ele>1438</ele>
        <time>2019-12-19T02:27:10Z</time>
      </trkpt>
      <trkpt lat="44.39207" lon="3.89398">
        <ele>1434</ele>
        <time>2019-12-19T02:27:19Z</time>
      </trkpt>
      <trkpt lat="44.39366" lon="3.89276">
        <ele>1424</ele>
        <time>2019-12-19T02:27:52Z</time>
      </trkpt>
      <trkpt lat="44.39412" lon="3.89237">
        <ele>1419</ele>
        <time>2019-12-19T02:28:01Z</time>
      </trkpt>
      <trkpt lat="44.3946" lon="3.89209">
        <ele>1409</ele>
        <time>2019-12-19T02:28:11Z</time>
      </trkpt>
      <trkpt lat="44.39481" lon="3.89191">
        <ele>1406</ele>
        <time>2019-12-19T02:28:15Z</time>
      </trkpt>
      <trkpt lat="44.39548" lon="3.89066">
        <ele>1399</ele>
        <time>2019-12-19T02:28:35Z</time>
      </trkpt>
      <trkpt lat="44.39583" lon="3.89031">
        <ele>1390</ele>
        <time>2019-12-19T02:28:42Z</time>
      </trkpt>
      <trkpt lat="44.39597" lon="3.89003">
        <ele>1389</ele>
        <time>2019-12-19T02:28:47Z</time>
      </trkpt>
      <trkpt lat="44.39604" lon="3.88973">
        <ele>1390</ele>
        <time>2019-12-19T02:28:51Z</time>
      </trkpt>
      <trkpt lat="44.39653" lon="3.88867">
        <ele>1383</ele>
        <time>2019-12-19T02:29:07Z</time>
      </trkpt>
      <trkpt lat="44.39678" lon="3.88738">
        <ele>1374</ele>
        <time>2019-12-19T02:29:24Z</time>
      </trkpt>
      <trkpt lat="44.39684" lon="3.88682">
        <ele>1370</ele>
        <time>2019-12-19T02:29:31Z</time>
      </trkpt>
      <trkpt lat="44.39683" lon="3.88634">
        <ele>1372</ele>
        <time>2019-12-19T02:29:37Z</time>
      </trkpt>
      <trkpt lat="44.39685" lon="3.886">
        <ele>1373</ele>
        <time>2019-12-19T02:29:41Z</time>
      </trkpt>
      <trkpt lat="44.39695" lon="3.88572">
        <ele>1371</ele>
        <time>2019-12-19T02:29:45Z</time>
      </trkpt>
      <trkpt lat="44.39717" lon="3.88539">
        <ele>1368</ele>
        <time>2019-12-19T02:29:51Z</time>
      </trkpt>
      <trkpt lat="44.39767" lon="3.88486">
        <ele>1358</ele>
        <time>2019-12-19T02:30:02Z</time>
      </trkpt>
      <trkpt lat="44.39826" lon="3.88446">
        <ele>1343</ele>
        <time>2019-12-19T02:30:14Z</time>
      </trkpt>
      <trkpt lat="44.3984" lon="3.88427">
        <ele>1340</ele>
        <time>2019-12-19T02:30:17Z</time>
      </trkpt>
      <trkpt lat="44.3984" lon="3.88408">
        <ele>1339</ele>
        <time>2019-12-19T02:30:20Z</time>
      </trkpt>
      <trkpt lat="44.3983" lon="3.88382">
        <ele>1338</ele>
        <time>2019-12-19T02:30:24Z</time>
      </trkpt>
      <trkpt lat="44.39798" lon="3.88343">
        <ele>1345</ele>
        <time>2019-12-19T02:30:31Z</time>
      </trkpt>
      <trkpt lat="44.39781" lon="3.88326">
        <ele>1351</ele>
        <time>2019-12-19T02:30:35Z</time>
      </trkpt>
      <trkpt lat="44.39773" lon="3.88306">
        <ele>1355</ele>
        <time>2019-12-19T02:30:38Z</time>
      </trkpt>
      <trkpt lat="44.39774" lon="3.88291">
        <ele>1354</ele>
        <time>2019-12-19T02:30:40Z</time>
      </trkpt>
      <trkpt lat="44.39788" lon="3.88261">
        <ele>1344</ele>
        <time>2019-12-19T02:30:44Z</time>
      </trkpt>
      <trkpt lat="44.39799" lon="3.88202">
        <ele>1345</ele>
        <time>2019-12-19T02:30:52Z</time>
      </trkpt>
      <trkpt lat="44.3982" lon="3.88157">
        <ele>1341</ele>
        <time>2019-12-19T02:30:59Z</time>
      </trkpt>
      <trkpt lat="44.39862" lon="3.88103">
        <ele>1335</ele>
        <time>2019-12-19T02:31:09Z</time>
      </trkpt>
      <trkpt lat="44.39924" lon="3.88053">
        <ele>1321</ele>
        <time>2019-12-19T02:31:22Z</time>
      </trkpt>
      <trkpt lat="44.3998" lon="3.88002">
        <ele>1313</ele>
        <time>2019-12-19T02:31:34Z</time>
      </trkpt>
      <trkpt lat="44.40033" lon="3.87918">
        <ele>1309</ele>
        <time>2019-12-19T02:31:48Z</time>
      </trkpt>
      <trkpt lat="44.4005" lon="3.87896">
        <ele>1302</ele>
        <time>2019-12-19T02:31:52Z</time>
      </trkpt>
      <trkpt lat="44.40058" lon="3.87868">
        <ele>1301</ele>
        <time>2019-12-19T02:31:56Z</time>
      </trkpt>
      <trkpt lat="44.40062" lon="3.87795">
        <ele>1310</ele>
        <time>2019-12-19T02:32:05Z</time>
      </trkpt>
      <trkpt lat="44.40079" lon="3.87756">
        <ele>1308</ele>
        <time>2019-12-19T02:32:11Z</time>
      </trkpt>
      <trkpt lat="44.40099" lon="3.87747">
        <ele>1305</ele>
        <time>2019-12-19T02:32:15Z</time>
      </trkpt>
      <trkpt lat="44.40185" lon="3.87746">
        <ele>1288</ele>
        <time>2019-12-19T02:32:30Z</time>
      </trkpt>
      <trkpt lat="44.4023" lon="3.87763">
        <ele>1277</ele>
        <time>2019-12-19T02:32:38Z</time>
      </trkpt>
      <trkpt lat="44.40244" lon="3.87775">
        <ele>1273</ele>
        <time>2019-12-19T02:32:41Z</time>
      </trkpt>
      <trkpt lat="44.40256" lon="3.87771">
        <ele>1271</ele>
        <time>2019-12-19T02:32:43Z</time>
      </trkpt>
      <trkpt lat="44.40266" lon="3.87747">
        <ele>1270</ele>
        <time>2019-12-19T02:32:47Z</time>
      </trkpt>
      <trkpt lat="44.40266" lon="3.87663">
        <ele>1275</ele>
        <time>2019-12-19T02:32:58Z</time>
      </trkpt>
      <trkpt lat="44.4028" lon="3.87473">
        <ele>1270</ele>
        <time>2019-12-19T02:33:22Z</time>
      </trkpt>
      <trkpt lat="44.40289" lon="3.87384">
        <ele>1266</ele>
        <time>2019-12-19T02:33:33Z</time>
      </trkpt>
      <trkpt lat="44.40312" lon="3.87238">
        <ele>1249</ele>
        <time>2019-12-19T02:33:52Z</time>
      </trkpt>
      <trkpt lat="44.40315" lon="3.87037">
        <ele>1242</ele>
        <time>2019-12-19T02:34:18Z</time>
      </trkpt>
      <trkpt lat="44.40318" lon="3.86994">
        <ele>1238</ele>
        <time>2019-12-19T02:34:23Z</time>
      </trkpt>
      <trkpt lat="44.40358" lon="3.86831">
        <ele>1227</ele>
        <time>2019-12-19T02:34:45Z</time>
      </trkpt>
      <trkpt lat="44.40375" lon="3.86793">
        <ele>1226</ele>
        <time>2019-12-19T02:34:51Z</time>
      </trkpt>
      <trkpt lat="44.40401" lon="3.86753">
        <ele>1222</ele>
        <time>2019-12-19T02:34:58Z</time>
      </trkpt>
      <trkpt lat="44.40431" lon="3.8669">
        <ele>1224</ele>
        <time>2019-12-19T02:35:08Z</time>
      </trkpt>
      <trkpt lat="44.40452" lon="3.86672">
        <ele>1222</ele>
        <time>2019-12-19T02:35:12Z</time>
      </trkpt>
      <trkpt lat="44.40479" lon="3.8667">
        <ele>1215</ele>
        <time>2019-12-19T02:35:17Z</time>
      </trkpt>
      <trkpt lat="44.40518" lon="3.86678">
        <ele>1212</ele>
        <time>2019-12-19T02:35:24Z</time>
      </trkpt>
      <trkpt lat="44.40526" lon="3.86682">
        <ele>1213</ele>
        <time>2019-12-19T02:35:25Z</time>
      </trkpt>
      <trkpt lat="44.40534" lon="3.86688">
        <ele>1213</ele>
        <time>2019-12-19T02:35:27Z</time>
      </trkpt>
      <trkpt lat="44.40541" lon="3.86703">
        <ele>1212</ele>
        <time>2019-12-19T02:35:29Z</time>
      </trkpt>
      <trkpt lat="44.40546" lon="3.86723">
        <ele>1209</ele>
        <time>2019-12-19T02:35:32Z</time>
      </trkpt>
      <trkpt lat="44.40561" lon="3.86758">
        <ele>1205</ele>
        <time>2019-12-19T02:35:37Z</time>
      </trkpt>
      <trkpt lat="44.40574" lon="3.86778">
        <ele>1204</ele>
        <time>2019-12-19T02:35:40Z</time>
      </trkpt>
      <trkpt lat="44.40582" lon="3.86809">
        <ele>1201</ele>
        <time>2019-12-19T02:35:45Z</time>
      </trkpt>
      <trkpt lat="44.40581" lon="3.86872">
        <ele>1195</ele>
        <time>2019-12-19T02:35:53Z</time>
      </trkpt>
      <trkpt lat="44.4058" lon="3.86909">
        <ele>1191</ele>
        <time>2019-12-19T02:35:57Z</time>
      </trkpt>
      <trkpt lat="44.40582" lon="3.86942">
        <ele>1188</ele>
        <time>2019-12-19T02:36:02Z</time>
      </trkpt>
      <trkpt lat="44.4063" lon="3.87119">
        <ele>1181</ele>
        <time>2019-12-19T02:36:26Z</time>
      </trkpt>
      <trkpt lat="44.40654" lon="3.87163">
        <ele>1176</ele>
        <time>2019-12-19T02:36:33Z</time>
      </trkpt>
      <trkpt lat="44.40684" lon="3.87209">
        <ele>1170</ele>
        <time>2019-12-19T02:36:41Z</time>
      </trkpt>
      <trkpt lat="44.40716" lon="3.87266">
        <ele>1164</ele>
        <time>2019-12-19T02:36:50Z</time>
      </trkpt>
      <trkpt lat="44.40731" lon="3.87306">
        <ele>1163</ele>
        <time>2019-12-19T02:36:56Z</time>
      </trkpt>
      <trkpt lat="44.40731" lon="3.8732">
        <ele>1162</ele>
        <time>2019-12-19T02:36:57Z</time>
      </trkpt>
      <trkpt lat="44.4072" lon="3.87347">
        <ele>1157</ele>
        <time>2019-12-19T02:37:01Z</time>
      </trkpt>
      <trkpt lat="44.40714" lon="3.87384">
        <ele>1153</ele>
        <time>2019-12-19T02:37:06Z</time>
      </trkpt>
      <trkpt lat="44.40716" lon="3.87416">
        <ele>1152</ele>
        <time>2019-12-19T02:37:10Z</time>
      </trkpt>
      <trkpt lat="44.40723" lon="3.87456">
        <ele>1150</ele>
        <time>2019-12-19T02:37:15Z</time>
      </trkpt>
      <trkpt lat="44.40737" lon="3.87493">
        <ele>1151</ele>
        <time>2019-12-19T02:37:21Z</time>
      </trkpt>
      <trkpt lat="44.40753" lon="3.87519">
        <ele>1152</ele>
        <time>2019-12-19T02:37:25Z</time>
      </trkpt>
      <trkpt lat="44.40754" lon="3.8753">
        <ele>1149</ele>
        <time>2019-12-19T02:37:26Z</time>
      </trkpt>
      <trkpt lat="44.40747" lon="3.87535">
        <ele>1144</ele>
        <time>2019-12-19T02:37:28Z</time>
      </trkpt>
      <trkpt lat="44.4074" lon="3.87527">
        <ele>1144</ele>
        <time>2019-12-19T02:37:30Z</time>
      </trkpt>
      <trkpt lat="44.40733" lon="3.87509">
        <ele>1146</ele>
        <time>2019-12-19T02:37:32Z</time>
      </trkpt>
      <trkpt lat="44.4071" lon="3.87466">
        <ele>1142</ele>
        <time>2019-12-19T02:37:39Z</time>
      </trkpt>
      <trkpt lat="44.40689" lon="3.87422">
        <ele>1139</ele>
        <time>2019-12-19T02:37:46Z</time>
      </trkpt>
      <trkpt lat="44.40681" lon="3.87376">
        <ele>1142</ele>
        <time>2019-12-19T02:37:52Z</time>
      </trkpt>
      <trkpt lat="44.40679" lon="3.87354">
        <ele>1144</ele>
        <time>2019-12-19T02:37:54Z</time>
      </trkpt>
      <trkpt lat="44.40674" lon="3.87345">
        <ele>1144</ele>
        <time>2019-12-19T02:37:56Z</time>
      </trkpt>
      <trkpt lat="44.40668" lon="3.87348">
        <ele>1142</ele>
        <time>2019-12-19T02:37:57Z</time>
      </trkpt>
      <trkpt lat="44.40667" lon="3.87369">
        <ele>1138</ele>
        <time>2019-12-19T02:38:00Z</time>
      </trkpt>
      <trkpt lat="44.40677" lon="3.87446">
        <ele>1130</ele>
        <time>2019-12-19T02:38:10Z</time>
      </trkpt>
      <trkpt lat="44.40691" lon="3.87505">
        <ele>1128</ele>
        <time>2019-12-19T02:38:18Z</time>
      </trkpt>
      <trkpt lat="44.40722" lon="3.87595">
        <ele>1121</ele>
        <time>2019-12-19T02:38:30Z</time>
      </trkpt>
      <trkpt lat="44.40757" lon="3.87658">
        <ele>1114</ele>
        <time>2019-12-19T02:38:40Z</time>
      </trkpt>
      <trkpt lat="44.40768" lon="3.87671">
        <ele>1113</ele>
        <time>2019-12-19T02:38:43Z</time>
      </trkpt>
      <trkpt lat="44.40801" lon="3.87691">
        <ele>1114</ele>
        <time>2019-12-19T02:38:49Z</time>
      </trkpt>
      <trkpt lat="44.40875" lon="3.87795">
        <ele>1099</ele>
        <time>2019-12-19T02:39:08Z</time>
      </trkpt>
      <trkpt lat="44.40912" lon="3.87868">
        <ele>1089</ele>
        <time>2019-12-19T02:39:19Z</time>
      </trkpt>
      <trkpt lat="44.40958" lon="3.87928">
        <ele>1084</ele>
        <time>2019-12-19T02:39:31Z</time>
      </trkpt>
      <trkpt lat="44.40997" lon="3.87972">
        <ele>1085</ele>
        <time>2019-12-19T02:39:40Z</time>
      </trkpt>
      <trkpt lat="44.41007" lon="3.87993">
        <ele>1086</ele>
        <time>2019-12-19T02:39:43Z</time>
      </trkpt>
      <trkpt lat="44.41018" lon="3.88034">
        <ele>1086</ele>
        <time>2019-12-19T02:39:48Z</time>
      </trkpt>
      <trkpt lat="44.41037" lon="3.88089">
        <ele>1086</ele>
        <time>2019-12-19T02:39:56Z</time>
      </trkpt>
      <trkpt lat="44.41039" lon="3.88102">
        <ele>1087</ele>
        <time>2019-12-19T02:39:58Z</time>
      </trkpt>
      <trkpt lat="44.41036" lon="3.88111">
        <ele>1085</ele>
        <time>2019-12-19T02:39:59Z</time>
      </trkpt>
      <trkpt lat="44.4102" lon="3.8814">
        <ele>1080</ele>
        <time>2019-12-19T02:40:04Z</time>
      </trkpt>
      <trkpt lat="44.41008" lon="3.88172">
        <ele>1076</ele>
        <time>2019-12-19T02:40:08Z</time>
      </trkpt>
      <trkpt lat="44.41" lon="3.88206">
        <ele>1075</ele>
        <time>2019-12-19T02:40:13Z</time>
      </trkpt>
      <trkpt lat="44.40984" lon="3.88297">
        <ele>1073</ele>
        <time>2019-12-19T02:40:25Z</time>
      </trkpt>
      <trkpt lat="44.40984" lon="3.88346">
        <ele>1072</ele>
        <time>2019-12-19T02:40:31Z</time>
      </trkpt>
      <trkpt lat="44.40988" lon="3.88395">
        <ele>1069</ele>
        <time>2019-12-19T02:40:37Z</time>
      </trkpt>
      <trkpt lat="44.40999" lon="3.88452">
        <ele>1065</ele>
        <time>2019-12-19T02:40:45Z</time>
      </trkpt>
      <trkpt lat="44.41015" lon="3.8851">
        <ele>1059</ele>
        <time>2019-12-19T02:40:53Z</time>
      </trkpt>
      <trkpt lat="44.41024" lon="3.88523">
        <ele>1058</ele>
        <time>2019-12-19T02:40:55Z</time>
      </trkpt>
      <trkpt lat="44.41078" lon="3.88551">
        <ele>1065</ele>
        <time>2019-12-19T02:41:05Z</time>
      </trkpt>
      <trkpt lat="44.41099" lon="3.88571">
        <ele>1065</ele>
        <time>2019-12-19T02:41:10Z</time>
      </trkpt>
      <trkpt lat="44.41107" lon="3.88588">
        <ele>1063</ele>
        <time>2019-12-19T02:41:12Z</time>
      </trkpt>
      <trkpt lat="44.4111" lon="3.88606">
        <ele>1064</ele>
        <time>2019-12-19T02:41:15Z</time>
      </trkpt>
      <trkpt lat="44.41107" lon="3.88625">
        <ele>1063</ele>
        <time>2019-12-19T02:41:17Z</time>
      </trkpt>
      <trkpt lat="44.41085" lon="3.88655">
        <ele>1054</ele>
        <time>2019-12-19T02:41:23Z</time>
      </trkpt>
      <trkpt lat="44.41072" lon="3.88669">
        <ele>1050</ele>
        <time>2019-12-19T02:41:26Z</time>
      </trkpt>
      <trkpt lat="44.41065" lon="3.88684">
        <ele>1048</ele>
        <time>2019-12-19T02:41:28Z</time>
      </trkpt>
      <trkpt lat="44.41065" lon="3.887">
        <ele>1048</ele>
        <time>2019-12-19T02:41:30Z</time>
      </trkpt>
      <trkpt lat="44.41072" lon="3.88721">
        <ele>1051</ele>
        <time>2019-12-19T02:41:33Z</time>
      </trkpt>
      <trkpt lat="44.41076" lon="3.88742">
        <ele>1053</ele>
        <time>2019-12-19T02:41:36Z</time>
      </trkpt>
      <trkpt lat="44.41075" lon="3.88758">
        <ele>1054</ele>
        <time>2019-12-19T02:41:38Z</time>
      </trkpt>
      <trkpt lat="44.41066" lon="3.88773">
        <ele>1054</ele>
        <time>2019-12-19T02:41:40Z</time>
      </trkpt>
      <trkpt lat="44.41052" lon="3.8878">
        <ele>1050</ele>
        <time>2019-12-19T02:41:43Z</time>
      </trkpt>
      <trkpt lat="44.41029" lon="3.88783">
        <ele>1043</ele>
        <time>2019-12-19T02:41:47Z</time>
      </trkpt>
      <trkpt lat="44.4101" lon="3.88789">
        <ele>1037</ele>
        <time>2019-12-19T02:41:50Z</time>
      </trkpt>
      <trkpt lat="44.41" lon="3.88796">
        <ele>1035</ele>
        <time>2019-12-19T02:41:52Z</time>
      </trkpt>
      <trkpt lat="44.40985" lon="3.8881">
        <ele>1031</ele>
        <time>2019-12-19T02:41:55Z</time>
      </trkpt>
      <trkpt lat="44.40977" lon="3.8883">
        <ele>1030</ele>
        <time>2019-12-19T02:41:58Z</time>
      </trkpt>
      <trkpt lat="44.40971" lon="3.88887">
        <ele>1029</ele>
        <time>2019-12-19T02:42:06Z</time>
      </trkpt>
      <trkpt lat="44.40969" lon="3.88946">
        <ele>1026</ele>
        <time>2019-12-19T02:42:13Z</time>
      </trkpt>
      <trkpt lat="44.40972" lon="3.88975">
        <ele>1026</ele>
        <time>2019-12-19T02:42:17Z</time>
      </trkpt>
      <trkpt lat="44.4098" lon="3.89015">
        <ele>1027</ele>
        <time>2019-12-19T02:42:22Z</time>
      </trkpt>
      <trkpt lat="44.40992" lon="3.89065">
        <ele>1025</ele>
        <time>2019-12-19T02:42:29Z</time>
      </trkpt>
      <trkpt lat="44.41016" lon="3.89117">
        <ele>1031</ele>
        <time>2019-12-19T02:42:37Z</time>
      </trkpt>
      <trkpt lat="44.41022" lon="3.89146">
        <ele>1030</ele>
        <time>2019-12-19T02:42:41Z</time>
      </trkpt>
      <trkpt lat="44.41023" lon="3.89178">
        <ele>1027</ele>
        <time>2019-12-19T02:42:45Z</time>
      </trkpt>
      <trkpt lat="44.41017" lon="3.89217">
        <ele>1020</ele>
        <time>2019-12-19T02:42:50Z</time>
      </trkpt>
      <trkpt lat="44.41006" lon="3.89248">
        <ele>1011</ele>
        <time>2019-12-19T02:42:54Z</time>
      </trkpt>
      <trkpt lat="44.41" lon="3.89287">
        <ele>1007</ele>
        <time>2019-12-19T02:42:59Z</time>
      </trkpt>
      <trkpt lat="44.41002" lon="3.89318">
        <ele>1007</ele>
        <time>2019-12-19T02:43:03Z</time>
      </trkpt>
      <trkpt lat="44.41016" lon="3.89371">
        <ele>1011</ele>
        <time>2019-12-19T02:43:10Z</time>
      </trkpt>
      <trkpt lat="44.41018" lon="3.894">
        <ele>1009</ele>
        <time>2019-12-19T02:43:14Z</time>
      </trkpt>
      <trkpt lat="44.41014" lon="3.89425">
        <ele>1004</ele>
        <time>2019-12-19T02:43:17Z</time>
      </trkpt>
      <trkpt lat="44.40982" lon="3.89501">
        <ele>990</ele>
        <time>2019-12-19T02:43:29Z</time>
      </trkpt>
      <trkpt lat="44.40977" lon="3.89526">
        <ele>986</ele>
        <time>2019-12-19T02:43:32Z</time>
      </trkpt>
      <trkpt lat="44.40978" lon="3.89545">
        <ele>984</ele>
        <time>2019-12-19T02:43:34Z</time>
      </trkpt>
      <trkpt lat="44.40985" lon="3.89557">
        <ele>986</ele>
        <time>2019-12-19T02:43:36Z</time>
      </trkpt>
      <trkpt lat="44.40998" lon="3.89562">
        <ele>989</ele>
        <time>2019-12-19T02:43:39Z</time>
      </trkpt>
      <trkpt lat="44.41029" lon="3.89553">
        <ele>997</ele>
        <time>2019-12-19T02:43:44Z</time>
      </trkpt>
      <trkpt lat="44.4105" lon="3.89557">
        <ele>1000</ele>
        <time>2019-12-19T02:43:48Z</time>
      </trkpt>
      <trkpt lat="44.41147" lon="3.8965">
        <ele>985</ele>
        <time>2019-12-19T02:44:09Z</time>
      </trkpt>
      <trkpt lat="44.41182" lon="3.89696">
        <ele>987</ele>
        <time>2019-12-19T02:44:18Z</time>
      </trkpt>
      <trkpt lat="44.41185" lon="3.89723">
        <ele>985</ele>
        <time>2019-12-19T02:44:21Z</time>
      </trkpt>
      <trkpt lat="44.41181" lon="3.89741">
        <ele>982</ele>
        <time>2019-12-19T02:44:23Z</time>
      </trkpt>
      <trkpt lat="44.4115" lon="3.89779">
        <ele>970</ele>
        <time>2019-12-19T02:44:31Z</time>
      </trkpt>
      <trkpt lat="44.41137" lon="3.89802">
        <ele>965</ele>
        <time>2019-12-19T02:44:34Z</time>
      </trkpt>
      <trkpt lat="44.41128" lon="3.89824">
        <ele>962</ele>
        <time>2019-12-19T02:44:38Z</time>
      </trkpt>
      <trkpt lat="44.41123" lon="3.89851">
        <ele>959</ele>
        <time>2019-12-19T02:44:41Z</time>
      </trkpt>
      <trkpt lat="44.41123" lon="3.89878">
        <ele>958</ele>
        <time>2019-12-19T02:44:45Z</time>
      </trkpt>
      <trkpt lat="44.41128" lon="3.8991">
        <ele>958</ele>
        <time>2019-12-19T02:44:49Z</time>
      </trkpt>
      <trkpt lat="44.41135" lon="3.89937">
        <ele>957</ele>
        <time>2019-12-19T02:44:52Z</time>
      </trkpt>
      <trkpt lat="44.4116" lon="3.90008">
        <ele>956</ele>
        <time>2019-12-19T02:45:03Z</time>
      </trkpt>
      <trkpt lat="44.41165" lon="3.90039">
        <ele>954</ele>
        <time>2019-12-19T02:45:07Z</time>
      </trkpt>
      <trkpt lat="44.41164" lon="3.90066">
        <ele>951</ele>
        <time>2019-12-19T02:45:10Z</time>
      </trkpt>
      <trkpt lat="44.41159" lon="3.90118">
        <ele>940</ele>
        <time>2019-12-19T02:45:17Z</time>
      </trkpt>
      <trkpt lat="44.41162" lon="3.9015">
        <ele>938</ele>
        <time>2019-12-19T02:45:21Z</time>
      </trkpt>
      <trkpt lat="44.41176" lon="3.90207">
        <ele>939</ele>
        <time>2019-12-19T02:45:28Z</time>
      </trkpt>
      <trkpt lat="44.41191" lon="3.90318">
        <ele>934</ele>
        <time>2019-12-19T02:45:43Z</time>
      </trkpt>
      <trkpt lat="44.41196" lon="3.9035">
        <ele>932</ele>
        <time>2019-12-19T02:45:47Z</time>
      </trkpt>
      <trkpt lat="44.41208" lon="3.90405">
        <ele>931</ele>
        <time>2019-12-19T02:45:54Z</time>
      </trkpt>
      <trkpt lat="44.4121" lon="3.90427">
        <ele>929</ele>
        <time>2019-12-19T02:45:57Z</time>
      </trkpt>
      <trkpt lat="44.41209" lon="3.90455">
        <ele>926</ele>
        <time>2019-12-19T02:46:01Z</time>
      </trkpt>
      <trkpt lat="44.41205" lon="3.90475">
        <ele>923</ele>
        <time>2019-12-19T02:46:03Z</time>
      </trkpt>
      <trkpt lat="44.41202" lon="3.90504">
        <ele>918</ele>
        <time>2019-12-19T02:46:07Z</time>
      </trkpt>
      <trkpt lat="44.41205" lon="3.90572">
        <ele>913</ele>
        <time>2019-12-19T02:46:16Z</time>
      </trkpt>
      <trkpt lat="44.412" lon="3.90631">
        <ele>901</ele>
        <time>2019-12-19T02:46:23Z</time>
      </trkpt>
      <trkpt lat="44.41201" lon="3.9065">
        <ele>898</ele>
        <time>2019-12-19T02:46:26Z</time>
      </trkpt>
      <trkpt lat="44.41208" lon="3.90669">
        <ele>896</ele>
        <time>2019-12-19T02:46:28Z</time>
      </trkpt>
      <trkpt lat="44.41218" lon="3.9068">
        <ele>896</ele>
        <time>2019-12-19T02:46:31Z</time>
      </trkpt>
      <trkpt lat="44.41231" lon="3.9069">
        <ele>898</ele>
        <time>2019-12-19T02:46:33Z</time>
      </trkpt>
      <trkpt lat="44.41258" lon="3.90696">
        <ele>901</ele>
        <time>2019-12-19T02:46:38Z</time>
      </trkpt>
      <trkpt lat="44.41264" lon="3.907">
        <ele>900</ele>
        <time>2019-12-19T02:46:39Z</time>
      </trkpt>
      <trkpt lat="44.41268" lon="3.90705">
        <ele>899</ele>
        <time>2019-12-19T02:46:40Z</time>
      </trkpt>
      <trkpt lat="44.41266" lon="3.90713">
        <ele>897</ele>
        <time>2019-12-19T02:46:41Z</time>
      </trkpt>
      <trkpt lat="44.4126" lon="3.90717">
        <ele>896</ele>
        <time>2019-12-19T02:46:43Z</time>
      </trkpt>
      <trkpt lat="44.41249" lon="3.90715">
        <ele>897</ele>
        <time>2019-12-19T02:46:44Z</time>
      </trkpt>
      <trkpt lat="44.41202" lon="3.90696">
        <ele>888</ele>
        <time>2019-12-19T02:46:53Z</time>
      </trkpt>
      <trkpt lat="44.41191" lon="3.90686">
        <ele>888</ele>
        <time>2019-12-19T02:46:56Z</time>
      </trkpt>
      <trkpt lat="44.41182" lon="3.90669">
        <ele>889</ele>
        <time>2019-12-19T02:46:58Z</time>
      </trkpt>
      <trkpt lat="44.41174" lon="3.90641">
        <ele>891</ele>
        <time>2019-12-19T02:47:02Z</time>
      </trkpt>
      <trkpt lat="44.41169" lon="3.9059">
        <ele>896</ele>
        <time>2019-12-19T02:47:09Z</time>
      </trkpt>
      <trkpt lat="44.41146" lon="3.90462">
        <ele>893</ele>
        <time>2019-12-19T02:47:25Z</time>
      </trkpt>
      <trkpt lat="44.41125" lon="3.90397">
        <ele>888</ele>
        <time>2019-12-19T02:47:34Z</time>
      </trkpt>
      <trkpt lat="44.41118" lon="3.90332">
        <ele>889</ele>
        <time>2019-12-19T02:47:43Z</time>
      </trkpt>
      <trkpt lat="44.41111" lon="3.90327">
        <ele>886</ele>
        <time>2019-12-19T02:47:44Z</time>
      </trkpt>
      <trkpt lat="44.41104" lon="3.90333">
        <ele>881</ele>
        <time>2019-12-19T02:47:46Z</time>
      </trkpt>
      <trkpt lat="44.41111" lon="3.90389">
        <ele>881</ele>
        <time>2019-12-19T02:47:53Z</time>
      </trkpt>
      <trkpt lat="44.41118" lon="3.9042">
        <ele>882</ele>
        <time>2019-12-19T02:47:57Z</time>
      </trkpt>
      <trkpt lat="44.41121" lon="3.90451">
        <ele>881</ele>
        <time>2019-12-19T02:48:01Z</time>
      </trkpt>
      <trkpt lat="44.41113" lon="3.90514">
        <ele>873</ele>
        <time>2019-12-19T02:48:09Z</time>
      </trkpt>
      <trkpt lat="44.41111" lon="3.9057">
        <ele>869</ele>
        <time>2019-12-19T02:48:16Z</time>
      </trkpt>
      <trkpt lat="44.41111" lon="3.90591">
        <ele>867</ele>
        <time>2019-12-19T02:48:19Z</time>
      </trkpt>
      <trkpt lat="44.41114" lon="3.90613">
        <ele>865</ele>
        <time>2019-12-19T02:48:22Z</time>
      </trkpt>
      <trkpt lat="44.41125" lon="3.90653">
        <ele>865</ele>
        <time>2019-12-19T02:48:27Z</time>
      </trkpt>
      <trkpt lat="44.41126" lon="3.90666">
        <ele>863</ele>
        <time>2019-12-19T02:48:29Z</time>
      </trkpt>
      <trkpt lat="44.41123" lon="3.90697">
        <ele>854</ele>
        <time>2019-12-19T02:48:33Z</time>
      </trkpt>
      <trkpt lat="44.41123" lon="3.90718">
        <ele>849</ele>
        <time>2019-12-19T02:48:36Z</time>
      </trkpt>
      <trkpt lat="44.41135" lon="3.90761">
        <ele>845</ele>
        <time>2019-12-19T02:48:41Z</time>
      </trkpt>
      <trkpt lat="44.41146" lon="3.90785">
        <ele>843</ele>
        <time>2019-12-19T02:48:45Z</time>
      </trkpt>
      <trkpt lat="44.41155" lon="3.90794">
        <ele>844</ele>
        <time>2019-12-19T02:48:47Z</time>
      </trkpt>
      <trkpt lat="44.41214" lon="3.9082">
        <ele>854</ele>
        <time>2019-12-19T02:48:58Z</time>
      </trkpt>
      <trkpt lat="44.4124" lon="3.90853">
        <ele>850</ele>
        <time>2019-12-19T02:49:04Z</time>
      </trkpt>
      <trkpt lat="44.41267" lon="3.90912">
        <ele>832</ele>
        <time>2019-12-19T02:49:13Z</time>
      </trkpt>
      <trkpt lat="44.41277" lon="3.90929">
        <ele>827</ele>
        <time>2019-12-19T02:49:16Z</time>
      </trkpt>
      <trkpt lat="44.41287" lon="3.9094">
        <ele>825</ele>
        <time>2019-12-19T02:49:18Z</time>
      </trkpt>
      <trkpt lat="44.41302" lon="3.90945">
        <ele>825</ele>
        <time>2019-12-19T02:49:21Z</time>
      </trkpt>
      <trkpt lat="44.41317" lon="3.90944">
        <ele>827</ele>
        <time>2019-12-19T02:49:24Z</time>
      </trkpt>
      <trkpt lat="44.4136" lon="3.90928">
        <ele>833</ele>
        <time>2019-12-19T02:49:32Z</time>
      </trkpt>
      <trkpt lat="44.41409" lon="3.90932">
        <ele>827</ele>
        <time>2019-12-19T02:49:40Z</time>
      </trkpt>
      <trkpt lat="44.41462" lon="3.90927">
        <ele>821</ele>
        <time>2019-12-19T02:49:50Z</time>
      </trkpt>
      <trkpt lat="44.41566" lon="3.90878">
        <ele>817</ele>
        <time>2019-12-19T02:50:09Z</time>
      </trkpt>
      <trkpt lat="44.41596" lon="3.90853">
        <ele>819</ele>
        <time>2019-12-19T02:50:15Z</time>
      </trkpt>
      <trkpt lat="44.41609" lon="3.90849">
        <ele>820</ele>
        <time>2019-12-19T02:50:18Z</time>
      </trkpt>
      <trkpt lat="44.41614" lon="3.90854">
        <ele>819</ele>
        <time>2019-12-19T02:50:19Z</time>
      </trkpt>
      <trkpt lat="44.41638" lon="3.909">
        <ele>807</ele>
        <time>2019-12-19T02:50:26Z</time>
      </trkpt>
      <trkpt lat="44.41645" lon="3.90911">
        <ele>804</ele>
        <time>2019-12-19T02:50:28Z</time>
      </trkpt>
      <trkpt lat="44.41655" lon="3.90914">
        <ele>804</ele>
        <time>2019-12-19T02:50:30Z</time>
      </trkpt>
      <trkpt lat="44.41678" lon="3.90905">
        <ele>804</ele>
        <time>2019-12-19T02:50:34Z</time>
      </trkpt>
      <trkpt lat="44.41707" lon="3.90888">
        <ele>805</ele>
        <time>2019-12-19T02:50:40Z</time>
      </trkpt>
      <trkpt lat="44.4176" lon="3.90866">
        <ele>805</ele>
        <time>2019-12-19T02:50:50Z</time>
      </trkpt>
      <trkpt lat="44.41791" lon="3.90849">
        <ele>802</ele>
        <time>2019-12-19T02:50:55Z</time>
      </trkpt>
      <trkpt lat="44.41801" lon="3.90835">
        <ele>804</ele>
        <time>2019-12-19T02:50:58Z</time>
      </trkpt>
      <trkpt lat="44.41809" lon="3.90816">
        <ele>808</ele>
        <time>2019-12-19T02:51:01Z</time>
      </trkpt>
      <trkpt lat="44.41821" lon="3.90809">
        <ele>807</ele>
        <time>2019-12-19T02:51:03Z</time>
      </trkpt>
      <trkpt lat="44.41832" lon="3.90809">
        <ele>805</ele>
        <time>2019-12-19T02:51:05Z</time>
      </trkpt>
      <trkpt lat="44.41867" lon="3.90834">
        <ele>797</ele>
        <time>2019-12-19T02:51:12Z</time>
      </trkpt>
      <trkpt lat="44.41953" lon="3.90862">
        <ele>785</ele>
        <time>2019-12-19T02:51:28Z</time>
      </trkpt>
      <trkpt lat="44.42025" lon="3.9084">
        <ele>784</ele>
        <time>2019-12-19T02:51:41Z</time>
      </trkpt>
      <trkpt lat="44.42126" lon="3.90822">
        <ele>779</ele>
        <time>2019-12-19T02:51:59Z</time>
      </trkpt>
      <trkpt lat="44.42136" lon="3.90826">
        <ele>776</ele>
        <time>2019-12-19T02:52:01Z</time>
      </trkpt>
      <trkpt lat="44.42139" lon="3.90834">
        <ele>773</ele>
        <time>2019-12-19T02:52:02Z</time>
      </trkpt>
      <trkpt lat="44.42138" lon="3.90844">
        <ele>770</ele>
        <time>2019-12-19T02:52:03Z</time>
      </trkpt>
      <trkpt lat="44.42129" lon="3.90851">
        <ele>768</ele>
        <time>2019-12-19T02:52:05Z</time>
      </trkpt>
      <trkpt lat="44.42089" lon="3.90849">
        <ele>771</ele>
        <time>2019-12-19T02:52:12Z</time>
      </trkpt>
      <trkpt lat="44.42019" lon="3.90884">
        <ele>768</ele>
        <time>2019-12-19T02:52:25Z</time>
      </trkpt>
      <trkpt lat="44.41963" lon="3.90953">
        <ele>755</ele>
        <time>2019-12-19T02:52:39Z</time>
      </trkpt>
      <trkpt lat="44.41952" lon="3.90959">
        <ele>754</ele>
        <time>2019-12-19T02:52:41Z</time>
      </trkpt>
      <trkpt lat="44.41937" lon="3.90955">
        <ele>757</ele>
        <time>2019-12-19T02:52:44Z</time>
      </trkpt>
      <trkpt lat="44.41907" lon="3.9096">
        <ele>758</ele>
        <time>2019-12-19T02:52:49Z</time>
      </trkpt>
      <trkpt lat="44.41898" lon="3.90982">
        <ele>754</ele>
        <time>2019-12-19T02:52:52Z</time>
      </trkpt>
      <trkpt lat="44.41903" lon="3.90998">
        <ele>749</ele>
        <time>2019-12-19T02:52:54Z</time>
      </trkpt>
      <trkpt lat="44.41915" lon="3.91011">
        <ele>748</ele>
        <time>2019-12-19T02:52:57Z</time>
      </trkpt>
      <trkpt lat="44.41937" lon="3.91036">
        <ele>748</ele>
        <time>2019-12-19T02:53:02Z</time>
      </trkpt>
      <trkpt lat="44.41961" lon="3.91064">
        <ele>750</ele>
        <time>2019-12-19T02:53:08Z</time>
      </trkpt>
      <trkpt lat="44.41982" lon="3.91077">
        <ele>752</ele>
        <time>2019-12-19T02:53:12Z</time>
      </trkpt>
      <trkpt lat="44.4201" lon="3.91081">
        <ele>753</ele>
        <time>2019-12-19T02:53:17Z</time>
      </trkpt>
      <trkpt lat="44.42032" lon="3.91076">
        <ele>752</ele>
        <time>2019-12-19T02:53:21Z</time>
      </trkpt>
      <trkpt lat="44.42149" lon="3.90989">
        <ele>740</ele>
        <time>2019-12-19T02:53:44Z</time>
      </trkpt>
      <trkpt lat="44.42172" lon="3.90978">
        <ele>741</ele>
        <time>2019-12-19T02:53:49Z</time>
      </trkpt>
      <trkpt lat="44.42191" lon="3.90978">
        <ele>740</ele>
        <time>2019-12-19T02:53:52Z</time>
      </trkpt>
      <trkpt lat="44.42209" lon="3.90984">
        <ele>739</ele>
        <time>2019-12-19T02:53:55Z</time>
      </trkpt>
      <trkpt lat="44.42221" lon="3.90998">
        <ele>737</ele>
        <time>2019-12-19T02:53:58Z</time>
      </trkpt>
      <trkpt lat="44.42229" lon="3.9102">
        <ele>736</ele>
        <time>2019-12-19T02:54:01Z</time>
      </trkpt>
      <trkpt lat="44.42231" lon="3.91039">
        <ele>736</ele>
        <time>2019-12-19T02:54:04Z</time>
      </trkpt>
      <trkpt lat="44.42226" lon="3.91065">
        <ele>736</ele>
        <time>2019-12-19T02:54:07Z</time>
      </trkpt>
      <trkpt lat="44.42217" lon="3.91103">
        <ele>740</ele>
        <time>2019-12-19T02:54:12Z</time>
      </trkpt>
      <trkpt lat="44.42216" lon="3.91136">
        <ele>744</ele>
        <time>2019-12-19T02:54:16Z</time>
      </trkpt>
      <trkpt lat="44.42221" lon="3.91165">
        <ele>744</ele>
        <time>2019-12-19T02:54:20Z</time>
      </trkpt>
      <trkpt lat="44.4223" lon="3.91186">
        <ele>743</ele>
        <time>2019-12-19T02:54:23Z</time>
      </trkpt>
      <trkpt lat="44.42257" lon="3.91226">
        <ele>737</ele>
        <time>2019-12-19T02:54:30Z</time>
      </trkpt>
      <trkpt lat="44.42288" lon="3.91264">
        <ele>734</ele>
        <time>2019-12-19T02:54:38Z</time>
      </trkpt>
      <trkpt lat="44.42311" lon="3.91283">
        <ele>732</ele>
        <time>2019-12-19T02:54:42Z</time>
      </trkpt>
      <trkpt lat="44.42333" lon="3.9129">
        <ele>726</ele>
        <time>2019-12-19T02:54:46Z</time>
      </trkpt>
      <trkpt lat="44.4236" lon="3.91292">
        <ele>723</ele>
        <time>2019-12-19T02:54:51Z</time>
      </trkpt>
      <trkpt lat="44.4238" lon="3.913">
        <ele>720</ele>
        <time>2019-12-19T02:54:55Z</time>
      </trkpt>
      <trkpt lat="44.42393" lon="3.91318">
        <ele>716</ele>
        <time>2019-12-19T02:54:58Z</time>
      </trkpt>
      <trkpt lat="44.42397" lon="3.91334">
        <ele>714</ele>
        <time>2019-12-19T02:55:00Z</time>
      </trkpt>
      <trkpt lat="44.42399" lon="3.91351">
        <ele>714</ele>
        <time>2019-12-19T02:55:02Z</time>
      </trkpt>
      <trkpt lat="44.42396" lon="3.91416">
        <ele>722</ele>
        <time>2019-12-19T02:55:11Z</time>
      </trkpt>
      <trkpt lat="44.42399" lon="3.91448">
        <ele>724</ele>
        <time>2019-12-19T02:55:15Z</time>
      </trkpt>
      <trkpt lat="44.4241" lon="3.91476">
        <ele>721</ele>
        <time>2019-12-19T02:55:19Z</time>
      </trkpt>
      <trkpt lat="44.42456" lon="3.91543">
        <ele>724</ele>
        <time>2019-12-19T02:55:31Z</time>
      </trkpt>
      <trkpt lat="44.42474" lon="3.91557">
        <ele>725</ele>
        <time>2019-12-19T02:55:34Z</time>
      </trkpt>
      <trkpt lat="44.42493" lon="3.91563">
        <ele>723</ele>
        <time>2019-12-19T02:55:38Z</time>
      </trkpt>
      <trkpt lat="44.42508" lon="3.91563">
        <ele>723</ele>
        <time>2019-12-19T02:55:40Z</time>
      </trkpt>
      <trkpt lat="44.4253" lon="3.91545">
        <ele>721</ele>
        <time>2019-12-19T02:55:45Z</time>
      </trkpt>
      <trkpt lat="44.42616" lon="3.91414">
        <ele>695</ele>
        <time>2019-12-19T02:56:08Z</time>
      </trkpt>
      <trkpt lat="44.42628" lon="3.91408">
        <ele>694</ele>
        <time>2019-12-19T02:56:10Z</time>
      </trkpt>
      <trkpt lat="44.42638" lon="3.91411">
        <ele>693</ele>
        <time>2019-12-19T02:56:12Z</time>
      </trkpt>
      <trkpt lat="44.42647" lon="3.91421">
        <ele>694</ele>
        <time>2019-12-19T02:56:14Z</time>
      </trkpt>
      <trkpt lat="44.42653" lon="3.91442">
        <ele>698</ele>
        <time>2019-12-19T02:56:17Z</time>
      </trkpt>
      <trkpt lat="44.4266" lon="3.91505">
        <ele>708</ele>
        <time>2019-12-19T02:56:25Z</time>
      </trkpt>
      <trkpt lat="44.42664" lon="3.91521">
        <ele>709</ele>
        <time>2019-12-19T02:56:27Z</time>
      </trkpt>
      <trkpt lat="44.4268" lon="3.91546">
        <ele>703</ele>
        <time>2019-12-19T02:56:31Z</time>
      </trkpt>
      <trkpt lat="44.42685" lon="3.91561">
        <ele>702</ele>
        <time>2019-12-19T02:56:33Z</time>
      </trkpt>
      <trkpt lat="44.42686" lon="3.91579">
        <ele>704</ele>
        <time>2019-12-19T02:56:36Z</time>
      </trkpt>
      <trkpt lat="44.42678" lon="3.91615">
        <ele>712</ele>
        <time>2019-12-19T02:56:40Z</time>
      </trkpt>
      <trkpt lat="44.4268" lon="3.91632">
        <ele>714</ele>
        <time>2019-12-19T02:56:43Z</time>
      </trkpt>
      <trkpt lat="44.42687" lon="3.91648">
        <ele>713</ele>
        <time>2019-12-19T02:56:45Z</time>
      </trkpt>
      <trkpt lat="44.427" lon="3.9166">
        <ele>711</ele>
        <time>2019-12-19T02:56:48Z</time>
      </trkpt>
      <trkpt lat="44.42717" lon="3.91668">
        <ele>707</ele>
        <time>2019-12-19T02:56:51Z</time>
      </trkpt>
      <trkpt lat="44.42729" lon="3.91679">
        <ele>707</ele>
        <time>2019-12-19T02:56:53Z</time>
      </trkpt>
      <trkpt lat="44.42736" lon="3.91694">
        <ele>710</ele>
        <time>2019-12-19T02:56:56Z</time>
      </trkpt>
      <trkpt lat="44.42743" lon="3.91699">
        <ele>710</ele>
        <time>2019-12-19T02:56:57Z</time>
      </trkpt>
      <trkpt lat="44.42756" lon="3.91699">
        <ele>706</ele>
        <time>2019-12-19T02:56:59Z</time>
      </trkpt>
      <trkpt lat="44.42793" lon="3.91689">
        <ele>693</ele>
        <time>2019-12-19T02:57:06Z</time>
      </trkpt>
      <trkpt lat="44.42801" lon="3.9169">
        <ele>692</ele>
        <time>2019-12-19T02:57:08Z</time>
      </trkpt>
      <trkpt lat="44.42811" lon="3.91693">
        <ele>691</ele>
        <time>2019-12-19T02:57:09Z</time>
      </trkpt>
      <trkpt lat="44.42834" lon="3.91717">
        <ele>696</ele>
        <time>2019-12-19T02:57:14Z</time>
      </trkpt>
      <trkpt lat="44.42843" lon="3.9172">
        <ele>697</ele>
        <time>2019-12-19T02:57:16Z</time>
      </trkpt>
      <trkpt lat="44.42888" lon="3.91714">
        <ele>688</ele>
        <time>2019-12-19T02:57:24Z</time>
      </trkpt>
      <trkpt lat="44.42897" lon="3.91716">
        <ele>688</ele>
        <time>2019-12-19T02:57:26Z</time>
      </trkpt>
      <trkpt lat="44.42967" lon="3.91742">
        <ele>689</ele>
        <time>2019-12-19T02:57:39Z</time>
      </trkpt>
      <trkpt lat="44.43" lon="3.91749">
        <ele>687</ele>
        <time>2019-12-19T02:57:45Z</time>
      </trkpt>
      <trkpt lat="44.43031" lon="3.91752">
        <ele>682</ele>
        <time>2019-12-19T02:57:50Z</time>
      </trkpt>
      <trkpt lat="44.43056" lon="3.9176">
        <ele>680</ele>
        <time>2019-12-19T02:57:55Z</time>
      </trkpt>
      <trkpt lat="44.43085" lon="3.91787">
        <ele>682</ele>
        <time>2019-12-19T02:58:01Z</time>
      </trkpt>
      <trkpt lat="44.43098" lon="3.91804">
        <ele>686</ele>
        <time>2019-12-19T02:58:04Z</time>
      </trkpt>
      <trkpt lat="44.4311" lon="3.91812">
        <ele>688</ele>
        <time>2019-12-19T02:58:06Z</time>
      </trkpt>
      <trkpt lat="44.43121" lon="3.91812">
        <ele>687</ele>
        <time>2019-12-19T02:58:08Z</time>
      </trkpt>
      <trkpt lat="44.43151" lon="3.91796">
        <ele>681</ele>
        <time>2019-12-19T02:58:14Z</time>
      </trkpt>
      <trkpt lat="44.4322" lon="3.91738">
        <ele>672</ele>
        <time>2019-12-19T02:58:28Z</time>
      </trkpt>
      <trkpt lat="44.43273" lon="3.91674">
        <ele>657</ele>
        <time>2019-12-19T02:58:41Z</time>
      </trkpt>
      <trkpt lat="44.43285" lon="3.91664">
        <ele>653</ele>
        <time>2019-12-19T02:58:43Z</time>
      </trkpt>
      <trkpt lat="44.43319" lon="3.91658">
        <ele>650</ele>
        <time>2019-12-19T02:58:49Z</time>
      </trkpt>
      <trkpt lat="44.43332" lon="3.9166">
        <ele>650</ele>
        <time>2019-12-19T02:58:52Z</time>
      </trkpt>
      <trkpt lat="44.43342" lon="3.91667">
        <ele>649</ele>
        <time>2019-12-19T02:58:54Z</time>
      </trkpt>
      <trkpt lat="44.43387" lon="3.91704">
        <ele>651</ele>
        <time>2019-12-19T02:59:03Z</time>
      </trkpt>
      <trkpt lat="44.43419" lon="3.91739">
        <ele>655</ele>
        <time>2019-12-19T02:59:10Z</time>
      </trkpt>
      <trkpt lat="44.43444" lon="3.91762">
        <ele>656</ele>
        <time>2019-12-19T02:59:16Z</time>
      </trkpt>
      <trkpt lat="44.43473" lon="3.91772">
        <ele>652</ele>
        <time>2019-12-19T02:59:21Z</time>
      </trkpt>
      <trkpt lat="44.43534" lon="3.91778">
        <ele>643</ele>
        <time>2019-12-19T02:59:32Z</time>
      </trkpt>
      <trkpt lat="44.43604" lon="3.91765">
        <ele>629</ele>
        <time>2019-12-19T02:59:44Z</time>
      </trkpt>
      <trkpt lat="44.43621" lon="3.91764">
        <ele>628</ele>
        <time>2019-12-19T02:59:47Z</time>
      </trkpt>
      <trkpt lat="44.43627" lon="3.91767">
        <ele>628</ele>
        <time>2019-12-19T02:59:48Z</time>
      </trkpt>
      <trkpt lat="44.43631" lon="3.91771">
        <ele>628</ele>
        <time>2019-12-19T02:59:49Z</time>
      </trkpt>
      <trkpt lat="44.4364" lon="3.91785">
        <ele>630</ele>
        <time>2019-12-19T02:59:52Z</time>
      </trkpt>
      <trkpt lat="44.43663" lon="3.91837">
        <ele>634</ele>
        <time>2019-12-19T03:00:00Z</time>
      </trkpt>
      <trkpt lat="44.43689" lon="3.91878">
        <ele>632</ele>
        <time>2019-12-19T03:00:07Z</time>
      </trkpt>
      <trkpt lat="44.43749" lon="3.91967">
        <ele>628</ele>
        <time>2019-12-19T03:00:22Z</time>
      </trkpt>
      <trkpt lat="44.43759" lon="3.91978">
        <ele>628</ele>
        <time>2019-12-19T03:00:24Z</time>
      </trkpt>
      <trkpt lat="44.43769" lon="3.91983">
        <ele>627</ele>
        <time>2019-12-19T03:00:26Z</time>
      </trkpt>
      <trkpt lat="44.43802" lon="3.91986">
        <ele>622</ele>
        <time>2019-12-19T03:00:32Z</time>
      </trkpt>
      <trkpt lat="44.43835" lon="3.92002">
        <ele>618</ele>
        <time>2019-12-19T03:00:38Z</time>
      </trkpt>
      <trkpt lat="44.43862" lon="3.92031">
        <ele>618</ele>
        <time>2019-12-19T03:00:44Z</time>
      </trkpt>
      <trkpt lat="44.43884" lon="3.92063">
        <ele>617</ele>
        <time>2019-12-19T03:00:50Z</time>
      </trkpt>
      <trkpt lat="44.43892" lon="3.92087">
        <ele>618</ele>
        <time>2019-12-19T03:00:53Z</time>
      </trkpt>
      <trkpt lat="44.43896" lon="3.92112">
        <ele>618</ele>
        <time>2019-12-19T03:00:57Z</time>
      </trkpt>
      <trkpt lat="44.43898" lon="3.92146">
        <ele>619</ele>
        <time>2019-12-19T03:01:01Z</time>
      </trkpt>
      <trkpt lat="44.43902" lon="3.92158">
        <ele>618</ele>
        <time>2019-12-19T03:01:03Z</time>
      </trkpt>
      <trkpt lat="44.43907" lon="3.92162">
        <ele>616</ele>
        <time>2019-12-19T03:01:04Z</time>
      </trkpt>
      <trkpt lat="44.43929" lon="3.92161">
        <ele>610</ele>
        <time>2019-12-19T03:01:08Z</time>
      </trkpt>
      <trkpt lat="44.43936" lon="3.92166">
        <ele>609</ele>
        <time>2019-12-19T03:01:09Z</time>
      </trkpt>
      <trkpt lat="44.43941" lon="3.92183">
        <ele>608</ele>
        <time>2019-12-19T03:01:11Z</time>
      </trkpt>
      <trkpt lat="44.43954" lon="3.92278">
        <ele>606</ele>
        <time>2019-12-19T03:01:24Z</time>
      </trkpt>
      <trkpt lat="44.43962" lon="3.92317">
        <ele>605</ele>
        <time>2019-12-19T03:01:29Z</time>
      </trkpt>
      <trkpt lat="44.43993" lon="3.92419">
        <ele>602</ele>
        <time>2019-12-19T03:01:43Z</time>
      </trkpt>
      <trkpt lat="44.4401" lon="3.92541">
        <ele>601</ele>
        <time>2019-12-19T03:01:59Z</time>
      </trkpt>
      <trkpt lat="44.44008" lon="3.92594">
        <ele>602</ele>
        <time>2019-12-19T03:02:05Z</time>
      </trkpt>
      <trkpt lat="44.44009" lon="3.92616">
        <ele>603</ele>
        <time>2019-12-19T03:02:08Z</time>
      </trkpt>
      <trkpt lat="44.44016" lon="3.92656">
        <ele>603</ele>
        <time>2019-12-19T03:02:13Z</time>
      </trkpt>
      <trkpt lat="44.4409" lon="3.92932">
        <ele>595</ele>
        <time>2019-12-19T03:02:51Z</time>
      </trkpt>
      <trkpt lat="44.44111" lon="3.93026">
        <ele>589</ele>
        <time>2019-12-19T03:03:03Z</time>
      </trkpt>
      <trkpt lat="44.44113" lon="3.93101">
        <ele>586</ele>
        <time>2019-12-19T03:03:13Z</time>
      </trkpt>
      <trkpt lat="44.44127" lon="3.93191">
        <ele>591</ele>
        <time>2019-12-19T03:03:25Z</time>
      </trkpt>
      <trkpt lat="44.44174" lon="3.9318">
        <ele>586</ele>
        <time>2019-12-19T03:03:33Z</time>
      </trkpt>
      <trkpt lat="44.4419" lon="3.93183">
        <ele>586</ele>
        <time>2019-12-19T03:03:36Z</time>
      </trkpt>
      <trkpt lat="44.44197" lon="3.93186">
        <ele>587</ele>
        <time>2019-12-19T03:03:37Z</time>
      </trkpt>
      <trkpt lat="44.44208" lon="3.93194">
        <ele>587</ele>
        <time>2019-12-19T03:03:39Z</time>
      </trkpt>
      <trkpt lat="44.44339" lon="3.93333">
        <ele>588</ele>
        <time>2019-12-19T03:04:09Z</time>
      </trkpt>
      <trkpt lat="44.44351" lon="3.93341">
        <ele>589</ele>
        <time>2019-12-19T03:04:11Z</time>
      </trkpt>
      <trkpt lat="44.44395" lon="3.93349">
        <ele>584</ele>
        <time>2019-12-19T03:04:19Z</time>
      </trkpt>
      <trkpt lat="44.44404" lon="3.93342">
        <ele>581</ele>
        <time>2019-12-19T03:04:21Z</time>
      </trkpt>
      <trkpt lat="44.44408" lon="3.93335">
        <ele>579</ele>
        <time>2019-12-19T03:04:22Z</time>
      </trkpt>
      <trkpt lat="44.44411" lon="3.93324">
        <ele>578</ele>
        <time>2019-12-19T03:04:23Z</time>
      </trkpt>
      <trkpt lat="44.44416" lon="3.93293">
        <ele>577</ele>
        <time>2019-12-19T03:04:27Z</time>
      </trkpt>
      <trkpt lat="44.44434" lon="3.93082">
        <ele>595</ele>
        <time>2019-12-19T03:04:54Z</time>
      </trkpt>
      <trkpt lat="44.4444" lon="3.93055">
        <ele>599</ele>
        <time>2019-12-19T03:04:58Z</time>
      </trkpt>
      <trkpt lat="44.4445" lon="3.93033">
        <ele>601</ele>
        <time>2019-12-19T03:05:01Z</time>
      </trkpt>
      <trkpt lat="44.44468" lon="3.93011">
        <ele>600</ele>
        <time>2019-12-19T03:05:06Z</time>
      </trkpt>
      <trkpt lat="44.44492" lon="3.92987">
        <ele>600</ele>
        <time>2019-12-19T03:05:11Z</time>
      </trkpt>
      <trkpt lat="44.44516" lon="3.92972">
        <ele>605</ele>
        <time>2019-12-19T03:05:16Z</time>
      </trkpt>
      <trkpt lat="44.44555" lon="3.92963">
        <ele>610</ele>
        <time>2019-12-19T03:05:23Z</time>
      </trkpt>
      <trkpt lat="44.44576" lon="3.92965">
        <ele>610</ele>
        <time>2019-12-19T03:05:26Z</time>
      </trkpt>
      <trkpt lat="44.44592" lon="3.92971">
        <ele>609</ele>
        <time>2019-12-19T03:05:29Z</time>
      </trkpt>
      <trkpt lat="44.44638" lon="3.92998">
        <ele>606</ele>
        <time>2019-12-19T03:05:38Z</time>
      </trkpt>
      <trkpt lat="44.4468" lon="3.93025">
        <ele>607</ele>
        <time>2019-12-19T03:05:46Z</time>
      </trkpt>
      <trkpt lat="44.44696" lon="3.93031">
        <ele>607</ele>
        <time>2019-12-19T03:05:49Z</time>
      </trkpt>
      <trkpt lat="44.44786" lon="3.93053">
        <ele>608</ele>
        <time>2019-12-19T03:06:06Z</time>
      </trkpt>
      <trkpt lat="44.44812" lon="3.93055">
        <ele>607</ele>
        <time>2019-12-19T03:06:10Z</time>
      </trkpt>
      <trkpt lat="44.44829" lon="3.93053">
        <ele>608</ele>
        <time>2019-12-19T03:06:13Z</time>
      </trkpt>
      <trkpt lat="44.44847" lon="3.93042">
        <ele>610</ele>
        <time>2019-12-19T03:06:17Z</time>
      </trkpt>
      <trkpt lat="44.44852" lon="3.93051">
        <ele>607</ele>
        <time>2019-12-19T03:06:18Z</time>
      </trkpt>
      <trkpt lat="44.44862" lon="3.93053">
        <ele>606</ele>
        <time>2019-12-19T03:06:20Z</time>
      </trkpt>
      <trkpt lat="44.44869" lon="3.93048">
        <ele>607</ele>
        <time>2019-12-19T03:06:21Z</time>
      </trkpt>
      <trkpt lat="44.44873" lon="3.9304">
        <ele>608</ele>
        <time>2019-12-19T03:06:23Z</time>
      </trkpt>
      <trkpt lat="44.44892" lon="3.93046">
        <ele>605</ele>
        <time>2019-12-19T03:06:26Z</time>
      </trkpt>
      <trkpt lat="44.44974" lon="3.93089">
        <ele>603</ele>
        <time>2019-12-19T03:06:42Z</time>
      </trkpt>
      <trkpt lat="44.45048" lon="3.93135">
        <ele>611</ele>
        <time>2019-12-19T03:06:56Z</time>
      </trkpt>
      <trkpt lat="44.4514" lon="3.93221">
        <ele>629</ele>
        <time>2019-12-19T03:07:16Z</time>
      </trkpt>
      <trkpt lat="44.45172" lon="3.93227">
        <ele>630</ele>
        <time>2019-12-19T03:07:21Z</time>
      </trkpt>
      <trkpt lat="44.45193" lon="3.9322">
        <ele>629</ele>
        <time>2019-12-19T03:07:25Z</time>
      </trkpt>
      <trkpt lat="44.45248" lon="3.93178">
        <ele>616</ele>
        <time>2019-12-19T03:07:36Z</time>
      </trkpt>
      <trkpt lat="44.45295" lon="3.93164">
        <ele>608</ele>
        <time>2019-12-19T03:07:45Z</time>
      </trkpt>
      <trkpt lat="44.45335" lon="3.93177">
        <ele>604</ele>
        <time>2019-12-19T03:07:52Z</time>
      </trkpt>
      <trkpt lat="44.45363" lon="3.93182">
        <ele>597</ele>
        <time>2019-12-19T03:07:57Z</time>
      </trkpt>
      <trkpt lat="44.45391" lon="3.9318">
        <ele>589</ele>
        <time>2019-12-19T03:08:02Z</time>
      </trkpt>
      <trkpt lat="44.45417" lon="3.93183">
        <ele>582</ele>
        <time>2019-12-19T03:08:07Z</time>
      </trkpt>
      <trkpt lat="44.45443" lon="3.93194">
        <ele>593</ele>
        <time>2019-12-19T03:08:12Z</time>
      </trkpt>
      <trkpt lat="44.45461" lon="3.93211">
        <ele>603</ele>
        <time>2019-12-19T03:08:16Z</time>
      </trkpt>
      <trkpt lat="44.45472" lon="3.93219">
        <ele>609</ele>
        <time>2019-12-19T03:08:18Z</time>
      </trkpt>
      <trkpt lat="44.45487" lon="3.93224">
        <ele>616</ele>
        <time>2019-12-19T03:08:21Z</time>
      </trkpt>
      <trkpt lat="44.45505" lon="3.93213">
        <ele>623</ele>
        <time>2019-12-19T03:08:24Z</time>
      </trkpt>
      <trkpt lat="44.45517" lon="3.93193">
        <ele>627</ele>
        <time>2019-12-19T03:08:27Z</time>
      </trkpt>
      <trkpt lat="44.45528" lon="3.93137">
        <ele>624</ele>
        <time>2019-12-19T03:08:35Z</time>
      </trkpt>
      <trkpt lat="44.45538" lon="3.93104">
        <ele>622</ele>
        <time>2019-12-19T03:08:39Z</time>
      </trkpt>
      <trkpt lat="44.4556" lon="3.93078">
        <ele>625</ele>
        <time>2019-12-19T03:08:44Z</time>
      </trkpt>
      <trkpt lat="44.4564" lon="3.92995">
        <ele>630</ele>
        <time>2019-12-19T03:09:02Z</time>
      </trkpt>
      <trkpt lat="44.45663" lon="3.92988">
        <ele>633</ele>
        <time>2019-12-19T03:09:06Z</time>
      </trkpt>
      <trkpt lat="44.457" lon="3.92995">
        <ele>640</ele>
        <time>2019-12-19T03:09:13Z</time>
      </trkpt>
      <trkpt lat="44.45749" lon="3.92998">
        <ele>647</ele>
        <time>2019-12-19T03:09:22Z</time>
      </trkpt>
      <trkpt lat="44.45766" lon="3.92994">
        <ele>649</ele>
        <time>2019-12-19T03:09:25Z</time>
      </trkpt>
      <trkpt lat="44.458" lon="3.92972">
        <ele>649</ele>
        <time>2019-12-19T03:09:31Z</time>
      </trkpt>
      <trkpt lat="44.45861" lon="3.92922">
        <ele>646</ele>
        <time>2019-12-19T03:09:44Z</time>
      </trkpt>
      <trkpt lat="44.45883" lon="3.92908">
        <ele>646</ele>
        <time>2019-12-19T03:09:48Z</time>
      </trkpt>
      <trkpt lat="44.45909" lon="3.92901">
        <ele>649</ele>
        <time>2019-12-19T03:09:53Z</time>
      </trkpt>
      <trkpt lat="44.45933" lon="3.92901">
        <ele>649</ele>
        <time>2019-12-19T03:09:57Z</time>
      </trkpt>
      <trkpt lat="44.45957" lon="3.92911">
        <ele>651</ele>
        <time>2019-12-19T03:10:02Z</time>
      </trkpt>
      <trkpt lat="44.46029" lon="3.92953">
        <ele>662</ele>
        <time>2019-12-19T03:10:16Z</time>
      </trkpt>
      <trkpt lat="44.4604" lon="3.92967">
        <ele>666</ele>
        <time>2019-12-19T03:10:18Z</time>
      </trkpt>
      <trkpt lat="44.46044" lon="3.92982">
        <ele>670</ele>
        <time>2019-12-19T03:10:20Z</time>
      </trkpt>
      <trkpt lat="44.46043" lon="3.92998">
        <ele>675</ele>
        <time>2019-12-19T03:10:22Z</time>
      </trkpt>
      <trkpt lat="44.46078" lon="3.92985">
        <ele>671</ele>
        <time>2019-12-19T03:10:29Z</time>
      </trkpt>
      <trkpt lat="44.46111" lon="3.9296">
        <ele>668</ele>
        <time>2019-12-19T03:10:36Z</time>
      </trkpt>
      <trkpt lat="44.46142" lon="3.92932">
        <ele>665</ele>
        <time>2019-12-19T03:10:42Z</time>
      </trkpt>
      <trkpt lat="44.46189" lon="3.92859">
        <ele>651</ele>
        <time>2019-12-19T03:10:55Z</time>
      </trkpt>
      <trkpt lat="44.46207" lon="3.92856">
        <ele>652</ele>
        <time>2019-12-19T03:10:58Z</time>
      </trkpt>
      <trkpt lat="44.46232" lon="3.92865">
        <ele>657</ele>
        <time>2019-12-19T03:11:02Z</time>
      </trkpt>
      <trkpt lat="44.46243" lon="3.92865">
        <ele>658</ele>
        <time>2019-12-19T03:11:04Z</time>
      </trkpt>
      <trkpt lat="44.46292" lon="3.92836">
        <ele>652</ele>
        <time>2019-12-19T03:11:14Z</time>
      </trkpt>
      <trkpt lat="44.4631" lon="3.92836">
        <ele>654</ele>
        <time>2019-12-19T03:11:17Z</time>
      </trkpt>
      <trkpt lat="44.46323" lon="3.92833">
        <ele>654</ele>
        <time>2019-12-19T03:11:19Z</time>
      </trkpt>
      <trkpt lat="44.46358" lon="3.92807">
        <ele>650</ele>
        <time>2019-12-19T03:11:26Z</time>
      </trkpt>
      <trkpt lat="44.46372" lon="3.92793">
        <ele>648</ele>
        <time>2019-12-19T03:11:29Z</time>
      </trkpt>
      <trkpt lat="44.46393" lon="3.92769">
        <ele>643</ele>
        <time>2019-12-19T03:11:34Z</time>
      </trkpt>
      <trkpt lat="44.46405" lon="3.92763">
        <ele>643</ele>
        <time>2019-12-19T03:11:37Z</time>
      </trkpt>
      <trkpt lat="44.46414" lon="3.92761">
        <ele>643</ele>
        <time>2019-12-19T03:11:38Z</time>
      </trkpt>
      <trkpt lat="44.4644" lon="3.92763">
        <ele>647</ele>
        <time>2019-12-19T03:11:43Z</time>
      </trkpt>
      <trkpt lat="44.46451" lon="3.92761">
        <ele>647</ele>
        <time>2019-12-19T03:11:45Z</time>
      </trkpt>
      <trkpt lat="44.46465" lon="3.92752">
        <ele>646</ele>
        <time>2019-12-19T03:11:48Z</time>
      </trkpt>
      <trkpt lat="44.46498" lon="3.92706">
        <ele>638</ele>
        <time>2019-12-19T03:11:56Z</time>
      </trkpt>
      <trkpt lat="44.46513" lon="3.92692">
        <ele>634</ele>
        <time>2019-12-19T03:11:59Z</time>
      </trkpt>
      <trkpt lat="44.46535" lon="3.92683">
        <ele>631</ele>
        <time>2019-12-19T03:12:03Z</time>
      </trkpt>
      <trkpt lat="44.46549" lon="3.92683">
        <ele>631</ele>
        <time>2019-12-19T03:12:06Z</time>
      </trkpt>
      <trkpt lat="44.46567" lon="3.92688">
        <ele>632</ele>
        <time>2019-12-19T03:12:09Z</time>
      </trkpt>
      <trkpt lat="44.4659" lon="3.92701">
        <ele>636</ele>
        <time>2019-12-19T03:12:13Z</time>
      </trkpt>
      <trkpt lat="44.46619" lon="3.92705">
        <ele>637</ele>
        <time>2019-12-19T03:12:18Z</time>
      </trkpt>
      <trkpt lat="44.46644" lon="3.927">
        <ele>637</ele>
        <time>2019-12-19T03:12:23Z</time>
      </trkpt>
      <trkpt lat="44.46655" lon="3.92691">
        <ele>635</ele>
        <time>2019-12-19T03:12:25Z</time>
      </trkpt>
      <trkpt lat="44.46661" lon="3.9268">
        <ele>633</ele>
        <time>2019-12-19T03:12:27Z</time>
      </trkpt>
      <trkpt lat="44.46666" lon="3.92639">
        <ele>627</ele>
        <time>2019-12-19T03:12:32Z</time>
      </trkpt>
      <trkpt lat="44.46673" lon="3.92607">
        <ele>622</ele>
        <time>2019-12-19T03:12:36Z</time>
      </trkpt>
      <trkpt lat="44.46684" lon="3.92591">
        <ele>620</ele>
        <time>2019-12-19T03:12:39Z</time>
      </trkpt>
      <trkpt lat="44.46696" lon="3.92582">
        <ele>620</ele>
        <time>2019-12-19T03:12:42Z</time>
      </trkpt>
      <trkpt lat="44.46709" lon="3.92579">
        <ele>620</ele>
        <time>2019-12-19T03:12:44Z</time>
      </trkpt>
      <trkpt lat="44.46749" lon="3.92585">
        <ele>623</ele>
        <time>2019-12-19T03:12:51Z</time>
      </trkpt>
      <trkpt lat="44.46773" lon="3.92577">
        <ele>622</ele>
        <time>2019-12-19T03:12:56Z</time>
      </trkpt>
      <trkpt lat="44.46875" lon="3.92524">
        <ele>622</ele>
        <time>2019-12-19T03:13:15Z</time>
      </trkpt>
      <trkpt lat="44.47006" lon="3.92473">
        <ele>625</ele>
        <time>2019-12-19T03:13:39Z</time>
      </trkpt>
      <trkpt lat="44.47015" lon="3.92465">
        <ele>626</ele>
        <time>2019-12-19T03:13:41Z</time>
      </trkpt>
      <trkpt lat="44.47019" lon="3.92457">
        <ele>627</ele>
        <time>2019-12-19T03:13:42Z</time>
      </trkpt>
      <trkpt lat="44.47031" lon="3.92425">
        <ele>630</ele>
        <time>2019-12-19T03:13:47Z</time>
      </trkpt>
      <trkpt lat="44.47025" lon="3.92403">
        <ele>634</ele>
        <time>2019-12-19T03:13:50Z</time>
      </trkpt>
      <trkpt lat="44.47012" lon="3.92387">
        <ele>637</ele>
        <time>2019-12-19T03:13:53Z</time>
      </trkpt>
      <trkpt lat="44.46991" lon="3.92382">
        <ele>637</ele>
        <time>2019-12-19T03:13:57Z</time>
      </trkpt>
      <trkpt lat="44.46945" lon="3.92385">
        <ele>635</ele>
        <time>2019-12-19T03:14:05Z</time>
      </trkpt>
      <trkpt lat="44.4692" lon="3.92377">
        <ele>637</ele>
        <time>2019-12-19T03:14:10Z</time>
      </trkpt>
      <trkpt lat="44.46911" lon="3.92377">
        <ele>638</ele>
        <time>2019-12-19T03:14:11Z</time>
      </trkpt>
      <trkpt lat="44.46877" lon="3.92397">
        <ele>631</ele>
        <time>2019-12-19T03:14:18Z</time>
      </trkpt>
      <trkpt lat="44.46863" lon="3.92396">
        <ele>632</ele>
        <time>2019-12-19T03:14:20Z</time>
      </trkpt>
      <trkpt lat="44.46837" lon="3.92376">
        <ele>641</ele>
        <time>2019-12-19T03:14:25Z</time>
      </trkpt>
      <trkpt lat="44.46826" lon="3.92365">
        <ele>645</ele>
        <time>2019-12-19T03:14:28Z</time>
      </trkpt>
      <trkpt lat="44.46806" lon="3.92362">
        <ele>642</ele>
        <time>2019-12-19T03:14:31Z</time>
      </trkpt>
      <trkpt lat="44.46768" lon="3.92366">
        <ele>633</ele>
        <time>2019-12-19T03:14:38Z</time>
      </trkpt>
      <trkpt lat="44.46762" lon="3.92362">
        <ele>633</ele>
        <time>2019-12-19T03:14:39Z</time>
      </trkpt>
      <trkpt lat="44.46759" lon="3.92354">
        <ele>635</ele>
        <time>2019-12-19T03:14:41Z</time>
      </trkpt>
      <trkpt lat="44.46762" lon="3.92346">
        <ele>638</ele>
        <time>2019-12-19T03:14:42Z</time>
      </trkpt>
      <trkpt lat="44.46768" lon="3.92344">
        <ele>640</ele>
        <time>2019-12-19T03:14:43Z</time>
      </trkpt>
      <trkpt lat="44.46782" lon="3.92353">
        <ele>640</ele>
        <time>2019-12-19T03:14:46Z</time>
      </trkpt>
      <trkpt lat="44.46792" lon="3.92353">
        <ele>642</ele>
        <time>2019-12-19T03:14:47Z</time>
      </trkpt>
      <trkpt lat="44.46821" lon="3.92348">
        <ele>650</ele>
        <time>2019-12-19T03:14:52Z</time>
      </trkpt>
      <trkpt lat="44.46843" lon="3.92352">
        <ele>651</ele>
        <time>2019-12-19T03:14:56Z</time>
      </trkpt>
      <trkpt lat="44.46858" lon="3.92362">
        <ele>646</ele>
        <time>2019-12-19T03:14:59Z</time>
      </trkpt>
      <trkpt lat="44.4687" lon="3.9236">
        <ele>646</ele>
        <time>2019-12-19T03:15:02Z</time>
      </trkpt>
      <trkpt lat="44.46903" lon="3.92331">
        <ele>655</ele>
        <time>2019-12-19T03:15:08Z</time>
      </trkpt>
      <trkpt lat="44.46938" lon="3.92311">
        <ele>661</ele>
        <time>2019-12-19T03:15:15Z</time>
      </trkpt>
      <trkpt lat="44.46977" lon="3.92278">
        <ele>671</ele>
        <time>2019-12-19T03:15:23Z</time>
      </trkpt>
      <trkpt lat="44.47027" lon="3.92289">
        <ele>669</ele>
        <time>2019-12-19T03:15:32Z</time>
      </trkpt>
      <trkpt lat="44.47055" lon="3.92312">
        <ele>664</ele>
        <time>2019-12-19T03:15:38Z</time>
      </trkpt>
      <trkpt lat="44.47067" lon="3.92329">
        <ele>661</ele>
        <time>2019-12-19T03:15:41Z</time>
      </trkpt>
      <trkpt lat="44.47077" lon="3.92334">
        <ele>660</ele>
        <time>2019-12-19T03:15:43Z</time>
      </trkpt>
      <trkpt lat="44.47081" lon="3.92332">
        <ele>661</ele>
        <time>2019-12-19T03:15:44Z</time>
      </trkpt>
      <trkpt lat="44.47084" lon="3.92327">
        <ele>663</ele>
        <time>2019-12-19T03:15:45Z</time>
      </trkpt>
      <trkpt lat="44.4708" lon="3.9232">
        <ele>664</ele>
        <time>2019-12-19T03:15:46Z</time>
      </trkpt>
      <trkpt lat="44.47028" lon="3.92267">
        <ele>675</ele>
        <time>2019-12-19T03:15:57Z</time>
      </trkpt>
      <trkpt lat="44.46992" lon="3.92241">
        <ele>682</ele>
        <time>2019-12-19T03:16:04Z</time>
      </trkpt>
      <trkpt lat="44.46968" lon="3.92241">
        <ele>683</ele>
        <time>2019-12-19T03:16:09Z</time>
      </trkpt>
      <trkpt lat="44.46931" lon="3.92225">
        <ele>689</ele>
        <time>2019-12-19T03:16:16Z</time>
      </trkpt>
      <trkpt lat="44.46872" lon="3.92264">
        <ele>677</ele>
        <time>2019-12-19T03:16:27Z</time>
      </trkpt>
      <trkpt lat="44.46862" lon="3.92267">
        <ele>676</ele>
        <time>2019-12-19T03:16:29Z</time>
      </trkpt>
      <trkpt lat="44.46853" lon="3.92265">
        <ele>677</ele>
        <time>2019-12-19T03:16:31Z</time>
      </trkpt>
      <trkpt lat="44.46844" lon="3.92255">
        <ele>680</ele>
        <time>2019-12-19T03:16:33Z</time>
      </trkpt>
      <trkpt lat="44.46836" lon="3.92208">
        <ele>689</ele>
        <time>2019-12-19T03:16:39Z</time>
      </trkpt>
      <trkpt lat="44.46834" lon="3.92177">
        <ele>694</ele>
        <time>2019-12-19T03:16:43Z</time>
      </trkpt>
      <trkpt lat="44.46828" lon="3.92145">
        <ele>703</ele>
        <time>2019-12-19T03:16:47Z</time>
      </trkpt>
      <trkpt lat="44.46821" lon="3.92134">
        <ele>706</ele>
        <time>2019-12-19T03:16:49Z</time>
      </trkpt>
      <trkpt lat="44.46812" lon="3.92128">
        <ele>707</ele>
        <time>2019-12-19T03:16:51Z</time>
      </trkpt>
      <trkpt lat="44.46708" lon="3.92105">
        <ele>714</ele>
        <time>2019-12-19T03:17:09Z</time>
      </trkpt>
      <trkpt lat="44.46623" lon="3.92129">
        <ele>709</ele>
        <time>2019-12-19T03:17:25Z</time>
      </trkpt>
      <trkpt lat="44.46612" lon="3.92126">
        <ele>710</ele>
        <time>2019-12-19T03:17:27Z</time>
      </trkpt>
      <trkpt lat="44.46604" lon="3.9212">
        <ele>712</ele>
        <time>2019-12-19T03:17:28Z</time>
      </trkpt>
      <trkpt lat="44.46565" lon="3.92128">
        <ele>708</ele>
        <time>2019-12-19T03:17:35Z</time>
      </trkpt>
      <trkpt lat="44.46557" lon="3.92142">
        <ele>704</ele>
        <time>2019-12-19T03:17:38Z</time>
      </trkpt>
      <trkpt lat="44.46547" lon="3.92175">
        <ele>696</ele>
        <time>2019-12-19T03:17:42Z</time>
      </trkpt>
      <trkpt lat="44.46538" lon="3.92179">
        <ele>694</ele>
        <time>2019-12-19T03:17:44Z</time>
      </trkpt>
      <trkpt lat="44.46527" lon="3.9216">
        <ele>699</ele>
        <time>2019-12-19T03:17:47Z</time>
      </trkpt>
      <trkpt lat="44.46512" lon="3.9213">
        <ele>702</ele>
        <time>2019-12-19T03:17:52Z</time>
      </trkpt>
      <trkpt lat="44.46498" lon="3.92128">
        <ele>701</ele>
        <time>2019-12-19T03:17:54Z</time>
      </trkpt>
      <trkpt lat="44.46441" lon="3.92151">
        <ele>683</ele>
        <time>2019-12-19T03:18:05Z</time>
      </trkpt>
      <trkpt lat="44.46332" lon="3.92189">
        <ele>636</ele>
        <time>2019-12-19T03:18:25Z</time>
      </trkpt>
      <trkpt lat="44.46332" lon="3.92189">
        <ele>636</ele>
        <time>2019-12-22T12:16:52Z</time>
      </trkpt>
      <trkpt lat="44.46441" lon="3.92151">
        <ele>683</ele>
        <time>2019-12-22T12:17:12Z</time>
      </trkpt>
      <trkpt lat="44.46498" lon="3.92128">
        <ele>701</ele>
        <time>2019-12-22T12:17:23Z</time>
      </trkpt>
      <trkpt lat="44.46512" lon="3.9213">
        <ele>702</ele>
        <time>2019-12-22T12:17:25Z</time>
      </trkpt>
      <trkpt lat="44.46527" lon="3.9216">
        <ele>699</ele>
        <time>2019-12-22T12:17:30Z</time>
      </trkpt>
      <trkpt lat="44.46538" lon="3.92179">
        <ele>694</ele>
        <time>2019-12-22T12:17:33Z</time>
      </trkpt>
      <trkpt lat="44.46547" lon="3.92175">
        <ele>696</ele>
        <time>2019-12-22T12:17:34Z</time>
      </trkpt>
      <trkpt lat="44.46557" lon="3.92142">
        <ele>704</ele>
        <time>2019-12-22T12:17:39Z</time>
      </trkpt>
      <trkpt lat="44.46565" lon="3.92128">
        <ele>708</ele>
        <time>2019-12-22T12:17:41Z</time>
      </trkpt>
      <trkpt lat="44.46604" lon="3.9212">
        <ele>712</ele>
        <time>2019-12-22T12:17:48Z</time>
      </trkpt>
      <trkpt lat="44.46612" lon="3.92126">
        <ele>710</ele>
        <time>2019-12-22T12:17:50Z</time>
      </trkpt>
      <trkpt lat="44.46623" lon="3.92129">
        <ele>709</ele>
        <time>2019-12-22T12:17:52Z</time>
      </trkpt>
      <trkpt lat="44.46708" lon="3.92105">
        <ele>714</ele>
        <time>2019-12-22T12:18:07Z</time>
      </trkpt>
      <trkpt lat="44.46812" lon="3.92128">
        <ele>707</ele>
        <time>2019-12-22T12:18:26Z</time>
      </trkpt>
      <trkpt lat="44.46821" lon="3.92134">
        <ele>706</ele>
        <time>2019-12-22T12:18:28Z</time>
      </trkpt>
      <trkpt lat="44.46828" lon="3.92145">
        <ele>703</ele>
        <time>2019-12-22T12:18:30Z</time>
      </trkpt>
      <trkpt lat="44.46834" lon="3.92177">
        <ele>694</ele>
        <time>2019-12-22T12:18:34Z</time>
      </trkpt>
      <trkpt lat="44.46836" lon="3.92208">
        <ele>689</ele>
        <time>2019-12-22T12:18:38Z</time>
      </trkpt>
      <trkpt lat="44.46844" lon="3.92255">
        <ele>680</ele>
        <time>2019-12-22T12:18:44Z</time>
      </trkpt>
      <trkpt lat="44.46853" lon="3.92265">
        <ele>677</ele>
        <time>2019-12-22T12:18:46Z</time>
      </trkpt>
      <trkpt lat="44.46862" lon="3.92267">
        <ele>676</ele>
        <time>2019-12-22T12:18:48Z</time>
      </trkpt>
      <trkpt lat="44.46872" lon="3.92264">
        <ele>677</ele>
        <time>2019-12-22T12:18:50Z</time>
      </trkpt>
      <trkpt lat="44.46931" lon="3.92225">
        <ele>689</ele>
        <time>2019-12-22T12:19:01Z</time>
      </trkpt>
      <trkpt lat="44.46968" lon="3.92241">
        <ele>683</ele>
        <time>2019-12-22T12:19:08Z</time>
      </trkpt>
      <trkpt lat="44.46992" lon="3.92241">
        <ele>682</ele>
        <time>2019-12-22T12:19:12Z</time>
      </trkpt>
      <trkpt lat="44.47028" lon="3.92267">
        <ele>675</ele>
        <time>2019-12-22T12:19:19Z</time>
      </trkpt>
      <trkpt lat="44.4708" lon="3.9232">
        <ele>664</ele>
        <time>2019-12-22T12:19:31Z</time>
      </trkpt>
      <trkpt lat="44.47084" lon="3.92327">
        <ele>663</ele>
        <time>2019-12-22T12:19:32Z</time>
      </trkpt>
      <trkpt lat="44.47081" lon="3.92332">
        <ele>661</ele>
        <time>2019-12-22T12:19:33Z</time>
      </trkpt>
      <trkpt lat="44.47077" lon="3.92334">
        <ele>660</ele>
        <time>2019-12-22T12:19:34Z</time>
      </trkpt>
      <trkpt lat="44.47067" lon="3.92329">
        <ele>661</ele>
        <time>2019-12-22T12:19:36Z</time>
      </trkpt>
      <trkpt lat="44.47055" lon="3.92312">
        <ele>664</ele>
        <time>2019-12-22T12:19:39Z</time>
      </trkpt>
      <trkpt lat="44.47027" lon="3.92289">
        <ele>669</ele>
        <time>2019-12-22T12:19:44Z</time>
      </trkpt>
      <trkpt lat="44.46977" lon="3.92278">
        <ele>671</ele>
        <time>2019-12-22T12:19:53Z</time>
      </trkpt>
      <trkpt lat="44.46938" lon="3.92311">
        <ele>661</ele>
        <time>2019-12-22T12:20:01Z</time>
      </trkpt>
      <trkpt lat="44.46903" lon="3.92331">
        <ele>655</ele>
        <time>2019-12-22T12:20:08Z</time>
      </trkpt>
      <trkpt lat="44.4687" lon="3.9236">
        <ele>646</ele>
        <time>2019-12-22T12:20:15Z</time>
      </trkpt>
      <trkpt lat="44.46858" lon="3.92362">
        <ele>646</ele>
        <time>2019-12-22T12:20:17Z</time>
      </trkpt>
      <trkpt lat="44.46843" lon="3.92352">
        <ele>651</ele>
        <time>2019-12-22T12:20:20Z</time>
      </trkpt>
      <trkpt lat="44.46821" lon="3.92348">
        <ele>650</ele>
        <time>2019-12-22T12:20:24Z</time>
      </trkpt>
      <trkpt lat="44.46792" lon="3.92353">
        <ele>642</ele>
        <time>2019-12-22T12:20:29Z</time>
      </trkpt>
      <trkpt lat="44.46782" lon="3.92353">
        <ele>640</ele>
        <time>2019-12-22T12:20:31Z</time>
      </trkpt>
      <trkpt lat="44.46768" lon="3.92344">
        <ele>640</ele>
        <time>2019-12-22T12:20:34Z</time>
      </trkpt>
      <trkpt lat="44.46762" lon="3.92346">
        <ele>638</ele>
        <time>2019-12-22T12:20:35Z</time>
      </trkpt>
      <trkpt lat="44.46759" lon="3.92354">
        <ele>635</ele>
        <time>2019-12-22T12:20:36Z</time>
      </trkpt>
      <trkpt lat="44.46762" lon="3.92362">
        <ele>633</ele>
        <time>2019-12-22T12:20:37Z</time>
      </trkpt>
      <trkpt lat="44.46768" lon="3.92366">
        <ele>633</ele>
        <time>2019-12-22T12:20:38Z</time>
      </trkpt>
      <trkpt lat="44.46806" lon="3.92362">
        <ele>642</ele>
        <time>2019-12-22T12:20:45Z</time>
      </trkpt>
      <trkpt lat="44.46826" lon="3.92365">
        <ele>645</ele>
        <time>2019-12-22T12:20:49Z</time>
      </trkpt>
      <trkpt lat="44.46837" lon="3.92376">
        <ele>641</ele>
        <time>2019-12-22T12:20:51Z</time>
      </trkpt>
      <trkpt lat="44.46863" lon="3.92396">
        <ele>632</ele>
        <time>2019-12-22T12:20:57Z</time>
      </trkpt>
      <trkpt lat="44.46877" lon="3.92397">
        <ele>631</ele>
        <time>2019-12-22T12:20:59Z</time>
      </trkpt>
      <trkpt lat="44.46911" lon="3.92377">
        <ele>638</ele>
        <time>2019-12-22T12:21:06Z</time>
      </trkpt>
      <trkpt lat="44.4692" lon="3.92377">
        <ele>637</ele>
        <time>2019-12-22T12:21:07Z</time>
      </trkpt>
      <trkpt lat="44.46945" lon="3.92385">
        <ele>635</ele>
        <time>2019-12-22T12:21:12Z</time>
      </trkpt>
      <trkpt lat="44.46991" lon="3.92382">
        <ele>637</ele>
        <time>2019-12-22T12:21:20Z</time>
      </trkpt>
      <trkpt lat="44.47012" lon="3.92387">
        <ele>637</ele>
        <time>2019-12-22T12:21:24Z</time>
      </trkpt>
      <trkpt lat="44.47025" lon="3.92403">
        <ele>634</ele>
        <time>2019-12-22T12:21:27Z</time>
      </trkpt>
      <trkpt lat="44.47031" lon="3.92425">
        <ele>630</ele>
        <time>2019-12-22T12:21:30Z</time>
      </trkpt>
      <trkpt lat="44.47019" lon="3.92457">
        <ele>627</ele>
        <time>2019-12-22T12:21:34Z</time>
      </trkpt>
      <trkpt lat="44.47015" lon="3.92465">
        <ele>626</ele>
        <time>2019-12-22T12:21:36Z</time>
      </trkpt>
      <trkpt lat="44.47006" lon="3.92473">
        <ele>625</ele>
        <time>2019-12-22T12:21:38Z</time>
      </trkpt>
      <trkpt lat="44.46875" lon="3.92524">
        <ele>622</ele>
        <time>2019-12-22T12:22:02Z</time>
      </trkpt>
      <trkpt lat="44.46773" lon="3.92577">
        <ele>622</ele>
        <time>2019-12-22T12:22:21Z</time>
      </trkpt>
      <trkpt lat="44.46749" lon="3.92585">
        <ele>623</ele>
        <time>2019-12-22T12:22:25Z</time>
      </trkpt>
      <trkpt lat="44.46709" lon="3.92579">
        <ele>620</ele>
        <time>2019-12-22T12:22:33Z</time>
      </trkpt>
      <trkpt lat="44.46696" lon="3.92582">
        <ele>620</ele>
        <time>2019-12-22T12:22:35Z</time>
      </trkpt>
      <trkpt lat="44.46684" lon="3.92591">
        <ele>620</ele>
        <time>2019-12-22T12:22:37Z</time>
      </trkpt>
      <trkpt lat="44.46673" lon="3.92607">
        <ele>622</ele>
        <time>2019-12-22T12:22:40Z</time>
      </trkpt>
      <trkpt lat="44.46666" lon="3.92639">
        <ele>627</ele>
        <time>2019-12-22T12:22:44Z</time>
      </trkpt>
      <trkpt lat="44.46661" lon="3.9268">
        <ele>633</ele>
        <time>2019-12-22T12:22:50Z</time>
      </trkpt>
      <trkpt lat="44.46655" lon="3.92691">
        <ele>635</ele>
        <time>2019-12-22T12:22:51Z</time>
      </trkpt>
      <trkpt lat="44.46644" lon="3.927">
        <ele>637</ele>
        <time>2019-12-22T12:22:54Z</time>
      </trkpt>
      <trkpt lat="44.46619" lon="3.92705">
        <ele>637</ele>
        <time>2019-12-22T12:22:58Z</time>
      </trkpt>
      <trkpt lat="44.4659" lon="3.92701">
        <ele>636</ele>
        <time>2019-12-22T12:23:03Z</time>
      </trkpt>
      <trkpt lat="44.46567" lon="3.92688">
        <ele>632</ele>
        <time>2019-12-22T12:23:08Z</time>
      </trkpt>
      <trkpt lat="44.46549" lon="3.92683">
        <ele>631</ele>
        <time>2019-12-22T12:23:11Z</time>
      </trkpt>
      <trkpt lat="44.46535" lon="3.92683">
        <ele>631</ele>
        <time>2019-12-22T12:23:14Z</time>
      </trkpt>
      <trkpt lat="44.46513" lon="3.92692">
        <ele>634</ele>
        <time>2019-12-22T12:23:18Z</time>
      </trkpt>
      <trkpt lat="44.46498" lon="3.92706">
        <ele>638</ele>
        <time>2019-12-22T12:23:21Z</time>
      </trkpt>
      <trkpt lat="44.46465" lon="3.92752">
        <ele>646</ele>
        <time>2019-12-22T12:23:29Z</time>
      </trkpt>
      <trkpt lat="44.46451" lon="3.92761">
        <ele>647</ele>
        <time>2019-12-22T12:23:32Z</time>
      </trkpt>
      <trkpt lat="44.4644" lon="3.92763">
        <ele>647</ele>
        <time>2019-12-22T12:23:34Z</time>
      </trkpt>
      <trkpt lat="44.46414" lon="3.92761">
        <ele>643</ele>
        <time>2019-12-22T12:23:39Z</time>
      </trkpt>
      <trkpt lat="44.46405" lon="3.92763">
        <ele>643</ele>
        <time>2019-12-22T12:23:40Z</time>
      </trkpt>
      <trkpt lat="44.46393" lon="3.92769">
        <ele>643</ele>
        <time>2019-12-22T12:23:42Z</time>
      </trkpt>
      <trkpt lat="44.46372" lon="3.92793">
        <ele>648</ele>
        <time>2019-12-22T12:23:47Z</time>
      </trkpt>
      <trkpt lat="44.46358" lon="3.92807">
        <ele>650</ele>
        <time>2019-12-22T12:23:50Z</time>
      </trkpt>
      <trkpt lat="44.46323" lon="3.92833">
        <ele>654</ele>
        <time>2019-12-22T12:23:57Z</time>
      </trkpt>
      <trkpt lat="44.4631" lon="3.92836">
        <ele>654</ele>
        <time>2019-12-22T12:24:00Z</time>
      </trkpt>
      <trkpt lat="44.46292" lon="3.92836">
        <ele>652</ele>
        <time>2019-12-22T12:24:03Z</time>
      </trkpt>
      <trkpt lat="44.46243" lon="3.92865">
        <ele>658</ele>
        <time>2019-12-22T12:24:12Z</time>
      </trkpt>
      <trkpt lat="44.46232" lon="3.92865">
        <ele>657</ele>
        <time>2019-12-22T12:24:14Z</time>
      </trkpt>
      <trkpt lat="44.46207" lon="3.92856">
        <ele>652</ele>
        <time>2019-12-22T12:24:19Z</time>
      </trkpt>
      <trkpt lat="44.46189" lon="3.92859">
        <ele>651</ele>
        <time>2019-12-22T12:24:22Z</time>
      </trkpt>
      <trkpt lat="44.46142" lon="3.92932">
        <ele>665</ele>
        <time>2019-12-22T12:24:35Z</time>
      </trkpt>
      <trkpt lat="44.46111" lon="3.9296">
        <ele>668</ele>
        <time>2019-12-22T12:24:41Z</time>
      </trkpt>
      <trkpt lat="44.46078" lon="3.92985">
        <ele>671</ele>
        <time>2019-12-22T12:24:48Z</time>
      </trkpt>
      <trkpt lat="44.46043" lon="3.92998">
        <ele>675</ele>
        <time>2019-12-22T12:24:54Z</time>
      </trkpt>
      <trkpt lat="44.46044" lon="3.92982">
        <ele>670</ele>
        <time>2019-12-22T12:24:56Z</time>
      </trkpt>
      <trkpt lat="44.4604" lon="3.92967">
        <ele>666</ele>
        <time>2019-12-22T12:24:58Z</time>
      </trkpt>
      <trkpt lat="44.46029" lon="3.92953">
        <ele>662</ele>
        <time>2019-12-22T12:25:01Z</time>
      </trkpt>
      <trkpt lat="44.45957" lon="3.92911">
        <ele>651</ele>
        <time>2019-12-22T12:25:15Z</time>
      </trkpt>
      <trkpt lat="44.45933" lon="3.92901">
        <ele>649</ele>
        <time>2019-12-22T12:25:19Z</time>
      </trkpt>
      <trkpt lat="44.45909" lon="3.92901">
        <ele>649</ele>
        <time>2019-12-22T12:25:24Z</time>
      </trkpt>
      <trkpt lat="44.45883" lon="3.92908">
        <ele>646</ele>
        <time>2019-12-22T12:25:28Z</time>
      </trkpt>
      <trkpt lat="44.45861" lon="3.92922">
        <ele>646</ele>
        <time>2019-12-22T12:25:33Z</time>
      </trkpt>
      <trkpt lat="44.458" lon="3.92972">
        <ele>649</ele>
        <time>2019-12-22T12:25:45Z</time>
      </trkpt>
      <trkpt lat="44.45766" lon="3.92994">
        <ele>649</ele>
        <time>2019-12-22T12:25:52Z</time>
      </trkpt>
      <trkpt lat="44.45749" lon="3.92998">
        <ele>647</ele>
        <time>2019-12-22T12:25:55Z</time>
      </trkpt>
      <trkpt lat="44.457" lon="3.92995">
        <ele>640</ele>
        <time>2019-12-22T12:26:04Z</time>
      </trkpt>
      <trkpt lat="44.45663" lon="3.92988">
        <ele>633</ele>
        <time>2019-12-22T12:26:10Z</time>
      </trkpt>
      <trkpt lat="44.4564" lon="3.92995">
        <ele>630</ele>
        <time>2019-12-22T12:26:14Z</time>
      </trkpt>
      <trkpt lat="44.4556" lon="3.93078">
        <ele>625</ele>
        <time>2019-12-22T12:26:32Z</time>
      </trkpt>
      <trkpt lat="44.45538" lon="3.93104">
        <ele>622</ele>
        <time>2019-12-22T12:26:37Z</time>
      </trkpt>
      <trkpt lat="44.45528" lon="3.93137">
        <ele>624</ele>
        <time>2019-12-22T12:26:42Z</time>
      </trkpt>
      <trkpt lat="44.45517" lon="3.93193">
        <ele>627</ele>
        <time>2019-12-22T12:26:49Z</time>
      </trkpt>
      <trkpt lat="44.45505" lon="3.93213">
        <ele>623</ele>
        <time>2019-12-22T12:26:53Z</time>
      </trkpt>
      <trkpt lat="44.45487" lon="3.93224">
        <ele>616</ele>
        <time>2019-12-22T12:26:56Z</time>
      </trkpt>
      <trkpt lat="44.45472" lon="3.93219">
        <ele>609</ele>
        <time>2019-12-22T12:26:59Z</time>
      </trkpt>
      <trkpt lat="44.45461" lon="3.93211">
        <ele>603</ele>
        <time>2019-12-22T12:27:01Z</time>
      </trkpt>
      <trkpt lat="44.45443" lon="3.93194">
        <ele>593</ele>
        <time>2019-12-22T12:27:05Z</time>
      </trkpt>
      <trkpt lat="44.45417" lon="3.93183">
        <ele>582</ele>
        <time>2019-12-22T12:27:10Z</time>
      </trkpt>
      <trkpt lat="44.45391" lon="3.9318">
        <ele>589</ele>
        <time>2019-12-22T12:27:14Z</time>
      </trkpt>
      <trkpt lat="44.45363" lon="3.93182">
        <ele>597</ele>
        <time>2019-12-22T12:27:19Z</time>
      </trkpt>
      <trkpt lat="44.45335" lon="3.93177">
        <ele>604</ele>
        <time>2019-12-22T12:27:24Z</time>
      </trkpt>
      <trkpt lat="44.45295" lon="3.93164">
        <ele>608</ele>
        <time>2019-12-22T12:27:32Z</time>
      </trkpt>
      <trkpt lat="44.45248" lon="3.93178">
        <ele>616</ele>
        <time>2019-12-22T12:27:40Z</time>
      </trkpt>
      <trkpt lat="44.45193" lon="3.9322">
        <ele>629</ele>
        <time>2019-12-22T12:27:51Z</time>
      </trkpt>
      <trkpt lat="44.45172" lon="3.93227">
        <ele>630</ele>
        <time>2019-12-22T12:27:55Z</time>
      </trkpt>
      <trkpt lat="44.4514" lon="3.93221">
        <ele>629</ele>
        <time>2019-12-22T12:28:01Z</time>
      </trkpt>
      <trkpt lat="44.45048" lon="3.93135">
        <ele>611</ele>
        <time>2019-12-22T12:28:21Z</time>
      </trkpt>
      <trkpt lat="44.44974" lon="3.93089">
        <ele>603</ele>
        <time>2019-12-22T12:28:35Z</time>
      </trkpt>
      <trkpt lat="44.44892" lon="3.93046">
        <ele>605</ele>
        <time>2019-12-22T12:28:51Z</time>
      </trkpt>
      <trkpt lat="44.44873" lon="3.9304">
        <ele>608</ele>
        <time>2019-12-22T12:28:54Z</time>
      </trkpt>
      <trkpt lat="44.44872" lon="3.93031">
        <ele>610</ele>
        <time>2019-12-22T12:28:55Z</time>
      </trkpt>
      <trkpt lat="44.44866" lon="3.9302">
        <ele>612</ele>
        <time>2019-12-22T12:28:57Z</time>
      </trkpt>
      <trkpt lat="44.44857" lon="3.93017">
        <ele>614</ele>
        <time>2019-12-22T12:28:59Z</time>
      </trkpt>
      <trkpt lat="44.44849" lon="3.93023">
        <ele>614</ele>
        <time>2019-12-22T12:29:00Z</time>
      </trkpt>
      <trkpt lat="44.44846" lon="3.93032">
        <ele>612</ele>
        <time>2019-12-22T12:29:01Z</time>
      </trkpt>
      <trkpt lat="44.44847" lon="3.93042">
        <ele>610</ele>
        <time>2019-12-22T12:29:03Z</time>
      </trkpt>
      <trkpt lat="44.44829" lon="3.93053">
        <ele>608</ele>
        <time>2019-12-22T12:29:06Z</time>
      </trkpt>
      <trkpt lat="44.44812" lon="3.93055">
        <ele>607</ele>
        <time>2019-12-22T12:29:09Z</time>
      </trkpt>
      <trkpt lat="44.44786" lon="3.93053">
        <ele>608</ele>
        <time>2019-12-22T12:29:14Z</time>
      </trkpt>
      <trkpt lat="44.44696" lon="3.93031">
        <ele>607</ele>
        <time>2019-12-22T12:29:30Z</time>
      </trkpt>
      <trkpt lat="44.4468" lon="3.93025">
        <ele>607</ele>
        <time>2019-12-22T12:29:33Z</time>
      </trkpt>
      <trkpt lat="44.44638" lon="3.92998">
        <ele>606</ele>
        <time>2019-12-22T12:29:41Z</time>
      </trkpt>
      <trkpt lat="44.44592" lon="3.92971">
        <ele>609</ele>
        <time>2019-12-22T12:29:50Z</time>
      </trkpt>
      <trkpt lat="44.44576" lon="3.92965">
        <ele>610</ele>
        <time>2019-12-22T12:29:53Z</time>
      </trkpt>
      <trkpt lat="44.44555" lon="3.92963">
        <ele>610</ele>
        <time>2019-12-22T12:29:57Z</time>
      </trkpt>
      <trkpt lat="44.44516" lon="3.92972">
        <ele>605</ele>
        <time>2019-12-22T12:30:04Z</time>
      </trkpt>
      <trkpt lat="44.44492" lon="3.92987">
        <ele>600</ele>
        <time>2019-12-22T12:30:09Z</time>
      </trkpt>
      <trkpt lat="44.44468" lon="3.93011">
        <ele>600</ele>
        <time>2019-12-22T12:30:14Z</time>
      </trkpt>
      <trkpt lat="44.4445" lon="3.93033">
        <ele>601</ele>
        <time>2019-12-22T12:30:18Z</time>
      </trkpt>
      <trkpt lat="44.4444" lon="3.93055">
        <ele>599</ele>
        <time>2019-12-22T12:30:21Z</time>
      </trkpt>
      <trkpt lat="44.44434" lon="3.93082">
        <ele>595</ele>
        <time>2019-12-22T12:30:25Z</time>
      </trkpt>
      <trkpt lat="44.44416" lon="3.93293">
        <ele>577</ele>
        <time>2019-12-22T12:30:52Z</time>
      </trkpt>
      <trkpt lat="44.44411" lon="3.93324">
        <ele>578</ele>
        <time>2019-12-22T12:30:56Z</time>
      </trkpt>
      <trkpt lat="44.44408" lon="3.93335">
        <ele>579</ele>
        <time>2019-12-22T12:30:58Z</time>
      </trkpt>
      <trkpt lat="44.44404" lon="3.93342">
        <ele>581</ele>
        <time>2019-12-22T12:30:59Z</time>
      </trkpt>
      <trkpt lat="44.44395" lon="3.93349">
        <ele>584</ele>
        <time>2019-12-22T12:31:01Z</time>
      </trkpt>
      <trkpt lat="44.44351" lon="3.93341">
        <ele>589</ele>
        <time>2019-12-22T12:31:08Z</time>
      </trkpt>
      <trkpt lat="44.44339" lon="3.93333">
        <ele>588</ele>
        <time>2019-12-22T12:31:11Z</time>
      </trkpt>
      <trkpt lat="44.44208" lon="3.93194">
        <ele>587</ele>
        <time>2019-12-22T12:31:40Z</time>
      </trkpt>
      <trkpt lat="44.44197" lon="3.93186">
        <ele>587</ele>
        <time>2019-12-22T12:31:42Z</time>
      </trkpt>
      <trkpt lat="44.4419" lon="3.93183">
        <ele>586</ele>
        <time>2019-12-22T12:31:44Z</time>
      </trkpt>
      <trkpt lat="44.44174" lon="3.9318">
        <ele>586</ele>
        <time>2019-12-22T12:31:46Z</time>
      </trkpt>
      <trkpt lat="44.44127" lon="3.93191">
        <ele>591</ele>
        <time>2019-12-22T12:31:55Z</time>
      </trkpt>
      <trkpt lat="44.44027" lon="3.93204">
        <ele>593</ele>
        <time>2019-12-22T12:32:13Z</time>
      </trkpt>
      <trkpt lat="44.43938" lon="3.9322">
        <ele>592</ele>
        <time>2019-12-22T12:32:29Z</time>
      </trkpt>
      <trkpt lat="44.43888" lon="3.93222">
        <ele>594</ele>
        <time>2019-12-22T12:32:38Z</time>
      </trkpt>
      <trkpt lat="44.43865" lon="3.93226">
        <ele>595</ele>
        <time>2019-12-22T12:32:42Z</time>
      </trkpt>
      <trkpt lat="44.43822" lon="3.93243">
        <ele>597</ele>
        <time>2019-12-22T12:32:50Z</time>
      </trkpt>
      <trkpt lat="44.43813" lon="3.93249">
        <ele>598</ele>
        <time>2019-12-22T12:32:51Z</time>
      </trkpt>
      <trkpt lat="44.43778" lon="3.93307">
        <ele>600</ele>
        <time>2019-12-22T12:33:01Z</time>
      </trkpt>
      <trkpt lat="44.43769" lon="3.93317">
        <ele>601</ele>
        <time>2019-12-22T12:33:03Z</time>
      </trkpt>
      <trkpt lat="44.43764" lon="3.9332">
        <ele>601</ele>
        <time>2019-12-22T12:33:04Z</time>
      </trkpt>
      <trkpt lat="44.43718" lon="3.93323">
        <ele>603</ele>
        <time>2019-12-22T12:33:12Z</time>
      </trkpt>
      <trkpt lat="44.43669" lon="3.9332">
        <ele>606</ele>
        <time>2019-12-22T12:33:21Z</time>
      </trkpt>
      <trkpt lat="44.43627" lon="3.9332">
        <ele>608</ele>
        <time>2019-12-22T12:33:29Z</time>
      </trkpt>
      <trkpt lat="44.43538" lon="3.93317">
        <ele>614</ele>
        <time>2019-12-22T12:33:44Z</time>
      </trkpt>
      <trkpt lat="44.43486" lon="3.93322">
        <ele>617</ele>
        <time>2019-12-22T12:33:54Z</time>
      </trkpt>
      <trkpt lat="44.4339" lon="3.93341">
        <ele>624</ele>
        <time>2019-12-22T12:34:11Z</time>
      </trkpt>
      <trkpt lat="44.43345" lon="3.93333">
        <ele>627</ele>
        <time>2019-12-22T12:34:19Z</time>
      </trkpt>
      <trkpt lat="44.43268" lon="3.93305">
        <ele>634</ele>
        <time>2019-12-22T12:34:33Z</time>
      </trkpt>
      <trkpt lat="44.43259" lon="3.93305">
        <ele>634</ele>
        <time>2019-12-22T12:34:35Z</time>
      </trkpt>
      <trkpt lat="44.43242" lon="3.93313">
        <ele>636</ele>
        <time>2019-12-22T12:34:38Z</time>
      </trkpt>
      <trkpt lat="44.43233" lon="3.93324">
        <ele>638</ele>
        <time>2019-12-22T12:34:40Z</time>
      </trkpt>
      <trkpt lat="44.43218" lon="3.93411">
        <ele>647</ele>
        <time>2019-12-22T12:34:51Z</time>
      </trkpt>
      <trkpt lat="44.43212" lon="3.93429">
        <ele>651</ele>
        <time>2019-12-22T12:34:54Z</time>
      </trkpt>
      <trkpt lat="44.43191" lon="3.93456">
        <ele>659</ele>
        <time>2019-12-22T12:34:59Z</time>
      </trkpt>
      <trkpt lat="44.43129" lon="3.93494">
        <ele>665</ele>
        <time>2019-12-22T12:35:11Z</time>
      </trkpt>
      <trkpt lat="44.43104" lon="3.93512">
        <ele>665</ele>
        <time>2019-12-22T12:35:16Z</time>
      </trkpt>
      <trkpt lat="44.43075" lon="3.93519">
        <ele>664</ele>
        <time>2019-12-22T12:35:21Z</time>
      </trkpt>
      <trkpt lat="44.4307" lon="3.93516">
        <ele>664</ele>
        <time>2019-12-22T12:35:22Z</time>
      </trkpt>
      <trkpt lat="44.43062" lon="3.93517">
        <ele>664</ele>
        <time>2019-12-22T12:35:24Z</time>
      </trkpt>
      <trkpt lat="44.43056" lon="3.93522">
        <ele>664</ele>
        <time>2019-12-22T12:35:25Z</time>
      </trkpt>
      <trkpt lat="44.43053" lon="3.93528">
        <ele>663</ele>
        <time>2019-12-22T12:35:26Z</time>
      </trkpt>
      <trkpt lat="44.43051" lon="3.93536">
        <ele>662</ele>
        <time>2019-12-22T12:35:27Z</time>
      </trkpt>
      <trkpt lat="44.43054" lon="3.93548">
        <ele>661</ele>
        <time>2019-12-22T12:35:29Z</time>
      </trkpt>
      <trkpt lat="44.43057" lon="3.93554">
        <ele>661</ele>
        <time>2019-12-22T12:35:29Z</time>
      </trkpt>
      <trkpt lat="44.43063" lon="3.93558">
        <ele>661</ele>
        <time>2019-12-22T12:35:31Z</time>
      </trkpt>
      <trkpt lat="44.43069" lon="3.93558">
        <ele>662</ele>
        <time>2019-12-22T12:35:32Z</time>
      </trkpt>
      <trkpt lat="44.43074" lon="3.93556">
        <ele>663</ele>
        <time>2019-12-22T12:35:33Z</time>
      </trkpt>
      <trkpt lat="44.43085" lon="3.93576">
        <ele>664</ele>
        <time>2019-12-22T12:35:36Z</time>
      </trkpt>
      <trkpt lat="44.43076" lon="3.9361">
        <ele>664</ele>
        <time>2019-12-22T12:35:40Z</time>
      </trkpt>
      <trkpt lat="44.43054" lon="3.93671">
        <ele>659</ele>
        <time>2019-12-22T12:35:49Z</time>
      </trkpt>
      <trkpt lat="44.43048" lon="3.93698">
        <ele>659</ele>
        <time>2019-12-22T12:35:53Z</time>
      </trkpt>
      <trkpt lat="44.43044" lon="3.93731">
        <ele>660</ele>
        <time>2019-12-22T12:35:57Z</time>
      </trkpt>
      <trkpt lat="44.43044" lon="3.9378">
        <ele>665</ele>
        <time>2019-12-22T12:36:03Z</time>
      </trkpt>
      <trkpt lat="44.43047" lon="3.93828">
        <ele>672</ele>
        <time>2019-12-22T12:36:09Z</time>
      </trkpt>
      <trkpt lat="44.43043" lon="3.9384">
        <ele>673</ele>
        <time>2019-12-22T12:36:11Z</time>
      </trkpt>
      <trkpt lat="44.43035" lon="3.9385">
        <ele>673</ele>
        <time>2019-12-22T12:36:13Z</time>
      </trkpt>
      <trkpt lat="44.42988" lon="3.93874">
        <ele>669</ele>
        <time>2019-12-22T12:36:22Z</time>
      </trkpt>
      <trkpt lat="44.42959" lon="3.93896">
        <ele>666</ele>
        <time>2019-12-22T12:36:28Z</time>
      </trkpt>
      <trkpt lat="44.42938" lon="3.93917">
        <ele>666</ele>
        <time>2019-12-22T12:36:32Z</time>
      </trkpt>
      <trkpt lat="44.42907" lon="3.93962">
        <ele>670</ele>
        <time>2019-12-22T12:36:40Z</time>
      </trkpt>
      <trkpt lat="44.42877" lon="3.93998">
        <ele>667</ele>
        <time>2019-12-22T12:36:47Z</time>
      </trkpt>
      <trkpt lat="44.42869" lon="3.94016">
        <ele>668</ele>
        <time>2019-12-22T12:36:50Z</time>
      </trkpt>
      <trkpt lat="44.42859" lon="3.94067">
        <ele>677</ele>
        <time>2019-12-22T12:36:57Z</time>
      </trkpt>
      <trkpt lat="44.42845" lon="3.94107">
        <ele>680</ele>
        <time>2019-12-22T12:37:02Z</time>
      </trkpt>
      <trkpt lat="44.42836" lon="3.94125">
        <ele>680</ele>
        <time>2019-12-22T12:37:05Z</time>
      </trkpt>
      <trkpt lat="44.42812" lon="3.94161">
        <ele>677</ele>
        <time>2019-12-22T12:37:11Z</time>
      </trkpt>
      <trkpt lat="44.42804" lon="3.94184">
        <ele>676</ele>
        <time>2019-12-22T12:37:15Z</time>
      </trkpt>
      <trkpt lat="44.42798" lon="3.94213">
        <ele>675</ele>
        <time>2019-12-22T12:37:18Z</time>
      </trkpt>
      <trkpt lat="44.42798" lon="3.9424">
        <ele>678</ele>
        <time>2019-12-22T12:37:22Z</time>
      </trkpt>
      <trkpt lat="44.42804" lon="3.94277">
        <ele>685</ele>
        <time>2019-12-22T12:37:27Z</time>
      </trkpt>
      <trkpt lat="44.42822" lon="3.94322">
        <ele>698</ele>
        <time>2019-12-22T12:37:33Z</time>
      </trkpt>
      <trkpt lat="44.42824" lon="3.94334">
        <ele>700</ele>
        <time>2019-12-22T12:37:35Z</time>
      </trkpt>
      <trkpt lat="44.42823" lon="3.94345">
        <ele>702</ele>
        <time>2019-12-22T12:37:36Z</time>
      </trkpt>
      <trkpt lat="44.42816" lon="3.94355">
        <ele>701</ele>
        <time>2019-12-22T12:37:38Z</time>
      </trkpt>
      <trkpt lat="44.42797" lon="3.94369">
        <ele>697</ele>
        <time>2019-12-22T12:37:42Z</time>
      </trkpt>
      <trkpt lat="44.42768" lon="3.944">
        <ele>695</ele>
        <time>2019-12-22T12:37:48Z</time>
      </trkpt>
      <trkpt lat="44.42754" lon="3.94408">
        <ele>692</ele>
        <time>2019-12-22T12:37:51Z</time>
      </trkpt>
      <trkpt lat="44.42737" lon="3.94414">
        <ele>690</ele>
        <time>2019-12-22T12:37:54Z</time>
      </trkpt>
      <trkpt lat="44.42719" lon="3.94423">
        <ele>689</ele>
        <time>2019-12-22T12:37:58Z</time>
      </trkpt>
      <trkpt lat="44.42695" lon="3.94441">
        <ele>688</ele>
        <time>2019-12-22T12:38:02Z</time>
      </trkpt>
      <trkpt lat="44.42681" lon="3.94464">
        <ele>690</ele>
        <time>2019-12-22T12:38:06Z</time>
      </trkpt>
      <trkpt lat="44.42675" lon="3.94482">
        <ele>693</ele>
        <time>2019-12-22T12:38:09Z</time>
      </trkpt>
      <trkpt lat="44.42673" lon="3.94497">
        <ele>695</ele>
        <time>2019-12-22T12:38:11Z</time>
      </trkpt>
      <trkpt lat="44.42664" lon="3.94527">
        <ele>698</ele>
        <time>2019-12-22T12:38:15Z</time>
      </trkpt>
      <trkpt lat="44.42649" lon="3.94555">
        <ele>699</ele>
        <time>2019-12-22T12:38:19Z</time>
      </trkpt>
      <trkpt lat="44.42634" lon="3.94576">
        <ele>698</ele>
        <time>2019-12-22T12:38:23Z</time>
      </trkpt>
      <trkpt lat="44.42609" lon="3.94597">
        <ele>694</ele>
        <time>2019-12-22T12:38:28Z</time>
      </trkpt>
      <trkpt lat="44.42601" lon="3.94611">
        <ele>693</ele>
        <time>2019-12-22T12:38:31Z</time>
      </trkpt>
      <trkpt lat="44.42594" lon="3.9464">
        <ele>695</ele>
        <time>2019-12-22T12:38:34Z</time>
      </trkpt>
      <trkpt lat="44.42595" lon="3.94659">
        <ele>697</ele>
        <time>2019-12-22T12:38:37Z</time>
      </trkpt>
      <trkpt lat="44.426" lon="3.94676">
        <ele>699</ele>
        <time>2019-12-22T12:38:39Z</time>
      </trkpt>
      <trkpt lat="44.42608" lon="3.94694">
        <ele>701</ele>
        <time>2019-12-22T12:38:42Z</time>
      </trkpt>
      <trkpt lat="44.42624" lon="3.94718">
        <ele>704</ele>
        <time>2019-12-22T12:38:46Z</time>
      </trkpt>
      <trkpt lat="44.42647" lon="3.94745">
        <ele>708</ele>
        <time>2019-12-22T12:38:51Z</time>
      </trkpt>
      <trkpt lat="44.42706" lon="3.94804">
        <ele>715</ele>
        <time>2019-12-22T12:39:04Z</time>
      </trkpt>
      <trkpt lat="44.42724" lon="3.94843">
        <ele>715</ele>
        <time>2019-12-22T12:39:10Z</time>
      </trkpt>
      <trkpt lat="44.42739" lon="3.94867">
        <ele>716</ele>
        <time>2019-12-22T12:39:14Z</time>
      </trkpt>
      <trkpt lat="44.42754" lon="3.94881">
        <ele>717</ele>
        <time>2019-12-22T12:39:17Z</time>
      </trkpt>
      <trkpt lat="44.42765" lon="3.94888">
        <ele>718</ele>
        <time>2019-12-22T12:39:20Z</time>
      </trkpt>
      <trkpt lat="44.42791" lon="3.94895">
        <ele>719</ele>
        <time>2019-12-22T12:39:24Z</time>
      </trkpt>
      <trkpt lat="44.42827" lon="3.94893">
        <ele>723</ele>
        <time>2019-12-22T12:39:31Z</time>
      </trkpt>
      <trkpt lat="44.42912" lon="3.94895">
        <ele>729</ele>
        <time>2019-12-22T12:39:46Z</time>
      </trkpt>
      <trkpt lat="44.42946" lon="3.94872">
        <ele>739</ele>
        <time>2019-12-22T12:39:53Z</time>
      </trkpt>
      <trkpt lat="44.42971" lon="3.94867">
        <ele>742</ele>
        <time>2019-12-22T12:39:57Z</time>
      </trkpt>
      <trkpt lat="44.42985" lon="3.94873">
        <ele>741</ele>
        <time>2019-12-22T12:40:00Z</time>
      </trkpt>
      <trkpt lat="44.42992" lon="3.94879">
        <ele>740</ele>
        <time>2019-12-22T12:40:01Z</time>
      </trkpt>
      <trkpt lat="44.43016" lon="3.94928">
        <ele>732</ele>
        <time>2019-12-22T12:40:09Z</time>
      </trkpt>
      <trkpt lat="44.43025" lon="3.94941">
        <ele>731</ele>
        <time>2019-12-22T12:40:11Z</time>
      </trkpt>
      <trkpt lat="44.43053" lon="3.94978">
        <ele>732</ele>
        <time>2019-12-22T12:40:18Z</time>
      </trkpt>
      <trkpt lat="44.43063" lon="3.94995">
        <ele>732</ele>
        <time>2019-12-22T12:40:21Z</time>
      </trkpt>
      <trkpt lat="44.43072" lon="3.95006">
        <ele>733</ele>
        <time>2019-12-22T12:40:23Z</time>
      </trkpt>
      <trkpt lat="44.43085" lon="3.9502">
        <ele>736</ele>
        <time>2019-12-22T12:40:26Z</time>
      </trkpt>
      <trkpt lat="44.43105" lon="3.95035">
        <ele>742</ele>
        <time>2019-12-22T12:40:30Z</time>
      </trkpt>
      <trkpt lat="44.43112" lon="3.95046">
        <ele>743</ele>
        <time>2019-12-22T12:40:32Z</time>
      </trkpt>
      <trkpt lat="44.43114" lon="3.95056">
        <ele>743</ele>
        <time>2019-12-22T12:40:33Z</time>
      </trkpt>
      <trkpt lat="44.43115" lon="3.95066">
        <ele>742</ele>
        <time>2019-12-22T12:40:34Z</time>
      </trkpt>
      <trkpt lat="44.43112" lon="3.95077">
        <ele>739</ele>
        <time>2019-12-22T12:40:36Z</time>
      </trkpt>
      <trkpt lat="44.43083" lon="3.95132">
        <ele>733</ele>
        <time>2019-12-22T12:40:44Z</time>
      </trkpt>
      <trkpt lat="44.43078" lon="3.95153">
        <ele>734</ele>
        <time>2019-12-22T12:40:47Z</time>
      </trkpt>
      <trkpt lat="44.43077" lon="3.95172">
        <ele>736</ele>
        <time>2019-12-22T12:40:50Z</time>
      </trkpt>
      <trkpt lat="44.43079" lon="3.95192">
        <ele>738</ele>
        <time>2019-12-22T12:40:52Z</time>
      </trkpt>
      <trkpt lat="44.43094" lon="3.95233">
        <ele>746</ele>
        <time>2019-12-22T12:40:58Z</time>
      </trkpt>
      <trkpt lat="44.43095" lon="3.95245">
        <ele>747</ele>
        <time>2019-12-22T12:41:00Z</time>
      </trkpt>
      <trkpt lat="44.43092" lon="3.95261">
        <ele>747</ele>
        <time>2019-12-22T12:41:02Z</time>
      </trkpt>
      <trkpt lat="44.43061" lon="3.95334">
        <ele>746</ele>
        <time>2019-12-22T12:41:12Z</time>
      </trkpt>
      <trkpt lat="44.43032" lon="3.95424">
        <ele>756</ele>
        <time>2019-12-22T12:41:25Z</time>
      </trkpt>
      <trkpt lat="44.43025" lon="3.95437">
        <ele>757</ele>
        <time>2019-12-22T12:41:27Z</time>
      </trkpt>
      <trkpt lat="44.43017" lon="3.95444">
        <ele>756</ele>
        <time>2019-12-22T12:41:29Z</time>
      </trkpt>
      <trkpt lat="44.42939" lon="3.9545">
        <ele>746</ele>
        <time>2019-12-22T12:41:43Z</time>
      </trkpt>
      <trkpt lat="44.42921" lon="3.95455">
        <ele>746</ele>
        <time>2019-12-22T12:41:46Z</time>
      </trkpt>
      <trkpt lat="44.42894" lon="3.95479">
        <ele>745</ele>
        <time>2019-12-22T12:41:52Z</time>
      </trkpt>
      <trkpt lat="44.42884" lon="3.95498">
        <ele>748</ele>
        <time>2019-12-22T12:41:55Z</time>
      </trkpt>
      <trkpt lat="44.42861" lon="3.95549">
        <ele>759</ele>
        <time>2019-12-22T12:42:02Z</time>
      </trkpt>
      <trkpt lat="44.4285" lon="3.95568">
        <ele>763</ele>
        <time>2019-12-22T12:42:05Z</time>
      </trkpt>
      <trkpt lat="44.42835" lon="3.9558">
        <ele>762</ele>
        <time>2019-12-22T12:42:08Z</time>
      </trkpt>
      <trkpt lat="44.42797" lon="3.95595">
        <ele>762</ele>
        <time>2019-12-22T12:42:15Z</time>
      </trkpt>
      <trkpt lat="44.42775" lon="3.95601">
        <ele>760</ele>
        <time>2019-12-22T12:42:19Z</time>
      </trkpt>
      <trkpt lat="44.42734" lon="3.95601">
        <ele>754</ele>
        <time>2019-12-22T12:42:27Z</time>
      </trkpt>
      <trkpt lat="44.42721" lon="3.95614">
        <ele>754</ele>
        <time>2019-12-22T12:42:30Z</time>
      </trkpt>
      <trkpt lat="44.42717" lon="3.95623">
        <ele>755</ele>
        <time>2019-12-22T12:42:31Z</time>
      </trkpt>
      <trkpt lat="44.42714" lon="3.9565">
        <ele>760</ele>
        <time>2019-12-22T12:42:34Z</time>
      </trkpt>
      <trkpt lat="44.42714" lon="3.9568">
        <ele>763</ele>
        <time>2019-12-22T12:42:38Z</time>
      </trkpt>
      <trkpt lat="44.42724" lon="3.95767">
        <ele>767</ele>
        <time>2019-12-22T12:42:49Z</time>
      </trkpt>
      <trkpt lat="44.42729" lon="3.95821">
        <ele>769</ele>
        <time>2019-12-22T12:42:56Z</time>
      </trkpt>
      <trkpt lat="44.42735" lon="3.95985">
        <ele>774</ele>
        <time>2019-12-22T12:43:17Z</time>
      </trkpt>
      <trkpt lat="44.42734" lon="3.96074">
        <ele>775</ele>
        <time>2019-12-22T12:43:29Z</time>
      </trkpt>
      <trkpt lat="44.42716" lon="3.96243">
        <ele>784</ele>
        <time>2019-12-22T12:43:50Z</time>
      </trkpt>
      <trkpt lat="44.42702" lon="3.96327">
        <ele>783</ele>
        <time>2019-12-22T12:44:01Z</time>
      </trkpt>
      <trkpt lat="44.42697" lon="3.96366">
        <ele>783</ele>
        <time>2019-12-22T12:44:06Z</time>
      </trkpt>
      <trkpt lat="44.42696" lon="3.96391">
        <ele>784</ele>
        <time>2019-12-22T12:44:09Z</time>
      </trkpt>
      <trkpt lat="44.427" lon="3.96416">
        <ele>787</ele>
        <time>2019-12-22T12:44:13Z</time>
      </trkpt>
      <trkpt lat="44.42707" lon="3.9644">
        <ele>791</ele>
        <time>2019-12-22T12:44:16Z</time>
      </trkpt>
      <trkpt lat="44.42711" lon="3.96463">
        <ele>793</ele>
        <time>2019-12-22T12:44:19Z</time>
      </trkpt>
      <trkpt lat="44.42711" lon="3.96476">
        <ele>793</ele>
        <time>2019-12-22T12:44:21Z</time>
      </trkpt>
      <trkpt lat="44.42695" lon="3.9653">
        <ele>791</ele>
        <time>2019-12-22T12:44:28Z</time>
      </trkpt>
      <trkpt lat="44.42692" lon="3.96551">
        <ele>793</ele>
        <time>2019-12-22T12:44:31Z</time>
      </trkpt>
      <trkpt lat="44.42692" lon="3.96604">
        <ele>803</ele>
        <time>2019-12-22T12:44:37Z</time>
      </trkpt>
      <trkpt lat="44.4269" lon="3.9662">
        <ele>806</ele>
        <time>2019-12-22T12:44:40Z</time>
      </trkpt>
      <trkpt lat="44.42687" lon="3.9663">
        <ele>807</ele>
        <time>2019-12-22T12:44:41Z</time>
      </trkpt>
      <trkpt lat="44.42671" lon="3.96653">
        <ele>807</ele>
        <time>2019-12-22T12:44:45Z</time>
      </trkpt>
      <trkpt lat="44.42662" lon="3.96659">
        <ele>808</ele>
        <time>2019-12-22T12:44:47Z</time>
      </trkpt>
      <trkpt lat="44.4265" lon="3.96661">
        <ele>812</ele>
        <time>2019-12-22T12:44:49Z</time>
      </trkpt>
      <trkpt lat="44.42637" lon="3.96653">
        <ele>813</ele>
        <time>2019-12-22T12:44:51Z</time>
      </trkpt>
      <trkpt lat="44.42628" lon="3.96638">
        <ele>811</ele>
        <time>2019-12-22T12:44:54Z</time>
      </trkpt>
      <trkpt lat="44.42603" lon="3.9657">
        <ele>793</ele>
        <time>2019-12-22T12:45:04Z</time>
      </trkpt>
      <trkpt lat="44.42588" lon="3.96547">
        <ele>784</ele>
        <time>2019-12-22T12:45:08Z</time>
      </trkpt>
      <trkpt lat="44.42582" lon="3.96544">
        <ele>783</ele>
        <time>2019-12-22T12:45:09Z</time>
      </trkpt>
      <trkpt lat="44.42569" lon="3.96547">
        <ele>784</ele>
        <time>2019-12-22T12:45:11Z</time>
      </trkpt>
      <trkpt lat="44.42559" lon="3.96551">
        <ele>786</ele>
        <time>2019-12-22T12:45:13Z</time>
      </trkpt>
      <trkpt lat="44.42537" lon="3.96555">
        <ele>787</ele>
        <time>2019-12-22T12:45:17Z</time>
      </trkpt>
      <trkpt lat="44.4252" lon="3.96551">
        <ele>785</ele>
        <time>2019-12-22T12:45:20Z</time>
      </trkpt>
      <trkpt lat="44.42515" lon="3.96555">
        <ele>786</ele>
        <time>2019-12-22T12:45:21Z</time>
      </trkpt>
      <trkpt lat="44.42509" lon="3.96571">
        <ele>791</ele>
        <time>2019-12-22T12:45:23Z</time>
      </trkpt>
      <trkpt lat="44.42494" lon="3.96632">
        <ele>805</ele>
        <time>2019-12-22T12:45:31Z</time>
      </trkpt>
      <trkpt lat="44.42466" lon="3.96709">
        <ele>816</ele>
        <time>2019-12-22T12:45:42Z</time>
      </trkpt>
      <trkpt lat="44.42455" lon="3.96731">
        <ele>819</ele>
        <time>2019-12-22T12:45:46Z</time>
      </trkpt>
      <trkpt lat="44.42447" lon="3.96743">
        <ele>820</ele>
        <time>2019-12-22T12:45:48Z</time>
      </trkpt>
      <trkpt lat="44.42438" lon="3.96752">
        <ele>820</ele>
        <time>2019-12-22T12:45:50Z</time>
      </trkpt>
      <trkpt lat="44.42427" lon="3.96757">
        <ele>819</ele>
        <time>2019-12-22T12:45:52Z</time>
      </trkpt>
      <trkpt lat="44.42411" lon="3.96757">
        <ele>817</ele>
        <time>2019-12-22T12:45:55Z</time>
      </trkpt>
      <trkpt lat="44.42352" lon="3.96751">
        <ele>817</ele>
        <time>2019-12-22T12:46:05Z</time>
      </trkpt>
      <trkpt lat="44.42336" lon="3.96743">
        <ele>815</ele>
        <time>2019-12-22T12:46:08Z</time>
      </trkpt>
      <trkpt lat="44.42321" lon="3.96728">
        <ele>814</ele>
        <time>2019-12-22T12:46:12Z</time>
      </trkpt>
      <trkpt lat="44.42283" lon="3.96669">
        <ele>808</ele>
        <time>2019-12-22T12:46:22Z</time>
      </trkpt>
      <trkpt lat="44.42271" lon="3.96658">
        <ele>807</ele>
        <time>2019-12-22T12:46:24Z</time>
      </trkpt>
      <trkpt lat="44.42256" lon="3.9665">
        <ele>808</ele>
        <time>2019-12-22T12:46:27Z</time>
      </trkpt>
      <trkpt lat="44.42237" lon="3.96649">
        <ele>808</ele>
        <time>2019-12-22T12:46:31Z</time>
      </trkpt>
      <trkpt lat="44.4222" lon="3.96654">
        <ele>809</ele>
        <time>2019-12-22T12:46:34Z</time>
      </trkpt>
      <trkpt lat="44.42172" lon="3.96689">
        <ele>813</ele>
        <time>2019-12-22T12:46:43Z</time>
      </trkpt>
      <trkpt lat="44.42137" lon="3.96735">
        <ele>815</ele>
        <time>2019-12-22T12:46:52Z</time>
      </trkpt>
      <trkpt lat="44.42129" lon="3.96757">
        <ele>816</ele>
        <time>2019-12-22T12:46:55Z</time>
      </trkpt>
      <trkpt lat="44.42125" lon="3.96779">
        <ele>817</ele>
        <time>2019-12-22T12:46:58Z</time>
      </trkpt>
      <trkpt lat="44.42127" lon="3.96808">
        <ele>820</ele>
        <time>2019-12-22T12:47:02Z</time>
      </trkpt>
      <trkpt lat="44.42134" lon="3.96828">
        <ele>824</ele>
        <time>2019-12-22T12:47:04Z</time>
      </trkpt>
      <trkpt lat="44.42145" lon="3.96846">
        <ele>827</ele>
        <time>2019-12-22T12:47:07Z</time>
      </trkpt>
      <trkpt lat="44.4215" lon="3.96864">
        <ele>828</ele>
        <time>2019-12-22T12:47:10Z</time>
      </trkpt>
      <trkpt lat="44.4215" lon="3.96885">
        <ele>827</ele>
        <time>2019-12-22T12:47:13Z</time>
      </trkpt>
      <trkpt lat="44.42139" lon="3.96945">
        <ele>823</ele>
        <time>2019-12-22T12:47:20Z</time>
      </trkpt>
      <trkpt lat="44.42138" lon="3.96967">
        <ele>823</ele>
        <time>2019-12-22T12:47:23Z</time>
      </trkpt>
      <trkpt lat="44.42144" lon="3.97024">
        <ele>830</ele>
        <time>2019-12-22T12:47:31Z</time>
      </trkpt>
      <trkpt lat="44.42142" lon="3.97043">
        <ele>832</ele>
        <time>2019-12-22T12:47:33Z</time>
      </trkpt>
      <trkpt lat="44.42139" lon="3.97056">
        <ele>832</ele>
        <time>2019-12-22T12:47:35Z</time>
      </trkpt>
      <trkpt lat="44.4213" lon="3.97073">
        <ele>832</ele>
        <time>2019-12-22T12:47:37Z</time>
      </trkpt>
      <trkpt lat="44.4208" lon="3.97137">
        <ele>831</ele>
        <time>2019-12-22T12:47:49Z</time>
      </trkpt>
      <trkpt lat="44.42049" lon="3.97207">
        <ele>829</ele>
        <time>2019-12-22T12:48:00Z</time>
      </trkpt>
      <trkpt lat="44.42021" lon="3.97296">
        <ele>827</ele>
        <time>2019-12-22T12:48:12Z</time>
      </trkpt>
      <trkpt lat="44.42017" lon="3.97312">
        <ele>828</ele>
        <time>2019-12-22T12:48:14Z</time>
      </trkpt>
      <trkpt lat="44.42015" lon="3.97333">
        <ele>829</ele>
        <time>2019-12-22T12:48:17Z</time>
      </trkpt>
      <trkpt lat="44.42017" lon="3.97355">
        <ele>830</ele>
        <time>2019-12-22T12:48:20Z</time>
      </trkpt>
      <trkpt lat="44.42023" lon="3.97376">
        <ele>831</ele>
        <time>2019-12-22T12:48:23Z</time>
      </trkpt>
      <trkpt lat="44.42046" lon="3.97395">
        <ele>834</ele>
        <time>2019-12-22T12:48:28Z</time>
      </trkpt>
      <trkpt lat="44.42069" lon="3.97402">
        <ele>837</ele>
        <time>2019-12-22T12:48:32Z</time>
      </trkpt>
      <trkpt lat="44.4216" lon="3.97442">
        <ele>847</ele>
        <time>2019-12-22T12:48:49Z</time>
      </trkpt>
      <trkpt lat="44.42171" lon="3.97466">
        <ele>844</ele>
        <time>2019-12-22T12:48:52Z</time>
      </trkpt>
      <trkpt lat="44.42178" lon="3.97484">
        <ele>842</ele>
        <time>2019-12-22T12:48:55Z</time>
      </trkpt>
      <trkpt lat="44.42182" lon="3.97513">
        <ele>838</ele>
        <time>2019-12-22T12:48:59Z</time>
      </trkpt>
      <trkpt lat="44.42194" lon="3.97536">
        <ele>838</ele>
        <time>2019-12-22T12:49:02Z</time>
      </trkpt>
      <trkpt lat="44.42216" lon="3.97553">
        <ele>840</ele>
        <time>2019-12-22T12:49:07Z</time>
      </trkpt>
      <trkpt lat="44.42231" lon="3.9756">
        <ele>843</ele>
        <time>2019-12-22T12:49:10Z</time>
      </trkpt>
      <trkpt lat="44.42284" lon="3.97555">
        <ele>853</ele>
        <time>2019-12-22T12:49:19Z</time>
      </trkpt>
      <trkpt lat="44.42307" lon="3.97562">
        <ele>856</ele>
        <time>2019-12-22T12:49:23Z</time>
      </trkpt>
      <trkpt lat="44.42315" lon="3.97571">
        <ele>855</ele>
        <time>2019-12-22T12:49:25Z</time>
      </trkpt>
      <trkpt lat="44.42324" lon="3.97586">
        <ele>853</ele>
        <time>2019-12-22T12:49:28Z</time>
      </trkpt>
      <trkpt lat="44.42331" lon="3.97602">
        <ele>854</ele>
        <time>2019-12-22T12:49:30Z</time>
      </trkpt>
      <trkpt lat="44.42331" lon="3.97614">
        <ele>853</ele>
        <time>2019-12-22T12:49:31Z</time>
      </trkpt>
      <trkpt lat="44.42313" lon="3.97669">
        <ele>843</ele>
        <time>2019-12-22T12:49:39Z</time>
      </trkpt>
      <trkpt lat="44.42307" lon="3.97725">
        <ele>846</ele>
        <time>2019-12-22T12:49:46Z</time>
      </trkpt>
      <trkpt lat="44.42304" lon="3.97733">
        <ele>846</ele>
        <time>2019-12-22T12:49:47Z</time>
      </trkpt>
      <trkpt lat="44.42286" lon="3.97763">
        <ele>841</ele>
        <time>2019-12-22T12:49:52Z</time>
      </trkpt>
      <trkpt lat="44.42275" lon="3.97792">
        <ele>839</ele>
        <time>2019-12-22T12:49:57Z</time>
      </trkpt>
      <trkpt lat="44.42275" lon="3.97807">
        <ele>841</ele>
        <time>2019-12-22T12:49:59Z</time>
      </trkpt>
      <trkpt lat="44.42279" lon="3.9786">
        <ele>849</ele>
        <time>2019-12-22T12:50:05Z</time>
      </trkpt>
      <trkpt lat="44.42278" lon="3.97873">
        <ele>850</ele>
        <time>2019-12-22T12:50:07Z</time>
      </trkpt>
      <trkpt lat="44.42274" lon="3.97889">
        <ele>850</ele>
        <time>2019-12-22T12:50:09Z</time>
      </trkpt>
      <trkpt lat="44.42266" lon="3.97907">
        <ele>849</ele>
        <time>2019-12-22T12:50:12Z</time>
      </trkpt>
      <trkpt lat="44.42253" lon="3.9793">
        <ele>847</ele>
        <time>2019-12-22T12:50:16Z</time>
      </trkpt>
      <trkpt lat="44.42207" lon="3.97989">
        <ele>846</ele>
        <time>2019-12-22T12:50:27Z</time>
      </trkpt>
      <trkpt lat="44.4217" lon="3.98048">
        <ele>847</ele>
        <time>2019-12-22T12:50:37Z</time>
      </trkpt>
      <trkpt lat="44.42145" lon="3.98101">
        <ele>848</ele>
        <time>2019-12-22T12:50:45Z</time>
      </trkpt>
      <trkpt lat="44.42122" lon="3.98156">
        <ele>849</ele>
        <time>2019-12-22T12:50:53Z</time>
      </trkpt>
      <trkpt lat="44.42121" lon="3.98173">
        <ele>850</ele>
        <time>2019-12-22T12:50:55Z</time>
      </trkpt>
      <trkpt lat="44.42123" lon="3.98187">
        <ele>848</ele>
        <time>2019-12-22T12:50:57Z</time>
      </trkpt>
      <trkpt lat="44.42128" lon="3.98197">
        <ele>846</ele>
        <time>2019-12-22T12:50:58Z</time>
      </trkpt>
      <trkpt lat="44.42133" lon="3.98203">
        <ele>846</ele>
        <time>2019-12-22T12:50:59Z</time>
      </trkpt>
      <trkpt lat="44.42142" lon="3.98206">
        <ele>845</ele>
        <time>2019-12-22T12:51:01Z</time>
      </trkpt>
      <trkpt lat="44.42157" lon="3.98204">
        <ele>846</ele>
        <time>2019-12-22T12:51:04Z</time>
      </trkpt>
      <trkpt lat="44.42219" lon="3.98156">
        <ele>850</ele>
        <time>2019-12-22T12:51:16Z</time>
      </trkpt>
      <trkpt lat="44.42298" lon="3.98088">
        <ele>856</ele>
        <time>2019-12-22T12:51:33Z</time>
      </trkpt>
      <trkpt lat="44.42317" lon="3.98084">
        <ele>855</ele>
        <time>2019-12-22T12:51:36Z</time>
      </trkpt>
      <trkpt lat="44.42355" lon="3.98087">
        <ele>851</ele>
        <time>2019-12-22T12:51:43Z</time>
      </trkpt>
      <trkpt lat="44.42368" lon="3.98085">
        <ele>851</ele>
        <time>2019-12-22T12:51:45Z</time>
      </trkpt>
      <trkpt lat="44.42383" lon="3.98081">
        <ele>852</ele>
        <time>2019-12-22T12:51:48Z</time>
      </trkpt>
      <trkpt lat="44.42419" lon="3.9806">
        <ele>856</ele>
        <time>2019-12-22T12:51:55Z</time>
      </trkpt>
      <trkpt lat="44.42448" lon="3.98062">
        <ele>859</ele>
        <time>2019-12-22T12:52:00Z</time>
      </trkpt>
      <trkpt lat="44.4246" lon="3.98059">
        <ele>861</ele>
        <time>2019-12-22T12:52:02Z</time>
      </trkpt>
      <trkpt lat="44.42479" lon="3.98052">
        <ele>864</ele>
        <time>2019-12-22T12:52:06Z</time>
      </trkpt>
      <trkpt lat="44.42492" lon="3.9805">
        <ele>866</ele>
        <time>2019-12-22T12:52:08Z</time>
      </trkpt>
      <trkpt lat="44.42509" lon="3.98053">
        <ele>868</ele>
        <time>2019-12-22T12:52:11Z</time>
      </trkpt>
      <trkpt lat="44.42538" lon="3.98148">
        <ele>851</ele>
        <time>2019-12-22T12:52:24Z</time>
      </trkpt>
      <trkpt lat="44.42552" lon="3.98174">
        <ele>850</ele>
        <time>2019-12-22T12:52:29Z</time>
      </trkpt>
      <trkpt lat="44.42631" lon="3.98254">
        <ele>850</ele>
        <time>2019-12-22T12:52:46Z</time>
      </trkpt>
      <trkpt lat="44.42643" lon="3.98263">
        <ele>849</ele>
        <time>2019-12-22T12:52:48Z</time>
      </trkpt>
      <trkpt lat="44.42652" lon="3.98268">
        <ele>849</ele>
        <time>2019-12-22T12:52:50Z</time>
      </trkpt>
      <trkpt lat="44.42676" lon="3.98262">
        <ele>853</ele>
        <time>2019-12-22T12:52:54Z</time>
      </trkpt>
      <trkpt lat="44.42705" lon="3.98249">
        <ele>858</ele>
        <time>2019-12-22T12:53:00Z</time>
      </trkpt>
      <trkpt lat="44.42731" lon="3.98241">
        <ele>861</ele>
        <time>2019-12-22T12:53:05Z</time>
      </trkpt>
      <trkpt lat="44.42742" lon="3.98244">
        <ele>860</ele>
        <time>2019-12-22T12:53:07Z</time>
      </trkpt>
      <trkpt lat="44.42774" lon="3.98262">
        <ele>860</ele>
        <time>2019-12-22T12:53:13Z</time>
      </trkpt>
      <trkpt lat="44.42787" lon="3.98262">
        <ele>863</ele>
        <time>2019-12-22T12:53:15Z</time>
      </trkpt>
      <trkpt lat="44.42801" lon="3.98257">
        <ele>867</ele>
        <time>2019-12-22T12:53:18Z</time>
      </trkpt>
      <trkpt lat="44.42813" lon="3.98258">
        <ele>869</ele>
        <time>2019-12-22T12:53:20Z</time>
      </trkpt>
      <trkpt lat="44.42822" lon="3.98262">
        <ele>870</ele>
        <time>2019-12-22T12:53:21Z</time>
      </trkpt>
      <trkpt lat="44.42831" lon="3.98278">
        <ele>869</ele>
        <time>2019-12-22T12:53:24Z</time>
      </trkpt>
      <trkpt lat="44.42836" lon="3.98303">
        <ele>866</ele>
        <time>2019-12-22T12:53:27Z</time>
      </trkpt>
      <trkpt lat="44.42837" lon="3.98346">
        <ele>859</ele>
        <time>2019-12-22T12:53:33Z</time>
      </trkpt>
      <trkpt lat="44.42836" lon="3.98379">
        <ele>856</ele>
        <time>2019-12-22T12:53:37Z</time>
      </trkpt>
      <trkpt lat="44.42838" lon="3.984">
        <ele>855</ele>
        <time>2019-12-22T12:53:40Z</time>
      </trkpt>
      <trkpt lat="44.42908" lon="3.9862">
        <ele>854</ele>
        <time>2019-12-22T12:54:10Z</time>
      </trkpt>
      <trkpt lat="44.42929" lon="3.9867">
        <ele>850</ele>
        <time>2019-12-22T12:54:18Z</time>
      </trkpt>
      <trkpt lat="44.42949" lon="3.98731">
        <ele>847</ele>
        <time>2019-12-22T12:54:26Z</time>
      </trkpt>
      <trkpt lat="44.42956" lon="3.98761">
        <ele>845</ele>
        <time>2019-12-22T12:54:30Z</time>
      </trkpt>
      <trkpt lat="44.42959" lon="3.98798">
        <ele>843</ele>
        <time>2019-12-22T12:54:35Z</time>
      </trkpt>
      <trkpt lat="44.42959" lon="3.98823">
        <ele>841</ele>
        <time>2019-12-22T12:54:38Z</time>
      </trkpt>
      <trkpt lat="44.42966" lon="3.98856">
        <ele>842</ele>
        <time>2019-12-22T12:54:42Z</time>
      </trkpt>
      <trkpt lat="44.42976" lon="3.98871">
        <ele>844</ele>
        <time>2019-12-22T12:54:45Z</time>
      </trkpt>
      <trkpt lat="44.42996" lon="3.9889">
        <ele>849</ele>
        <time>2019-12-22T12:54:49Z</time>
      </trkpt>
      <trkpt lat="44.43003" lon="3.98902">
        <ele>849</ele>
        <time>2019-12-22T12:54:51Z</time>
      </trkpt>
      <trkpt lat="44.43009" lon="3.98927">
        <ele>849</ele>
        <time>2019-12-22T12:54:55Z</time>
      </trkpt>
      <trkpt lat="44.43018" lon="3.98999">
        <ele>850</ele>
        <time>2019-12-22T12:55:04Z</time>
      </trkpt>
      <trkpt lat="44.43104" lon="3.99282">
        <ele>853</ele>
        <time>2019-12-22T12:55:43Z</time>
      </trkpt>
      <trkpt lat="44.43125" lon="3.99378">
        <ele>850</ele>
        <time>2019-12-22T12:55:56Z</time>
      </trkpt>
      <trkpt lat="44.43156" lon="3.99539">
        <ele>850</ele>
        <time>2019-12-22T12:56:17Z</time>
      </trkpt>
      <trkpt lat="44.43162" lon="3.99558">
        <ele>849</ele>
        <time>2019-12-22T12:56:20Z</time>
      </trkpt>
      <trkpt lat="44.43184" lon="3.99602">
        <ele>845</ele>
        <time>2019-12-22T12:56:26Z</time>
      </trkpt>
      <trkpt lat="44.43186" lon="3.99613">
        <ele>843</ele>
        <time>2019-12-22T12:56:28Z</time>
      </trkpt>
      <trkpt lat="44.43186" lon="3.99628">
        <ele>842</ele>
        <time>2019-12-22T12:56:30Z</time>
      </trkpt>
      <trkpt lat="44.43183" lon="3.99637">
        <ele>841</ele>
        <time>2019-12-22T12:56:31Z</time>
      </trkpt>
      <trkpt lat="44.43172" lon="3.99653">
        <ele>840</ele>
        <time>2019-12-22T12:56:34Z</time>
      </trkpt>
      <trkpt lat="44.43142" lon="3.99667">
        <ele>847</ele>
        <time>2019-12-22T12:56:39Z</time>
      </trkpt>
      <trkpt lat="44.43123" lon="3.99682">
        <ele>849</ele>
        <time>2019-12-22T12:56:43Z</time>
      </trkpt>
      <trkpt lat="44.43074" lon="3.99747">
        <ele>847</ele>
        <time>2019-12-22T12:56:55Z</time>
      </trkpt>
      <trkpt lat="44.43066" lon="3.99755">
        <ele>848</ele>
        <time>2019-12-22T12:56:57Z</time>
      </trkpt>
      <trkpt lat="44.43056" lon="3.99762">
        <ele>850</ele>
        <time>2019-12-22T12:56:59Z</time>
      </trkpt>
      <trkpt lat="44.43041" lon="3.99766">
        <ele>856</ele>
        <time>2019-12-22T12:57:02Z</time>
      </trkpt>
      <trkpt lat="44.43032" lon="3.99773">
        <ele>858</ele>
        <time>2019-12-22T12:57:04Z</time>
      </trkpt>
      <trkpt lat="44.43022" lon="3.99782">
        <ele>860</ele>
        <time>2019-12-22T12:57:06Z</time>
      </trkpt>
      <trkpt lat="44.43014" lon="3.99795">
        <ele>861</ele>
        <time>2019-12-22T12:57:08Z</time>
      </trkpt>
      <trkpt lat="44.43001" lon="3.99906">
        <ele>848</ele>
        <time>2019-12-22T12:57:22Z</time>
      </trkpt>
      <trkpt lat="44.42976" lon="3.99959">
        <ele>847</ele>
        <time>2019-12-22T12:57:30Z</time>
      </trkpt>
      <trkpt lat="44.42973" lon="4.00003">
        <ele>842</ele>
        <time>2019-12-22T12:57:36Z</time>
      </trkpt>
      <trkpt lat="44.42951" lon="4.00048">
        <ele>841</ele>
        <time>2019-12-22T12:57:43Z</time>
      </trkpt>
      <trkpt lat="44.42927" lon="4.00107">
        <ele>840</ele>
        <time>2019-12-22T12:57:51Z</time>
      </trkpt>
      <trkpt lat="44.42902" lon="4.00147">
        <ele>841</ele>
        <time>2019-12-22T12:57:58Z</time>
      </trkpt>
      <trkpt lat="44.42898" lon="4.00157">
        <ele>840</ele>
        <time>2019-12-22T12:58:00Z</time>
      </trkpt>
      <trkpt lat="44.42897" lon="4.0018">
        <ele>838</ele>
        <time>2019-12-22T12:58:03Z</time>
      </trkpt>
      <trkpt lat="44.42893" lon="4.00417">
        <ele>841</ele>
        <time>2019-12-22T12:58:33Z</time>
      </trkpt>
      <trkpt lat="44.42906" lon="4.00485">
        <ele>837</ele>
        <time>2019-12-22T12:58:42Z</time>
      </trkpt>
      <trkpt lat="44.42907" lon="4.00505">
        <ele>836</ele>
        <time>2019-12-22T12:58:44Z</time>
      </trkpt>
      <trkpt lat="44.429" lon="4.00533">
        <ele>836</ele>
        <time>2019-12-22T12:58:48Z</time>
      </trkpt>
      <trkpt lat="44.4287" lon="4.00607">
        <ele>840</ele>
        <time>2019-12-22T12:58:59Z</time>
      </trkpt>
      <trkpt lat="44.42844" lon="4.00754">
        <ele>839</ele>
        <time>2019-12-22T12:59:18Z</time>
      </trkpt>
      <trkpt lat="44.42841" lon="4.00866">
        <ele>833</ele>
        <time>2019-12-22T12:59:32Z</time>
      </trkpt>
      <trkpt lat="44.42844" lon="4.00933">
        <ele>830</ele>
        <time>2019-12-22T12:59:41Z</time>
      </trkpt>
      <trkpt lat="44.42866" lon="4.01023">
        <ele>826</ele>
        <time>2019-12-22T12:59:53Z</time>
      </trkpt>
      <trkpt lat="44.42882" lon="4.01115">
        <ele>826</ele>
        <time>2019-12-22T13:00:05Z</time>
      </trkpt>
      <trkpt lat="44.42884" lon="4.01147">
        <ele>827</ele>
        <time>2019-12-22T13:00:09Z</time>
      </trkpt>
      <trkpt lat="44.42886" lon="4.01267">
        <ele>831</ele>
        <time>2019-12-22T13:00:24Z</time>
      </trkpt>
      <trkpt lat="44.42911" lon="4.01355">
        <ele>828</ele>
        <time>2019-12-22T13:00:36Z</time>
      </trkpt>
      <trkpt lat="44.42926" lon="4.01392">
        <ele>826</ele>
        <time>2019-12-22T13:00:42Z</time>
      </trkpt>
      <trkpt lat="44.42942" lon="4.01444">
        <ele>826</ele>
        <time>2019-12-22T13:00:49Z</time>
      </trkpt>
      <trkpt lat="44.42982" lon="4.01515">
        <ele>820</ele>
        <time>2019-12-22T13:01:00Z</time>
      </trkpt>
      <trkpt lat="44.42997" lon="4.01528">
        <ele>816</ele>
        <time>2019-12-22T13:01:04Z</time>
      </trkpt>
      <trkpt lat="44.43012" lon="4.01533">
        <ele>812</ele>
        <time>2019-12-22T13:01:06Z</time>
      </trkpt>
      <trkpt lat="44.43027" lon="4.01533">
        <ele>809</ele>
        <time>2019-12-22T13:01:09Z</time>
      </trkpt>
      <trkpt lat="44.43043" lon="4.01537">
        <ele>806</ele>
        <time>2019-12-22T13:01:12Z</time>
      </trkpt>
      <trkpt lat="44.43057" lon="4.01545">
        <ele>803</ele>
        <time>2019-12-22T13:01:15Z</time>
      </trkpt>
      <trkpt lat="44.43055" lon="4.01565">
        <ele>807</ele>
        <time>2019-12-22T13:01:17Z</time>
      </trkpt>
      <trkpt lat="44.4305" lon="4.0159">
        <ele>810</ele>
        <time>2019-12-22T13:01:20Z</time>
      </trkpt>
      <trkpt lat="44.43033" lon="4.0161">
        <ele>812</ele>
        <time>2019-12-22T13:01:24Z</time>
      </trkpt>
      <trkpt lat="44.43005" lon="4.01628">
        <ele>817</ele>
        <time>2019-12-22T13:01:30Z</time>
      </trkpt>
      <trkpt lat="44.42985" lon="4.01647">
        <ele>821</ele>
        <time>2019-12-22T13:01:34Z</time>
      </trkpt>
      <trkpt lat="44.42961" lon="4.01676">
        <ele>826</ele>
        <time>2019-12-22T13:01:40Z</time>
      </trkpt>
      <trkpt lat="44.4295" lon="4.01694">
        <ele>829</ele>
        <time>2019-12-22T13:01:43Z</time>
      </trkpt>
      <trkpt lat="44.42942" lon="4.01712">
        <ele>830</ele>
        <time>2019-12-22T13:01:45Z</time>
      </trkpt>
      <trkpt lat="44.42935" lon="4.01742">
        <ele>830</ele>
        <time>2019-12-22T13:01:50Z</time>
      </trkpt>
      <trkpt lat="44.42933" lon="4.01773">
        <ele>830</ele>
        <time>2019-12-22T13:01:53Z</time>
      </trkpt>
      <trkpt lat="44.42937" lon="4.018">
        <ele>830</ele>
        <time>2019-12-22T13:01:57Z</time>
      </trkpt>
      <trkpt lat="44.42944" lon="4.01817">
        <ele>829</ele>
        <time>2019-12-22T13:01:59Z</time>
      </trkpt>
      <trkpt lat="44.42971" lon="4.01866">
        <ele>828</ele>
        <time>2019-12-22T13:02:07Z</time>
      </trkpt>
      <trkpt lat="44.42998" lon="4.01918">
        <ele>827</ele>
        <time>2019-12-22T13:02:15Z</time>
      </trkpt>
      <trkpt lat="44.42998" lon="4.01942">
        <ele>827</ele>
        <time>2019-12-22T13:02:19Z</time>
      </trkpt>
      <trkpt lat="44.42993" lon="4.01959">
        <ele>827</ele>
        <time>2019-12-22T13:02:21Z</time>
      </trkpt>
      <trkpt lat="44.42979" lon="4.01975">
        <ele>831</ele>
        <time>2019-12-22T13:02:24Z</time>
      </trkpt>
      <trkpt lat="44.42948" lon="4.01998">
        <ele>839</ele>
        <time>2019-12-22T13:02:30Z</time>
      </trkpt>
      <trkpt lat="44.4294" lon="4.02014">
        <ele>840</ele>
        <time>2019-12-22T13:02:33Z</time>
      </trkpt>
      <trkpt lat="44.42929" lon="4.02061">
        <ele>838</ele>
        <time>2019-12-22T13:02:39Z</time>
      </trkpt>
      <trkpt lat="44.42916" lon="4.021">
        <ele>839</ele>
        <time>2019-12-22T13:02:45Z</time>
      </trkpt>
      <trkpt lat="44.42884" lon="4.02161">
        <ele>844</ele>
        <time>2019-12-22T13:02:54Z</time>
      </trkpt>
      <trkpt lat="44.42821" lon="4.0223">
        <ele>849</ele>
        <time>2019-12-22T13:03:08Z</time>
      </trkpt>
      <trkpt lat="44.42789" lon="4.02269">
        <ele>849</ele>
        <time>2019-12-22T13:03:16Z</time>
      </trkpt>
      <trkpt lat="44.42771" lon="4.02281">
        <ele>850</ele>
        <time>2019-12-22T13:03:20Z</time>
      </trkpt>
      <trkpt lat="44.4267" lon="4.02327">
        <ele>857</ele>
        <time>2019-12-22T13:03:38Z</time>
      </trkpt>
      <trkpt lat="44.42658" lon="4.02325">
        <ele>858</ele>
        <time>2019-12-22T13:03:41Z</time>
      </trkpt>
      <trkpt lat="44.42614" lon="4.02291">
        <ele>855</ele>
        <time>2019-12-22T13:03:50Z</time>
      </trkpt>
      <trkpt lat="44.42596" lon="4.02285">
        <ele>853</ele>
        <time>2019-12-22T13:03:53Z</time>
      </trkpt>
      <trkpt lat="44.42586" lon="4.02288">
        <ele>853</ele>
        <time>2019-12-22T13:03:55Z</time>
      </trkpt>
      <trkpt lat="44.42476" lon="4.02334">
        <ele>854</ele>
        <time>2019-12-22T13:04:15Z</time>
      </trkpt>
      <trkpt lat="44.4244" lon="4.02345">
        <ele>854</ele>
        <time>2019-12-22T13:04:22Z</time>
      </trkpt>
      <trkpt lat="44.42415" lon="4.02351">
        <ele>854</ele>
        <time>2019-12-22T13:04:26Z</time>
      </trkpt>
      <trkpt lat="44.42384" lon="4.02353">
        <ele>854</ele>
        <time>2019-12-22T13:04:32Z</time>
      </trkpt>
      <trkpt lat="44.4236" lon="4.02361">
        <ele>857</ele>
        <time>2019-12-22T13:04:36Z</time>
      </trkpt>
      <trkpt lat="44.42336" lon="4.02361">
        <ele>857</ele>
        <time>2019-12-22T13:04:40Z</time>
      </trkpt>
      <trkpt lat="44.4231" lon="4.02353">
        <ele>858</ele>
        <time>2019-12-22T13:04:45Z</time>
      </trkpt>
      <trkpt lat="44.42293" lon="4.02344">
        <ele>859</ele>
        <time>2019-12-22T13:04:48Z</time>
      </trkpt>
      <trkpt lat="44.42247" lon="4.02274">
        <ele>849</ele>
        <time>2019-12-22T13:05:00Z</time>
      </trkpt>
      <trkpt lat="44.42218" lon="4.02256">
        <ele>846</ele>
        <time>2019-12-22T13:05:06Z</time>
      </trkpt>
      <trkpt lat="44.42199" lon="4.02258">
        <ele>848</ele>
        <time>2019-12-22T13:05:09Z</time>
      </trkpt>
      <trkpt lat="44.42143" lon="4.02275">
        <ele>855</ele>
        <time>2019-12-22T13:05:20Z</time>
      </trkpt>
      <trkpt lat="44.4212" lon="4.02274">
        <ele>855</ele>
        <time>2019-12-22T13:05:24Z</time>
      </trkpt>
      <trkpt lat="44.42033" lon="4.02257">
        <ele>854</ele>
        <time>2019-12-22T13:05:39Z</time>
      </trkpt>
      <trkpt lat="44.42012" lon="4.02248">
        <ele>853</ele>
        <time>2019-12-22T13:05:43Z</time>
      </trkpt>
      <trkpt lat="44.42" lon="4.02238">
        <ele>852</ele>
        <time>2019-12-22T13:05:46Z</time>
      </trkpt>
      <trkpt lat="44.41943" lon="4.02178">
        <ele>845</ele>
        <time>2019-12-22T13:05:58Z</time>
      </trkpt>
      <trkpt lat="44.41933" lon="4.02171">
        <ele>845</ele>
        <time>2019-12-22T13:06:00Z</time>
      </trkpt>
      <trkpt lat="44.41882" lon="4.02151">
        <ele>846</ele>
        <time>2019-12-22T13:06:10Z</time>
      </trkpt>
      <trkpt lat="44.41838" lon="4.02127">
        <ele>845</ele>
        <time>2019-12-22T13:06:18Z</time>
      </trkpt>
      <trkpt lat="44.41799" lon="4.02109">
        <ele>839</ele>
        <time>2019-12-22T13:06:26Z</time>
      </trkpt>
      <trkpt lat="44.41783" lon="4.02108">
        <ele>838</ele>
        <time>2019-12-22T13:06:28Z</time>
      </trkpt>
      <trkpt lat="44.41693" lon="4.02158">
        <ele>842</ele>
        <time>2019-12-22T13:06:46Z</time>
      </trkpt>
      <trkpt lat="44.41664" lon="4.02169">
        <ele>842</ele>
        <time>2019-12-22T13:06:51Z</time>
      </trkpt>
      <trkpt lat="44.41626" lon="4.02173">
        <ele>838</ele>
        <time>2019-12-22T13:06:58Z</time>
      </trkpt>
      <trkpt lat="44.41612" lon="4.02178">
        <ele>838</ele>
        <time>2019-12-22T13:07:00Z</time>
      </trkpt>
      <trkpt lat="44.41602" lon="4.02187">
        <ele>837</ele>
        <time>2019-12-22T13:07:02Z</time>
      </trkpt>
      <trkpt lat="44.4157" lon="4.02229">
        <ele>840</ele>
        <time>2019-12-22T13:07:10Z</time>
      </trkpt>
      <trkpt lat="44.41559" lon="4.02237">
        <ele>842</ele>
        <time>2019-12-22T13:07:12Z</time>
      </trkpt>
      <trkpt lat="44.41557" lon="4.02243">
        <ele>842</ele>
        <time>2019-12-22T13:07:13Z</time>
      </trkpt>
      <trkpt lat="44.4153" lon="4.02273">
        <ele>843</ele>
        <time>2019-12-22T13:07:19Z</time>
      </trkpt>
      <trkpt lat="44.41523" lon="4.02288">
        <ele>843</ele>
        <time>2019-12-22T13:07:22Z</time>
      </trkpt>
      <trkpt lat="44.41507" lon="4.02347">
        <ele>841</ele>
        <time>2019-12-22T13:07:30Z</time>
      </trkpt>
      <trkpt lat="44.41496" lon="4.02427">
        <ele>836</ele>
        <time>2019-12-22T13:07:40Z</time>
      </trkpt>
      <trkpt lat="44.41478" lon="4.02478">
        <ele>832</ele>
        <time>2019-12-22T13:07:47Z</time>
      </trkpt>
      <trkpt lat="44.41424" lon="4.02548">
        <ele>828</ele>
        <time>2019-12-22T13:08:00Z</time>
      </trkpt>
      <trkpt lat="44.41376" lon="4.02585">
        <ele>819</ele>
        <time>2019-12-22T13:08:10Z</time>
      </trkpt>
      <trkpt lat="44.41356" lon="4.02587">
        <ele>817</ele>
        <time>2019-12-22T13:08:14Z</time>
      </trkpt>
      <trkpt lat="44.4134" lon="4.02593">
        <ele>815</ele>
        <time>2019-12-22T13:08:17Z</time>
      </trkpt>
      <trkpt lat="44.4135" lon="4.02598">
        <ele>814</ele>
        <time>2019-12-22T13:08:19Z</time>
      </trkpt>
      <trkpt lat="44.41427" lon="4.02587">
        <ele>817</ele>
        <time>2019-12-22T13:08:32Z</time>
      </trkpt>
      <trkpt lat="44.41535" lon="4.02533">
        <ele>817</ele>
        <time>2019-12-22T13:08:53Z</time>
      </trkpt>
      <trkpt lat="44.41553" lon="4.02512">
        <ele>821</ele>
        <time>2019-12-22T13:08:57Z</time>
      </trkpt>
      <trkpt lat="44.41561" lon="4.02519">
        <ele>819</ele>
        <time>2019-12-22T13:08:59Z</time>
      </trkpt>
      <trkpt lat="44.41587" lon="4.02598">
        <ele>812</ele>
        <time>2019-12-22T13:09:10Z</time>
      </trkpt>
      <trkpt lat="44.41587" lon="4.02608">
        <ele>812</ele>
        <time>2019-12-22T13:09:11Z</time>
      </trkpt>
      <trkpt lat="44.41582" lon="4.02616">
        <ele>811</ele>
        <time>2019-12-22T13:09:12Z</time>
      </trkpt>
      <trkpt lat="44.41522" lon="4.02618">
        <ele>806</ele>
        <time>2019-12-22T13:09:23Z</time>
      </trkpt>
      <trkpt lat="44.41468" lon="4.02668">
        <ele>798</ele>
        <time>2019-12-22T13:09:34Z</time>
      </trkpt>
      <trkpt lat="44.41456" lon="4.02669">
        <ele>797</ele>
        <time>2019-12-22T13:09:37Z</time>
      </trkpt>
      <trkpt lat="44.41444" lon="4.02676">
        <ele>796</ele>
        <time>2019-12-22T13:09:39Z</time>
      </trkpt>
      <trkpt lat="44.41411" lon="4.027">
        <ele>793</ele>
        <time>2019-12-22T13:09:45Z</time>
      </trkpt>
      <trkpt lat="44.41359" lon="4.02752">
        <ele>780</ele>
        <time>2019-12-22T13:09:57Z</time>
      </trkpt>
      <trkpt lat="44.41344" lon="4.02777">
        <ele>776</ele>
        <time>2019-12-22T13:10:01Z</time>
      </trkpt>
      <trkpt lat="44.41325" lon="4.02849">
        <ele>771</ele>
        <time>2019-12-22T13:10:11Z</time>
      </trkpt>
      <trkpt lat="44.41324" lon="4.02889">
        <ele>770</ele>
        <time>2019-12-22T13:10:16Z</time>
      </trkpt>
      <trkpt lat="44.41306" lon="4.02952">
        <ele>766</ele>
        <time>2019-12-22T13:10:24Z</time>
      </trkpt>
      <trkpt lat="44.41266" lon="4.03122">
        <ele>748</ele>
        <time>2019-12-22T13:10:47Z</time>
      </trkpt>
      <trkpt lat="44.41279" lon="4.032">
        <ele>747</ele>
        <time>2019-12-22T13:10:57Z</time>
      </trkpt>
      <trkpt lat="44.41281" lon="4.03251">
        <ele>742</ele>
        <time>2019-12-22T13:11:04Z</time>
      </trkpt>
      <trkpt lat="44.4129" lon="4.03278">
        <ele>743</ele>
        <time>2019-12-22T13:11:08Z</time>
      </trkpt>
      <trkpt lat="44.41304" lon="4.03312">
        <ele>743</ele>
        <time>2019-12-22T13:11:13Z</time>
      </trkpt>
      <trkpt lat="44.41326" lon="4.03332">
        <ele>746</ele>
        <time>2019-12-22T13:11:17Z</time>
      </trkpt>
      <trkpt lat="44.41327" lon="4.03346">
        <ele>748</ele>
        <time>2019-12-22T13:11:19Z</time>
      </trkpt>
      <trkpt lat="44.4132" lon="4.03356">
        <ele>747</ele>
        <time>2019-12-22T13:11:21Z</time>
      </trkpt>
      <trkpt lat="44.41292" lon="4.03357">
        <ele>741</ele>
        <time>2019-12-22T13:11:26Z</time>
      </trkpt>
      <trkpt lat="44.41259" lon="4.03361">
        <ele>734</ele>
        <time>2019-12-22T13:11:32Z</time>
      </trkpt>
      <trkpt lat="44.41227" lon="4.0337">
        <ele>732</ele>
        <time>2019-12-22T13:11:38Z</time>
      </trkpt>
      <trkpt lat="44.41202" lon="4.03388">
        <ele>730</ele>
        <time>2019-12-22T13:11:43Z</time>
      </trkpt>
      <trkpt lat="44.41184" lon="4.03403">
        <ele>727</ele>
        <time>2019-12-22T13:11:46Z</time>
      </trkpt>
      <trkpt lat="44.4113" lon="4.03472">
        <ele>723</ele>
        <time>2019-12-22T13:11:59Z</time>
      </trkpt>
      <trkpt lat="44.41124" lon="4.03486">
        <ele>722</ele>
        <time>2019-12-22T13:12:01Z</time>
      </trkpt>
      <trkpt lat="44.41124" lon="4.03511">
        <ele>722</ele>
        <time>2019-12-22T13:12:05Z</time>
      </trkpt>
      <trkpt lat="44.41141" lon="4.03593">
        <ele>725</ele>
        <time>2019-12-22T13:12:15Z</time>
      </trkpt>
      <trkpt lat="44.41147" lon="4.03634">
        <ele>724</ele>
        <time>2019-12-22T13:12:21Z</time>
      </trkpt>
      <trkpt lat="44.4115" lon="4.0368">
        <ele>722</ele>
        <time>2019-12-22T13:12:27Z</time>
      </trkpt>
      <trkpt lat="44.41145" lon="4.03709">
        <ele>721</ele>
        <time>2019-12-22T13:12:30Z</time>
      </trkpt>
      <trkpt lat="44.41111" lon="4.03771">
        <ele>713</ele>
        <time>2019-12-22T13:12:40Z</time>
      </trkpt>
      <trkpt lat="44.41104" lon="4.03789">
        <ele>712</ele>
        <time>2019-12-22T13:12:43Z</time>
      </trkpt>
      <trkpt lat="44.41096" lon="4.03872">
        <ele>706</ele>
        <time>2019-12-22T13:12:54Z</time>
      </trkpt>
      <trkpt lat="44.41086" lon="4.039">
        <ele>701</ele>
        <time>2019-12-22T13:12:58Z</time>
      </trkpt>
      <trkpt lat="44.41072" lon="4.03924">
        <ele>698</ele>
        <time>2019-12-22T13:13:02Z</time>
      </trkpt>
      <trkpt lat="44.41072" lon="4.0394">
        <ele>698</ele>
        <time>2019-12-22T13:13:04Z</time>
      </trkpt>
      <trkpt lat="44.41094" lon="4.03984">
        <ele>703</ele>
        <time>2019-12-22T13:13:10Z</time>
      </trkpt>
      <trkpt lat="44.41095" lon="4.03994">
        <ele>703</ele>
        <time>2019-12-22T13:13:12Z</time>
      </trkpt>
      <trkpt lat="44.41091" lon="4.04002">
        <ele>702</ele>
        <time>2019-12-22T13:13:13Z</time>
      </trkpt>
      <trkpt lat="44.41064" lon="4.04003">
        <ele>697</ele>
        <time>2019-12-22T13:13:18Z</time>
      </trkpt>
      <trkpt lat="44.41034" lon="4.0402">
        <ele>693</ele>
        <time>2019-12-22T13:13:23Z</time>
      </trkpt>
      <trkpt lat="44.41016" lon="4.04036">
        <ele>690</ele>
        <time>2019-12-22T13:13:27Z</time>
      </trkpt>
      <trkpt lat="44.41007" lon="4.04051">
        <ele>688</ele>
        <time>2019-12-22T13:13:30Z</time>
      </trkpt>
      <trkpt lat="44.40991" lon="4.04157">
        <ele>691</ele>
        <time>2019-12-22T13:13:44Z</time>
      </trkpt>
      <trkpt lat="44.40984" lon="4.04181">
        <ele>692</ele>
        <time>2019-12-22T13:13:47Z</time>
      </trkpt>
      <trkpt lat="44.40974" lon="4.04206">
        <ele>691</ele>
        <time>2019-12-22T13:13:50Z</time>
      </trkpt>
      <trkpt lat="44.40966" lon="4.0423">
        <ele>690</ele>
        <time>2019-12-22T13:13:54Z</time>
      </trkpt>
      <trkpt lat="44.40961" lon="4.04258">
        <ele>690</ele>
        <time>2019-12-22T13:13:57Z</time>
      </trkpt>
      <trkpt lat="44.40948" lon="4.04281">
        <ele>688</ele>
        <time>2019-12-22T13:14:01Z</time>
      </trkpt>
      <trkpt lat="44.40942" lon="4.04303">
        <ele>689</ele>
        <time>2019-12-22T13:14:04Z</time>
      </trkpt>
      <trkpt lat="44.40942" lon="4.04347">
        <ele>696</ele>
        <time>2019-12-22T13:14:10Z</time>
      </trkpt>
      <trkpt lat="44.4094" lon="4.04353">
        <ele>696</ele>
        <time>2019-12-22T13:14:11Z</time>
      </trkpt>
      <trkpt lat="44.40931" lon="4.0436">
        <ele>695</ele>
        <time>2019-12-22T13:14:12Z</time>
      </trkpt>
      <trkpt lat="44.4091" lon="4.04358">
        <ele>688</ele>
        <time>2019-12-22T13:14:16Z</time>
      </trkpt>
      <trkpt lat="44.4089" lon="4.04362">
        <ele>684</ele>
        <time>2019-12-22T13:14:20Z</time>
      </trkpt>
      <trkpt lat="44.40868" lon="4.04375">
        <ele>684</ele>
        <time>2019-12-22T13:14:24Z</time>
      </trkpt>
      <trkpt lat="44.40837" lon="4.04388">
        <ele>683</ele>
        <time>2019-12-22T13:14:30Z</time>
      </trkpt>
      <trkpt lat="44.40824" lon="4.04403">
        <ele>686</ele>
        <time>2019-12-22T13:14:33Z</time>
      </trkpt>
      <trkpt lat="44.40815" lon="4.04409">
        <ele>688</ele>
        <time>2019-12-22T13:14:35Z</time>
      </trkpt>
      <trkpt lat="44.40804" lon="4.0441">
        <ele>687</ele>
        <time>2019-12-22T13:14:37Z</time>
      </trkpt>
      <trkpt lat="44.40784" lon="4.04403">
        <ele>682</ele>
        <time>2019-12-22T13:14:40Z</time>
      </trkpt>
      <trkpt lat="44.4075" lon="4.04404">
        <ele>679</ele>
        <time>2019-12-22T13:14:46Z</time>
      </trkpt>
      <trkpt lat="44.40689" lon="4.04397">
        <ele>678</ele>
        <time>2019-12-22T13:14:57Z</time>
      </trkpt>
      <trkpt lat="44.4061" lon="4.04385">
        <ele>672</ele>
        <time>2019-12-22T13:15:11Z</time>
      </trkpt>
      <trkpt lat="44.40589" lon="4.04389">
        <ele>672</ele>
        <time>2019-12-22T13:15:15Z</time>
      </trkpt>
      <trkpt lat="44.40569" lon="4.04401">
        <ele>673</ele>
        <time>2019-12-22T13:15:19Z</time>
      </trkpt>
      <trkpt lat="44.40535" lon="4.04413">
        <ele>671</ele>
        <time>2019-12-22T13:15:25Z</time>
      </trkpt>
      <trkpt lat="44.40475" lon="4.04452">
        <ele>670</ele>
        <time>2019-12-22T13:15:37Z</time>
      </trkpt>
      <trkpt lat="44.40446" lon="4.04479">
        <ele>670</ele>
        <time>2019-12-22T13:15:43Z</time>
      </trkpt>
      <trkpt lat="44.40422" lon="4.04495">
        <ele>668</ele>
        <time>2019-12-22T13:15:48Z</time>
      </trkpt>
      <trkpt lat="44.40384" lon="4.04537">
        <ele>669</ele>
        <time>2019-12-22T13:15:56Z</time>
      </trkpt>
      <trkpt lat="44.40313" lon="4.04607">
        <ele>669</ele>
        <time>2019-12-22T13:16:12Z</time>
      </trkpt>
      <trkpt lat="44.40255" lon="4.0468">
        <ele>674</ele>
        <time>2019-12-22T13:16:26Z</time>
      </trkpt>
      <trkpt lat="44.40241" lon="4.04705">
        <ele>676</ele>
        <time>2019-12-22T13:16:30Z</time>
      </trkpt>
      <trkpt lat="44.40228" lon="4.04734">
        <ele>680</ele>
        <time>2019-12-22T13:16:34Z</time>
      </trkpt>
      <trkpt lat="44.40211" lon="4.04763">
        <ele>682</ele>
        <time>2019-12-22T13:16:39Z</time>
      </trkpt>
      <trkpt lat="44.40187" lon="4.04785">
        <ele>679</ele>
        <time>2019-12-22T13:16:44Z</time>
      </trkpt>
      <trkpt lat="44.40168" lon="4.04812">
        <ele>679</ele>
        <time>2019-12-22T13:16:49Z</time>
      </trkpt>
      <trkpt lat="44.40122" lon="4.04846">
        <ele>670</ele>
        <time>2019-12-22T13:16:58Z</time>
      </trkpt>
      <trkpt lat="44.40106" lon="4.0487">
        <ele>672</ele>
        <time>2019-12-22T13:17:02Z</time>
      </trkpt>
      <trkpt lat="44.40092" lon="4.04913">
        <ele>681</ele>
        <time>2019-12-22T13:17:08Z</time>
      </trkpt>
      <trkpt lat="44.40079" lon="4.04928">
        <ele>682</ele>
        <time>2019-12-22T13:17:11Z</time>
      </trkpt>
      <trkpt lat="44.40053" lon="4.04932">
        <ele>676</ele>
        <time>2019-12-22T13:17:16Z</time>
      </trkpt>
      <trkpt lat="44.40026" lon="4.04928">
        <ele>667</ele>
        <time>2019-12-22T13:17:21Z</time>
      </trkpt>
      <trkpt lat="44.39956" lon="4.0497">
        <ele>664</ele>
        <time>2019-12-22T13:17:34Z</time>
      </trkpt>
      <trkpt lat="44.39887" lon="4.04991">
        <ele>651</ele>
        <time>2019-12-22T13:17:47Z</time>
      </trkpt>
      <trkpt lat="44.39871" lon="4.05003">
        <ele>648</ele>
        <time>2019-12-22T13:17:50Z</time>
      </trkpt>
      <trkpt lat="44.39843" lon="4.05031">
        <ele>642</ele>
        <time>2019-12-22T13:17:56Z</time>
      </trkpt>
      <trkpt lat="44.39836" lon="4.05043">
        <ele>640</ele>
        <time>2019-12-22T13:17:58Z</time>
      </trkpt>
      <trkpt lat="44.39831" lon="4.0507">
        <ele>642</ele>
        <time>2019-12-22T13:18:02Z</time>
      </trkpt>
      <trkpt lat="44.3983" lon="4.05126">
        <ele>644</ele>
        <time>2019-12-22T13:18:09Z</time>
      </trkpt>
      <trkpt lat="44.39827" lon="4.05152">
        <ele>644</ele>
        <time>2019-12-22T13:18:12Z</time>
      </trkpt>
      <trkpt lat="44.39815" lon="4.05178">
        <ele>637</ele>
        <time>2019-12-22T13:18:16Z</time>
      </trkpt>
      <trkpt lat="44.39811" lon="4.05197">
        <ele>636</ele>
        <time>2019-12-22T13:18:19Z</time>
      </trkpt>
      <trkpt lat="44.39819" lon="4.05248">
        <ele>642</ele>
        <time>2019-12-22T13:18:25Z</time>
      </trkpt>
      <trkpt lat="44.39811" lon="4.05279">
        <ele>641</ele>
        <time>2019-12-22T13:18:30Z</time>
      </trkpt>
      <trkpt lat="44.39795" lon="4.05308">
        <ele>635</ele>
        <time>2019-12-22T13:18:34Z</time>
      </trkpt>
      <trkpt lat="44.39768" lon="4.05338">
        <ele>626</ele>
        <time>2019-12-22T13:18:40Z</time>
      </trkpt>
      <trkpt lat="44.39758" lon="4.0536">
        <ele>627</ele>
        <time>2019-12-22T13:18:44Z</time>
      </trkpt>
      <trkpt lat="44.39742" lon="4.05404">
        <ele>632</ele>
        <time>2019-12-22T13:18:50Z</time>
      </trkpt>
      <trkpt lat="44.39731" lon="4.0542">
        <ele>632</ele>
        <time>2019-12-22T13:18:53Z</time>
      </trkpt>
      <trkpt lat="44.39714" lon="4.05437">
        <ele>631</ele>
        <time>2019-12-22T13:18:56Z</time>
      </trkpt>
      <trkpt lat="44.39676" lon="4.05448">
        <ele>621</ele>
        <time>2019-12-22T13:19:03Z</time>
      </trkpt>
      <trkpt lat="44.39659" lon="4.0546">
        <ele>619</ele>
        <time>2019-12-22T13:19:07Z</time>
      </trkpt>
      <trkpt lat="44.39676" lon="4.05448">
        <ele>621</ele>
        <time>2019-12-22T13:19:10Z</time>
      </trkpt>
      <trkpt lat="44.39635" lon="4.0546">
        <ele>610</ele>
        <time>2019-12-22T13:19:18Z</time>
      </trkpt>
      <trkpt lat="44.39615" lon="4.05476">
        <ele>607</ele>
        <time>2019-12-22T13:19:22Z</time>
      </trkpt>
      <trkpt lat="44.396" lon="4.05494">
        <ele>607</ele>
        <time>2019-12-22T13:19:25Z</time>
      </trkpt>
      <trkpt lat="44.39582" lon="4.0552">
        <ele>602</ele>
        <time>2019-12-22T13:19:30Z</time>
      </trkpt>
      <trkpt lat="44.39576" lon="4.05541">
        <ele>599</ele>
        <time>2019-12-22T13:19:33Z</time>
      </trkpt>
      <trkpt lat="44.39581" lon="4.05558">
        <ele>602</ele>
        <time>2019-12-22T13:19:35Z</time>
      </trkpt>
      <trkpt lat="44.396" lon="4.05604">
        <ele>607</ele>
        <time>2019-12-22T13:19:42Z</time>
      </trkpt>
      <trkpt lat="44.39608" lon="4.05632">
        <ele>605</ele>
        <time>2019-12-22T13:19:46Z</time>
      </trkpt>
      <trkpt lat="44.39637" lon="4.05699">
        <ele>608</ele>
        <time>2019-12-22T13:19:56Z</time>
      </trkpt>
      <trkpt lat="44.39638" lon="4.05719">
        <ele>605</ele>
        <time>2019-12-22T13:19:58Z</time>
      </trkpt>
      <trkpt lat="44.39636" lon="4.0576">
        <ele>597</ele>
        <time>2019-12-22T13:20:03Z</time>
      </trkpt>
      <trkpt lat="44.39642" lon="4.058">
        <ele>597</ele>
        <time>2019-12-22T13:20:09Z</time>
      </trkpt>
      <trkpt lat="44.3964" lon="4.05851">
        <ele>592</ele>
        <time>2019-12-22T13:20:15Z</time>
      </trkpt>
      <trkpt lat="44.3964" lon="4.05894">
        <ele>588</ele>
        <time>2019-12-22T13:20:21Z</time>
      </trkpt>
      <trkpt lat="44.39655" lon="4.05986">
        <ele>584</ele>
        <time>2019-12-22T13:20:33Z</time>
      </trkpt>
      <trkpt lat="44.39663" lon="4.06007">
        <ele>584</ele>
        <time>2019-12-22T13:20:36Z</time>
      </trkpt>
      <trkpt lat="44.39673" lon="4.06017">
        <ele>583</ele>
        <time>2019-12-22T13:20:38Z</time>
      </trkpt>
      <trkpt lat="44.39681" lon="4.06019">
        <ele>582</ele>
        <time>2019-12-22T13:20:39Z</time>
      </trkpt>
      <trkpt lat="44.39735" lon="4.05982">
        <ele>595</ele>
        <time>2019-12-22T13:20:50Z</time>
      </trkpt>
      <trkpt lat="44.39756" lon="4.05974">
        <ele>598</ele>
        <time>2019-12-22T13:20:54Z</time>
      </trkpt>
      <trkpt lat="44.39781" lon="4.05977">
        <ele>594</ele>
        <time>2019-12-22T13:20:58Z</time>
      </trkpt>
      <trkpt lat="44.39831" lon="4.05967">
        <ele>591</ele>
        <time>2019-12-22T13:21:07Z</time>
      </trkpt>
      <trkpt lat="44.39842" lon="4.05961">
        <ele>591</ele>
        <time>2019-12-22T13:21:09Z</time>
      </trkpt>
      <trkpt lat="44.39851" lon="4.0595">
        <ele>593</ele>
        <time>2019-12-22T13:21:11Z</time>
      </trkpt>
      <trkpt lat="44.39871" lon="4.05922">
        <ele>599</ele>
        <time>2019-12-22T13:21:16Z</time>
      </trkpt>
      <trkpt lat="44.39882" lon="4.05908">
        <ele>602</ele>
        <time>2019-12-22T13:21:19Z</time>
      </trkpt>
      <trkpt lat="44.39891" lon="4.05902">
        <ele>603</ele>
        <time>2019-12-22T13:21:21Z</time>
      </trkpt>
      <trkpt lat="44.39901" lon="4.05903">
        <ele>601</ele>
        <time>2019-12-22T13:21:23Z</time>
      </trkpt>
      <trkpt lat="44.39927" lon="4.0593">
        <ele>588</ele>
        <time>2019-12-22T13:21:28Z</time>
      </trkpt>
      <trkpt lat="44.39941" lon="4.05939">
        <ele>584</ele>
        <time>2019-12-22T13:21:31Z</time>
      </trkpt>
      <trkpt lat="44.39955" lon="4.05941">
        <ele>583</ele>
        <time>2019-12-22T13:21:34Z</time>
      </trkpt>
      <trkpt lat="44.40028" lon="4.05936">
        <ele>578</ele>
        <time>2019-12-22T13:21:47Z</time>
      </trkpt>
      <trkpt lat="44.40057" lon="4.05929">
        <ele>575</ele>
        <time>2019-12-22T13:21:52Z</time>
      </trkpt>
      <trkpt lat="44.40073" lon="4.05917">
        <ele>575</ele>
        <time>2019-12-22T13:21:55Z</time>
      </trkpt>
      <trkpt lat="44.40091" lon="4.05884">
        <ele>579</ele>
        <time>2019-12-22T13:22:00Z</time>
      </trkpt>
      <trkpt lat="44.40106" lon="4.0585">
        <ele>583</ele>
        <time>2019-12-22T13:22:05Z</time>
      </trkpt>
      <trkpt lat="44.40115" lon="4.05841">
        <ele>582</ele>
        <time>2019-12-22T13:22:07Z</time>
      </trkpt>
      <trkpt lat="44.40148" lon="4.05833">
        <ele>573</ele>
        <time>2019-12-22T13:22:13Z</time>
      </trkpt>
      <trkpt lat="44.40155" lon="4.05827">
        <ele>572</ele>
        <time>2019-12-22T13:22:15Z</time>
      </trkpt>
      <trkpt lat="44.40161" lon="4.05817">
        <ele>572</ele>
        <time>2019-12-22T13:22:17Z</time>
      </trkpt>
      <trkpt lat="44.40163" lon="4.05806">
        <ele>573</ele>
        <time>2019-12-22T13:22:18Z</time>
      </trkpt>
      <trkpt lat="44.40164" lon="4.05787">
        <ele>576</ele>
        <time>2019-12-22T13:22:20Z</time>
      </trkpt>
      <trkpt lat="44.40173" lon="4.05739">
        <ele>585</ele>
        <time>2019-12-22T13:22:27Z</time>
      </trkpt>
      <trkpt lat="44.4018" lon="4.05729">
        <ele>587</ele>
        <time>2019-12-22T13:22:28Z</time>
      </trkpt>
      <trkpt lat="44.4022" lon="4.05714">
        <ele>587</ele>
        <time>2019-12-22T13:22:36Z</time>
      </trkpt>
      <trkpt lat="44.40229" lon="4.05713">
        <ele>587</ele>
        <time>2019-12-22T13:22:37Z</time>
      </trkpt>
      <trkpt lat="44.40239" lon="4.05714">
        <ele>585</ele>
        <time>2019-12-22T13:22:39Z</time>
      </trkpt>
      <trkpt lat="44.40245" lon="4.05719">
        <ele>583</ele>
        <time>2019-12-22T13:22:40Z</time>
      </trkpt>
      <trkpt lat="44.40249" lon="4.05732">
        <ele>579</ele>
        <time>2019-12-22T13:22:42Z</time>
      </trkpt>
      <trkpt lat="44.40247" lon="4.05744">
        <ele>576</ele>
        <time>2019-12-22T13:22:44Z</time>
      </trkpt>
      <trkpt lat="44.4023" lon="4.05755">
        <ele>576</ele>
        <time>2019-12-22T13:22:47Z</time>
      </trkpt>
      <trkpt lat="44.40227" lon="4.05762">
        <ele>576</ele>
        <time>2019-12-22T13:22:48Z</time>
      </trkpt>
      <trkpt lat="44.40225" lon="4.05772">
        <ele>576</ele>
        <time>2019-12-22T13:22:50Z</time>
      </trkpt>
      <trkpt lat="44.40228" lon="4.05793">
        <ele>576</ele>
        <time>2019-12-22T13:22:52Z</time>
      </trkpt>
      <trkpt lat="44.40243" lon="4.05831">
        <ele>577</ele>
        <time>2019-12-22T13:22:58Z</time>
      </trkpt>
      <trkpt lat="44.40248" lon="4.05849">
        <ele>578</ele>
        <time>2019-12-22T13:23:00Z</time>
      </trkpt>
      <trkpt lat="44.4025" lon="4.05877">
        <ele>578</ele>
        <time>2019-12-22T13:23:04Z</time>
      </trkpt>
      <trkpt lat="44.40245" lon="4.05915">
        <ele>576</ele>
        <time>2019-12-22T13:23:09Z</time>
      </trkpt>
      <trkpt lat="44.40237" lon="4.05939">
        <ele>572</ele>
        <time>2019-12-22T13:23:12Z</time>
      </trkpt>
      <trkpt lat="44.40234" lon="4.05956">
        <ele>570</ele>
        <time>2019-12-22T13:23:14Z</time>
      </trkpt>
      <trkpt lat="44.40237" lon="4.05972">
        <ele>570</ele>
        <time>2019-12-22T13:23:16Z</time>
      </trkpt>
      <trkpt lat="44.40247" lon="4.05997">
        <ele>572</ele>
        <time>2019-12-22T13:23:20Z</time>
      </trkpt>
      <trkpt lat="44.40302" lon="4.0607">
        <ele>581</ele>
        <time>2019-12-22T13:23:34Z</time>
      </trkpt>
      <trkpt lat="44.40318" lon="4.06095">
        <ele>584</ele>
        <time>2019-12-22T13:23:38Z</time>
      </trkpt>
      <trkpt lat="44.40324" lon="4.06111">
        <ele>586</ele>
        <time>2019-12-22T13:23:40Z</time>
      </trkpt>
      <trkpt lat="44.40324" lon="4.06125">
        <ele>586</ele>
        <time>2019-12-22T13:23:42Z</time>
      </trkpt>
      <trkpt lat="44.4032" lon="4.06136">
        <ele>585</ele>
        <time>2019-12-22T13:23:43Z</time>
      </trkpt>
      <trkpt lat="44.40309" lon="4.06142">
        <ele>583</ele>
        <time>2019-12-22T13:23:46Z</time>
      </trkpt>
      <trkpt lat="44.40276" lon="4.0615">
        <ele>575</ele>
        <time>2019-12-22T13:23:52Z</time>
      </trkpt>
      <trkpt lat="44.40232" lon="4.06173">
        <ele>570</ele>
        <time>2019-12-22T13:24:00Z</time>
      </trkpt>
      <trkpt lat="44.40218" lon="4.06178">
        <ele>569</ele>
        <time>2019-12-22T13:24:02Z</time>
      </trkpt>
      <trkpt lat="44.40192" lon="4.06195">
        <ele>570</ele>
        <time>2019-12-22T13:24:08Z</time>
      </trkpt>
      <trkpt lat="44.40165" lon="4.06222">
        <ele>573</ele>
        <time>2019-12-22T13:24:13Z</time>
      </trkpt>
      <trkpt lat="44.40082" lon="4.0629">
        <ele>573</ele>
        <time>2019-12-22T13:24:31Z</time>
      </trkpt>
      <trkpt lat="44.40041" lon="4.06331">
        <ele>574</ele>
        <time>2019-12-22T13:24:40Z</time>
      </trkpt>
      <trkpt lat="44.40011" lon="4.06357">
        <ele>568</ele>
        <time>2019-12-22T13:24:46Z</time>
      </trkpt>
      <trkpt lat="44.39998" lon="4.06371">
        <ele>565</ele>
        <time>2019-12-22T13:24:49Z</time>
      </trkpt>
      <trkpt lat="44.39992" lon="4.06387">
        <ele>564</ele>
        <time>2019-12-22T13:24:51Z</time>
      </trkpt>
      <trkpt lat="44.39997" lon="4.06414">
        <ele>569</ele>
        <time>2019-12-22T13:24:55Z</time>
      </trkpt>
      <trkpt lat="44.40023" lon="4.06494">
        <ele>584</ele>
        <time>2019-12-22T13:25:06Z</time>
      </trkpt>
      <trkpt lat="44.40024" lon="4.06514">
        <ele>587</ele>
        <time>2019-12-22T13:25:08Z</time>
      </trkpt>
      <trkpt lat="44.40021" lon="4.06522">
        <ele>588</ele>
        <time>2019-12-22T13:25:09Z</time>
      </trkpt>
      <trkpt lat="44.40014" lon="4.06529">
        <ele>587</ele>
        <time>2019-12-22T13:25:11Z</time>
      </trkpt>
      <trkpt lat="44.40007" lon="4.0653">
        <ele>585</ele>
        <time>2019-12-22T13:25:12Z</time>
      </trkpt>
      <trkpt lat="44.39997" lon="4.06524">
        <ele>580</ele>
        <time>2019-12-22T13:25:14Z</time>
      </trkpt>
      <trkpt lat="44.39984" lon="4.06524">
        <ele>579</ele>
        <time>2019-12-22T13:25:16Z</time>
      </trkpt>
      <trkpt lat="44.39967" lon="4.06528">
        <ele>578</ele>
        <time>2019-12-22T13:25:20Z</time>
      </trkpt>
      <trkpt lat="44.39957" lon="4.06529">
        <ele>577</ele>
        <time>2019-12-22T13:25:21Z</time>
      </trkpt>
      <trkpt lat="44.39921" lon="4.06521">
        <ele>570</ele>
        <time>2019-12-22T13:25:28Z</time>
      </trkpt>
      <trkpt lat="44.39893" lon="4.0652">
        <ele>566</ele>
        <time>2019-12-22T13:25:33Z</time>
      </trkpt>
      <trkpt lat="44.39877" lon="4.06521">
        <ele>564</ele>
        <time>2019-12-22T13:25:36Z</time>
      </trkpt>
      <trkpt lat="44.39863" lon="4.06528">
        <ele>564</ele>
        <time>2019-12-22T13:25:38Z</time>
      </trkpt>
      <trkpt lat="44.39851" lon="4.06544">
        <ele>567</ele>
        <time>2019-12-22T13:25:41Z</time>
      </trkpt>
      <trkpt lat="44.39828" lon="4.06601">
        <ele>574</ele>
        <time>2019-12-22T13:25:50Z</time>
      </trkpt>
      <trkpt lat="44.39824" lon="4.06634">
        <ele>579</ele>
        <time>2019-12-22T13:25:54Z</time>
      </trkpt>
      <trkpt lat="44.39813" lon="4.0668">
        <ele>586</ele>
        <time>2019-12-22T13:26:00Z</time>
      </trkpt>
      <trkpt lat="44.39808" lon="4.06732">
        <ele>597</ele>
        <time>2019-12-22T13:26:07Z</time>
      </trkpt>
      <trkpt lat="44.39799" lon="4.06752">
        <ele>600</ele>
        <time>2019-12-22T13:26:10Z</time>
      </trkpt>
      <trkpt lat="44.3979" lon="4.06756">
        <ele>599</ele>
        <time>2019-12-22T13:26:11Z</time>
      </trkpt>
      <trkpt lat="44.39779" lon="4.06755">
        <ele>597</ele>
        <time>2019-12-22T13:26:13Z</time>
      </trkpt>
      <trkpt lat="44.39765" lon="4.06747">
        <ele>592</ele>
        <time>2019-12-22T13:26:16Z</time>
      </trkpt>
      <trkpt lat="44.39743" lon="4.06745">
        <ele>589</ele>
        <time>2019-12-22T13:26:20Z</time>
      </trkpt>
      <trkpt lat="44.39677" lon="4.06719">
        <ele>583</ele>
        <time>2019-12-22T13:26:32Z</time>
      </trkpt>
      <trkpt lat="44.39656" lon="4.06717">
        <ele>581</ele>
        <time>2019-12-22T13:26:36Z</time>
      </trkpt>
      <trkpt lat="44.39637" lon="4.06723">
        <ele>581</ele>
        <time>2019-12-22T13:26:39Z</time>
      </trkpt>
      <trkpt lat="44.3958" lon="4.06769">
        <ele>593</ele>
        <time>2019-12-22T13:26:51Z</time>
      </trkpt>
      <trkpt lat="44.39539" lon="4.06791">
        <ele>595</ele>
        <time>2019-12-22T13:26:59Z</time>
      </trkpt>
      <trkpt lat="44.39509" lon="4.06802">
        <ele>596</ele>
        <time>2019-12-22T13:27:04Z</time>
      </trkpt>
      <trkpt lat="44.39475" lon="4.0681">
        <ele>595</ele>
        <time>2019-12-22T13:27:11Z</time>
      </trkpt>
      <trkpt lat="44.39457" lon="4.0681">
        <ele>593</ele>
        <time>2019-12-22T13:27:14Z</time>
      </trkpt>
      <trkpt lat="44.3938" lon="4.06838">
        <ele>591</ele>
        <time>2019-12-22T13:27:28Z</time>
      </trkpt>
      <trkpt lat="44.39364" lon="4.06852">
        <ele>590</ele>
        <time>2019-12-22T13:27:31Z</time>
      </trkpt>
      <trkpt lat="44.39354" lon="4.06869">
        <ele>592</ele>
        <time>2019-12-22T13:27:34Z</time>
      </trkpt>
      <trkpt lat="44.39347" lon="4.06896">
        <ele>596</ele>
        <time>2019-12-22T13:27:38Z</time>
      </trkpt>
      <trkpt lat="44.3934" lon="4.06912">
        <ele>597</ele>
        <time>2019-12-22T13:27:40Z</time>
      </trkpt>
      <trkpt lat="44.39328" lon="4.06931">
        <ele>596</ele>
        <time>2019-12-22T13:27:43Z</time>
      </trkpt>
      <trkpt lat="44.39321" lon="4.06949">
        <ele>596</ele>
        <time>2019-12-22T13:27:46Z</time>
      </trkpt>
      <trkpt lat="44.39296" lon="4.07058">
        <ele>604</ele>
        <time>2019-12-22T13:28:00Z</time>
      </trkpt>
      <trkpt lat="44.3929" lon="4.07078">
        <ele>605</ele>
        <time>2019-12-22T13:28:03Z</time>
      </trkpt>
      <trkpt lat="44.39267" lon="4.0712">
        <ele>601</ele>
        <time>2019-12-22T13:28:10Z</time>
      </trkpt>
      <trkpt lat="44.39261" lon="4.07134">
        <ele>601</ele>
        <time>2019-12-22T13:28:12Z</time>
      </trkpt>
      <trkpt lat="44.39259" lon="4.07146">
        <ele>602</ele>
        <time>2019-12-22T13:28:14Z</time>
      </trkpt>
      <trkpt lat="44.39261" lon="4.07172">
        <ele>605</ele>
        <time>2019-12-22T13:28:17Z</time>
      </trkpt>
      <trkpt lat="44.3926" lon="4.07217">
        <ele>604</ele>
        <time>2019-12-22T13:28:23Z</time>
      </trkpt>
      <trkpt lat="44.39265" lon="4.07279">
        <ele>600</ele>
        <time>2019-12-22T13:28:31Z</time>
      </trkpt>
      <trkpt lat="44.39269" lon="4.07287">
        <ele>600</ele>
        <time>2019-12-22T13:28:32Z</time>
      </trkpt>
      <trkpt lat="44.39282" lon="4.07294">
        <ele>601</ele>
        <time>2019-12-22T13:28:34Z</time>
      </trkpt>
      <trkpt lat="44.39298" lon="4.07295">
        <ele>604</ele>
        <time>2019-12-22T13:28:37Z</time>
      </trkpt>
      <trkpt lat="44.39311" lon="4.0729">
        <ele>607</ele>
        <time>2019-12-22T13:28:40Z</time>
      </trkpt>
      <trkpt lat="44.39333" lon="4.07287">
        <ele>613</ele>
        <time>2019-12-22T13:28:43Z</time>
      </trkpt>
      <trkpt lat="44.39354" lon="4.0729">
        <ele>614</ele>
        <time>2019-12-22T13:28:47Z</time>
      </trkpt>
      <trkpt lat="44.39385" lon="4.07286">
        <ele>620</ele>
        <time>2019-12-22T13:28:53Z</time>
      </trkpt>
      <trkpt lat="44.39403" lon="4.07289">
        <ele>622</ele>
        <time>2019-12-22T13:28:56Z</time>
      </trkpt>
      <trkpt lat="44.39428" lon="4.07298">
        <ele>623</ele>
        <time>2019-12-22T13:29:01Z</time>
      </trkpt>
      <trkpt lat="44.39453" lon="4.07316">
        <ele>622</ele>
        <time>2019-12-22T13:29:06Z</time>
      </trkpt>
      <trkpt lat="44.39487" lon="4.07351">
        <ele>618</ele>
        <time>2019-12-22T13:29:13Z</time>
      </trkpt>
      <trkpt lat="44.39514" lon="4.07377">
        <ele>616</ele>
        <time>2019-12-22T13:29:19Z</time>
      </trkpt>
      <trkpt lat="44.39532" lon="4.07381">
        <ele>618</ele>
        <time>2019-12-22T13:29:22Z</time>
      </trkpt>
      <trkpt lat="44.39566" lon="4.07378">
        <ele>625</ele>
        <time>2019-12-22T13:29:28Z</time>
      </trkpt>
      <trkpt lat="44.3959" lon="4.07388">
        <ele>627</ele>
        <time>2019-12-22T13:29:33Z</time>
      </trkpt>
      <trkpt lat="44.39613" lon="4.07404">
        <ele>628</ele>
        <time>2019-12-22T13:29:37Z</time>
      </trkpt>
      <trkpt lat="44.39659" lon="4.07445">
        <ele>637</ele>
        <time>2019-12-22T13:29:47Z</time>
      </trkpt>
      <trkpt lat="44.39663" lon="4.0745">
        <ele>638</ele>
        <time>2019-12-22T13:29:48Z</time>
      </trkpt>
      <trkpt lat="44.39662" lon="4.07462">
        <ele>637</ele>
        <time>2019-12-22T13:29:49Z</time>
      </trkpt>
      <trkpt lat="44.39656" lon="4.07469">
        <ele>635</ele>
        <time>2019-12-22T13:29:51Z</time>
      </trkpt>
      <trkpt lat="44.39625" lon="4.07485">
        <ele>623</ele>
        <time>2019-12-22T13:29:57Z</time>
      </trkpt>
      <trkpt lat="44.39617" lon="4.07495">
        <ele>620</ele>
        <time>2019-12-22T13:29:59Z</time>
      </trkpt>
      <trkpt lat="44.39602" lon="4.07551">
        <ele>622</ele>
        <time>2019-12-22T13:30:06Z</time>
      </trkpt>
      <trkpt lat="44.39597" lon="4.07566">
        <ele>622</ele>
        <time>2019-12-22T13:30:08Z</time>
      </trkpt>
      <trkpt lat="44.39587" lon="4.07585">
        <ele>621</ele>
        <time>2019-12-22T13:30:11Z</time>
      </trkpt>
      <trkpt lat="44.39553" lon="4.07631">
        <ele>616</ele>
        <time>2019-12-22T13:30:20Z</time>
      </trkpt>
      <trkpt lat="44.39545" lon="4.07646">
        <ele>616</ele>
        <time>2019-12-22T13:30:22Z</time>
      </trkpt>
      <trkpt lat="44.39542" lon="4.07665">
        <ele>619</ele>
        <time>2019-12-22T13:30:25Z</time>
      </trkpt>
      <trkpt lat="44.39552" lon="4.07721">
        <ele>635</ele>
        <time>2019-12-22T13:30:32Z</time>
      </trkpt>
      <trkpt lat="44.3955" lon="4.07733">
        <ele>637</ele>
        <time>2019-12-22T13:30:33Z</time>
      </trkpt>
      <trkpt lat="44.39541" lon="4.0774">
        <ele>636</ele>
        <time>2019-12-22T13:30:35Z</time>
      </trkpt>
      <trkpt lat="44.39527" lon="4.07738">
        <ele>632</ele>
        <time>2019-12-22T13:30:38Z</time>
      </trkpt>
      <trkpt lat="44.39476" lon="4.07721">
        <ele>619</ele>
        <time>2019-12-22T13:30:47Z</time>
      </trkpt>
      <trkpt lat="44.39458" lon="4.07713">
        <ele>615</ele>
        <time>2019-12-22T13:30:51Z</time>
      </trkpt>
      <trkpt lat="44.39435" lon="4.07709">
        <ele>611</ele>
        <time>2019-12-22T13:30:55Z</time>
      </trkpt>
      <trkpt lat="44.39422" lon="4.07711">
        <ele>611</ele>
        <time>2019-12-22T13:30:57Z</time>
      </trkpt>
      <trkpt lat="44.39408" lon="4.07717">
        <ele>609</ele>
        <time>2019-12-22T13:31:00Z</time>
      </trkpt>
      <trkpt lat="44.39395" lon="4.07733">
        <ele>611</ele>
        <time>2019-12-22T13:31:03Z</time>
      </trkpt>
      <trkpt lat="44.39384" lon="4.07748">
        <ele>613</ele>
        <time>2019-12-22T13:31:05Z</time>
      </trkpt>
      <trkpt lat="44.39365" lon="4.07766">
        <ele>611</ele>
        <time>2019-12-22T13:31:09Z</time>
      </trkpt>
      <trkpt lat="44.3935" lon="4.07775">
        <ele>607</ele>
        <time>2019-12-22T13:31:12Z</time>
      </trkpt>
      <trkpt lat="44.39339" lon="4.07791">
        <ele>605</ele>
        <time>2019-12-22T13:31:15Z</time>
      </trkpt>
      <trkpt lat="44.39334" lon="4.07806">
        <ele>606</ele>
        <time>2019-12-22T13:31:17Z</time>
      </trkpt>
      <trkpt lat="44.39337" lon="4.07822">
        <ele>611</ele>
        <time>2019-12-22T13:31:19Z</time>
      </trkpt>
      <trkpt lat="44.39352" lon="4.07857">
        <ele>619</ele>
        <time>2019-12-22T13:31:25Z</time>
      </trkpt>
      <trkpt lat="44.39358" lon="4.07876">
        <ele>622</ele>
        <time>2019-12-22T13:31:27Z</time>
      </trkpt>
      <trkpt lat="44.39362" lon="4.07901">
        <ele>623</ele>
        <time>2019-12-22T13:31:30Z</time>
      </trkpt>
      <trkpt lat="44.39363" lon="4.07933">
        <ele>625</ele>
        <time>2019-12-22T13:31:35Z</time>
      </trkpt>
      <trkpt lat="44.39362" lon="4.0796">
        <ele>627</ele>
        <time>2019-12-22T13:31:38Z</time>
      </trkpt>
      <trkpt lat="44.39355" lon="4.07987">
        <ele>626</ele>
        <time>2019-12-22T13:31:42Z</time>
      </trkpt>
      <trkpt lat="44.39342" lon="4.08015">
        <ele>624</ele>
        <time>2019-12-22T13:31:46Z</time>
      </trkpt>
      <trkpt lat="44.39328" lon="4.08039">
        <ele>624</ele>
        <time>2019-12-22T13:31:50Z</time>
      </trkpt>
      <trkpt lat="44.39318" lon="4.08063">
        <ele>628</ele>
        <time>2019-12-22T13:31:53Z</time>
      </trkpt>
      <trkpt lat="44.39311" lon="4.08074">
        <ele>629</ele>
        <time>2019-12-22T13:31:55Z</time>
      </trkpt>
      <trkpt lat="44.39304" lon="4.08078">
        <ele>629</ele>
        <time>2019-12-22T13:31:57Z</time>
      </trkpt>
      <trkpt lat="44.39292" lon="4.0808">
        <ele>626</ele>
        <time>2019-12-22T13:31:59Z</time>
      </trkpt>
      <trkpt lat="44.39251" lon="4.08078">
        <ele>613</ele>
        <time>2019-12-22T13:32:06Z</time>
      </trkpt>
      <trkpt lat="44.39227" lon="4.08081">
        <ele>609</ele>
        <time>2019-12-22T13:32:10Z</time>
      </trkpt>
      <trkpt lat="44.39214" lon="4.08084">
        <ele>607</ele>
        <time>2019-12-22T13:32:13Z</time>
      </trkpt>
      <trkpt lat="44.39192" lon="4.08103">
        <ele>609</ele>
        <time>2019-12-22T13:32:17Z</time>
      </trkpt>
      <trkpt lat="44.39164" lon="4.0813">
        <ele>609</ele>
        <time>2019-12-22T13:32:23Z</time>
      </trkpt>
      <trkpt lat="44.39146" lon="4.0815">
        <ele>605</ele>
        <time>2019-12-22T13:32:27Z</time>
      </trkpt>
      <trkpt lat="44.39139" lon="4.08161">
        <ele>604</ele>
        <time>2019-12-22T13:32:29Z</time>
      </trkpt>
      <trkpt lat="44.3913" lon="4.08193">
        <ele>607</ele>
        <time>2019-12-22T13:32:34Z</time>
      </trkpt>
      <trkpt lat="44.39106" lon="4.08255">
        <ele>607</ele>
        <time>2019-12-22T13:32:43Z</time>
      </trkpt>
      <trkpt lat="44.39077" lon="4.083">
        <ele>595</ele>
        <time>2019-12-22T13:32:50Z</time>
      </trkpt>
      <trkpt lat="44.39075" lon="4.08311">
        <ele>595</ele>
        <time>2019-12-22T13:32:52Z</time>
      </trkpt>
      <trkpt lat="44.39077" lon="4.08319">
        <ele>596</ele>
        <time>2019-12-22T13:32:53Z</time>
      </trkpt>
      <trkpt lat="44.39083" lon="4.08333">
        <ele>599</ele>
        <time>2019-12-22T13:32:55Z</time>
      </trkpt>
      <trkpt lat="44.39093" lon="4.08349">
        <ele>600</ele>
        <time>2019-12-22T13:32:58Z</time>
      </trkpt>
      <trkpt lat="44.39128" lon="4.08376">
        <ele>610</ele>
        <time>2019-12-22T13:33:05Z</time>
      </trkpt>
      <trkpt lat="44.39152" lon="4.08401">
        <ele>616</ele>
        <time>2019-12-22T13:33:10Z</time>
      </trkpt>
      <trkpt lat="44.39155" lon="4.08414">
        <ele>614</ele>
        <time>2019-12-22T13:33:12Z</time>
      </trkpt>
      <trkpt lat="44.39153" lon="4.08427">
        <ele>614</ele>
        <time>2019-12-22T13:33:13Z</time>
      </trkpt>
      <trkpt lat="44.39146" lon="4.08443">
        <ele>614</ele>
        <time>2019-12-22T13:33:16Z</time>
      </trkpt>
      <trkpt lat="44.3914" lon="4.08453">
        <ele>612</ele>
        <time>2019-12-22T13:33:18Z</time>
      </trkpt>
      <trkpt lat="44.39127" lon="4.08462">
        <ele>608</ele>
        <time>2019-12-22T13:33:20Z</time>
      </trkpt>
      <trkpt lat="44.39117" lon="4.08474">
        <ele>605</ele>
        <time>2019-12-22T13:33:22Z</time>
      </trkpt>
      <trkpt lat="44.39101" lon="4.08498">
        <ele>602</ele>
        <time>2019-12-22T13:33:27Z</time>
      </trkpt>
      <trkpt lat="44.39062" lon="4.08529">
        <ele>592</ele>
        <time>2019-12-22T13:33:35Z</time>
      </trkpt>
      <trkpt lat="44.39053" lon="4.08544">
        <ele>591</ele>
        <time>2019-12-22T13:33:37Z</time>
      </trkpt>
      <trkpt lat="44.39039" lon="4.08602">
        <ele>598</ele>
        <time>2019-12-22T13:33:45Z</time>
      </trkpt>
      <trkpt lat="44.39025" lon="4.08627">
        <ele>596</ele>
        <time>2019-12-22T13:33:49Z</time>
      </trkpt>
      <trkpt lat="44.39014" lon="4.08674">
        <ele>601</ele>
        <time>2019-12-22T13:33:55Z</time>
      </trkpt>
      <trkpt lat="44.39009" lon="4.08686">
        <ele>602</ele>
        <time>2019-12-22T13:33:57Z</time>
      </trkpt>
      <trkpt lat="44.38981" lon="4.08702">
        <ele>599</ele>
        <time>2019-12-22T13:34:02Z</time>
      </trkpt>
      <trkpt lat="44.38971" lon="4.08702">
        <ele>597</ele>
        <time>2019-12-22T13:34:04Z</time>
      </trkpt>
      <trkpt lat="44.38956" lon="4.087">
        <ele>593</ele>
        <time>2019-12-22T13:34:07Z</time>
      </trkpt>
      <trkpt lat="44.38942" lon="4.08701">
        <ele>591</ele>
        <time>2019-12-22T13:34:09Z</time>
      </trkpt>
      <trkpt lat="44.38926" lon="4.08707">
        <ele>589</ele>
        <time>2019-12-22T13:34:12Z</time>
      </trkpt>
      <trkpt lat="44.38899" lon="4.08723">
        <ele>589</ele>
        <time>2019-12-22T13:34:17Z</time>
      </trkpt>
      <trkpt lat="44.38835" lon="4.08745">
        <ele>584</ele>
        <time>2019-12-22T13:34:29Z</time>
      </trkpt>
      <trkpt lat="44.38813" lon="4.08755">
        <ele>583</ele>
        <time>2019-12-22T13:34:33Z</time>
      </trkpt>
      <trkpt lat="44.38795" lon="4.08768">
        <ele>584</ele>
        <time>2019-12-22T13:34:37Z</time>
      </trkpt>
      <trkpt lat="44.38757" lon="4.088">
        <ele>587</ele>
        <time>2019-12-22T13:34:45Z</time>
      </trkpt>
      <trkpt lat="44.38744" lon="4.08808">
        <ele>588</ele>
        <time>2019-12-22T13:34:47Z</time>
      </trkpt>
      <trkpt lat="44.38699" lon="4.08826">
        <ele>588</ele>
        <time>2019-12-22T13:34:56Z</time>
      </trkpt>
      <trkpt lat="44.38678" lon="4.08827">
        <ele>585</ele>
        <time>2019-12-22T13:34:59Z</time>
      </trkpt>
      <trkpt lat="44.38649" lon="4.08819">
        <ele>582</ele>
        <time>2019-12-22T13:35:05Z</time>
      </trkpt>
      <trkpt lat="44.38623" lon="4.08804">
        <ele>578</ele>
        <time>2019-12-22T13:35:10Z</time>
      </trkpt>
      <trkpt lat="44.38588" lon="4.08777">
        <ele>571</ele>
        <time>2019-12-22T13:35:17Z</time>
      </trkpt>
      <trkpt lat="44.38573" lon="4.08778">
        <ele>570</ele>
        <time>2019-12-22T13:35:19Z</time>
      </trkpt>
      <trkpt lat="44.38557" lon="4.08781">
        <ele>568</ele>
        <time>2019-12-22T13:35:22Z</time>
      </trkpt>
      <trkpt lat="44.38533" lon="4.08791">
        <ele>567</ele>
        <time>2019-12-22T13:35:27Z</time>
      </trkpt>
      <trkpt lat="44.38516" lon="4.08802">
        <ele>567</ele>
        <time>2019-12-22T13:35:30Z</time>
      </trkpt>
      <trkpt lat="44.38498" lon="4.08822">
        <ele>567</ele>
        <time>2019-12-22T13:35:34Z</time>
      </trkpt>
      <trkpt lat="44.38493" lon="4.08833">
        <ele>567</ele>
        <time>2019-12-22T13:35:36Z</time>
      </trkpt>
      <trkpt lat="44.3849" lon="4.08853">
        <ele>567</ele>
        <time>2019-12-22T13:35:38Z</time>
      </trkpt>
      <trkpt lat="44.38489" lon="4.08905">
        <ele>570</ele>
        <time>2019-12-22T13:35:45Z</time>
      </trkpt>
      <trkpt lat="44.38492" lon="4.08957">
        <ele>573</ele>
        <time>2019-12-22T13:35:52Z</time>
      </trkpt>
      <trkpt lat="44.38481" lon="4.09016">
        <ele>567</ele>
        <time>2019-12-22T13:35:59Z</time>
      </trkpt>
      <trkpt lat="44.38478" lon="4.09044">
        <ele>566</ele>
        <time>2019-12-22T13:36:03Z</time>
      </trkpt>
      <trkpt lat="44.38481" lon="4.09062">
        <ele>567</ele>
        <time>2019-12-22T13:36:05Z</time>
      </trkpt>
      <trkpt lat="44.38486" lon="4.09072">
        <ele>569</ele>
        <time>2019-12-22T13:36:07Z</time>
      </trkpt>
      <trkpt lat="44.38499" lon="4.09086">
        <ele>575</ele>
        <time>2019-12-22T13:36:10Z</time>
      </trkpt>
      <trkpt lat="44.38507" lon="4.09099">
        <ele>578</ele>
        <time>2019-12-22T13:36:12Z</time>
      </trkpt>
      <trkpt lat="44.38506" lon="4.09111">
        <ele>578</ele>
        <time>2019-12-22T13:36:14Z</time>
      </trkpt>
      <trkpt lat="44.38488" lon="4.09144">
        <ele>571</ele>
        <time>2019-12-22T13:36:19Z</time>
      </trkpt>
      <trkpt lat="44.38481" lon="4.09165">
        <ele>569</ele>
        <time>2019-12-22T13:36:22Z</time>
      </trkpt>
      <trkpt lat="44.3848" lon="4.09188">
        <ele>572</ele>
        <time>2019-12-22T13:36:25Z</time>
      </trkpt>
      <trkpt lat="44.38493" lon="4.09219">
        <ele>580</ele>
        <time>2019-12-22T13:36:29Z</time>
      </trkpt>
      <trkpt lat="44.38489" lon="4.09231">
        <ele>581</ele>
        <time>2019-12-22T13:36:31Z</time>
      </trkpt>
      <trkpt lat="44.38472" lon="4.09239">
        <ele>578</ele>
        <time>2019-12-22T13:36:34Z</time>
      </trkpt>
      <trkpt lat="44.38431" lon="4.09229">
        <ele>566</ele>
        <time>2019-12-22T13:36:42Z</time>
      </trkpt>
      <trkpt lat="44.38412" lon="4.09233">
        <ele>563</ele>
        <time>2019-12-22T13:36:45Z</time>
      </trkpt>
      <trkpt lat="44.38367" lon="4.09254">
        <ele>561</ele>
        <time>2019-12-22T13:36:53Z</time>
      </trkpt>
      <trkpt lat="44.38351" lon="4.09264">
        <ele>561</ele>
        <time>2019-12-22T13:36:57Z</time>
      </trkpt>
      <trkpt lat="44.38321" lon="4.09312">
        <ele>561</ele>
        <time>2019-12-22T13:37:05Z</time>
      </trkpt>
      <trkpt lat="44.38284" lon="4.09362">
        <ele>555</ele>
        <time>2019-12-22T13:37:14Z</time>
      </trkpt>
      <trkpt lat="44.3827" lon="4.09399">
        <ele>558</ele>
        <time>2019-12-22T13:37:19Z</time>
      </trkpt>
      <trkpt lat="44.38252" lon="4.09434">
        <ele>559</ele>
        <time>2019-12-22T13:37:25Z</time>
      </trkpt>
      <trkpt lat="44.38238" lon="4.0945">
        <ele>558</ele>
        <time>2019-12-22T13:37:28Z</time>
      </trkpt>
      <trkpt lat="44.38224" lon="4.09461">
        <ele>556</ele>
        <time>2019-12-22T13:37:31Z</time>
      </trkpt>
      <trkpt lat="44.38184" lon="4.09478">
        <ele>548</ele>
        <time>2019-12-22T13:37:38Z</time>
      </trkpt>
      <trkpt lat="44.38168" lon="4.0949">
        <ele>547</ele>
        <time>2019-12-22T13:37:41Z</time>
      </trkpt>
      <trkpt lat="44.38129" lon="4.09502">
        <ele>540</ele>
        <time>2019-12-22T13:37:48Z</time>
      </trkpt>
      <trkpt lat="44.38116" lon="4.0951">
        <ele>537</ele>
        <time>2019-12-22T13:37:51Z</time>
      </trkpt>
      <trkpt lat="44.38109" lon="4.09524">
        <ele>536</ele>
        <time>2019-12-22T13:37:53Z</time>
      </trkpt>
      <trkpt lat="44.38102" lon="4.09536">
        <ele>535</ele>
        <time>2019-12-22T13:37:55Z</time>
      </trkpt>
      <trkpt lat="44.38087" lon="4.09553">
        <ele>534</ele>
        <time>2019-12-22T13:37:59Z</time>
      </trkpt>
      <trkpt lat="44.38071" lon="4.09583">
        <ele>533</ele>
        <time>2019-12-22T13:38:03Z</time>
      </trkpt>
      <trkpt lat="44.38068" lon="4.09595">
        <ele>532</ele>
        <time>2019-12-22T13:38:05Z</time>
      </trkpt>
      <trkpt lat="44.38067" lon="4.09605">
        <ele>530</ele>
        <time>2019-12-22T13:38:06Z</time>
      </trkpt>
      <trkpt lat="44.38072" lon="4.09619">
        <ele>530</ele>
        <time>2019-12-22T13:38:08Z</time>
      </trkpt>
      <trkpt lat="44.38081" lon="4.09624">
        <ele>531</ele>
        <time>2019-12-22T13:38:10Z</time>
      </trkpt>
      <trkpt lat="44.38105" lon="4.09629">
        <ele>534</ele>
        <time>2019-12-22T13:38:14Z</time>
      </trkpt>
      <trkpt lat="44.38113" lon="4.09634">
        <ele>534</ele>
        <time>2019-12-22T13:38:16Z</time>
      </trkpt>
      <trkpt lat="44.38128" lon="4.09672">
        <ele>530</ele>
        <time>2019-12-22T13:38:21Z</time>
      </trkpt>
      <trkpt lat="44.3814" lon="4.09689">
        <ele>527</ele>
        <time>2019-12-22T13:38:24Z</time>
      </trkpt>
      <trkpt lat="44.38155" lon="4.09701">
        <ele>525</ele>
        <time>2019-12-22T13:38:27Z</time>
      </trkpt>
      <trkpt lat="44.38196" lon="4.09724">
        <ele>524</ele>
        <time>2019-12-22T13:38:35Z</time>
      </trkpt>
      <trkpt lat="44.3822" lon="4.09742">
        <ele>521</ele>
        <time>2019-12-22T13:38:40Z</time>
      </trkpt>
      <trkpt lat="44.38267" lon="4.09774">
        <ele>517</ele>
        <time>2019-12-22T13:38:49Z</time>
      </trkpt>
      <trkpt lat="44.38285" lon="4.09793">
        <ele>514</ele>
        <time>2019-12-22T13:38:54Z</time>
      </trkpt>
      <trkpt lat="44.3832" lon="4.09822">
        <ele>511</ele>
        <time>2019-12-22T13:39:01Z</time>
      </trkpt>
      <trkpt lat="44.38359" lon="4.09858">
        <ele>508</ele>
        <time>2019-12-22T13:39:09Z</time>
      </trkpt>
      <trkpt lat="44.38392" lon="4.09874">
        <ele>511</ele>
        <time>2019-12-22T13:39:15Z</time>
      </trkpt>
      <trkpt lat="44.38403" lon="4.09883">
        <ele>513</ele>
        <time>2019-12-22T13:39:18Z</time>
      </trkpt>
      <trkpt lat="44.38405" lon="4.09888">
        <ele>512</ele>
        <time>2019-12-22T13:39:18Z</time>
      </trkpt>
      <trkpt lat="44.38403" lon="4.099">
        <ele>510</ele>
        <time>2019-12-22T13:39:20Z</time>
      </trkpt>
      <trkpt lat="44.384" lon="4.0995">
        <ele>508</ele>
        <time>2019-12-22T13:39:26Z</time>
      </trkpt>
      <trkpt lat="44.384" lon="4.09978">
        <ele>509</ele>
        <time>2019-12-22T13:39:30Z</time>
      </trkpt>
      <trkpt lat="44.38406" lon="4.09982">
        <ele>510</ele>
        <time>2019-12-22T13:39:31Z</time>
      </trkpt>
      <trkpt lat="44.38423" lon="4.10023">
        <ele>512</ele>
        <time>2019-12-22T13:39:37Z</time>
      </trkpt>
      <trkpt lat="44.38418" lon="4.10053">
        <ele>510</ele>
        <time>2019-12-22T13:39:41Z</time>
      </trkpt>
      <trkpt lat="44.38417" lon="4.10073">
        <ele>509</ele>
        <time>2019-12-22T13:39:43Z</time>
      </trkpt>
      <trkpt lat="44.38422" lon="4.10086">
        <ele>508</ele>
        <time>2019-12-22T13:39:45Z</time>
      </trkpt>
      <trkpt lat="44.38431" lon="4.10098">
        <ele>506</ele>
        <time>2019-12-22T13:39:48Z</time>
      </trkpt>
      <trkpt lat="44.38454" lon="4.10101">
        <ele>506</ele>
        <time>2019-12-22T13:39:52Z</time>
      </trkpt>
      <trkpt lat="44.38515" lon="4.10099">
        <ele>505</ele>
        <time>2019-12-22T13:40:03Z</time>
      </trkpt>
      <trkpt lat="44.3853" lon="4.1009">
        <ele>506</ele>
        <time>2019-12-22T13:40:05Z</time>
      </trkpt>
      <trkpt lat="44.3854" lon="4.10074">
        <ele>510</ele>
        <time>2019-12-22T13:40:08Z</time>
      </trkpt>
      <trkpt lat="44.38545" lon="4.10068">
        <ele>511</ele>
        <time>2019-12-22T13:40:09Z</time>
      </trkpt>
      <trkpt lat="44.38552" lon="4.10066">
        <ele>512</ele>
        <time>2019-12-22T13:40:11Z</time>
      </trkpt>
      <trkpt lat="44.3856" lon="4.10067">
        <ele>511</ele>
        <time>2019-12-22T13:40:12Z</time>
      </trkpt>
      <trkpt lat="44.38588" lon="4.10103">
        <ele>498</ele>
        <time>2019-12-22T13:40:19Z</time>
      </trkpt>
      <trkpt lat="44.386" lon="4.10109">
        <ele>496</ele>
        <time>2019-12-22T13:40:21Z</time>
      </trkpt>
      <trkpt lat="44.3861" lon="4.10109">
        <ele>495</ele>
        <time>2019-12-22T13:40:23Z</time>
      </trkpt>
      <trkpt lat="44.38631" lon="4.10101">
        <ele>495</ele>
        <time>2019-12-22T13:40:27Z</time>
      </trkpt>
      <trkpt lat="44.3866" lon="4.1008">
        <ele>499</ele>
        <time>2019-12-22T13:40:32Z</time>
      </trkpt>
      <trkpt lat="44.38675" lon="4.10064">
        <ele>505</ele>
        <time>2019-12-22T13:40:36Z</time>
      </trkpt>
      <trkpt lat="44.38691" lon="4.10058">
        <ele>509</ele>
        <time>2019-12-22T13:40:39Z</time>
      </trkpt>
      <trkpt lat="44.38702" lon="4.10062">
        <ele>510</ele>
        <time>2019-12-22T13:40:41Z</time>
      </trkpt>
      <trkpt lat="44.38708" lon="4.10068">
        <ele>509</ele>
        <time>2019-12-22T13:40:42Z</time>
      </trkpt>
      <trkpt lat="44.38712" lon="4.1008">
        <ele>507</ele>
        <time>2019-12-22T13:40:44Z</time>
      </trkpt>
      <trkpt lat="44.38713" lon="4.10108">
        <ele>502</ele>
        <time>2019-12-22T13:40:47Z</time>
      </trkpt>
      <trkpt lat="44.3871" lon="4.10173">
        <ele>490</ele>
        <time>2019-12-22T13:40:56Z</time>
      </trkpt>
      <trkpt lat="44.387" lon="4.10252">
        <ele>481</ele>
        <time>2019-12-22T13:41:06Z</time>
      </trkpt>
      <trkpt lat="44.38688" lon="4.1032">
        <ele>470</ele>
        <time>2019-12-22T13:41:15Z</time>
      </trkpt>
      <trkpt lat="44.38683" lon="4.10361">
        <ele>463</ele>
        <time>2019-12-22T13:41:20Z</time>
      </trkpt>
      <trkpt lat="44.38687" lon="4.10382">
        <ele>461</ele>
        <time>2019-12-22T13:41:23Z</time>
      </trkpt>
      <trkpt lat="44.38693" lon="4.10392">
        <ele>460</ele>
        <time>2019-12-22T13:41:24Z</time>
      </trkpt>
      <trkpt lat="44.38706" lon="4.10402">
        <ele>461</ele>
        <time>2019-12-22T13:41:27Z</time>
      </trkpt>
      <trkpt lat="44.38778" lon="4.10407">
        <ele>471</ele>
        <time>2019-12-22T13:41:40Z</time>
      </trkpt>
      <trkpt lat="44.38818" lon="4.10403">
        <ele>476</ele>
        <time>2019-12-22T13:41:47Z</time>
      </trkpt>
      <trkpt lat="44.38823" lon="4.10406">
        <ele>476</ele>
        <time>2019-12-22T13:41:48Z</time>
      </trkpt>
      <trkpt lat="44.38826" lon="4.10415">
        <ele>474</ele>
        <time>2019-12-22T13:41:49Z</time>
      </trkpt>
      <trkpt lat="44.3883" lon="4.10431">
        <ele>473</ele>
        <time>2019-12-22T13:41:51Z</time>
      </trkpt>
      <trkpt lat="44.38831" lon="4.10456">
        <ele>471</ele>
        <time>2019-12-22T13:41:55Z</time>
      </trkpt>
      <trkpt lat="44.38828" lon="4.10475">
        <ele>469</ele>
        <time>2019-12-22T13:41:57Z</time>
      </trkpt>
      <trkpt lat="44.38821" lon="4.10495">
        <ele>465</ele>
        <time>2019-12-22T13:42:00Z</time>
      </trkpt>
      <trkpt lat="44.38806" lon="4.10527">
        <ele>461</ele>
        <time>2019-12-22T13:42:05Z</time>
      </trkpt>
      <trkpt lat="44.38755" lon="4.10611">
        <ele>448</ele>
        <time>2019-12-22T13:42:19Z</time>
      </trkpt>
      <trkpt lat="44.38724" lon="4.1068">
        <ele>441</ele>
        <time>2019-12-22T13:42:29Z</time>
      </trkpt>
      <trkpt lat="44.38706" lon="4.10729">
        <ele>436</ele>
        <time>2019-12-22T13:42:36Z</time>
      </trkpt>
      <trkpt lat="44.38691" lon="4.1079">
        <ele>430</ele>
        <time>2019-12-22T13:42:44Z</time>
      </trkpt>
      <trkpt lat="44.38691" lon="4.10827">
        <ele>428</ele>
        <time>2019-12-22T13:42:49Z</time>
      </trkpt>
      <trkpt lat="44.38699" lon="4.10845">
        <ele>427</ele>
        <time>2019-12-22T13:42:52Z</time>
      </trkpt>
      <trkpt lat="44.3871" lon="4.10857">
        <ele>426</ele>
        <time>2019-12-22T13:42:54Z</time>
      </trkpt>
      <trkpt lat="44.38728" lon="4.10859">
        <ele>427</ele>
        <time>2019-12-22T13:42:57Z</time>
      </trkpt>
      <trkpt lat="44.38793" lon="4.10839">
        <ele>428</ele>
        <time>2019-12-22T13:43:09Z</time>
      </trkpt>
      <trkpt lat="44.38813" lon="4.10825">
        <ele>428</ele>
        <time>2019-12-22T13:43:13Z</time>
      </trkpt>
      <trkpt lat="44.3884" lon="4.10791">
        <ele>436</ele>
        <time>2019-12-22T13:43:20Z</time>
      </trkpt>
      <trkpt lat="44.38854" lon="4.10776">
        <ele>442</ele>
        <time>2019-12-22T13:43:23Z</time>
      </trkpt>
      <trkpt lat="44.38861" lon="4.10779">
        <ele>442</ele>
        <time>2019-12-22T13:43:24Z</time>
      </trkpt>
      <trkpt lat="44.38874" lon="4.10824">
        <ele>433</ele>
        <time>2019-12-22T13:43:30Z</time>
      </trkpt>
      <trkpt lat="44.389" lon="4.1086">
        <ele>434</ele>
        <time>2019-12-22T13:43:37Z</time>
      </trkpt>
      <trkpt lat="44.38903" lon="4.10877">
        <ele>433</ele>
        <time>2019-12-22T13:43:39Z</time>
      </trkpt>
      <trkpt lat="44.38874" lon="4.10949">
        <ele>422</ele>
        <time>2019-12-22T13:43:50Z</time>
      </trkpt>
      <trkpt lat="44.38851" lon="4.10987">
        <ele>417</ele>
        <time>2019-12-22T13:43:56Z</time>
      </trkpt>
      <trkpt lat="44.38831" lon="4.11014">
        <ele>411</ele>
        <time>2019-12-22T13:44:01Z</time>
      </trkpt>
      <trkpt lat="44.3881" lon="4.11051">
        <ele>404</ele>
        <time>2019-12-22T13:44:07Z</time>
      </trkpt>
      <trkpt lat="44.38805" lon="4.1107">
        <ele>401</ele>
        <time>2019-12-22T13:44:09Z</time>
      </trkpt>
      <trkpt lat="44.38809" lon="4.11111">
        <ele>398</ele>
        <time>2019-12-22T13:44:15Z</time>
      </trkpt>
      <trkpt lat="44.38813" lon="4.11123">
        <ele>397</ele>
        <time>2019-12-22T13:44:16Z</time>
      </trkpt>
      <trkpt lat="44.38841" lon="4.11131">
        <ele>402</ele>
        <time>2019-12-22T13:44:22Z</time>
      </trkpt>
      <trkpt lat="44.3887" lon="4.11134">
        <ele>406</ele>
        <time>2019-12-22T13:44:27Z</time>
      </trkpt>
      <trkpt lat="44.3888" lon="4.11138">
        <ele>406</ele>
        <time>2019-12-22T13:44:29Z</time>
      </trkpt>
      <trkpt lat="44.3889" lon="4.11147">
        <ele>405</ele>
        <time>2019-12-22T13:44:31Z</time>
      </trkpt>
      <trkpt lat="44.38897" lon="4.1116">
        <ele>403</ele>
        <time>2019-12-22T13:44:33Z</time>
      </trkpt>
      <trkpt lat="44.38906" lon="4.11185">
        <ele>399</ele>
        <time>2019-12-22T13:44:36Z</time>
      </trkpt>
      <trkpt lat="44.3892" lon="4.1121">
        <ele>396</ele>
        <time>2019-12-22T13:44:40Z</time>
      </trkpt>
      <trkpt lat="44.38953" lon="4.11228">
        <ele>398</ele>
        <time>2019-12-22T13:44:47Z</time>
      </trkpt>
      <trkpt lat="44.38958" lon="4.11239">
        <ele>398</ele>
        <time>2019-12-22T13:44:48Z</time>
      </trkpt>
      <trkpt lat="44.38956" lon="4.11255">
        <ele>396</ele>
        <time>2019-12-22T13:44:50Z</time>
      </trkpt>
      <trkpt lat="44.38939" lon="4.11294">
        <ele>391</ele>
        <time>2019-12-22T13:44:56Z</time>
      </trkpt>
      <trkpt lat="44.38883" lon="4.11384">
        <ele>377</ele>
        <time>2019-12-22T13:45:11Z</time>
      </trkpt>
      <trkpt lat="44.38827" lon="4.11445">
        <ele>368</ele>
        <time>2019-12-22T13:45:24Z</time>
      </trkpt>
      <trkpt lat="44.38799" lon="4.11477">
        <ele>364</ele>
        <time>2019-12-22T13:45:30Z</time>
      </trkpt>
      <trkpt lat="44.38789" lon="4.11493">
        <ele>363</ele>
        <time>2019-12-22T13:45:33Z</time>
      </trkpt>
      <trkpt lat="44.38784" lon="4.11517">
        <ele>362</ele>
        <time>2019-12-22T13:45:36Z</time>
      </trkpt>
      <trkpt lat="44.38784" lon="4.11536">
        <ele>361</ele>
        <time>2019-12-22T13:45:39Z</time>
      </trkpt>
      <trkpt lat="44.38788" lon="4.11562">
        <ele>361</ele>
        <time>2019-12-22T13:45:42Z</time>
      </trkpt>
      <trkpt lat="44.38789" lon="4.11582">
        <ele>360</ele>
        <time>2019-12-22T13:45:45Z</time>
      </trkpt>
      <trkpt lat="44.38787" lon="4.11601">
        <ele>359</ele>
        <time>2019-12-22T13:45:47Z</time>
      </trkpt>
      <trkpt lat="44.38773" lon="4.1164">
        <ele>355</ele>
        <time>2019-12-22T13:45:53Z</time>
      </trkpt>
      <trkpt lat="44.38752" lon="4.11676">
        <ele>352</ele>
        <time>2019-12-22T13:45:59Z</time>
      </trkpt>
      <trkpt lat="44.38746" lon="4.11691">
        <ele>351</ele>
        <time>2019-12-22T13:46:01Z</time>
      </trkpt>
      <trkpt lat="44.38733" lon="4.11817">
        <ele>344</ele>
        <time>2019-12-22T13:46:17Z</time>
      </trkpt>
      <trkpt lat="44.3874" lon="4.11871">
        <ele>342</ele>
        <time>2019-12-22T13:46:24Z</time>
      </trkpt>
      <trkpt lat="44.3876" lon="4.11912">
        <ele>340</ele>
        <time>2019-12-22T13:46:30Z</time>
      </trkpt>
      <trkpt lat="44.38767" lon="4.1194">
        <ele>339</ele>
        <time>2019-12-22T13:46:34Z</time>
      </trkpt>
      <trkpt lat="44.38775" lon="4.12039">
        <ele>338</ele>
        <time>2019-12-22T13:46:47Z</time>
      </trkpt>
      <trkpt lat="44.38782" lon="4.12081">
        <ele>337</ele>
        <time>2019-12-22T13:46:52Z</time>
      </trkpt>
      <trkpt lat="44.38805" lon="4.12155">
        <ele>335</ele>
        <time>2019-12-22T13:47:02Z</time>
      </trkpt>
      <trkpt lat="44.38835" lon="4.12281">
        <ele>326</ele>
        <time>2019-12-22T13:47:19Z</time>
      </trkpt>
      <trkpt lat="44.38857" lon="4.12364">
        <ele>320</ele>
        <time>2019-12-22T13:47:31Z</time>
      </trkpt>
      <trkpt lat="44.38868" lon="4.12392">
        <ele>318</ele>
        <time>2019-12-22T13:47:35Z</time>
      </trkpt>
      <trkpt lat="44.38902" lon="4.12456">
        <ele>316</ele>
        <time>2019-12-22T13:47:45Z</time>
      </trkpt>
      <trkpt lat="44.38909" lon="4.12478">
        <ele>316</ele>
        <time>2019-12-22T13:47:48Z</time>
      </trkpt>
      <trkpt lat="44.38911" lon="4.125">
        <ele>316</ele>
        <time>2019-12-22T13:47:51Z</time>
      </trkpt>
      <trkpt lat="44.38899" lon="4.12688">
        <ele>308</ele>
        <time>2019-12-22T13:48:15Z</time>
      </trkpt>
      <trkpt lat="44.38899" lon="4.12716">
        <ele>307</ele>
        <time>2019-12-22T13:48:18Z</time>
      </trkpt>
      <trkpt lat="44.38903" lon="4.12746">
        <ele>306</ele>
        <time>2019-12-22T13:48:22Z</time>
      </trkpt>
      <trkpt lat="44.38915" lon="4.12788">
        <ele>305</ele>
        <time>2019-12-22T13:48:28Z</time>
      </trkpt>
      <trkpt lat="44.38928" lon="4.12813">
        <ele>304</ele>
        <time>2019-12-22T13:48:32Z</time>
      </trkpt>
      <trkpt lat="44.38938" lon="4.12823">
        <ele>303</ele>
        <time>2019-12-22T13:48:34Z</time>
      </trkpt>
      <trkpt lat="44.39093" lon="4.12913">
        <ele>294</ele>
        <time>2019-12-22T13:49:04Z</time>
      </trkpt>
      <trkpt lat="44.39102" lon="4.1292">
        <ele>293</ele>
        <time>2019-12-22T13:49:06Z</time>
      </trkpt>
      <trkpt lat="44.39104" lon="4.12939">
        <ele>292</ele>
        <time>2019-12-22T13:49:08Z</time>
      </trkpt>
      <trkpt lat="44.39109" lon="4.13086">
        <ele>286</ele>
        <time>2019-12-22T13:49:27Z</time>
      </trkpt>
      <trkpt lat="44.39116" lon="4.1321">
        <ele>284</ele>
        <time>2019-12-22T13:49:43Z</time>
      </trkpt>
      <trkpt lat="44.39114" lon="4.13226">
        <ele>284</ele>
        <time>2019-12-22T13:49:45Z</time>
      </trkpt>
      <trkpt lat="44.3911" lon="4.1324">
        <ele>284</ele>
        <time>2019-12-22T13:49:47Z</time>
      </trkpt>
      <trkpt lat="44.39072" lon="4.13141">
        <ele>285</ele>
        <time>2019-12-22T13:50:01Z</time>
      </trkpt>
      <trkpt lat="44.3906" lon="4.13126">
        <ele>285</ele>
        <time>2019-12-22T13:50:04Z</time>
      </trkpt>
      <trkpt lat="44.39051" lon="4.13123">
        <ele>286</ele>
        <time>2019-12-22T13:50:05Z</time>
      </trkpt>
      <trkpt lat="44.3904" lon="4.13126">
        <ele>286</ele>
        <time>2019-12-22T13:50:07Z</time>
      </trkpt>
      <trkpt lat="44.39031" lon="4.13136">
        <ele>285</ele>
        <time>2019-12-22T13:50:09Z</time>
      </trkpt>
      <trkpt lat="44.39024" lon="4.13149">
        <ele>285</ele>
        <time>2019-12-22T13:50:11Z</time>
      </trkpt>
      <trkpt lat="44.39004" lon="4.13207">
        <ele>282</ele>
        <time>2019-12-22T13:50:20Z</time>
      </trkpt>
      <trkpt lat="44.38986" lon="4.13232">
        <ele>281</ele>
        <time>2019-12-22T13:50:24Z</time>
      </trkpt>
      <trkpt lat="44.38944" lon="4.13271">
        <ele>279</ele>
        <time>2019-12-22T13:50:33Z</time>
      </trkpt>
      <trkpt lat="44.38932" lon="4.13276">
        <ele>279</ele>
        <time>2019-12-22T13:50:35Z</time>
      </trkpt>
      <trkpt lat="44.38914" lon="4.13277">
        <ele>279</ele>
        <time>2019-12-22T13:50:39Z</time>
      </trkpt>
      <trkpt lat="44.38825" lon="4.13257">
        <ele>278</ele>
        <time>2019-12-22T13:50:55Z</time>
      </trkpt>
      <trkpt lat="44.38805" lon="4.13243">
        <ele>277</ele>
        <time>2019-12-22T13:50:59Z</time>
      </trkpt>
      <trkpt lat="44.38798" lon="4.13234">
        <ele>277</ele>
        <time>2019-12-22T13:51:00Z</time>
      </trkpt>
      <trkpt lat="44.38793" lon="4.13221">
        <ele>277</ele>
        <time>2019-12-22T13:51:02Z</time>
      </trkpt>
      <trkpt lat="44.38791" lon="4.13205">
        <ele>277</ele>
        <time>2019-12-22T13:51:04Z</time>
      </trkpt>
      <trkpt lat="44.38793" lon="4.13141">
        <ele>282</ele>
        <time>2019-12-22T13:51:12Z</time>
      </trkpt>
      <trkpt lat="44.38788" lon="4.1313">
        <ele>282</ele>
        <time>2019-12-22T13:51:14Z</time>
      </trkpt>
      <trkpt lat="44.38781" lon="4.13125">
        <ele>282</ele>
        <time>2019-12-22T13:51:15Z</time>
      </trkpt>
      <trkpt lat="44.38774" lon="4.13123">
        <ele>282</ele>
        <time>2019-12-22T13:51:17Z</time>
      </trkpt>
      <trkpt lat="44.38761" lon="4.1313">
        <ele>280</ele>
        <time>2019-12-22T13:51:19Z</time>
      </trkpt>
      <trkpt lat="44.38661" lon="4.13232">
        <ele>275</ele>
        <time>2019-12-22T13:51:41Z</time>
      </trkpt>
      <trkpt lat="44.38645" lon="4.13231">
        <ele>274</ele>
        <time>2019-12-22T13:51:44Z</time>
      </trkpt>
      <trkpt lat="44.38634" lon="4.13225">
        <ele>274</ele>
        <time>2019-12-22T13:51:46Z</time>
      </trkpt>
      <trkpt lat="44.38513" lon="4.13104">
        <ele>280</ele>
        <time>2019-12-22T13:52:13Z</time>
      </trkpt>
      <trkpt lat="44.38497" lon="4.13095">
        <ele>280</ele>
        <time>2019-12-22T13:52:16Z</time>
      </trkpt>
      <trkpt lat="44.38425" lon="4.13088">
        <ele>277</ele>
        <time>2019-12-22T13:52:28Z</time>
      </trkpt>
      <trkpt lat="44.38401" lon="4.13066">
        <ele>275</ele>
        <time>2019-12-22T13:52:34Z</time>
      </trkpt>
      <trkpt lat="44.38387" lon="4.1303">
        <ele>275</ele>
        <time>2019-12-22T13:52:39Z</time>
      </trkpt>
      <trkpt lat="44.38385" lon="4.12989">
        <ele>277</ele>
        <time>2019-12-22T13:52:44Z</time>
      </trkpt>
      <trkpt lat="44.38398" lon="4.12933">
        <ele>279</ele>
        <time>2019-12-22T13:52:52Z</time>
      </trkpt>
      <trkpt lat="44.38431" lon="4.12847">
        <ele>283</ele>
        <time>2019-12-22T13:53:04Z</time>
      </trkpt>
      <trkpt lat="44.38432" lon="4.12833">
        <ele>282</ele>
        <time>2019-12-22T13:53:06Z</time>
      </trkpt>
      <trkpt lat="44.3843" lon="4.12823">
        <ele>283</ele>
        <time>2019-12-22T13:53:07Z</time>
      </trkpt>
      <trkpt lat="44.38426" lon="4.12814">
        <ele>284</ele>
        <time>2019-12-22T13:53:08Z</time>
      </trkpt>
      <trkpt lat="44.38418" lon="4.12809">
        <ele>284</ele>
        <time>2019-12-22T13:53:10Z</time>
      </trkpt>
      <trkpt lat="44.38412" lon="4.12808">
        <ele>285</ele>
        <time>2019-12-22T13:53:11Z</time>
      </trkpt>
      <trkpt lat="44.38399" lon="4.12818">
        <ele>284</ele>
        <time>2019-12-22T13:53:14Z</time>
      </trkpt>
      <trkpt lat="44.3833" lon="4.12904">
        <ele>276</ele>
        <time>2019-12-22T13:53:30Z</time>
      </trkpt>
      <trkpt lat="44.38319" lon="4.12906">
        <ele>277</ele>
        <time>2019-12-22T13:53:32Z</time>
      </trkpt>
      <trkpt lat="44.38297" lon="4.12892">
        <ele>283</ele>
        <time>2019-12-22T13:53:36Z</time>
      </trkpt>
      <trkpt lat="44.38287" lon="4.12895">
        <ele>284</ele>
        <time>2019-12-22T13:53:38Z</time>
      </trkpt>
      <trkpt lat="44.38278" lon="4.12907">
        <ele>283</ele>
        <time>2019-12-22T13:53:40Z</time>
      </trkpt>
      <trkpt lat="44.38275" lon="4.12943">
        <ele>281</ele>
        <time>2019-12-22T13:53:45Z</time>
      </trkpt>
      <trkpt lat="44.38264" lon="4.12984">
        <ele>280</ele>
        <time>2019-12-22T13:53:51Z</time>
      </trkpt>
      <trkpt lat="44.38249" lon="4.13008">
        <ele>280</ele>
        <time>2019-12-22T13:53:55Z</time>
      </trkpt>
      <trkpt lat="44.38226" lon="4.13031">
        <ele>281</ele>
        <time>2019-12-22T13:54:00Z</time>
      </trkpt>
      <trkpt lat="44.38212" lon="4.13061">
        <ele>279</ele>
        <time>2019-12-22T13:54:04Z</time>
      </trkpt>
      <trkpt lat="44.38202" lon="4.13103">
        <ele>276</ele>
        <time>2019-12-22T13:54:10Z</time>
      </trkpt>
      <trkpt lat="44.38192" lon="4.13121">
        <ele>274</ele>
        <time>2019-12-22T13:54:13Z</time>
      </trkpt>
      <trkpt lat="44.38169" lon="4.13127">
        <ele>274</ele>
        <time>2019-12-22T13:54:17Z</time>
      </trkpt>
      <trkpt lat="44.38142" lon="4.1313">
        <ele>272</ele>
        <time>2019-12-22T13:54:22Z</time>
      </trkpt>
      <trkpt lat="44.38121" lon="4.13126">
        <ele>270</ele>
        <time>2019-12-22T13:54:26Z</time>
      </trkpt>
      <trkpt lat="44.3811" lon="4.13119">
        <ele>271</ele>
        <time>2019-12-22T13:54:28Z</time>
      </trkpt>
      <trkpt lat="44.38096" lon="4.13101">
        <ele>273</ele>
        <time>2019-12-22T13:54:31Z</time>
      </trkpt>
      <trkpt lat="44.38065" lon="4.13031">
        <ele>279</ele>
        <time>2019-12-22T13:54:42Z</time>
      </trkpt>
      <trkpt lat="44.37963" lon="4.12921">
        <ele>282</ele>
        <time>2019-12-22T13:55:04Z</time>
      </trkpt>
      <trkpt lat="44.37952" lon="4.12907">
        <ele>282</ele>
        <time>2019-12-22T13:55:07Z</time>
      </trkpt>
      <trkpt lat="44.37941" lon="4.12882">
        <ele>283</ele>
        <time>2019-12-22T13:55:11Z</time>
      </trkpt>
      <trkpt lat="44.37915" lon="4.12798">
        <ele>285</ele>
        <time>2019-12-22T13:55:22Z</time>
      </trkpt>
      <trkpt lat="44.37895" lon="4.12746">
        <ele>290</ele>
        <time>2019-12-22T13:55:30Z</time>
      </trkpt>
      <trkpt lat="44.37879" lon="4.12694">
        <ele>287</ele>
        <time>2019-12-22T13:55:37Z</time>
      </trkpt>
      <trkpt lat="44.37875" lon="4.12642">
        <ele>284</ele>
        <time>2019-12-22T13:55:44Z</time>
      </trkpt>
      <trkpt lat="44.37879" lon="4.12581">
        <ele>281</ele>
        <time>2019-12-22T13:55:52Z</time>
      </trkpt>
      <trkpt lat="44.37872" lon="4.12578">
        <ele>280</ele>
        <time>2019-12-22T13:55:53Z</time>
      </trkpt>
      <trkpt lat="44.3782" lon="4.12564">
        <ele>275</ele>
        <time>2019-12-22T13:56:02Z</time>
      </trkpt>
      <trkpt lat="44.37794" lon="4.12561">
        <ele>277</ele>
        <time>2019-12-22T13:56:07Z</time>
      </trkpt>
      <trkpt lat="44.37788" lon="4.12566">
        <ele>277</ele>
        <time>2019-12-22T13:56:08Z</time>
      </trkpt>
      <trkpt lat="44.37769" lon="4.12567">
        <ele>279</ele>
        <time>2019-12-22T13:56:12Z</time>
      </trkpt>
      <trkpt lat="44.3773" lon="4.12562">
        <ele>282</ele>
        <time>2019-12-22T13:56:19Z</time>
      </trkpt>
      <trkpt lat="44.3771" lon="4.12562">
        <ele>283</ele>
        <time>2019-12-22T13:56:22Z</time>
      </trkpt>
      <trkpt lat="44.37706" lon="4.12564">
        <ele>283</ele>
        <time>2019-12-22T13:56:23Z</time>
      </trkpt>
      <trkpt lat="44.37699" lon="4.12579">
        <ele>282</ele>
        <time>2019-12-22T13:56:25Z</time>
      </trkpt>
      <trkpt lat="44.37697" lon="4.12606">
        <ele>284</ele>
        <time>2019-12-22T13:56:29Z</time>
      </trkpt>
      <trkpt lat="44.37697" lon="4.12614">
        <ele>285</ele>
        <time>2019-12-22T13:56:30Z</time>
      </trkpt>
      <trkpt lat="44.37702" lon="4.12624">
        <ele>285</ele>
        <time>2019-12-22T13:56:31Z</time>
      </trkpt>
      <trkpt lat="44.37745" lon="4.12654">
        <ele>282</ele>
        <time>2019-12-22T13:56:40Z</time>
      </trkpt>
      <trkpt lat="44.37758" lon="4.12668">
        <ele>281</ele>
        <time>2019-12-22T13:56:43Z</time>
      </trkpt>
      <trkpt lat="44.37779" lon="4.12704">
        <ele>285</ele>
        <time>2019-12-22T13:56:49Z</time>
      </trkpt>
      <trkpt lat="44.3779" lon="4.1272">
        <ele>286</ele>
        <time>2019-12-22T13:56:51Z</time>
      </trkpt>
      <trkpt lat="44.37813" lon="4.12744">
        <ele>284</ele>
        <time>2019-12-22T13:56:56Z</time>
      </trkpt>
      <trkpt lat="44.37822" lon="4.12758">
        <ele>283</ele>
        <time>2019-12-22T13:56:59Z</time>
      </trkpt>
      <trkpt lat="44.37849" lon="4.12848">
        <ele>290</ele>
        <time>2019-12-22T13:57:11Z</time>
      </trkpt>
      <trkpt lat="44.37852" lon="4.12872">
        <ele>291</ele>
        <time>2019-12-22T13:57:14Z</time>
      </trkpt>
      <trkpt lat="44.37854" lon="4.12939">
        <ele>300</ele>
        <time>2019-12-22T13:57:23Z</time>
      </trkpt>
      <trkpt lat="44.37866" lon="4.12991">
        <ele>302</ele>
        <time>2019-12-22T13:57:30Z</time>
      </trkpt>
      <trkpt lat="44.37885" lon="4.13031">
        <ele>297</ele>
        <time>2019-12-22T13:57:36Z</time>
      </trkpt>
      <trkpt lat="44.37903" lon="4.13053">
        <ele>291</ele>
        <time>2019-12-22T13:57:40Z</time>
      </trkpt>
      <trkpt lat="44.37933" lon="4.13082">
        <ele>283</ele>
        <time>2019-12-22T13:57:47Z</time>
      </trkpt>
      <trkpt lat="44.37951" lon="4.13142">
        <ele>284</ele>
        <time>2019-12-22T13:57:55Z</time>
      </trkpt>
      <trkpt lat="44.37968" lon="4.13201">
        <ele>284</ele>
        <time>2019-12-22T13:58:03Z</time>
      </trkpt>
      <trkpt lat="44.37976" lon="4.13225">
        <ele>284</ele>
        <time>2019-12-22T13:58:06Z</time>
      </trkpt>
      <trkpt lat="44.37985" lon="4.13241">
        <ele>284</ele>
        <time>2019-12-22T13:58:09Z</time>
      </trkpt>
      <trkpt lat="44.38021" lon="4.13297">
        <ele>283</ele>
        <time>2019-12-22T13:58:19Z</time>
      </trkpt>
      <trkpt lat="44.38052" lon="4.13317">
        <ele>279</ele>
        <time>2019-12-22T13:58:25Z</time>
      </trkpt>
      <trkpt lat="44.38103" lon="4.13372">
        <ele>277</ele>
        <time>2019-12-22T13:58:36Z</time>
      </trkpt>
      <trkpt lat="44.38113" lon="4.13386">
        <ele>277</ele>
        <time>2019-12-22T13:58:39Z</time>
      </trkpt>
      <trkpt lat="44.38125" lon="4.13412">
        <ele>280</ele>
        <time>2019-12-22T13:58:43Z</time>
      </trkpt>
      <trkpt lat="44.38142" lon="4.13486">
        <ele>280</ele>
        <time>2019-12-22T13:58:52Z</time>
      </trkpt>
      <trkpt lat="44.3814" lon="4.135">
        <ele>280</ele>
        <time>2019-12-22T13:58:54Z</time>
      </trkpt>
      <trkpt lat="44.38135" lon="4.13507">
        <ele>280</ele>
        <time>2019-12-22T13:58:56Z</time>
      </trkpt>
      <trkpt lat="44.3813" lon="4.1351">
        <ele>280</ele>
        <time>2019-12-22T13:58:57Z</time>
      </trkpt>
      <trkpt lat="44.38099" lon="4.13504">
        <ele>279</ele>
        <time>2019-12-22T13:59:02Z</time>
      </trkpt>
      <trkpt lat="44.38081" lon="4.13507">
        <ele>279</ele>
        <time>2019-12-22T13:59:05Z</time>
      </trkpt>
      <trkpt lat="44.38008" lon="4.13529">
        <ele>275</ele>
        <time>2019-12-22T13:59:19Z</time>
      </trkpt>
      <trkpt lat="44.37998" lon="4.13535">
        <ele>275</ele>
        <time>2019-12-22T13:59:21Z</time>
      </trkpt>
      <trkpt lat="44.3799" lon="4.13543">
        <ele>275</ele>
        <time>2019-12-22T13:59:22Z</time>
      </trkpt>
      <trkpt lat="44.3798" lon="4.13564">
        <ele>274</ele>
        <time>2019-12-22T13:59:25Z</time>
      </trkpt>
      <trkpt lat="44.37956" lon="4.13604">
        <ele>273</ele>
        <time>2019-12-22T13:59:32Z</time>
      </trkpt>
      <trkpt lat="44.37928" lon="4.13638">
        <ele>274</ele>
        <time>2019-12-22T13:59:39Z</time>
      </trkpt>
      <trkpt lat="44.37922" lon="4.13653">
        <ele>273</ele>
        <time>2019-12-22T13:59:41Z</time>
      </trkpt>
      <trkpt lat="44.37921" lon="4.13667">
        <ele>273</ele>
        <time>2019-12-22T13:59:43Z</time>
      </trkpt>
      <trkpt lat="44.37925" lon="4.13704">
        <ele>271</ele>
        <time>2019-12-22T13:59:47Z</time>
      </trkpt>
      <trkpt lat="44.37924" lon="4.1372">
        <ele>270</ele>
        <time>2019-12-22T13:59:50Z</time>
      </trkpt>
      <trkpt lat="44.37912" lon="4.13753">
        <ele>270</ele>
        <time>2019-12-22T13:59:54Z</time>
      </trkpt>
      <trkpt lat="44.37892" lon="4.13789">
        <ele>273</ele>
        <time>2019-12-22T14:00:00Z</time>
      </trkpt>
      <trkpt lat="44.37887" lon="4.13806">
        <ele>273</ele>
        <time>2019-12-22T14:00:02Z</time>
      </trkpt>
      <trkpt lat="44.37887" lon="4.13815">
        <ele>273</ele>
        <time>2019-12-22T14:00:04Z</time>
      </trkpt>
      <trkpt lat="44.37895" lon="4.1384">
        <ele>271</ele>
        <time>2019-12-22T14:00:07Z</time>
      </trkpt>
      <trkpt lat="44.37909" lon="4.13859">
        <ele>268</ele>
        <time>2019-12-22T14:00:10Z</time>
      </trkpt>
      <trkpt lat="44.37913" lon="4.13869">
        <ele>268</ele>
        <time>2019-12-22T14:00:12Z</time>
      </trkpt>
      <trkpt lat="44.37915" lon="4.1388">
        <ele>268</ele>
        <time>2019-12-22T14:00:13Z</time>
      </trkpt>
      <trkpt lat="44.37914" lon="4.13898">
        <ele>269</ele>
        <time>2019-12-22T14:00:16Z</time>
      </trkpt>
      <trkpt lat="44.37916" lon="4.13915">
        <ele>270</ele>
        <time>2019-12-22T14:00:18Z</time>
      </trkpt>
      <trkpt lat="44.37933" lon="4.13954">
        <ele>268</ele>
        <time>2019-12-22T14:00:24Z</time>
      </trkpt>
      <trkpt lat="44.37942" lon="4.1398">
        <ele>267</ele>
        <time>2019-12-22T14:00:27Z</time>
      </trkpt>
      <trkpt lat="44.37952" lon="4.14024">
        <ele>265</ele>
        <time>2019-12-22T14:00:33Z</time>
      </trkpt>
      <trkpt lat="44.37954" lon="4.14044">
        <ele>264</ele>
        <time>2019-12-22T14:00:36Z</time>
      </trkpt>
      <trkpt lat="44.37952" lon="4.14075">
        <ele>263</ele>
        <time>2019-12-22T14:00:40Z</time>
      </trkpt>
      <trkpt lat="44.37932" lon="4.14158">
        <ele>263</ele>
        <time>2019-12-22T14:00:51Z</time>
      </trkpt>
      <trkpt lat="44.37932" lon="4.14187">
        <ele>264</ele>
        <time>2019-12-22T14:00:55Z</time>
      </trkpt>
      <trkpt lat="44.37936" lon="4.14201">
        <ele>264</ele>
        <time>2019-12-22T14:00:56Z</time>
      </trkpt>
      <trkpt lat="44.3796" lon="4.14238">
        <ele>263</ele>
        <time>2019-12-22T14:01:03Z</time>
      </trkpt>
      <trkpt lat="44.37966" lon="4.14254">
        <ele>262</ele>
        <time>2019-12-22T14:01:05Z</time>
      </trkpt>
      <trkpt lat="44.37967" lon="4.14274">
        <ele>262</ele>
        <time>2019-12-22T14:01:08Z</time>
      </trkpt>
      <trkpt lat="44.37963" lon="4.14298">
        <ele>262</ele>
        <time>2019-12-22T14:01:11Z</time>
      </trkpt>
      <trkpt lat="44.37951" lon="4.14338">
        <ele>262</ele>
        <time>2019-12-22T14:01:16Z</time>
      </trkpt>
      <trkpt lat="44.3794" lon="4.14395">
        <ele>258</ele>
        <time>2019-12-22T14:01:24Z</time>
      </trkpt>
      <trkpt lat="44.37936" lon="4.14406">
        <ele>257</ele>
        <time>2019-12-22T14:01:25Z</time>
      </trkpt>
      <trkpt lat="44.3793" lon="4.14415">
        <ele>256</ele>
        <time>2019-12-22T14:01:27Z</time>
      </trkpt>
      <trkpt lat="44.37922" lon="4.14423">
        <ele>256</ele>
        <time>2019-12-22T14:01:29Z</time>
      </trkpt>
      <trkpt lat="44.37912" lon="4.14428">
        <ele>257</ele>
        <time>2019-12-22T14:01:31Z</time>
      </trkpt>
      <trkpt lat="44.37865" lon="4.14435">
        <ele>264</ele>
        <time>2019-12-22T14:01:39Z</time>
      </trkpt>
      <trkpt lat="44.37857" lon="4.1444">
        <ele>265</ele>
        <time>2019-12-22T14:01:41Z</time>
      </trkpt>
      <trkpt lat="44.37853" lon="4.14449">
        <ele>264</ele>
        <time>2019-12-22T14:01:42Z</time>
      </trkpt>
      <trkpt lat="44.37852" lon="4.1446">
        <ele>263</ele>
        <time>2019-12-22T14:01:43Z</time>
      </trkpt>
      <trkpt lat="44.37851" lon="4.14522">
        <ele>257</ele>
        <time>2019-12-22T14:01:51Z</time>
      </trkpt>
      <trkpt lat="44.37845" lon="4.14562">
        <ele>257</ele>
        <time>2019-12-22T14:01:56Z</time>
      </trkpt>
      <trkpt lat="44.37847" lon="4.14611">
        <ele>256</ele>
        <time>2019-12-22T14:02:03Z</time>
      </trkpt>
      <trkpt lat="44.37845" lon="4.1463">
        <ele>256</ele>
        <time>2019-12-22T14:02:05Z</time>
      </trkpt>
      <trkpt lat="44.37842" lon="4.14647">
        <ele>256</ele>
        <time>2019-12-22T14:02:07Z</time>
      </trkpt>
      <trkpt lat="44.37837" lon="4.14662">
        <ele>256</ele>
        <time>2019-12-22T14:02:09Z</time>
      </trkpt>
      <trkpt lat="44.37815" lon="4.14705">
        <ele>256</ele>
        <time>2019-12-22T14:02:16Z</time>
      </trkpt>
      <trkpt lat="44.37804" lon="4.14741">
        <ele>255</ele>
        <time>2019-12-22T14:02:21Z</time>
      </trkpt>
      <trkpt lat="44.37793" lon="4.14766">
        <ele>255</ele>
        <time>2019-12-22T14:02:25Z</time>
      </trkpt>
      <trkpt lat="44.37784" lon="4.14789">
        <ele>255</ele>
        <time>2019-12-22T14:02:28Z</time>
      </trkpt>
      <trkpt lat="44.37782" lon="4.148">
        <ele>255</ele>
        <time>2019-12-22T14:02:30Z</time>
      </trkpt>
      <trkpt lat="44.37783" lon="4.14808">
        <ele>255</ele>
        <time>2019-12-22T14:02:31Z</time>
      </trkpt>
      <trkpt lat="44.3779" lon="4.14825">
        <ele>254</ele>
        <time>2019-12-22T14:02:33Z</time>
      </trkpt>
      <trkpt lat="44.37792" lon="4.1484">
        <ele>254</ele>
        <time>2019-12-22T14:02:35Z</time>
      </trkpt>
      <trkpt lat="44.37789" lon="4.14864">
        <ele>254</ele>
        <time>2019-12-22T14:02:38Z</time>
      </trkpt>
      <trkpt lat="44.3779" lon="4.14877">
        <ele>253</ele>
        <time>2019-12-22T14:02:40Z</time>
      </trkpt>
      <trkpt lat="44.37809" lon="4.14924">
        <ele>251</ele>
        <time>2019-12-22T14:02:47Z</time>
      </trkpt>
      <trkpt lat="44.37812" lon="4.14937">
        <ele>250</ele>
        <time>2019-12-22T14:02:48Z</time>
      </trkpt>
      <trkpt lat="44.37814" lon="4.14947">
        <ele>250</ele>
        <time>2019-12-22T14:02:50Z</time>
      </trkpt>
      <trkpt lat="44.37812" lon="4.14968">
        <ele>251</ele>
        <time>2019-12-22T14:02:52Z</time>
      </trkpt>
      <trkpt lat="44.37812" lon="4.14978">
        <ele>251</ele>
        <time>2019-12-22T14:02:54Z</time>
      </trkpt>
      <trkpt lat="44.37831" lon="4.1505">
        <ele>249</ele>
        <time>2019-12-22T14:03:04Z</time>
      </trkpt>
      <trkpt lat="44.37832" lon="4.15063">
        <ele>249</ele>
        <time>2019-12-22T14:03:05Z</time>
      </trkpt>
      <trkpt lat="44.3783" lon="4.15074">
        <ele>249</ele>
        <time>2019-12-22T14:03:07Z</time>
      </trkpt>
      <trkpt lat="44.37826" lon="4.15083">
        <ele>250</ele>
        <time>2019-12-22T14:03:08Z</time>
      </trkpt>
      <trkpt lat="44.37784" lon="4.15123">
        <ele>252</ele>
        <time>2019-12-22T14:03:17Z</time>
      </trkpt>
      <trkpt lat="44.37778" lon="4.15134">
        <ele>252</ele>
        <time>2019-12-22T14:03:19Z</time>
      </trkpt>
      <trkpt lat="44.37756" lon="4.15195">
        <ele>250</ele>
        <time>2019-12-22T14:03:27Z</time>
      </trkpt>
      <trkpt lat="44.37716" lon="4.15262">
        <ele>245</ele>
        <time>2019-12-22T14:03:39Z</time>
      </trkpt>
      <trkpt lat="44.37709" lon="4.15269">
        <ele>245</ele>
        <time>2019-12-22T14:03:40Z</time>
      </trkpt>
      <trkpt lat="44.37702" lon="4.1527">
        <ele>244</ele>
        <time>2019-12-22T14:03:41Z</time>
      </trkpt>
      <trkpt lat="44.37695" lon="4.15268">
        <ele>244</ele>
        <time>2019-12-22T14:03:43Z</time>
      </trkpt>
      <trkpt lat="44.37672" lon="4.15252">
        <ele>244</ele>
        <time>2019-12-22T14:03:47Z</time>
      </trkpt>
      <trkpt lat="44.37659" lon="4.15247">
        <ele>244</ele>
        <time>2019-12-22T14:03:50Z</time>
      </trkpt>
      <trkpt lat="44.37649" lon="4.15247">
        <ele>244</ele>
        <time>2019-12-22T14:03:51Z</time>
      </trkpt>
      <trkpt lat="44.37563" lon="4.15268">
        <ele>240</ele>
        <time>2019-12-22T14:04:07Z</time>
      </trkpt>
      <trkpt lat="44.37544" lon="4.15271">
        <ele>239</ele>
        <time>2019-12-22T14:04:10Z</time>
      </trkpt>
      <trkpt lat="44.3753" lon="4.15277">
        <ele>239</ele>
        <time>2019-12-22T14:04:13Z</time>
      </trkpt>
      <trkpt lat="44.37471" lon="4.15321">
        <ele>239</ele>
        <time>2019-12-22T14:04:25Z</time>
      </trkpt>
      <trkpt lat="44.3745" lon="4.15356">
        <ele>239</ele>
        <time>2019-12-22T14:04:31Z</time>
      </trkpt>
      <trkpt lat="44.37423" lon="4.15391">
        <ele>237</ele>
        <time>2019-12-22T14:04:37Z</time>
      </trkpt>
      <trkpt lat="44.37406" lon="4.15404">
        <ele>236</ele>
        <time>2019-12-22T14:04:41Z</time>
      </trkpt>
      <trkpt lat="44.37401" lon="4.15413">
        <ele>235</ele>
        <time>2019-12-22T14:04:42Z</time>
      </trkpt>
      <trkpt lat="44.37374" lon="4.15481">
        <ele>236</ele>
        <time>2019-12-22T14:04:52Z</time>
      </trkpt>
      <trkpt lat="44.37361" lon="4.15505">
        <ele>235</ele>
        <time>2019-12-22T14:04:56Z</time>
      </trkpt>
      <trkpt lat="44.3734" lon="4.15519">
        <ele>234</ele>
        <time>2019-12-22T14:05:00Z</time>
      </trkpt>
      <trkpt lat="44.37331" lon="4.15521">
        <ele>234</ele>
        <time>2019-12-22T14:05:02Z</time>
      </trkpt>
      <trkpt lat="44.37299" lon="4.15518">
        <ele>233</ele>
        <time>2019-12-22T14:05:07Z</time>
      </trkpt>
      <trkpt lat="44.37285" lon="4.15511">
        <ele>234</ele>
        <time>2019-12-22T14:05:10Z</time>
      </trkpt>
      <trkpt lat="44.37223" lon="4.15465">
        <ele>235</ele>
        <time>2019-12-22T14:05:22Z</time>
      </trkpt>
      <trkpt lat="44.37203" lon="4.15447">
        <ele>236</ele>
        <time>2019-12-22T14:05:27Z</time>
      </trkpt>
      <trkpt lat="44.3718" lon="4.15417">
        <ele>242</ele>
        <time>2019-12-22T14:05:32Z</time>
      </trkpt>
      <trkpt lat="44.37167" lon="4.15403">
        <ele>246</ele>
        <time>2019-12-22T14:05:35Z</time>
      </trkpt>
      <trkpt lat="44.37156" lon="4.15397">
        <ele>248</ele>
        <time>2019-12-22T14:05:37Z</time>
      </trkpt>
      <trkpt lat="44.37113" lon="4.15389">
        <ele>251</ele>
        <time>2019-12-22T14:05:45Z</time>
      </trkpt>
      <trkpt lat="44.37068" lon="4.1539">
        <ele>252</ele>
        <time>2019-12-22T14:05:53Z</time>
      </trkpt>
      <trkpt lat="44.37023" lon="4.15394">
        <ele>253</ele>
        <time>2019-12-22T14:06:01Z</time>
      </trkpt>
      <trkpt lat="44.37002" lon="4.15392">
        <ele>256</ele>
        <time>2019-12-22T14:06:05Z</time>
      </trkpt>
      <trkpt lat="44.36895" lon="4.15369">
        <ele>259</ele>
        <time>2019-12-22T14:06:24Z</time>
      </trkpt>
      <trkpt lat="44.36885" lon="4.15364">
        <ele>259</ele>
        <time>2019-12-22T14:06:26Z</time>
      </trkpt>
      <trkpt lat="44.36837" lon="4.15299">
        <ele>258</ele>
        <time>2019-12-22T14:06:38Z</time>
      </trkpt>
      <trkpt lat="44.36832" lon="4.15292">
        <ele>258</ele>
        <time>2019-12-22T14:06:39Z</time>
      </trkpt>
      <trkpt lat="44.36827" lon="4.15277">
        <ele>259</ele>
        <time>2019-12-22T14:06:41Z</time>
      </trkpt>
      <trkpt lat="44.36825" lon="4.15274">
        <ele>259</ele>
        <time>2019-12-22T14:06:42Z</time>
      </trkpt>
      <trkpt lat="44.3682" lon="4.15272">
        <ele>260</ele>
        <time>2019-12-22T14:06:43Z</time>
      </trkpt>
      <trkpt lat="44.3679" lon="4.15271">
        <ele>261</ele>
        <time>2019-12-22T14:06:48Z</time>
      </trkpt>
      <trkpt lat="44.36781" lon="4.15276">
        <ele>261</ele>
        <time>2019-12-22T14:06:50Z</time>
      </trkpt>
      <trkpt lat="44.36774" lon="4.15284">
        <ele>262</ele>
        <time>2019-12-22T14:06:51Z</time>
      </trkpt>
      <trkpt lat="44.36768" lon="4.15315">
        <ele>263</ele>
        <time>2019-12-22T14:06:55Z</time>
      </trkpt>
      <trkpt lat="44.36767" lon="4.15326">
        <ele>263</ele>
        <time>2019-12-22T14:06:57Z</time>
      </trkpt>
      <trkpt lat="44.36773" lon="4.15344">
        <ele>264</ele>
        <time>2019-12-22T14:06:59Z</time>
      </trkpt>
      <trkpt lat="44.36798" lon="4.15408">
        <ele>264</ele>
        <time>2019-12-22T14:07:09Z</time>
      </trkpt>
      <trkpt lat="44.36823" lon="4.1545">
        <ele>262</ele>
        <time>2019-12-22T14:07:16Z</time>
      </trkpt>
      <trkpt lat="44.36825" lon="4.15463">
        <ele>264</ele>
        <time>2019-12-22T14:07:17Z</time>
      </trkpt>
      <trkpt lat="44.36821" lon="4.15498">
        <ele>268</ele>
        <time>2019-12-22T14:07:22Z</time>
      </trkpt>
      <trkpt lat="44.36852" lon="4.15521">
        <ele>269</ele>
        <time>2019-12-22T14:07:28Z</time>
      </trkpt>
      <trkpt lat="44.36853" lon="4.15526">
        <ele>269</ele>
        <time>2019-12-22T14:07:29Z</time>
      </trkpt>
      <trkpt lat="44.36852" lon="4.15534">
        <ele>270</ele>
        <time>2019-12-22T14:07:30Z</time>
      </trkpt>
      <trkpt lat="44.36841" lon="4.15557">
        <ele>271</ele>
        <time>2019-12-22T14:07:33Z</time>
      </trkpt>
      <trkpt lat="44.36851" lon="4.15563">
        <ele>272</ele>
        <time>2019-12-22T14:07:35Z</time>
      </trkpt>
      <trkpt lat="44.36855" lon="4.1556">
        <ele>272</ele>
        <time>2019-12-22T14:07:36Z</time>
      </trkpt>
      <trkpt lat="44.36871" lon="4.15542">
        <ele>272</ele>
        <time>2019-12-22T14:07:40Z</time>
      </trkpt>
      <trkpt lat="44.36885" lon="4.15521">
        <ele>269</ele>
        <time>2019-12-22T14:07:43Z</time>
      </trkpt>
      <trkpt lat="44.36901" lon="4.15493">
        <ele>264</ele>
        <time>2019-12-22T14:07:48Z</time>
      </trkpt>
      <trkpt lat="44.36905" lon="4.1549">
        <ele>263</ele>
        <time>2019-12-22T14:07:49Z</time>
      </trkpt>
      <trkpt lat="44.36913" lon="4.1549">
        <ele>263</ele>
        <time>2019-12-22T14:07:50Z</time>
      </trkpt>
      <trkpt lat="44.36932" lon="4.15502">
        <ele>260</ele>
        <time>2019-12-22T14:07:54Z</time>
      </trkpt>
      <trkpt lat="44.36934" lon="4.15505">
        <ele>260</ele>
        <time>2019-12-22T14:07:54Z</time>
      </trkpt>
      <trkpt lat="44.36934" lon="4.15515">
        <ele>262</ele>
        <time>2019-12-22T14:07:56Z</time>
      </trkpt>
      <trkpt lat="44.36922" lon="4.1556">
        <ele>277</ele>
        <time>2019-12-22T14:08:02Z</time>
      </trkpt>
      <trkpt lat="44.36921" lon="4.15579">
        <ele>281</ele>
        <time>2019-12-22T14:08:04Z</time>
      </trkpt>
      <trkpt lat="44.36923" lon="4.15586">
        <ele>281</ele>
        <time>2019-12-22T14:08:05Z</time>
      </trkpt>
      <trkpt lat="44.36929" lon="4.15593">
        <ele>279</ele>
        <time>2019-12-22T14:08:06Z</time>
      </trkpt>
      <trkpt lat="44.36941" lon="4.15604">
        <ele>274</ele>
        <time>2019-12-22T14:08:09Z</time>
      </trkpt>
      <trkpt lat="44.36942" lon="4.15611">
        <ele>273</ele>
        <time>2019-12-22T14:08:10Z</time>
      </trkpt>
      <trkpt lat="44.36941" lon="4.15612">
        <ele>274</ele>
        <time>2019-12-22T14:08:10Z</time>
      </trkpt>
      <trkpt lat="44.36942" lon="4.15611">
        <ele>273</ele>
        <time>2019-12-22T14:08:10Z</time>
      </trkpt>
      <trkpt lat="44.36941" lon="4.15604">
        <ele>274</ele>
        <time>2019-12-22T14:08:11Z</time>
      </trkpt>
      <trkpt lat="44.36929" lon="4.15593">
        <ele>279</ele>
        <time>2019-12-22T14:08:14Z</time>
      </trkpt>
      <trkpt lat="44.36923" lon="4.15586">
        <ele>281</ele>
        <time>2019-12-22T14:08:15Z</time>
      </trkpt>
      <trkpt lat="44.36921" lon="4.15579">
        <ele>281</ele>
        <time>2019-12-22T14:08:16Z</time>
      </trkpt>
      <trkpt lat="44.36922" lon="4.1556">
        <ele>277</ele>
        <time>2019-12-22T14:08:19Z</time>
      </trkpt>
      <trkpt lat="44.36934" lon="4.15515">
        <ele>262</ele>
        <time>2019-12-22T14:08:25Z</time>
      </trkpt>
      <trkpt lat="44.36934" lon="4.15505">
        <ele>260</ele>
        <time>2019-12-22T14:08:26Z</time>
      </trkpt>
      <trkpt lat="44.36932" lon="4.15502">
        <ele>260</ele>
        <time>2019-12-22T14:08:26Z</time>
      </trkpt>
      <trkpt lat="44.36913" lon="4.1549">
        <ele>263</ele>
        <time>2019-12-22T14:08:30Z</time>
      </trkpt>
      <trkpt lat="44.36905" lon="4.1549">
        <ele>263</ele>
        <time>2019-12-22T14:08:32Z</time>
      </trkpt>
      <trkpt lat="44.36901" lon="4.15493">
        <ele>264</ele>
        <time>2019-12-22T14:08:32Z</time>
      </trkpt>
      <trkpt lat="44.36885" lon="4.15521">
        <ele>269</ele>
        <time>2019-12-22T14:08:37Z</time>
      </trkpt>
      <trkpt lat="44.36871" lon="4.15542">
        <ele>272</ele>
        <time>2019-12-22T14:08:41Z</time>
      </trkpt>
      <trkpt lat="44.36855" lon="4.1556">
        <ele>272</ele>
        <time>2019-12-22T14:08:44Z</time>
      </trkpt>
      <trkpt lat="44.36851" lon="4.15563">
        <ele>272</ele>
        <time>2019-12-22T14:08:45Z</time>
      </trkpt>
      <trkpt lat="44.36841" lon="4.15557">
        <ele>271</ele>
        <time>2019-12-22T14:08:47Z</time>
      </trkpt>
      <trkpt lat="44.3681" lon="4.15531">
        <ele>268</ele>
        <time>2019-12-22T14:08:53Z</time>
      </trkpt>
      <trkpt lat="44.36813" lon="4.15527">
        <ele>268</ele>
        <time>2019-12-22T14:08:54Z</time>
      </trkpt>
      <trkpt lat="44.36821" lon="4.15498">
        <ele>268</ele>
        <time>2019-12-22T14:08:58Z</time>
      </trkpt>
      <trkpt lat="44.36825" lon="4.15463">
        <ele>264</ele>
        <time>2019-12-22T14:09:03Z</time>
      </trkpt>
      <trkpt lat="44.36823" lon="4.1545">
        <ele>262</ele>
        <time>2019-12-22T14:09:04Z</time>
      </trkpt>
      <trkpt lat="44.36798" lon="4.15408">
        <ele>264</ele>
        <time>2019-12-22T14:09:11Z</time>
      </trkpt>
      <trkpt lat="44.36773" lon="4.15344">
        <ele>264</ele>
        <time>2019-12-22T14:09:21Z</time>
      </trkpt>
      <trkpt lat="44.36767" lon="4.15326">
        <ele>263</ele>
        <time>2019-12-22T14:09:23Z</time>
      </trkpt>
      <trkpt lat="44.36768" lon="4.15315">
        <ele>263</ele>
        <time>2019-12-22T14:09:24Z</time>
      </trkpt>
      <trkpt lat="44.36774" lon="4.15284">
        <ele>262</ele>
        <time>2019-12-22T14:09:29Z</time>
      </trkpt>
      <trkpt lat="44.36781" lon="4.15276">
        <ele>261</ele>
        <time>2019-12-22T14:09:30Z</time>
      </trkpt>
      <trkpt lat="44.36784" lon="4.1528">
        <ele>261</ele>
        <time>2019-12-22T14:09:31Z</time>
      </trkpt>
      <trkpt lat="44.36794" lon="4.15325">
        <ele>260</ele>
        <time>2019-12-22T14:09:37Z</time>
      </trkpt>
      <trkpt lat="44.36797" lon="4.15333">
        <ele>259</ele>
        <time>2019-12-22T14:09:38Z</time>
      </trkpt>
      <trkpt lat="44.36823" lon="4.15358">
        <ele>256</ele>
        <time>2019-12-22T14:09:44Z</time>
      </trkpt>
      <trkpt lat="44.36854" lon="4.15411">
        <ele>254</ele>
        <time>2019-12-22T14:09:52Z</time>
      </trkpt>
      <trkpt lat="44.36864" lon="4.15421">
        <ele>254</ele>
        <time>2019-12-22T14:09:55Z</time>
      </trkpt>
      <trkpt lat="44.36877" lon="4.15425">
        <ele>253</ele>
        <time>2019-12-22T14:09:57Z</time>
      </trkpt>
      <trkpt lat="44.36894" lon="4.15418">
        <ele>250</ele>
        <time>2019-12-22T14:10:00Z</time>
      </trkpt>
      <trkpt lat="44.36901" lon="4.15417">
        <ele>250</ele>
        <time>2019-12-22T14:10:01Z</time>
      </trkpt>
      <trkpt lat="44.36917" lon="4.1542">
        <ele>249</ele>
        <time>2019-12-22T14:10:04Z</time>
      </trkpt>
      <trkpt lat="44.36962" lon="4.15458">
        <ele>248</ele>
        <time>2019-12-22T14:10:14Z</time>
      </trkpt>
      <trkpt lat="44.37004" lon="4.15503">
        <ele>236</ele>
        <time>2019-12-22T14:10:23Z</time>
      </trkpt>
      <trkpt lat="44.37035" lon="4.15531">
        <ele>229</ele>
        <time>2019-12-22T14:10:30Z</time>
      </trkpt>
      <trkpt lat="44.37039" lon="4.15539">
        <ele>228</ele>
        <time>2019-12-22T14:10:31Z</time>
      </trkpt>
      <trkpt lat="44.3705" lon="4.15584">
        <ele>226</ele>
        <time>2019-12-22T14:10:37Z</time>
      </trkpt>
      <trkpt lat="44.37059" lon="4.15627">
        <ele>221</ele>
        <time>2019-12-22T14:10:43Z</time>
      </trkpt>
      <trkpt lat="44.3706" lon="4.15645">
        <ele>221</ele>
        <time>2019-12-22T14:10:45Z</time>
      </trkpt>
      <trkpt lat="44.37057" lon="4.15679">
        <ele>220</ele>
        <time>2019-12-22T14:10:49Z</time>
      </trkpt>
      <trkpt lat="44.37042" lon="4.15757">
        <ele>215</ele>
        <time>2019-12-22T14:10:59Z</time>
      </trkpt>
      <trkpt lat="44.37034" lon="4.15778">
        <ele>214</ele>
        <time>2019-12-22T14:11:02Z</time>
      </trkpt>
      <trkpt lat="44.37025" lon="4.15798">
        <ele>214</ele>
        <time>2019-12-22T14:11:05Z</time>
      </trkpt>
      <trkpt lat="44.37002" lon="4.15838">
        <ele>213</ele>
        <time>2019-12-22T14:11:12Z</time>
      </trkpt>
      <trkpt lat="44.36985" lon="4.15864">
        <ele>213</ele>
        <time>2019-12-22T14:11:16Z</time>
      </trkpt>
      <trkpt lat="44.36948" lon="4.15933">
        <ele>206</ele>
        <time>2019-12-22T14:11:27Z</time>
      </trkpt>
      <trkpt lat="44.36918" lon="4.15969">
        <ele>202</ele>
        <time>2019-12-22T14:11:34Z</time>
      </trkpt>
      <trkpt lat="44.36897" lon="4.15987">
        <ele>200</ele>
        <time>2019-12-22T14:11:39Z</time>
      </trkpt>
      <trkpt lat="44.3688" lon="4.15992">
        <ele>200</ele>
        <time>2019-12-22T14:11:42Z</time>
      </trkpt>
      <trkpt lat="44.36827" lon="4.16002">
        <ele>201</ele>
        <time>2019-12-22T14:11:51Z</time>
      </trkpt>
      <trkpt lat="44.36806" lon="4.16003">
        <ele>201</ele>
        <time>2019-12-22T14:11:55Z</time>
      </trkpt>
      <trkpt lat="44.36757" lon="4.15998">
        <ele>204</ele>
        <time>2019-12-22T14:12:04Z</time>
      </trkpt>
      <trkpt lat="44.36748" lon="4.16001">
        <ele>204</ele>
        <time>2019-12-22T14:12:06Z</time>
      </trkpt>
      <trkpt lat="44.36745" lon="4.16005">
        <ele>204</ele>
        <time>2019-12-22T14:12:06Z</time>
      </trkpt>
      <trkpt lat="44.36743" lon="4.16013">
        <ele>203</ele>
        <time>2019-12-22T14:12:07Z</time>
      </trkpt>
      <trkpt lat="44.36742" lon="4.16022">
        <ele>202</ele>
        <time>2019-12-22T14:12:09Z</time>
      </trkpt>
      <trkpt lat="44.36744" lon="4.16032">
        <ele>199</ele>
        <time>2019-12-22T14:12:10Z</time>
      </trkpt>
      <trkpt lat="44.36754" lon="4.16072">
        <ele>190</ele>
        <time>2019-12-22T14:12:15Z</time>
      </trkpt>
      <trkpt lat="44.36755" lon="4.16086">
        <ele>187</ele>
        <time>2019-12-22T14:12:17Z</time>
      </trkpt>
      <trkpt lat="44.36754" lon="4.16098">
        <ele>186</ele>
        <time>2019-12-22T14:12:19Z</time>
      </trkpt>
      <trkpt lat="44.36737" lon="4.16146">
        <ele>185</ele>
        <time>2019-12-22T14:12:25Z</time>
      </trkpt>
      <trkpt lat="44.36734" lon="4.16164">
        <ele>184</ele>
        <time>2019-12-22T14:12:28Z</time>
      </trkpt>
      <trkpt lat="44.36733" lon="4.16181">
        <ele>183</ele>
        <time>2019-12-22T14:12:30Z</time>
      </trkpt>
      <trkpt lat="44.36735" lon="4.16208">
        <ele>179</ele>
        <time>2019-12-22T14:12:33Z</time>
      </trkpt>
      <trkpt lat="44.36734" lon="4.16219">
        <ele>178</ele>
        <time>2019-12-22T14:12:35Z</time>
      </trkpt>
      <trkpt lat="44.3673" lon="4.16229">
        <ele>178</ele>
        <time>2019-12-22T14:12:36Z</time>
      </trkpt>
      <trkpt lat="44.36695" lon="4.16283">
        <ele>182</ele>
        <time>2019-12-22T14:12:46Z</time>
      </trkpt>
      <trkpt lat="44.36691" lon="4.16297">
        <ele>181</ele>
        <time>2019-12-22T14:12:47Z</time>
      </trkpt>
      <trkpt lat="44.3669" lon="4.16309">
        <ele>181</ele>
        <time>2019-12-22T14:12:49Z</time>
      </trkpt>
      <trkpt lat="44.36691" lon="4.1636">
        <ele>179</ele>
        <time>2019-12-22T14:12:55Z</time>
      </trkpt>
      <trkpt lat="44.36693" lon="4.16382">
        <ele>178</ele>
        <time>2019-12-22T14:12:58Z</time>
      </trkpt>
      <trkpt lat="44.36697" lon="4.16402">
        <ele>177</ele>
        <time>2019-12-22T14:13:01Z</time>
      </trkpt>
      <trkpt lat="44.36716" lon="4.16475">
        <ele>173</ele>
        <time>2019-12-22T14:13:11Z</time>
      </trkpt>
      <trkpt lat="44.36718" lon="4.16491">
        <ele>173</ele>
        <time>2019-12-22T14:13:13Z</time>
      </trkpt>
      <trkpt lat="44.36717" lon="4.1651">
        <ele>172</ele>
        <time>2019-12-22T14:13:15Z</time>
      </trkpt>
      <trkpt lat="44.36707" lon="4.16588">
        <ele>166</ele>
        <time>2019-12-22T14:13:25Z</time>
      </trkpt>
      <trkpt lat="44.36703" lon="4.16655">
        <ele>162</ele>
        <time>2019-12-22T14:13:34Z</time>
      </trkpt>
      <trkpt lat="44.36809" lon="4.16676">
        <ele>164</ele>
        <time>2019-12-22T14:13:53Z</time>
      </trkpt>
      <trkpt lat="44.37045" lon="4.16685">
        <ele>152</ele>
        <time>2019-12-22T14:14:35Z</time>
      </trkpt>
      <trkpt lat="44.37242" lon="4.16695">
        <ele>148</ele>
        <time>2019-12-22T14:15:10Z</time>
      </trkpt>
      <trkpt lat="44.37436" lon="4.167">
        <ele>152</ele>
        <time>2019-12-22T14:15:45Z</time>
      </trkpt>
      <trkpt lat="44.3746" lon="4.16711">
        <ele>151</ele>
        <time>2019-12-22T14:15:49Z</time>
      </trkpt>
      <trkpt lat="44.3749" lon="4.16739">
        <ele>150</ele>
        <time>2019-12-22T14:15:56Z</time>
      </trkpt>
      <trkpt lat="44.37535" lon="4.16785">
        <ele>152</ele>
        <time>2019-12-22T14:16:05Z</time>
      </trkpt>
      <trkpt lat="44.37745" lon="4.16994">
        <ele>167</ele>
        <time>2019-12-22T14:16:51Z</time>
      </trkpt>
      <trkpt lat="44.37784" lon="4.17044">
        <ele>168</ele>
        <time>2019-12-22T14:17:01Z</time>
      </trkpt>
      <trkpt lat="44.37813" lon="4.17099">
        <ele>169</ele>
        <time>2019-12-22T14:17:09Z</time>
      </trkpt>
      <trkpt lat="44.37831" lon="4.17148">
        <ele>169</ele>
        <time>2019-12-22T14:17:16Z</time>
      </trkpt>
      <trkpt lat="44.37853" lon="4.17257">
        <ele>172</ele>
        <time>2019-12-22T14:17:31Z</time>
      </trkpt>
      <trkpt lat="44.37859" lon="4.17277">
        <ele>172</ele>
        <time>2019-12-22T14:17:34Z</time>
      </trkpt>
      <trkpt lat="44.37868" lon="4.17297">
        <ele>172</ele>
        <time>2019-12-22T14:17:37Z</time>
      </trkpt>
      <trkpt lat="44.37941" lon="4.17507">
        <ele>177</ele>
        <time>2019-12-22T14:18:06Z</time>
      </trkpt>
      <trkpt lat="44.37952" lon="4.17532">
        <ele>178</ele>
        <time>2019-12-22T14:18:10Z</time>
      </trkpt>
      <trkpt lat="44.37966" lon="4.17564">
        <ele>179</ele>
        <time>2019-12-22T14:18:15Z</time>
      </trkpt>
      <trkpt lat="44.37984" lon="4.17579">
        <ele>180</ele>
        <time>2019-12-22T14:18:18Z</time>
      </trkpt>
      <trkpt lat="44.38014" lon="4.17584">
        <ele>182</ele>
        <time>2019-12-22T14:18:24Z</time>
      </trkpt>
      <trkpt lat="44.38042" lon="4.17578">
        <ele>184</ele>
        <time>2019-12-22T14:18:29Z</time>
      </trkpt>
      <trkpt lat="44.38063" lon="4.17566">
        <ele>185</ele>
        <time>2019-12-22T14:18:33Z</time>
      </trkpt>
      <trkpt lat="44.38116" lon="4.17506">
        <ele>190</ele>
        <time>2019-12-22T14:18:45Z</time>
      </trkpt>
      <trkpt lat="44.38139" lon="4.17494">
        <ele>191</ele>
        <time>2019-12-22T14:18:49Z</time>
      </trkpt>
      <trkpt lat="44.38162" lon="4.1749">
        <ele>191</ele>
        <time>2019-12-22T14:18:54Z</time>
      </trkpt>
      <trkpt lat="44.38226" lon="4.17483">
        <ele>193</ele>
        <time>2019-12-22T14:19:05Z</time>
      </trkpt>
      <trkpt lat="44.38254" lon="4.17471">
        <ele>194</ele>
        <time>2019-12-22T14:19:10Z</time>
      </trkpt>
      <trkpt lat="44.38284" lon="4.17445">
        <ele>195</ele>
        <time>2019-12-22T14:19:16Z</time>
      </trkpt>
      <trkpt lat="44.38311" lon="4.17416">
        <ele>196</ele>
        <time>2019-12-22T14:19:23Z</time>
      </trkpt>
      <trkpt lat="44.38338" lon="4.17377">
        <ele>197</ele>
        <time>2019-12-22T14:19:29Z</time>
      </trkpt>
      <trkpt lat="44.38353" lon="4.17326">
        <ele>198</ele>
        <time>2019-12-22T14:19:36Z</time>
      </trkpt>
      <trkpt lat="44.38372" lon="4.17282">
        <ele>198</ele>
        <time>2019-12-22T14:19:43Z</time>
      </trkpt>
      <trkpt lat="44.38392" lon="4.17258">
        <ele>198</ele>
        <time>2019-12-22T14:19:48Z</time>
      </trkpt>
      <trkpt lat="44.38449" lon="4.17213">
        <ele>201</ele>
        <time>2019-12-22T14:19:59Z</time>
      </trkpt>
      <trkpt lat="44.38488" lon="4.17186">
        <ele>203</ele>
        <time>2019-12-22T14:20:07Z</time>
      </trkpt>
      <trkpt lat="44.38505" lon="4.17181">
        <ele>203</ele>
        <time>2019-12-22T14:20:10Z</time>
      </trkpt>
      <trkpt lat="44.38528" lon="4.17184">
        <ele>203</ele>
        <time>2019-12-22T14:20:14Z</time>
      </trkpt>
      <trkpt lat="44.38561" lon="4.17197">
        <ele>203</ele>
        <time>2019-12-22T14:20:20Z</time>
      </trkpt>
      <trkpt lat="44.38626" lon="4.17211">
        <ele>205</ele>
        <time>2019-12-22T14:20:32Z</time>
      </trkpt>
      <trkpt lat="44.38665" lon="4.17206">
        <ele>207</ele>
        <time>2019-12-22T14:20:39Z</time>
      </trkpt>
      <trkpt lat="44.38743" lon="4.17174">
        <ele>212</ele>
        <time>2019-12-22T14:20:53Z</time>
      </trkpt>
      <trkpt lat="44.38813" lon="4.1716">
        <ele>214</ele>
        <time>2019-12-22T14:21:06Z</time>
      </trkpt>
      <trkpt lat="44.38846" lon="4.17166">
        <ele>215</ele>
        <time>2019-12-22T14:21:12Z</time>
      </trkpt>
      <trkpt lat="44.38883" lon="4.17189">
        <ele>217</ele>
        <time>2019-12-22T14:21:19Z</time>
      </trkpt>
      <trkpt lat="44.38903" lon="4.17199">
        <ele>218</ele>
        <time>2019-12-22T14:21:23Z</time>
      </trkpt>
      <trkpt lat="44.38925" lon="4.17198">
        <ele>218</ele>
        <time>2019-12-22T14:21:27Z</time>
      </trkpt>
      <trkpt lat="44.38964" lon="4.17175">
        <ele>219</ele>
        <time>2019-12-22T14:21:34Z</time>
      </trkpt>
      <trkpt lat="44.3898" lon="4.17155">
        <ele>220</ele>
        <time>2019-12-22T14:21:38Z</time>
      </trkpt>
      <trkpt lat="44.38993" lon="4.17125">
        <ele>222</ele>
        <time>2019-12-22T14:21:43Z</time>
      </trkpt>
      <trkpt lat="44.39015" lon="4.17094">
        <ele>224</ele>
        <time>2019-12-22T14:21:48Z</time>
      </trkpt>
      <trkpt lat="44.39058" lon="4.17065">
        <ele>225</ele>
        <time>2019-12-22T14:21:57Z</time>
      </trkpt>
      <trkpt lat="44.39155" lon="4.1701">
        <ele>225</ele>
        <time>2019-12-22T14:22:15Z</time>
      </trkpt>
      <trkpt lat="44.392" lon="4.16989">
        <ele>227</ele>
        <time>2019-12-22T14:22:24Z</time>
      </trkpt>
      <trkpt lat="44.39239" lon="4.16961">
        <ele>229</ele>
        <time>2019-12-22T14:22:32Z</time>
      </trkpt>
      <trkpt lat="44.39273" lon="4.1693">
        <ele>229</ele>
        <time>2019-12-22T14:22:39Z</time>
      </trkpt>
      <trkpt lat="44.39298" lon="4.16899">
        <ele>231</ele>
        <time>2019-12-22T14:22:45Z</time>
      </trkpt>
      <trkpt lat="44.39324" lon="4.1688">
        <ele>233</ele>
        <time>2019-12-22T14:22:50Z</time>
      </trkpt>
      <trkpt lat="44.39397" lon="4.16856">
        <ele>233</ele>
        <time>2019-12-22T14:23:03Z</time>
      </trkpt>
      <trkpt lat="44.39498" lon="4.16828">
        <ele>227</ele>
        <time>2019-12-22T14:23:22Z</time>
      </trkpt>
      <trkpt lat="44.39597" lon="4.16798">
        <ele>226</ele>
        <time>2019-12-22T14:23:40Z</time>
      </trkpt>
      <trkpt lat="44.3959" lon="4.16864">
        <ele>225</ele>
        <time>2019-12-22T14:23:48Z</time>
      </trkpt>
      <trkpt lat="44.39589" lon="4.1697">
        <ele>223</ele>
        <time>2019-12-22T14:24:02Z</time>
      </trkpt>
      <trkpt lat="44.39592" lon="4.17069">
        <ele>221</ele>
        <time>2019-12-22T14:24:14Z</time>
      </trkpt>
      <trkpt lat="44.39596" lon="4.17103">
        <ele>221</ele>
        <time>2019-12-22T14:24:19Z</time>
      </trkpt>
      <trkpt lat="44.39602" lon="4.17128">
        <ele>221</ele>
        <time>2019-12-22T14:24:22Z</time>
      </trkpt>
      <trkpt lat="44.3961" lon="4.17147">
        <ele>221</ele>
        <time>2019-12-22T14:24:25Z</time>
      </trkpt>
      <trkpt lat="44.39622" lon="4.17156">
        <ele>221</ele>
        <time>2019-12-22T14:24:27Z</time>
      </trkpt>
      <trkpt lat="44.39653" lon="4.1717">
        <ele>221</ele>
        <time>2019-12-22T14:24:33Z</time>
      </trkpt>
      <trkpt lat="44.39662" lon="4.17176">
        <ele>221</ele>
        <time>2019-12-22T14:24:35Z</time>
      </trkpt>
      <trkpt lat="44.39665" lon="4.17186">
        <ele>221</ele>
        <time>2019-12-22T14:24:36Z</time>
      </trkpt>
      <trkpt lat="44.3966" lon="4.17257">
        <ele>222</ele>
        <time>2019-12-22T14:24:45Z</time>
      </trkpt>
      <trkpt lat="44.39664" lon="4.17275">
        <ele>222</ele>
        <time>2019-12-22T14:24:48Z</time>
      </trkpt>
      <trkpt lat="44.39681" lon="4.17318">
        <ele>224</ele>
        <time>2019-12-22T14:24:54Z</time>
      </trkpt>
      <trkpt lat="44.39683" lon="4.1733">
        <ele>225</ele>
        <time>2019-12-22T14:24:55Z</time>
      </trkpt>
      <trkpt lat="44.39683" lon="4.1736">
        <ele>225</ele>
        <time>2019-12-22T14:24:59Z</time>
      </trkpt>
      <trkpt lat="44.39645" lon="4.17453">
        <ele>222</ele>
        <time>2019-12-22T14:25:13Z</time>
      </trkpt>
      <trkpt lat="44.39641" lon="4.17466">
        <ele>221</ele>
        <time>2019-12-22T14:25:15Z</time>
      </trkpt>
      <trkpt lat="44.3964" lon="4.17485">
        <ele>220</ele>
        <time>2019-12-22T14:25:17Z</time>
      </trkpt>
      <trkpt lat="44.39646" lon="4.17538">
        <ele>219</ele>
        <time>2019-12-22T14:25:24Z</time>
      </trkpt>
      <trkpt lat="44.39646" lon="4.17564">
        <ele>219</ele>
        <time>2019-12-22T14:25:27Z</time>
      </trkpt>
      <trkpt lat="44.39632" lon="4.17584">
        <ele>218</ele>
        <time>2019-12-22T14:25:31Z</time>
      </trkpt>
      <trkpt lat="44.3962" lon="4.1761">
        <ele>217</ele>
        <time>2019-12-22T14:25:35Z</time>
      </trkpt>
      <trkpt lat="44.396" lon="4.17661">
        <ele>216</ele>
        <time>2019-12-22T14:25:42Z</time>
      </trkpt>
      <trkpt lat="44.39598" lon="4.17686">
        <ele>216</ele>
        <time>2019-12-22T14:25:45Z</time>
      </trkpt>
      <trkpt lat="44.39601" lon="4.1771">
        <ele>217</ele>
        <time>2019-12-22T14:25:48Z</time>
      </trkpt>
      <trkpt lat="44.39598" lon="4.17719">
        <ele>217</ele>
        <time>2019-12-22T14:25:50Z</time>
      </trkpt>
      <trkpt lat="44.39589" lon="4.17726">
        <ele>217</ele>
        <time>2019-12-22T14:25:51Z</time>
      </trkpt>
      <trkpt lat="44.39581" lon="4.17728">
        <ele>216</ele>
        <time>2019-12-22T14:25:53Z</time>
      </trkpt>
      <trkpt lat="44.39568" lon="4.17724">
        <ele>216</ele>
        <time>2019-12-22T14:25:55Z</time>
      </trkpt>
      <trkpt lat="44.3951" lon="4.17702">
        <ele>212</ele>
        <time>2019-12-22T14:26:06Z</time>
      </trkpt>
      <trkpt lat="44.39474" lon="4.1768">
        <ele>210</ele>
        <time>2019-12-22T14:26:13Z</time>
      </trkpt>
      <trkpt lat="44.39455" lon="4.17675">
        <ele>210</ele>
        <time>2019-12-22T14:26:16Z</time>
      </trkpt>
      <trkpt lat="44.39432" lon="4.17677">
        <ele>209</ele>
        <time>2019-12-22T14:26:21Z</time>
      </trkpt>
      <trkpt lat="44.39415" lon="4.17683">
        <ele>209</ele>
        <time>2019-12-22T14:26:24Z</time>
      </trkpt>
      <trkpt lat="44.39406" lon="4.17696">
        <ele>209</ele>
        <time>2019-12-22T14:26:26Z</time>
      </trkpt>
      <trkpt lat="44.39401" lon="4.17714">
        <ele>208</ele>
        <time>2019-12-22T14:26:28Z</time>
      </trkpt>
      <trkpt lat="44.39407" lon="4.17733">
        <ele>208</ele>
        <time>2019-12-22T14:26:31Z</time>
      </trkpt>
      <trkpt lat="44.39417" lon="4.17742">
        <ele>207</ele>
        <time>2019-12-22T14:26:33Z</time>
      </trkpt>
      <trkpt lat="44.39473" lon="4.17769">
        <ele>210</ele>
        <time>2019-12-22T14:26:44Z</time>
      </trkpt>
      <trkpt lat="44.39543" lon="4.17821">
        <ele>212</ele>
        <time>2019-12-22T14:26:58Z</time>
      </trkpt>
      <trkpt lat="44.39592" lon="4.17875">
        <ele>212</ele>
        <time>2019-12-22T14:27:09Z</time>
      </trkpt>
      <trkpt lat="44.39605" lon="4.17904">
        <ele>211</ele>
        <time>2019-12-22T14:27:13Z</time>
      </trkpt>
      <trkpt lat="44.39626" lon="4.17931">
        <ele>210</ele>
        <time>2019-12-22T14:27:18Z</time>
      </trkpt>
      <trkpt lat="44.39627" lon="4.17965">
        <ele>210</ele>
        <time>2019-12-22T14:27:23Z</time>
      </trkpt>
      <trkpt lat="44.39616" lon="4.18025">
        <ele>210</ele>
        <time>2019-12-22T14:27:31Z</time>
      </trkpt>
      <trkpt lat="44.39606" lon="4.18046">
        <ele>210</ele>
        <time>2019-12-22T14:27:34Z</time>
      </trkpt>
      <trkpt lat="44.39593" lon="4.18055">
        <ele>209</ele>
        <time>2019-12-22T14:27:36Z</time>
      </trkpt>
      <trkpt lat="44.39568" lon="4.18065">
        <ele>209</ele>
        <time>2019-12-22T14:27:41Z</time>
      </trkpt>
      <trkpt lat="44.39544" lon="4.18092">
        <ele>209</ele>
        <time>2019-12-22T14:27:46Z</time>
      </trkpt>
      <trkpt lat="44.39538" lon="4.18104">
        <ele>209</ele>
        <time>2019-12-22T14:27:48Z</time>
      </trkpt>
      <trkpt lat="44.39527" lon="4.18145">
        <ele>208</ele>
        <time>2019-12-22T14:27:54Z</time>
      </trkpt>
      <trkpt lat="44.39477" lon="4.18246">
        <ele>205</ele>
        <time>2019-12-22T14:28:09Z</time>
      </trkpt>
      <trkpt lat="44.39446" lon="4.1834">
        <ele>204</ele>
        <time>2019-12-22T14:28:23Z</time>
      </trkpt>
      <trkpt lat="44.39437" lon="4.1835">
        <ele>203</ele>
        <time>2019-12-22T14:28:25Z</time>
      </trkpt>
      <trkpt lat="44.3943" lon="4.18363">
        <ele>202</ele>
        <time>2019-12-22T14:28:27Z</time>
      </trkpt>
      <trkpt lat="44.39426" lon="4.18392">
        <ele>200</ele>
        <time>2019-12-22T14:28:30Z</time>
      </trkpt>
      <trkpt lat="44.39418" lon="4.18507">
        <ele>194</ele>
        <time>2019-12-22T14:28:45Z</time>
      </trkpt>
      <trkpt lat="44.39406" lon="4.18551">
        <ele>195</ele>
        <time>2019-12-22T14:28:51Z</time>
      </trkpt>
      <trkpt lat="44.39405" lon="4.18571">
        <ele>195</ele>
        <time>2019-12-22T14:28:54Z</time>
      </trkpt>
      <trkpt lat="44.39412" lon="4.18614">
        <ele>195</ele>
        <time>2019-12-22T14:28:59Z</time>
      </trkpt>
      <trkpt lat="44.39402" lon="4.18661">
        <ele>195</ele>
        <time>2019-12-22T14:29:06Z</time>
      </trkpt>
      <trkpt lat="44.394" lon="4.18678">
        <ele>195</ele>
        <time>2019-12-22T14:29:08Z</time>
      </trkpt>
      <trkpt lat="44.39405" lon="4.18706">
        <ele>196</ele>
        <time>2019-12-22T14:29:11Z</time>
      </trkpt>
      <trkpt lat="44.39406" lon="4.18722">
        <ele>196</ele>
        <time>2019-12-22T14:29:13Z</time>
      </trkpt>
      <trkpt lat="44.39403" lon="4.18745">
        <ele>196</ele>
        <time>2019-12-22T14:29:16Z</time>
      </trkpt>
      <trkpt lat="44.39382" lon="4.18799">
        <ele>196</ele>
        <time>2019-12-22T14:29:24Z</time>
      </trkpt>
      <trkpt lat="44.39375" lon="4.18842">
        <ele>196</ele>
        <time>2019-12-22T14:29:30Z</time>
      </trkpt>
      <trkpt lat="44.39362" lon="4.18973">
        <ele>192</ele>
        <time>2019-12-22T14:29:47Z</time>
      </trkpt>
      <trkpt lat="44.39364" lon="4.19031">
        <ele>192</ele>
        <time>2019-12-22T14:29:54Z</time>
      </trkpt>
      <trkpt lat="44.39357" lon="4.19104">
        <ele>191</ele>
        <time>2019-12-22T14:30:03Z</time>
      </trkpt>
      <trkpt lat="44.3935" lon="4.19127">
        <ele>191</ele>
        <time>2019-12-22T14:30:07Z</time>
      </trkpt>
      <trkpt lat="44.39339" lon="4.19146">
        <ele>190</ele>
        <time>2019-12-22T14:30:10Z</time>
      </trkpt>
      <trkpt lat="44.39322" lon="4.19149">
        <ele>190</ele>
        <time>2019-12-22T14:30:13Z</time>
      </trkpt>
      <trkpt lat="44.39298" lon="4.19147">
        <ele>190</ele>
        <time>2019-12-22T14:30:17Z</time>
      </trkpt>
      <trkpt lat="44.39256" lon="4.1913">
        <ele>191</ele>
        <time>2019-12-22T14:30:25Z</time>
      </trkpt>
      <trkpt lat="44.3924" lon="4.19119">
        <ele>190</ele>
        <time>2019-12-22T14:30:28Z</time>
      </trkpt>
      <trkpt lat="44.39197" lon="4.19061">
        <ele>187</ele>
        <time>2019-12-22T14:30:39Z</time>
      </trkpt>
      <trkpt lat="44.39186" lon="4.19052">
        <ele>186</ele>
        <time>2019-12-22T14:30:41Z</time>
      </trkpt>
      <trkpt lat="44.39176" lon="4.19051">
        <ele>186</ele>
        <time>2019-12-22T14:30:43Z</time>
      </trkpt>
      <trkpt lat="44.3916" lon="4.19058">
        <ele>186</ele>
        <time>2019-12-22T14:30:46Z</time>
      </trkpt>
      <trkpt lat="44.3915" lon="4.19073">
        <ele>186</ele>
        <time>2019-12-22T14:30:48Z</time>
      </trkpt>
      <trkpt lat="44.39142" lon="4.19092">
        <ele>186</ele>
        <time>2019-12-22T14:30:51Z</time>
      </trkpt>
      <trkpt lat="44.39134" lon="4.19119">
        <ele>187</ele>
        <time>2019-12-22T14:30:55Z</time>
      </trkpt>
      <trkpt lat="44.39128" lon="4.19145">
        <ele>187</ele>
        <time>2019-12-22T14:30:58Z</time>
      </trkpt>
      <trkpt lat="44.39125" lon="4.19189">
        <ele>187</ele>
        <time>2019-12-22T14:31:04Z</time>
      </trkpt>
      <trkpt lat="44.39134" lon="4.1925">
        <ele>186</ele>
        <time>2019-12-22T14:31:12Z</time>
      </trkpt>
      <trkpt lat="44.39154" lon="4.1934">
        <ele>185</ele>
        <time>2019-12-22T14:31:24Z</time>
      </trkpt>
      <trkpt lat="44.39165" lon="4.19434">
        <ele>179</ele>
        <time>2019-12-22T14:31:36Z</time>
      </trkpt>
      <trkpt lat="44.3917" lon="4.19504">
        <ele>177</ele>
        <time>2019-12-22T14:31:45Z</time>
      </trkpt>
      <trkpt lat="44.39167" lon="4.19538">
        <ele>176</ele>
        <time>2019-12-22T14:31:49Z</time>
      </trkpt>
      <trkpt lat="44.39158" lon="4.19568">
        <ele>175</ele>
        <time>2019-12-22T14:31:53Z</time>
      </trkpt>
      <trkpt lat="44.39148" lon="4.19593">
        <ele>176</ele>
        <time>2019-12-22T14:31:57Z</time>
      </trkpt>
      <trkpt lat="44.39146" lon="4.19601">
        <ele>176</ele>
        <time>2019-12-22T14:31:58Z</time>
      </trkpt>
      <trkpt lat="44.39148" lon="4.19616">
        <ele>177</ele>
        <time>2019-12-22T14:32:00Z</time>
      </trkpt>
      <trkpt lat="44.39151" lon="4.19622">
        <ele>177</ele>
        <time>2019-12-22T14:32:01Z</time>
      </trkpt>
      <trkpt lat="44.39159" lon="4.19628">
        <ele>177</ele>
        <time>2019-12-22T14:32:03Z</time>
      </trkpt>
      <trkpt lat="44.392" lon="4.19631">
        <ele>175</ele>
        <time>2019-12-22T14:32:10Z</time>
      </trkpt>
      <trkpt lat="44.39217" lon="4.19636">
        <ele>175</ele>
        <time>2019-12-22T14:32:13Z</time>
      </trkpt>
      <trkpt lat="44.39276" lon="4.19663">
        <ele>172</ele>
        <time>2019-12-22T14:32:24Z</time>
      </trkpt>
      <trkpt lat="44.39341" lon="4.19697">
        <ele>168</ele>
        <time>2019-12-22T14:32:36Z</time>
      </trkpt>
      <trkpt lat="44.39349" lon="4.19703">
        <ele>167</ele>
        <time>2019-12-22T14:32:38Z</time>
      </trkpt>
      <trkpt lat="44.39366" lon="4.19727">
        <ele>166</ele>
        <time>2019-12-22T14:32:42Z</time>
      </trkpt>
      <trkpt lat="44.39389" lon="4.19783">
        <ele>163</ele>
        <time>2019-12-22T14:32:50Z</time>
      </trkpt>
      <trkpt lat="44.39392" lon="4.19794">
        <ele>163</ele>
        <time>2019-12-22T14:32:52Z</time>
      </trkpt>
      <trkpt lat="44.39393" lon="4.19811">
        <ele>164</ele>
        <time>2019-12-22T14:32:54Z</time>
      </trkpt>
      <trkpt lat="44.39388" lon="4.19843">
        <ele>168</ele>
        <time>2019-12-22T14:32:58Z</time>
      </trkpt>
      <trkpt lat="44.39386" lon="4.19867">
        <ele>170</ele>
        <time>2019-12-22T14:33:01Z</time>
      </trkpt>
      <trkpt lat="44.39387" lon="4.19873">
        <ele>170</ele>
        <time>2019-12-22T14:33:02Z</time>
      </trkpt>
      <trkpt lat="44.39392" lon="4.19881">
        <ele>170</ele>
        <time>2019-12-22T14:33:03Z</time>
      </trkpt>
      <trkpt lat="44.394" lon="4.19885">
        <ele>168</ele>
        <time>2019-12-22T14:33:05Z</time>
      </trkpt>
      <trkpt lat="44.39424" lon="4.19877">
        <ele>163</ele>
        <time>2019-12-22T14:33:09Z</time>
      </trkpt>
      <trkpt lat="44.39436" lon="4.19879">
        <ele>160</ele>
        <time>2019-12-22T14:33:12Z</time>
      </trkpt>
      <trkpt lat="44.39445" lon="4.19884">
        <ele>159</ele>
        <time>2019-12-22T14:33:13Z</time>
      </trkpt>
      <trkpt lat="44.39462" lon="4.1991">
        <ele>157</ele>
        <time>2019-12-22T14:33:18Z</time>
      </trkpt>
      <trkpt lat="44.39508" lon="4.20009">
        <ele>158</ele>
        <time>2019-12-22T14:33:33Z</time>
      </trkpt>
      <trkpt lat="44.39519" lon="4.20048">
        <ele>159</ele>
        <time>2019-12-22T14:33:38Z</time>
      </trkpt>
      <trkpt lat="44.39529" lon="4.20092">
        <ele>160</ele>
        <time>2019-12-22T14:33:44Z</time>
      </trkpt>
      <trkpt lat="44.39537" lon="4.20116">
        <ele>160</ele>
        <time>2019-12-22T14:33:47Z</time>
      </trkpt>
      <trkpt lat="44.39567" lon="4.20193">
        <ele>157</ele>
        <time>2019-12-22T14:33:58Z</time>
      </trkpt>
      <trkpt lat="44.39586" lon="4.2023">
        <ele>153</ele>
        <time>2019-12-22T14:34:04Z</time>
      </trkpt>
      <trkpt lat="44.39598" lon="4.20269">
        <ele>153</ele>
        <time>2019-12-22T14:34:10Z</time>
      </trkpt>
      <trkpt lat="44.39603" lon="4.20297">
        <ele>153</ele>
        <time>2019-12-22T14:34:13Z</time>
      </trkpt>
      <trkpt lat="44.39603" lon="4.20349">
        <ele>155</ele>
        <time>2019-12-22T14:34:20Z</time>
      </trkpt>
      <trkpt lat="44.39612" lon="4.20433">
        <ele>152</ele>
        <time>2019-12-22T14:34:31Z</time>
      </trkpt>
      <trkpt lat="44.3962" lon="4.20464">
        <ele>149</ele>
        <time>2019-12-22T14:34:35Z</time>
      </trkpt>
      <trkpt lat="44.39633" lon="4.20491">
        <ele>146</ele>
        <time>2019-12-22T14:34:39Z</time>
      </trkpt>
      <trkpt lat="44.39647" lon="4.20505">
        <ele>143</ele>
        <time>2019-12-22T14:34:42Z</time>
      </trkpt>
      <trkpt lat="44.39644" lon="4.20487">
        <ele>143</ele>
        <time>2019-12-22T14:34:44Z</time>
      </trkpt>
      <trkpt lat="44.39634" lon="4.20467">
        <ele>145</ele>
        <time>2019-12-22T14:34:48Z</time>
      </trkpt>
      <trkpt lat="44.39627" lon="4.20447">
        <ele>147</ele>
        <time>2019-12-22T14:34:50Z</time>
      </trkpt>
      <trkpt lat="44.39626" lon="4.20434">
        <ele>148</ele>
        <time>2019-12-22T14:34:52Z</time>
      </trkpt>
      <trkpt lat="44.39628" lon="4.20409">
        <ele>147</ele>
        <time>2019-12-22T14:34:55Z</time>
      </trkpt>
      <trkpt lat="44.39633" lon="4.20361">
        <ele>144</ele>
        <time>2019-12-22T14:35:01Z</time>
      </trkpt>
      <trkpt lat="44.39632" lon="4.20328">
        <ele>144</ele>
        <time>2019-12-22T14:35:06Z</time>
      </trkpt>
      <trkpt lat="44.3963" lon="4.20301">
        <ele>143</ele>
        <time>2019-12-22T14:35:09Z</time>
      </trkpt>
      <trkpt lat="44.39623" lon="4.20245">
        <ele>143</ele>
        <time>2019-12-22T14:35:16Z</time>
      </trkpt>
      <trkpt lat="44.39611" lon="4.20186">
        <ele>143</ele>
        <time>2019-12-22T14:35:24Z</time>
      </trkpt>
      <trkpt lat="44.39609" lon="4.20174">
        <ele>143</ele>
        <time>2019-12-22T14:35:26Z</time>
      </trkpt>
      <trkpt lat="44.396" lon="4.20158">
        <ele>144</ele>
        <time>2019-12-22T14:35:28Z</time>
      </trkpt>
      <trkpt lat="44.39581" lon="4.20138">
        <ele>146</ele>
        <time>2019-12-22T14:35:32Z</time>
      </trkpt>
      <trkpt lat="44.39559" lon="4.20105">
        <ele>151</ele>
        <time>2019-12-22T14:35:38Z</time>
      </trkpt>
      <trkpt lat="44.39553" lon="4.20089">
        <ele>152</ele>
        <time>2019-12-22T14:35:41Z</time>
      </trkpt>
      <trkpt lat="44.39548" lon="4.20042">
        <ele>149</ele>
        <time>2019-12-22T14:35:47Z</time>
      </trkpt>
      <trkpt lat="44.39543" lon="4.19961">
        <ele>142</ele>
        <time>2019-12-22T14:35:57Z</time>
      </trkpt>
      <trkpt lat="44.39545" lon="4.19945">
        <ele>139</ele>
        <time>2019-12-22T14:35:59Z</time>
      </trkpt>
      <trkpt lat="44.39561" lon="4.19907">
        <ele>131</ele>
        <time>2019-12-22T14:36:05Z</time>
      </trkpt>
      <trkpt lat="44.39577" lon="4.19877">
        <ele>124</ele>
        <time>2019-12-22T14:36:09Z</time>
      </trkpt>
      <trkpt lat="44.39642" lon="4.1979">
        <ele>127</ele>
        <time>2019-12-22T14:36:25Z</time>
      </trkpt>
      <trkpt lat="44.3967" lon="4.19756">
        <ele>134</ele>
        <time>2019-12-22T14:36:32Z</time>
      </trkpt>
      <trkpt lat="44.39678" lon="4.19738">
        <ele>140</ele>
        <time>2019-12-22T14:36:35Z</time>
      </trkpt>
      <trkpt lat="44.3968" lon="4.1972">
        <ele>143</ele>
        <time>2019-12-22T14:36:37Z</time>
      </trkpt>
      <trkpt lat="44.39678" lon="4.19701">
        <ele>144</ele>
        <time>2019-12-22T14:36:39Z</time>
      </trkpt>
      <trkpt lat="44.39652" lon="4.19655">
        <ele>143</ele>
        <time>2019-12-22T14:36:47Z</time>
      </trkpt>
      <trkpt lat="44.3965" lon="4.19642">
        <ele>143</ele>
        <time>2019-12-22T14:36:49Z</time>
      </trkpt>
      <trkpt lat="44.39651" lon="4.19633">
        <ele>144</ele>
        <time>2019-12-22T14:36:50Z</time>
      </trkpt>
      <trkpt lat="44.39653" lon="4.19627">
        <ele>145</ele>
        <time>2019-12-22T14:36:51Z</time>
      </trkpt>
      <trkpt lat="44.39658" lon="4.19623">
        <ele>147</ele>
        <time>2019-12-22T14:36:52Z</time>
      </trkpt>
      <trkpt lat="44.39662" lon="4.19622">
        <ele>148</ele>
        <time>2019-12-22T14:36:52Z</time>
      </trkpt>
      <trkpt lat="44.39668" lon="4.19625">
        <ele>149</ele>
        <time>2019-12-22T14:36:53Z</time>
      </trkpt>
      <trkpt lat="44.39679" lon="4.19641">
        <ele>151</ele>
        <time>2019-12-22T14:36:56Z</time>
      </trkpt>
      <trkpt lat="44.39704" lon="4.19694">
        <ele>155</ele>
        <time>2019-12-22T14:37:04Z</time>
      </trkpt>
      <trkpt lat="44.39707" lon="4.19709">
        <ele>154</ele>
        <time>2019-12-22T14:37:06Z</time>
      </trkpt>
      <trkpt lat="44.39709" lon="4.19736">
        <ele>151</ele>
        <time>2019-12-22T14:37:10Z</time>
      </trkpt>
      <trkpt lat="44.39711" lon="4.19744">
        <ele>151</ele>
        <time>2019-12-22T14:37:11Z</time>
      </trkpt>
      <trkpt lat="44.39718" lon="4.19754">
        <ele>152</ele>
        <time>2019-12-22T14:37:13Z</time>
      </trkpt>
      <trkpt lat="44.39722" lon="4.19763">
        <ele>152</ele>
        <time>2019-12-22T14:37:14Z</time>
      </trkpt>
      <trkpt lat="44.39723" lon="4.19773">
        <ele>151</ele>
        <time>2019-12-22T14:37:15Z</time>
      </trkpt>
      <trkpt lat="44.39725" lon="4.19836">
        <ele>144</ele>
        <time>2019-12-22T14:37:23Z</time>
      </trkpt>
      <trkpt lat="44.39728" lon="4.19876">
        <ele>140</ele>
        <time>2019-12-22T14:37:28Z</time>
      </trkpt>
      <trkpt lat="44.39727" lon="4.19896">
        <ele>137</ele>
        <time>2019-12-22T14:37:31Z</time>
      </trkpt>
      <trkpt lat="44.39733" lon="4.19916">
        <ele>136</ele>
        <time>2019-12-22T14:37:34Z</time>
      </trkpt>
      <trkpt lat="44.39739" lon="4.19922">
        <ele>136</ele>
        <time>2019-12-22T14:37:35Z</time>
      </trkpt>
      <trkpt lat="44.39744" lon="4.19925">
        <ele>137</ele>
        <time>2019-12-22T14:37:36Z</time>
      </trkpt>
      <trkpt lat="44.39811" lon="4.19937">
        <ele>143</ele>
        <time>2019-12-22T14:37:48Z</time>
      </trkpt>
      <trkpt lat="44.39824" lon="4.19933">
        <ele>145</ele>
        <time>2019-12-22T14:37:50Z</time>
      </trkpt>
      <trkpt lat="44.39852" lon="4.19916">
        <ele>151</ele>
        <time>2019-12-22T14:37:56Z</time>
      </trkpt>
      <trkpt lat="44.39863" lon="4.19912">
        <ele>153</ele>
        <time>2019-12-22T14:37:58Z</time>
      </trkpt>
      <trkpt lat="44.39876" lon="4.19911">
        <ele>155</ele>
        <time>2019-12-22T14:38:00Z</time>
      </trkpt>
      <trkpt lat="44.39941" lon="4.19925">
        <ele>159</ele>
        <time>2019-12-22T14:38:12Z</time>
      </trkpt>
      <trkpt lat="44.39977" lon="4.1992">
        <ele>163</ele>
        <time>2019-12-22T14:38:18Z</time>
      </trkpt>
      <trkpt lat="44.39992" lon="4.19909">
        <ele>167</ele>
        <time>2019-12-22T14:38:21Z</time>
      </trkpt>
      <trkpt lat="44.40003" lon="4.19906">
        <ele>168</ele>
        <time>2019-12-22T14:38:23Z</time>
      </trkpt>
      <trkpt lat="44.40008" lon="4.19908">
        <ele>167</ele>
        <time>2019-12-22T14:38:24Z</time>
      </trkpt>
      <trkpt lat="44.4002" lon="4.19921">
        <ele>164</ele>
        <time>2019-12-22T14:38:27Z</time>
      </trkpt>
      <trkpt lat="44.4003" lon="4.19924">
        <ele>163</ele>
        <time>2019-12-22T14:38:29Z</time>
      </trkpt>
      <trkpt lat="44.40059" lon="4.19917">
        <ele>165</ele>
        <time>2019-12-22T14:38:34Z</time>
      </trkpt>
      <trkpt lat="44.40071" lon="4.19911">
        <ele>166</ele>
        <time>2019-12-22T14:38:36Z</time>
      </trkpt>
      <trkpt lat="44.40096" lon="4.19888">
        <ele>169</ele>
        <time>2019-12-22T14:38:42Z</time>
      </trkpt>
      <trkpt lat="44.40108" lon="4.19874">
        <ele>170</ele>
        <time>2019-12-22T14:38:44Z</time>
      </trkpt>
      <trkpt lat="44.4012" lon="4.19851">
        <ele>174</ele>
        <time>2019-12-22T14:38:48Z</time>
      </trkpt>
      <trkpt lat="44.40124" lon="4.19837">
        <ele>178</ele>
        <time>2019-12-22T14:38:50Z</time>
      </trkpt>
      <trkpt lat="44.40127" lon="4.19818">
        <ele>179</ele>
        <time>2019-12-22T14:38:52Z</time>
      </trkpt>
      <trkpt lat="44.40127" lon="4.19803">
        <ele>180</ele>
        <time>2019-12-22T14:38:54Z</time>
      </trkpt>
      <trkpt lat="44.40122" lon="4.19776">
        <ele>183</ele>
        <time>2019-12-22T14:38:58Z</time>
      </trkpt>
      <trkpt lat="44.40115" lon="4.19753">
        <ele>185</ele>
        <time>2019-12-22T14:39:01Z</time>
      </trkpt>
      <trkpt lat="44.40094" lon="4.19702">
        <ele>188</ele>
        <time>2019-12-22T14:39:08Z</time>
      </trkpt>
      <trkpt lat="44.40106" lon="4.19698">
        <ele>188</ele>
        <time>2019-12-22T14:39:11Z</time>
      </trkpt>
      <trkpt lat="44.40236" lon="4.19637">
        <ele>193</ele>
        <time>2019-12-22T14:39:35Z</time>
      </trkpt>
      <trkpt lat="44.40283" lon="4.19622">
        <ele>195</ele>
        <time>2019-12-22T14:39:44Z</time>
      </trkpt>
      <trkpt lat="44.40312" lon="4.19592">
        <ele>196</ele>
        <time>2019-12-22T14:39:50Z</time>
      </trkpt>
      <trkpt lat="44.40343" lon="4.19589">
        <ele>195</ele>
        <time>2019-12-22T14:39:56Z</time>
      </trkpt>
      <trkpt lat="44.40368" lon="4.19591">
        <ele>192</ele>
        <time>2019-12-22T14:40:00Z</time>
      </trkpt>
      <trkpt lat="44.40385" lon="4.19595">
        <ele>191</ele>
        <time>2019-12-22T14:40:03Z</time>
      </trkpt>
      <trkpt lat="44.40416" lon="4.19606">
        <ele>189</ele>
        <time>2019-12-22T14:40:09Z</time>
      </trkpt>
      <trkpt lat="44.40435" lon="4.19616">
        <ele>183</ele>
        <time>2019-12-22T14:40:12Z</time>
      </trkpt>
      <trkpt lat="44.40505" lon="4.19672">
        <ele>178</ele>
        <time>2019-12-22T14:40:27Z</time>
      </trkpt>
      <trkpt lat="44.40526" lon="4.19679">
        <ele>179</ele>
        <time>2019-12-22T14:40:31Z</time>
      </trkpt>
      <trkpt lat="44.40543" lon="4.19676">
        <ele>178</ele>
        <time>2019-12-22T14:40:34Z</time>
      </trkpt>
      <trkpt lat="44.40577" lon="4.1968">
        <ele>177</ele>
        <time>2019-12-22T14:40:40Z</time>
      </trkpt>
      <trkpt lat="44.40615" lon="4.19699">
        <ele>182</ele>
        <time>2019-12-22T14:40:47Z</time>
      </trkpt>
      <trkpt lat="44.40643" lon="4.19721">
        <ele>186</ele>
        <time>2019-12-22T14:40:53Z</time>
      </trkpt>
      <trkpt lat="44.40684" lon="4.19741">
        <ele>188</ele>
        <time>2019-12-22T14:41:00Z</time>
      </trkpt>
      <trkpt lat="44.40749" lon="4.1976">
        <ele>195</ele>
        <time>2019-12-22T14:41:12Z</time>
      </trkpt>
      <trkpt lat="44.40796" lon="4.19778">
        <ele>199</ele>
        <time>2019-12-22T14:41:21Z</time>
      </trkpt>
      <trkpt lat="44.40855" lon="4.19822">
        <ele>205</ele>
        <time>2019-12-22T14:41:33Z</time>
      </trkpt>
      <trkpt lat="44.4087" lon="4.19825">
        <ele>207</ele>
        <time>2019-12-22T14:41:35Z</time>
      </trkpt>
      <trkpt lat="44.40882" lon="4.19825">
        <ele>207</ele>
        <time>2019-12-22T14:41:38Z</time>
      </trkpt>
      <trkpt lat="44.40898" lon="4.1981">
        <ele>208</ele>
        <time>2019-12-22T14:41:41Z</time>
      </trkpt>
      <trkpt lat="44.40905" lon="4.1979">
        <ele>208</ele>
        <time>2019-12-22T14:41:44Z</time>
      </trkpt>
      <trkpt lat="44.40912" lon="4.19777">
        <ele>208</ele>
        <time>2019-12-22T14:41:46Z</time>
      </trkpt>
      <trkpt lat="44.40922" lon="4.1977">
        <ele>209</ele>
        <time>2019-12-22T14:41:48Z</time>
      </trkpt>
      <trkpt lat="44.40931" lon="4.1977">
        <ele>210</ele>
        <time>2019-12-22T14:41:49Z</time>
      </trkpt>
      <trkpt lat="44.4094" lon="4.19779">
        <ele>211</ele>
        <time>2019-12-22T14:41:51Z</time>
      </trkpt>
      <trkpt lat="44.40948" lon="4.19794">
        <ele>212</ele>
        <time>2019-12-22T14:41:54Z</time>
      </trkpt>
      <trkpt lat="44.40959" lon="4.19808">
        <ele>212</ele>
        <time>2019-12-22T14:41:56Z</time>
      </trkpt>
      <trkpt lat="44.40973" lon="4.19813">
        <ele>213</ele>
        <time>2019-12-22T14:41:59Z</time>
      </trkpt>
      <trkpt lat="44.4102" lon="4.19803">
        <ele>217</ele>
        <time>2019-12-22T14:42:07Z</time>
      </trkpt>
      <trkpt lat="44.4103" lon="4.19806">
        <ele>217</ele>
        <time>2019-12-22T14:42:09Z</time>
      </trkpt>
      <trkpt lat="44.41037" lon="4.19813">
        <ele>218</ele>
        <time>2019-12-22T14:42:11Z</time>
      </trkpt>
      <trkpt lat="44.41055" lon="4.19863">
        <ele>215</ele>
        <time>2019-12-22T14:42:18Z</time>
      </trkpt>
      <trkpt lat="44.4107" lon="4.19893">
        <ele>213</ele>
        <time>2019-12-22T14:42:23Z</time>
      </trkpt>
      <trkpt lat="44.41088" lon="4.19907">
        <ele>211</ele>
        <time>2019-12-22T14:42:26Z</time>
      </trkpt>
      <trkpt lat="44.41104" lon="4.19908">
        <ele>211</ele>
        <time>2019-12-22T14:42:29Z</time>
      </trkpt>
      <trkpt lat="44.41133" lon="4.19904">
        <ele>211</ele>
        <time>2019-12-22T14:42:34Z</time>
      </trkpt>
      <trkpt lat="44.41157" lon="4.19895">
        <ele>212</ele>
        <time>2019-12-22T14:42:39Z</time>
      </trkpt>
      <trkpt lat="44.41226" lon="4.19889">
        <ele>212</ele>
        <time>2019-12-22T14:42:51Z</time>
      </trkpt>
      <trkpt lat="44.41244" lon="4.19891">
        <ele>211</ele>
        <time>2019-12-22T14:42:54Z</time>
      </trkpt>
      <trkpt lat="44.41277" lon="4.19908">
        <ele>207</ele>
        <time>2019-12-22T14:43:00Z</time>
      </trkpt>
      <trkpt lat="44.4129" lon="4.1991">
        <ele>207</ele>
        <time>2019-12-22T14:43:03Z</time>
      </trkpt>
      <trkpt lat="44.41308" lon="4.19899">
        <ele>207</ele>
        <time>2019-12-22T14:43:06Z</time>
      </trkpt>
      <trkpt lat="44.41329" lon="4.19868">
        <ele>209</ele>
        <time>2019-12-22T14:43:12Z</time>
      </trkpt>
      <trkpt lat="44.41339" lon="4.1986">
        <ele>209</ele>
        <time>2019-12-22T14:43:14Z</time>
      </trkpt>
      <trkpt lat="44.41368" lon="4.19858">
        <ele>209</ele>
        <time>2019-12-22T14:43:19Z</time>
      </trkpt>
      <trkpt lat="44.41375" lon="4.19854">
        <ele>209</ele>
        <time>2019-12-22T14:43:20Z</time>
      </trkpt>
      <trkpt lat="44.41381" lon="4.19847">
        <ele>209</ele>
        <time>2019-12-22T14:43:22Z</time>
      </trkpt>
      <trkpt lat="44.41406" lon="4.19757">
        <ele>214</ele>
        <time>2019-12-22T14:43:34Z</time>
      </trkpt>
      <trkpt lat="44.41418" lon="4.19678">
        <ele>218</ele>
        <time>2019-12-22T14:43:44Z</time>
      </trkpt>
      <trkpt lat="44.41426" lon="4.19654">
        <ele>219</ele>
        <time>2019-12-22T14:43:48Z</time>
      </trkpt>
      <trkpt lat="44.4142" lon="4.19644">
        <ele>220</ele>
        <time>2019-12-22T14:43:49Z</time>
      </trkpt>
      <trkpt lat="44.41392" lon="4.19628">
        <ele>225</ele>
        <time>2019-12-22T14:43:55Z</time>
      </trkpt>
      <trkpt lat="44.41386" lon="4.1962">
        <ele>226</ele>
        <time>2019-12-22T14:43:56Z</time>
      </trkpt>
      <trkpt lat="44.41386" lon="4.19598">
        <ele>227</ele>
        <time>2019-12-22T14:43:59Z</time>
      </trkpt>
      <trkpt lat="44.41391" lon="4.19507">
        <ele>230</ele>
        <time>2019-12-22T14:44:10Z</time>
      </trkpt>
      <trkpt lat="44.41385" lon="4.19451">
        <ele>232</ele>
        <time>2019-12-22T14:44:18Z</time>
      </trkpt>
      <trkpt lat="44.41376" lon="4.19427">
        <ele>234</ele>
        <time>2019-12-22T14:44:21Z</time>
      </trkpt>
      <trkpt lat="44.41359" lon="4.19393">
        <ele>236</ele>
        <time>2019-12-22T14:44:26Z</time>
      </trkpt>
      <trkpt lat="44.41355" lon="4.19372">
        <ele>237</ele>
        <time>2019-12-22T14:44:29Z</time>
      </trkpt>
      <trkpt lat="44.41355" lon="4.19357">
        <ele>237</ele>
        <time>2019-12-22T14:44:31Z</time>
      </trkpt>
      <trkpt lat="44.41358" lon="4.19331">
        <ele>237</ele>
        <time>2019-12-22T14:44:34Z</time>
      </trkpt>
      <trkpt lat="44.41361" lon="4.19291">
        <ele>237</ele>
        <time>2019-12-22T14:44:40Z</time>
      </trkpt>
      <trkpt lat="44.41359" lon="4.19273">
        <ele>237</ele>
        <time>2019-12-22T14:44:42Z</time>
      </trkpt>
      <trkpt lat="44.41353" lon="4.19256">
        <ele>238</ele>
        <time>2019-12-22T14:44:44Z</time>
      </trkpt>
      <trkpt lat="44.41344" lon="4.19244">
        <ele>238</ele>
        <time>2019-12-22T14:44:46Z</time>
      </trkpt>
      <trkpt lat="44.41249" lon="4.19171">
        <ele>237</ele>
        <time>2019-12-22T14:45:06Z</time>
      </trkpt>
      <trkpt lat="44.41226" lon="4.19149">
        <ele>237</ele>
        <time>2019-12-22T14:45:11Z</time>
      </trkpt>
      <trkpt lat="44.41218" lon="4.19135">
        <ele>236</ele>
        <time>2019-12-22T14:45:13Z</time>
      </trkpt>
      <trkpt lat="44.41215" lon="4.19122">
        <ele>236</ele>
        <time>2019-12-22T14:45:15Z</time>
      </trkpt>
      <trkpt lat="44.41215" lon="4.19103">
        <ele>235</ele>
        <time>2019-12-22T14:45:17Z</time>
      </trkpt>
      <trkpt lat="44.41263" lon="4.18817">
        <ele>236</ele>
        <time>2019-12-22T14:45:54Z</time>
      </trkpt>
      <trkpt lat="44.41294" lon="4.18671">
        <ele>229</ele>
        <time>2019-12-22T14:46:14Z</time>
      </trkpt>
      <trkpt lat="44.41298" lon="4.18646">
        <ele>229</ele>
        <time>2019-12-22T14:46:17Z</time>
      </trkpt>
      <trkpt lat="44.413" lon="4.18615">
        <ele>230</ele>
        <time>2019-12-22T14:46:21Z</time>
      </trkpt>
      <trkpt lat="44.41295" lon="4.18589">
        <ele>229</ele>
        <time>2019-12-22T14:46:24Z</time>
      </trkpt>
      <trkpt lat="44.41262" lon="4.18509">
        <ele>231</ele>
        <time>2019-12-22T14:46:36Z</time>
      </trkpt>
      <trkpt lat="44.41252" lon="4.1848">
        <ele>234</ele>
        <time>2019-12-22T14:46:40Z</time>
      </trkpt>
      <trkpt lat="44.4125" lon="4.18461">
        <ele>236</ele>
        <time>2019-12-22T14:46:43Z</time>
      </trkpt>
      <trkpt lat="44.41253" lon="4.18437">
        <ele>239</ele>
        <time>2019-12-22T14:46:46Z</time>
      </trkpt>
      <trkpt lat="44.41266" lon="4.18404">
        <ele>241</ele>
        <time>2019-12-22T14:46:51Z</time>
      </trkpt>
      <trkpt lat="44.41385" lon="4.18188">
        <ele>234</ele>
        <time>2019-12-22T14:47:25Z</time>
      </trkpt>
      <trkpt lat="44.41405" lon="4.18149">
        <ele>227</ele>
        <time>2019-12-22T14:47:31Z</time>
      </trkpt>
      <trkpt lat="44.41417" lon="4.18138">
        <ele>224</ele>
        <time>2019-12-22T14:47:34Z</time>
      </trkpt>
      <trkpt lat="44.41434" lon="4.18132">
        <ele>219</ele>
        <time>2019-12-22T14:47:37Z</time>
      </trkpt>
      <trkpt lat="44.41455" lon="4.18131">
        <ele>215</ele>
        <time>2019-12-22T14:47:41Z</time>
      </trkpt>
      <trkpt lat="44.41485" lon="4.18137">
        <ele>212</ele>
        <time>2019-12-22T14:47:46Z</time>
      </trkpt>
      <trkpt lat="44.41505" lon="4.18148">
        <ele>211</ele>
        <time>2019-12-22T14:47:50Z</time>
      </trkpt>
      <trkpt lat="44.4151" lon="4.18159">
        <ele>212</ele>
        <time>2019-12-22T14:47:52Z</time>
      </trkpt>
      <trkpt lat="44.41512" lon="4.18168">
        <ele>214</ele>
        <time>2019-12-22T14:47:53Z</time>
      </trkpt>
      <trkpt lat="44.41513" lon="4.18229">
        <ele>221</ele>
        <time>2019-12-22T14:48:01Z</time>
      </trkpt>
      <trkpt lat="44.41539" lon="4.1829">
        <ele>215</ele>
        <time>2019-12-22T14:48:10Z</time>
      </trkpt>
      <trkpt lat="44.41547" lon="4.18358">
        <ele>222</ele>
        <time>2019-12-22T14:48:18Z</time>
      </trkpt>
      <trkpt lat="44.41566" lon="4.18414">
        <ele>227</ele>
        <time>2019-12-22T14:48:26Z</time>
      </trkpt>
      <trkpt lat="44.41572" lon="4.18423">
        <ele>228</ele>
        <time>2019-12-22T14:48:28Z</time>
      </trkpt>
      <trkpt lat="44.4158" lon="4.18426">
        <ele>227</ele>
        <time>2019-12-22T14:48:29Z</time>
      </trkpt>
      <trkpt lat="44.41588" lon="4.18423">
        <ele>225</ele>
        <time>2019-12-22T14:48:31Z</time>
      </trkpt>
      <trkpt lat="44.41602" lon="4.18406">
        <ele>220</ele>
        <time>2019-12-22T14:48:34Z</time>
      </trkpt>
      <trkpt lat="44.41621" lon="4.18391">
        <ele>215</ele>
        <time>2019-12-22T14:48:38Z</time>
      </trkpt>
      <trkpt lat="44.41635" lon="4.18386">
        <ele>212</ele>
        <time>2019-12-22T14:48:41Z</time>
      </trkpt>
      <trkpt lat="44.41642" lon="4.18386">
        <ele>212</ele>
        <time>2019-12-22T14:48:42Z</time>
      </trkpt>
      <trkpt lat="44.41719" lon="4.18414">
        <ele>217</ele>
        <time>2019-12-22T14:48:56Z</time>
      </trkpt>
      <trkpt lat="44.41733" lon="4.18417">
        <ele>217</ele>
        <time>2019-12-22T14:48:58Z</time>
      </trkpt>
      <trkpt lat="44.41743" lon="4.18412">
        <ele>215</ele>
        <time>2019-12-22T14:49:00Z</time>
      </trkpt>
      <trkpt lat="44.41749" lon="4.18404">
        <ele>212</ele>
        <time>2019-12-22T14:49:02Z</time>
      </trkpt>
      <trkpt lat="44.41756" lon="4.18388">
        <ele>208</ele>
        <time>2019-12-22T14:49:04Z</time>
      </trkpt>
      <trkpt lat="44.41759" lon="4.18373">
        <ele>203</ele>
        <time>2019-12-22T14:49:06Z</time>
      </trkpt>
      <trkpt lat="44.41767" lon="4.18364">
        <ele>201</ele>
        <time>2019-12-22T14:49:08Z</time>
      </trkpt>
      <trkpt lat="44.41775" lon="4.18361">
        <ele>201</ele>
        <time>2019-12-22T14:49:09Z</time>
      </trkpt>
      <trkpt lat="44.41795" lon="4.18359">
        <ele>202</ele>
        <time>2019-12-22T14:49:13Z</time>
      </trkpt>
      <trkpt lat="44.41816" lon="4.1836">
        <ele>204</ele>
        <time>2019-12-22T14:49:17Z</time>
      </trkpt>
      <trkpt lat="44.41832" lon="4.18356">
        <ele>204</ele>
        <time>2019-12-22T14:49:20Z</time>
      </trkpt>
      <trkpt lat="44.41851" lon="4.18338">
        <ele>201</ele>
        <time>2019-12-22T14:49:24Z</time>
      </trkpt>
      <trkpt lat="44.41886" lon="4.18297">
        <ele>195</ele>
        <time>2019-12-22T14:49:32Z</time>
      </trkpt>
      <trkpt lat="44.41949" lon="4.18251">
        <ele>187</ele>
        <time>2019-12-22T14:49:45Z</time>
      </trkpt>
      <trkpt lat="44.41984" lon="4.18238">
        <ele>183</ele>
        <time>2019-12-22T14:49:51Z</time>
      </trkpt>
      <trkpt lat="44.41995" lon="4.18231">
        <ele>181</ele>
        <time>2019-12-22T14:49:53Z</time>
      </trkpt>
      <trkpt lat="44.41999" lon="4.18224">
        <ele>180</ele>
        <time>2019-12-22T14:49:54Z</time>
      </trkpt>
      <trkpt lat="44.41999" lon="4.18211">
        <ele>177</ele>
        <time>2019-12-22T14:49:56Z</time>
      </trkpt>
      <trkpt lat="44.41993" lon="4.182">
        <ele>175</ele>
        <time>2019-12-22T14:49:58Z</time>
      </trkpt>
      <trkpt lat="44.41987" lon="4.18193">
        <ele>173</ele>
        <time>2019-12-22T14:49:59Z</time>
      </trkpt>
      <trkpt lat="44.4198" lon="4.18191">
        <ele>172</ele>
        <time>2019-12-22T14:50:00Z</time>
      </trkpt>
      <trkpt lat="44.41957" lon="4.18193">
        <ele>172</ele>
        <time>2019-12-22T14:50:04Z</time>
      </trkpt>
      <trkpt lat="44.41936" lon="4.18202">
        <ele>174</ele>
        <time>2019-12-22T14:50:08Z</time>
      </trkpt>
      <trkpt lat="44.41922" lon="4.18211">
        <ele>177</ele>
        <time>2019-12-22T14:50:11Z</time>
      </trkpt>
      <trkpt lat="44.41892" lon="4.18251">
        <ele>182</ele>
        <time>2019-12-22T14:50:18Z</time>
      </trkpt>
      <trkpt lat="44.41886" lon="4.18251">
        <ele>180</ele>
        <time>2019-12-22T14:50:20Z</time>
      </trkpt>
      <trkpt lat="44.41882" lon="4.18247">
        <ele>178</ele>
        <time>2019-12-22T14:50:20Z</time>
      </trkpt>
      <trkpt lat="44.41882" lon="4.18241">
        <ele>176</ele>
        <time>2019-12-22T14:50:21Z</time>
      </trkpt>
      <trkpt lat="44.41889" lon="4.18229">
        <ele>175</ele>
        <time>2019-12-22T14:50:23Z</time>
      </trkpt>
      <trkpt lat="44.41971" lon="4.18114">
        <ele>159</ele>
        <time>2019-12-22T14:50:44Z</time>
      </trkpt>
      <trkpt lat="44.41981" lon="4.18086">
        <ele>157</ele>
        <time>2019-12-22T14:50:48Z</time>
      </trkpt>
      <trkpt lat="44.41988" lon="4.1805">
        <ele>154</ele>
        <time>2019-12-22T14:50:53Z</time>
      </trkpt>
      <trkpt lat="44.4199" lon="4.18013">
        <ele>151</ele>
        <time>2019-12-22T14:50:57Z</time>
      </trkpt>
      <trkpt lat="44.41986" lon="4.17977">
        <ele>149</ele>
        <time>2019-12-22T14:51:02Z</time>
      </trkpt>
      <trkpt lat="44.41971" lon="4.17933">
        <ele>148</ele>
        <time>2019-12-22T14:51:08Z</time>
      </trkpt>
      <trkpt lat="44.41951" lon="4.17869">
        <ele>148</ele>
        <time>2019-12-22T14:51:17Z</time>
      </trkpt>
      <trkpt lat="44.4193" lon="4.17767">
        <ele>148</ele>
        <time>2019-12-22T14:51:30Z</time>
      </trkpt>
      <trkpt lat="44.4192" lon="4.17747">
        <ele>147</ele>
        <time>2019-12-22T14:51:34Z</time>
      </trkpt>
      <trkpt lat="44.41866" lon="4.17724">
        <ele>145</ele>
        <time>2019-12-22T14:51:44Z</time>
      </trkpt>
      <trkpt lat="44.41848" lon="4.17701">
        <ele>144</ele>
        <time>2019-12-22T14:51:48Z</time>
      </trkpt>
      <trkpt lat="44.41837" lon="4.17682">
        <ele>143</ele>
        <time>2019-12-22T14:51:51Z</time>
      </trkpt>
      <trkpt lat="44.41825" lon="4.1766">
        <ele>144</ele>
        <time>2019-12-22T14:51:55Z</time>
      </trkpt>
      <trkpt lat="44.41744" lon="4.17604">
        <ele>149</ele>
        <time>2019-12-22T14:52:11Z</time>
      </trkpt>
      <trkpt lat="44.4173" lon="4.17582">
        <ele>150</ele>
        <time>2019-12-22T14:52:14Z</time>
      </trkpt>
      <trkpt lat="44.41694" lon="4.17539">
        <ele>149</ele>
        <time>2019-12-22T14:52:23Z</time>
      </trkpt>
      <trkpt lat="44.41677" lon="4.17497">
        <ele>149</ele>
        <time>2019-12-22T14:52:29Z</time>
      </trkpt>
      <trkpt lat="44.41641" lon="4.17449">
        <ele>151</ele>
        <time>2019-12-22T14:52:38Z</time>
      </trkpt>
      <trkpt lat="44.41598" lon="4.1741">
        <ele>152</ele>
        <time>2019-12-22T14:52:47Z</time>
      </trkpt>
      <trkpt lat="44.41591" lon="4.17381">
        <ele>152</ele>
        <time>2019-12-22T14:52:51Z</time>
      </trkpt>
      <trkpt lat="44.416" lon="4.17393">
        <ele>152</ele>
        <time>2019-12-22T14:52:53Z</time>
      </trkpt>
      <trkpt lat="44.41653" lon="4.17408">
        <ele>155</ele>
        <time>2019-12-22T14:53:03Z</time>
      </trkpt>
      <trkpt lat="44.4167" lon="4.17417">
        <ele>156</ele>
        <time>2019-12-22T14:53:06Z</time>
      </trkpt>
      <trkpt lat="44.41716" lon="4.17453">
        <ele>157</ele>
        <time>2019-12-22T14:53:15Z</time>
      </trkpt>
      <trkpt lat="44.41758" lon="4.17494">
        <ele>157</ele>
        <time>2019-12-22T14:53:24Z</time>
      </trkpt>
      <trkpt lat="44.41799" lon="4.17538">
        <ele>158</ele>
        <time>2019-12-22T14:53:33Z</time>
      </trkpt>
      <trkpt lat="44.41819" lon="4.17553">
        <ele>158</ele>
        <time>2019-12-22T14:53:38Z</time>
      </trkpt>
      <trkpt lat="44.41859" lon="4.17561">
        <ele>161</ele>
        <time>2019-12-22T14:53:45Z</time>
      </trkpt>
      <trkpt lat="44.41886" lon="4.17571">
        <ele>162</ele>
        <time>2019-12-22T14:53:50Z</time>
      </trkpt>
      <trkpt lat="44.41909" lon="4.17587">
        <ele>162</ele>
        <time>2019-12-22T14:53:54Z</time>
      </trkpt>
      <trkpt lat="44.42034" lon="4.17684">
        <ele>166</ele>
        <time>2019-12-22T14:54:20Z</time>
      </trkpt>
      <trkpt lat="44.42252" lon="4.17821">
        <ele>169</ele>
        <time>2019-12-22T14:55:02Z</time>
      </trkpt>
      <trkpt lat="44.42265" lon="4.17827">
        <ele>167</ele>
        <time>2019-12-22T14:55:05Z</time>
      </trkpt>
      <trkpt lat="44.42288" lon="4.17829">
        <ele>165</ele>
        <time>2019-12-22T14:55:09Z</time>
      </trkpt>
      <trkpt lat="44.42316" lon="4.17817">
        <ele>166</ele>
        <time>2019-12-22T14:55:14Z</time>
      </trkpt>
      <trkpt lat="44.42368" lon="4.17783">
        <ele>172</ele>
        <time>2019-12-22T14:55:24Z</time>
      </trkpt>
      <trkpt lat="44.42389" lon="4.17773">
        <ele>173</ele>
        <time>2019-12-22T14:55:28Z</time>
      </trkpt>
      <trkpt lat="44.42402" lon="4.17774">
        <ele>172</ele>
        <time>2019-12-22T14:55:30Z</time>
      </trkpt>
      <trkpt lat="44.4241" lon="4.1778">
        <ele>171</ele>
        <time>2019-12-22T14:55:32Z</time>
      </trkpt>
      <trkpt lat="44.42419" lon="4.17794">
        <ele>169</ele>
        <time>2019-12-22T14:55:34Z</time>
      </trkpt>
      <trkpt lat="44.42438" lon="4.1783">
        <ele>165</ele>
        <time>2019-12-22T14:55:40Z</time>
      </trkpt>
      <trkpt lat="44.42489" lon="4.17919">
        <ele>169</ele>
        <time>2019-12-22T14:55:55Z</time>
      </trkpt>
      <trkpt lat="44.42511" lon="4.17968">
        <ele>170</ele>
        <time>2019-12-22T14:56:02Z</time>
      </trkpt>
      <trkpt lat="44.42541" lon="4.18047">
        <ele>172</ele>
        <time>2019-12-22T14:56:13Z</time>
      </trkpt>
      <trkpt lat="44.4255" lon="4.18085">
        <ele>171</ele>
        <time>2019-12-22T14:56:18Z</time>
      </trkpt>
      <trkpt lat="44.42551" lon="4.18113">
        <ele>171</ele>
        <time>2019-12-22T14:56:22Z</time>
      </trkpt>
      <trkpt lat="44.42547" lon="4.18159">
        <ele>170</ele>
        <time>2019-12-22T14:56:28Z</time>
      </trkpt>
      <trkpt lat="44.42547" lon="4.18185">
        <ele>169</ele>
        <time>2019-12-22T14:56:31Z</time>
      </trkpt>
      <trkpt lat="44.42549" lon="4.18207">
        <ele>169</ele>
        <time>2019-12-22T14:56:34Z</time>
      </trkpt>
      <trkpt lat="44.42557" lon="4.18247">
        <ele>169</ele>
        <time>2019-12-22T14:56:39Z</time>
      </trkpt>
      <trkpt lat="44.42574" lon="4.18296">
        <ele>168</ele>
        <time>2019-12-22T14:56:46Z</time>
      </trkpt>
      <trkpt lat="44.42592" lon="4.18333">
        <ele>167</ele>
        <time>2019-12-22T14:56:52Z</time>
      </trkpt>
      <trkpt lat="44.42609" lon="4.18358">
        <ele>167</ele>
        <time>2019-12-22T14:56:56Z</time>
      </trkpt>
      <trkpt lat="44.42633" lon="4.18381">
        <ele>167</ele>
        <time>2019-12-22T14:57:01Z</time>
      </trkpt>
      <trkpt lat="44.42661" lon="4.18397">
        <ele>167</ele>
        <time>2019-12-22T14:57:07Z</time>
      </trkpt>
      <trkpt lat="44.42684" lon="4.18405">
        <ele>167</ele>
        <time>2019-12-22T14:57:11Z</time>
      </trkpt>
      <trkpt lat="44.42704" lon="4.18407">
        <ele>167</ele>
        <time>2019-12-22T14:57:15Z</time>
      </trkpt>
      <trkpt lat="44.4277" lon="4.18406">
        <ele>170</ele>
        <time>2019-12-22T14:57:26Z</time>
      </trkpt>
      <trkpt lat="44.42794" lon="4.1841">
        <ele>170</ele>
        <time>2019-12-22T14:57:31Z</time>
      </trkpt>
      <trkpt lat="44.42885" lon="4.18435">
        <ele>177</ele>
        <time>2019-12-22T14:57:47Z</time>
      </trkpt>
      <trkpt lat="44.42908" lon="4.18449">
        <ele>177</ele>
        <time>2019-12-22T14:57:52Z</time>
      </trkpt>
      <trkpt lat="44.42922" lon="4.18461">
        <ele>177</ele>
        <time>2019-12-22T14:57:55Z</time>
      </trkpt>
      <trkpt lat="44.43087" lon="4.18617">
        <ele>177</ele>
        <time>2019-12-22T14:58:30Z</time>
      </trkpt>
      <trkpt lat="44.43098" lon="4.18633">
        <ele>175</ele>
        <time>2019-12-22T14:58:33Z</time>
      </trkpt>
      <trkpt lat="44.43106" lon="4.1865">
        <ele>173</ele>
        <time>2019-12-22T14:58:35Z</time>
      </trkpt>
      <trkpt lat="44.43111" lon="4.18669">
        <ele>171</ele>
        <time>2019-12-22T14:58:38Z</time>
      </trkpt>
      <trkpt lat="44.43115" lon="4.18699">
        <ele>172</ele>
        <time>2019-12-22T14:58:42Z</time>
      </trkpt>
      <trkpt lat="44.43107" lon="4.18766">
        <ele>173</ele>
        <time>2019-12-22T14:58:50Z</time>
      </trkpt>
      <trkpt lat="44.43108" lon="4.18799">
        <ele>175</ele>
        <time>2019-12-22T14:58:55Z</time>
      </trkpt>
      <trkpt lat="44.43111" lon="4.18816">
        <ele>176</ele>
        <time>2019-12-22T14:58:57Z</time>
      </trkpt>
      <trkpt lat="44.43119" lon="4.18836">
        <ele>177</ele>
        <time>2019-12-22T14:59:00Z</time>
      </trkpt>
      <trkpt lat="44.4313" lon="4.18851">
        <ele>177</ele>
        <time>2019-12-22T14:59:03Z</time>
      </trkpt>
      <trkpt lat="44.43151" lon="4.18877">
        <ele>179</ele>
        <time>2019-12-22T14:59:08Z</time>
      </trkpt>
      <trkpt lat="44.43305" lon="4.19039">
        <ele>185</ele>
        <time>2019-12-22T14:59:42Z</time>
      </trkpt>
      <trkpt lat="44.43643" lon="4.19408">
        <ele>187</ele>
        <time>2019-12-22T15:00:58Z</time>
      </trkpt>
      <trkpt lat="44.43675" lon="4.19444">
        <ele>184</ele>
        <time>2019-12-22T15:01:05Z</time>
      </trkpt>
      <trkpt lat="44.43707" lon="4.19488">
        <ele>188</ele>
        <time>2019-12-22T15:01:13Z</time>
      </trkpt>
      <trkpt lat="44.43718" lon="4.19515">
        <ele>190</ele>
        <time>2019-12-22T15:01:17Z</time>
      </trkpt>
      <trkpt lat="44.43725" lon="4.19544">
        <ele>191</ele>
        <time>2019-12-22T15:01:21Z</time>
      </trkpt>
      <trkpt lat="44.43745" lon="4.19601">
        <ele>192</ele>
        <time>2019-12-22T15:01:29Z</time>
      </trkpt>
      <trkpt lat="44.43778" lon="4.19663">
        <ele>191</ele>
        <time>2019-12-22T15:01:39Z</time>
      </trkpt>
      <trkpt lat="44.43798" lon="4.19704">
        <ele>194</ele>
        <time>2019-12-22T15:01:45Z</time>
      </trkpt>
      <trkpt lat="44.43818" lon="4.1976">
        <ele>197</ele>
        <time>2019-12-22T15:01:53Z</time>
      </trkpt>
      <trkpt lat="44.43844" lon="4.19876">
        <ele>197</ele>
        <time>2019-12-22T15:02:09Z</time>
      </trkpt>
      <trkpt lat="44.43862" lon="4.19921">
        <ele>197</ele>
        <time>2019-12-22T15:02:15Z</time>
      </trkpt>
      <trkpt lat="44.43876" lon="4.19941">
        <ele>198</ele>
        <time>2019-12-22T15:02:19Z</time>
      </trkpt>
      <trkpt lat="44.43892" lon="4.19955">
        <ele>199</ele>
        <time>2019-12-22T15:02:22Z</time>
      </trkpt>
      <trkpt lat="44.44023" lon="4.20034">
        <ele>205</ele>
        <time>2019-12-22T15:02:48Z</time>
      </trkpt>
      <trkpt lat="44.44049" lon="4.20055">
        <ele>206</ele>
        <time>2019-12-22T15:02:53Z</time>
      </trkpt>
      <trkpt lat="44.44071" lon="4.20083">
        <ele>205</ele>
        <time>2019-12-22T15:02:58Z</time>
      </trkpt>
      <trkpt lat="44.44091" lon="4.20129">
        <ele>204</ele>
        <time>2019-12-22T15:03:05Z</time>
      </trkpt>
      <trkpt lat="44.44107" lon="4.2016">
        <ele>206</ele>
        <time>2019-12-22T15:03:10Z</time>
      </trkpt>
      <trkpt lat="44.44137" lon="4.2019">
        <ele>209</ele>
        <time>2019-12-22T15:03:16Z</time>
      </trkpt>
      <trkpt lat="44.44197" lon="4.20238">
        <ele>210</ele>
        <time>2019-12-22T15:03:29Z</time>
      </trkpt>
      <trkpt lat="44.44212" lon="4.20258">
        <ele>209</ele>
        <time>2019-12-22T15:03:32Z</time>
      </trkpt>
      <trkpt lat="44.44219" lon="4.20282">
        <ele>209</ele>
        <time>2019-12-22T15:03:36Z</time>
      </trkpt>
      <trkpt lat="44.44236" lon="4.20349">
        <ele>206</ele>
        <time>2019-12-22T15:03:45Z</time>
      </trkpt>
      <trkpt lat="44.44247" lon="4.20374">
        <ele>204</ele>
        <time>2019-12-22T15:03:49Z</time>
      </trkpt>
      <trkpt lat="44.44272" lon="4.20402">
        <ele>206</ele>
        <time>2019-12-22T15:03:54Z</time>
      </trkpt>
      <trkpt lat="44.44343" lon="4.20466">
        <ele>211</ele>
        <time>2019-12-22T15:04:09Z</time>
      </trkpt>
      <trkpt lat="44.44374" lon="4.205">
        <ele>213</ele>
        <time>2019-12-22T15:04:16Z</time>
      </trkpt>
      <trkpt lat="44.4441" lon="4.20557">
        <ele>213</ele>
        <time>2019-12-22T15:04:26Z</time>
      </trkpt>
      <trkpt lat="44.44433" lon="4.20582">
        <ele>213</ele>
        <time>2019-12-22T15:04:31Z</time>
      </trkpt>
      <trkpt lat="44.44485" lon="4.20625">
        <ele>216</ele>
        <time>2019-12-22T15:04:42Z</time>
      </trkpt>
      <trkpt lat="44.44514" lon="4.20657">
        <ele>216</ele>
        <time>2019-12-22T15:04:48Z</time>
      </trkpt>
      <trkpt lat="44.4455" lon="4.20713">
        <ele>215</ele>
        <time>2019-12-22T15:04:58Z</time>
      </trkpt>
      <trkpt lat="44.4457" lon="4.20735">
        <ele>215</ele>
        <time>2019-12-22T15:05:03Z</time>
      </trkpt>
      <trkpt lat="44.44597" lon="4.20756">
        <ele>216</ele>
        <time>2019-12-22T15:05:08Z</time>
      </trkpt>
      <trkpt lat="44.44618" lon="4.20779">
        <ele>217</ele>
        <time>2019-12-22T15:05:13Z</time>
      </trkpt>
      <trkpt lat="44.44632" lon="4.20804">
        <ele>217</ele>
        <time>2019-12-22T15:05:17Z</time>
      </trkpt>
      <trkpt lat="44.44665" lon="4.20882">
        <ele>217</ele>
        <time>2019-12-22T15:05:28Z</time>
      </trkpt>
      <trkpt lat="44.44681" lon="4.20907">
        <ele>217</ele>
        <time>2019-12-22T15:05:33Z</time>
      </trkpt>
      <trkpt lat="44.447" lon="4.20929">
        <ele>218</ele>
        <time>2019-12-22T15:05:37Z</time>
      </trkpt>
      <trkpt lat="44.44729" lon="4.2095">
        <ele>220</ele>
        <time>2019-12-22T15:05:43Z</time>
      </trkpt>
      <trkpt lat="44.44875" lon="4.21047">
        <ele>223</ele>
        <time>2019-12-22T15:06:12Z</time>
      </trkpt>
      <trkpt lat="44.44945" lon="4.21088">
        <ele>225</ele>
        <time>2019-12-22T15:06:25Z</time>
      </trkpt>
      <trkpt lat="44.44973" lon="4.21102">
        <ele>226</ele>
        <time>2019-12-22T15:06:30Z</time>
      </trkpt>
      <trkpt lat="44.44998" lon="4.2111">
        <ele>227</ele>
        <time>2019-12-22T15:06:35Z</time>
      </trkpt>
      <trkpt lat="44.4503" lon="4.21112">
        <ele>228</ele>
        <time>2019-12-22T15:06:41Z</time>
      </trkpt>
      <trkpt lat="44.45054" lon="4.21117">
        <ele>228</ele>
        <time>2019-12-22T15:06:45Z</time>
      </trkpt>
      <trkpt lat="44.45075" lon="4.21126">
        <ele>229</ele>
        <time>2019-12-22T15:06:49Z</time>
      </trkpt>
      <trkpt lat="44.45088" lon="4.21138">
        <ele>228</ele>
        <time>2019-12-22T15:06:52Z</time>
      </trkpt>
      <trkpt lat="44.45104" lon="4.21158">
        <ele>229</ele>
        <time>2019-12-22T15:06:55Z</time>
      </trkpt>
      <trkpt lat="44.45324" lon="4.21471">
        <ele>233</ele>
        <time>2019-12-22T15:07:51Z</time>
      </trkpt>
      <trkpt lat="44.45352" lon="4.21497">
        <ele>234</ele>
        <time>2019-12-22T15:07:57Z</time>
      </trkpt>
      <trkpt lat="44.45376" lon="4.21511">
        <ele>235</ele>
        <time>2019-12-22T15:08:02Z</time>
      </trkpt>
      <trkpt lat="44.45405" lon="4.21518">
        <ele>237</ele>
        <time>2019-12-22T15:08:07Z</time>
      </trkpt>
      <trkpt lat="44.45708" lon="4.21512">
        <ele>240</ele>
        <time>2019-12-22T15:09:01Z</time>
      </trkpt>
      <trkpt lat="44.45736" lon="4.21517">
        <ele>241</ele>
        <time>2019-12-22T15:09:06Z</time>
      </trkpt>
      <trkpt lat="44.45751" lon="4.21524">
        <ele>241</ele>
        <time>2019-12-22T15:09:09Z</time>
      </trkpt>
      <trkpt lat="44.45765" lon="4.21534">
        <ele>241</ele>
        <time>2019-12-22T15:09:12Z</time>
      </trkpt>
      <trkpt lat="44.45774" lon="4.21521">
        <ele>242</ele>
        <time>2019-12-22T15:09:14Z</time>
      </trkpt>
      <trkpt lat="44.45783" lon="4.21513">
        <ele>242</ele>
        <time>2019-12-22T15:09:16Z</time>
      </trkpt>
      <trkpt lat="44.46146" lon="4.21503">
        <ele>255</ele>
        <time>2019-12-22T15:10:20Z</time>
      </trkpt>
      <trkpt lat="44.46273" lon="4.21501">
        <ele>258</ele>
        <time>2019-12-22T15:10:43Z</time>
      </trkpt>
      <trkpt lat="44.46377" lon="4.21495">
        <ele>258</ele>
        <time>2019-12-22T15:11:01Z</time>
      </trkpt>
      <trkpt lat="44.46389" lon="4.21489">
        <ele>258</ele>
        <time>2019-12-22T15:11:04Z</time>
      </trkpt>
      <trkpt lat="44.46759" lon="4.21774">
        <ele>255</ele>
        <time>2019-12-22T15:12:19Z</time>
      </trkpt>
      <trkpt lat="44.46852" lon="4.21842">
        <ele>256</ele>
        <time>2019-12-22T15:12:38Z</time>
      </trkpt>
      <trkpt lat="44.46883" lon="4.21871">
        <ele>256</ele>
        <time>2019-12-22T15:12:44Z</time>
      </trkpt>
      <trkpt lat="44.46924" lon="4.21929">
        <ele>255</ele>
        <time>2019-12-22T15:12:55Z</time>
      </trkpt>
      <trkpt lat="44.4711" lon="4.2217">
        <ele>242</ele>
        <time>2019-12-22T15:13:40Z</time>
      </trkpt>
      <trkpt lat="44.4719" lon="4.22278">
        <ele>238</ele>
        <time>2019-12-22T15:13:59Z</time>
      </trkpt>
      <trkpt lat="44.47212" lon="4.22304">
        <ele>238</ele>
        <time>2019-12-22T15:14:04Z</time>
      </trkpt>
      <trkpt lat="44.47229" lon="4.2232">
        <ele>237</ele>
        <time>2019-12-22T15:14:08Z</time>
      </trkpt>
      <trkpt lat="44.47254" lon="4.22339">
        <ele>237</ele>
        <time>2019-12-22T15:14:13Z</time>
      </trkpt>
      <trkpt lat="44.47273" lon="4.22349">
        <ele>237</ele>
        <time>2019-12-22T15:14:17Z</time>
      </trkpt>
      <trkpt lat="44.47303" lon="4.22359">
        <ele>237</ele>
        <time>2019-12-22T15:14:22Z</time>
      </trkpt>
      <trkpt lat="44.47412" lon="4.22381">
        <ele>233</ele>
        <time>2019-12-22T15:14:42Z</time>
      </trkpt>
      <trkpt lat="44.47482" lon="4.22398">
        <ele>234</ele>
        <time>2019-12-22T15:14:55Z</time>
      </trkpt>
      <trkpt lat="44.47507" lon="4.22406">
        <ele>233</ele>
        <time>2019-12-22T15:14:59Z</time>
      </trkpt>
      <trkpt lat="44.47532" lon="4.22422">
        <ele>232</ele>
        <time>2019-12-22T15:15:04Z</time>
      </trkpt>
      <trkpt lat="44.47568" lon="4.22459">
        <ele>229</ele>
        <time>2019-12-22T15:15:12Z</time>
      </trkpt>
      <trkpt lat="44.47593" lon="4.22503">
        <ele>228</ele>
        <time>2019-12-22T15:15:19Z</time>
      </trkpt>
      <trkpt lat="44.47652" lon="4.22637">
        <ele>224</ele>
        <time>2019-12-22T15:15:39Z</time>
      </trkpt>
      <trkpt lat="44.47687" lon="4.22701">
        <ele>220</ele>
        <time>2019-12-22T15:15:49Z</time>
      </trkpt>
      <trkpt lat="44.47711" lon="4.22761">
        <ele>218</ele>
        <time>2019-12-22T15:15:58Z</time>
      </trkpt>
      <trkpt lat="44.47736" lon="4.22828">
        <ele>216</ele>
        <time>2019-12-22T15:16:08Z</time>
      </trkpt>
      <trkpt lat="44.47805" lon="4.23077">
        <ele>206</ele>
        <time>2019-12-22T15:16:42Z</time>
      </trkpt>
      <trkpt lat="44.47813" lon="4.2312">
        <ele>204</ele>
        <time>2019-12-22T15:16:47Z</time>
      </trkpt>
      <trkpt lat="44.47818" lon="4.23153">
        <ele>203</ele>
        <time>2019-12-22T15:16:51Z</time>
      </trkpt>
      <trkpt lat="44.4782" lon="4.23183">
        <ele>202</ele>
        <time>2019-12-22T15:16:55Z</time>
      </trkpt>
      <trkpt lat="44.47821" lon="4.23249">
        <ele>199</ele>
        <time>2019-12-22T15:17:04Z</time>
      </trkpt>
      <trkpt lat="44.47822" lon="4.23264">
        <ele>199</ele>
        <time>2019-12-22T15:17:06Z</time>
      </trkpt>
      <trkpt lat="44.47826" lon="4.23282">
        <ele>199</ele>
        <time>2019-12-22T15:17:08Z</time>
      </trkpt>
      <trkpt lat="44.47837" lon="4.2331">
        <ele>198</ele>
        <time>2019-12-22T15:17:12Z</time>
      </trkpt>
      <trkpt lat="44.47843" lon="4.23318">
        <ele>197</ele>
        <time>2019-12-22T15:17:13Z</time>
      </trkpt>
      <trkpt lat="44.47843" lon="4.23337">
        <ele>198</ele>
        <time>2019-12-22T15:17:16Z</time>
      </trkpt>
      <trkpt lat="44.47895" lon="4.23497">
        <ele>200</ele>
        <time>2019-12-22T15:17:38Z</time>
      </trkpt>
      <trkpt lat="44.47914" lon="4.23565">
        <ele>201</ele>
        <time>2019-12-22T15:17:48Z</time>
      </trkpt>
      <trkpt lat="44.4794" lon="4.23639">
        <ele>193</ele>
        <time>2019-12-22T15:17:58Z</time>
      </trkpt>
      <trkpt lat="44.47951" lon="4.23653">
        <ele>190</ele>
        <time>2019-12-22T15:18:01Z</time>
      </trkpt>
      <trkpt lat="44.47944" lon="4.23711">
        <ele>187</ele>
        <time>2019-12-22T15:18:08Z</time>
      </trkpt>
      <trkpt lat="44.47937" lon="4.23762">
        <ele>185</ele>
        <time>2019-12-22T15:18:15Z</time>
      </trkpt>
      <trkpt lat="44.47935" lon="4.23814">
        <ele>185</ele>
        <time>2019-12-22T15:18:21Z</time>
      </trkpt>
      <trkpt lat="44.47937" lon="4.23859">
        <ele>184</ele>
        <time>2019-12-22T15:18:27Z</time>
      </trkpt>
      <trkpt lat="44.47944" lon="4.23886">
        <ele>183</ele>
        <time>2019-12-22T15:18:31Z</time>
      </trkpt>
      <trkpt lat="44.47952" lon="4.23903">
        <ele>182</ele>
        <time>2019-12-22T15:18:33Z</time>
      </trkpt>
      <trkpt lat="44.47964" lon="4.23935">
        <ele>180</ele>
        <time>2019-12-22T15:18:38Z</time>
      </trkpt>
      <trkpt lat="44.4797" lon="4.23993">
        <ele>179</ele>
        <time>2019-12-22T15:18:45Z</time>
      </trkpt>
      <trkpt lat="44.47971" lon="4.24032">
        <ele>178</ele>
        <time>2019-12-22T15:18:50Z</time>
      </trkpt>
      <trkpt lat="44.47969" lon="4.24055">
        <ele>177</ele>
        <time>2019-12-22T15:18:53Z</time>
      </trkpt>
      <trkpt lat="44.47963" lon="4.24091">
        <ele>176</ele>
        <time>2019-12-22T15:18:58Z</time>
      </trkpt>
      <trkpt lat="44.47958" lon="4.24121">
        <ele>174</ele>
        <time>2019-12-22T15:19:02Z</time>
      </trkpt>
      <trkpt lat="44.47953" lon="4.24132">
        <ele>174</ele>
        <time>2019-12-22T15:19:03Z</time>
      </trkpt>
      <trkpt lat="44.47942" lon="4.24188">
        <ele>173</ele>
        <time>2019-12-22T15:19:11Z</time>
      </trkpt>
      <trkpt lat="44.47939" lon="4.24194">
        <ele>173</ele>
        <time>2019-12-22T15:19:12Z</time>
      </trkpt>
      <trkpt lat="44.47903" lon="4.24235">
        <ele>176</ele>
        <time>2019-12-22T15:19:20Z</time>
      </trkpt>
      <trkpt lat="44.47878" lon="4.24247">
        <ele>174</ele>
        <time>2019-12-22T15:19:25Z</time>
      </trkpt>
      <trkpt lat="44.47867" lon="4.24244">
        <ele>174</ele>
        <time>2019-12-22T15:19:27Z</time>
      </trkpt>
      <trkpt lat="44.47854" lon="4.24212">
        <ele>176</ele>
        <time>2019-12-22T15:19:31Z</time>
      </trkpt>
      <trkpt lat="44.47846" lon="4.24212">
        <ele>176</ele>
        <time>2019-12-22T15:19:33Z</time>
      </trkpt>
      <trkpt lat="44.47712" lon="4.24331">
        <ele>164</ele>
        <time>2019-12-22T15:20:01Z</time>
      </trkpt>
      <trkpt lat="44.47603" lon="4.24435">
        <ele>161</ele>
        <time>2019-12-22T15:20:24Z</time>
      </trkpt>
      <trkpt lat="44.4761" lon="4.24453">
        <ele>161</ele>
        <time>2019-12-22T15:20:27Z</time>
      </trkpt>
      <trkpt lat="44.47624" lon="4.2448">
        <ele>161</ele>
        <time>2019-12-22T15:20:31Z</time>
      </trkpt>
      <trkpt lat="44.47634" lon="4.24497">
        <ele>162</ele>
        <time>2019-12-22T15:20:34Z</time>
      </trkpt>
      <trkpt lat="44.47662" lon="4.24532">
        <ele>162</ele>
        <time>2019-12-22T15:20:41Z</time>
      </trkpt>
      <trkpt lat="44.47679" lon="4.24546">
        <ele>162</ele>
        <time>2019-12-22T15:20:44Z</time>
      </trkpt>
      <trkpt lat="44.47693" lon="4.24556">
        <ele>161</ele>
        <time>2019-12-22T15:20:47Z</time>
      </trkpt>
      <trkpt lat="44.47722" lon="4.24569">
        <ele>160</ele>
        <time>2019-12-22T15:20:53Z</time>
      </trkpt>
      <trkpt lat="44.47809" lon="4.24588">
        <ele>159</ele>
        <time>2019-12-22T15:21:08Z</time>
      </trkpt>
      <trkpt lat="44.47823" lon="4.24592">
        <ele>159</ele>
        <time>2019-12-22T15:21:11Z</time>
      </trkpt>
      <trkpt lat="44.47862" lon="4.24618">
        <ele>159</ele>
        <time>2019-12-22T15:21:18Z</time>
      </trkpt>
      <trkpt lat="44.47885" lon="4.24641">
        <ele>158</ele>
        <time>2019-12-22T15:21:23Z</time>
      </trkpt>
      <trkpt lat="44.47906" lon="4.24675">
        <ele>156</ele>
        <time>2019-12-22T15:21:29Z</time>
      </trkpt>
      <trkpt lat="44.47913" lon="4.24692">
        <ele>155</ele>
        <time>2019-12-22T15:21:32Z</time>
      </trkpt>
      <trkpt lat="44.47917" lon="4.24717">
        <ele>155</ele>
        <time>2019-12-22T15:21:35Z</time>
      </trkpt>
      <trkpt lat="44.47923" lon="4.24728">
        <ele>155</ele>
        <time>2019-12-22T15:21:37Z</time>
      </trkpt>
      <trkpt lat="44.47929" lon="4.24733">
        <ele>155</ele>
        <time>2019-12-22T15:21:38Z</time>
      </trkpt>
      <trkpt lat="44.47937" lon="4.24734">
        <ele>155</ele>
        <time>2019-12-22T15:21:39Z</time>
      </trkpt>
      <trkpt lat="44.47944" lon="4.24732">
        <ele>155</ele>
        <time>2019-12-22T15:21:41Z</time>
      </trkpt>
      <trkpt lat="44.47957" lon="4.24735">
        <ele>155</ele>
        <time>2019-12-22T15:21:43Z</time>
      </trkpt>
      <trkpt lat="44.47971" lon="4.24748">
        <ele>154</ele>
        <time>2019-12-22T15:21:46Z</time>
      </trkpt>
      <trkpt lat="44.47977" lon="4.24758">
        <ele>154</ele>
        <time>2019-12-22T15:21:48Z</time>
      </trkpt>
      <trkpt lat="44.47981" lon="4.24768">
        <ele>154</ele>
        <time>2019-12-22T15:21:49Z</time>
      </trkpt>
      <trkpt lat="44.47982" lon="4.24779">
        <ele>154</ele>
        <time>2019-12-22T15:21:50Z</time>
      </trkpt>
      <trkpt lat="44.47997" lon="4.24839">
        <ele>153</ele>
        <time>2019-12-22T15:21:59Z</time>
      </trkpt>
      <trkpt lat="44.48024" lon="4.24909">
        <ele>152</ele>
        <time>2019-12-22T15:22:09Z</time>
      </trkpt>
      <trkpt lat="44.48091" lon="4.2504">
        <ele>153</ele>
        <time>2019-12-22T15:22:29Z</time>
      </trkpt>
      <trkpt lat="44.48149" lon="4.25151">
        <ele>157</ele>
        <time>2019-12-22T15:22:47Z</time>
      </trkpt>
      <trkpt lat="44.48161" lon="4.25174">
        <ele>158</ele>
        <time>2019-12-22T15:22:50Z</time>
      </trkpt>
      <trkpt lat="44.48164" lon="4.25171">
        <ele>159</ele>
        <time>2019-12-22T15:22:51Z</time>
      </trkpt>
      <trkpt lat="44.4817" lon="4.25156">
        <ele>159</ele>
        <time>2019-12-22T15:22:53Z</time>
      </trkpt>
      <trkpt lat="44.48172" lon="4.25103">
        <ele>157</ele>
        <time>2019-12-22T15:23:00Z</time>
      </trkpt>
      <trkpt lat="44.4821" lon="4.2497">
        <ele>157</ele>
        <time>2019-12-22T15:23:18Z</time>
      </trkpt>
      <trkpt lat="44.48268" lon="4.24702">
        <ele>156</ele>
        <time>2019-12-22T15:23:53Z</time>
      </trkpt>
      <trkpt lat="44.48267" lon="4.24688">
        <ele>156</ele>
        <time>2019-12-22T15:23:55Z</time>
      </trkpt>
      <trkpt lat="44.48262" lon="4.24681">
        <ele>155</ele>
        <time>2019-12-22T15:23:57Z</time>
      </trkpt>
      <trkpt lat="44.48249" lon="4.24674">
        <ele>155</ele>
        <time>2019-12-22T15:23:59Z</time>
      </trkpt>
      <trkpt lat="44.48247" lon="4.24667">
        <ele>155</ele>
        <time>2019-12-22T15:24:00Z</time>
      </trkpt>
      <trkpt lat="44.48255" lon="4.24647">
        <ele>155</ele>
        <time>2019-12-22T15:24:03Z</time>
      </trkpt>
      <trkpt lat="44.48281" lon="4.24608">
        <ele>155</ele>
        <time>2019-12-22T15:24:10Z</time>
      </trkpt>
      <trkpt lat="44.4832" lon="4.24573">
        <ele>155</ele>
        <time>2019-12-22T15:24:18Z</time>
      </trkpt>
      <trkpt lat="44.48351" lon="4.24538">
        <ele>157</ele>
        <time>2019-12-22T15:24:25Z</time>
      </trkpt>
      <trkpt lat="44.48406" lon="4.24377">
        <ele>158</ele>
        <time>2019-12-22T15:24:48Z</time>
      </trkpt>
      <trkpt lat="44.4843" lon="4.24325">
        <ele>157</ele>
        <time>2019-12-22T15:24:55Z</time>
      </trkpt>
      <trkpt lat="44.48449" lon="4.24304">
        <ele>158</ele>
        <time>2019-12-22T15:25:00Z</time>
      </trkpt>
      <trkpt lat="44.48468" lon="4.24295">
        <ele>158</ele>
        <time>2019-12-22T15:25:03Z</time>
      </trkpt>
      <trkpt lat="44.48514" lon="4.24286">
        <ele>160</ele>
        <time>2019-12-22T15:25:12Z</time>
      </trkpt>
      <trkpt lat="44.48566" lon="4.24268">
        <ele>163</ele>
        <time>2019-12-22T15:25:21Z</time>
      </trkpt>
      <trkpt lat="44.48648" lon="4.24212">
        <ele>166</ele>
        <time>2019-12-22T15:25:37Z</time>
      </trkpt>
      <trkpt lat="44.48701" lon="4.24182">
        <ele>164</ele>
        <time>2019-12-22T15:25:48Z</time>
      </trkpt>
      <trkpt lat="44.48824" lon="4.24146">
        <ele>164</ele>
        <time>2019-12-22T15:26:10Z</time>
      </trkpt>
      <trkpt lat="44.48858" lon="4.24138">
        <ele>165</ele>
        <time>2019-12-22T15:26:16Z</time>
      </trkpt>
      <trkpt lat="44.48893" lon="4.2414">
        <ele>168</ele>
        <time>2019-12-22T15:26:22Z</time>
      </trkpt>
      <trkpt lat="44.48909" lon="4.24138">
        <ele>169</ele>
        <time>2019-12-22T15:26:25Z</time>
      </trkpt>
      <trkpt lat="44.49008" lon="4.24091">
        <ele>169</ele>
        <time>2019-12-22T15:26:44Z</time>
      </trkpt>
      <trkpt lat="44.49052" lon="4.24073">
        <ele>169</ele>
        <time>2019-12-22T15:26:52Z</time>
      </trkpt>
      <trkpt lat="44.49122" lon="4.24075">
        <ele>174</ele>
        <time>2019-12-22T15:27:04Z</time>
      </trkpt>
      <trkpt lat="44.49188" lon="4.24063">
        <ele>179</ele>
        <time>2019-12-22T15:27:16Z</time>
      </trkpt>
      <trkpt lat="44.49305" lon="4.24013">
        <ele>182</ele>
        <time>2019-12-22T15:27:38Z</time>
      </trkpt>
      <trkpt lat="44.49366" lon="4.23967">
        <ele>181</ele>
        <time>2019-12-22T15:27:50Z</time>
      </trkpt>
      <trkpt lat="44.49431" lon="4.23938">
        <ele>181</ele>
        <time>2019-12-22T15:28:02Z</time>
      </trkpt>
      <trkpt lat="44.49452" lon="4.23931">
        <ele>180</ele>
        <time>2019-12-22T15:28:06Z</time>
      </trkpt>
      <trkpt lat="44.49482" lon="4.23934">
        <ele>182</ele>
        <time>2019-12-22T15:28:12Z</time>
      </trkpt>
      <trkpt lat="44.49551" lon="4.23949">
        <ele>187</ele>
        <time>2019-12-22T15:28:24Z</time>
      </trkpt>
      <trkpt lat="44.49599" lon="4.23962">
        <ele>190</ele>
        <time>2019-12-22T15:28:33Z</time>
      </trkpt>
      <trkpt lat="44.49627" lon="4.23973">
        <ele>191</ele>
        <time>2019-12-22T15:28:38Z</time>
      </trkpt>
      <trkpt lat="44.4967" lon="4.24003">
        <ele>196</ele>
        <time>2019-12-22T15:28:46Z</time>
      </trkpt>
      <trkpt lat="44.49714" lon="4.24021">
        <ele>193</ele>
        <time>2019-12-22T15:28:55Z</time>
      </trkpt>
      <trkpt lat="44.4977" lon="4.24058">
        <ele>199</ele>
        <time>2019-12-22T15:29:06Z</time>
      </trkpt>
      <trkpt lat="44.49805" lon="4.24067">
        <ele>199</ele>
        <time>2019-12-22T15:29:12Z</time>
      </trkpt>
      <trkpt lat="44.49871" lon="4.24064">
        <ele>197</ele>
        <time>2019-12-22T15:29:24Z</time>
      </trkpt>
      <trkpt lat="44.49915" lon="4.24056">
        <ele>196</ele>
        <time>2019-12-22T15:29:32Z</time>
      </trkpt>
      <trkpt lat="44.49949" lon="4.24045">
        <ele>199</ele>
        <time>2019-12-22T15:29:38Z</time>
      </trkpt>
      <trkpt lat="44.49977" lon="4.2403">
        <ele>198</ele>
        <time>2019-12-22T15:29:43Z</time>
      </trkpt>
      <trkpt lat="44.50003" lon="4.24009">
        <ele>195</ele>
        <time>2019-12-22T15:29:48Z</time>
      </trkpt>
      <trkpt lat="44.5004" lon="4.23965">
        <ele>195</ele>
        <time>2019-12-22T15:29:57Z</time>
      </trkpt>
      <trkpt lat="44.50129" lon="4.23849">
        <ele>196</ele>
        <time>2019-12-22T15:30:19Z</time>
      </trkpt>
      <trkpt lat="44.50141" lon="4.23837">
        <ele>198</ele>
        <time>2019-12-22T15:30:21Z</time>
      </trkpt>
      <trkpt lat="44.50157" lon="4.23826">
        <ele>202</ele>
        <time>2019-12-22T15:30:25Z</time>
      </trkpt>
      <trkpt lat="44.50168" lon="4.23815">
        <ele>204</ele>
        <time>2019-12-22T15:30:27Z</time>
      </trkpt>
      <trkpt lat="44.50171" lon="4.23808">
        <ele>204</ele>
        <time>2019-12-22T15:30:28Z</time>
      </trkpt>
      <trkpt lat="44.50174" lon="4.23792">
        <ele>203</ele>
        <time>2019-12-22T15:30:30Z</time>
      </trkpt>
      <trkpt lat="44.50206" lon="4.23576">
        <ele>197</ele>
        <time>2019-12-22T15:30:58Z</time>
      </trkpt>
      <trkpt lat="44.50206" lon="4.23556">
        <ele>198</ele>
        <time>2019-12-22T15:31:01Z</time>
      </trkpt>
      <trkpt lat="44.50205" lon="4.23538">
        <ele>198</ele>
        <time>2019-12-22T15:31:03Z</time>
      </trkpt>
      <trkpt lat="44.50173" lon="4.23383">
        <ele>198</ele>
        <time>2019-12-22T15:31:23Z</time>
      </trkpt>
      <trkpt lat="44.50166" lon="4.23369">
        <ele>197</ele>
        <time>2019-12-22T15:31:26Z</time>
      </trkpt>
      <trkpt lat="44.50158" lon="4.23358">
        <ele>197</ele>
        <time>2019-12-22T15:31:28Z</time>
      </trkpt>
      <trkpt lat="44.5014" lon="4.2334">
        <ele>195</ele>
        <time>2019-12-22T15:31:31Z</time>
      </trkpt>
      <trkpt lat="44.50127" lon="4.23319">
        <ele>194</ele>
        <time>2019-12-22T15:31:35Z</time>
      </trkpt>
      <trkpt lat="44.50112" lon="4.23291">
        <ele>193</ele>
        <time>2019-12-22T15:31:39Z</time>
      </trkpt>
      <trkpt lat="44.50101" lon="4.23259">
        <ele>193</ele>
        <time>2019-12-22T15:31:44Z</time>
      </trkpt>
      <trkpt lat="44.501" lon="4.2324">
        <ele>194</ele>
        <time>2019-12-22T15:31:46Z</time>
      </trkpt>
      <trkpt lat="44.50102" lon="4.2322">
        <ele>196</ele>
        <time>2019-12-22T15:31:49Z</time>
      </trkpt>
      <trkpt lat="44.50106" lon="4.23192">
        <ele>199</ele>
        <time>2019-12-22T15:31:53Z</time>
      </trkpt>
      <trkpt lat="44.50131" lon="4.23072">
        <ele>205</ele>
        <time>2019-12-22T15:32:08Z</time>
      </trkpt>
      <trkpt lat="44.50133" lon="4.23055">
        <ele>206</ele>
        <time>2019-12-22T15:32:11Z</time>
      </trkpt>
      <trkpt lat="44.5013" lon="4.23027">
        <ele>206</ele>
        <time>2019-12-22T15:32:14Z</time>
      </trkpt>
      <trkpt lat="44.5012" lon="4.2299">
        <ele>203</ele>
        <time>2019-12-22T15:32:19Z</time>
      </trkpt>
      <trkpt lat="44.50117" lon="4.22959">
        <ele>202</ele>
        <time>2019-12-22T15:32:23Z</time>
      </trkpt>
      <trkpt lat="44.50118" lon="4.2294">
        <ele>202</ele>
        <time>2019-12-22T15:32:26Z</time>
      </trkpt>
      <trkpt lat="44.50123" lon="4.22914">
        <ele>203</ele>
        <time>2019-12-22T15:32:29Z</time>
      </trkpt>
      <trkpt lat="44.50131" lon="4.22889">
        <ele>203</ele>
        <time>2019-12-22T15:32:32Z</time>
      </trkpt>
      <trkpt lat="44.5014" lon="4.2287">
        <ele>203</ele>
        <time>2019-12-22T15:32:35Z</time>
      </trkpt>
      <trkpt lat="44.50149" lon="4.22855">
        <ele>204</ele>
        <time>2019-12-22T15:32:38Z</time>
      </trkpt>
      <trkpt lat="44.50162" lon="4.22839">
        <ele>205</ele>
        <time>2019-12-22T15:32:41Z</time>
      </trkpt>
      <trkpt lat="44.50186" lon="4.22817">
        <ele>206</ele>
        <time>2019-12-22T15:32:46Z</time>
      </trkpt>
      <trkpt lat="44.50221" lon="4.22804">
        <ele>210</ele>
        <time>2019-12-22T15:32:52Z</time>
      </trkpt>
      <trkpt lat="44.50276" lon="4.22791">
        <ele>215</ele>
        <time>2019-12-22T15:33:02Z</time>
      </trkpt>
      <trkpt lat="44.50334" lon="4.22798">
        <ele>225</ele>
        <time>2019-12-22T15:33:13Z</time>
      </trkpt>
      <trkpt lat="44.50339" lon="4.22796">
        <ele>225</ele>
        <time>2019-12-22T15:33:14Z</time>
      </trkpt>
      <trkpt lat="44.50343" lon="4.22791">
        <ele>225</ele>
        <time>2019-12-22T15:33:15Z</time>
      </trkpt>
      <trkpt lat="44.50348" lon="4.22773">
        <ele>221</ele>
        <time>2019-12-22T15:33:17Z</time>
      </trkpt>
      <trkpt lat="44.50347" lon="4.22761">
        <ele>218</ele>
        <time>2019-12-22T15:33:19Z</time>
      </trkpt>
      <trkpt lat="44.50344" lon="4.22749">
        <ele>215</ele>
        <time>2019-12-22T15:33:20Z</time>
      </trkpt>
      <trkpt lat="44.50309" lon="4.22673">
        <ele>215</ele>
        <time>2019-12-22T15:33:32Z</time>
      </trkpt>
      <trkpt lat="44.50273" lon="4.22586">
        <ele>222</ele>
        <time>2019-12-22T15:33:44Z</time>
      </trkpt>
      <trkpt lat="44.50264" lon="4.22574">
        <ele>223</ele>
        <time>2019-12-22T15:33:47Z</time>
      </trkpt>
      <trkpt lat="44.50253" lon="4.22566">
        <ele>223</ele>
        <time>2019-12-22T15:33:49Z</time>
      </trkpt>
      <trkpt lat="44.50206" lon="4.2255">
        <ele>224</ele>
        <time>2019-12-22T15:33:58Z</time>
      </trkpt>
      <trkpt lat="44.50168" lon="4.22452">
        <ele>233</ele>
        <time>2019-12-22T15:34:12Z</time>
      </trkpt>
      <trkpt lat="44.50166" lon="4.22436">
        <ele>234</ele>
        <time>2019-12-22T15:34:14Z</time>
      </trkpt>
      <trkpt lat="44.50181" lon="4.22412">
        <ele>239</ele>
        <time>2019-12-22T15:34:18Z</time>
      </trkpt>
      <trkpt lat="44.50184" lon="4.22401">
        <ele>241</ele>
        <time>2019-12-22T15:34:19Z</time>
      </trkpt>
      <trkpt lat="44.50184" lon="4.22356">
        <ele>246</ele>
        <time>2019-12-22T15:34:25Z</time>
      </trkpt>
      <trkpt lat="44.50181" lon="4.22305">
        <ele>249</ele>
        <time>2019-12-22T15:34:31Z</time>
      </trkpt>
      <trkpt lat="44.50185" lon="4.22266">
        <ele>252</ele>
        <time>2019-12-22T15:34:36Z</time>
      </trkpt>
      <trkpt lat="44.50196" lon="4.22221">
        <ele>254</ele>
        <time>2019-12-22T15:34:43Z</time>
      </trkpt>
      <trkpt lat="44.50209" lon="4.22193">
        <ele>257</ele>
        <time>2019-12-22T15:34:47Z</time>
      </trkpt>
      <trkpt lat="44.50229" lon="4.22247">
        <ele>259</ele>
        <time>2019-12-22T15:34:54Z</time>
      </trkpt>
      <trkpt lat="44.50233" lon="4.22242">
        <ele>260</ele>
        <time>2019-12-22T15:34:55Z</time>
      </trkpt>
      <trkpt lat="44.50231" lon="4.22223">
        <ele>260</ele>
        <time>2019-12-22T15:34:58Z</time>
      </trkpt>
      <trkpt lat="44.50233" lon="4.22213">
        <ele>260</ele>
        <time>2019-12-22T15:34:59Z</time>
      </trkpt>
      <trkpt lat="44.50236" lon="4.22208">
        <ele>261</ele>
        <time>2019-12-22T15:35:00Z</time>
      </trkpt>
      <trkpt lat="44.50336" lon="4.22158">
        <ele>278</ele>
        <time>2019-12-22T15:35:19Z</time>
      </trkpt>
      <trkpt lat="44.50359" lon="4.22149">
        <ele>280</ele>
        <time>2019-12-22T15:35:23Z</time>
      </trkpt>
      <trkpt lat="44.50367" lon="4.22143">
        <ele>281</ele>
        <time>2019-12-22T15:35:25Z</time>
      </trkpt>
      <trkpt lat="44.50379" lon="4.22126">
        <ele>283</ele>
        <time>2019-12-22T15:35:28Z</time>
      </trkpt>
      <trkpt lat="44.50396" lon="4.22098">
        <ele>286</ele>
        <time>2019-12-22T15:35:32Z</time>
      </trkpt>
      <trkpt lat="44.50412" lon="4.22063">
        <ele>288</ele>
        <time>2019-12-22T15:35:38Z</time>
      </trkpt>
      <trkpt lat="44.50417" lon="4.22059">
        <ele>289</ele>
        <time>2019-12-22T15:35:39Z</time>
      </trkpt>
      <trkpt lat="44.50421" lon="4.22059">
        <ele>290</ele>
        <time>2019-12-22T15:35:39Z</time>
      </trkpt>
      <trkpt lat="44.50444" lon="4.22076">
        <ele>293</ele>
        <time>2019-12-22T15:35:44Z</time>
      </trkpt>
      <trkpt lat="44.50459" lon="4.22083">
        <ele>295</ele>
        <time>2019-12-22T15:35:47Z</time>
      </trkpt>
      <trkpt lat="44.5047" lon="4.22081">
        <ele>297</ele>
        <time>2019-12-22T15:35:49Z</time>
      </trkpt>
      <trkpt lat="44.5049" lon="4.22055">
        <ele>300</ele>
        <time>2019-12-22T15:35:54Z</time>
      </trkpt>
      <trkpt lat="44.50495" lon="4.22054">
        <ele>301</ele>
        <time>2019-12-22T15:35:55Z</time>
      </trkpt>
      <trkpt lat="44.50503" lon="4.22065">
        <ele>302</ele>
        <time>2019-12-22T15:35:57Z</time>
      </trkpt>
      <trkpt lat="44.50507" lon="4.22067">
        <ele>302</ele>
        <time>2019-12-22T15:35:57Z</time>
      </trkpt>
      <trkpt lat="44.5052" lon="4.22059">
        <ele>303</ele>
        <time>2019-12-22T15:36:00Z</time>
      </trkpt>
      <trkpt lat="44.50526" lon="4.22059">
        <ele>303</ele>
        <time>2019-12-22T15:36:01Z</time>
      </trkpt>
      <trkpt lat="44.50534" lon="4.22067">
        <ele>304</ele>
        <time>2019-12-22T15:36:03Z</time>
      </trkpt>
      <trkpt lat="44.50546" lon="4.22087">
        <ele>304</ele>
        <time>2019-12-22T15:36:06Z</time>
      </trkpt>
      <trkpt lat="44.50551" lon="4.2209">
        <ele>304</ele>
        <time>2019-12-22T15:36:07Z</time>
      </trkpt>
      <trkpt lat="44.50548" lon="4.22067">
        <ele>305</ele>
        <time>2019-12-22T15:36:10Z</time>
      </trkpt>
      <trkpt lat="44.50548" lon="4.22051">
        <ele>305</ele>
        <time>2019-12-22T15:36:12Z</time>
      </trkpt>
      <trkpt lat="44.50553" lon="4.22037">
        <ele>306</ele>
        <time>2019-12-22T15:36:14Z</time>
      </trkpt>
      <trkpt lat="44.50559" lon="4.22026">
        <ele>307</ele>
        <time>2019-12-22T15:36:16Z</time>
      </trkpt>
      <trkpt lat="44.50579" lon="4.2201">
        <ele>308</ele>
        <time>2019-12-22T15:36:20Z</time>
      </trkpt>
      <trkpt lat="44.50586" lon="4.22008">
        <ele>309</ele>
        <time>2019-12-22T15:36:21Z</time>
      </trkpt>
      <trkpt lat="44.50593" lon="4.2201">
        <ele>309</ele>
        <time>2019-12-22T15:36:22Z</time>
      </trkpt>
      <trkpt lat="44.50655" lon="4.22056">
        <ele>314</ele>
        <time>2019-12-22T15:36:35Z</time>
      </trkpt>
      <trkpt lat="44.50764" lon="4.22144">
        <ele>320</ele>
        <time>2019-12-22T15:36:57Z</time>
      </trkpt>
      <trkpt lat="44.50802" lon="4.22171">
        <ele>324</ele>
        <time>2019-12-22T15:37:05Z</time>
      </trkpt>
      <trkpt lat="44.50808" lon="4.22171">
        <ele>324</ele>
        <time>2019-12-22T15:37:06Z</time>
      </trkpt>
      <trkpt lat="44.50821" lon="4.22165">
        <ele>326</ele>
        <time>2019-12-22T15:37:08Z</time>
      </trkpt>
      <trkpt lat="44.50834" lon="4.22152">
        <ele>327</ele>
        <time>2019-12-22T15:37:11Z</time>
      </trkpt>
      <trkpt lat="44.50847" lon="4.22135">
        <ele>327</ele>
        <time>2019-12-22T15:37:14Z</time>
      </trkpt>
      <trkpt lat="44.50871" lon="4.22114">
        <ele>328</ele>
        <time>2019-12-22T15:37:19Z</time>
      </trkpt>
      <trkpt lat="44.50893" lon="4.22103">
        <ele>328</ele>
        <time>2019-12-22T15:37:24Z</time>
      </trkpt>
      <trkpt lat="44.50954" lon="4.22095">
        <ele>331</ele>
        <time>2019-12-22T15:37:34Z</time>
      </trkpt>
      <trkpt lat="44.50963" lon="4.2209">
        <ele>331</ele>
        <time>2019-12-22T15:37:36Z</time>
      </trkpt>
      <trkpt lat="44.50987" lon="4.22072">
        <ele>329</ele>
        <time>2019-12-22T15:37:41Z</time>
      </trkpt>
      <trkpt lat="44.50995" lon="4.22072">
        <ele>329</ele>
        <time>2019-12-22T15:37:42Z</time>
      </trkpt>
      <trkpt lat="44.51025" lon="4.22091">
        <ele>334</ele>
        <time>2019-12-22T15:37:48Z</time>
      </trkpt>
      <trkpt lat="44.51039" lon="4.22096">
        <ele>336</ele>
        <time>2019-12-22T15:37:51Z</time>
      </trkpt>
      <trkpt lat="44.51074" lon="4.22101">
        <ele>340</ele>
        <time>2019-12-22T15:37:57Z</time>
      </trkpt>
      <trkpt lat="44.5109" lon="4.22106">
        <ele>341</ele>
        <time>2019-12-22T15:38:00Z</time>
      </trkpt>
      <trkpt lat="44.51129" lon="4.22124">
        <ele>343</ele>
        <time>2019-12-22T15:38:07Z</time>
      </trkpt>
      <trkpt lat="44.51179" lon="4.22155">
        <ele>348</ele>
        <time>2019-12-22T15:38:17Z</time>
      </trkpt>
      <trkpt lat="44.51206" lon="4.22175">
        <ele>353</ele>
        <time>2019-12-22T15:38:22Z</time>
      </trkpt>
      <trkpt lat="44.51219" lon="4.2218">
        <ele>353</ele>
        <time>2019-12-22T15:38:25Z</time>
      </trkpt>
      <trkpt lat="44.51281" lon="4.22187">
        <ele>354</ele>
        <time>2019-12-22T15:38:36Z</time>
      </trkpt>
      <trkpt lat="44.51391" lon="4.22206">
        <ele>366</ele>
        <time>2019-12-22T15:38:56Z</time>
      </trkpt>
      <trkpt lat="44.51408" lon="4.22207">
        <ele>368</ele>
        <time>2019-12-22T15:38:59Z</time>
      </trkpt>
      <trkpt lat="44.51432" lon="4.22202">
        <ele>368</ele>
        <time>2019-12-22T15:39:03Z</time>
      </trkpt>
      <trkpt lat="44.51474" lon="4.22188">
        <ele>367</ele>
        <time>2019-12-22T15:39:11Z</time>
      </trkpt>
      <trkpt lat="44.51524" lon="4.22181">
        <ele>369</ele>
        <time>2019-12-22T15:39:20Z</time>
      </trkpt>
      <trkpt lat="44.51537" lon="4.22181">
        <ele>370</ele>
        <time>2019-12-22T15:39:22Z</time>
      </trkpt>
      <trkpt lat="44.51566" lon="4.22191">
        <ele>374</ele>
        <time>2019-12-22T15:39:27Z</time>
      </trkpt>
      <trkpt lat="44.51583" lon="4.22203">
        <ele>377</ele>
        <time>2019-12-22T15:39:31Z</time>
      </trkpt>
      <trkpt lat="44.51609" lon="4.22217">
        <ele>381</ele>
        <time>2019-12-22T15:39:36Z</time>
      </trkpt>
      <trkpt lat="44.51618" lon="4.22218">
        <ele>382</ele>
        <time>2019-12-22T15:39:37Z</time>
      </trkpt>
      <trkpt lat="44.51627" lon="4.22216">
        <ele>382</ele>
        <time>2019-12-22T15:39:39Z</time>
      </trkpt>
      <trkpt lat="44.51635" lon="4.22211">
        <ele>382</ele>
        <time>2019-12-22T15:39:40Z</time>
      </trkpt>
      <trkpt lat="44.51663" lon="4.22177">
        <ele>382</ele>
        <time>2019-12-22T15:39:47Z</time>
      </trkpt>
      <trkpt lat="44.51724" lon="4.22124">
        <ele>388</ele>
        <time>2019-12-22T15:40:00Z</time>
      </trkpt>
      <trkpt lat="44.5173" lon="4.22115">
        <ele>388</ele>
        <time>2019-12-22T15:40:01Z</time>
      </trkpt>
      <trkpt lat="44.51733" lon="4.22106">
        <ele>388</ele>
        <time>2019-12-22T15:40:03Z</time>
      </trkpt>
      <trkpt lat="44.51733" lon="4.22097">
        <ele>388</ele>
        <time>2019-12-22T15:40:04Z</time>
      </trkpt>
      <trkpt lat="44.51731" lon="4.22087">
        <ele>387</ele>
        <time>2019-12-22T15:40:05Z</time>
      </trkpt>
      <trkpt lat="44.51721" lon="4.22069">
        <ele>387</ele>
        <time>2019-12-22T15:40:08Z</time>
      </trkpt>
      <trkpt lat="44.51708" lon="4.22036">
        <ele>388</ele>
        <time>2019-12-22T15:40:13Z</time>
      </trkpt>
      <trkpt lat="44.51702" lon="4.22018">
        <ele>389</ele>
        <time>2019-12-22T15:40:15Z</time>
      </trkpt>
      <trkpt lat="44.517" lon="4.21999">
        <ele>389</ele>
        <time>2019-12-22T15:40:18Z</time>
      </trkpt>
      <trkpt lat="44.51703" lon="4.21954">
        <ele>392</ele>
        <time>2019-12-22T15:40:23Z</time>
      </trkpt>
      <trkpt lat="44.51712" lon="4.21875">
        <ele>397</ele>
        <time>2019-12-22T15:40:34Z</time>
      </trkpt>
      <trkpt lat="44.51718" lon="4.21842">
        <ele>399</ele>
        <time>2019-12-22T15:40:38Z</time>
      </trkpt>
      <trkpt lat="44.51722" lon="4.21823">
        <ele>400</ele>
        <time>2019-12-22T15:40:40Z</time>
      </trkpt>
      <trkpt lat="44.51729" lon="4.2181">
        <ele>401</ele>
        <time>2019-12-22T15:40:42Z</time>
      </trkpt>
      <trkpt lat="44.51747" lon="4.21791">
        <ele>406</ele>
        <time>2019-12-22T15:40:46Z</time>
      </trkpt>
      <trkpt lat="44.51757" lon="4.21785">
        <ele>408</ele>
        <time>2019-12-22T15:40:48Z</time>
      </trkpt>
      <trkpt lat="44.51766" lon="4.21782">
        <ele>410</ele>
        <time>2019-12-22T15:40:50Z</time>
      </trkpt>
      <trkpt lat="44.51795" lon="4.21785">
        <ele>416</ele>
        <time>2019-12-22T15:40:55Z</time>
      </trkpt>
      <trkpt lat="44.51809" lon="4.2179">
        <ele>419</ele>
        <time>2019-12-22T15:40:58Z</time>
      </trkpt>
      <trkpt lat="44.51822" lon="4.21799">
        <ele>421</ele>
        <time>2019-12-22T15:41:00Z</time>
      </trkpt>
      <trkpt lat="44.51836" lon="4.21812">
        <ele>423</ele>
        <time>2019-12-22T15:41:03Z</time>
      </trkpt>
      <trkpt lat="44.51849" lon="4.21831">
        <ele>424</ele>
        <time>2019-12-22T15:41:07Z</time>
      </trkpt>
      <trkpt lat="44.51861" lon="4.21861">
        <ele>423</ele>
        <time>2019-12-22T15:41:11Z</time>
      </trkpt>
      <trkpt lat="44.51934" lon="4.21978">
        <ele>426</ele>
        <time>2019-12-22T15:41:31Z</time>
      </trkpt>
      <trkpt lat="44.5198" lon="4.2208">
        <ele>429</ele>
        <time>2019-12-22T15:41:46Z</time>
      </trkpt>
      <trkpt lat="44.51988" lon="4.22091">
        <ele>431</ele>
        <time>2019-12-22T15:41:48Z</time>
      </trkpt>
      <trkpt lat="44.52004" lon="4.22105">
        <ele>433</ele>
        <time>2019-12-22T15:41:51Z</time>
      </trkpt>
      <trkpt lat="44.52023" lon="4.22118">
        <ele>434</ele>
        <time>2019-12-22T15:41:55Z</time>
      </trkpt>
      <trkpt lat="44.52033" lon="4.22123">
        <ele>435</ele>
        <time>2019-12-22T15:41:57Z</time>
      </trkpt>
      <trkpt lat="44.52043" lon="4.22124">
        <ele>436</ele>
        <time>2019-12-22T15:41:59Z</time>
      </trkpt>
      <trkpt lat="44.52052" lon="4.22123">
        <ele>437</ele>
        <time>2019-12-22T15:42:00Z</time>
      </trkpt>
      <trkpt lat="44.52059" lon="4.22116">
        <ele>437</ele>
        <time>2019-12-22T15:42:02Z</time>
      </trkpt>
      <trkpt lat="44.52065" lon="4.22106">
        <ele>438</ele>
        <time>2019-12-22T15:42:04Z</time>
      </trkpt>
      <trkpt lat="44.52087" lon="4.22036">
        <ele>442</ele>
        <time>2019-12-22T15:42:13Z</time>
      </trkpt>
      <trkpt lat="44.52095" lon="4.22025">
        <ele>443</ele>
        <time>2019-12-22T15:42:15Z</time>
      </trkpt>
      <trkpt lat="44.52104" lon="4.22016">
        <ele>444</ele>
        <time>2019-12-22T15:42:17Z</time>
      </trkpt>
      <trkpt lat="44.52117" lon="4.22009">
        <ele>446</ele>
        <time>2019-12-22T15:42:20Z</time>
      </trkpt>
      <trkpt lat="44.5214" lon="4.22009">
        <ele>448</ele>
        <time>2019-12-22T15:42:24Z</time>
      </trkpt>
      <trkpt lat="44.52153" lon="4.22013">
        <ele>449</ele>
        <time>2019-12-22T15:42:26Z</time>
      </trkpt>
      <trkpt lat="44.52277" lon="4.22076">
        <ele>458</ele>
        <time>2019-12-22T15:42:50Z</time>
      </trkpt>
      <trkpt lat="44.52296" lon="4.2208">
        <ele>459</ele>
        <time>2019-12-22T15:42:53Z</time>
      </trkpt>
      <trkpt lat="44.52335" lon="4.22078">
        <ele>463</ele>
        <time>2019-12-22T15:43:00Z</time>
      </trkpt>
      <trkpt lat="44.52343" lon="4.2208">
        <ele>463</ele>
        <time>2019-12-22T15:43:02Z</time>
      </trkpt>
      <trkpt lat="44.52349" lon="4.22085">
        <ele>464</ele>
        <time>2019-12-22T15:43:03Z</time>
      </trkpt>
      <trkpt lat="44.52355" lon="4.22093">
        <ele>464</ele>
        <time>2019-12-22T15:43:04Z</time>
      </trkpt>
      <trkpt lat="44.52365" lon="4.2213">
        <ele>466</ele>
        <time>2019-12-22T15:43:09Z</time>
      </trkpt>
      <trkpt lat="44.5237" lon="4.22137">
        <ele>467</ele>
        <time>2019-12-22T15:43:11Z</time>
      </trkpt>
      <trkpt lat="44.52377" lon="4.22142">
        <ele>467</ele>
        <time>2019-12-22T15:43:12Z</time>
      </trkpt>
      <trkpt lat="44.52384" lon="4.22144">
        <ele>468</ele>
        <time>2019-12-22T15:43:13Z</time>
      </trkpt>
      <trkpt lat="44.5239" lon="4.22143">
        <ele>468</ele>
        <time>2019-12-22T15:43:14Z</time>
      </trkpt>
      <trkpt lat="44.52412" lon="4.22125">
        <ele>469</ele>
        <time>2019-12-22T15:43:19Z</time>
      </trkpt>
      <trkpt lat="44.52418" lon="4.22118">
        <ele>470</ele>
        <time>2019-12-22T15:43:20Z</time>
      </trkpt>
      <trkpt lat="44.52421" lon="4.22101">
        <ele>470</ele>
        <time>2019-12-22T15:43:22Z</time>
      </trkpt>
      <trkpt lat="44.52428" lon="4.22038">
        <ele>476</ele>
        <time>2019-12-22T15:43:31Z</time>
      </trkpt>
      <trkpt lat="44.52437" lon="4.22005">
        <ele>480</ele>
        <time>2019-12-22T15:43:35Z</time>
      </trkpt>
      <trkpt lat="44.52444" lon="4.2199">
        <ele>483</ele>
        <time>2019-12-22T15:43:37Z</time>
      </trkpt>
      <trkpt lat="44.52463" lon="4.21973">
        <ele>488</ele>
        <time>2019-12-22T15:43:41Z</time>
      </trkpt>
      <trkpt lat="44.52482" lon="4.21966">
        <ele>490</ele>
        <time>2019-12-22T15:43:45Z</time>
      </trkpt>
      <trkpt lat="44.52499" lon="4.21971">
        <ele>491</ele>
        <time>2019-12-22T15:43:48Z</time>
      </trkpt>
      <trkpt lat="44.52513" lon="4.21981">
        <ele>491</ele>
        <time>2019-12-22T15:43:51Z</time>
      </trkpt>
      <trkpt lat="44.52529" lon="4.21999">
        <ele>491</ele>
        <time>2019-12-22T15:43:54Z</time>
      </trkpt>
      <trkpt lat="44.52559" lon="4.22019">
        <ele>493</ele>
        <time>2019-12-22T15:44:00Z</time>
      </trkpt>
      <trkpt lat="44.52573" lon="4.22025">
        <ele>494</ele>
        <time>2019-12-22T15:44:03Z</time>
      </trkpt>
      <trkpt lat="44.52581" lon="4.22026">
        <ele>495</ele>
        <time>2019-12-22T15:44:04Z</time>
      </trkpt>
      <trkpt lat="44.52592" lon="4.2202">
        <ele>496</ele>
        <time>2019-12-22T15:44:06Z</time>
      </trkpt>
      <trkpt lat="44.52635" lon="4.2199">
        <ele>502</ele>
        <time>2019-12-22T15:44:15Z</time>
      </trkpt>
      <trkpt lat="44.52666" lon="4.21976">
        <ele>505</ele>
        <time>2019-12-22T15:44:21Z</time>
      </trkpt>
      <trkpt lat="44.52676" lon="4.21976">
        <ele>506</ele>
        <time>2019-12-22T15:44:22Z</time>
      </trkpt>
      <trkpt lat="44.52702" lon="4.21983">
        <ele>506</ele>
        <time>2019-12-22T15:44:27Z</time>
      </trkpt>
      <trkpt lat="44.5272" lon="4.21992">
        <ele>506</ele>
        <time>2019-12-22T15:44:31Z</time>
      </trkpt>
      <trkpt lat="44.5275" lon="4.22013">
        <ele>506</ele>
        <time>2019-12-22T15:44:37Z</time>
      </trkpt>
      <trkpt lat="44.52837" lon="4.22062">
        <ele>508</ele>
        <time>2019-12-22T15:44:53Z</time>
      </trkpt>
      <trkpt lat="44.52868" lon="4.22075">
        <ele>509</ele>
        <time>2019-12-22T15:44:59Z</time>
      </trkpt>
      <trkpt lat="44.52901" lon="4.22096">
        <ele>511</ele>
        <time>2019-12-22T15:45:05Z</time>
      </trkpt>
      <trkpt lat="44.52943" lon="4.22133">
        <ele>511</ele>
        <time>2019-12-22T15:45:14Z</time>
      </trkpt>
      <trkpt lat="44.53003" lon="4.22169">
        <ele>512</ele>
        <time>2019-12-22T15:45:26Z</time>
      </trkpt>
      <trkpt lat="44.53027" lon="4.22185">
        <ele>513</ele>
        <time>2019-12-22T15:45:31Z</time>
      </trkpt>
      <trkpt lat="44.53112" lon="4.22215">
        <ele>516</ele>
        <time>2019-12-22T15:45:46Z</time>
      </trkpt>
      <trkpt lat="44.53149" lon="4.22213">
        <ele>519</ele>
        <time>2019-12-22T15:45:53Z</time>
      </trkpt>
      <trkpt lat="44.53208" lon="4.22244">
        <ele>521</ele>
        <time>2019-12-22T15:46:04Z</time>
      </trkpt>
      <trkpt lat="44.53298" lon="4.22287">
        <ele>522</ele>
        <time>2019-12-22T15:46:21Z</time>
      </trkpt>
      <trkpt lat="44.53349" lon="4.223">
        <ele>522</ele>
        <time>2019-12-22T15:46:30Z</time>
      </trkpt>
      <trkpt lat="44.53397" lon="4.22301">
        <ele>525</ele>
        <time>2019-12-22T15:46:39Z</time>
      </trkpt>
      <trkpt lat="44.53429" lon="4.22306">
        <ele>526</ele>
        <time>2019-12-22T15:46:44Z</time>
      </trkpt>
      <trkpt lat="44.53466" lon="4.22328">
        <ele>527</ele>
        <time>2019-12-22T15:46:52Z</time>
      </trkpt>
      <trkpt lat="44.53498" lon="4.22357">
        <ele>528</ele>
        <time>2019-12-22T15:46:58Z</time>
      </trkpt>
      <trkpt lat="44.53513" lon="4.22359">
        <ele>528</ele>
        <time>2019-12-22T15:47:01Z</time>
      </trkpt>
      <trkpt lat="44.53533" lon="4.22348">
        <ele>528</ele>
        <time>2019-12-22T15:47:05Z</time>
      </trkpt>
      <trkpt lat="44.53567" lon="4.22311">
        <ele>530</ele>
        <time>2019-12-22T15:47:13Z</time>
      </trkpt>
      <trkpt lat="44.53579" lon="4.22304">
        <ele>530</ele>
        <time>2019-12-22T15:47:15Z</time>
      </trkpt>
      <trkpt lat="44.53588" lon="4.22302">
        <ele>531</ele>
        <time>2019-12-22T15:47:16Z</time>
      </trkpt>
      <trkpt lat="44.53595" lon="4.22304">
        <ele>531</ele>
        <time>2019-12-22T15:47:18Z</time>
      </trkpt>
      <trkpt lat="44.53601" lon="4.22309">
        <ele>531</ele>
        <time>2019-12-22T15:47:19Z</time>
      </trkpt>
      <trkpt lat="44.53644" lon="4.22377">
        <ele>530</ele>
        <time>2019-12-22T15:47:30Z</time>
      </trkpt>
      <trkpt lat="44.53675" lon="4.22436">
        <ele>529</ele>
        <time>2019-12-22T15:47:40Z</time>
      </trkpt>
      <trkpt lat="44.53707" lon="4.22486">
        <ele>528</ele>
        <time>2019-12-22T15:47:48Z</time>
      </trkpt>
      <trkpt lat="44.53717" lon="4.22508">
        <ele>528</ele>
        <time>2019-12-22T15:47:52Z</time>
      </trkpt>
      <trkpt lat="44.53743" lon="4.2259">
        <ele>526</ele>
        <time>2019-12-22T15:48:03Z</time>
      </trkpt>
      <trkpt lat="44.53777" lon="4.22657">
        <ele>529</ele>
        <time>2019-12-22T15:48:13Z</time>
      </trkpt>
      <trkpt lat="44.53811" lon="4.22737">
        <ele>530</ele>
        <time>2019-12-22T15:48:25Z</time>
      </trkpt>
      <trkpt lat="44.5386" lon="4.2288">
        <ele>528</ele>
        <time>2019-12-22T15:48:45Z</time>
      </trkpt>
      <trkpt lat="44.53898" lon="4.23004">
        <ele>524</ele>
        <time>2019-12-22T15:49:02Z</time>
      </trkpt>
      <trkpt lat="44.53902" lon="4.23025">
        <ele>524</ele>
        <time>2019-12-22T15:49:05Z</time>
      </trkpt>
      <trkpt lat="44.53902" lon="4.2305">
        <ele>523</ele>
        <time>2019-12-22T15:49:08Z</time>
      </trkpt>
      <trkpt lat="44.539" lon="4.2308">
        <ele>522</ele>
        <time>2019-12-22T15:49:12Z</time>
      </trkpt>
      <trkpt lat="44.53881" lon="4.23175">
        <ele>521</ele>
        <time>2019-12-22T15:49:25Z</time>
      </trkpt>
      <trkpt lat="44.53906" lon="4.23168">
        <ele>523</ele>
        <time>2019-12-22T15:49:29Z</time>
      </trkpt>
      <trkpt lat="44.53917" lon="4.23161">
        <ele>524</ele>
        <time>2019-12-22T15:49:31Z</time>
      </trkpt>
      <trkpt lat="44.53926" lon="4.23149">
        <ele>525</ele>
        <time>2019-12-22T15:49:34Z</time>
      </trkpt>
      <trkpt lat="44.53944" lon="4.23111">
        <ele>527</ele>
        <time>2019-12-22T15:49:39Z</time>
      </trkpt>
      <trkpt lat="44.53955" lon="4.23099">
        <ele>528</ele>
        <time>2019-12-22T15:49:42Z</time>
      </trkpt>
      <trkpt lat="44.53974" lon="4.23089">
        <ele>530</ele>
        <time>2019-12-22T15:49:46Z</time>
      </trkpt>
      <trkpt lat="44.53983" lon="4.23086">
        <ele>531</ele>
        <time>2019-12-22T15:49:47Z</time>
      </trkpt>
      <trkpt lat="44.54003" lon="4.23087">
        <ele>533</ele>
        <time>2019-12-22T15:49:51Z</time>
      </trkpt>
      <trkpt lat="44.54065" lon="4.23083">
        <ele>539</ele>
        <time>2019-12-22T15:50:02Z</time>
      </trkpt>
      <trkpt lat="44.54086" lon="4.23078">
        <ele>541</ele>
        <time>2019-12-22T15:50:06Z</time>
      </trkpt>
      <trkpt lat="44.54112" lon="4.2309">
        <ele>540</ele>
        <time>2019-12-22T15:50:10Z</time>
      </trkpt>
      <trkpt lat="44.54149" lon="4.23091">
        <ele>539</ele>
        <time>2019-12-22T15:50:17Z</time>
      </trkpt>
      <trkpt lat="44.54162" lon="4.23087">
        <ele>539</ele>
        <time>2019-12-22T15:50:19Z</time>
      </trkpt>
      <trkpt lat="44.54176" lon="4.2308">
        <ele>539</ele>
        <time>2019-12-22T15:50:22Z</time>
      </trkpt>
      <trkpt lat="44.54196" lon="4.23062">
        <ele>541</ele>
        <time>2019-12-22T15:50:26Z</time>
      </trkpt>
      <trkpt lat="44.54205" lon="4.23057">
        <ele>541</ele>
        <time>2019-12-22T15:50:28Z</time>
      </trkpt>
      <trkpt lat="44.5423" lon="4.23049">
        <ele>543</ele>
        <time>2019-12-22T15:50:33Z</time>
      </trkpt>
      <trkpt lat="44.54241" lon="4.23049">
        <ele>543</ele>
        <time>2019-12-22T15:50:34Z</time>
      </trkpt>
      <trkpt lat="44.54248" lon="4.23052">
        <ele>543</ele>
        <time>2019-12-22T15:50:36Z</time>
      </trkpt>
      <trkpt lat="44.54254" lon="4.2306">
        <ele>544</ele>
        <time>2019-12-22T15:50:37Z</time>
      </trkpt>
      <trkpt lat="44.54264" lon="4.23062">
        <ele>546</ele>
        <time>2019-12-22T15:50:39Z</time>
      </trkpt>
      <trkpt lat="44.54268" lon="4.23058">
        <ele>547</ele>
        <time>2019-12-22T15:50:40Z</time>
      </trkpt>
      <trkpt lat="44.54272" lon="4.2305">
        <ele>548</ele>
        <time>2019-12-22T15:50:41Z</time>
      </trkpt>
      <trkpt lat="44.54276" lon="4.22998">
        <ele>552</ele>
        <time>2019-12-22T15:50:48Z</time>
      </trkpt>
      <trkpt lat="44.54274" lon="4.22928">
        <ele>554</ele>
        <time>2019-12-22T15:50:57Z</time>
      </trkpt>
      <trkpt lat="44.54275" lon="4.22916">
        <ele>555</ele>
        <time>2019-12-22T15:50:58Z</time>
      </trkpt>
      <trkpt lat="44.54278" lon="4.2291">
        <ele>556</ele>
        <time>2019-12-22T15:50:59Z</time>
      </trkpt>
      <trkpt lat="44.54282" lon="4.22908">
        <ele>557</ele>
        <time>2019-12-22T15:51:00Z</time>
      </trkpt>
      <trkpt lat="44.54287" lon="4.22909">
        <ele>558</ele>
        <time>2019-12-22T15:51:01Z</time>
      </trkpt>
      <trkpt lat="44.5429" lon="4.22912">
        <ele>558</ele>
        <time>2019-12-22T15:51:01Z</time>
      </trkpt>
      <trkpt lat="44.54295" lon="4.22949">
        <ele>558</ele>
        <time>2019-12-22T15:51:06Z</time>
      </trkpt>
      <trkpt lat="44.54302" lon="4.22965">
        <ele>558</ele>
        <time>2019-12-22T15:51:09Z</time>
      </trkpt>
      <trkpt lat="44.54318" lon="4.22988">
        <ele>561</ele>
        <time>2019-12-22T15:51:13Z</time>
      </trkpt>
      <trkpt lat="44.54358" lon="4.23026">
        <ele>568</ele>
        <time>2019-12-22T15:51:21Z</time>
      </trkpt>
      <trkpt lat="44.54362" lon="4.23033">
        <ele>569</ele>
        <time>2019-12-22T15:51:22Z</time>
      </trkpt>
      <trkpt lat="44.54365" lon="4.23042">
        <ele>569</ele>
        <time>2019-12-22T15:51:24Z</time>
      </trkpt>
      <trkpt lat="44.54369" lon="4.2307">
        <ele>568</ele>
        <time>2019-12-22T15:51:27Z</time>
      </trkpt>
      <trkpt lat="44.54375" lon="4.23084">
        <ele>569</ele>
        <time>2019-12-22T15:51:29Z</time>
      </trkpt>
      <trkpt lat="44.5441" lon="4.23122">
        <ele>571</ele>
        <time>2019-12-22T15:51:37Z</time>
      </trkpt>
      <trkpt lat="44.54429" lon="4.23138">
        <ele>571</ele>
        <time>2019-12-22T15:51:41Z</time>
      </trkpt>
      <trkpt lat="44.54451" lon="4.23148">
        <ele>572</ele>
        <time>2019-12-22T15:51:45Z</time>
      </trkpt>
      <trkpt lat="44.54491" lon="4.23162">
        <ele>576</ele>
        <time>2019-12-22T15:51:53Z</time>
      </trkpt>
      <trkpt lat="44.54512" lon="4.23174">
        <ele>576</ele>
        <time>2019-12-22T15:51:57Z</time>
      </trkpt>
      <trkpt lat="44.54523" lon="4.23177">
        <ele>576</ele>
        <time>2019-12-22T15:51:59Z</time>
      </trkpt>
      <trkpt lat="44.54546" lon="4.23175">
        <ele>578</ele>
        <time>2019-12-22T15:52:03Z</time>
      </trkpt>
      <trkpt lat="44.54615" lon="4.23143">
        <ele>587</ele>
        <time>2019-12-22T15:52:16Z</time>
      </trkpt>
      <trkpt lat="44.54628" lon="4.23135">
        <ele>589</ele>
        <time>2019-12-22T15:52:18Z</time>
      </trkpt>
      <trkpt lat="44.54642" lon="4.23123">
        <ele>591</ele>
        <time>2019-12-22T15:52:21Z</time>
      </trkpt>
      <trkpt lat="44.54696" lon="4.23055">
        <ele>600</ele>
        <time>2019-12-22T15:52:34Z</time>
      </trkpt>
      <trkpt lat="44.54704" lon="4.23039">
        <ele>603</ele>
        <time>2019-12-22T15:52:37Z</time>
      </trkpt>
      <trkpt lat="44.54705" lon="4.23034">
        <ele>603</ele>
        <time>2019-12-22T15:52:37Z</time>
      </trkpt>
      <trkpt lat="44.54704" lon="4.23029">
        <ele>604</ele>
        <time>2019-12-22T15:52:38Z</time>
      </trkpt>
      <trkpt lat="44.54699" lon="4.23026">
        <ele>605</ele>
        <time>2019-12-22T15:52:39Z</time>
      </trkpt>
      <trkpt lat="44.54658" lon="4.23016">
        <ele>607</ele>
        <time>2019-12-22T15:52:46Z</time>
      </trkpt>
      <trkpt lat="44.54616" lon="4.23018">
        <ele>608</ele>
        <time>2019-12-22T15:52:54Z</time>
      </trkpt>
      <trkpt lat="44.54568" lon="4.23011">
        <ele>610</ele>
        <time>2019-12-22T15:53:02Z</time>
      </trkpt>
      <trkpt lat="44.54562" lon="4.23008">
        <ele>610</ele>
        <time>2019-12-22T15:53:03Z</time>
      </trkpt>
      <trkpt lat="44.54556" lon="4.23002">
        <ele>611</ele>
        <time>2019-12-22T15:53:05Z</time>
      </trkpt>
      <trkpt lat="44.54555" lon="4.22992">
        <ele>613</ele>
        <time>2019-12-22T15:53:06Z</time>
      </trkpt>
      <trkpt lat="44.54561" lon="4.22982">
        <ele>615</ele>
        <time>2019-12-22T15:53:08Z</time>
      </trkpt>
      <trkpt lat="44.5461" lon="4.22946">
        <ele>624</ele>
        <time>2019-12-22T15:53:18Z</time>
      </trkpt>
      <trkpt lat="44.54659" lon="4.22919">
        <ele>628</ele>
        <time>2019-12-22T15:53:27Z</time>
      </trkpt>
      <trkpt lat="44.54672" lon="4.22908">
        <ele>629</ele>
        <time>2019-12-22T15:53:30Z</time>
      </trkpt>
      <trkpt lat="44.54684" lon="4.22894">
        <ele>631</ele>
        <time>2019-12-22T15:53:32Z</time>
      </trkpt>
      <trkpt lat="44.54694" lon="4.22878">
        <ele>633</ele>
        <time>2019-12-22T15:53:35Z</time>
      </trkpt>
      <trkpt lat="44.54742" lon="4.22825">
        <ele>635</ele>
        <time>2019-12-22T15:53:46Z</time>
      </trkpt>
      <trkpt lat="44.54753" lon="4.2281">
        <ele>636</ele>
        <time>2019-12-22T15:53:49Z</time>
      </trkpt>
      <trkpt lat="44.54777" lon="4.22788">
        <ele>636</ele>
        <time>2019-12-22T15:53:54Z</time>
      </trkpt>
      <trkpt lat="44.54792" lon="4.22771">
        <ele>636</ele>
        <time>2019-12-22T15:53:57Z</time>
      </trkpt>
      <trkpt lat="44.54801" lon="4.22756">
        <ele>636</ele>
        <time>2019-12-22T15:54:00Z</time>
      </trkpt>
      <trkpt lat="44.54807" lon="4.22742">
        <ele>636</ele>
        <time>2019-12-22T15:54:02Z</time>
      </trkpt>
      <trkpt lat="44.54812" lon="4.22713">
        <ele>637</ele>
        <time>2019-12-22T15:54:06Z</time>
      </trkpt>
      <trkpt lat="44.54814" lon="4.2269">
        <ele>639</ele>
        <time>2019-12-22T15:54:08Z</time>
      </trkpt>
      <trkpt lat="44.5481" lon="4.22621">
        <ele>641</ele>
        <time>2019-12-22T15:54:17Z</time>
      </trkpt>
      <trkpt lat="44.54804" lon="4.22593">
        <ele>643</ele>
        <time>2019-12-22T15:54:21Z</time>
      </trkpt>
      <trkpt lat="44.54778" lon="4.22513">
        <ele>645</ele>
        <time>2019-12-22T15:54:32Z</time>
      </trkpt>
      <trkpt lat="44.54771" lon="4.22499">
        <ele>646</ele>
        <time>2019-12-22T15:54:34Z</time>
      </trkpt>
      <trkpt lat="44.54765" lon="4.22491">
        <ele>647</ele>
        <time>2019-12-22T15:54:36Z</time>
      </trkpt>
      <trkpt lat="44.54759" lon="4.22489">
        <ele>649</ele>
        <time>2019-12-22T15:54:37Z</time>
      </trkpt>
      <trkpt lat="44.54761" lon="4.22462">
        <ele>646</ele>
        <time>2019-12-22T15:54:40Z</time>
      </trkpt>
      <trkpt lat="44.54758" lon="4.2244">
        <ele>645</ele>
        <time>2019-12-22T15:54:43Z</time>
      </trkpt>
      <trkpt lat="44.54744" lon="4.22364">
        <ele>646</ele>
        <time>2019-12-22T15:54:53Z</time>
      </trkpt>
      <trkpt lat="44.54745" lon="4.22354">
        <ele>645</ele>
        <time>2019-12-22T15:54:54Z</time>
      </trkpt>
      <trkpt lat="44.54748" lon="4.22341">
        <ele>643</ele>
        <time>2019-12-22T15:54:56Z</time>
      </trkpt>
      <trkpt lat="44.54753" lon="4.22327">
        <ele>641</ele>
        <time>2019-12-22T15:54:58Z</time>
      </trkpt>
      <trkpt lat="44.54772" lon="4.22296">
        <ele>632</ele>
        <time>2019-12-22T15:55:03Z</time>
      </trkpt>
      <trkpt lat="44.54777" lon="4.22277">
        <ele>630</ele>
        <time>2019-12-22T15:55:06Z</time>
      </trkpt>
      <trkpt lat="44.54777" lon="4.22264">
        <ele>631</ele>
        <time>2019-12-22T15:55:07Z</time>
      </trkpt>
      <trkpt lat="44.54774" lon="4.22246">
        <ele>632</ele>
        <time>2019-12-22T15:55:10Z</time>
      </trkpt>
      <trkpt lat="44.54753" lon="4.22202">
        <ele>638</ele>
        <time>2019-12-22T15:55:17Z</time>
      </trkpt>
      <trkpt lat="44.5475" lon="4.22194">
        <ele>639</ele>
        <time>2019-12-22T15:55:18Z</time>
      </trkpt>
      <trkpt lat="44.54753" lon="4.22182">
        <ele>637</ele>
        <time>2019-12-22T15:55:19Z</time>
      </trkpt>
      <trkpt lat="44.54764" lon="4.22163">
        <ele>631</ele>
        <time>2019-12-22T15:55:22Z</time>
      </trkpt>
      <trkpt lat="44.54768" lon="4.22153">
        <ele>630</ele>
        <time>2019-12-22T15:55:24Z</time>
      </trkpt>
      <trkpt lat="44.54775" lon="4.22106">
        <ele>632</ele>
        <time>2019-12-22T15:55:30Z</time>
      </trkpt>
      <trkpt lat="44.54778" lon="4.22095">
        <ele>633</ele>
        <time>2019-12-22T15:55:31Z</time>
      </trkpt>
      <trkpt lat="44.54781" lon="4.22089">
        <ele>632</ele>
        <time>2019-12-22T15:55:32Z</time>
      </trkpt>
      <trkpt lat="44.54787" lon="4.22085">
        <ele>630</ele>
        <time>2019-12-22T15:55:34Z</time>
      </trkpt>
      <trkpt lat="44.54793" lon="4.22083">
        <ele>629</ele>
        <time>2019-12-22T15:55:35Z</time>
      </trkpt>
      <trkpt lat="44.54817" lon="4.22085">
        <ele>620</ele>
        <time>2019-12-22T15:55:39Z</time>
      </trkpt>
      <trkpt lat="44.54825" lon="4.22082">
        <ele>617</ele>
        <time>2019-12-22T15:55:40Z</time>
      </trkpt>
      <trkpt lat="44.54853" lon="4.22054">
        <ele>614</ele>
        <time>2019-12-22T15:55:47Z</time>
      </trkpt>
      <trkpt lat="44.54875" lon="4.22013">
        <ele>615</ele>
        <time>2019-12-22T15:55:53Z</time>
      </trkpt>
      <trkpt lat="44.54894" lon="4.21989">
        <ele>610</ele>
        <time>2019-12-22T15:55:58Z</time>
      </trkpt>
      <trkpt lat="44.54896" lon="4.21978">
        <ele>609</ele>
        <time>2019-12-22T15:55:59Z</time>
      </trkpt>
      <trkpt lat="44.5489" lon="4.21936">
        <ele>615</ele>
        <time>2019-12-22T15:56:04Z</time>
      </trkpt>
      <trkpt lat="44.54886" lon="4.21919">
        <ele>618</ele>
        <time>2019-12-22T15:56:07Z</time>
      </trkpt>
      <trkpt lat="44.54847" lon="4.21806">
        <ele>614</ele>
        <time>2019-12-22T15:56:23Z</time>
      </trkpt>
      <trkpt lat="44.54844" lon="4.21789">
        <ele>613</ele>
        <time>2019-12-22T15:56:25Z</time>
      </trkpt>
      <trkpt lat="44.54847" lon="4.2177">
        <ele>610</ele>
        <time>2019-12-22T15:56:27Z</time>
      </trkpt>
      <trkpt lat="44.54845" lon="4.21764">
        <ele>610</ele>
        <time>2019-12-22T15:56:28Z</time>
      </trkpt>
      <trkpt lat="44.54835" lon="4.21749">
        <ele>613</ele>
        <time>2019-12-22T15:56:31Z</time>
      </trkpt>
      <trkpt lat="44.54835" lon="4.21742">
        <ele>614</ele>
        <time>2019-12-22T15:56:32Z</time>
      </trkpt>
      <trkpt lat="44.54837" lon="4.21734">
        <ele>614</ele>
        <time>2019-12-22T15:56:33Z</time>
      </trkpt>
      <trkpt lat="44.54873" lon="4.21671">
        <ele>609</ele>
        <time>2019-12-22T15:56:43Z</time>
      </trkpt>
      <trkpt lat="44.54892" lon="4.21642">
        <ele>604</ele>
        <time>2019-12-22T15:56:48Z</time>
      </trkpt>
      <trkpt lat="44.54897" lon="4.21628">
        <ele>603</ele>
        <time>2019-12-22T15:56:50Z</time>
      </trkpt>
      <trkpt lat="44.54896" lon="4.21617">
        <ele>604</ele>
        <time>2019-12-22T15:56:51Z</time>
      </trkpt>
      <trkpt lat="44.54886" lon="4.21581">
        <ele>611</ele>
        <time>2019-12-22T15:56:56Z</time>
      </trkpt>
      <trkpt lat="44.54868" lon="4.21543">
        <ele>620</ele>
        <time>2019-12-22T15:57:02Z</time>
      </trkpt>
      <trkpt lat="44.54867" lon="4.21531">
        <ele>621</ele>
        <time>2019-12-22T15:57:04Z</time>
      </trkpt>
      <trkpt lat="44.5487" lon="4.21517">
        <ele>621</ele>
        <time>2019-12-22T15:57:05Z</time>
      </trkpt>
      <trkpt lat="44.54873" lon="4.21508">
        <ele>621</ele>
        <time>2019-12-22T15:57:07Z</time>
      </trkpt>
      <trkpt lat="44.54884" lon="4.21497">
        <ele>620</ele>
        <time>2019-12-22T15:57:09Z</time>
      </trkpt>
      <trkpt lat="44.5489" lon="4.21495">
        <ele>619</ele>
        <time>2019-12-22T15:57:10Z</time>
      </trkpt>
      <trkpt lat="44.54912" lon="4.215">
        <ele>614</ele>
        <time>2019-12-22T15:57:14Z</time>
      </trkpt>
      <trkpt lat="44.54921" lon="4.21495">
        <ele>614</ele>
        <time>2019-12-22T15:57:16Z</time>
      </trkpt>
      <trkpt lat="44.54966" lon="4.21482">
        <ele>612</ele>
        <time>2019-12-22T15:57:24Z</time>
      </trkpt>
      <trkpt lat="44.54984" lon="4.21474">
        <ele>613</ele>
        <time>2019-12-22T15:57:27Z</time>
      </trkpt>
      <trkpt lat="44.5501" lon="4.21456">
        <ele>618</ele>
        <time>2019-12-22T15:57:33Z</time>
      </trkpt>
      <trkpt lat="44.55019" lon="4.21453">
        <ele>619</ele>
        <time>2019-12-22T15:57:34Z</time>
      </trkpt>
      <trkpt lat="44.55025" lon="4.21454">
        <ele>619</ele>
        <time>2019-12-22T15:57:35Z</time>
      </trkpt>
      <trkpt lat="44.55061" lon="4.21468">
        <ele>616</ele>
        <time>2019-12-22T15:57:42Z</time>
      </trkpt>
      <trkpt lat="44.55107" lon="4.21483">
        <ele>612</ele>
        <time>2019-12-22T15:57:50Z</time>
      </trkpt>
      <trkpt lat="44.55122" lon="4.21485">
        <ele>611</ele>
        <time>2019-12-22T15:57:53Z</time>
      </trkpt>
      <trkpt lat="44.55154" lon="4.2148">
        <ele>612</ele>
        <time>2019-12-22T15:57:59Z</time>
      </trkpt>
      <trkpt lat="44.55173" lon="4.21481">
        <ele>610</ele>
        <time>2019-12-22T15:58:02Z</time>
      </trkpt>
      <trkpt lat="44.55186" lon="4.21472">
        <ele>609</ele>
        <time>2019-12-22T15:58:05Z</time>
      </trkpt>
      <trkpt lat="44.55198" lon="4.21449">
        <ele>611</ele>
        <time>2019-12-22T15:58:08Z</time>
      </trkpt>
      <trkpt lat="44.55205" lon="4.2143">
        <ele>613</ele>
        <time>2019-12-22T15:58:11Z</time>
      </trkpt>
      <trkpt lat="44.5522" lon="4.21384">
        <ele>617</ele>
        <time>2019-12-22T15:58:17Z</time>
      </trkpt>
      <trkpt lat="44.55225" lon="4.21367">
        <ele>619</ele>
        <time>2019-12-22T15:58:20Z</time>
      </trkpt>
      <trkpt lat="44.55229" lon="4.21337">
        <ele>624</ele>
        <time>2019-12-22T15:58:24Z</time>
      </trkpt>
      <trkpt lat="44.55233" lon="4.21328">
        <ele>624</ele>
        <time>2019-12-22T15:58:25Z</time>
      </trkpt>
      <trkpt lat="44.55245" lon="4.21316">
        <ele>622</ele>
        <time>2019-12-22T15:58:28Z</time>
      </trkpt>
      <trkpt lat="44.55251" lon="4.21315">
        <ele>620</ele>
        <time>2019-12-22T15:58:29Z</time>
      </trkpt>
      <trkpt lat="44.55281" lon="4.21325">
        <ele>610</ele>
        <time>2019-12-22T15:58:34Z</time>
      </trkpt>
      <trkpt lat="44.55289" lon="4.21323">
        <ele>609</ele>
        <time>2019-12-22T15:58:36Z</time>
      </trkpt>
      <trkpt lat="44.553" lon="4.21312">
        <ele>608</ele>
        <time>2019-12-22T15:58:38Z</time>
      </trkpt>
      <trkpt lat="44.55309" lon="4.21283">
        <ele>610</ele>
        <time>2019-12-22T15:58:42Z</time>
      </trkpt>
      <trkpt lat="44.55317" lon="4.21224">
        <ele>619</ele>
        <time>2019-12-22T15:58:50Z</time>
      </trkpt>
      <trkpt lat="44.5532" lon="4.21211">
        <ele>620</ele>
        <time>2019-12-22T15:58:51Z</time>
      </trkpt>
      <trkpt lat="44.55324" lon="4.21203">
        <ele>621</ele>
        <time>2019-12-22T15:58:53Z</time>
      </trkpt>
      <trkpt lat="44.55332" lon="4.21195">
        <ele>620</ele>
        <time>2019-12-22T15:58:54Z</time>
      </trkpt>
      <trkpt lat="44.5535" lon="4.21184">
        <ele>622</ele>
        <time>2019-12-22T15:58:58Z</time>
      </trkpt>
      <trkpt lat="44.55359" lon="4.21186">
        <ele>622</ele>
        <time>2019-12-22T15:58:59Z</time>
      </trkpt>
      <trkpt lat="44.55364" lon="4.2119">
        <ele>622</ele>
        <time>2019-12-22T15:59:01Z</time>
      </trkpt>
      <trkpt lat="44.55377" lon="4.21207">
        <ele>618</ele>
        <time>2019-12-22T15:59:04Z</time>
      </trkpt>
      <trkpt lat="44.55383" lon="4.21212">
        <ele>617</ele>
        <time>2019-12-22T15:59:05Z</time>
      </trkpt>
      <trkpt lat="44.55419" lon="4.2123">
        <ele>614</ele>
        <time>2019-12-22T15:59:12Z</time>
      </trkpt>
      <trkpt lat="44.55428" lon="4.21239">
        <ele>612</ele>
        <time>2019-12-22T15:59:14Z</time>
      </trkpt>
      <trkpt lat="44.55443" lon="4.21261">
        <ele>610</ele>
        <time>2019-12-22T15:59:18Z</time>
      </trkpt>
      <trkpt lat="44.5545" lon="4.21267">
        <ele>611</ele>
        <time>2019-12-22T15:59:19Z</time>
      </trkpt>
      <trkpt lat="44.55456" lon="4.21267">
        <ele>612</ele>
        <time>2019-12-22T15:59:20Z</time>
      </trkpt>
      <trkpt lat="44.55482" lon="4.21258">
        <ele>617</ele>
        <time>2019-12-22T15:59:25Z</time>
      </trkpt>
      <trkpt lat="44.55492" lon="4.21253">
        <ele>619</ele>
        <time>2019-12-22T15:59:27Z</time>
      </trkpt>
      <trkpt lat="44.55532" lon="4.21221">
        <ele>618</ele>
        <time>2019-12-22T15:59:35Z</time>
      </trkpt>
      <trkpt lat="44.55555" lon="4.2121">
        <ele>615</ele>
        <time>2019-12-22T15:59:39Z</time>
      </trkpt>
      <trkpt lat="44.55605" lon="4.21181">
        <ele>603</ele>
        <time>2019-12-22T15:59:49Z</time>
      </trkpt>
      <trkpt lat="44.55613" lon="4.2117">
        <ele>601</ele>
        <time>2019-12-22T15:59:51Z</time>
      </trkpt>
      <trkpt lat="44.55641" lon="4.21123">
        <ele>600</ele>
        <time>2019-12-22T15:59:59Z</time>
      </trkpt>
      <trkpt lat="44.55676" lon="4.21088">
        <ele>594</ele>
        <time>2019-12-22T16:00:06Z</time>
      </trkpt>
      <trkpt lat="44.55685" lon="4.21072">
        <ele>591</ele>
        <time>2019-12-22T16:00:09Z</time>
      </trkpt>
      <trkpt lat="44.5569" lon="4.21056">
        <ele>591</ele>
        <time>2019-12-22T16:00:11Z</time>
      </trkpt>
      <trkpt lat="44.55691" lon="4.21022">
        <ele>594</ele>
        <time>2019-12-22T16:00:15Z</time>
      </trkpt>
      <trkpt lat="44.55688" lon="4.21005">
        <ele>596</ele>
        <time>2019-12-22T16:00:18Z</time>
      </trkpt>
      <trkpt lat="44.55684" lon="4.2099">
        <ele>597</ele>
        <time>2019-12-22T16:00:20Z</time>
      </trkpt>
      <trkpt lat="44.5567" lon="4.20961">
        <ele>597</ele>
        <time>2019-12-22T16:00:24Z</time>
      </trkpt>
      <trkpt lat="44.55667" lon="4.20948">
        <ele>596</ele>
        <time>2019-12-22T16:00:26Z</time>
      </trkpt>
      <trkpt lat="44.55666" lon="4.20909">
        <ele>589</ele>
        <time>2019-12-22T16:00:31Z</time>
      </trkpt>
      <trkpt lat="44.5566" lon="4.20882">
        <ele>585</ele>
        <time>2019-12-22T16:00:34Z</time>
      </trkpt>
      <trkpt lat="44.55654" lon="4.20864">
        <ele>582</ele>
        <time>2019-12-22T16:00:37Z</time>
      </trkpt>
      <trkpt lat="44.55631" lon="4.20813">
        <ele>573</ele>
        <time>2019-12-22T16:00:45Z</time>
      </trkpt>
      <trkpt lat="44.55613" lon="4.20796">
        <ele>572</ele>
        <time>2019-12-22T16:00:48Z</time>
      </trkpt>
      <trkpt lat="44.55611" lon="4.20791">
        <ele>571</ele>
        <time>2019-12-22T16:00:49Z</time>
      </trkpt>
      <trkpt lat="44.55613" lon="4.20784">
        <ele>568</ele>
        <time>2019-12-22T16:00:50Z</time>
      </trkpt>
      <trkpt lat="44.55618" lon="4.20782">
        <ele>567</ele>
        <time>2019-12-22T16:00:51Z</time>
      </trkpt>
      <trkpt lat="44.55622" lon="4.20784">
        <ele>566</ele>
        <time>2019-12-22T16:00:52Z</time>
      </trkpt>
      <trkpt lat="44.5564" lon="4.20801">
        <ele>567</ele>
        <time>2019-12-22T16:00:56Z</time>
      </trkpt>
      <trkpt lat="44.55656" lon="4.20826">
        <ele>571</ele>
        <time>2019-12-22T16:01:00Z</time>
      </trkpt>
      <trkpt lat="44.5568" lon="4.20853">
        <ele>571</ele>
        <time>2019-12-22T16:01:05Z</time>
      </trkpt>
      <trkpt lat="44.55705" lon="4.20892">
        <ele>571</ele>
        <time>2019-12-22T16:01:12Z</time>
      </trkpt>
      <trkpt lat="44.55708" lon="4.20905">
        <ele>573</ele>
        <time>2019-12-22T16:01:14Z</time>
      </trkpt>
      <trkpt lat="44.55708" lon="4.20913">
        <ele>575</ele>
        <time>2019-12-22T16:01:15Z</time>
      </trkpt>
      <trkpt lat="44.55711" lon="4.20918">
        <ele>575</ele>
        <time>2019-12-22T16:01:16Z</time>
      </trkpt>
      <trkpt lat="44.55718" lon="4.20923">
        <ele>573</ele>
        <time>2019-12-22T16:01:17Z</time>
      </trkpt>
      <trkpt lat="44.55737" lon="4.20927">
        <ele>566</ele>
        <time>2019-12-22T16:01:20Z</time>
      </trkpt>
      <trkpt lat="44.55745" lon="4.20934">
        <ele>565</ele>
        <time>2019-12-22T16:01:22Z</time>
      </trkpt>
      <trkpt lat="44.55765" lon="4.20962">
        <ele>565</ele>
        <time>2019-12-22T16:01:27Z</time>
      </trkpt>
      <trkpt lat="44.55777" lon="4.20972">
        <ele>565</ele>
        <time>2019-12-22T16:01:30Z</time>
      </trkpt>
      <trkpt lat="44.55797" lon="4.20978">
        <ele>562</ele>
        <time>2019-12-22T16:01:33Z</time>
      </trkpt>
      <trkpt lat="44.5581" lon="4.20976">
        <ele>560</ele>
        <time>2019-12-22T16:01:36Z</time>
      </trkpt>
      <trkpt lat="44.55841" lon="4.20951">
        <ele>555</ele>
        <time>2019-12-22T16:01:42Z</time>
      </trkpt>
      <trkpt lat="44.55845" lon="4.20941">
        <ele>554</ele>
        <time>2019-12-22T16:01:43Z</time>
      </trkpt>
      <trkpt lat="44.55844" lon="4.20934">
        <ele>555</ele>
        <time>2019-12-22T16:01:44Z</time>
      </trkpt>
      <trkpt lat="44.5588" lon="4.2092">
        <ele>553</ele>
        <time>2019-12-22T16:01:51Z</time>
      </trkpt>
      <trkpt lat="44.55887" lon="4.20911">
        <ele>553</ele>
        <time>2019-12-22T16:01:53Z</time>
      </trkpt>
      <trkpt lat="44.55903" lon="4.20886">
        <ele>555</ele>
        <time>2019-12-22T16:01:57Z</time>
      </trkpt>
      <trkpt lat="44.55914" lon="4.20878">
        <ele>557</ele>
        <time>2019-12-22T16:01:59Z</time>
      </trkpt>
      <trkpt lat="44.55926" lon="4.20876">
        <ele>556</ele>
        <time>2019-12-22T16:02:01Z</time>
      </trkpt>
      <trkpt lat="44.56008" lon="4.20876">
        <ele>544</ele>
        <time>2019-12-22T16:02:16Z</time>
      </trkpt>
      <trkpt lat="44.56035" lon="4.20873">
        <ele>540</ele>
        <time>2019-12-22T16:02:21Z</time>
      </trkpt>
      <trkpt lat="44.56056" lon="4.20862">
        <ele>538</ele>
        <time>2019-12-22T16:02:25Z</time>
      </trkpt>
      <trkpt lat="44.56067" lon="4.20851">
        <ele>538</ele>
        <time>2019-12-22T16:02:27Z</time>
      </trkpt>
      <trkpt lat="44.56084" lon="4.20847">
        <ele>535</ele>
        <time>2019-12-22T12:17:59Z</time>
      </trkpt>
      <trkpt lat="44.56086" lon="4.20847">
        <ele>535</ele>
        <time>2019-12-22T12:17:59Z</time>
      </trkpt>
      <trkpt lat="44.56093" lon="4.20853">
        <ele>535</ele>
        <time>2019-12-22T12:18:01Z</time>
      </trkpt>
      <trkpt lat="44.56104" lon="4.20878">
        <ele>534</ele>
        <time>2019-12-22T12:18:05Z</time>
      </trkpt>
      <trkpt lat="44.56113" lon="4.2089">
        <ele>534</ele>
        <time>2019-12-22T12:18:07Z</time>
      </trkpt>
      <trkpt lat="44.56135" lon="4.20909">
        <ele>538</ele>
        <time>2019-12-22T12:18:11Z</time>
      </trkpt>
      <trkpt lat="44.56143" lon="4.2092">
        <ele>539</ele>
        <time>2019-12-22T12:18:13Z</time>
      </trkpt>
      <trkpt lat="44.56147" lon="4.20935">
        <ele>538</ele>
        <time>2019-12-22T12:18:15Z</time>
      </trkpt>
      <trkpt lat="44.56151" lon="4.2096">
        <ele>535</ele>
        <time>2019-12-22T12:18:19Z</time>
      </trkpt>
      <trkpt lat="44.56152" lon="4.21007">
        <ele>529</ele>
        <time>2019-12-22T12:18:25Z</time>
      </trkpt>
      <trkpt lat="44.56155" lon="4.21024">
        <ele>527</ele>
        <time>2019-12-22T12:18:27Z</time>
      </trkpt>
      <trkpt lat="44.56167" lon="4.21058">
        <ele>526</ele>
        <time>2019-12-22T12:18:32Z</time>
      </trkpt>
      <trkpt lat="44.56181" lon="4.21122">
        <ele>517</ele>
        <time>2019-12-22T12:18:40Z</time>
      </trkpt>
      <trkpt lat="44.56188" lon="4.21132">
        <ele>517</ele>
        <time>2019-12-22T12:18:42Z</time>
      </trkpt>
      <trkpt lat="44.562" lon="4.21136">
        <ele>519</ele>
        <time>2019-12-22T12:18:44Z</time>
      </trkpt>
      <trkpt lat="44.56244" lon="4.21136">
        <ele>530</ele>
        <time>2019-12-22T12:18:52Z</time>
      </trkpt>
      <trkpt lat="44.56252" lon="4.21141">
        <ele>531</ele>
        <time>2019-12-22T12:18:53Z</time>
      </trkpt>
      <trkpt lat="44.56268" lon="4.21157">
        <ele>531</ele>
        <time>2019-12-22T12:18:57Z</time>
      </trkpt>
      <trkpt lat="44.56276" lon="4.2116">
        <ele>532</ele>
        <time>2019-12-22T12:18:58Z</time>
      </trkpt>
      <trkpt lat="44.563" lon="4.2116">
        <ele>539</ele>
        <time>2019-12-22T12:19:03Z</time>
      </trkpt>
      <trkpt lat="44.56303" lon="4.21163">
        <ele>540</ele>
        <time>2019-12-22T12:19:03Z</time>
      </trkpt>
      <trkpt lat="44.56319" lon="4.21282">
        <ele>527</ele>
        <time>2019-12-22T12:19:19Z</time>
      </trkpt>
      <trkpt lat="44.5632" lon="4.21322">
        <ele>521</ele>
        <time>2019-12-22T12:19:24Z</time>
      </trkpt>
      <trkpt lat="44.56325" lon="4.21344">
        <ele>519</ele>
        <time>2019-12-22T12:19:27Z</time>
      </trkpt>
      <trkpt lat="44.56331" lon="4.21361">
        <ele>518</ele>
        <time>2019-12-22T12:19:29Z</time>
      </trkpt>
      <trkpt lat="44.56336" lon="4.21368">
        <ele>517</ele>
        <time>2019-12-22T12:19:30Z</time>
      </trkpt>
      <trkpt lat="44.5638" lon="4.21407">
        <ele>516</ele>
        <time>2019-12-22T12:19:40Z</time>
      </trkpt>
      <trkpt lat="44.56402" lon="4.21425">
        <ele>516</ele>
        <time>2019-12-22T12:19:44Z</time>
      </trkpt>
      <trkpt lat="44.56427" lon="4.21434">
        <ele>520</ele>
        <time>2019-12-22T12:19:49Z</time>
      </trkpt>
      <trkpt lat="44.56431" lon="4.2144">
        <ele>520</ele>
        <time>2019-12-22T12:19:50Z</time>
      </trkpt>
      <trkpt lat="44.56434" lon="4.21451">
        <ele>519</ele>
        <time>2019-12-22T12:19:51Z</time>
      </trkpt>
      <trkpt lat="44.56446" lon="4.2153">
        <ele>510</ele>
        <time>2019-12-22T12:20:02Z</time>
      </trkpt>
      <trkpt lat="44.56452" lon="4.2156">
        <ele>508</ele>
        <time>2019-12-22T12:20:05Z</time>
      </trkpt>
      <trkpt lat="44.56461" lon="4.21586">
        <ele>507</ele>
        <time>2019-12-22T12:20:09Z</time>
      </trkpt>
      <trkpt lat="44.56471" lon="4.21602">
        <ele>507</ele>
        <time>2019-12-22T12:20:12Z</time>
      </trkpt>
      <trkpt lat="44.56487" lon="4.21613">
        <ele>509</ele>
        <time>2019-12-22T12:20:15Z</time>
      </trkpt>
      <trkpt lat="44.56501" lon="4.21619">
        <ele>510</ele>
        <time>2019-12-22T12:20:18Z</time>
      </trkpt>
      <trkpt lat="44.56514" lon="4.21618">
        <ele>509</ele>
        <time>2019-12-22T12:20:20Z</time>
      </trkpt>
      <trkpt lat="44.56534" lon="4.2161">
        <ele>507</ele>
        <time>2019-12-22T12:20:24Z</time>
      </trkpt>
      <trkpt lat="44.56549" lon="4.21592">
        <ele>509</ele>
        <time>2019-12-22T12:20:27Z</time>
      </trkpt>
      <trkpt lat="44.56579" lon="4.21575">
        <ele>509</ele>
        <time>2019-12-22T12:20:33Z</time>
      </trkpt>
      <trkpt lat="44.56599" lon="4.21558">
        <ele>507</ele>
        <time>2019-12-22T12:20:37Z</time>
      </trkpt>
      <trkpt lat="44.56638" lon="4.21505">
        <ele>499</ele>
        <time>2019-12-22T12:20:47Z</time>
      </trkpt>
      <trkpt lat="44.56644" lon="4.21493">
        <ele>498</ele>
        <time>2019-12-22T12:20:49Z</time>
      </trkpt>
      <trkpt lat="44.56647" lon="4.21478">
        <ele>498</ele>
        <time>2019-12-22T12:20:51Z</time>
      </trkpt>
      <trkpt lat="44.56648" lon="4.21446">
        <ele>501</ele>
        <time>2019-12-22T12:20:55Z</time>
      </trkpt>
      <trkpt lat="44.56652" lon="4.21441">
        <ele>499</ele>
        <time>2019-12-22T12:20:56Z</time>
      </trkpt>
      <trkpt lat="44.56663" lon="4.21433">
        <ele>495</ele>
        <time>2019-12-22T12:20:58Z</time>
      </trkpt>
      <trkpt lat="44.56713" lon="4.21409">
        <ele>486</ele>
        <time>2019-12-22T12:21:07Z</time>
      </trkpt>
      <trkpt lat="44.56744" lon="4.21383">
        <ele>482</ele>
        <time>2019-12-22T12:21:14Z</time>
      </trkpt>
      <trkpt lat="44.56786" lon="4.2136">
        <ele>479</ele>
        <time>2019-12-22T12:21:22Z</time>
      </trkpt>
      <trkpt lat="44.56794" lon="4.21358">
        <ele>479</ele>
        <time>2019-12-22T12:21:23Z</time>
      </trkpt>
      <trkpt lat="44.56804" lon="4.21348">
        <ele>477</ele>
        <time>2019-12-22T12:21:25Z</time>
      </trkpt>
      <trkpt lat="44.56804" lon="4.21374">
        <ele>478</ele>
        <time>2019-12-22T12:21:29Z</time>
      </trkpt>
      <trkpt lat="44.56803" lon="4.21383">
        <ele>478</ele>
        <time>2019-12-22T12:21:30Z</time>
      </trkpt>
      <trkpt lat="44.56795" lon="4.21398">
        <ele>479</ele>
        <time>2019-12-22T12:21:32Z</time>
      </trkpt>
      <trkpt lat="44.56787" lon="4.21407">
        <ele>479</ele>
        <time>2019-12-22T12:21:34Z</time>
      </trkpt>
      <trkpt lat="44.56768" lon="4.21415">
        <ele>478</ele>
        <time>2019-12-22T12:21:37Z</time>
      </trkpt>
      <trkpt lat="44.56754" lon="4.21425">
        <ele>476</ele>
        <time>2019-12-22T12:21:40Z</time>
      </trkpt>
      <trkpt lat="44.56728" lon="4.2145">
        <ele>477</ele>
        <time>2019-12-22T12:21:46Z</time>
      </trkpt>
      <trkpt lat="44.56721" lon="4.2146">
        <ele>478</ele>
        <time>2019-12-22T12:21:48Z</time>
      </trkpt>
      <trkpt lat="44.56715" lon="4.21474">
        <ele>477</ele>
        <time>2019-12-22T12:21:50Z</time>
      </trkpt>
      <trkpt lat="44.56712" lon="4.21491">
        <ele>476</ele>
        <time>2019-12-22T12:21:52Z</time>
      </trkpt>
      <trkpt lat="44.56708" lon="4.21542">
        <ele>474</ele>
        <time>2019-12-22T12:21:58Z</time>
      </trkpt>
      <trkpt lat="44.567" lon="4.2158">
        <ele>475</ele>
        <time>2019-12-22T12:22:03Z</time>
      </trkpt>
      <trkpt lat="44.56681" lon="4.21703">
        <ele>461</ele>
        <time>2019-12-22T12:22:19Z</time>
      </trkpt>
      <trkpt lat="44.56676" lon="4.21756">
        <ele>455</ele>
        <time>2019-12-22T12:22:26Z</time>
      </trkpt>
      <trkpt lat="44.56672" lon="4.2178">
        <ele>453</ele>
        <time>2019-12-22T12:22:29Z</time>
      </trkpt>
      <trkpt lat="44.56667" lon="4.218">
        <ele>452</ele>
        <time>2019-12-22T12:22:32Z</time>
      </trkpt>
      <trkpt lat="44.56655" lon="4.21825">
        <ele>453</ele>
        <time>2019-12-22T12:22:36Z</time>
      </trkpt>
      <trkpt lat="44.56649" lon="4.21841">
        <ele>454</ele>
        <time>2019-12-22T12:22:38Z</time>
      </trkpt>
      <trkpt lat="44.56647" lon="4.21856">
        <ele>453</ele>
        <time>2019-12-22T12:22:40Z</time>
      </trkpt>
      <trkpt lat="44.56643" lon="4.21938">
        <ele>449</ele>
        <time>2019-12-22T12:22:50Z</time>
      </trkpt>
      <trkpt lat="44.56638" lon="4.21963">
        <ele>447</ele>
        <time>2019-12-22T12:22:54Z</time>
      </trkpt>
      <trkpt lat="44.56624" lon="4.22011">
        <ele>445</ele>
        <time>2019-12-22T12:23:00Z</time>
      </trkpt>
      <trkpt lat="44.56613" lon="4.22031">
        <ele>445</ele>
        <time>2019-12-22T12:23:03Z</time>
      </trkpt>
      <trkpt lat="44.56576" lon="4.22081">
        <ele>443</ele>
        <time>2019-12-22T12:23:13Z</time>
      </trkpt>
      <trkpt lat="44.56564" lon="4.22095">
        <ele>440</ele>
        <time>2019-12-22T12:23:15Z</time>
      </trkpt>
      <trkpt lat="44.56556" lon="4.22102">
        <ele>439</ele>
        <time>2019-12-22T12:23:17Z</time>
      </trkpt>
      <trkpt lat="44.56548" lon="4.22104">
        <ele>438</ele>
        <time>2019-12-22T12:23:19Z</time>
      </trkpt>
      <trkpt lat="44.56539" lon="4.22102">
        <ele>438</ele>
        <time>2019-12-22T12:23:20Z</time>
      </trkpt>
      <trkpt lat="44.5653" lon="4.22095">
        <ele>438</ele>
        <time>2019-12-22T12:23:22Z</time>
      </trkpt>
      <trkpt lat="44.56513" lon="4.22074">
        <ele>438</ele>
        <time>2019-12-22T12:23:26Z</time>
      </trkpt>
      <trkpt lat="44.56502" lon="4.22073">
        <ele>437</ele>
        <time>2019-12-22T12:23:28Z</time>
      </trkpt>
      <trkpt lat="44.56497" lon="4.22077">
        <ele>436</ele>
        <time>2019-12-22T12:23:29Z</time>
      </trkpt>
      <trkpt lat="44.56493" lon="4.22083">
        <ele>435</ele>
        <time>2019-12-22T12:23:30Z</time>
      </trkpt>
      <trkpt lat="44.56493" lon="4.22097">
        <ele>434</ele>
        <time>2019-12-22T12:23:32Z</time>
      </trkpt>
      <trkpt lat="44.56496" lon="4.22105">
        <ele>434</ele>
        <time>2019-12-22T12:23:33Z</time>
      </trkpt>
      <trkpt lat="44.56515" lon="4.22128">
        <ele>434</ele>
        <time>2019-12-22T12:23:37Z</time>
      </trkpt>
      <trkpt lat="44.56519" lon="4.22137">
        <ele>433</ele>
        <time>2019-12-22T12:23:39Z</time>
      </trkpt>
      <trkpt lat="44.56522" lon="4.22148">
        <ele>433</ele>
        <time>2019-12-22T12:23:40Z</time>
      </trkpt>
      <trkpt lat="44.56523" lon="4.22161">
        <ele>432</ele>
        <time>2019-12-22T12:23:42Z</time>
      </trkpt>
      <trkpt lat="44.56522" lon="4.22181">
        <ele>430</ele>
        <time>2019-12-22T12:23:44Z</time>
      </trkpt>
      <trkpt lat="44.56517" lon="4.22209">
        <ele>429</ele>
        <time>2019-12-22T12:23:48Z</time>
      </trkpt>
      <trkpt lat="44.5651" lon="4.22228">
        <ele>428</ele>
        <time>2019-12-22T12:23:51Z</time>
      </trkpt>
      <trkpt lat="44.56495" lon="4.22256">
        <ele>427</ele>
        <time>2019-12-22T12:23:55Z</time>
      </trkpt>
      <trkpt lat="44.56465" lon="4.22305">
        <ele>419</ele>
        <time>2019-12-22T12:24:03Z</time>
      </trkpt>
      <trkpt lat="44.56461" lon="4.22316">
        <ele>417</ele>
        <time>2019-12-22T12:24:05Z</time>
      </trkpt>
      <trkpt lat="44.56461" lon="4.22327">
        <ele>417</ele>
        <time>2019-12-22T12:24:06Z</time>
      </trkpt>
      <trkpt lat="44.56463" lon="4.22337">
        <ele>416</ele>
        <time>2019-12-22T12:24:08Z</time>
      </trkpt>
      <trkpt lat="44.56468" lon="4.22345">
        <ele>416</ele>
        <time>2019-12-22T12:24:09Z</time>
      </trkpt>
      <trkpt lat="44.5648" lon="4.22352">
        <ele>416</ele>
        <time>2019-12-22T12:24:11Z</time>
      </trkpt>
      <trkpt lat="44.56487" lon="4.22351">
        <ele>416</ele>
        <time>2019-12-22T12:24:13Z</time>
      </trkpt>
      <trkpt lat="44.56501" lon="4.22338">
        <ele>418</ele>
        <time>2019-12-22T12:24:16Z</time>
      </trkpt>
      <trkpt lat="44.56526" lon="4.22298">
        <ele>420</ele>
        <time>2019-12-22T12:24:22Z</time>
      </trkpt>
      <trkpt lat="44.56541" lon="4.2228">
        <ele>421</ele>
        <time>2019-12-22T12:24:26Z</time>
      </trkpt>
      <trkpt lat="44.56549" lon="4.22276">
        <ele>421</ele>
        <time>2019-12-22T12:24:27Z</time>
      </trkpt>
      <trkpt lat="44.56558" lon="4.22275">
        <ele>420</ele>
        <time>2019-12-22T12:24:29Z</time>
      </trkpt>
      <trkpt lat="44.56586" lon="4.22285">
        <ele>417</ele>
        <time>2019-12-22T12:24:34Z</time>
      </trkpt>
      <trkpt lat="44.56615" lon="4.22287">
        <ele>418</ele>
        <time>2019-12-22T12:24:39Z</time>
      </trkpt>
      <trkpt lat="44.56624" lon="4.22293">
        <ele>417</ele>
        <time>2019-12-22T12:24:41Z</time>
      </trkpt>
      <trkpt lat="44.56629" lon="4.22298">
        <ele>417</ele>
        <time>2019-12-22T12:24:42Z</time>
      </trkpt>
      <trkpt lat="44.56634" lon="4.22307">
        <ele>417</ele>
        <time>2019-12-22T12:24:44Z</time>
      </trkpt>
      <trkpt lat="44.56636" lon="4.22317">
        <ele>416</ele>
        <time>2019-12-22T12:24:45Z</time>
      </trkpt>
      <trkpt lat="44.56635" lon="4.22329">
        <ele>416</ele>
        <time>2019-12-22T12:24:46Z</time>
      </trkpt>
      <trkpt lat="44.56631" lon="4.22338">
        <ele>415</ele>
        <time>2019-12-22T12:24:48Z</time>
      </trkpt>
      <trkpt lat="44.56617" lon="4.22352">
        <ele>415</ele>
        <time>2019-12-22T12:24:51Z</time>
      </trkpt>
      <trkpt lat="44.56584" lon="4.22367">
        <ele>413</ele>
        <time>2019-12-22T12:24:57Z</time>
      </trkpt>
      <trkpt lat="44.56565" lon="4.22383">
        <ele>414</ele>
        <time>2019-12-22T12:25:01Z</time>
      </trkpt>
      <trkpt lat="44.56554" lon="4.22402">
        <ele>414</ele>
        <time>2019-12-22T12:25:04Z</time>
      </trkpt>
      <trkpt lat="44.56549" lon="4.22418">
        <ele>413</ele>
        <time>2019-12-22T12:25:06Z</time>
      </trkpt>
      <trkpt lat="44.56541" lon="4.22472">
        <ele>413</ele>
        <time>2019-12-22T12:25:13Z</time>
      </trkpt>
      <trkpt lat="44.56536" lon="4.22492">
        <ele>413</ele>
        <time>2019-12-22T12:25:16Z</time>
      </trkpt>
      <trkpt lat="44.56529" lon="4.22511">
        <ele>412</ele>
        <time>2019-12-22T12:25:19Z</time>
      </trkpt>
      <trkpt lat="44.56511" lon="4.22549">
        <ele>408</ele>
        <time>2019-12-22T12:25:24Z</time>
      </trkpt>
      <trkpt lat="44.56506" lon="4.22565">
        <ele>407</ele>
        <time>2019-12-22T12:25:27Z</time>
      </trkpt>
      <trkpt lat="44.56503" lon="4.22593">
        <ele>405</ele>
        <time>2019-12-22T12:25:30Z</time>
      </trkpt>
      <trkpt lat="44.56504" lon="4.2262">
        <ele>405</ele>
        <time>2019-12-22T12:25:34Z</time>
      </trkpt>
      <trkpt lat="44.56508" lon="4.22653">
        <ele>405</ele>
        <time>2019-12-22T12:25:38Z</time>
      </trkpt>
      <trkpt lat="44.5652" lon="4.22707">
        <ele>406</ele>
        <time>2019-12-22T12:25:45Z</time>
      </trkpt>
      <trkpt lat="44.56522" lon="4.22723">
        <ele>405</ele>
        <time>2019-12-22T12:25:47Z</time>
      </trkpt>
      <trkpt lat="44.5652" lon="4.2282">
        <ele>402</ele>
        <time>2019-12-22T12:26:00Z</time>
      </trkpt>
      <trkpt lat="44.56521" lon="4.22839">
        <ele>402</ele>
        <time>2019-12-22T12:26:02Z</time>
      </trkpt>
      <trkpt lat="44.56524" lon="4.22856">
        <ele>401</ele>
        <time>2019-12-22T12:26:04Z</time>
      </trkpt>
      <trkpt lat="44.56541" lon="4.22895">
        <ele>401</ele>
        <time>2019-12-22T12:26:10Z</time>
      </trkpt>
      <trkpt lat="44.56545" lon="4.22907">
        <ele>401</ele>
        <time>2019-12-22T12:26:12Z</time>
      </trkpt>
      <trkpt lat="44.56547" lon="4.22922">
        <ele>401</ele>
        <time>2019-12-22T12:26:14Z</time>
      </trkpt>
      <trkpt lat="44.56547" lon="4.22954">
        <ele>402</ele>
        <time>2019-12-22T12:26:18Z</time>
      </trkpt>
      <trkpt lat="44.56543" lon="4.22989">
        <ele>403</ele>
        <time>2019-12-22T12:26:22Z</time>
      </trkpt>
      <trkpt lat="44.56526" lon="4.23088">
        <ele>403</ele>
        <time>2019-12-22T12:26:35Z</time>
      </trkpt>
      <trkpt lat="44.56519" lon="4.23118">
        <ele>403</ele>
        <time>2019-12-22T12:26:39Z</time>
      </trkpt>
      <trkpt lat="44.56488" lon="4.23186">
        <ele>401</ele>
        <time>2019-12-22T12:26:49Z</time>
      </trkpt>
      <trkpt lat="44.56477" lon="4.23217">
        <ele>402</ele>
        <time>2019-12-22T12:26:54Z</time>
      </trkpt>
      <trkpt lat="44.56461" lon="4.23249">
        <ele>402</ele>
        <time>2019-12-22T12:26:59Z</time>
      </trkpt>
      <trkpt lat="44.56398" lon="4.23331">
        <ele>395</ele>
        <time>2019-12-22T12:27:14Z</time>
      </trkpt>
      <trkpt lat="44.56389" lon="4.23349">
        <ele>393</ele>
        <time>2019-12-22T12:27:17Z</time>
      </trkpt>
      <trkpt lat="44.56383" lon="4.2337">
        <ele>391</ele>
        <time>2019-12-22T12:27:20Z</time>
      </trkpt>
      <trkpt lat="44.56356" lon="4.23575">
        <ele>390</ele>
        <time>2019-12-22T12:27:46Z</time>
      </trkpt>
      <trkpt lat="44.5635" lon="4.23602">
        <ele>392</ele>
        <time>2019-12-22T12:27:50Z</time>
      </trkpt>
      <trkpt lat="44.56343" lon="4.23621">
        <ele>393</ele>
        <time>2019-12-22T12:27:52Z</time>
      </trkpt>
      <trkpt lat="44.56332" lon="4.23641">
        <ele>394</ele>
        <time>2019-12-22T12:27:55Z</time>
      </trkpt>
      <trkpt lat="44.56323" lon="4.23666">
        <ele>396</ele>
        <time>2019-12-22T12:27:59Z</time>
      </trkpt>
      <trkpt lat="44.56311" lon="4.2369">
        <ele>397</ele>
        <time>2019-12-22T12:28:03Z</time>
      </trkpt>
      <trkpt lat="44.56287" lon="4.23715">
        <ele>397</ele>
        <time>2019-12-22T12:28:08Z</time>
      </trkpt>
      <trkpt lat="44.56269" lon="4.23744">
        <ele>397</ele>
        <time>2019-12-22T12:28:13Z</time>
      </trkpt>
      <trkpt lat="44.56251" lon="4.23791">
        <ele>396</ele>
        <time>2019-12-22T12:28:20Z</time>
      </trkpt>
      <trkpt lat="44.56249" lon="4.23806">
        <ele>396</ele>
        <time>2019-12-22T12:28:22Z</time>
      </trkpt>
      <trkpt lat="44.5625" lon="4.23821">
        <ele>396</ele>
        <time>2019-12-22T12:28:24Z</time>
      </trkpt>
      <trkpt lat="44.56254" lon="4.23833">
        <ele>396</ele>
        <time>2019-12-22T12:28:25Z</time>
      </trkpt>
      <trkpt lat="44.56264" lon="4.23848">
        <ele>396</ele>
        <time>2019-12-22T12:28:28Z</time>
      </trkpt>
      <trkpt lat="44.56286" lon="4.23868">
        <ele>397</ele>
        <time>2019-12-22T12:28:32Z</time>
      </trkpt>
      <trkpt lat="44.56335" lon="4.23895">
        <ele>402</ele>
        <time>2019-12-22T12:28:42Z</time>
      </trkpt>
      <trkpt lat="44.5635" lon="4.23907">
        <ele>403</ele>
        <time>2019-12-22T12:28:45Z</time>
      </trkpt>
      <trkpt lat="44.56506" lon="4.24073">
        <ele>408</ele>
        <time>2019-12-22T12:29:20Z</time>
      </trkpt>
      <trkpt lat="44.56529" lon="4.24084">
        <ele>409</ele>
        <time>2019-12-22T12:29:24Z</time>
      </trkpt>
      <trkpt lat="44.5656" lon="4.2409">
        <ele>413</ele>
        <time>2019-12-22T12:29:30Z</time>
      </trkpt>
      <trkpt lat="44.56569" lon="4.24097">
        <ele>414</ele>
        <time>2019-12-22T12:29:31Z</time>
      </trkpt>
      <trkpt lat="44.56582" lon="4.2412">
        <ele>414</ele>
        <time>2019-12-22T12:29:35Z</time>
      </trkpt>
      <trkpt lat="44.56608" lon="4.24172">
        <ele>416</ele>
        <time>2019-12-22T12:29:43Z</time>
      </trkpt>
      <trkpt lat="44.56617" lon="4.24188">
        <ele>417</ele>
        <time>2019-12-22T12:29:46Z</time>
      </trkpt>
      <trkpt lat="44.56632" lon="4.24208">
        <ele>418</ele>
        <time>2019-12-22T12:29:50Z</time>
      </trkpt>
      <trkpt lat="44.56644" lon="4.24218">
        <ele>418</ele>
        <time>2019-12-22T12:29:52Z</time>
      </trkpt>
      <trkpt lat="44.56658" lon="4.24225">
        <ele>419</ele>
        <time>2019-12-22T12:29:55Z</time>
      </trkpt>
      <trkpt lat="44.56678" lon="4.24231">
        <ele>420</ele>
        <time>2019-12-22T12:29:58Z</time>
      </trkpt>
      <trkpt lat="44.56703" lon="4.24235">
        <ele>422</ele>
        <time>2019-12-22T12:30:03Z</time>
      </trkpt>
      <trkpt lat="44.56716" lon="4.24239">
        <ele>423</ele>
        <time>2019-12-22T12:30:05Z</time>
      </trkpt>
      <trkpt lat="44.56736" lon="4.24253">
        <ele>423</ele>
        <time>2019-12-22T12:30:09Z</time>
      </trkpt>
      <trkpt lat="44.56749" lon="4.24269">
        <ele>424</ele>
        <time>2019-12-22T12:30:12Z</time>
      </trkpt>
      <trkpt lat="44.56782" lon="4.24318">
        <ele>427</ele>
        <time>2019-12-22T12:30:21Z</time>
      </trkpt>
      <trkpt lat="44.56787" lon="4.24329">
        <ele>427</ele>
        <time>2019-12-22T12:30:22Z</time>
      </trkpt>
      <trkpt lat="44.56813" lon="4.24399">
        <ele>428</ele>
        <time>2019-12-22T12:30:32Z</time>
      </trkpt>
      <trkpt lat="44.56823" lon="4.24416">
        <ele>429</ele>
        <time>2019-12-22T12:30:35Z</time>
      </trkpt>
      <trkpt lat="44.56858" lon="4.24442">
        <ele>434</ele>
        <time>2019-12-22T12:30:42Z</time>
      </trkpt>
      <trkpt lat="44.56867" lon="4.24451">
        <ele>435</ele>
        <time>2019-12-22T12:30:44Z</time>
      </trkpt>
      <trkpt lat="44.56874" lon="4.24464">
        <ele>435</ele>
        <time>2019-12-22T12:30:46Z</time>
      </trkpt>
      <trkpt lat="44.56882" lon="4.2448">
        <ele>435</ele>
        <time>2019-12-22T12:30:49Z</time>
      </trkpt>
      <trkpt lat="44.56889" lon="4.24502">
        <ele>435</ele>
        <time>2019-12-22T12:30:52Z</time>
      </trkpt>
      <trkpt lat="44.56896" lon="4.24513">
        <ele>435</ele>
        <time>2019-12-22T12:30:54Z</time>
      </trkpt>
      <trkpt lat="44.56904" lon="4.24522">
        <ele>436</ele>
        <time>2019-12-22T12:30:55Z</time>
      </trkpt>
      <trkpt lat="44.56948" lon="4.24537">
        <ele>440</ele>
        <time>2019-12-22T12:31:04Z</time>
      </trkpt>
      <trkpt lat="44.56957" lon="4.24542">
        <ele>440</ele>
        <time>2019-12-22T12:31:05Z</time>
      </trkpt>
      <trkpt lat="44.56963" lon="4.24548">
        <ele>441</ele>
        <time>2019-12-22T12:31:07Z</time>
      </trkpt>
      <trkpt lat="44.56966" lon="4.24555">
        <ele>441</ele>
        <time>2019-12-22T12:31:08Z</time>
      </trkpt>
      <trkpt lat="44.56968" lon="4.24562">
        <ele>440</ele>
        <time>2019-12-22T12:31:09Z</time>
      </trkpt>
      <trkpt lat="44.56968" lon="4.24571">
        <ele>440</ele>
        <time>2019-12-22T12:31:10Z</time>
      </trkpt>
      <trkpt lat="44.56963" lon="4.24585">
        <ele>439</ele>
        <time>2019-12-22T12:31:12Z</time>
      </trkpt>
      <trkpt lat="44.56955" lon="4.24592">
        <ele>440</ele>
        <time>2019-12-22T12:31:13Z</time>
      </trkpt>
      <trkpt lat="44.569" lon="4.24624">
        <ele>443</ele>
        <time>2019-12-22T12:31:24Z</time>
      </trkpt>
      <trkpt lat="44.5686" lon="4.2465">
        <ele>445</ele>
        <time>2019-12-22T12:31:32Z</time>
      </trkpt>
      <trkpt lat="44.56839" lon="4.24669">
        <ele>446</ele>
        <time>2019-12-22T12:31:36Z</time>
      </trkpt>
      <trkpt lat="44.56831" lon="4.24682">
        <ele>447</ele>
        <time>2019-12-22T12:31:38Z</time>
      </trkpt>
      <trkpt lat="44.56761" lon="4.24846">
        <ele>458</ele>
        <time>2019-12-22T12:32:03Z</time>
      </trkpt>
      <trkpt lat="44.56756" lon="4.24868">
        <ele>456</ele>
        <time>2019-12-22T12:32:06Z</time>
      </trkpt>
      <trkpt lat="44.56755" lon="4.2488">
        <ele>456</ele>
        <time>2019-12-22T12:32:07Z</time>
      </trkpt>
      <trkpt lat="44.56757" lon="4.24894">
        <ele>456</ele>
        <time>2019-12-22T12:32:09Z</time>
      </trkpt>
      <trkpt lat="44.56761" lon="4.24909">
        <ele>457</ele>
        <time>2019-12-22T12:32:11Z</time>
      </trkpt>
      <trkpt lat="44.56795" lon="4.24974">
        <ele>462</ele>
        <time>2019-12-22T12:32:21Z</time>
      </trkpt>
      <trkpt lat="44.56807" lon="4.24994">
        <ele>463</ele>
        <time>2019-12-22T12:32:24Z</time>
      </trkpt>
      <trkpt lat="44.56816" lon="4.25005">
        <ele>464</ele>
        <time>2019-12-22T12:32:27Z</time>
      </trkpt>
      <trkpt lat="44.56873" lon="4.25061">
        <ele>473</ele>
        <time>2019-12-22T12:32:39Z</time>
      </trkpt>
      <trkpt lat="44.56888" lon="4.25079">
        <ele>474</ele>
        <time>2019-12-22T12:32:43Z</time>
      </trkpt>
      <trkpt lat="44.56897" lon="4.25096">
        <ele>475</ele>
        <time>2019-12-22T12:32:45Z</time>
      </trkpt>
      <trkpt lat="44.56925" lon="4.25194">
        <ele>473</ele>
        <time>2019-12-22T12:32:59Z</time>
      </trkpt>
      <trkpt lat="44.56936" lon="4.25211">
        <ele>475</ele>
        <time>2019-12-22T12:33:01Z</time>
      </trkpt>
      <trkpt lat="44.5696" lon="4.25234">
        <ele>479</ele>
        <time>2019-12-22T12:33:07Z</time>
      </trkpt>
      <trkpt lat="44.56966" lon="4.25243">
        <ele>480</ele>
        <time>2019-12-22T12:33:08Z</time>
      </trkpt>
      <trkpt lat="44.56969" lon="4.25253">
        <ele>481</ele>
        <time>2019-12-22T12:33:10Z</time>
      </trkpt>
      <trkpt lat="44.56971" lon="4.25269">
        <ele>482</ele>
        <time>2019-12-22T12:33:12Z</time>
      </trkpt>
      <trkpt lat="44.5697" lon="4.25283">
        <ele>482</ele>
        <time>2019-12-22T12:33:13Z</time>
      </trkpt>
      <trkpt lat="44.56966" lon="4.25295">
        <ele>482</ele>
        <time>2019-12-22T12:33:15Z</time>
      </trkpt>
      <trkpt lat="44.56938" lon="4.25336">
        <ele>474</ele>
        <time>2019-12-22T12:33:22Z</time>
      </trkpt>
      <trkpt lat="44.56919" lon="4.25369">
        <ele>470</ele>
        <time>2019-12-22T12:33:28Z</time>
      </trkpt>
      <trkpt lat="44.56914" lon="4.25386">
        <ele>470</ele>
        <time>2019-12-22T12:33:30Z</time>
      </trkpt>
      <trkpt lat="44.56913" lon="4.25413">
        <ele>472</ele>
        <time>2019-12-22T12:33:33Z</time>
      </trkpt>
      <trkpt lat="44.56915" lon="4.25433">
        <ele>472</ele>
        <time>2019-12-22T12:33:36Z</time>
      </trkpt>
      <trkpt lat="44.56922" lon="4.25453">
        <ele>474</ele>
        <time>2019-12-22T12:33:39Z</time>
      </trkpt>
      <trkpt lat="44.56929" lon="4.25465">
        <ele>476</ele>
        <time>2019-12-22T12:33:41Z</time>
      </trkpt>
      <trkpt lat="44.56957" lon="4.25491">
        <ele>484</ele>
        <time>2019-12-22T12:33:47Z</time>
      </trkpt>
      <trkpt lat="44.56966" lon="4.25502">
        <ele>485</ele>
        <time>2019-12-22T12:33:49Z</time>
      </trkpt>
      <trkpt lat="44.56972" lon="4.25519">
        <ele>486</ele>
        <time>2019-12-22T12:33:51Z</time>
      </trkpt>
      <trkpt lat="44.56976" lon="4.25536">
        <ele>486</ele>
        <time>2019-12-22T12:33:54Z</time>
      </trkpt>
      <trkpt lat="44.56981" lon="4.25593">
        <ele>485</ele>
        <time>2019-12-22T12:34:01Z</time>
      </trkpt>
      <trkpt lat="44.56986" lon="4.25629">
        <ele>486</ele>
        <time>2019-12-22T12:34:06Z</time>
      </trkpt>
      <trkpt lat="44.56984" lon="4.2566">
        <ele>485</ele>
        <time>2019-12-22T12:34:09Z</time>
      </trkpt>
      <trkpt lat="44.56977" lon="4.25693">
        <ele>484</ele>
        <time>2019-12-22T12:34:14Z</time>
      </trkpt>
      <trkpt lat="44.56976" lon="4.25727">
        <ele>486</ele>
        <time>2019-12-22T12:34:18Z</time>
      </trkpt>
      <trkpt lat="44.56979" lon="4.25765">
        <ele>488</ele>
        <time>2019-12-22T12:34:23Z</time>
      </trkpt>
      <trkpt lat="44.56986" lon="4.25803">
        <ele>487</ele>
        <time>2019-12-22T12:34:28Z</time>
      </trkpt>
      <trkpt lat="44.56995" lon="4.2584">
        <ele>488</ele>
        <time>2019-12-22T12:34:33Z</time>
      </trkpt>
      <trkpt lat="44.57" lon="4.25866">
        <ele>489</ele>
        <time>2019-12-22T12:34:36Z</time>
      </trkpt>
      <trkpt lat="44.57002" lon="4.259">
        <ele>490</ele>
        <time>2019-12-22T12:34:41Z</time>
      </trkpt>
      <trkpt lat="44.57" lon="4.2594">
        <ele>490</ele>
        <time>2019-12-22T12:34:46Z</time>
      </trkpt>
      <trkpt lat="44.57003" lon="4.25953">
        <ele>492</ele>
        <time>2019-12-22T12:34:47Z</time>
      </trkpt>
      <trkpt lat="44.57003" lon="4.25963">
        <ele>493</ele>
        <time>2019-12-22T12:34:49Z</time>
      </trkpt>
      <trkpt lat="44.56994" lon="4.25997">
        <ele>493</ele>
        <time>2019-12-22T12:34:53Z</time>
      </trkpt>
      <trkpt lat="44.56993" lon="4.26013">
        <ele>491</ele>
        <time>2019-12-22T12:34:55Z</time>
      </trkpt>
      <trkpt lat="44.57005" lon="4.26045">
        <ele>489</ele>
        <time>2019-12-22T12:35:00Z</time>
      </trkpt>
      <trkpt lat="44.57009" lon="4.26049">
        <ele>489</ele>
        <time>2019-12-22T12:35:01Z</time>
      </trkpt>
      <trkpt lat="44.57054" lon="4.2606">
        <ele>494</ele>
        <time>2019-12-22T12:35:09Z</time>
      </trkpt>
      <trkpt lat="44.57092" lon="4.26086">
        <ele>491</ele>
        <time>2019-12-22T12:35:16Z</time>
      </trkpt>
      <trkpt lat="44.57103" lon="4.26089">
        <ele>489</ele>
        <time>2019-12-22T12:35:18Z</time>
      </trkpt>
      <trkpt lat="44.57111" lon="4.26086">
        <ele>489</ele>
        <time>2019-12-22T12:35:20Z</time>
      </trkpt>
      <trkpt lat="44.57145" lon="4.26046">
        <ele>492</ele>
        <time>2019-12-22T12:35:28Z</time>
      </trkpt>
      <trkpt lat="44.57151" lon="4.2603">
        <ele>495</ele>
        <time>2019-12-22T12:35:30Z</time>
      </trkpt>
      <trkpt lat="44.57157" lon="4.2597">
        <ele>505</ele>
        <time>2019-12-22T12:35:38Z</time>
      </trkpt>
      <trkpt lat="44.5716" lon="4.25959">
        <ele>506</ele>
        <time>2019-12-22T12:35:39Z</time>
      </trkpt>
      <trkpt lat="44.57164" lon="4.25954">
        <ele>507</ele>
        <time>2019-12-22T12:35:40Z</time>
      </trkpt>
      <trkpt lat="44.57181" lon="4.25943">
        <ele>505</ele>
        <time>2019-12-22T12:35:44Z</time>
      </trkpt>
      <trkpt lat="44.57187" lon="4.25935">
        <ele>505</ele>
        <time>2019-12-22T12:35:45Z</time>
      </trkpt>
      <trkpt lat="44.57191" lon="4.25922">
        <ele>506</ele>
        <time>2019-12-22T12:35:47Z</time>
      </trkpt>
      <trkpt lat="44.57189" lon="4.25913">
        <ele>508</ele>
        <time>2019-12-22T12:35:48Z</time>
      </trkpt>
      <trkpt lat="44.57193" lon="4.25896">
        <ele>511</ele>
        <time>2019-12-22T12:35:50Z</time>
      </trkpt>
      <trkpt lat="44.57205" lon="4.25873">
        <ele>512</ele>
        <time>2019-12-22T12:35:54Z</time>
      </trkpt>
      <trkpt lat="44.57218" lon="4.25842">
        <ele>514</ele>
        <time>2019-12-22T12:35:58Z</time>
      </trkpt>
      <trkpt lat="44.57231" lon="4.25824">
        <ele>514</ele>
        <time>2019-12-22T12:36:02Z</time>
      </trkpt>
      <trkpt lat="44.57234" lon="4.25813">
        <ele>516</ele>
        <time>2019-12-22T12:36:03Z</time>
      </trkpt>
      <trkpt lat="44.57235" lon="4.25778">
        <ele>525</ele>
        <time>2019-12-22T12:36:08Z</time>
      </trkpt>
      <trkpt lat="44.57239" lon="4.25759">
        <ele>529</ele>
        <time>2019-12-22T12:36:10Z</time>
      </trkpt>
      <trkpt lat="44.57245" lon="4.25752">
        <ele>530</ele>
        <time>2019-12-22T12:36:12Z</time>
      </trkpt>
      <trkpt lat="44.57254" lon="4.25751">
        <ele>529</ele>
        <time>2019-12-22T12:36:13Z</time>
      </trkpt>
      <trkpt lat="44.57272" lon="4.25755">
        <ele>526</ele>
        <time>2019-12-22T12:36:16Z</time>
      </trkpt>
      <trkpt lat="44.57281" lon="4.25751">
        <ele>526</ele>
        <time>2019-12-22T12:36:18Z</time>
      </trkpt>
      <trkpt lat="44.5729" lon="4.25742">
        <ele>527</ele>
        <time>2019-12-22T12:36:20Z</time>
      </trkpt>
      <trkpt lat="44.57296" lon="4.25731">
        <ele>529</ele>
        <time>2019-12-22T12:36:22Z</time>
      </trkpt>
      <trkpt lat="44.57298" lon="4.25714">
        <ele>534</ele>
        <time>2019-12-22T12:36:24Z</time>
      </trkpt>
      <trkpt lat="44.573" lon="4.25708">
        <ele>535</ele>
        <time>2019-12-22T12:36:25Z</time>
      </trkpt>
      <trkpt lat="44.57307" lon="4.25706">
        <ele>535</ele>
        <time>2019-12-22T12:36:26Z</time>
      </trkpt>
      <trkpt lat="44.57324" lon="4.25715">
        <ele>532</ele>
        <time>2019-12-22T12:36:29Z</time>
      </trkpt>
      <trkpt lat="44.57335" lon="4.25714">
        <ele>532</ele>
        <time>2019-12-22T12:36:31Z</time>
      </trkpt>
      <trkpt lat="44.5735" lon="4.25702">
        <ele>539</ele>
        <time>2019-12-22T12:36:34Z</time>
      </trkpt>
      <trkpt lat="44.57357" lon="4.25702">
        <ele>541</ele>
        <time>2019-12-22T12:36:36Z</time>
      </trkpt>
      <trkpt lat="44.57364" lon="4.25708">
        <ele>541</ele>
        <time>2019-12-22T12:36:37Z</time>
      </trkpt>
      <trkpt lat="44.57373" lon="4.25724">
        <ele>538</ele>
        <time>2019-12-22T12:36:40Z</time>
      </trkpt>
      <trkpt lat="44.57378" lon="4.25731">
        <ele>537</ele>
        <time>2019-12-22T12:36:41Z</time>
      </trkpt>
      <trkpt lat="44.57385" lon="4.25733">
        <ele>539</ele>
        <time>2019-12-22T12:36:42Z</time>
      </trkpt>
      <trkpt lat="44.57405" lon="4.25727">
        <ele>545</ele>
        <time>2019-12-22T12:36:46Z</time>
      </trkpt>
      <trkpt lat="44.57413" lon="4.25729">
        <ele>547</ele>
        <time>2019-12-22T12:36:47Z</time>
      </trkpt>
      <trkpt lat="44.57417" lon="4.25735">
        <ele>546</ele>
        <time>2019-12-22T12:36:48Z</time>
      </trkpt>
      <trkpt lat="44.57427" lon="4.25764">
        <ele>543</ele>
        <time>2019-12-22T12:36:52Z</time>
      </trkpt>
      <trkpt lat="44.57448" lon="4.25794">
        <ele>545</ele>
        <time>2019-12-22T12:36:58Z</time>
      </trkpt>
      <trkpt lat="44.57453" lon="4.25827">
        <ele>539</ele>
        <time>2019-12-22T12:37:02Z</time>
      </trkpt>
      <trkpt lat="44.57467" lon="4.25862">
        <ele>536</ele>
        <time>2019-12-22T12:37:07Z</time>
      </trkpt>
      <trkpt lat="44.57473" lon="4.25872">
        <ele>536</ele>
        <time>2019-12-22T12:37:09Z</time>
      </trkpt>
      <trkpt lat="44.5748" lon="4.25877">
        <ele>537</ele>
        <time>2019-12-22T12:37:10Z</time>
      </trkpt>
      <trkpt lat="44.57488" lon="4.25878">
        <ele>539</ele>
        <time>2019-12-22T12:37:12Z</time>
      </trkpt>
      <trkpt lat="44.57494" lon="4.25875">
        <ele>542</ele>
        <time>2019-12-22T12:37:13Z</time>
      </trkpt>
      <trkpt lat="44.57514" lon="4.25864">
        <ele>548</ele>
        <time>2019-12-22T12:37:17Z</time>
      </trkpt>
      <trkpt lat="44.57554" lon="4.25847">
        <ele>557</ele>
        <time>2019-12-22T12:37:24Z</time>
      </trkpt>
      <trkpt lat="44.57593" lon="4.25839">
        <ele>564</ele>
        <time>2019-12-22T12:37:31Z</time>
      </trkpt>
      <trkpt lat="44.57611" lon="4.25823">
        <ele>571</ele>
        <time>2019-12-22T12:37:35Z</time>
      </trkpt>
      <trkpt lat="44.57621" lon="4.25817">
        <ele>574</ele>
        <time>2019-12-22T12:37:37Z</time>
      </trkpt>
      <trkpt lat="44.57647" lon="4.25817">
        <ele>576</ele>
        <time>2019-12-22T12:37:41Z</time>
      </trkpt>
      <trkpt lat="44.57681" lon="4.25829">
        <ele>578</ele>
        <time>2019-12-22T12:37:48Z</time>
      </trkpt>
      <trkpt lat="44.57688" lon="4.25836">
        <ele>579</ele>
        <time>2019-12-22T12:37:49Z</time>
      </trkpt>
      <trkpt lat="44.5769" lon="4.25847">
        <ele>578</ele>
        <time>2019-12-22T12:37:51Z</time>
      </trkpt>
      <trkpt lat="44.57691" lon="4.25872">
        <ele>575</ele>
        <time>2019-12-22T12:37:54Z</time>
      </trkpt>
      <trkpt lat="44.57704" lon="4.25925">
        <ele>574</ele>
        <time>2019-12-22T12:38:01Z</time>
      </trkpt>
      <trkpt lat="44.57717" lon="4.25986">
        <ele>575</ele>
        <time>2019-12-22T12:38:09Z</time>
      </trkpt>
      <trkpt lat="44.57717" lon="4.25997">
        <ele>575</ele>
        <time>2019-12-22T12:38:10Z</time>
      </trkpt>
      <trkpt lat="44.57714" lon="4.26007">
        <ele>573</ele>
        <time>2019-12-22T12:38:12Z</time>
      </trkpt>
      <trkpt lat="44.57714" lon="4.26017">
        <ele>573</ele>
        <time>2019-12-22T12:38:13Z</time>
      </trkpt>
      <trkpt lat="44.57715" lon="4.26032">
        <ele>573</ele>
        <time>2019-12-22T12:38:15Z</time>
      </trkpt>
      <trkpt lat="44.57725" lon="4.26076">
        <ele>577</ele>
        <time>2019-12-22T12:38:21Z</time>
      </trkpt>
      <trkpt lat="44.57758" lon="4.26149">
        <ele>584</ele>
        <time>2019-12-22T12:38:32Z</time>
      </trkpt>
      <trkpt lat="44.57768" lon="4.26177">
        <ele>585</ele>
        <time>2019-12-22T12:38:36Z</time>
      </trkpt>
      <trkpt lat="44.57773" lon="4.2618">
        <ele>586</ele>
        <time>2019-12-22T12:38:37Z</time>
      </trkpt>
      <trkpt lat="44.57807" lon="4.26152">
        <ele>588</ele>
        <time>2019-12-22T12:38:44Z</time>
      </trkpt>
      <trkpt lat="44.57832" lon="4.26135">
        <ele>590</ele>
        <time>2019-12-22T12:38:49Z</time>
      </trkpt>
      <trkpt lat="44.57837" lon="4.26127">
        <ele>589</ele>
        <time>2019-12-22T12:38:50Z</time>
      </trkpt>
      <trkpt lat="44.57843" lon="4.26088">
        <ele>588</ele>
        <time>2019-12-22T12:38:55Z</time>
      </trkpt>
      <trkpt lat="44.5786" lon="4.26035">
        <ele>592</ele>
        <time>2019-12-22T12:39:02Z</time>
      </trkpt>
      <trkpt lat="44.57869" lon="4.26017">
        <ele>593</ele>
        <time>2019-12-22T12:39:05Z</time>
      </trkpt>
      <trkpt lat="44.57874" lon="4.2601">
        <ele>594</ele>
        <time>2019-12-22T12:39:06Z</time>
      </trkpt>
      <trkpt lat="44.57881" lon="4.26011">
        <ele>593</ele>
        <time>2019-12-22T12:39:08Z</time>
      </trkpt>
      <trkpt lat="44.57901" lon="4.26037">
        <ele>586</ele>
        <time>2019-12-22T12:39:12Z</time>
      </trkpt>
      <trkpt lat="44.57908" lon="4.26037">
        <ele>585</ele>
        <time>2019-12-22T12:39:14Z</time>
      </trkpt>
      <trkpt lat="44.57916" lon="4.2603">
        <ele>585</ele>
        <time>2019-12-22T12:39:15Z</time>
      </trkpt>
      <trkpt lat="44.57927" lon="4.26013">
        <ele>586</ele>
        <time>2019-12-22T12:39:18Z</time>
      </trkpt>
      <trkpt lat="44.57957" lon="4.25941">
        <ele>595</ele>
        <time>2019-12-22T12:39:29Z</time>
      </trkpt>
      <trkpt lat="44.57994" lon="4.25896">
        <ele>592</ele>
        <time>2019-12-22T12:39:38Z</time>
      </trkpt>
      <trkpt lat="44.58033" lon="4.25828">
        <ele>586</ele>
        <time>2019-12-22T12:39:49Z</time>
      </trkpt>
      <trkpt lat="44.58039" lon="4.25793">
        <ele>586</ele>
        <time>2019-12-22T12:39:53Z</time>
      </trkpt>
      <trkpt lat="44.58039" lon="4.25742">
        <ele>589</ele>
        <time>2019-12-22T12:40:00Z</time>
      </trkpt>
      <trkpt lat="44.58051" lon="4.2572">
        <ele>585</ele>
        <time>2019-12-22T12:40:03Z</time>
      </trkpt>
      <trkpt lat="44.58053" lon="4.25637">
        <ele>587</ele>
        <time>2019-12-22T12:40:14Z</time>
      </trkpt>
      <trkpt lat="44.58049" lon="4.25627">
        <ele>589</ele>
        <time>2019-12-22T12:40:15Z</time>
      </trkpt>
      <trkpt lat="44.58038" lon="4.25609">
        <ele>593</ele>
        <time>2019-12-22T12:40:18Z</time>
      </trkpt>
      <trkpt lat="44.58036" lon="4.25601">
        <ele>593</ele>
        <time>2019-12-22T12:40:19Z</time>
      </trkpt>
      <trkpt lat="44.58046" lon="4.25588">
        <ele>591</ele>
        <time>2019-12-22T12:40:22Z</time>
      </trkpt>
      <trkpt lat="44.58095" lon="4.2557">
        <ele>583</ele>
        <time>2019-12-22T12:40:31Z</time>
      </trkpt>
      <trkpt lat="44.5813" lon="4.25524">
        <ele>585</ele>
        <time>2019-12-22T12:40:39Z</time>
      </trkpt>
      <trkpt lat="44.58141" lon="4.255">
        <ele>586</ele>
        <time>2019-12-22T12:40:43Z</time>
      </trkpt>
      <trkpt lat="44.58149" lon="4.25498">
        <ele>585</ele>
        <time>2019-12-22T12:40:44Z</time>
      </trkpt>
      <trkpt lat="44.58163" lon="4.25509">
        <ele>583</ele>
        <time>2019-12-22T12:40:47Z</time>
      </trkpt>
      <trkpt lat="44.58167" lon="4.25508">
        <ele>583</ele>
        <time>2019-12-22T12:40:48Z</time>
      </trkpt>
      <trkpt lat="44.5818" lon="4.25497">
        <ele>587</ele>
        <time>2019-12-22T12:40:51Z</time>
      </trkpt>
      <trkpt lat="44.58191" lon="4.25483">
        <ele>593</ele>
        <time>2019-12-22T12:40:53Z</time>
      </trkpt>
      <trkpt lat="44.58195" lon="4.25482">
        <ele>594</ele>
        <time>2019-12-22T12:40:54Z</time>
      </trkpt>
      <trkpt lat="44.582" lon="4.25484">
        <ele>595</ele>
        <time>2019-12-22T12:40:55Z</time>
      </trkpt>
      <trkpt lat="44.58203" lon="4.25488">
        <ele>595</ele>
        <time>2019-12-22T12:40:56Z</time>
      </trkpt>
      <trkpt lat="44.58202" lon="4.255">
        <ele>593</ele>
        <time>2019-12-22T12:40:57Z</time>
      </trkpt>
      <trkpt lat="44.58191" lon="4.25532">
        <ele>589</ele>
        <time>2019-12-22T12:41:02Z</time>
      </trkpt>
      <trkpt lat="44.58174" lon="4.25602">
        <ele>581</ele>
        <time>2019-12-22T12:41:11Z</time>
      </trkpt>
      <trkpt lat="44.58175" lon="4.25615">
        <ele>581</ele>
        <time>2019-12-22T12:41:13Z</time>
      </trkpt>
      <trkpt lat="44.58194" lon="4.25677">
        <ele>586</ele>
        <time>2019-12-22T12:41:21Z</time>
      </trkpt>
      <trkpt lat="44.58206" lon="4.25743">
        <ele>583</ele>
        <time>2019-12-22T12:41:30Z</time>
      </trkpt>
      <trkpt lat="44.58211" lon="4.2576">
        <ele>583</ele>
        <time>2019-12-22T12:41:32Z</time>
      </trkpt>
      <trkpt lat="44.5822" lon="4.25781">
        <ele>583</ele>
        <time>2019-12-22T12:41:35Z</time>
      </trkpt>
      <trkpt lat="44.58234" lon="4.25804">
        <ele>586</ele>
        <time>2019-12-22T12:41:39Z</time>
      </trkpt>
      <trkpt lat="44.58254" lon="4.25865">
        <ele>585</ele>
        <time>2019-12-22T12:41:48Z</time>
      </trkpt>
      <trkpt lat="44.58263" lon="4.25884">
        <ele>584</ele>
        <time>2019-12-22T12:41:50Z</time>
      </trkpt>
      <trkpt lat="44.58273" lon="4.25891">
        <ele>583</ele>
        <time>2019-12-22T12:41:52Z</time>
      </trkpt>
      <trkpt lat="44.58282" lon="4.25894">
        <ele>584</ele>
        <time>2019-12-22T12:41:54Z</time>
      </trkpt>
      <trkpt lat="44.58302" lon="4.25889">
        <ele>586</ele>
        <time>2019-12-22T12:41:58Z</time>
      </trkpt>
      <trkpt lat="44.58343" lon="4.25862">
        <ele>591</ele>
        <time>2019-12-22T12:42:06Z</time>
      </trkpt>
      <trkpt lat="44.58406" lon="4.25802">
        <ele>585</ele>
        <time>2019-12-22T12:42:19Z</time>
      </trkpt>
      <trkpt lat="44.58411" lon="4.25789">
        <ele>586</ele>
        <time>2019-12-22T12:42:21Z</time>
      </trkpt>
      <trkpt lat="44.5841" lon="4.25774">
        <ele>587</ele>
        <time>2019-12-22T12:42:23Z</time>
      </trkpt>
      <trkpt lat="44.58404" lon="4.25759">
        <ele>590</ele>
        <time>2019-12-22T12:42:25Z</time>
      </trkpt>
      <trkpt lat="44.58393" lon="4.25739">
        <ele>596</ele>
        <time>2019-12-22T12:42:28Z</time>
      </trkpt>
      <trkpt lat="44.58393" lon="4.25731">
        <ele>597</ele>
        <time>2019-12-22T12:42:30Z</time>
      </trkpt>
      <trkpt lat="44.58398" lon="4.25722">
        <ele>598</ele>
        <time>2019-12-22T12:42:31Z</time>
      </trkpt>
      <trkpt lat="44.58446" lon="4.25689">
        <ele>594</ele>
        <time>2019-12-22T12:42:40Z</time>
      </trkpt>
      <trkpt lat="44.58453" lon="4.25687">
        <ele>593</ele>
        <time>2019-12-22T12:42:42Z</time>
      </trkpt>
      <trkpt lat="44.58466" lon="4.25686">
        <ele>591</ele>
        <time>2019-12-22T12:42:44Z</time>
      </trkpt>
      <trkpt lat="44.58479" lon="4.25682">
        <ele>589</ele>
        <time>2019-12-22T12:42:46Z</time>
      </trkpt>
      <trkpt lat="44.585" lon="4.25666">
        <ele>589</ele>
        <time>2019-12-22T12:42:51Z</time>
      </trkpt>
      <trkpt lat="44.58506" lon="4.25666">
        <ele>589</ele>
        <time>2019-12-22T12:42:52Z</time>
      </trkpt>
      <trkpt lat="44.58511" lon="4.25674">
        <ele>586</ele>
        <time>2019-12-22T12:42:53Z</time>
      </trkpt>
      <trkpt lat="44.58517" lon="4.25688">
        <ele>582</ele>
        <time>2019-12-22T12:42:55Z</time>
      </trkpt>
      <trkpt lat="44.58524" lon="4.25695">
        <ele>580</ele>
        <time>2019-12-22T12:42:57Z</time>
      </trkpt>
      <trkpt lat="44.58538" lon="4.257">
        <ele>578</ele>
        <time>2019-12-22T12:42:59Z</time>
      </trkpt>
      <trkpt lat="44.58556" lon="4.25703">
        <ele>577</ele>
        <time>2019-12-22T12:43:02Z</time>
      </trkpt>
      <trkpt lat="44.58579" lon="4.257">
        <ele>577</ele>
        <time>2019-12-22T12:43:07Z</time>
      </trkpt>
      <trkpt lat="44.58589" lon="4.25692">
        <ele>578</ele>
        <time>2019-12-22T12:43:09Z</time>
      </trkpt>
      <trkpt lat="44.58596" lon="4.25682">
        <ele>580</ele>
        <time>2019-12-22T12:43:10Z</time>
      </trkpt>
      <trkpt lat="44.58601" lon="4.25663">
        <ele>584</ele>
        <time>2019-12-22T12:43:13Z</time>
      </trkpt>
      <trkpt lat="44.58607" lon="4.25652">
        <ele>586</ele>
        <time>2019-12-22T12:43:15Z</time>
      </trkpt>
      <trkpt lat="44.58612" lon="4.25647">
        <ele>587</ele>
        <time>2019-12-22T12:43:16Z</time>
      </trkpt>
      <trkpt lat="44.58619" lon="4.25648">
        <ele>587</ele>
        <time>2019-12-22T12:43:17Z</time>
      </trkpt>
      <trkpt lat="44.58633" lon="4.25671">
        <ele>579</ele>
        <time>2019-12-22T12:43:21Z</time>
      </trkpt>
      <trkpt lat="44.5864" lon="4.25677">
        <ele>577</ele>
        <time>2019-12-22T12:43:22Z</time>
      </trkpt>
      <trkpt lat="44.58648" lon="4.25673">
        <ele>577</ele>
        <time>2019-12-22T12:43:24Z</time>
      </trkpt>
      <trkpt lat="44.58665" lon="4.25658">
        <ele>580</ele>
        <time>2019-12-22T12:43:27Z</time>
      </trkpt>
      <trkpt lat="44.58671" lon="4.25655">
        <ele>581</ele>
        <time>2019-12-22T12:43:29Z</time>
      </trkpt>
      <trkpt lat="44.58676" lon="4.25658">
        <ele>581</ele>
        <time>2019-12-22T12:43:30Z</time>
      </trkpt>
      <trkpt lat="44.58678" lon="4.25665">
        <ele>580</ele>
        <time>2019-12-22T12:43:31Z</time>
      </trkpt>
      <trkpt lat="44.58683" lon="4.25701">
        <ele>572</ele>
        <time>2019-12-22T12:43:35Z</time>
      </trkpt>
      <trkpt lat="44.58689" lon="4.25712">
        <ele>570</ele>
        <time>2019-12-22T12:43:37Z</time>
      </trkpt>
      <trkpt lat="44.58704" lon="4.25722">
        <ele>568</ele>
        <time>2019-12-22T12:43:40Z</time>
      </trkpt>
      <trkpt lat="44.58739" lon="4.25735">
        <ele>567</ele>
        <time>2019-12-22T12:43:46Z</time>
      </trkpt>
      <trkpt lat="44.58752" lon="4.25737">
        <ele>567</ele>
        <time>2019-12-22T12:43:49Z</time>
      </trkpt>
      <trkpt lat="44.58773" lon="4.25735">
        <ele>568</ele>
        <time>2019-12-22T12:43:52Z</time>
      </trkpt>
      <trkpt lat="44.58789" lon="4.2574">
        <ele>567</ele>
        <time>2019-12-22T12:43:55Z</time>
      </trkpt>
      <trkpt lat="44.58812" lon="4.25751">
        <ele>563</ele>
        <time>2019-12-22T12:44:00Z</time>
      </trkpt>
      <trkpt lat="44.58868" lon="4.25751">
        <ele>562</ele>
        <time>2019-12-22T12:44:10Z</time>
      </trkpt>
      <trkpt lat="44.58903" lon="4.25765">
        <ele>557</ele>
        <time>2019-12-22T12:44:16Z</time>
      </trkpt>
      <trkpt lat="44.58921" lon="4.25786">
        <ele>550</ele>
        <time>2019-12-22T12:44:20Z</time>
      </trkpt>
      <trkpt lat="44.58938" lon="4.25789">
        <ele>546</ele>
        <time>2019-12-22T12:44:23Z</time>
      </trkpt>
      <trkpt lat="44.58944" lon="4.25785">
        <ele>546</ele>
        <time>2019-12-22T12:44:24Z</time>
      </trkpt>
      <trkpt lat="44.58951" lon="4.25775">
        <ele>547</ele>
        <time>2019-12-22T12:44:26Z</time>
      </trkpt>
      <trkpt lat="44.58954" lon="4.25758">
        <ele>549</ele>
        <time>2019-12-22T12:44:28Z</time>
      </trkpt>
      <trkpt lat="44.58951" lon="4.25722">
        <ele>558</ele>
        <time>2019-12-22T12:44:33Z</time>
      </trkpt>
      <trkpt lat="44.58952" lon="4.25712">
        <ele>560</ele>
        <time>2019-12-22T12:44:34Z</time>
      </trkpt>
      <trkpt lat="44.58959" lon="4.25708">
        <ele>560</ele>
        <time>2019-12-22T12:44:36Z</time>
      </trkpt>
      <trkpt lat="44.58967" lon="4.25709">
        <ele>558</ele>
        <time>2019-12-22T12:44:37Z</time>
      </trkpt>
      <trkpt lat="44.5898" lon="4.25716">
        <ele>553</ele>
        <time>2019-12-22T12:44:40Z</time>
      </trkpt>
      <trkpt lat="44.5899" lon="4.25718">
        <ele>551</ele>
        <time>2019-12-22T12:44:41Z</time>
      </trkpt>
      <trkpt lat="44.59" lon="4.25713">
        <ele>550</ele>
        <time>2019-12-22T12:44:43Z</time>
      </trkpt>
      <trkpt lat="44.59008" lon="4.257">
        <ele>551</ele>
        <time>2019-12-22T12:44:45Z</time>
      </trkpt>
      <trkpt lat="44.59015" lon="4.2568">
        <ele>553</ele>
        <time>2019-12-22T12:44:48Z</time>
      </trkpt>
      <trkpt lat="44.59017" lon="4.2566">
        <ele>558</ele>
        <time>2019-12-22T12:44:51Z</time>
      </trkpt>
      <trkpt lat="44.59021" lon="4.25648">
        <ele>560</ele>
        <time>2019-12-22T12:44:53Z</time>
      </trkpt>
      <trkpt lat="44.59036" lon="4.25629">
        <ele>560</ele>
        <time>2019-12-22T12:44:56Z</time>
      </trkpt>
      <trkpt lat="44.59044" lon="4.25622">
        <ele>560</ele>
        <time>2019-12-22T12:44:58Z</time>
      </trkpt>
      <trkpt lat="44.59054" lon="4.25623">
        <ele>557</ele>
        <time>2019-12-22T12:45:00Z</time>
      </trkpt>
      <trkpt lat="44.59064" lon="4.25631">
        <ele>551</ele>
        <time>2019-12-22T12:45:02Z</time>
      </trkpt>
      <trkpt lat="44.59091" lon="4.25636">
        <ele>543</ele>
        <time>2019-12-22T12:45:06Z</time>
      </trkpt>
      <trkpt lat="44.59106" lon="4.25633">
        <ele>542</ele>
        <time>2019-12-22T12:45:09Z</time>
      </trkpt>
      <trkpt lat="44.59123" lon="4.2562">
        <ele>544</ele>
        <time>2019-12-22T12:45:13Z</time>
      </trkpt>
      <trkpt lat="44.59158" lon="4.25572">
        <ele>549</ele>
        <time>2019-12-22T12:45:21Z</time>
      </trkpt>
      <trkpt lat="44.59166" lon="4.25572">
        <ele>547</ele>
        <time>2019-12-22T12:45:23Z</time>
      </trkpt>
      <trkpt lat="44.59173" lon="4.25575">
        <ele>547</ele>
        <time>2019-12-22T12:45:24Z</time>
      </trkpt>
      <trkpt lat="44.59173" lon="4.25596">
        <ele>543</ele>
        <time>2019-12-22T12:45:27Z</time>
      </trkpt>
      <trkpt lat="44.5917" lon="4.25654">
        <ele>533</ele>
        <time>2019-12-22T12:45:34Z</time>
      </trkpt>
      <trkpt lat="44.59172" lon="4.25672">
        <ele>530</ele>
        <time>2019-12-22T12:45:36Z</time>
      </trkpt>
      <trkpt lat="44.59178" lon="4.25688">
        <ele>528</ele>
        <time>2019-12-22T12:45:39Z</time>
      </trkpt>
      <trkpt lat="44.59192" lon="4.25707">
        <ele>527</ele>
        <time>2019-12-22T12:45:42Z</time>
      </trkpt>
      <trkpt lat="44.59203" lon="4.25719">
        <ele>526</ele>
        <time>2019-12-22T12:45:45Z</time>
      </trkpt>
      <trkpt lat="44.59257" lon="4.25741">
        <ele>527</ele>
        <time>2019-12-22T12:45:55Z</time>
      </trkpt>
      <trkpt lat="44.59269" lon="4.25752">
        <ele>524</ele>
        <time>2019-12-22T12:45:57Z</time>
      </trkpt>
      <trkpt lat="44.59276" lon="4.25753">
        <ele>523</ele>
        <time>2019-12-22T12:45:58Z</time>
      </trkpt>
      <trkpt lat="44.59284" lon="4.25749">
        <ele>523</ele>
        <time>2019-12-22T12:46:00Z</time>
      </trkpt>
      <trkpt lat="44.59294" lon="4.25733">
        <ele>522</ele>
        <time>2019-12-22T12:46:03Z</time>
      </trkpt>
      <trkpt lat="44.59296" lon="4.25733">
        <ele>522</ele>
        <time>2019-12-22T12:46:03Z</time>
      </trkpt>
      <trkpt lat="44.59297" lon="4.25712">
        <ele>522</ele>
        <time>2019-12-22T12:46:06Z</time>
      </trkpt>
      <trkpt lat="44.59293" lon="4.25659">
        <ele>526</ele>
        <time>2019-12-22T12:46:12Z</time>
      </trkpt>
      <trkpt lat="44.59295" lon="4.2562">
        <ele>528</ele>
        <time>2019-12-22T12:46:17Z</time>
      </trkpt>
      <trkpt lat="44.59288" lon="4.25593">
        <ele>532</ele>
        <time>2019-12-22T12:46:21Z</time>
      </trkpt>
      <trkpt lat="44.5929" lon="4.25569">
        <ele>536</ele>
        <time>2019-12-22T12:46:24Z</time>
      </trkpt>
      <trkpt lat="44.59299" lon="4.25547">
        <ele>538</ele>
        <time>2019-12-22T12:46:27Z</time>
      </trkpt>
      <trkpt lat="44.59315" lon="4.25525">
        <ele>540</ele>
        <time>2019-12-22T12:46:31Z</time>
      </trkpt>
      <trkpt lat="44.59337" lon="4.25512">
        <ele>539</ele>
        <time>2019-12-22T12:46:35Z</time>
      </trkpt>
      <trkpt lat="44.59367" lon="4.25504">
        <ele>533</ele>
        <time>2019-12-22T12:46:41Z</time>
      </trkpt>
      <trkpt lat="44.59392" lon="4.25489">
        <ele>533</ele>
        <time>2019-12-22T12:46:46Z</time>
      </trkpt>
      <trkpt lat="44.59423" lon="4.25458">
        <ele>538</ele>
        <time>2019-12-22T12:46:53Z</time>
      </trkpt>
      <trkpt lat="44.59444" lon="4.25444">
        <ele>540</ele>
        <time>2019-12-22T12:46:57Z</time>
      </trkpt>
      <trkpt lat="44.59471" lon="4.25438">
        <ele>536</ele>
        <time>2019-12-22T12:47:02Z</time>
      </trkpt>
      <trkpt lat="44.59497" lon="4.25437">
        <ele>531</ele>
        <time>2019-12-22T12:47:06Z</time>
      </trkpt>
      <trkpt lat="44.59534" lon="4.25428">
        <ele>530</ele>
        <time>2019-12-22T12:47:13Z</time>
      </trkpt>
      <trkpt lat="44.59545" lon="4.25421">
        <ele>530</ele>
        <time>2019-12-22T12:47:15Z</time>
      </trkpt>
      <trkpt lat="44.5955" lon="4.25415">
        <ele>530</ele>
        <time>2019-12-22T12:47:16Z</time>
      </trkpt>
      <trkpt lat="44.59552" lon="4.25408">
        <ele>532</ele>
        <time>2019-12-22T12:47:17Z</time>
      </trkpt>
      <trkpt lat="44.59551" lon="4.25392">
        <ele>535</ele>
        <time>2019-12-22T12:47:19Z</time>
      </trkpt>
      <trkpt lat="44.59544" lon="4.25359">
        <ele>542</ele>
        <time>2019-12-22T12:47:24Z</time>
      </trkpt>
      <trkpt lat="44.59545" lon="4.25352">
        <ele>543</ele>
        <time>2019-12-22T12:47:24Z</time>
      </trkpt>
      <trkpt lat="44.59558" lon="4.2534">
        <ele>545</ele>
        <time>2019-12-22T12:47:27Z</time>
      </trkpt>
      <trkpt lat="44.59563" lon="4.25337">
        <ele>546</ele>
        <time>2019-12-22T12:47:28Z</time>
      </trkpt>
      <trkpt lat="44.59569" lon="4.2534">
        <ele>545</ele>
        <time>2019-12-22T12:47:29Z</time>
      </trkpt>
      <trkpt lat="44.59615" lon="4.25416">
        <ele>527</ele>
        <time>2019-12-22T12:47:42Z</time>
      </trkpt>
      <trkpt lat="44.59623" lon="4.25426">
        <ele>527</ele>
        <time>2019-12-22T12:47:44Z</time>
      </trkpt>
      <trkpt lat="44.59642" lon="4.25425">
        <ele>527</ele>
        <time>2019-12-22T12:47:47Z</time>
      </trkpt>
      <trkpt lat="44.5965" lon="4.2542">
        <ele>528</ele>
        <time>2019-12-22T12:47:49Z</time>
      </trkpt>
      <trkpt lat="44.59718" lon="4.25352">
        <ele>539</ele>
        <time>2019-12-22T12:48:04Z</time>
      </trkpt>
      <trkpt lat="44.59729" lon="4.25336">
        <ele>538</ele>
        <time>2019-12-22T12:48:06Z</time>
      </trkpt>
      <trkpt lat="44.59743" lon="4.25336">
        <ele>535</ele>
        <time>2019-12-22T12:48:09Z</time>
      </trkpt>
      <trkpt lat="44.5977" lon="4.25345">
        <ele>538</ele>
        <time>2019-12-22T12:48:14Z</time>
      </trkpt>
      <trkpt lat="44.59776" lon="4.2535">
        <ele>540</ele>
        <time>2019-12-22T12:48:15Z</time>
      </trkpt>
      <trkpt lat="44.59779" lon="4.25358">
        <ele>541</ele>
        <time>2019-12-22T12:48:16Z</time>
      </trkpt>
      <trkpt lat="44.5978" lon="4.25368">
        <ele>542</ele>
        <time>2019-12-22T12:48:18Z</time>
      </trkpt>
      <trkpt lat="44.59778" lon="4.25386">
        <ele>542</ele>
        <time>2019-12-22T12:48:20Z</time>
      </trkpt>
      <trkpt lat="44.59769" lon="4.25433">
        <ele>543</ele>
        <time>2019-12-22T12:48:26Z</time>
      </trkpt>
      <trkpt lat="44.59765" lon="4.25441">
        <ele>544</ele>
        <time>2019-12-22T12:48:27Z</time>
      </trkpt>
      <trkpt lat="44.59739" lon="4.2546">
        <ele>542</ele>
        <time>2019-12-22T12:48:32Z</time>
      </trkpt>
      <trkpt lat="44.59715" lon="4.25495">
        <ele>543</ele>
        <time>2019-12-22T12:48:39Z</time>
      </trkpt>
      <trkpt lat="44.59692" lon="4.25532">
        <ele>548</ele>
        <time>2019-12-22T12:48:45Z</time>
      </trkpt>
      <trkpt lat="44.59659" lon="4.2556">
        <ele>550</ele>
        <time>2019-12-22T12:48:52Z</time>
      </trkpt>
      <trkpt lat="44.59625" lon="4.25583">
        <ele>550</ele>
        <time>2019-12-22T12:48:58Z</time>
      </trkpt>
      <trkpt lat="44.59608" lon="4.25591">
        <ele>548</ele>
        <time>2019-12-22T12:49:02Z</time>
      </trkpt>
      <trkpt lat="44.59596" lon="4.25601">
        <ele>548</ele>
        <time>2019-12-22T12:49:04Z</time>
      </trkpt>
      <trkpt lat="44.5958" lon="4.25616">
        <ele>546</ele>
        <time>2019-12-22T12:49:08Z</time>
      </trkpt>
      <trkpt lat="44.59578" lon="4.25621">
        <ele>547</ele>
        <time>2019-12-22T12:49:08Z</time>
      </trkpt>
      <trkpt lat="44.5958" lon="4.25629">
        <ele>549</ele>
        <time>2019-12-22T12:49:09Z</time>
      </trkpt>
      <trkpt lat="44.59583" lon="4.2563">
        <ele>550</ele>
        <time>2019-12-22T12:49:10Z</time>
      </trkpt>
      <trkpt lat="44.59588" lon="4.25628">
        <ele>551</ele>
        <time>2019-12-22T12:49:11Z</time>
      </trkpt>
      <trkpt lat="44.59608" lon="4.25609">
        <ele>552</ele>
        <time>2019-12-22T12:49:15Z</time>
      </trkpt>
      <trkpt lat="44.59619" lon="4.25604">
        <ele>554</ele>
        <time>2019-12-22T12:49:17Z</time>
      </trkpt>
      <trkpt lat="44.59664" lon="4.25586">
        <ele>560</ele>
        <time>2019-12-22T12:49:25Z</time>
      </trkpt>
      <trkpt lat="44.59667" lon="4.25586">
        <ele>561</ele>
        <time>2019-12-22T12:49:26Z</time>
      </trkpt>
      <trkpt lat="44.59671" lon="4.25591">
        <ele>563</ele>
        <time>2019-12-22T12:49:27Z</time>
      </trkpt>
      <trkpt lat="44.59671" lon="4.25595">
        <ele>565</ele>
        <time>2019-12-22T12:49:27Z</time>
      </trkpt>
      <trkpt lat="44.59669" lon="4.25598">
        <ele>565</ele>
        <time>2019-12-22T12:49:28Z</time>
      </trkpt>
      <trkpt lat="44.59641" lon="4.25609">
        <ele>561</ele>
        <time>2019-12-22T12:49:33Z</time>
      </trkpt>
      <trkpt lat="44.59631" lon="4.25617">
        <ele>561</ele>
        <time>2019-12-22T12:49:35Z</time>
      </trkpt>
      <trkpt lat="44.59622" lon="4.25626">
        <ele>560</ele>
        <time>2019-12-22T12:49:37Z</time>
      </trkpt>
      <trkpt lat="44.59611" lon="4.25647">
        <ele>562</ele>
        <time>2019-12-22T12:49:40Z</time>
      </trkpt>
      <trkpt lat="44.59596" lon="4.25688">
        <ele>561</ele>
        <time>2019-12-22T12:49:46Z</time>
      </trkpt>
      <trkpt lat="44.59596" lon="4.25705">
        <ele>561</ele>
        <time>2019-12-22T12:49:48Z</time>
      </trkpt>
      <trkpt lat="44.596" lon="4.25726">
        <ele>563</ele>
        <time>2019-12-22T12:49:51Z</time>
      </trkpt>
      <trkpt lat="44.59609" lon="4.25749">
        <ele>568</ele>
        <time>2019-12-22T12:49:55Z</time>
      </trkpt>
      <trkpt lat="44.59615" lon="4.25761">
        <ele>570</ele>
        <time>2019-12-22T12:49:56Z</time>
      </trkpt>
      <trkpt lat="44.59622" lon="4.25783">
        <ele>572</ele>
        <time>2019-12-22T12:49:59Z</time>
      </trkpt>
      <trkpt lat="44.59636" lon="4.25847">
        <ele>575</ele>
        <time>2019-12-22T12:50:08Z</time>
      </trkpt>
      <trkpt lat="44.59638" lon="4.25861">
        <ele>576</ele>
        <time>2019-12-22T12:50:10Z</time>
      </trkpt>
      <trkpt lat="44.59638" lon="4.25915">
        <ele>575</ele>
        <time>2019-12-22T12:50:17Z</time>
      </trkpt>
      <trkpt lat="44.59639" lon="4.25931">
        <ele>575</ele>
        <time>2019-12-22T12:50:19Z</time>
      </trkpt>
      <trkpt lat="44.59642" lon="4.25941">
        <ele>576</ele>
        <time>2019-12-22T12:50:20Z</time>
      </trkpt>
      <trkpt lat="44.59657" lon="4.2597">
        <ele>581</ele>
        <time>2019-12-22T12:50:25Z</time>
      </trkpt>
      <trkpt lat="44.59664" lon="4.25991">
        <ele>583</ele>
        <time>2019-12-22T12:50:27Z</time>
      </trkpt>
      <trkpt lat="44.59664" lon="4.26002">
        <ele>582</ele>
        <time>2019-12-22T12:50:29Z</time>
      </trkpt>
      <trkpt lat="44.5966" lon="4.26033">
        <ele>580</ele>
        <time>2019-12-22T12:50:33Z</time>
      </trkpt>
      <trkpt lat="44.59661" lon="4.26047">
        <ele>580</ele>
        <time>2019-12-22T12:50:35Z</time>
      </trkpt>
      <trkpt lat="44.59666" lon="4.26054">
        <ele>581</ele>
        <time>2019-12-22T12:50:36Z</time>
      </trkpt>
      <trkpt lat="44.59678" lon="4.26055">
        <ele>586</ele>
        <time>2019-12-22T12:50:38Z</time>
      </trkpt>
      <trkpt lat="44.59691" lon="4.26062">
        <ele>591</ele>
        <time>2019-12-22T12:50:41Z</time>
      </trkpt>
      <trkpt lat="44.59691" lon="4.26044">
        <ele>591</ele>
        <time>2019-12-22T12:50:43Z</time>
      </trkpt>
      <trkpt lat="44.59679" lon="4.25955">
        <ele>591</ele>
        <time>2019-12-22T12:50:54Z</time>
      </trkpt>
      <trkpt lat="44.59662" lon="4.25913">
        <ele>587</ele>
        <time>2019-12-22T12:51:00Z</time>
      </trkpt>
      <trkpt lat="44.5966" lon="4.25887">
        <ele>587</ele>
        <time>2019-12-22T12:51:04Z</time>
      </trkpt>
      <trkpt lat="44.59662" lon="4.25835">
        <ele>590</ele>
        <time>2019-12-22T12:51:10Z</time>
      </trkpt>
      <trkpt lat="44.59656" lon="4.25788">
        <ele>590</ele>
        <time>2019-12-22T12:51:16Z</time>
      </trkpt>
      <trkpt lat="44.59655" lon="4.25734">
        <ele>589</ele>
        <time>2019-12-22T12:51:23Z</time>
      </trkpt>
      <trkpt lat="44.59657" lon="4.2572">
        <ele>589</ele>
        <time>2019-12-22T12:51:25Z</time>
      </trkpt>
      <trkpt lat="44.59667" lon="4.25699">
        <ele>590</ele>
        <time>2019-12-22T12:51:28Z</time>
      </trkpt>
      <trkpt lat="44.59676" lon="4.25689">
        <ele>591</ele>
        <time>2019-12-22T12:51:30Z</time>
      </trkpt>
      <trkpt lat="44.59688" lon="4.25681">
        <ele>593</ele>
        <time>2019-12-22T12:51:33Z</time>
      </trkpt>
      <trkpt lat="44.59707" lon="4.25671">
        <ele>596</ele>
        <time>2019-12-22T12:51:36Z</time>
      </trkpt>
      <trkpt lat="44.5974" lon="4.2566">
        <ele>601</ele>
        <time>2019-12-22T12:51:42Z</time>
      </trkpt>
      <trkpt lat="44.59773" lon="4.25641">
        <ele>599</ele>
        <time>2019-12-22T12:51:49Z</time>
      </trkpt>
      <trkpt lat="44.59786" lon="4.25637">
        <ele>599</ele>
        <time>2019-12-22T12:51:51Z</time>
      </trkpt>
      <trkpt lat="44.59798" lon="4.25635">
        <ele>599</ele>
        <time>2019-12-22T12:51:53Z</time>
      </trkpt>
      <trkpt lat="44.59808" lon="4.25637">
        <ele>600</ele>
        <time>2019-12-22T12:51:55Z</time>
      </trkpt>
      <trkpt lat="44.5983" lon="4.25648">
        <ele>605</ele>
        <time>2019-12-22T12:51:59Z</time>
      </trkpt>
      <trkpt lat="44.5984" lon="4.25658">
        <ele>608</ele>
        <time>2019-12-22T12:52:01Z</time>
      </trkpt>
      <trkpt lat="44.59847" lon="4.25672">
        <ele>611</ele>
        <time>2019-12-22T12:52:03Z</time>
      </trkpt>
      <trkpt lat="44.59857" lon="4.25708">
        <ele>616</ele>
        <time>2019-12-22T12:52:08Z</time>
      </trkpt>
      <trkpt lat="44.59859" lon="4.25739">
        <ele>621</ele>
        <time>2019-12-22T12:52:12Z</time>
      </trkpt>
      <trkpt lat="44.59862" lon="4.25746">
        <ele>622</ele>
        <time>2019-12-22T12:52:13Z</time>
      </trkpt>
      <trkpt lat="44.59866" lon="4.2575">
        <ele>623</ele>
        <time>2019-12-22T12:52:14Z</time>
      </trkpt>
      <trkpt lat="44.59892" lon="4.25761">
        <ele>625</ele>
        <time>2019-12-22T12:52:19Z</time>
      </trkpt>
      <trkpt lat="44.59922" lon="4.25784">
        <ele>631</ele>
        <time>2019-12-22T12:52:25Z</time>
      </trkpt>
      <trkpt lat="44.59928" lon="4.25786">
        <ele>633</ele>
        <time>2019-12-22T12:52:26Z</time>
      </trkpt>
      <trkpt lat="44.59934" lon="4.25783">
        <ele>635</ele>
        <time>2019-12-22T12:52:27Z</time>
      </trkpt>
      <trkpt lat="44.59937" lon="4.25775">
        <ele>634</ele>
        <time>2019-12-22T12:52:28Z</time>
      </trkpt>
      <trkpt lat="44.59937" lon="4.25734">
        <ele>628</ele>
        <time>2019-12-22T12:52:34Z</time>
      </trkpt>
      <trkpt lat="44.59938" lon="4.25719">
        <ele>625</ele>
        <time>2019-12-22T12:52:36Z</time>
      </trkpt>
      <trkpt lat="44.59941" lon="4.25704">
        <ele>624</ele>
        <time>2019-12-22T12:52:38Z</time>
      </trkpt>
      <trkpt lat="44.59969" lon="4.25632">
        <ele>623</ele>
        <time>2019-12-22T12:52:48Z</time>
      </trkpt>
      <trkpt lat="44.59978" lon="4.25617">
        <ele>623</ele>
        <time>2019-12-22T12:52:50Z</time>
      </trkpt>
      <trkpt lat="44.59985" lon="4.2561">
        <ele>624</ele>
        <time>2019-12-22T12:52:52Z</time>
      </trkpt>
      <trkpt lat="44.59996" lon="4.25606">
        <ele>627</ele>
        <time>2019-12-22T12:52:54Z</time>
      </trkpt>
      <trkpt lat="44.60008" lon="4.25604">
        <ele>629</ele>
        <time>2019-12-22T12:52:56Z</time>
      </trkpt>
      <trkpt lat="44.60039" lon="4.2561">
        <ele>635</ele>
        <time>2019-12-22T12:53:02Z</time>
      </trkpt>
      <trkpt lat="44.60054" lon="4.25609">
        <ele>638</ele>
        <time>2019-12-22T12:53:04Z</time>
      </trkpt>
      <trkpt lat="44.60105" lon="4.25589">
        <ele>636</ele>
        <time>2019-12-22T12:53:14Z</time>
      </trkpt>
      <trkpt lat="44.60115" lon="4.25586">
        <ele>636</ele>
        <time>2019-12-22T12:53:16Z</time>
      </trkpt>
      <trkpt lat="44.60128" lon="4.25587">
        <ele>637</ele>
        <time>2019-12-22T12:53:18Z</time>
      </trkpt>
      <trkpt lat="44.60141" lon="4.25592">
        <ele>640</ele>
        <time>2019-12-22T12:53:20Z</time>
      </trkpt>
      <trkpt lat="44.60171" lon="4.25617">
        <ele>653</ele>
        <time>2019-12-22T12:53:27Z</time>
      </trkpt>
      <trkpt lat="44.60181" lon="4.25622">
        <ele>657</ele>
        <time>2019-12-22T12:53:28Z</time>
      </trkpt>
      <trkpt lat="44.60218" lon="4.25623">
        <ele>664</ele>
        <time>2019-12-22T12:53:35Z</time>
      </trkpt>
      <trkpt lat="44.60226" lon="4.25621">
        <ele>665</ele>
        <time>2019-12-22T12:53:36Z</time>
      </trkpt>
      <trkpt lat="44.60251" lon="4.25607">
        <ele>667</ele>
        <time>2019-12-22T12:53:41Z</time>
      </trkpt>
      <trkpt lat="44.60256" lon="4.25601">
        <ele>668</ele>
        <time>2019-12-22T12:53:42Z</time>
      </trkpt>
      <trkpt lat="44.60256" lon="4.25592">
        <ele>667</ele>
        <time>2019-12-22T12:53:44Z</time>
      </trkpt>
      <trkpt lat="44.60247" lon="4.25567">
        <ele>662</ele>
        <time>2019-12-22T12:53:47Z</time>
      </trkpt>
      <trkpt lat="44.60242" lon="4.25533">
        <ele>661</ele>
        <time>2019-12-22T12:53:51Z</time>
      </trkpt>
      <trkpt lat="44.60242" lon="4.25512">
        <ele>662</ele>
        <time>2019-12-22T12:53:54Z</time>
      </trkpt>
      <trkpt lat="44.60245" lon="4.25473">
        <ele>668</ele>
        <time>2019-12-22T12:53:59Z</time>
      </trkpt>
      <trkpt lat="44.60245" lon="4.25456">
        <ele>670</ele>
        <time>2019-12-22T12:54:01Z</time>
      </trkpt>
      <trkpt lat="44.60232" lon="4.25387">
        <ele>670</ele>
        <time>2019-12-22T12:54:10Z</time>
      </trkpt>
      <trkpt lat="44.6023" lon="4.25307">
        <ele>669</ele>
        <time>2019-12-22T12:54:20Z</time>
      </trkpt>
      <trkpt lat="44.60236" lon="4.25272">
        <ele>669</ele>
        <time>2019-12-22T12:54:25Z</time>
      </trkpt>
      <trkpt lat="44.60252" lon="4.2525">
        <ele>670</ele>
        <time>2019-12-22T12:54:29Z</time>
      </trkpt>
      <trkpt lat="44.60276" lon="4.25238">
        <ele>669</ele>
        <time>2019-12-22T12:54:34Z</time>
      </trkpt>
      <trkpt lat="44.60319" lon="4.25242">
        <ele>672</ele>
        <time>2019-12-22T12:54:41Z</time>
      </trkpt>
      <trkpt lat="44.60379" lon="4.25279">
        <ele>683</ele>
        <time>2019-12-22T12:54:53Z</time>
      </trkpt>
      <trkpt lat="44.6043" lon="4.25323">
        <ele>699</ele>
        <time>2019-12-22T12:55:04Z</time>
      </trkpt>
      <trkpt lat="44.60437" lon="4.25324">
        <ele>701</ele>
        <time>2019-12-22T12:55:05Z</time>
      </trkpt>
      <trkpt lat="44.60443" lon="4.2532">
        <ele>701</ele>
        <time>2019-12-22T12:55:06Z</time>
      </trkpt>
      <trkpt lat="44.60447" lon="4.25315">
        <ele>700</ele>
        <time>2019-12-22T12:55:07Z</time>
      </trkpt>
      <trkpt lat="44.60453" lon="4.25304">
        <ele>698</ele>
        <time>2019-12-22T12:55:09Z</time>
      </trkpt>
      <trkpt lat="44.60456" lon="4.2529">
        <ele>694</ele>
        <time>2019-12-22T12:55:11Z</time>
      </trkpt>
      <trkpt lat="44.60464" lon="4.25274">
        <ele>691</ele>
        <time>2019-12-22T12:55:13Z</time>
      </trkpt>
      <trkpt lat="44.60485" lon="4.25258">
        <ele>690</ele>
        <time>2019-12-22T12:55:17Z</time>
      </trkpt>
      <trkpt lat="44.60513" lon="4.25252">
        <ele>696</ele>
        <time>2019-12-22T12:55:22Z</time>
      </trkpt>
      <trkpt lat="44.60545" lon="4.25256">
        <ele>709</ele>
        <time>2019-12-22T12:55:28Z</time>
      </trkpt>
      <trkpt lat="44.60549" lon="4.25252">
        <ele>710</ele>
        <time>2019-12-22T12:55:29Z</time>
      </trkpt>
      <trkpt lat="44.60553" lon="4.25245">
        <ele>712</ele>
        <time>2019-12-22T12:55:30Z</time>
      </trkpt>
      <trkpt lat="44.60552" lon="4.25234">
        <ele>712</ele>
        <time>2019-12-22T12:55:31Z</time>
      </trkpt>
      <trkpt lat="44.60543" lon="4.25181">
        <ele>713</ele>
        <time>2019-12-22T12:55:38Z</time>
      </trkpt>
      <trkpt lat="44.60538" lon="4.25166">
        <ele>712</ele>
        <time>2019-12-22T12:55:40Z</time>
      </trkpt>
      <trkpt lat="44.60517" lon="4.25129">
        <ele>710</ele>
        <time>2019-12-22T12:55:46Z</time>
      </trkpt>
      <trkpt lat="44.60492" lon="4.25103">
        <ele>703</ele>
        <time>2019-12-22T12:55:52Z</time>
      </trkpt>
      <trkpt lat="44.60488" lon="4.25081">
        <ele>705</ele>
        <time>2019-12-22T12:55:55Z</time>
      </trkpt>
      <trkpt lat="44.60491" lon="4.25073">
        <ele>706</ele>
        <time>2019-12-22T12:55:56Z</time>
      </trkpt>
      <trkpt lat="44.60514" lon="4.25035">
        <ele>716</ele>
        <time>2019-12-22T12:56:02Z</time>
      </trkpt>
      <trkpt lat="44.60525" lon="4.25008">
        <ele>721</ele>
        <time>2019-12-22T12:56:06Z</time>
      </trkpt>
      <trkpt lat="44.6054" lon="4.24959">
        <ele>728</ele>
        <time>2019-12-22T12:56:13Z</time>
      </trkpt>
      <trkpt lat="44.60541" lon="4.24942">
        <ele>728</ele>
        <time>2019-12-22T12:56:15Z</time>
      </trkpt>
      <trkpt lat="44.6054" lon="4.24893">
        <ele>728</ele>
        <time>2019-12-22T12:56:21Z</time>
      </trkpt>
      <trkpt lat="44.60534" lon="4.2484">
        <ele>727</ele>
        <time>2019-12-22T12:56:28Z</time>
      </trkpt>
      <trkpt lat="44.60534" lon="4.24821">
        <ele>726</ele>
        <time>2019-12-22T12:56:31Z</time>
      </trkpt>
      <trkpt lat="44.60537" lon="4.24804">
        <ele>726</ele>
        <time>2019-12-22T12:56:33Z</time>
      </trkpt>
      <trkpt lat="44.60541" lon="4.2479">
        <ele>725</ele>
        <time>2019-12-22T12:56:35Z</time>
      </trkpt>
      <trkpt lat="44.60546" lon="4.24779">
        <ele>725</ele>
        <time>2019-12-22T12:56:36Z</time>
      </trkpt>
      <trkpt lat="44.60554" lon="4.24771">
        <ele>726</ele>
        <time>2019-12-22T12:56:38Z</time>
      </trkpt>
      <trkpt lat="44.60562" lon="4.24764">
        <ele>727</ele>
        <time>2019-12-22T12:56:40Z</time>
      </trkpt>
      <trkpt lat="44.60584" lon="4.24757">
        <ele>729</ele>
        <time>2019-12-22T12:56:44Z</time>
      </trkpt>
      <trkpt lat="44.60598" lon="4.24758">
        <ele>733</ele>
        <time>2019-12-22T12:56:46Z</time>
      </trkpt>
      <trkpt lat="44.60627" lon="4.24764">
        <ele>740</ele>
        <time>2019-12-22T12:56:51Z</time>
      </trkpt>
      <trkpt lat="44.60671" lon="4.24793">
        <ele>755</ele>
        <time>2019-12-22T12:57:00Z</time>
      </trkpt>
      <trkpt lat="44.60677" lon="4.24794">
        <ele>757</ele>
        <time>2019-12-22T12:57:01Z</time>
      </trkpt>
      <trkpt lat="44.60682" lon="4.24793">
        <ele>758</ele>
        <time>2019-12-22T12:57:02Z</time>
      </trkpt>
      <trkpt lat="44.60686" lon="4.24787">
        <ele>759</ele>
        <time>2019-12-22T12:57:03Z</time>
      </trkpt>
      <trkpt lat="44.60687" lon="4.24779">
        <ele>758</ele>
        <time>2019-12-22T12:57:04Z</time>
      </trkpt>
      <trkpt lat="44.60682" lon="4.2471">
        <ele>748</ele>
        <time>2019-12-22T12:57:13Z</time>
      </trkpt>
      <trkpt lat="44.60687" lon="4.24681">
        <ele>748</ele>
        <time>2019-12-22T12:57:17Z</time>
      </trkpt>
      <trkpt lat="44.60692" lon="4.24668">
        <ele>749</ele>
        <time>2019-12-22T12:57:19Z</time>
      </trkpt>
      <trkpt lat="44.60701" lon="4.24654">
        <ele>753</ele>
        <time>2019-12-22T12:57:21Z</time>
      </trkpt>
      <trkpt lat="44.60731" lon="4.24619">
        <ele>763</ele>
        <time>2019-12-22T12:57:28Z</time>
      </trkpt>
      <trkpt lat="44.60732" lon="4.24614">
        <ele>763</ele>
        <time>2019-12-22T12:57:29Z</time>
      </trkpt>
      <trkpt lat="44.60731" lon="4.24603">
        <ele>763</ele>
        <time>2019-12-22T12:57:30Z</time>
      </trkpt>
      <trkpt lat="44.60718" lon="4.24579">
        <ele>759</ele>
        <time>2019-12-22T12:57:34Z</time>
      </trkpt>
      <trkpt lat="44.60716" lon="4.24567">
        <ele>760</ele>
        <time>2019-12-22T12:57:35Z</time>
      </trkpt>
      <trkpt lat="44.60715" lon="4.24552">
        <ele>762</ele>
        <time>2019-12-22T12:57:37Z</time>
      </trkpt>
      <trkpt lat="44.60717" lon="4.24504">
        <ele>768</ele>
        <time>2019-12-22T12:57:43Z</time>
      </trkpt>
      <trkpt lat="44.60715" lon="4.24491">
        <ele>769</ele>
        <time>2019-12-22T12:57:45Z</time>
      </trkpt>
      <trkpt lat="44.60711" lon="4.24482">
        <ele>769</ele>
        <time>2019-12-22T12:57:46Z</time>
      </trkpt>
      <trkpt lat="44.60706" lon="4.24473">
        <ele>769</ele>
        <time>2019-12-22T12:57:48Z</time>
      </trkpt>
      <trkpt lat="44.60698" lon="4.24467">
        <ele>768</ele>
        <time>2019-12-22T12:57:49Z</time>
      </trkpt>
      <trkpt lat="44.60661" lon="4.24444">
        <ele>763</ele>
        <time>2019-12-22T12:57:57Z</time>
      </trkpt>
      <trkpt lat="44.60656" lon="4.24436">
        <ele>763</ele>
        <time>2019-12-22T12:57:58Z</time>
      </trkpt>
      <trkpt lat="44.60653" lon="4.24427">
        <ele>763</ele>
        <time>2019-12-22T12:57:59Z</time>
      </trkpt>
      <trkpt lat="44.60653" lon="4.24402">
        <ele>765</ele>
        <time>2019-12-22T12:58:02Z</time>
      </trkpt>
      <trkpt lat="44.6066" lon="4.24343">
        <ele>768</ele>
        <time>2019-12-22T12:58:10Z</time>
      </trkpt>
      <trkpt lat="44.60674" lon="4.24274">
        <ele>773</ele>
        <time>2019-12-22T12:58:19Z</time>
      </trkpt>
      <trkpt lat="44.60681" lon="4.24254">
        <ele>773</ele>
        <time>2019-12-22T12:58:22Z</time>
      </trkpt>
      <trkpt lat="44.60694" lon="4.24224">
        <ele>771</ele>
        <time>2019-12-22T12:58:26Z</time>
      </trkpt>
      <trkpt lat="44.60706" lon="4.24176">
        <ele>765</ele>
        <time>2019-12-22T12:58:33Z</time>
      </trkpt>
      <trkpt lat="44.6071" lon="4.24153">
        <ele>762</ele>
        <time>2019-12-22T12:58:36Z</time>
      </trkpt>
      <trkpt lat="44.60709" lon="4.24139">
        <ele>762</ele>
        <time>2019-12-22T12:58:38Z</time>
      </trkpt>
      <trkpt lat="44.607" lon="4.24105">
        <ele>763</ele>
        <time>2019-12-22T12:58:42Z</time>
      </trkpt>
      <trkpt lat="44.60696" lon="4.24079">
        <ele>764</ele>
        <time>2019-12-22T12:58:46Z</time>
      </trkpt>
      <trkpt lat="44.60694" lon="4.24026">
        <ele>762</ele>
        <time>2019-12-22T12:58:52Z</time>
      </trkpt>
      <trkpt lat="44.60694" lon="4.24003">
        <ele>761</ele>
        <time>2019-12-22T12:58:55Z</time>
      </trkpt>
      <trkpt lat="44.60703" lon="4.23941">
        <ele>758</ele>
        <time>2019-12-22T12:59:03Z</time>
      </trkpt>
      <trkpt lat="44.60705" lon="4.23916">
        <ele>758</ele>
        <time>2019-12-22T12:59:06Z</time>
      </trkpt>
      <trkpt lat="44.60706" lon="4.23895">
        <ele>756</ele>
        <time>2019-12-22T12:59:09Z</time>
      </trkpt>
      <trkpt lat="44.60704" lon="4.23877">
        <ele>755</ele>
        <time>2019-12-22T12:59:11Z</time>
      </trkpt>
      <trkpt lat="44.607" lon="4.2386">
        <ele>755</ele>
        <time>2019-12-22T12:59:14Z</time>
      </trkpt>
      <trkpt lat="44.60686" lon="4.23828">
        <ele>757</ele>
        <time>2019-12-22T12:59:18Z</time>
      </trkpt>
      <trkpt lat="44.60677" lon="4.23816">
        <ele>759</ele>
        <time>2019-12-22T12:59:21Z</time>
      </trkpt>
      <trkpt lat="44.60658" lon="4.23795">
        <ele>762</ele>
        <time>2019-12-22T12:59:25Z</time>
      </trkpt>
      <trkpt lat="44.60648" lon="4.2378">
        <ele>764</ele>
        <time>2019-12-22T12:59:28Z</time>
      </trkpt>
      <trkpt lat="44.60645" lon="4.23767">
        <ele>764</ele>
        <time>2019-12-22T12:59:29Z</time>
      </trkpt>
      <trkpt lat="44.60645" lon="4.2375">
        <ele>762</ele>
        <time>2019-12-22T12:59:31Z</time>
      </trkpt>
      <trkpt lat="44.60649" lon="4.23697">
        <ele>757</ele>
        <time>2019-12-22T12:59:38Z</time>
      </trkpt>
      <trkpt lat="44.60649" lon="4.23676">
        <ele>755</ele>
        <time>2019-12-22T12:59:41Z</time>
      </trkpt>
      <trkpt lat="44.60646" lon="4.23659">
        <ele>755</ele>
        <time>2019-12-22T12:59:43Z</time>
      </trkpt>
      <trkpt lat="44.60643" lon="4.23644">
        <ele>755</ele>
        <time>2019-12-22T12:59:45Z</time>
      </trkpt>
      <trkpt lat="44.60636" lon="4.23627">
        <ele>755</ele>
        <time>2019-12-22T12:59:47Z</time>
      </trkpt>
      <trkpt lat="44.60613" lon="4.23584">
        <ele>759</ele>
        <time>2019-12-22T12:59:54Z</time>
      </trkpt>
      <trkpt lat="44.60609" lon="4.2357">
        <ele>760</ele>
        <time>2019-12-22T12:59:56Z</time>
      </trkpt>
      <trkpt lat="44.60609" lon="4.23559">
        <ele>760</ele>
        <time>2019-12-22T12:59:58Z</time>
      </trkpt>
      <trkpt lat="44.60612" lon="4.23546">
        <ele>758</ele>
        <time>2019-12-22T12:59:59Z</time>
      </trkpt>
      <trkpt lat="44.60637" lon="4.23481">
        <ele>745</ele>
        <time>2019-12-22T13:00:09Z</time>
      </trkpt>
      <trkpt lat="44.6064" lon="4.23468">
        <ele>742</ele>
        <time>2019-12-22T13:00:10Z</time>
      </trkpt>
      <trkpt lat="44.6064" lon="4.23458">
        <ele>741</ele>
        <time>2019-12-22T13:00:12Z</time>
      </trkpt>
      <trkpt lat="44.60644" lon="4.23447">
        <ele>739</ele>
        <time>2019-12-22T13:00:13Z</time>
      </trkpt>
      <trkpt lat="44.60647" lon="4.23442">
        <ele>737</ele>
        <time>2019-12-22T13:00:14Z</time>
      </trkpt>
      <trkpt lat="44.60656" lon="4.23439">
        <ele>733</ele>
        <time>2019-12-22T13:00:16Z</time>
      </trkpt>
      <trkpt lat="44.6066" lon="4.23441">
        <ele>732</ele>
        <time>2019-12-22T13:00:16Z</time>
      </trkpt>
      <trkpt lat="44.60666" lon="4.23449">
        <ele>730</ele>
        <time>2019-12-22T13:00:18Z</time>
      </trkpt>
      <trkpt lat="44.60666" lon="4.23459">
        <ele>731</ele>
        <time>2019-12-22T13:00:19Z</time>
      </trkpt>
      <trkpt lat="44.60661" lon="4.23469">
        <ele>734</ele>
        <time>2019-12-22T13:00:21Z</time>
      </trkpt>
      <trkpt lat="44.60656" lon="4.23474">
        <ele>737</ele>
        <time>2019-12-22T13:00:22Z</time>
      </trkpt>
      <trkpt lat="44.60646" lon="4.23491">
        <ele>743</ele>
        <time>2019-12-22T13:00:25Z</time>
      </trkpt>
      <trkpt lat="44.60631" lon="4.23543">
        <ele>751</ele>
        <time>2019-12-22T13:00:32Z</time>
      </trkpt>
      <trkpt lat="44.60631" lon="4.23552">
        <ele>751</ele>
        <time>2019-12-22T13:00:33Z</time>
      </trkpt>
      <trkpt lat="44.60635" lon="4.23567">
        <ele>750</ele>
        <time>2019-12-22T13:00:35Z</time>
      </trkpt>
      <trkpt lat="44.6064" lon="4.23573">
        <ele>749</ele>
        <time>2019-12-22T13:00:36Z</time>
      </trkpt>
      <trkpt lat="44.60655" lon="4.23582">
        <ele>743</ele>
        <time>2019-12-22T13:00:39Z</time>
      </trkpt>
      <trkpt lat="44.60663" lon="4.23592">
        <ele>741</ele>
        <time>2019-12-22T13:00:41Z</time>
      </trkpt>
      <trkpt lat="44.60677" lon="4.2362">
        <ele>738</ele>
        <time>2019-12-22T13:00:45Z</time>
      </trkpt>
      <trkpt lat="44.60697" lon="4.2367">
        <ele>734</ele>
        <time>2019-12-22T13:00:53Z</time>
      </trkpt>
      <trkpt lat="44.60706" lon="4.23715">
        <ele>734</ele>
        <time>2019-12-22T13:00:58Z</time>
      </trkpt>
      <trkpt lat="44.6071" lon="4.23732">
        <ele>735</ele>
        <time>2019-12-22T13:01:01Z</time>
      </trkpt>
      <trkpt lat="44.60715" lon="4.23741">
        <ele>734</ele>
        <time>2019-12-22T13:01:02Z</time>
      </trkpt>
      <trkpt lat="44.6072" lon="4.23748">
        <ele>733</ele>
        <time>2019-12-22T13:01:03Z</time>
      </trkpt>
      <trkpt lat="44.6076" lon="4.23756">
        <ele>719</ele>
        <time>2019-12-22T13:01:11Z</time>
      </trkpt>
      <trkpt lat="44.60771" lon="4.23762">
        <ele>716</ele>
        <time>2019-12-22T13:01:13Z</time>
      </trkpt>
      <trkpt lat="44.60784" lon="4.23773">
        <ele>714</ele>
        <time>2019-12-22T13:01:15Z</time>
      </trkpt>
      <trkpt lat="44.60793" lon="4.23784">
        <ele>712</ele>
        <time>2019-12-22T13:01:18Z</time>
      </trkpt>
      <trkpt lat="44.60811" lon="4.23819">
        <ele>712</ele>
        <time>2019-12-22T13:01:23Z</time>
      </trkpt>
      <trkpt lat="44.60815" lon="4.23836">
        <ele>713</ele>
        <time>2019-12-22T13:01:25Z</time>
      </trkpt>
      <trkpt lat="44.60816" lon="4.23855">
        <ele>712</ele>
        <time>2019-12-22T13:01:28Z</time>
      </trkpt>
      <trkpt lat="44.60813" lon="4.23949">
        <ele>713</ele>
        <time>2019-12-22T13:01:40Z</time>
      </trkpt>
      <trkpt lat="44.60815" lon="4.23975">
        <ele>713</ele>
        <time>2019-12-22T13:01:43Z</time>
      </trkpt>
      <trkpt lat="44.60818" lon="4.23995">
        <ele>713</ele>
        <time>2019-12-22T13:01:45Z</time>
      </trkpt>
      <trkpt lat="44.60823" lon="4.24011">
        <ele>713</ele>
        <time>2019-12-22T13:01:48Z</time>
      </trkpt>
      <trkpt lat="44.60831" lon="4.24023">
        <ele>713</ele>
        <time>2019-12-22T13:01:50Z</time>
      </trkpt>
      <trkpt lat="44.60839" lon="4.24027">
        <ele>714</ele>
        <time>2019-12-22T13:01:51Z</time>
      </trkpt>
      <trkpt lat="44.60845" lon="4.24027">
        <ele>714</ele>
        <time>2019-12-22T13:01:52Z</time>
      </trkpt>
      <trkpt lat="44.60852" lon="4.24024">
        <ele>713</ele>
        <time>2019-12-22T13:01:54Z</time>
      </trkpt>
      <trkpt lat="44.60899" lon="4.23992">
        <ele>704</ele>
        <time>2019-12-22T13:02:03Z</time>
      </trkpt>
      <trkpt lat="44.60917" lon="4.23977">
        <ele>700</ele>
        <time>2019-12-22T13:02:07Z</time>
      </trkpt>
      <trkpt lat="44.60972" lon="4.23943">
        <ele>691</ele>
        <time>2019-12-22T13:02:17Z</time>
      </trkpt>
      <trkpt lat="44.60993" lon="4.23932">
        <ele>687</ele>
        <time>2019-12-22T13:02:21Z</time>
      </trkpt>
      <trkpt lat="44.61012" lon="4.23929">
        <ele>686</ele>
        <time>2019-12-22T13:02:25Z</time>
      </trkpt>
      <trkpt lat="44.61021" lon="4.23931">
        <ele>686</ele>
        <time>2019-12-22T13:02:26Z</time>
      </trkpt>
      <trkpt lat="44.61052" lon="4.23954">
        <ele>693</ele>
        <time>2019-12-22T13:02:33Z</time>
      </trkpt>
      <trkpt lat="44.61059" lon="4.23956">
        <ele>693</ele>
        <time>2019-12-22T13:02:34Z</time>
      </trkpt>
      <trkpt lat="44.61071" lon="4.23955">
        <ele>692</ele>
        <time>2019-12-22T13:02:36Z</time>
      </trkpt>
      <trkpt lat="44.61076" lon="4.23952">
        <ele>691</ele>
        <time>2019-12-22T13:02:37Z</time>
      </trkpt>
      <trkpt lat="44.61079" lon="4.23947">
        <ele>690</ele>
        <time>2019-12-22T13:02:38Z</time>
      </trkpt>
      <trkpt lat="44.61089" lon="4.23914">
        <ele>680</ele>
        <time>2019-12-22T13:02:42Z</time>
      </trkpt>
      <trkpt lat="44.61103" lon="4.23895">
        <ele>674</ele>
        <time>2019-12-22T13:02:46Z</time>
      </trkpt>
      <trkpt lat="44.61124" lon="4.23882">
        <ele>671</ele>
        <time>2019-12-22T13:02:50Z</time>
      </trkpt>
      <trkpt lat="44.61144" lon="4.23872">
        <ele>668</ele>
        <time>2019-12-22T13:02:54Z</time>
      </trkpt>
      <trkpt lat="44.61153" lon="4.23872">
        <ele>668</ele>
        <time>2019-12-22T13:02:55Z</time>
      </trkpt>
      <trkpt lat="44.61158" lon="4.23877">
        <ele>670</ele>
        <time>2019-12-22T13:02:56Z</time>
      </trkpt>
      <trkpt lat="44.61175" lon="4.239">
        <ele>680</ele>
        <time>2019-12-22T13:03:01Z</time>
      </trkpt>
      <trkpt lat="44.61182" lon="4.23905">
        <ele>682</ele>
        <time>2019-12-22T13:03:02Z</time>
      </trkpt>
      <trkpt lat="44.61189" lon="4.23906">
        <ele>682</ele>
        <time>2019-12-22T13:03:03Z</time>
      </trkpt>
      <trkpt lat="44.61196" lon="4.23904">
        <ele>681</ele>
        <time>2019-12-22T13:03:05Z</time>
      </trkpt>
      <trkpt lat="44.61263" lon="4.23867">
        <ele>663</ele>
        <time>2019-12-22T13:03:17Z</time>
      </trkpt>
      <trkpt lat="44.61295" lon="4.23855">
        <ele>659</ele>
        <time>2019-12-22T13:03:23Z</time>
      </trkpt>
      <trkpt lat="44.61314" lon="4.2385">
        <ele>658</ele>
        <time>2019-12-22T13:03:27Z</time>
      </trkpt>
      <trkpt lat="44.6133" lon="4.23853">
        <ele>659</ele>
        <time>2019-12-22T13:03:30Z</time>
      </trkpt>
      <trkpt lat="44.6134" lon="4.23861">
        <ele>659</ele>
        <time>2019-12-22T13:03:32Z</time>
      </trkpt>
      <trkpt lat="44.61348" lon="4.23871">
        <ele>658</ele>
        <time>2019-12-22T13:03:33Z</time>
      </trkpt>
      <trkpt lat="44.61357" lon="4.2389">
        <ele>659</ele>
        <time>2019-12-22T13:03:36Z</time>
      </trkpt>
      <trkpt lat="44.61368" lon="4.2392">
        <ele>661</ele>
        <time>2019-12-22T13:03:41Z</time>
      </trkpt>
      <trkpt lat="44.614" lon="4.23971">
        <ele>655</ele>
        <time>2019-12-22T13:03:49Z</time>
      </trkpt>
      <trkpt lat="44.61408" lon="4.2399">
        <ele>654</ele>
        <time>2019-12-22T13:03:52Z</time>
      </trkpt>
      <trkpt lat="44.61417" lon="4.24034">
        <ele>650</ele>
        <time>2019-12-22T13:03:58Z</time>
      </trkpt>
      <trkpt lat="44.61419" lon="4.24061">
        <ele>647</ele>
        <time>2019-12-22T13:04:01Z</time>
      </trkpt>
      <trkpt lat="44.61415" lon="4.24092">
        <ele>647</ele>
        <time>2019-12-22T13:04:05Z</time>
      </trkpt>
      <trkpt lat="44.61408" lon="4.24127">
        <ele>643</ele>
        <time>2019-12-22T13:04:10Z</time>
      </trkpt>
      <trkpt lat="44.614" lon="4.24144">
        <ele>642</ele>
        <time>2019-12-22T13:04:12Z</time>
      </trkpt>
      <trkpt lat="44.6139" lon="4.24156">
        <ele>643</ele>
        <time>2019-12-22T13:04:15Z</time>
      </trkpt>
      <trkpt lat="44.6137" lon="4.24169">
        <ele>648</ele>
        <time>2019-12-22T13:04:19Z</time>
      </trkpt>
      <trkpt lat="44.61354" lon="4.24193">
        <ele>648</ele>
        <time>2019-12-22T13:04:23Z</time>
      </trkpt>
      <trkpt lat="44.61332" lon="4.24212">
        <ele>651</ele>
        <time>2019-12-22T13:04:27Z</time>
      </trkpt>
      <trkpt lat="44.61329" lon="4.24225">
        <ele>648</ele>
        <time>2019-12-22T13:04:29Z</time>
      </trkpt>
      <trkpt lat="44.61327" lon="4.24242">
        <ele>645</ele>
        <time>2019-12-22T13:04:31Z</time>
      </trkpt>
      <trkpt lat="44.61313" lon="4.24294">
        <ele>649</ele>
        <time>2019-12-22T13:04:38Z</time>
      </trkpt>
      <trkpt lat="44.61314" lon="4.24313">
        <ele>649</ele>
        <time>2019-12-22T13:04:41Z</time>
      </trkpt>
      <trkpt lat="44.61318" lon="4.24323">
        <ele>647</ele>
        <time>2019-12-22T13:04:42Z</time>
      </trkpt>
      <trkpt lat="44.61332" lon="4.24327">
        <ele>643</ele>
        <time>2019-12-22T13:04:45Z</time>
      </trkpt>
      <trkpt lat="44.61348" lon="4.24326">
        <ele>638</ele>
        <time>2019-12-22T13:04:48Z</time>
      </trkpt>
      <trkpt lat="44.61371" lon="4.24313">
        <ele>631</ele>
        <time>2019-12-22T13:04:52Z</time>
      </trkpt>
      <trkpt lat="44.61394" lon="4.24324">
        <ele>625</ele>
        <time>2019-12-22T13:04:56Z</time>
      </trkpt>
      <trkpt lat="44.61403" lon="4.24335">
        <ele>623</ele>
        <time>2019-12-22T13:04:59Z</time>
      </trkpt>
      <trkpt lat="44.61401" lon="4.24401">
        <ele>638</ele>
        <time>2019-12-22T13:05:07Z</time>
      </trkpt>
      <trkpt lat="44.61406" lon="4.24411">
        <ele>638</ele>
        <time>2019-12-22T13:05:08Z</time>
      </trkpt>
      <trkpt lat="44.61412" lon="4.24416">
        <ele>637</ele>
        <time>2019-12-22T13:05:10Z</time>
      </trkpt>
      <trkpt lat="44.61424" lon="4.24417">
        <ele>635</ele>
        <time>2019-12-22T13:05:12Z</time>
      </trkpt>
      <trkpt lat="44.61438" lon="4.24412">
        <ele>634</ele>
        <time>2019-12-22T13:05:14Z</time>
      </trkpt>
      <trkpt lat="44.61515" lon="4.24369">
        <ele>619</ele>
        <time>2019-12-22T13:05:29Z</time>
      </trkpt>
      <trkpt lat="44.61549" lon="4.24343">
        <ele>612</ele>
        <time>2019-12-22T13:05:36Z</time>
      </trkpt>
      <trkpt lat="44.61562" lon="4.24324">
        <ele>609</ele>
        <time>2019-12-22T13:05:39Z</time>
      </trkpt>
      <trkpt lat="44.61576" lon="4.24311">
        <ele>606</ele>
        <time>2019-12-22T13:05:42Z</time>
      </trkpt>
      <trkpt lat="44.61621" lon="4.24292">
        <ele>600</ele>
        <time>2019-12-22T13:05:51Z</time>
      </trkpt>
      <trkpt lat="44.6164" lon="4.24272">
        <ele>597</ele>
        <time>2019-12-22T13:05:55Z</time>
      </trkpt>
      <trkpt lat="44.6165" lon="4.24255">
        <ele>596</ele>
        <time>2019-12-22T13:05:58Z</time>
      </trkpt>
      <trkpt lat="44.61655" lon="4.24222">
        <ele>592</ele>
        <time>2019-12-22T13:06:02Z</time>
      </trkpt>
      <trkpt lat="44.61671" lon="4.24211">
        <ele>592</ele>
        <time>2019-12-22T13:06:05Z</time>
      </trkpt>
      <trkpt lat="44.6168" lon="4.24218">
        <ele>591</ele>
        <time>2019-12-22T13:06:07Z</time>
      </trkpt>
      <trkpt lat="44.61683" lon="4.24237">
        <ele>592</ele>
        <time>2019-12-22T13:06:09Z</time>
      </trkpt>
      <trkpt lat="44.61683" lon="4.24258">
        <ele>594</ele>
        <time>2019-12-22T13:06:12Z</time>
      </trkpt>
      <trkpt lat="44.61676" lon="4.24279">
        <ele>596</ele>
        <time>2019-12-22T13:06:15Z</time>
      </trkpt>
      <trkpt lat="44.61658" lon="4.24309">
        <ele>600</ele>
        <time>2019-12-22T13:06:20Z</time>
      </trkpt>
      <trkpt lat="44.61655" lon="4.24319">
        <ele>601</ele>
        <time>2019-12-22T13:06:21Z</time>
      </trkpt>
      <trkpt lat="44.61657" lon="4.24337">
        <ele>602</ele>
        <time>2019-12-22T13:06:24Z</time>
      </trkpt>
      <trkpt lat="44.61662" lon="4.24349">
        <ele>602</ele>
        <time>2019-12-22T13:06:26Z</time>
      </trkpt>
      <trkpt lat="44.61673" lon="4.24354">
        <ele>601</ele>
        <time>2019-12-22T13:06:28Z</time>
      </trkpt>
      <trkpt lat="44.61733" lon="4.24339">
        <ele>592</ele>
        <time>2019-12-22T13:06:38Z</time>
      </trkpt>
      <trkpt lat="44.61759" lon="4.24324">
        <ele>586</ele>
        <time>2019-12-22T13:06:43Z</time>
      </trkpt>
      <trkpt lat="44.61781" lon="4.24308">
        <ele>581</ele>
        <time>2019-12-22T13:06:48Z</time>
      </trkpt>
      <trkpt lat="44.61789" lon="4.24307">
        <ele>580</ele>
        <time>2019-12-22T13:06:49Z</time>
      </trkpt>
      <trkpt lat="44.61798" lon="4.24315">
        <ele>579</ele>
        <time>2019-12-22T13:06:51Z</time>
      </trkpt>
      <trkpt lat="44.61799" lon="4.24335">
        <ele>581</ele>
        <time>2019-12-22T13:06:54Z</time>
      </trkpt>
      <trkpt lat="44.61792" lon="4.24359">
        <ele>584</ele>
        <time>2019-12-22T13:06:57Z</time>
      </trkpt>
      <trkpt lat="44.61784" lon="4.24409">
        <ele>588</ele>
        <time>2019-12-22T13:07:03Z</time>
      </trkpt>
      <trkpt lat="44.61789" lon="4.24418">
        <ele>588</ele>
        <time>2019-12-22T13:07:05Z</time>
      </trkpt>
      <trkpt lat="44.61804" lon="4.24434">
        <ele>588</ele>
        <time>2019-12-22T13:07:08Z</time>
      </trkpt>
      <trkpt lat="44.61815" lon="4.24436">
        <ele>586</ele>
        <time>2019-12-22T13:07:10Z</time>
      </trkpt>
      <trkpt lat="44.6189" lon="4.24408">
        <ele>575</ele>
        <time>2019-12-22T13:07:24Z</time>
      </trkpt>
      <trkpt lat="44.61948" lon="4.24416">
        <ele>574</ele>
        <time>2019-12-22T13:07:34Z</time>
      </trkpt>
      <trkpt lat="44.61969" lon="4.244">
        <ele>569</ele>
        <time>2019-12-22T13:07:39Z</time>
      </trkpt>
      <trkpt lat="44.61988" lon="4.2438">
        <ele>564</ele>
        <time>2019-12-22T13:07:43Z</time>
      </trkpt>
      <trkpt lat="44.61999" lon="4.24372">
        <ele>562</ele>
        <time>2019-12-22T13:07:45Z</time>
      </trkpt>
      <trkpt lat="44.62007" lon="4.24379">
        <ele>563</ele>
        <time>2019-12-22T13:07:47Z</time>
      </trkpt>
      <trkpt lat="44.6202" lon="4.24392">
        <ele>564</ele>
        <time>2019-12-22T13:07:50Z</time>
      </trkpt>
      <trkpt lat="44.62033" lon="4.24401">
        <ele>564</ele>
        <time>2019-12-22T13:07:52Z</time>
      </trkpt>
      <trkpt lat="44.62057" lon="4.24402">
        <ele>561</ele>
        <time>2019-12-22T13:07:56Z</time>
      </trkpt>
      <trkpt lat="44.62092" lon="4.24396">
        <ele>554</ele>
        <time>2019-12-22T13:08:03Z</time>
      </trkpt>
      <trkpt lat="44.62105" lon="4.24397">
        <ele>551</ele>
        <time>2019-12-22T13:08:05Z</time>
      </trkpt>
      <trkpt lat="44.6211" lon="4.24408">
        <ele>550</ele>
        <time>2019-12-22T13:08:07Z</time>
      </trkpt>
      <trkpt lat="44.6211" lon="4.24425">
        <ele>551</ele>
        <time>2019-12-22T13:08:09Z</time>
      </trkpt>
      <trkpt lat="44.62101" lon="4.24442">
        <ele>552</ele>
        <time>2019-12-22T13:08:12Z</time>
      </trkpt>
      <trkpt lat="44.62073" lon="4.24473">
        <ele>557</ele>
        <time>2019-12-22T13:08:18Z</time>
      </trkpt>
      <trkpt lat="44.62052" lon="4.24506">
        <ele>560</ele>
        <time>2019-12-22T13:08:23Z</time>
      </trkpt>
      <trkpt lat="44.6205" lon="4.24523">
        <ele>561</ele>
        <time>2019-12-22T13:08:26Z</time>
      </trkpt>
      <trkpt lat="44.62054" lon="4.24536">
        <ele>560</ele>
        <time>2019-12-22T13:08:27Z</time>
      </trkpt>
      <trkpt lat="44.62065" lon="4.24548">
        <ele>558</ele>
        <time>2019-12-22T13:08:30Z</time>
      </trkpt>
      <trkpt lat="44.62139" lon="4.24594">
        <ele>544</ele>
        <time>2019-12-22T13:08:44Z</time>
      </trkpt>
      <trkpt lat="44.62157" lon="4.24611">
        <ele>542</ele>
        <time>2019-12-22T13:08:48Z</time>
      </trkpt>
      <trkpt lat="44.62171" lon="4.24633">
        <ele>541</ele>
        <time>2019-12-22T13:08:52Z</time>
      </trkpt>
      <trkpt lat="44.62178" lon="4.24657">
        <ele>540</ele>
        <time>2019-12-22T13:08:55Z</time>
      </trkpt>
      <trkpt lat="44.62184" lon="4.24696">
        <ele>538</ele>
        <time>2019-12-22T13:09:00Z</time>
      </trkpt>
      <trkpt lat="44.6218" lon="4.24734">
        <ele>540</ele>
        <time>2019-12-22T13:09:05Z</time>
      </trkpt>
      <trkpt lat="44.62169" lon="4.2477">
        <ele>542</ele>
        <time>2019-12-22T13:09:10Z</time>
      </trkpt>
      <trkpt lat="44.62168" lon="4.24838">
        <ele>534</ele>
        <time>2019-12-22T13:09:19Z</time>
      </trkpt>
      <trkpt lat="44.62161" lon="4.24869">
        <ele>530</ele>
        <time>2019-12-22T13:09:23Z</time>
      </trkpt>
      <trkpt lat="44.62147" lon="4.24886">
        <ele>528</ele>
        <time>2019-12-22T13:09:26Z</time>
      </trkpt>
      <trkpt lat="44.62129" lon="4.24894">
        <ele>529</ele>
        <time>2019-12-22T13:09:29Z</time>
      </trkpt>
      <trkpt lat="44.62059" lon="4.24898">
        <ele>534</ele>
        <time>2019-12-22T13:09:42Z</time>
      </trkpt>
      <trkpt lat="44.6203" lon="4.24908">
        <ele>533</ele>
        <time>2019-12-22T13:09:47Z</time>
      </trkpt>
      <trkpt lat="44.62024" lon="4.24918">
        <ele>532</ele>
        <time>2019-12-22T13:09:49Z</time>
      </trkpt>
      <trkpt lat="44.62023" lon="4.24933">
        <ele>531</ele>
        <time>2019-12-22T13:09:51Z</time>
      </trkpt>
      <trkpt lat="44.6204" lon="4.24967">
        <ele>528</ele>
        <time>2019-12-22T13:09:56Z</time>
      </trkpt>
      <trkpt lat="44.62039" lon="4.24987">
        <ele>527</ele>
        <time>2019-12-22T13:09:59Z</time>
      </trkpt>
      <trkpt lat="44.62036" lon="4.25009">
        <ele>528</ele>
        <time>2019-12-22T13:10:01Z</time>
      </trkpt>
      <trkpt lat="44.6204" lon="4.25021">
        <ele>529</ele>
        <time>2019-12-22T13:10:03Z</time>
      </trkpt>
      <trkpt lat="44.62047" lon="4.25026">
        <ele>529</ele>
        <time>2019-12-22T13:10:05Z</time>
      </trkpt>
      <trkpt lat="44.62087" lon="4.25046">
        <ele>527</ele>
        <time>2019-12-22T13:10:12Z</time>
      </trkpt>
      <trkpt lat="44.62243" lon="4.25142">
        <ele>510</ele>
        <time>2019-12-22T13:10:42Z</time>
      </trkpt>
      <trkpt lat="44.62324" lon="4.25213">
        <ele>502</ele>
        <time>2019-12-22T13:10:59Z</time>
      </trkpt>
      <trkpt lat="44.62331" lon="4.25237">
        <ele>500</ele>
        <time>2019-12-22T13:11:03Z</time>
      </trkpt>
      <trkpt lat="44.62321" lon="4.2528">
        <ele>499</ele>
        <time>2019-12-22T13:11:08Z</time>
      </trkpt>
      <trkpt lat="44.62251" lon="4.25449">
        <ele>493</ele>
        <time>2019-12-22T13:11:33Z</time>
      </trkpt>
      <trkpt lat="44.62205" lon="4.25492">
        <ele>490</ele>
        <time>2019-12-22T13:11:43Z</time>
      </trkpt>
      <trkpt lat="44.62181" lon="4.25507">
        <ele>491</ele>
        <time>2019-12-22T13:11:48Z</time>
      </trkpt>
      <trkpt lat="44.62149" lon="4.25521">
        <ele>496</ele>
        <time>2019-12-22T13:11:54Z</time>
      </trkpt>
      <trkpt lat="44.62139" lon="4.25542">
        <ele>497</ele>
        <time>2019-12-22T13:11:57Z</time>
      </trkpt>
      <trkpt lat="44.62144" lon="4.25556">
        <ele>495</ele>
        <time>2019-12-22T13:11:59Z</time>
      </trkpt>
      <trkpt lat="44.62165" lon="4.25576">
        <ele>489</ele>
        <time>2019-12-22T13:12:03Z</time>
      </trkpt>
      <trkpt lat="44.62176" lon="4.25595">
        <ele>488</ele>
        <time>2019-12-22T13:12:06Z</time>
      </trkpt>
      <trkpt lat="44.62182" lon="4.25623">
        <ele>490</ele>
        <time>2019-12-22T13:12:10Z</time>
      </trkpt>
      <trkpt lat="44.62195" lon="4.25631">
        <ele>488</ele>
        <time>2019-12-22T13:12:13Z</time>
      </trkpt>
      <trkpt lat="44.62217" lon="4.25633">
        <ele>484</ele>
        <time>2019-12-22T13:12:17Z</time>
      </trkpt>
      <trkpt lat="44.62234" lon="4.25644">
        <ele>481</ele>
        <time>2019-12-22T13:12:20Z</time>
      </trkpt>
      <trkpt lat="44.62254" lon="4.25668">
        <ele>479</ele>
        <time>2019-12-22T13:12:25Z</time>
      </trkpt>
      <trkpt lat="44.62268" lon="4.25675">
        <ele>480</ele>
        <time>2019-12-22T13:12:27Z</time>
      </trkpt>
      <trkpt lat="44.62427" lon="4.25633">
        <ele>471</ele>
        <time>2019-12-22T13:12:56Z</time>
      </trkpt>
      <trkpt lat="44.62467" lon="4.25634">
        <ele>465</ele>
        <time>2019-12-22T13:13:03Z</time>
      </trkpt>
      <trkpt lat="44.6248" lon="4.2564">
        <ele>464</ele>
        <time>2019-12-22T13:13:06Z</time>
      </trkpt>
      <trkpt lat="44.62492" lon="4.25651">
        <ele>464</ele>
        <time>2019-12-22T13:13:08Z</time>
      </trkpt>
      <trkpt lat="44.62525" lon="4.25706">
        <ele>471</ele>
        <time>2019-12-22T13:13:17Z</time>
      </trkpt>
      <trkpt lat="44.6254" lon="4.25709">
        <ele>470</ele>
        <time>2019-12-22T13:13:20Z</time>
      </trkpt>
      <trkpt lat="44.62554" lon="4.25694">
        <ele>467</ele>
        <time>2019-12-22T13:13:23Z</time>
      </trkpt>
      <trkpt lat="44.62586" lon="4.25637">
        <ele>456</ele>
        <time>2019-12-22T13:13:32Z</time>
      </trkpt>
      <trkpt lat="44.62624" lon="4.25604">
        <ele>451</ele>
        <time>2019-12-22T13:13:40Z</time>
      </trkpt>
      <trkpt lat="44.62642" lon="4.25605">
        <ele>452</ele>
        <time>2019-12-22T13:13:43Z</time>
      </trkpt>
      <trkpt lat="44.62661" lon="4.25618">
        <ele>456</ele>
        <time>2019-12-22T13:13:47Z</time>
      </trkpt>
      <trkpt lat="44.62709" lon="4.25622">
        <ele>456</ele>
        <time>2019-12-22T13:13:56Z</time>
      </trkpt>
      <trkpt lat="44.62757" lon="4.25615">
        <ele>453</ele>
        <time>2019-12-22T13:14:04Z</time>
      </trkpt>
      <trkpt lat="44.62768" lon="4.25616">
        <ele>451</ele>
        <time>2019-12-22T13:14:06Z</time>
      </trkpt>
      <trkpt lat="44.62783" lon="4.25622">
        <ele>450</ele>
        <time>2019-12-22T13:14:09Z</time>
      </trkpt>
      <trkpt lat="44.62827" lon="4.25671">
        <ele>451</ele>
        <time>2019-12-22T13:14:19Z</time>
      </trkpt>
      <trkpt lat="44.6284" lon="4.25676">
        <ele>451</ele>
        <time>2019-12-22T13:14:21Z</time>
      </trkpt>
      <trkpt lat="44.62848" lon="4.25676">
        <ele>452</ele>
        <time>2019-12-22T13:14:23Z</time>
      </trkpt>
      <trkpt lat="44.62862" lon="4.25652">
        <ele>449</ele>
        <time>2019-12-22T13:14:27Z</time>
      </trkpt>
      <trkpt lat="44.62877" lon="4.25548">
        <ele>439</ele>
        <time>2019-12-22T13:14:40Z</time>
      </trkpt>
      <trkpt lat="44.62889" lon="4.25518">
        <ele>437</ele>
        <time>2019-12-22T13:14:45Z</time>
      </trkpt>
      <trkpt lat="44.62902" lon="4.25494">
        <ele>435</ele>
        <time>2019-12-22T13:14:48Z</time>
      </trkpt>
      <trkpt lat="44.62962" lon="4.25431">
        <ele>427</ele>
        <time>2019-12-22T13:15:02Z</time>
      </trkpt>
      <trkpt lat="44.62981" lon="4.25423">
        <ele>427</ele>
        <time>2019-12-22T13:15:05Z</time>
      </trkpt>
      <trkpt lat="44.63008" lon="4.2542">
        <ele>426</ele>
        <time>2019-12-22T13:15:10Z</time>
      </trkpt>
      <trkpt lat="44.63084" lon="4.2543">
        <ele>424</ele>
        <time>2019-12-22T13:15:24Z</time>
      </trkpt>
      <trkpt lat="44.63115" lon="4.25436">
        <ele>422</ele>
        <time>2019-12-22T13:15:29Z</time>
      </trkpt>
      <trkpt lat="44.63206" lon="4.25505">
        <ele>418</ele>
        <time>2019-12-22T13:15:48Z</time>
      </trkpt>
      <trkpt lat="44.63227" lon="4.25526">
        <ele>416</ele>
        <time>2019-12-22T13:15:52Z</time>
      </trkpt>
      <trkpt lat="44.63242" lon="4.25554">
        <ele>414</ele>
        <time>2019-12-22T13:15:57Z</time>
      </trkpt>
      <trkpt lat="44.6325" lon="4.25597">
        <ele>414</ele>
        <time>2019-12-22T13:16:02Z</time>
      </trkpt>
      <trkpt lat="44.63267" lon="4.2562">
        <ele>414</ele>
        <time>2019-12-22T13:16:06Z</time>
      </trkpt>
      <trkpt lat="44.63289" lon="4.25615">
        <ele>413</ele>
        <time>2019-12-22T13:16:10Z</time>
      </trkpt>
      <trkpt lat="44.63312" lon="4.25607">
        <ele>411</ele>
        <time>2019-12-22T13:16:15Z</time>
      </trkpt>
      <trkpt lat="44.63336" lon="4.25594">
        <ele>408</ele>
        <time>2019-12-22T13:16:19Z</time>
      </trkpt>
      <trkpt lat="44.63419" lon="4.25577">
        <ele>404</ele>
        <time>2019-12-22T13:16:34Z</time>
      </trkpt>
      <trkpt lat="44.63433" lon="4.25577">
        <ele>404</ele>
        <time>2019-12-22T13:16:37Z</time>
      </trkpt>
      <trkpt lat="44.63476" lon="4.2557">
        <ele>403</ele>
        <time>2019-12-22T13:16:44Z</time>
      </trkpt>
      <trkpt lat="44.63506" lon="4.25572">
        <ele>404</ele>
        <time>2019-12-22T13:16:50Z</time>
      </trkpt>
      <trkpt lat="44.63537" lon="4.25561">
        <ele>404</ele>
        <time>2019-12-22T13:16:55Z</time>
      </trkpt>
      <trkpt lat="44.63551" lon="4.25549">
        <ele>405</ele>
        <time>2019-12-22T13:16:58Z</time>
      </trkpt>
      <trkpt lat="44.63555" lon="4.2554">
        <ele>405</ele>
        <time>2019-12-22T13:17:00Z</time>
      </trkpt>
      <trkpt lat="44.63561" lon="4.25534">
        <ele>405</ele>
        <time>2019-12-22T13:17:01Z</time>
      </trkpt>
      <trkpt lat="44.63569" lon="4.2554">
        <ele>406</ele>
        <time>2019-12-22T13:17:03Z</time>
      </trkpt>
      <trkpt lat="44.63594" lon="4.25579">
        <ele>407</ele>
        <time>2019-12-22T13:17:09Z</time>
      </trkpt>
      <trkpt lat="44.63615" lon="4.25619">
        <ele>409</ele>
        <time>2019-12-22T13:17:15Z</time>
      </trkpt>
      <trkpt lat="44.63627" lon="4.25632">
        <ele>410</ele>
        <time>2019-12-22T13:17:18Z</time>
      </trkpt>
      <trkpt lat="44.63636" lon="4.25629">
        <ele>410</ele>
        <time>2019-12-22T13:17:20Z</time>
      </trkpt>
      <trkpt lat="44.63653" lon="4.25607">
        <ele>410</ele>
        <time>2019-12-22T13:17:24Z</time>
      </trkpt>
      <trkpt lat="44.6366" lon="4.25607">
        <ele>411</ele>
        <time>2019-12-22T13:17:25Z</time>
      </trkpt>
      <trkpt lat="44.63702" lon="4.25476">
        <ele>405</ele>
        <time>2019-12-22T13:17:43Z</time>
      </trkpt>
      <trkpt lat="44.63705" lon="4.25475">
        <ele>405</ele>
        <time>2019-12-22T13:17:44Z</time>
      </trkpt>
      <trkpt lat="44.63717" lon="4.25483">
        <ele>404</ele>
        <time>2019-12-22T13:17:46Z</time>
      </trkpt>
      <trkpt lat="44.63734" lon="4.25477">
        <ele>404</ele>
        <time>2019-12-22T13:17:49Z</time>
      </trkpt>
      <trkpt lat="44.63761" lon="4.25459">
        <ele>409</ele>
        <time>2019-12-22T13:17:55Z</time>
      </trkpt>
      <trkpt lat="44.63765" lon="4.25459">
        <ele>411</ele>
        <time>2019-12-22T13:17:55Z</time>
      </trkpt>
      <trkpt lat="44.63769" lon="4.25462">
        <ele>412</ele>
        <time>2019-12-22T13:17:56Z</time>
      </trkpt>
      <trkpt lat="44.63797" lon="4.25499">
        <ele>415</ele>
        <time>2019-12-22T13:18:03Z</time>
      </trkpt>
      <trkpt lat="44.63798" lon="4.25523">
        <ele>413</ele>
        <time>2019-12-22T13:18:06Z</time>
      </trkpt>
      <trkpt lat="44.63801" lon="4.25532">
        <ele>413</ele>
        <time>2019-12-22T13:18:07Z</time>
      </trkpt>
      <trkpt lat="44.6383" lon="4.25572">
        <ele>409</ele>
        <time>2019-12-22T13:18:15Z</time>
      </trkpt>
      <trkpt lat="44.63831" lon="4.2558">
        <ele>408</ele>
        <time>2019-12-22T13:18:16Z</time>
      </trkpt>
      <trkpt lat="44.63846" lon="4.25596">
        <ele>407</ele>
        <time>2019-12-22T13:18:19Z</time>
      </trkpt>
      <trkpt lat="44.63851" lon="4.25597">
        <ele>407</ele>
        <time>2019-12-22T13:18:20Z</time>
      </trkpt>
      <trkpt lat="44.63872" lon="4.256">
        <ele>406</ele>
        <time>2019-12-22T13:18:24Z</time>
      </trkpt>
      <trkpt lat="44.63886" lon="4.25599">
        <ele>405</ele>
        <time>2019-12-22T13:18:26Z</time>
      </trkpt>
      <trkpt lat="44.63908" lon="4.25591">
        <ele>404</ele>
        <time>2019-12-22T13:18:30Z</time>
      </trkpt>
      <trkpt lat="44.63943" lon="4.25563">
        <ele>404</ele>
        <time>2019-12-22T13:18:37Z</time>
      </trkpt>
      <trkpt lat="44.63949" lon="4.25552">
        <ele>405</ele>
        <time>2019-12-22T13:18:39Z</time>
      </trkpt>
      <trkpt lat="44.63955" lon="4.25532">
        <ele>405</ele>
        <time>2019-12-22T13:18:42Z</time>
      </trkpt>
      <trkpt lat="44.63961" lon="4.25524">
        <ele>404</ele>
        <time>2019-12-22T13:18:43Z</time>
      </trkpt>
      <trkpt lat="44.63963" lon="4.25498">
        <ele>405</ele>
        <time>2019-12-22T13:18:47Z</time>
      </trkpt>
      <trkpt lat="44.63972" lon="4.25469">
        <ele>404</ele>
        <time>2019-12-22T13:18:51Z</time>
      </trkpt>
      <trkpt lat="44.63983" lon="4.25451">
        <ele>401</ele>
        <time>2019-12-22T13:18:54Z</time>
      </trkpt>
      <trkpt lat="44.63988" lon="4.25422">
        <ele>401</ele>
        <time>2019-12-22T13:18:57Z</time>
      </trkpt>
      <trkpt lat="44.63991" lon="4.25417">
        <ele>400</ele>
        <time>2019-12-22T13:18:58Z</time>
      </trkpt>
      <trkpt lat="44.64006" lon="4.25413">
        <ele>399</ele>
        <time>2019-12-22T13:19:01Z</time>
      </trkpt>
      <trkpt lat="44.64008" lon="4.25412">
        <ele>399</ele>
        <time>2019-12-22T13:19:01Z</time>
      </trkpt>
      <trkpt lat="44.6401" lon="4.25408">
        <ele>400</ele>
        <time>2019-12-22T13:19:02Z</time>
      </trkpt>
      <trkpt lat="44.64006" lon="4.25389">
        <ele>400</ele>
        <time>2019-12-22T13:19:04Z</time>
      </trkpt>
      <trkpt lat="44.64008" lon="4.25386">
        <ele>401</ele>
        <time>2019-12-22T13:19:05Z</time>
      </trkpt>
      <trkpt lat="44.64012" lon="4.25398">
        <ele>401</ele>
        <time>2019-12-22T13:19:07Z</time>
      </trkpt>
      <trkpt lat="44.64017" lon="4.25383">
        <ele>403</ele>
        <time>2019-12-22T13:19:09Z</time>
      </trkpt>
      <trkpt lat="44.64048" lon="4.25359">
        <ele>411</ele>
        <time>2019-12-22T13:19:15Z</time>
      </trkpt>
      <trkpt lat="44.64045" lon="4.25382">
        <ele>409</ele>
        <time>2019-12-22T13:19:18Z</time>
      </trkpt>
      <trkpt lat="44.64048" lon="4.25394">
        <ele>409</ele>
        <time>2019-12-22T13:19:20Z</time>
      </trkpt>
      <trkpt lat="44.64056" lon="4.25409">
        <ele>411</ele>
        <time>2019-12-22T13:19:22Z</time>
      </trkpt>
      <trkpt lat="44.64061" lon="4.25414">
        <ele>412</ele>
        <time>2019-12-22T13:19:23Z</time>
      </trkpt>
      <trkpt lat="44.64062" lon="4.25403">
        <ele>412</ele>
        <time>2019-12-22T13:19:25Z</time>
      </trkpt>
      <trkpt lat="44.64066" lon="4.25395">
        <ele>414</ele>
        <time>2019-12-22T13:19:26Z</time>
      </trkpt>
      <trkpt lat="44.64068" lon="4.254">
        <ele>414</ele>
        <time>2019-12-22T13:19:26Z</time>
      </trkpt>
      <trkpt lat="44.64068" lon="4.25406">
        <ele>414</ele>
        <time>2019-12-22T13:19:27Z</time>
      </trkpt>
      <trkpt lat="44.64069" lon="4.25407">
        <ele>414</ele>
        <time>2019-12-22T13:19:27Z</time>
      </trkpt>
      <trkpt lat="44.64073" lon="4.25407">
        <ele>415</ele>
        <time>2019-12-22T13:19:28Z</time>
      </trkpt>
      <trkpt lat="44.64077" lon="4.25402">
        <ele>416</ele>
        <time>2019-12-22T13:19:29Z</time>
      </trkpt>
      <trkpt lat="44.64081" lon="4.25401">
        <ele>417</ele>
        <time>2019-12-22T13:19:30Z</time>
      </trkpt>
      <trkpt lat="44.64101" lon="4.25413">
        <ele>419</ele>
        <time>2019-12-22T13:19:34Z</time>
      </trkpt>
      <trkpt lat="44.64106" lon="4.25398">
        <ele>421</ele>
        <time>2019-12-22T13:19:36Z</time>
      </trkpt>
      <trkpt lat="44.64109" lon="4.25403">
        <ele>421</ele>
        <time>2019-12-22T13:19:37Z</time>
      </trkpt>
      <trkpt lat="44.64115" lon="4.25401">
        <ele>422</ele>
        <time>2019-12-22T13:19:38Z</time>
      </trkpt>
      <trkpt lat="44.64141" lon="4.25375">
        <ele>428</ele>
        <time>2019-12-22T13:19:43Z</time>
      </trkpt>
      <trkpt lat="44.6416" lon="4.2537">
        <ele>432</ele>
        <time>2019-12-22T13:19:47Z</time>
      </trkpt>
      <trkpt lat="44.64169" lon="4.25371">
        <ele>434</ele>
        <time>2019-12-22T13:19:48Z</time>
      </trkpt>
      <trkpt lat="44.64185" lon="4.25388">
        <ele>437</ele>
        <time>2019-12-22T13:19:52Z</time>
      </trkpt>
      <trkpt lat="44.64194" lon="4.25393">
        <ele>439</ele>
        <time>2019-12-22T13:19:54Z</time>
      </trkpt>
      <trkpt lat="44.64207" lon="4.25395">
        <ele>443</ele>
        <time>2019-12-22T13:19:56Z</time>
      </trkpt>
      <trkpt lat="44.64224" lon="4.25394">
        <ele>448</ele>
        <time>2019-12-22T13:19:59Z</time>
      </trkpt>
      <trkpt lat="44.64235" lon="4.25397">
        <ele>451</ele>
        <time>2019-12-22T13:20:01Z</time>
      </trkpt>
      <trkpt lat="44.64243" lon="4.25401">
        <ele>453</ele>
        <time>2019-12-22T13:20:03Z</time>
      </trkpt>
      <trkpt lat="44.64251" lon="4.2541">
        <ele>454</ele>
        <time>2019-12-22T13:20:04Z</time>
      </trkpt>
      <trkpt lat="44.64259" lon="4.25425">
        <ele>452</ele>
        <time>2019-12-22T13:20:07Z</time>
      </trkpt>
      <trkpt lat="44.64264" lon="4.25444">
        <ele>446</ele>
        <time>2019-12-22T13:20:09Z</time>
      </trkpt>
      <trkpt lat="44.64269" lon="4.25451">
        <ele>444</ele>
        <time>2019-12-22T13:20:11Z</time>
      </trkpt>
      <trkpt lat="44.64301" lon="4.2547">
        <ele>442</ele>
        <time>2019-12-22T13:20:17Z</time>
      </trkpt>
      <trkpt lat="44.64306" lon="4.25471">
        <ele>443</ele>
        <time>2019-12-22T13:20:18Z</time>
      </trkpt>
      <trkpt lat="44.64323" lon="4.25456">
        <ele>451</ele>
        <time>2019-12-22T13:20:21Z</time>
      </trkpt>
      <trkpt lat="44.64328" lon="4.25447">
        <ele>456</ele>
        <time>2019-12-22T13:20:23Z</time>
      </trkpt>
      <trkpt lat="44.64333" lon="4.25428">
        <ele>464</ele>
        <time>2019-12-22T13:20:25Z</time>
      </trkpt>
      <trkpt lat="44.64342" lon="4.25417">
        <ele>469</ele>
        <time>2019-12-22T13:20:27Z</time>
      </trkpt>
      <trkpt lat="44.64353" lon="4.25414">
        <ele>471</ele>
        <time>2019-12-22T13:20:29Z</time>
      </trkpt>
      <trkpt lat="44.64377" lon="4.25424">
        <ele>468</ele>
        <time>2019-12-22T13:20:34Z</time>
      </trkpt>
      <trkpt lat="44.64418" lon="4.25417">
        <ele>474</ele>
        <time>2019-12-22T13:20:41Z</time>
      </trkpt>
      <trkpt lat="44.64434" lon="4.25421">
        <ele>476</ele>
        <time>2019-12-22T13:20:44Z</time>
      </trkpt>
      <trkpt lat="44.64457" lon="4.25448">
        <ele>471</ele>
        <time>2019-12-22T13:20:49Z</time>
      </trkpt>
      <trkpt lat="44.64472" lon="4.25491">
        <ele>461</ele>
        <time>2019-12-22T13:20:55Z</time>
      </trkpt>
      <trkpt lat="44.64483" lon="4.25507">
        <ele>459</ele>
        <time>2019-12-22T13:20:58Z</time>
      </trkpt>
      <trkpt lat="44.64496" lon="4.25519">
        <ele>460</ele>
        <time>2019-12-22T13:21:01Z</time>
      </trkpt>
      <trkpt lat="44.64513" lon="4.25519">
        <ele>463</ele>
        <time>2019-12-22T13:21:04Z</time>
      </trkpt>
      <trkpt lat="44.64553" lon="4.25497">
        <ele>474</ele>
        <time>2019-12-22T13:21:12Z</time>
      </trkpt>
      <trkpt lat="44.64562" lon="4.25483">
        <ele>478</ele>
        <time>2019-12-22T13:21:14Z</time>
      </trkpt>
      <trkpt lat="44.64575" lon="4.25455">
        <ele>486</ele>
        <time>2019-12-22T13:21:18Z</time>
      </trkpt>
      <trkpt lat="44.6458" lon="4.2545">
        <ele>488</ele>
        <time>2019-12-22T13:21:19Z</time>
      </trkpt>
      <trkpt lat="44.64584" lon="4.25451">
        <ele>488</ele>
        <time>2019-12-22T13:21:20Z</time>
      </trkpt>
      <trkpt lat="44.64595" lon="4.25482">
        <ele>479</ele>
        <time>2019-12-22T13:21:25Z</time>
      </trkpt>
      <trkpt lat="44.64604" lon="4.25494">
        <ele>476</ele>
        <time>2019-12-22T13:21:27Z</time>
      </trkpt>
      <trkpt lat="44.6462" lon="4.255">
        <ele>473</ele>
        <time>2019-12-22T13:21:30Z</time>
      </trkpt>
      <trkpt lat="44.64637" lon="4.25495">
        <ele>473</ele>
        <time>2019-12-22T13:21:33Z</time>
      </trkpt>
      <trkpt lat="44.64647" lon="4.25482">
        <ele>475</ele>
        <time>2019-12-22T13:21:35Z</time>
      </trkpt>
      <trkpt lat="44.64671" lon="4.2544">
        <ele>482</ele>
        <time>2019-12-22T13:21:42Z</time>
      </trkpt>
      <trkpt lat="44.64678" lon="4.25396">
        <ele>491</ele>
        <time>2019-12-22T13:21:48Z</time>
      </trkpt>
      <trkpt lat="44.64685" lon="4.25367">
        <ele>496</ele>
        <time>2019-12-22T13:21:52Z</time>
      </trkpt>
      <trkpt lat="44.64695" lon="4.25346">
        <ele>500</ele>
        <time>2019-12-22T13:21:55Z</time>
      </trkpt>
      <trkpt lat="44.64704" lon="4.2534">
        <ele>499</ele>
        <time>2019-12-22T13:21:57Z</time>
      </trkpt>
      <trkpt lat="44.64737" lon="4.25341">
        <ele>492</ele>
        <time>2019-12-22T13:22:02Z</time>
      </trkpt>
      <trkpt lat="44.64753" lon="4.2531">
        <ele>498</ele>
        <time>2019-12-22T13:22:07Z</time>
      </trkpt>
      <trkpt lat="44.64775" lon="4.25258">
        <ele>503</ele>
        <time>2019-12-22T13:22:15Z</time>
      </trkpt>
      <trkpt lat="44.64826" lon="4.25109">
        <ele>513</ele>
        <time>2019-12-22T13:22:36Z</time>
      </trkpt>
      <trkpt lat="44.64858" lon="4.25092">
        <ele>508</ele>
        <time>2019-12-22T13:22:42Z</time>
      </trkpt>
      <trkpt lat="44.64862" lon="4.25077">
        <ele>511</ele>
        <time>2019-12-22T13:22:44Z</time>
      </trkpt>
      <trkpt lat="44.64863" lon="4.25052">
        <ele>516</ele>
        <time>2019-12-22T13:22:47Z</time>
      </trkpt>
      <trkpt lat="44.64872" lon="4.25021">
        <ele>519</ele>
        <time>2019-12-22T13:22:51Z</time>
      </trkpt>
      <trkpt lat="44.64886" lon="4.2499">
        <ele>520</ele>
        <time>2019-12-22T13:22:56Z</time>
      </trkpt>
      <trkpt lat="44.64904" lon="4.24961">
        <ele>520</ele>
        <time>2019-12-22T13:23:01Z</time>
      </trkpt>
      <trkpt lat="44.64914" lon="4.24953">
        <ele>518</ele>
        <time>2019-12-22T13:23:03Z</time>
      </trkpt>
      <trkpt lat="44.6496" lon="4.24948">
        <ele>523</ele>
        <time>2019-12-22T13:23:11Z</time>
      </trkpt>
      <trkpt lat="44.64962" lon="4.24952">
        <ele>523</ele>
        <time>2019-12-22T13:23:12Z</time>
      </trkpt>
      <trkpt lat="44.64965" lon="4.24966">
        <ele>522</ele>
        <time>2019-12-22T13:23:14Z</time>
      </trkpt>
      <trkpt lat="44.64947" lon="4.25011">
        <ele>512</ele>
        <time>2019-12-22T13:23:20Z</time>
      </trkpt>
      <trkpt lat="44.64945" lon="4.25036">
        <ele>510</ele>
        <time>2019-12-22T13:23:23Z</time>
      </trkpt>
      <trkpt lat="44.64946" lon="4.25093">
        <ele>506</ele>
        <time>2019-12-22T13:23:31Z</time>
      </trkpt>
      <trkpt lat="44.6495" lon="4.25133">
        <ele>505</ele>
        <time>2019-12-22T13:23:36Z</time>
      </trkpt>
      <trkpt lat="44.64952" lon="4.25138">
        <ele>505</ele>
        <time>2019-12-22T13:23:36Z</time>
      </trkpt>
      <trkpt lat="44.64982" lon="4.25147">
        <ele>519</ele>
        <time>2019-12-22T13:23:42Z</time>
      </trkpt>
      <trkpt lat="44.64986" lon="4.25154">
        <ele>520</ele>
        <time>2019-12-22T13:23:43Z</time>
      </trkpt>
      <trkpt lat="44.64985" lon="4.25168">
        <ele>519</ele>
        <time>2019-12-22T13:23:45Z</time>
      </trkpt>
      <trkpt lat="44.64958" lon="4.25238">
        <ele>511</ele>
        <time>2019-12-22T13:23:55Z</time>
      </trkpt>
      <trkpt lat="44.64948" lon="4.25254">
        <ele>508</ele>
        <time>2019-12-22T13:23:58Z</time>
      </trkpt>
      <trkpt lat="44.64937" lon="4.25284">
        <ele>504</ele>
        <time>2019-12-22T13:24:02Z</time>
      </trkpt>
      <trkpt lat="44.64935" lon="4.25296">
        <ele>504</ele>
        <time>2019-12-22T13:24:03Z</time>
      </trkpt>
      <trkpt lat="44.64937" lon="4.25306">
        <ele>505</ele>
        <time>2019-12-22T13:24:05Z</time>
      </trkpt>
      <trkpt lat="44.64962" lon="4.25356">
        <ele>515</ele>
        <time>2019-12-22T13:24:12Z</time>
      </trkpt>
      <trkpt lat="44.64977" lon="4.25396">
        <ele>516</ele>
        <time>2019-12-22T13:24:18Z</time>
      </trkpt>
      <trkpt lat="44.64983" lon="4.25403">
        <ele>518</ele>
        <time>2019-12-22T13:24:20Z</time>
      </trkpt>
      <trkpt lat="44.64989" lon="4.25405">
        <ele>520</ele>
        <time>2019-12-22T13:24:21Z</time>
      </trkpt>
      <trkpt lat="44.65004" lon="4.25401">
        <ele>527</ele>
        <time>2019-12-22T13:24:23Z</time>
      </trkpt>
      <trkpt lat="44.65011" lon="4.25402">
        <ele>529</ele>
        <time>2019-12-22T13:24:25Z</time>
      </trkpt>
      <trkpt lat="44.65015" lon="4.25407">
        <ele>530</ele>
        <time>2019-12-22T13:24:26Z</time>
      </trkpt>
      <trkpt lat="44.65016" lon="4.25416">
        <ele>529</ele>
        <time>2019-12-22T13:24:27Z</time>
      </trkpt>
      <trkpt lat="44.6499" lon="4.25506">
        <ele>524</ele>
        <time>2019-12-22T13:24:39Z</time>
      </trkpt>
      <trkpt lat="44.64988" lon="4.2553">
        <ele>524</ele>
        <time>2019-12-22T13:24:42Z</time>
      </trkpt>
      <trkpt lat="44.64991" lon="4.25553">
        <ele>526</ele>
        <time>2019-12-22T13:24:45Z</time>
      </trkpt>
      <trkpt lat="44.64998" lon="4.2557">
        <ele>529</ele>
        <time>2019-12-22T13:24:48Z</time>
      </trkpt>
      <trkpt lat="44.65016" lon="4.25586">
        <ele>535</ele>
        <time>2019-12-22T13:24:51Z</time>
      </trkpt>
      <trkpt lat="44.65023" lon="4.25598">
        <ele>537</ele>
        <time>2019-12-22T13:24:53Z</time>
      </trkpt>
      <trkpt lat="44.65028" lon="4.25616">
        <ele>538</ele>
        <time>2019-12-22T13:24:56Z</time>
      </trkpt>
      <trkpt lat="44.65027" lon="4.25654">
        <ele>536</ele>
        <time>2019-12-22T13:25:01Z</time>
      </trkpt>
      <trkpt lat="44.65029" lon="4.25674">
        <ele>536</ele>
        <time>2019-12-22T13:25:03Z</time>
      </trkpt>
      <trkpt lat="44.65032" lon="4.25683">
        <ele>536</ele>
        <time>2019-12-22T13:25:04Z</time>
      </trkpt>
      <trkpt lat="44.65036" lon="4.25691">
        <ele>536</ele>
        <time>2019-12-22T13:25:06Z</time>
      </trkpt>
      <trkpt lat="44.65047" lon="4.25698">
        <ele>538</ele>
        <time>2019-12-22T13:25:08Z</time>
      </trkpt>
      <trkpt lat="44.65059" lon="4.25697">
        <ele>540</ele>
        <time>2019-12-22T13:25:10Z</time>
      </trkpt>
      <trkpt lat="44.65078" lon="4.2569">
        <ele>545</ele>
        <time>2019-12-22T13:25:13Z</time>
      </trkpt>
      <trkpt lat="44.65099" lon="4.25672">
        <ele>553</ele>
        <time>2019-12-22T13:25:18Z</time>
      </trkpt>
      <trkpt lat="44.65107" lon="4.25674">
        <ele>554</ele>
        <time>2019-12-22T13:25:19Z</time>
      </trkpt>
      <trkpt lat="44.65113" lon="4.25683">
        <ele>555</ele>
        <time>2019-12-22T13:25:21Z</time>
      </trkpt>
      <trkpt lat="44.65127" lon="4.25722">
        <ele>553</ele>
        <time>2019-12-22T13:25:26Z</time>
      </trkpt>
      <trkpt lat="44.65129" lon="4.25757">
        <ele>549</ele>
        <time>2019-12-22T13:25:31Z</time>
      </trkpt>
      <trkpt lat="44.65132" lon="4.25772">
        <ele>547</ele>
        <time>2019-12-22T13:25:33Z</time>
      </trkpt>
      <trkpt lat="44.65138" lon="4.25786">
        <ele>547</ele>
        <time>2019-12-22T13:25:35Z</time>
      </trkpt>
      <trkpt lat="44.65153" lon="4.25806">
        <ele>548</ele>
        <time>2019-12-22T13:25:38Z</time>
      </trkpt>
      <trkpt lat="44.65185" lon="4.25824">
        <ele>551</ele>
        <time>2019-12-22T13:25:45Z</time>
      </trkpt>
      <trkpt lat="44.65216" lon="4.2583">
        <ele>555</ele>
        <time>2019-12-22T13:25:50Z</time>
      </trkpt>
      <trkpt lat="44.65239" lon="4.2584">
        <ele>556</ele>
        <time>2019-12-22T13:25:54Z</time>
      </trkpt>
      <trkpt lat="44.65244" lon="4.2584">
        <ele>556</ele>
        <time>2019-12-22T13:25:55Z</time>
      </trkpt>
      <trkpt lat="44.65246" lon="4.25832">
        <ele>559</ele>
        <time>2019-12-22T13:25:56Z</time>
      </trkpt>
      <trkpt lat="44.65244" lon="4.2583">
        <ele>559</ele>
        <time>2019-12-22T13:25:57Z</time>
      </trkpt>
      <trkpt lat="44.65209" lon="4.25809">
        <ele>559</ele>
        <time>2019-12-22T13:26:04Z</time>
      </trkpt>
      <trkpt lat="44.65189" lon="4.25804">
        <ele>556</ele>
        <time>2019-12-22T13:26:07Z</time>
      </trkpt>
      <trkpt lat="44.65183" lon="4.25796">
        <ele>557</ele>
        <time>2019-12-22T13:26:09Z</time>
      </trkpt>
      <trkpt lat="44.65177" lon="4.25766">
        <ele>561</ele>
        <time>2019-12-22T13:26:13Z</time>
      </trkpt>
      <trkpt lat="44.65178" lon="4.25748">
        <ele>564</ele>
        <time>2019-12-22T13:26:15Z</time>
      </trkpt>
      <trkpt lat="44.65176" lon="4.25719">
        <ele>567</ele>
        <time>2019-12-22T13:26:19Z</time>
      </trkpt>
      <trkpt lat="44.65166" lon="4.25682">
        <ele>567</ele>
        <time>2019-12-22T13:26:24Z</time>
      </trkpt>
      <trkpt lat="44.65166" lon="4.25667">
        <ele>569</ele>
        <time>2019-12-22T13:26:26Z</time>
      </trkpt>
      <trkpt lat="44.65169" lon="4.25636">
        <ele>574</ele>
        <time>2019-12-22T13:26:30Z</time>
      </trkpt>
      <trkpt lat="44.65169" lon="4.25611">
        <ele>578</ele>
        <time>2019-12-22T13:26:33Z</time>
      </trkpt>
      <trkpt lat="44.65167" lon="4.25602">
        <ele>578</ele>
        <time>2019-12-22T13:26:34Z</time>
      </trkpt>
      <trkpt lat="44.65163" lon="4.25597">
        <ele>578</ele>
        <time>2019-12-22T13:26:35Z</time>
      </trkpt>
      <trkpt lat="44.65151" lon="4.25593">
        <ele>575</ele>
        <time>2019-12-22T13:26:37Z</time>
      </trkpt>
      <trkpt lat="44.65141" lon="4.25587">
        <ele>573</ele>
        <time>2019-12-22T13:26:39Z</time>
      </trkpt>
      <trkpt lat="44.65134" lon="4.25573">
        <ele>572</ele>
        <time>2019-12-22T13:26:41Z</time>
      </trkpt>
      <trkpt lat="44.65132" lon="4.25548">
        <ele>572</ele>
        <time>2019-12-22T13:26:44Z</time>
      </trkpt>
      <trkpt lat="44.65134" lon="4.25529">
        <ele>573</ele>
        <time>2019-12-22T13:26:47Z</time>
      </trkpt>
      <trkpt lat="44.65142" lon="4.25499">
        <ele>577</ele>
        <time>2019-12-22T13:26:51Z</time>
      </trkpt>
      <trkpt lat="44.65199" lon="4.2539">
        <ele>593</ele>
        <time>2019-12-22T13:27:08Z</time>
      </trkpt>
      <trkpt lat="44.65211" lon="4.25348">
        <ele>600</ele>
        <time>2019-12-22T13:27:14Z</time>
      </trkpt>
      <trkpt lat="44.6521" lon="4.25335">
        <ele>600</ele>
        <time>2019-12-22T13:27:15Z</time>
      </trkpt>
      <trkpt lat="44.65204" lon="4.25325">
        <ele>600</ele>
        <time>2019-12-22T13:27:17Z</time>
      </trkpt>
      <trkpt lat="44.65194" lon="4.25318">
        <ele>598</ele>
        <time>2019-12-22T13:27:19Z</time>
      </trkpt>
      <trkpt lat="44.65173" lon="4.25313">
        <ele>593</ele>
        <time>2019-12-22T13:27:23Z</time>
      </trkpt>
      <trkpt lat="44.65166" lon="4.25307">
        <ele>592</ele>
        <time>2019-12-22T13:27:24Z</time>
      </trkpt>
      <trkpt lat="44.6515" lon="4.25282">
        <ele>592</ele>
        <time>2019-12-22T13:27:28Z</time>
      </trkpt>
      <trkpt lat="44.65139" lon="4.25251">
        <ele>595</ele>
        <time>2019-12-22T13:27:33Z</time>
      </trkpt>
      <trkpt lat="44.65138" lon="4.25242">
        <ele>594</ele>
        <time>2019-12-22T13:27:34Z</time>
      </trkpt>
      <trkpt lat="44.65139" lon="4.25234">
        <ele>594</ele>
        <time>2019-12-22T13:27:35Z</time>
      </trkpt>
      <trkpt lat="44.65143" lon="4.25231">
        <ele>595</ele>
        <time>2019-12-22T13:27:36Z</time>
      </trkpt>
      <trkpt lat="44.65147" lon="4.25234">
        <ele>597</ele>
        <time>2019-12-22T13:27:37Z</time>
      </trkpt>
      <trkpt lat="44.65151" lon="4.25256">
        <ele>598</ele>
        <time>2019-12-22T13:27:40Z</time>
      </trkpt>
      <trkpt lat="44.65171" lon="4.25286">
        <ele>598</ele>
        <time>2019-12-22T13:27:45Z</time>
      </trkpt>
      <trkpt lat="44.65211" lon="4.25296">
        <ele>609</ele>
        <time>2019-12-22T13:27:52Z</time>
      </trkpt>
      <trkpt lat="44.65238" lon="4.25309">
        <ele>615</ele>
        <time>2019-12-22T13:27:57Z</time>
      </trkpt>
      <trkpt lat="44.65244" lon="4.25334">
        <ele>611</ele>
        <time>2019-12-22T13:28:00Z</time>
      </trkpt>
      <trkpt lat="44.65245" lon="4.25374">
        <ele>610</ele>
        <time>2019-12-22T13:28:05Z</time>
      </trkpt>
      <trkpt lat="44.65255" lon="4.2551">
        <ele>612</ele>
        <time>2019-12-22T13:28:23Z</time>
      </trkpt>
      <trkpt lat="44.65262" lon="4.25527">
        <ele>611</ele>
        <time>2019-12-22T13:28:25Z</time>
      </trkpt>
      <trkpt lat="44.65274" lon="4.25539">
        <ele>612</ele>
        <time>2019-12-22T13:28:28Z</time>
      </trkpt>
      <trkpt lat="44.65291" lon="4.25539">
        <ele>614</ele>
        <time>2019-12-22T13:28:31Z</time>
      </trkpt>
      <trkpt lat="44.65308" lon="4.25525">
        <ele>616</ele>
        <time>2019-12-22T13:28:34Z</time>
      </trkpt>
      <trkpt lat="44.65347" lon="4.25395">
        <ele>623</ele>
        <time>2019-12-22T13:28:52Z</time>
      </trkpt>
      <trkpt lat="44.65357" lon="4.25347">
        <ele>622</ele>
        <time>2019-12-22T13:28:59Z</time>
      </trkpt>
      <trkpt lat="44.65354" lon="4.25277">
        <ele>630</ele>
        <time>2019-12-22T13:29:07Z</time>
      </trkpt>
      <trkpt lat="44.65364" lon="4.25201">
        <ele>636</ele>
        <time>2019-12-22T13:29:17Z</time>
      </trkpt>
      <trkpt lat="44.65393" lon="4.25155">
        <ele>635</ele>
        <time>2019-12-22T13:29:25Z</time>
      </trkpt>
      <trkpt lat="44.65421" lon="4.25125">
        <ele>635</ele>
        <time>2019-12-22T13:29:31Z</time>
      </trkpt>
      <trkpt lat="44.65455" lon="4.25102">
        <ele>633</ele>
        <time>2019-12-22T13:29:38Z</time>
      </trkpt>
      <trkpt lat="44.65468" lon="4.25087">
        <ele>635</ele>
        <time>2019-12-22T13:29:41Z</time>
      </trkpt>
      <trkpt lat="44.65518" lon="4.25076">
        <ele>631</ele>
        <time>2019-12-22T13:29:50Z</time>
      </trkpt>
      <trkpt lat="44.6554" lon="4.25056">
        <ele>636</ele>
        <time>2019-12-22T13:29:55Z</time>
      </trkpt>
      <trkpt lat="44.65546" lon="4.25032">
        <ele>641</ele>
        <time>2019-12-22T13:29:58Z</time>
      </trkpt>
      <trkpt lat="44.65553" lon="4.2502">
        <ele>643</ele>
        <time>2019-12-22T13:30:00Z</time>
      </trkpt>
      <trkpt lat="44.65566" lon="4.25018">
        <ele>643</ele>
        <time>2019-12-22T13:30:02Z</time>
      </trkpt>
      <trkpt lat="44.65572" lon="4.25028">
        <ele>640</ele>
        <time>2019-12-22T13:30:04Z</time>
      </trkpt>
      <trkpt lat="44.65588" lon="4.25104">
        <ele>630</ele>
        <time>2019-12-22T13:30:14Z</time>
      </trkpt>
      <trkpt lat="44.65593" lon="4.25141">
        <ele>627</ele>
        <time>2019-12-22T13:30:19Z</time>
      </trkpt>
      <trkpt lat="44.65589" lon="4.25161">
        <ele>623</ele>
        <time>2019-12-22T13:30:21Z</time>
      </trkpt>
      <trkpt lat="44.65592" lon="4.25176">
        <ele>622</ele>
        <time>2019-12-22T13:30:23Z</time>
      </trkpt>
      <trkpt lat="44.65605" lon="4.25201">
        <ele>625</ele>
        <time>2019-12-22T13:30:27Z</time>
      </trkpt>
      <trkpt lat="44.65606" lon="4.25257">
        <ele>619</ele>
        <time>2019-12-22T13:30:34Z</time>
      </trkpt>
      <trkpt lat="44.65617" lon="4.25331">
        <ele>618</ele>
        <time>2019-12-22T13:30:44Z</time>
      </trkpt>
      <trkpt lat="44.65619" lon="4.25377">
        <ele>612</ele>
        <time>2019-12-22T13:30:50Z</time>
      </trkpt>
      <trkpt lat="44.65631" lon="4.25437">
        <ele>605</ele>
        <time>2019-12-22T13:30:58Z</time>
      </trkpt>
      <trkpt lat="44.65639" lon="4.25455">
        <ele>602</ele>
        <time>2019-12-22T13:31:00Z</time>
      </trkpt>
      <trkpt lat="44.65651" lon="4.25467">
        <ele>602</ele>
        <time>2019-12-22T13:31:03Z</time>
      </trkpt>
      <trkpt lat="44.65679" lon="4.25481">
        <ele>597</ele>
        <time>2019-12-22T13:31:08Z</time>
      </trkpt>
      <trkpt lat="44.65689" lon="4.2548">
        <ele>595</ele>
        <time>2019-12-22T13:31:10Z</time>
      </trkpt>
      <trkpt lat="44.65696" lon="4.25473">
        <ele>596</ele>
        <time>2019-12-22T13:31:11Z</time>
      </trkpt>
      <trkpt lat="44.65727" lon="4.25419">
        <ele>608</ele>
        <time>2019-12-22T13:31:20Z</time>
      </trkpt>
      <trkpt lat="44.65768" lon="4.25373">
        <ele>615</ele>
        <time>2019-12-22T13:31:30Z</time>
      </trkpt>
      <trkpt lat="44.65807" lon="4.25335">
        <ele>616</ele>
        <time>2019-12-22T13:31:38Z</time>
      </trkpt>
      <trkpt lat="44.65881" lon="4.25293">
        <ele>620</ele>
        <time>2019-12-22T13:31:52Z</time>
      </trkpt>
      <trkpt lat="44.65892" lon="4.25291">
        <ele>620</ele>
        <time>2019-12-22T13:31:54Z</time>
      </trkpt>
      <trkpt lat="44.65901" lon="4.25295">
        <ele>619</ele>
        <time>2019-12-22T13:31:56Z</time>
      </trkpt>
      <trkpt lat="44.65905" lon="4.25302">
        <ele>618</ele>
        <time>2019-12-22T13:31:57Z</time>
      </trkpt>
      <trkpt lat="44.65911" lon="4.25342">
        <ele>613</ele>
        <time>2019-12-22T13:32:02Z</time>
      </trkpt>
      <trkpt lat="44.65898" lon="4.2545">
        <ele>602</ele>
        <time>2019-12-22T13:32:16Z</time>
      </trkpt>
      <trkpt lat="44.6589" lon="4.25503">
        <ele>594</ele>
        <time>2019-12-22T13:32:23Z</time>
      </trkpt>
      <trkpt lat="44.65886" lon="4.25615">
        <ele>581</ele>
        <time>2019-12-22T13:32:37Z</time>
      </trkpt>
      <trkpt lat="44.65888" lon="4.25631">
        <ele>580</ele>
        <time>2019-12-22T13:32:39Z</time>
      </trkpt>
      <trkpt lat="44.65893" lon="4.25642">
        <ele>580</ele>
        <time>2019-12-22T13:32:41Z</time>
      </trkpt>
      <trkpt lat="44.65899" lon="4.25649">
        <ele>582</ele>
        <time>2019-12-22T13:32:42Z</time>
      </trkpt>
      <trkpt lat="44.65907" lon="4.25655">
        <ele>585</ele>
        <time>2019-12-22T13:32:44Z</time>
      </trkpt>
      <trkpt lat="44.65931" lon="4.25657">
        <ele>594</ele>
        <time>2019-12-22T13:32:48Z</time>
      </trkpt>
      <trkpt lat="44.65935" lon="4.2566">
        <ele>595</ele>
        <time>2019-12-22T13:32:49Z</time>
      </trkpt>
      <trkpt lat="44.65935" lon="4.25663">
        <ele>594</ele>
        <time>2019-12-22T13:32:49Z</time>
      </trkpt>
      <trkpt lat="44.65923" lon="4.25711">
        <ele>586</ele>
        <time>2019-12-22T13:32:56Z</time>
      </trkpt>
      <trkpt lat="44.65919" lon="4.25718">
        <ele>584</ele>
        <time>2019-12-22T13:32:57Z</time>
      </trkpt>
      <trkpt lat="44.65914" lon="4.25766">
        <ele>578</ele>
        <time>2019-12-22T13:33:03Z</time>
      </trkpt>
      <trkpt lat="44.65929" lon="4.25894">
        <ele>569</ele>
        <time>2019-12-22T13:33:19Z</time>
      </trkpt>
      <trkpt lat="44.65931" lon="4.25954">
        <ele>563</ele>
        <time>2019-12-22T13:33:27Z</time>
      </trkpt>
      <trkpt lat="44.65935" lon="4.25966">
        <ele>561</ele>
        <time>2019-12-22T13:33:29Z</time>
      </trkpt>
      <trkpt lat="44.65939" lon="4.25971">
        <ele>561</ele>
        <time>2019-12-22T13:33:30Z</time>
      </trkpt>
      <trkpt lat="44.65948" lon="4.25975">
        <ele>560</ele>
        <time>2019-12-22T13:33:31Z</time>
      </trkpt>
      <trkpt lat="44.65958" lon="4.25976">
        <ele>560</ele>
        <time>2019-12-22T13:33:33Z</time>
      </trkpt>
      <trkpt lat="44.65969" lon="4.25973">
        <ele>560</ele>
        <time>2019-12-22T13:33:35Z</time>
      </trkpt>
      <trkpt lat="44.65977" lon="4.25968">
        <ele>561</ele>
        <time>2019-12-22T13:33:37Z</time>
      </trkpt>
      <trkpt lat="44.65982" lon="4.25957">
        <ele>562</ele>
        <time>2019-12-22T13:33:38Z</time>
      </trkpt>
      <trkpt lat="44.66007" lon="4.25891">
        <ele>570</ele>
        <time>2019-12-22T13:33:48Z</time>
      </trkpt>
      <trkpt lat="44.66016" lon="4.25873">
        <ele>573</ele>
        <time>2019-12-22T13:33:50Z</time>
      </trkpt>
      <trkpt lat="44.66027" lon="4.25862">
        <ele>573</ele>
        <time>2019-12-22T13:33:53Z</time>
      </trkpt>
      <trkpt lat="44.66038" lon="4.25856">
        <ele>573</ele>
        <time>2019-12-22T13:33:55Z</time>
      </trkpt>
      <trkpt lat="44.66048" lon="4.25854">
        <ele>572</ele>
        <time>2019-12-22T13:33:57Z</time>
      </trkpt>
      <trkpt lat="44.6606" lon="4.25856">
        <ele>571</ele>
        <time>2019-12-22T13:33:59Z</time>
      </trkpt>
      <trkpt lat="44.6607" lon="4.25862">
        <ele>568</ele>
        <time>2019-12-22T13:34:01Z</time>
      </trkpt>
      <trkpt lat="44.66082" lon="4.25874">
        <ele>565</ele>
        <time>2019-12-22T13:34:03Z</time>
      </trkpt>
      <trkpt lat="44.6609" lon="4.25886">
        <ele>565</ele>
        <time>2019-12-22T13:34:06Z</time>
      </trkpt>
      <trkpt lat="44.66093" lon="4.25898">
        <ele>564</ele>
        <time>2019-12-22T13:34:07Z</time>
      </trkpt>
      <trkpt lat="44.66093" lon="4.25916">
        <ele>561</ele>
        <time>2019-12-22T13:34:09Z</time>
      </trkpt>
      <trkpt lat="44.66089" lon="4.25941">
        <ele>559</ele>
        <time>2019-12-22T13:34:13Z</time>
      </trkpt>
      <trkpt lat="44.66081" lon="4.26017">
        <ele>555</ele>
        <time>2019-12-22T13:34:22Z</time>
      </trkpt>
      <trkpt lat="44.6607" lon="4.26052">
        <ele>553</ele>
        <time>2019-12-22T13:34:27Z</time>
      </trkpt>
      <trkpt lat="44.6605" lon="4.26091">
        <ele>546</ele>
        <time>2019-12-22T13:34:33Z</time>
      </trkpt>
      <trkpt lat="44.66044" lon="4.26116">
        <ele>540</ele>
        <time>2019-12-22T13:34:37Z</time>
      </trkpt>
      <trkpt lat="44.66043" lon="4.2613">
        <ele>536</ele>
        <time>2019-12-22T13:34:38Z</time>
      </trkpt>
      <trkpt lat="44.66045" lon="4.26144">
        <ele>534</ele>
        <time>2019-12-22T13:34:40Z</time>
      </trkpt>
      <trkpt lat="44.66053" lon="4.26154">
        <ele>534</ele>
        <time>2019-12-22T13:34:42Z</time>
      </trkpt>
      <trkpt lat="44.66068" lon="4.26167">
        <ele>535</ele>
        <time>2019-12-22T13:34:45Z</time>
      </trkpt>
      <trkpt lat="44.66089" lon="4.26177">
        <ele>537</ele>
        <time>2019-12-22T13:34:49Z</time>
      </trkpt>
      <trkpt lat="44.66107" lon="4.26182">
        <ele>536</ele>
        <time>2019-12-22T13:34:53Z</time>
      </trkpt>
      <trkpt lat="44.66123" lon="4.26182">
        <ele>537</ele>
        <time>2019-12-22T13:34:55Z</time>
      </trkpt>
      <trkpt lat="44.66132" lon="4.26178">
        <ele>538</ele>
        <time>2019-12-22T13:34:57Z</time>
      </trkpt>
      <trkpt lat="44.66142" lon="4.26169">
        <ele>540</ele>
        <time>2019-12-22T13:34:59Z</time>
      </trkpt>
      <trkpt lat="44.6619" lon="4.26115">
        <ele>554</ele>
        <time>2019-12-22T13:35:10Z</time>
      </trkpt>
      <trkpt lat="44.66204" lon="4.26107">
        <ele>556</ele>
        <time>2019-12-22T13:35:13Z</time>
      </trkpt>
      <trkpt lat="44.66212" lon="4.26112">
        <ele>555</ele>
        <time>2019-12-22T13:35:14Z</time>
      </trkpt>
      <trkpt lat="44.66216" lon="4.26117">
        <ele>555</ele>
        <time>2019-12-22T13:35:15Z</time>
      </trkpt>
      <trkpt lat="44.66219" lon="4.2613">
        <ele>553</ele>
        <time>2019-12-22T13:35:17Z</time>
      </trkpt>
      <trkpt lat="44.66221" lon="4.2616">
        <ele>549</ele>
        <time>2019-12-22T13:35:21Z</time>
      </trkpt>
      <trkpt lat="44.66233" lon="4.26202">
        <ele>542</ele>
        <time>2019-12-22T13:35:27Z</time>
      </trkpt>
      <trkpt lat="44.66241" lon="4.26221">
        <ele>540</ele>
        <time>2019-12-22T13:35:29Z</time>
      </trkpt>
      <trkpt lat="44.6625" lon="4.26229">
        <ele>539</ele>
        <time>2019-12-22T13:35:31Z</time>
      </trkpt>
      <trkpt lat="44.66262" lon="4.26233">
        <ele>537</ele>
        <time>2019-12-22T13:35:33Z</time>
      </trkpt>
      <trkpt lat="44.66278" lon="4.2623">
        <ele>536</ele>
        <time>2019-12-22T13:35:36Z</time>
      </trkpt>
      <trkpt lat="44.66314" lon="4.2621">
        <ele>538</ele>
        <time>2019-12-22T13:35:43Z</time>
      </trkpt>
      <trkpt lat="44.66427" lon="4.26111">
        <ele>540</ele>
        <time>2019-12-22T13:36:07Z</time>
      </trkpt>
      <trkpt lat="44.66452" lon="4.26078">
        <ele>542</ele>
        <time>2019-12-22T13:36:13Z</time>
      </trkpt>
      <trkpt lat="44.66523" lon="4.25995">
        <ele>545</ele>
        <time>2019-12-22T13:36:29Z</time>
      </trkpt>
      <trkpt lat="44.66552" lon="4.25954">
        <ele>548</ele>
        <time>2019-12-22T13:36:37Z</time>
      </trkpt>
      <trkpt lat="44.66565" lon="4.25944">
        <ele>546</ele>
        <time>2019-12-22T13:36:39Z</time>
      </trkpt>
      <trkpt lat="44.6658" lon="4.25939">
        <ele>542</ele>
        <time>2019-12-22T13:36:42Z</time>
      </trkpt>
      <trkpt lat="44.66627" lon="4.25948">
        <ele>532</ele>
        <time>2019-12-22T13:36:51Z</time>
      </trkpt>
      <trkpt lat="44.66646" lon="4.25968">
        <ele>527</ele>
        <time>2019-12-22T13:36:55Z</time>
      </trkpt>
      <trkpt lat="44.6666" lon="4.26032">
        <ele>519</ele>
        <time>2019-12-22T13:37:03Z</time>
      </trkpt>
      <trkpt lat="44.66665" lon="4.26084">
        <ele>515</ele>
        <time>2019-12-22T13:37:10Z</time>
      </trkpt>
      <trkpt lat="44.66693" lon="4.26215">
        <ele>500</ele>
        <time>2019-12-22T13:37:27Z</time>
      </trkpt>
      <trkpt lat="44.66697" lon="4.26223">
        <ele>500</ele>
        <time>2019-12-22T13:37:28Z</time>
      </trkpt>
      <trkpt lat="44.66701" lon="4.26227">
        <ele>500</ele>
        <time>2019-12-22T13:37:29Z</time>
      </trkpt>
      <trkpt lat="44.66708" lon="4.26226">
        <ele>500</ele>
        <time>2019-12-22T13:37:31Z</time>
      </trkpt>
      <trkpt lat="44.66744" lon="4.26215">
        <ele>505</ele>
        <time>2019-12-22T13:37:37Z</time>
      </trkpt>
      <trkpt lat="44.66755" lon="4.26195">
        <ele>505</ele>
        <time>2019-12-22T13:37:40Z</time>
      </trkpt>
      <trkpt lat="44.6677" lon="4.26154">
        <ele>501</ele>
        <time>2019-12-22T13:37:46Z</time>
      </trkpt>
      <trkpt lat="44.66771" lon="4.26136">
        <ele>500</ele>
        <time>2019-12-22T13:37:48Z</time>
      </trkpt>
      <trkpt lat="44.66774" lon="4.26044">
        <ele>493</ele>
        <time>2019-12-22T13:38:00Z</time>
      </trkpt>
      <trkpt lat="44.66779" lon="4.26004">
        <ele>487</ele>
        <time>2019-12-22T13:38:05Z</time>
      </trkpt>
      <trkpt lat="44.66778" lon="4.25967">
        <ele>489</ele>
        <time>2019-12-22T13:38:10Z</time>
      </trkpt>
      <trkpt lat="44.66783" lon="4.25952">
        <ele>487</ele>
        <time>2019-12-22T13:38:12Z</time>
      </trkpt>
      <trkpt lat="44.66814" lon="4.25892">
        <ele>476</ele>
        <time>2019-12-22T13:38:21Z</time>
      </trkpt>
      <trkpt lat="44.66839" lon="4.25858">
        <ele>467</ele>
        <time>2019-12-22T13:38:28Z</time>
      </trkpt>
      <trkpt lat="44.66848" lon="4.25837">
        <ele>465</ele>
        <time>2019-12-22T13:38:31Z</time>
      </trkpt>
      <trkpt lat="44.66862" lon="4.25786">
        <ele>461</ele>
        <time>2019-12-22T13:38:38Z</time>
      </trkpt>
      <trkpt lat="44.66876" lon="4.25757">
        <ele>456</ele>
        <time>2019-12-22T13:38:42Z</time>
      </trkpt>
      <trkpt lat="44.6688" lon="4.25745">
        <ele>454</ele>
        <time>2019-12-22T13:38:44Z</time>
      </trkpt>
      <trkpt lat="44.66883" lon="4.25709">
        <ele>455</ele>
        <time>2019-12-22T13:38:48Z</time>
      </trkpt>
      <trkpt lat="44.66886" lon="4.25698">
        <ele>454</ele>
        <time>2019-12-22T13:38:50Z</time>
      </trkpt>
      <trkpt lat="44.66912" lon="4.25651">
        <ele>443</ele>
        <time>2019-12-22T13:38:57Z</time>
      </trkpt>
      <trkpt lat="44.66934" lon="4.25597">
        <ele>437</ele>
        <time>2019-12-22T13:39:05Z</time>
      </trkpt>
      <trkpt lat="44.6694" lon="4.25575">
        <ele>437</ele>
        <time>2019-12-22T13:39:08Z</time>
      </trkpt>
      <trkpt lat="44.66946" lon="4.25539">
        <ele>439</ele>
        <time>2019-12-22T13:39:13Z</time>
      </trkpt>
      <trkpt lat="44.6695" lon="4.25523">
        <ele>440</ele>
        <time>2019-12-22T13:39:15Z</time>
      </trkpt>
      <trkpt lat="44.66958" lon="4.2551">
        <ele>439</ele>
        <time>2019-12-22T13:39:17Z</time>
      </trkpt>
      <trkpt lat="44.66986" lon="4.25493">
        <ele>431</ele>
        <time>2019-12-22T13:39:23Z</time>
      </trkpt>
      <trkpt lat="44.66997" lon="4.2549">
        <ele>428</ele>
        <time>2019-12-22T13:39:25Z</time>
      </trkpt>
      <trkpt lat="44.67015" lon="4.25492">
        <ele>422</ele>
        <time>2019-12-22T13:39:28Z</time>
      </trkpt>
      <trkpt lat="44.67043" lon="4.2549">
        <ele>414</ele>
        <time>2019-12-22T13:39:33Z</time>
      </trkpt>
      <trkpt lat="44.6706" lon="4.2548">
        <ele>410</ele>
        <time>2019-12-22T13:39:36Z</time>
      </trkpt>
      <trkpt lat="44.67067" lon="4.25471">
        <ele>408</ele>
        <time>2019-12-22T13:39:38Z</time>
      </trkpt>
      <trkpt lat="44.67071" lon="4.25454">
        <ele>408</ele>
        <time>2019-12-22T13:39:40Z</time>
      </trkpt>
      <trkpt lat="44.67074" lon="4.2543">
        <ele>408</ele>
        <time>2019-12-22T13:39:43Z</time>
      </trkpt>
      <trkpt lat="44.67076" lon="4.2538">
        <ele>409</ele>
        <time>2019-12-22T13:39:49Z</time>
      </trkpt>
      <trkpt lat="44.67081" lon="4.25361">
        <ele>408</ele>
        <time>2019-12-22T13:39:52Z</time>
      </trkpt>
      <trkpt lat="44.6709" lon="4.2534">
        <ele>407</ele>
        <time>2019-12-22T13:39:55Z</time>
      </trkpt>
      <trkpt lat="44.671" lon="4.25322">
        <ele>409</ele>
        <time>2019-12-22T13:39:58Z</time>
      </trkpt>
      <trkpt lat="44.6711" lon="4.25312">
        <ele>410</ele>
        <time>2019-12-22T13:40:00Z</time>
      </trkpt>
      <trkpt lat="44.67132" lon="4.25303">
        <ele>408</ele>
        <time>2019-12-22T13:40:04Z</time>
      </trkpt>
      <trkpt lat="44.6715" lon="4.25297">
        <ele>406</ele>
        <time>2019-12-22T13:40:08Z</time>
      </trkpt>
      <trkpt lat="44.67171" lon="4.25298">
        <ele>402</ele>
        <time>2019-12-22T13:40:11Z</time>
      </trkpt>
      <trkpt lat="44.67185" lon="4.25314">
        <ele>398</ele>
        <time>2019-12-22T13:40:15Z</time>
      </trkpt>
      <trkpt lat="44.672" lon="4.25326">
        <ele>397</ele>
        <time>2019-12-22T13:40:18Z</time>
      </trkpt>
      <trkpt lat="44.6721" lon="4.25342">
        <ele>396</ele>
        <time>2019-12-22T13:40:20Z</time>
      </trkpt>
      <trkpt lat="44.67215" lon="4.25355">
        <ele>395</ele>
        <time>2019-12-22T13:40:22Z</time>
      </trkpt>
      <trkpt lat="44.67223" lon="4.25394">
        <ele>392</ele>
        <time>2019-12-22T13:40:27Z</time>
      </trkpt>
      <trkpt lat="44.67235" lon="4.25442">
        <ele>388</ele>
        <time>2019-12-22T13:40:34Z</time>
      </trkpt>
      <trkpt lat="44.67234" lon="4.25452">
        <ele>387</ele>
        <time>2019-12-22T13:40:35Z</time>
      </trkpt>
      <trkpt lat="44.67212" lon="4.25509">
        <ele>383</ele>
        <time>2019-12-22T13:40:43Z</time>
      </trkpt>
      <trkpt lat="44.67224" lon="4.25533">
        <ele>378</ele>
        <time>2019-12-22T13:40:47Z</time>
      </trkpt>
      <trkpt lat="44.67224" lon="4.25542">
        <ele>377</ele>
        <time>2019-12-22T13:40:48Z</time>
      </trkpt>
      <trkpt lat="44.67198" lon="4.25595">
        <ele>374</ele>
        <time>2019-12-22T13:40:56Z</time>
      </trkpt>
      <trkpt lat="44.6715" lon="4.25653">
        <ele>371</ele>
        <time>2019-12-22T13:41:07Z</time>
      </trkpt>
      <trkpt lat="44.67138" lon="4.25656">
        <ele>372</ele>
        <time>2019-12-22T13:41:10Z</time>
      </trkpt>
      <trkpt lat="44.67133" lon="4.25655">
        <ele>372</ele>
        <time>2019-12-22T13:41:11Z</time>
      </trkpt>
      <trkpt lat="44.67124" lon="4.25651">
        <ele>374</ele>
        <time>2019-12-22T13:41:12Z</time>
      </trkpt>
      <trkpt lat="44.6711" lon="4.2564">
        <ele>377</ele>
        <time>2019-12-22T13:41:15Z</time>
      </trkpt>
      <trkpt lat="44.67102" lon="4.2564">
        <ele>378</ele>
        <time>2019-12-22T13:41:17Z</time>
      </trkpt>
      <trkpt lat="44.67095" lon="4.25644">
        <ele>378</ele>
        <time>2019-12-22T13:41:18Z</time>
      </trkpt>
      <trkpt lat="44.6709" lon="4.25651">
        <ele>377</ele>
        <time>2019-12-22T13:41:19Z</time>
      </trkpt>
      <trkpt lat="44.67085" lon="4.25673">
        <ele>375</ele>
        <time>2019-12-22T13:41:22Z</time>
      </trkpt>
      <trkpt lat="44.67087" lon="4.25685">
        <ele>374</ele>
        <time>2019-12-22T13:41:24Z</time>
      </trkpt>
      <trkpt lat="44.67093" lon="4.25695">
        <ele>373</ele>
        <time>2019-12-22T13:41:25Z</time>
      </trkpt>
      <trkpt lat="44.67119" lon="4.25715">
        <ele>369</ele>
        <time>2019-12-22T13:41:31Z</time>
      </trkpt>
      <trkpt lat="44.67129" lon="4.25726">
        <ele>367</ele>
        <time>2019-12-22T13:41:33Z</time>
      </trkpt>
      <trkpt lat="44.67175" lon="4.25799">
        <ele>355</ele>
        <time>2019-12-22T13:41:45Z</time>
      </trkpt>
      <trkpt lat="44.6726" lon="4.25855">
        <ele>344</ele>
        <time>2019-12-22T13:42:02Z</time>
      </trkpt>
      <trkpt lat="44.67291" lon="4.25866">
        <ele>346</ele>
        <time>2019-12-22T13:42:08Z</time>
      </trkpt>
      <trkpt lat="44.67316" lon="4.25874">
        <ele>347</ele>
        <time>2019-12-22T13:42:12Z</time>
      </trkpt>
      <trkpt lat="44.67324" lon="4.25871">
        <ele>348</ele>
        <time>2019-12-22T13:42:14Z</time>
      </trkpt>
      <trkpt lat="44.67341" lon="4.25878">
        <ele>349</ele>
        <time>2019-12-22T13:42:17Z</time>
      </trkpt>
      <trkpt lat="44.67383" lon="4.25768">
        <ele>354</ele>
        <time>2019-12-22T13:42:33Z</time>
      </trkpt>
      <trkpt lat="44.67392" lon="4.25784">
        <ele>356</ele>
        <time>2019-12-22T13:42:35Z</time>
      </trkpt>
      <trkpt lat="44.67403" lon="4.25819">
        <ele>357</ele>
        <time>2019-12-22T13:42:40Z</time>
      </trkpt>
      <trkpt lat="44.67421" lon="4.25822">
        <ele>359</ele>
        <time>2019-12-22T13:42:43Z</time>
      </trkpt>
      <trkpt lat="44.67438" lon="4.25815">
        <ele>361</ele>
        <time>2019-12-22T13:42:46Z</time>
      </trkpt>
      <trkpt lat="44.67488" lon="4.25773">
        <ele>368</ele>
        <time>2019-12-22T13:42:57Z</time>
      </trkpt>
      <trkpt lat="44.67552" lon="4.25714">
        <ele>371</ele>
        <time>2019-12-22T13:43:10Z</time>
      </trkpt>
      <trkpt lat="44.67604" lon="4.25709">
        <ele>372</ele>
        <time>2019-12-22T13:43:20Z</time>
      </trkpt>
      <trkpt lat="44.67634" lon="4.25694">
        <ele>373</ele>
        <time>2019-12-22T13:43:25Z</time>
      </trkpt>
      <trkpt lat="44.67667" lon="4.25699">
        <ele>372</ele>
        <time>2019-12-22T13:43:31Z</time>
      </trkpt>
      <trkpt lat="44.67708" lon="4.25702">
        <ele>371</ele>
        <time>2019-12-22T13:43:38Z</time>
      </trkpt>
      <trkpt lat="44.67735" lon="4.25716">
        <ele>371</ele>
        <time>2019-12-22T13:43:44Z</time>
      </trkpt>
      <trkpt lat="44.67771" lon="4.25766">
        <ele>378</ele>
        <time>2019-12-22T13:43:53Z</time>
      </trkpt>
      <trkpt lat="44.67793" lon="4.25799">
        <ele>382</ele>
        <time>2019-12-22T13:43:58Z</time>
      </trkpt>
      <trkpt lat="44.6781" lon="4.25844">
        <ele>385</ele>
        <time>2019-12-22T13:44:05Z</time>
      </trkpt>
      <trkpt lat="44.67819" lon="4.25858">
        <ele>385</ele>
        <time>2019-12-22T13:44:07Z</time>
      </trkpt>
      <trkpt lat="44.67839" lon="4.25859">
        <ele>383</ele>
        <time>2019-12-22T13:44:11Z</time>
      </trkpt>
      <trkpt lat="44.67854" lon="4.25856">
        <ele>385</ele>
        <time>2019-12-22T13:44:13Z</time>
      </trkpt>
      <trkpt lat="44.6786" lon="4.25844">
        <ele>385</ele>
        <time>2019-12-22T13:44:15Z</time>
      </trkpt>
      <trkpt lat="44.67846" lon="4.25752">
        <ele>380</ele>
        <time>2019-12-22T13:44:27Z</time>
      </trkpt>
      <trkpt lat="44.67853" lon="4.25728">
        <ele>381</ele>
        <time>2019-12-22T13:44:30Z</time>
      </trkpt>
      <trkpt lat="44.67867" lon="4.25705">
        <ele>384</ele>
        <time>2019-12-22T13:44:34Z</time>
      </trkpt>
      <trkpt lat="44.67892" lon="4.25691">
        <ele>390</ele>
        <time>2019-12-22T13:44:39Z</time>
      </trkpt>
      <trkpt lat="44.67918" lon="4.25665">
        <ele>395</ele>
        <time>2019-12-22T13:44:45Z</time>
      </trkpt>
      <trkpt lat="44.67917" lon="4.25676">
        <ele>396</ele>
        <time>2019-12-22T13:44:46Z</time>
      </trkpt>
      <trkpt lat="44.67898" lon="4.25705">
        <ele>393</ele>
        <time>2019-12-22T13:44:51Z</time>
      </trkpt>
      <trkpt lat="44.67882" lon="4.25723">
        <ele>389</ele>
        <time>2019-12-22T13:44:55Z</time>
      </trkpt>
      <trkpt lat="44.67874" lon="4.25744">
        <ele>388</ele>
        <time>2019-12-22T13:44:58Z</time>
      </trkpt>
      <trkpt lat="44.6788" lon="4.2578">
        <ele>390</ele>
        <time>2019-12-22T13:45:02Z</time>
      </trkpt>
      <trkpt lat="44.67892" lon="4.25793">
        <ele>392</ele>
        <time>2019-12-22T13:45:05Z</time>
      </trkpt>
      <trkpt lat="44.67907" lon="4.25797">
        <ele>395</ele>
        <time>2019-12-22T13:45:08Z</time>
      </trkpt>
      <trkpt lat="44.67916" lon="4.25806">
        <ele>396</ele>
        <time>2019-12-22T13:45:10Z</time>
      </trkpt>
      <trkpt lat="44.67953" lon="4.25901">
        <ele>402</ele>
        <time>2019-12-22T13:45:24Z</time>
      </trkpt>
      <trkpt lat="44.67974" lon="4.25936">
        <ele>407</ele>
        <time>2019-12-22T13:45:29Z</time>
      </trkpt>
      <trkpt lat="44.67999" lon="4.25967">
        <ele>412</ele>
        <time>2019-12-22T13:45:35Z</time>
      </trkpt>
      <trkpt lat="44.68008" lon="4.25985">
        <ele>414</ele>
        <time>2019-12-22T13:45:38Z</time>
      </trkpt>
      <trkpt lat="44.67997" lon="4.25997">
        <ele>411</ele>
        <time>2019-12-22T13:45:41Z</time>
      </trkpt>
      <trkpt lat="44.67985" lon="4.25997">
        <ele>409</ele>
        <time>2019-12-22T13:45:43Z</time>
      </trkpt>
      <trkpt lat="44.67965" lon="4.26006">
        <ele>409</ele>
        <time>2019-12-22T13:45:46Z</time>
      </trkpt>
      <trkpt lat="44.67942" lon="4.26043">
        <ele>417</ele>
        <time>2019-12-22T13:45:53Z</time>
      </trkpt>
      <trkpt lat="44.67921" lon="4.26094">
        <ele>427</ele>
        <time>2019-12-22T13:46:00Z</time>
      </trkpt>
      <trkpt lat="44.67908" lon="4.26101">
        <ele>429</ele>
        <time>2019-12-22T13:46:03Z</time>
      </trkpt>
      <trkpt lat="44.67894" lon="4.26069">
        <ele>422</ele>
        <time>2019-12-22T13:46:07Z</time>
      </trkpt>
      <trkpt lat="44.67883" lon="4.26024">
        <ele>412</ele>
        <time>2019-12-22T13:46:13Z</time>
      </trkpt>
      <trkpt lat="44.67879" lon="4.25998">
        <ele>405</ele>
        <time>2019-12-22T13:46:17Z</time>
      </trkpt>
      <trkpt lat="44.67863" lon="4.25998">
        <ele>407</ele>
        <time>2019-12-22T13:46:20Z</time>
      </trkpt>
      <trkpt lat="44.67836" lon="4.26017">
        <ele>414</ele>
        <time>2019-12-22T13:46:25Z</time>
      </trkpt>
      <trkpt lat="44.67781" lon="4.26064">
        <ele>422</ele>
        <time>2019-12-22T13:46:36Z</time>
      </trkpt>
      <trkpt lat="44.67752" lon="4.26106">
        <ele>429</ele>
        <time>2019-12-22T13:46:44Z</time>
      </trkpt>
      <trkpt lat="44.67712" lon="4.26149">
        <ele>443</ele>
        <time>2019-12-22T13:46:53Z</time>
      </trkpt>
      <trkpt lat="44.6769" lon="4.26161">
        <ele>445</ele>
        <time>2019-12-22T13:46:57Z</time>
      </trkpt>
      <trkpt lat="44.67686" lon="4.26167">
        <ele>446</ele>
        <time>2019-12-22T13:46:58Z</time>
      </trkpt>
      <trkpt lat="44.67691" lon="4.26173">
        <ele>448</ele>
        <time>2019-12-22T13:46:59Z</time>
      </trkpt>
      <trkpt lat="44.67745" lon="4.26147">
        <ele>441</ele>
        <time>2019-12-22T13:47:09Z</time>
      </trkpt>
      <trkpt lat="44.67761" lon="4.26145">
        <ele>441</ele>
        <time>2019-12-22T13:47:12Z</time>
      </trkpt>
      <trkpt lat="44.6778" lon="4.26127">
        <ele>438</ele>
        <time>2019-12-22T13:47:16Z</time>
      </trkpt>
      <trkpt lat="44.67812" lon="4.26108">
        <ele>436</ele>
        <time>2019-12-22T13:47:22Z</time>
      </trkpt>
      <trkpt lat="44.67834" lon="4.26114">
        <ele>440</ele>
        <time>2019-12-22T13:47:26Z</time>
      </trkpt>
      <trkpt lat="44.67865" lon="4.26249">
        <ele>465</ele>
        <time>2019-12-22T13:47:44Z</time>
      </trkpt>
      <trkpt lat="44.67873" lon="4.26339">
        <ele>473</ele>
        <time>2019-12-22T13:47:56Z</time>
      </trkpt>
      <trkpt lat="44.67882" lon="4.26375">
        <ele>471</ele>
        <time>2019-12-22T13:48:01Z</time>
      </trkpt>
      <trkpt lat="44.67903" lon="4.26376">
        <ele>468</ele>
        <time>2019-12-22T13:48:04Z</time>
      </trkpt>
      <trkpt lat="44.67931" lon="4.2635">
        <ele>469</ele>
        <time>2019-12-22T13:48:10Z</time>
      </trkpt>
      <trkpt lat="44.67948" lon="4.26349">
        <ele>471</ele>
        <time>2019-12-22T13:48:13Z</time>
      </trkpt>
      <trkpt lat="44.67981" lon="4.26413">
        <ele>470</ele>
        <time>2019-12-22T13:48:23Z</time>
      </trkpt>
      <trkpt lat="44.68001" lon="4.26439">
        <ele>469</ele>
        <time>2019-12-22T13:48:28Z</time>
      </trkpt>
      <trkpt lat="44.67987" lon="4.26607">
        <ele>453</ele>
        <time>2019-12-22T13:48:50Z</time>
      </trkpt>
      <trkpt lat="44.67976" lon="4.26643">
        <ele>449</ele>
        <time>2019-12-22T13:48:55Z</time>
      </trkpt>
      <trkpt lat="44.67962" lon="4.26662">
        <ele>447</ele>
        <time>2019-12-22T13:48:58Z</time>
      </trkpt>
      <trkpt lat="44.67951" lon="4.26665">
        <ele>447</ele>
        <time>2019-12-22T13:49:00Z</time>
      </trkpt>
      <trkpt lat="44.67966" lon="4.26671">
        <ele>446</ele>
        <time>2019-12-22T13:49:03Z</time>
      </trkpt>
      <trkpt lat="44.67977" lon="4.26669">
        <ele>446</ele>
        <time>2019-12-22T13:49:05Z</time>
      </trkpt>
      <trkpt lat="44.68007" lon="4.26631">
        <ele>450</ele>
        <time>2019-12-22T13:49:12Z</time>
      </trkpt>
      <trkpt lat="44.68043" lon="4.26633">
        <ele>448</ele>
        <time>2019-12-22T13:49:18Z</time>
      </trkpt>
      <trkpt lat="44.68049" lon="4.26635">
        <ele>447</ele>
        <time>2019-12-22T13:49:19Z</time>
      </trkpt>
      <trkpt lat="44.68047" lon="4.26639">
        <ele>447</ele>
        <time>2019-12-22T13:49:20Z</time>
      </trkpt>
      <trkpt lat="44.6806" lon="4.26656">
        <ele>444</ele>
        <time>2019-12-22T13:49:23Z</time>
      </trkpt>
      <trkpt lat="44.68067" lon="4.26661">
        <ele>443</ele>
        <time>2019-12-22T13:49:25Z</time>
      </trkpt>
      <trkpt lat="44.68067" lon="4.26667">
        <ele>443</ele>
        <time>2019-12-22T13:49:25Z</time>
      </trkpt>
      <trkpt lat="44.68079" lon="4.26653">
        <ele>444</ele>
        <time>2019-12-22T13:49:28Z</time>
      </trkpt>
      <trkpt lat="44.68088" lon="4.26656">
        <ele>443</ele>
        <time>2019-12-22T13:49:30Z</time>
      </trkpt>
      <trkpt lat="44.68113" lon="4.26689">
        <ele>440</ele>
        <time>2019-12-22T13:49:36Z</time>
      </trkpt>
      <trkpt lat="44.68118" lon="4.26705">
        <ele>438</ele>
        <time>2019-12-22T13:49:38Z</time>
      </trkpt>
      <trkpt lat="44.68129" lon="4.26693">
        <ele>439</ele>
        <time>2019-12-22T13:49:41Z</time>
      </trkpt>
      <trkpt lat="44.68139" lon="4.26693">
        <ele>439</ele>
        <time>2019-12-22T13:49:42Z</time>
      </trkpt>
      <trkpt lat="44.68157" lon="4.26696">
        <ele>438</ele>
        <time>2019-12-22T13:49:46Z</time>
      </trkpt>
      <trkpt lat="44.68181" lon="4.26695">
        <ele>438</ele>
        <time>2019-12-22T13:49:50Z</time>
      </trkpt>
      <trkpt lat="44.68203" lon="4.26689">
        <ele>438</ele>
        <time>2019-12-22T13:49:54Z</time>
      </trkpt>
      <trkpt lat="44.68233" lon="4.2669">
        <ele>437</ele>
        <time>2019-12-22T13:49:59Z</time>
      </trkpt>
      <trkpt lat="44.68277" lon="4.26682">
        <ele>437</ele>
        <time>2019-12-22T13:50:07Z</time>
      </trkpt>
      <trkpt lat="44.68285" lon="4.26683">
        <ele>437</ele>
        <time>2019-12-22T13:50:09Z</time>
      </trkpt>
      <trkpt lat="44.68294" lon="4.26692">
        <ele>437</ele>
        <time>2019-12-22T13:50:10Z</time>
      </trkpt>
      <trkpt lat="44.68305" lon="4.2671">
        <ele>438</ele>
        <time>2019-12-22T13:50:13Z</time>
      </trkpt>
      <trkpt lat="44.6835" lon="4.26652">
        <ele>438</ele>
        <time>2019-12-22T13:50:24Z</time>
      </trkpt>
      <trkpt lat="44.68365" lon="4.26638">
        <ele>440</ele>
        <time>2019-12-22T13:50:28Z</time>
      </trkpt>
      <trkpt lat="44.68386" lon="4.26624">
        <ele>442</ele>
        <time>2019-12-22T13:50:32Z</time>
      </trkpt>
      <trkpt lat="44.68434" lon="4.26599">
        <ele>445</ele>
        <time>2019-12-22T13:50:41Z</time>
      </trkpt>
      <trkpt lat="44.68452" lon="4.26587">
        <ele>445</ele>
        <time>2019-12-22T13:50:44Z</time>
      </trkpt>
      <trkpt lat="44.68512" lon="4.26532">
        <ele>451</ele>
        <time>2019-12-22T13:50:57Z</time>
      </trkpt>
      <trkpt lat="44.68541" lon="4.26523">
        <ele>454</ele>
        <time>2019-12-22T13:51:02Z</time>
      </trkpt>
      <trkpt lat="44.68571" lon="4.26534">
        <ele>454</ele>
        <time>2019-12-22T13:51:08Z</time>
      </trkpt>
      <trkpt lat="44.68588" lon="4.26537">
        <ele>455</ele>
        <time>2019-12-22T13:51:11Z</time>
      </trkpt>
      <trkpt lat="44.68647" lon="4.26533">
        <ele>462</ele>
        <time>2019-12-22T13:51:21Z</time>
      </trkpt>
      <trkpt lat="44.68657" lon="4.26529">
        <ele>463</ele>
        <time>2019-12-22T13:51:23Z</time>
      </trkpt>
      <trkpt lat="44.68667" lon="4.26519">
        <ele>464</ele>
        <time>2019-12-22T13:51:25Z</time>
      </trkpt>
      <trkpt lat="44.68682" lon="4.26481">
        <ele>466</ele>
        <time>2019-12-22T13:51:31Z</time>
      </trkpt>
      <trkpt lat="44.68699" lon="4.2643">
        <ele>469</ele>
        <time>2019-12-22T13:51:38Z</time>
      </trkpt>
      <trkpt lat="44.68728" lon="4.26367">
        <ele>468</ele>
        <time>2019-12-22T13:51:48Z</time>
      </trkpt>
      <trkpt lat="44.68772" lon="4.26281">
        <ele>460</ele>
        <time>2019-12-22T13:52:01Z</time>
      </trkpt>
      <trkpt lat="44.68804" lon="4.26231">
        <ele>456</ele>
        <time>2019-12-22T13:52:10Z</time>
      </trkpt>
      <trkpt lat="44.68832" lon="4.262">
        <ele>451</ele>
        <time>2019-12-22T13:52:16Z</time>
      </trkpt>
      <trkpt lat="44.68837" lon="4.26181">
        <ele>451</ele>
        <time>2019-12-22T13:52:18Z</time>
      </trkpt>
      <trkpt lat="44.6883" lon="4.26159">
        <ele>454</ele>
        <time>2019-12-22T13:52:21Z</time>
      </trkpt>
      <trkpt lat="44.68815" lon="4.26132">
        <ele>458</ele>
        <time>2019-12-22T13:52:26Z</time>
      </trkpt>
      <trkpt lat="44.68812" lon="4.26116">
        <ele>460</ele>
        <time>2019-12-22T13:52:28Z</time>
      </trkpt>
      <trkpt lat="44.68818" lon="4.26094">
        <ele>459</ele>
        <time>2019-12-22T13:52:31Z</time>
      </trkpt>
      <trkpt lat="44.68835" lon="4.26058">
        <ele>456</ele>
        <time>2019-12-22T13:52:36Z</time>
      </trkpt>
      <trkpt lat="44.68843" lon="4.26015">
        <ele>458</ele>
        <time>2019-12-22T13:52:42Z</time>
      </trkpt>
      <trkpt lat="44.68855" lon="4.2599">
        <ele>457</ele>
        <time>2019-12-22T13:52:46Z</time>
      </trkpt>
      <trkpt lat="44.6889" lon="4.25963">
        <ele>448</ele>
        <time>2019-12-22T13:52:53Z</time>
      </trkpt>
      <trkpt lat="44.68896" lon="4.25945">
        <ele>447</ele>
        <time>2019-12-22T13:52:55Z</time>
      </trkpt>
      <trkpt lat="44.68888" lon="4.25918">
        <ele>450</ele>
        <time>2019-12-22T13:52:59Z</time>
      </trkpt>
      <trkpt lat="44.6887" lon="4.25898">
        <ele>455</ele>
        <time>2019-12-22T13:53:03Z</time>
      </trkpt>
      <trkpt lat="44.68853" lon="4.25845">
        <ele>457</ele>
        <time>2019-12-22T13:53:11Z</time>
      </trkpt>
      <trkpt lat="44.68858" lon="4.25827">
        <ele>457</ele>
        <time>2019-12-22T13:53:13Z</time>
      </trkpt>
      <trkpt lat="44.68869" lon="4.25817">
        <ele>457</ele>
        <time>2019-12-22T13:53:15Z</time>
      </trkpt>
      <trkpt lat="44.68922" lon="4.25817">
        <ele>450</ele>
        <time>2019-12-22T13:53:25Z</time>
      </trkpt>
      <trkpt lat="44.68973" lon="4.25804">
        <ele>447</ele>
        <time>2019-12-22T13:53:34Z</time>
      </trkpt>
      <trkpt lat="44.69017" lon="4.25782">
        <ele>445</ele>
        <time>2019-12-22T13:53:42Z</time>
      </trkpt>
      <trkpt lat="44.69043" lon="4.25761">
        <ele>443</ele>
        <time>2019-12-22T13:53:48Z</time>
      </trkpt>
      <trkpt lat="44.69133" lon="4.25653">
        <ele>439</ele>
        <time>2019-12-22T13:54:09Z</time>
      </trkpt>
      <trkpt lat="44.69156" lon="4.25636">
        <ele>437</ele>
        <time>2019-12-22T13:54:13Z</time>
      </trkpt>
      <trkpt lat="44.69215" lon="4.25616">
        <ele>432</ele>
        <time>2019-12-22T13:54:24Z</time>
      </trkpt>
      <trkpt lat="44.69254" lon="4.25607">
        <ele>430</ele>
        <time>2019-12-22T13:54:31Z</time>
      </trkpt>
      <trkpt lat="44.69195" lon="4.25921">
        <ele>420</ele>
        <time>2019-12-22T13:55:12Z</time>
      </trkpt>
      <trkpt lat="44.6925" lon="4.25928">
        <ele>417</ele>
        <time>2019-12-22T13:55:22Z</time>
      </trkpt>
      <trkpt lat="44.69259" lon="4.25925">
        <ele>415</ele>
        <time>2019-12-22T13:55:24Z</time>
      </trkpt>
      <trkpt lat="44.6929" lon="4.25888">
        <ele>408</ele>
        <time>2019-12-22T13:55:31Z</time>
      </trkpt>
      <trkpt lat="44.69299" lon="4.25874">
        <ele>406</ele>
        <time>2019-12-22T13:55:33Z</time>
      </trkpt>
      <trkpt lat="44.69302" lon="4.2586">
        <ele>406</ele>
        <time>2019-12-22T13:55:35Z</time>
      </trkpt>
      <trkpt lat="44.69316" lon="4.25783">
        <ele>411</ele>
        <time>2019-12-22T13:55:45Z</time>
      </trkpt>
      <trkpt lat="44.69322" lon="4.25765">
        <ele>413</ele>
        <time>2019-12-22T13:55:48Z</time>
      </trkpt>
      <trkpt lat="44.69388" lon="4.25639">
        <ele>418</ele>
        <time>2019-12-22T13:56:07Z</time>
      </trkpt>
      <trkpt lat="44.69445" lon="4.25537">
        <ele>416</ele>
        <time>2019-12-22T13:56:24Z</time>
      </trkpt>
      <trkpt lat="44.69467" lon="4.25509">
        <ele>416</ele>
        <time>2019-12-22T13:56:29Z</time>
      </trkpt>
      <trkpt lat="44.69506" lon="4.25477">
        <ele>414</ele>
        <time>2019-12-22T13:56:37Z</time>
      </trkpt>
      <trkpt lat="44.69514" lon="4.25474">
        <ele>414</ele>
        <time>2019-12-22T13:56:39Z</time>
      </trkpt>
      <trkpt lat="44.6952" lon="4.25478">
        <ele>412</ele>
        <time>2019-12-22T13:56:40Z</time>
      </trkpt>
      <trkpt lat="44.69523" lon="4.25488">
        <ele>410</ele>
        <time>2019-12-22T13:56:41Z</time>
      </trkpt>
      <trkpt lat="44.69552" lon="4.25568">
        <ele>401</ele>
        <time>2019-12-22T13:56:53Z</time>
      </trkpt>
      <trkpt lat="44.69559" lon="4.2559">
        <ele>401</ele>
        <time>2019-12-22T13:56:56Z</time>
      </trkpt>
      <trkpt lat="44.69584" lon="4.25632">
        <ele>399</ele>
        <time>2019-12-22T13:57:03Z</time>
      </trkpt>
      <trkpt lat="44.696" lon="4.25648">
        <ele>400</ele>
        <time>2019-12-22T13:57:06Z</time>
      </trkpt>
      <trkpt lat="44.69637" lon="4.25662">
        <ele>403</ele>
        <time>2019-12-22T13:57:13Z</time>
      </trkpt>
      <trkpt lat="44.69654" lon="4.25675">
        <ele>403</ele>
        <time>2019-12-22T13:57:16Z</time>
      </trkpt>
      <trkpt lat="44.69728" lon="4.25792">
        <ele>392</ele>
        <time>2019-12-22T13:57:36Z</time>
      </trkpt>
      <trkpt lat="44.69739" lon="4.25804">
        <ele>391</ele>
        <time>2019-12-22T13:57:39Z</time>
      </trkpt>
      <trkpt lat="44.69751" lon="4.25811">
        <ele>391</ele>
        <time>2019-12-22T13:57:41Z</time>
      </trkpt>
      <trkpt lat="44.69765" lon="4.25814">
        <ele>391</ele>
        <time>2019-12-22T13:57:43Z</time>
      </trkpt>
      <trkpt lat="44.69796" lon="4.25812">
        <ele>393</ele>
        <time>2019-12-22T13:57:49Z</time>
      </trkpt>
      <trkpt lat="44.69839" lon="4.25802">
        <ele>397</ele>
        <time>2019-12-22T13:57:57Z</time>
      </trkpt>
      <trkpt lat="44.6987" lon="4.25791">
        <ele>399</ele>
        <time>2019-12-22T13:58:02Z</time>
      </trkpt>
      <trkpt lat="44.69887" lon="4.25791">
        <ele>399</ele>
        <time>2019-12-22T13:58:05Z</time>
      </trkpt>
      <trkpt lat="44.69944" lon="4.25807">
        <ele>397</ele>
        <time>2019-12-22T13:58:16Z</time>
      </trkpt>
      <trkpt lat="44.69968" lon="4.2582">
        <ele>397</ele>
        <time>2019-12-22T13:58:20Z</time>
      </trkpt>
      <trkpt lat="44.69995" lon="4.25844">
        <ele>398</ele>
        <time>2019-12-22T13:58:26Z</time>
      </trkpt>
      <trkpt lat="44.70025" lon="4.25891">
        <ele>398</ele>
        <time>2019-12-22T13:58:34Z</time>
      </trkpt>
      <trkpt lat="44.70064" lon="4.25964">
        <ele>399</ele>
        <time>2019-12-22T13:58:46Z</time>
      </trkpt>
      <trkpt lat="44.70075" lon="4.25988">
        <ele>398</ele>
        <time>2019-12-22T13:58:49Z</time>
      </trkpt>
      <trkpt lat="44.70084" lon="4.26001">
        <ele>398</ele>
        <time>2019-12-22T13:58:51Z</time>
      </trkpt>
      <trkpt lat="44.70194" lon="4.26068">
        <ele>398</ele>
        <time>2019-12-22T13:59:13Z</time>
      </trkpt>
      <trkpt lat="44.70223" lon="4.26099">
        <ele>399</ele>
        <time>2019-12-22T13:59:19Z</time>
      </trkpt>
      <trkpt lat="44.70239" lon="4.26113">
        <ele>400</ele>
        <time>2019-12-22T13:59:23Z</time>
      </trkpt>
      <trkpt lat="44.7027" lon="4.26134">
        <ele>401</ele>
        <time>2019-12-22T13:59:29Z</time>
      </trkpt>
      <trkpt lat="44.7029" lon="4.2615">
        <ele>402</ele>
        <time>2019-12-22T13:59:33Z</time>
      </trkpt>
      <trkpt lat="44.70338" lon="4.26201">
        <ele>402</ele>
        <time>2019-12-22T13:59:44Z</time>
      </trkpt>
      <trkpt lat="44.70363" lon="4.26215">
        <ele>404</ele>
        <time>2019-12-22T13:59:48Z</time>
      </trkpt>
      <trkpt lat="44.70382" lon="4.26221">
        <ele>406</ele>
        <time>2019-12-22T13:59:52Z</time>
      </trkpt>
      <trkpt lat="44.70415" lon="4.26237">
        <ele>408</ele>
        <time>2019-12-22T13:59:58Z</time>
      </trkpt>
      <trkpt lat="44.70461" lon="4.26282">
        <ele>407</ele>
        <time>2019-12-22T14:00:08Z</time>
      </trkpt>
      <trkpt lat="44.70497" lon="4.26303">
        <ele>408</ele>
        <time>2019-12-22T14:00:15Z</time>
      </trkpt>
      <trkpt lat="44.70528" lon="4.26328">
        <ele>411</ele>
        <time>2019-12-22T14:00:21Z</time>
      </trkpt>
      <trkpt lat="44.70566" lon="4.26365">
        <ele>414</ele>
        <time>2019-12-22T14:00:29Z</time>
      </trkpt>
      <trkpt lat="44.70599" lon="4.26388">
        <ele>415</ele>
        <time>2019-12-22T14:00:36Z</time>
      </trkpt>
      <trkpt lat="44.70629" lon="4.26406">
        <ele>416</ele>
        <time>2019-12-22T14:00:42Z</time>
      </trkpt>
      <trkpt lat="44.70686" lon="4.26434">
        <ele>420</ele>
        <time>2019-12-22T14:00:53Z</time>
      </trkpt>
      <trkpt lat="44.7093" lon="4.26577">
        <ele>416</ele>
        <time>2019-12-22T14:01:40Z</time>
      </trkpt>
      <trkpt lat="44.70971" lon="4.26594">
        <ele>420</ele>
        <time>2019-12-22T14:01:47Z</time>
      </trkpt>
      <trkpt lat="44.7101" lon="4.26602">
        <ele>424</ele>
        <time>2019-12-22T14:01:54Z</time>
      </trkpt>
      <trkpt lat="44.71025" lon="4.2661">
        <ele>426</ele>
        <time>2019-12-22T14:01:57Z</time>
      </trkpt>
      <trkpt lat="44.71039" lon="4.26622">
        <ele>428</ele>
        <time>2019-12-22T14:02:00Z</time>
      </trkpt>
      <trkpt lat="44.7105" lon="4.26636">
        <ele>430</ele>
        <time>2019-12-22T14:02:03Z</time>
      </trkpt>
      <trkpt lat="44.71059" lon="4.26653">
        <ele>431</ele>
        <time>2019-12-22T14:02:05Z</time>
      </trkpt>
      <trkpt lat="44.71159" lon="4.26915">
        <ele>423</ele>
        <time>2019-12-22T14:02:43Z</time>
      </trkpt>
      <trkpt lat="44.71172" lon="4.26939">
        <ele>424</ele>
        <time>2019-12-22T14:02:47Z</time>
      </trkpt>
      <trkpt lat="44.71185" lon="4.26953">
        <ele>426</ele>
        <time>2019-12-22T14:02:50Z</time>
      </trkpt>
      <trkpt lat="44.71203" lon="4.26966">
        <ele>428</ele>
        <time>2019-12-22T14:02:53Z</time>
      </trkpt>
      <trkpt lat="44.71237" lon="4.26977">
        <ele>430</ele>
        <time>2019-12-22T14:02:59Z</time>
      </trkpt>
      <trkpt lat="44.71302" lon="4.26991">
        <ele>439</ele>
        <time>2019-12-22T14:03:11Z</time>
      </trkpt>
      <trkpt lat="44.71345" lon="4.26999">
        <ele>441</ele>
        <time>2019-12-22T14:03:19Z</time>
      </trkpt>
      <trkpt lat="44.7137" lon="4.27002">
        <ele>439</ele>
        <time>2019-12-22T14:03:23Z</time>
      </trkpt>
      <trkpt lat="44.71396" lon="4.27001">
        <ele>438</ele>
        <time>2019-12-22T14:03:28Z</time>
      </trkpt>
      <trkpt lat="44.71464" lon="4.26985">
        <ele>445</ele>
        <time>2019-12-22T14:03:40Z</time>
      </trkpt>
      <trkpt lat="44.71519" lon="4.26962">
        <ele>452</ele>
        <time>2019-12-22T14:03:50Z</time>
      </trkpt>
      <trkpt lat="44.71562" lon="4.26934">
        <ele>453</ele>
        <time>2019-12-22T14:03:59Z</time>
      </trkpt>
      <trkpt lat="44.71615" lon="4.26876">
        <ele>458</ele>
        <time>2019-12-22T14:04:11Z</time>
      </trkpt>
      <trkpt lat="44.71685" lon="4.26775">
        <ele>473</ele>
        <time>2019-12-22T14:04:29Z</time>
      </trkpt>
      <trkpt lat="44.71714" lon="4.26752">
        <ele>476</ele>
        <time>2019-12-22T14:04:35Z</time>
      </trkpt>
      <trkpt lat="44.71732" lon="4.2675">
        <ele>473</ele>
        <time>2019-12-22T14:04:38Z</time>
      </trkpt>
      <trkpt lat="44.71821" lon="4.26758">
        <ele>468</ele>
        <time>2019-12-22T14:04:54Z</time>
      </trkpt>
      <trkpt lat="44.71847" lon="4.26775">
        <ele>463</ele>
        <time>2019-12-22T14:04:59Z</time>
      </trkpt>
      <trkpt lat="44.71871" lon="4.26801">
        <ele>455</ele>
        <time>2019-12-22T14:05:04Z</time>
      </trkpt>
      <trkpt lat="44.71883" lon="4.26801">
        <ele>454</ele>
        <time>2019-12-22T14:05:06Z</time>
      </trkpt>
      <trkpt lat="44.71892" lon="4.2679">
        <ele>455</ele>
        <time>2019-12-22T14:05:08Z</time>
      </trkpt>
      <trkpt lat="44.71906" lon="4.26745">
        <ele>461</ele>
        <time>2019-12-22T14:05:15Z</time>
      </trkpt>
      <trkpt lat="44.71906" lon="4.26698">
        <ele>472</ele>
        <time>2019-12-22T14:05:21Z</time>
      </trkpt>
      <trkpt lat="44.71909" lon="4.26677">
        <ele>476</ele>
        <time>2019-12-22T14:05:23Z</time>
      </trkpt>
      <trkpt lat="44.71918" lon="4.26655">
        <ele>480</ele>
        <time>2019-12-22T14:05:26Z</time>
      </trkpt>
      <trkpt lat="44.71993" lon="4.26588">
        <ele>485</ele>
        <time>2019-12-22T14:05:42Z</time>
      </trkpt>
      <trkpt lat="44.72004" lon="4.26584">
        <ele>484</ele>
        <time>2019-12-22T14:05:44Z</time>
      </trkpt>
      <trkpt lat="44.72022" lon="4.26582">
        <ele>481</ele>
        <time>2019-12-22T14:05:48Z</time>
      </trkpt>
      <trkpt lat="44.72068" lon="4.26604">
        <ele>467</ele>
        <time>2019-12-22T14:05:56Z</time>
      </trkpt>
      <trkpt lat="44.72079" lon="4.26605">
        <ele>465</ele>
        <time>2019-12-22T14:05:58Z</time>
      </trkpt>
      <trkpt lat="44.72089" lon="4.26601">
        <ele>464</ele>
        <time>2019-12-22T14:06:00Z</time>
      </trkpt>
      <trkpt lat="44.72176" lon="4.26495">
        <ele>468</ele>
        <time>2019-12-22T14:06:20Z</time>
      </trkpt>
      <trkpt lat="44.72178" lon="4.26483">
        <ele>469</ele>
        <time>2019-12-22T14:06:22Z</time>
      </trkpt>
      <trkpt lat="44.72177" lon="4.26459">
        <ele>470</ele>
        <time>2019-12-22T14:06:25Z</time>
      </trkpt>
      <trkpt lat="44.72162" lon="4.26409">
        <ele>475</ele>
        <time>2019-12-22T14:06:32Z</time>
      </trkpt>
      <trkpt lat="44.7216" lon="4.2639">
        <ele>479</ele>
        <time>2019-12-22T14:06:34Z</time>
      </trkpt>
      <trkpt lat="44.7216" lon="4.26369">
        <ele>482</ele>
        <time>2019-12-22T14:06:37Z</time>
      </trkpt>
      <trkpt lat="44.72163" lon="4.26355">
        <ele>483</ele>
        <time>2019-12-22T14:06:39Z</time>
      </trkpt>
      <trkpt lat="44.72167" lon="4.2634">
        <ele>485</ele>
        <time>2019-12-22T14:06:41Z</time>
      </trkpt>
      <trkpt lat="44.72173" lon="4.26328">
        <ele>486</ele>
        <time>2019-12-22T14:06:43Z</time>
      </trkpt>
      <trkpt lat="44.72182" lon="4.26315">
        <ele>488</ele>
        <time>2019-12-22T14:06:45Z</time>
      </trkpt>
      <trkpt lat="44.72296" lon="4.26194">
        <ele>499</ele>
        <time>2019-12-22T14:07:10Z</time>
      </trkpt>
      <trkpt lat="44.7231" lon="4.26185">
        <ele>500</ele>
        <time>2019-12-22T14:07:13Z</time>
      </trkpt>
      <trkpt lat="44.72319" lon="4.26184">
        <ele>499</ele>
        <time>2019-12-22T14:07:15Z</time>
      </trkpt>
      <trkpt lat="44.7239" lon="4.26204">
        <ele>482</ele>
        <time>2019-12-22T14:07:28Z</time>
      </trkpt>
      <trkpt lat="44.724" lon="4.26205">
        <ele>481</ele>
        <time>2019-12-22T14:07:29Z</time>
      </trkpt>
      <trkpt lat="44.72431" lon="4.26196">
        <ele>480</ele>
        <time>2019-12-22T14:07:35Z</time>
      </trkpt>
      <trkpt lat="44.7245" lon="4.26185">
        <ele>480</ele>
        <time>2019-12-22T14:07:39Z</time>
      </trkpt>
      <trkpt lat="44.72461" lon="4.26173">
        <ele>480</ele>
        <time>2019-12-22T14:07:41Z</time>
      </trkpt>
      <trkpt lat="44.72467" lon="4.26162">
        <ele>480</ele>
        <time>2019-12-22T14:07:43Z</time>
      </trkpt>
      <trkpt lat="44.72471" lon="4.26149">
        <ele>482</ele>
        <time>2019-12-22T14:07:45Z</time>
      </trkpt>
      <trkpt lat="44.72489" lon="4.26049">
        <ele>489</ele>
        <time>2019-12-22T14:07:58Z</time>
      </trkpt>
      <trkpt lat="44.72499" lon="4.26011">
        <ele>488</ele>
        <time>2019-12-22T14:08:03Z</time>
      </trkpt>
      <trkpt lat="44.72506" lon="4.25996">
        <ele>488</ele>
        <time>2019-12-22T14:08:05Z</time>
      </trkpt>
      <trkpt lat="44.72514" lon="4.25981">
        <ele>490</ele>
        <time>2019-12-22T14:08:08Z</time>
      </trkpt>
      <trkpt lat="44.72527" lon="4.25969">
        <ele>490</ele>
        <time>2019-12-22T14:08:10Z</time>
      </trkpt>
      <trkpt lat="44.7256" lon="4.25952">
        <ele>489</ele>
        <time>2019-12-22T14:08:17Z</time>
      </trkpt>
      <trkpt lat="44.72568" lon="4.2595">
        <ele>488</ele>
        <time>2019-12-22T14:08:18Z</time>
      </trkpt>
      <trkpt lat="44.72676" lon="4.25961">
        <ele>485</ele>
        <time>2019-12-22T14:08:37Z</time>
      </trkpt>
      <trkpt lat="44.72686" lon="4.25961">
        <ele>485</ele>
        <time>2019-12-22T14:08:39Z</time>
      </trkpt>
      <trkpt lat="44.72696" lon="4.25957">
        <ele>486</ele>
        <time>2019-12-22T14:08:41Z</time>
      </trkpt>
      <trkpt lat="44.72718" lon="4.25939">
        <ele>487</ele>
        <time>2019-12-22T14:08:45Z</time>
      </trkpt>
      <trkpt lat="44.72737" lon="4.25919">
        <ele>487</ele>
        <time>2019-12-22T14:08:50Z</time>
      </trkpt>
      <trkpt lat="44.72751" lon="4.25901">
        <ele>488</ele>
        <time>2019-12-22T14:08:53Z</time>
      </trkpt>
      <trkpt lat="44.72778" lon="4.25854">
        <ele>494</ele>
        <time>2019-12-22T14:09:01Z</time>
      </trkpt>
      <trkpt lat="44.72787" lon="4.25847">
        <ele>493</ele>
        <time>2019-12-22T14:09:03Z</time>
      </trkpt>
      <trkpt lat="44.72796" lon="4.25848">
        <ele>493</ele>
        <time>2019-12-22T14:09:04Z</time>
      </trkpt>
      <trkpt lat="44.72801" lon="4.25851">
        <ele>492</ele>
        <time>2019-12-22T14:09:05Z</time>
      </trkpt>
      <trkpt lat="44.72825" lon="4.25867">
        <ele>492</ele>
        <time>2019-12-22T14:09:10Z</time>
      </trkpt>
      <trkpt lat="44.72837" lon="4.2587">
        <ele>494</ele>
        <time>2019-12-22T14:09:12Z</time>
      </trkpt>
      <trkpt lat="44.72844" lon="4.25867">
        <ele>496</ele>
        <time>2019-12-22T14:09:13Z</time>
      </trkpt>
      <trkpt lat="44.72861" lon="4.25825">
        <ele>498</ele>
        <time>2019-12-22T14:09:19Z</time>
      </trkpt>
      <trkpt lat="44.7297" lon="4.2561">
        <ele>502</ele>
        <time>2019-12-22T14:09:53Z</time>
      </trkpt>
      <trkpt lat="44.72998" lon="4.25578">
        <ele>500</ele>
        <time>2019-12-22T14:09:59Z</time>
      </trkpt>
      <trkpt lat="44.73069" lon="4.25539">
        <ele>508</ele>
        <time>2019-12-22T14:10:13Z</time>
      </trkpt>
      <trkpt lat="44.731" lon="4.2551">
        <ele>503</ele>
        <time>2019-12-22T14:10:19Z</time>
      </trkpt>
      <trkpt lat="44.73117" lon="4.255">
        <ele>503</ele>
        <time>2019-12-22T14:10:23Z</time>
      </trkpt>
      <trkpt lat="44.73172" lon="4.25483">
        <ele>510</ele>
        <time>2019-12-22T14:10:33Z</time>
      </trkpt>
      <trkpt lat="44.73239" lon="4.25448">
        <ele>512</ele>
        <time>2019-12-22T14:10:45Z</time>
      </trkpt>
      <trkpt lat="44.73294" lon="4.25424">
        <ele>514</ele>
        <time>2019-12-22T14:10:56Z</time>
      </trkpt>
      <trkpt lat="44.73314" lon="4.2541">
        <ele>515</ele>
        <time>2019-12-22T14:11:00Z</time>
      </trkpt>
      <trkpt lat="44.73341" lon="4.25386">
        <ele>515</ele>
        <time>2019-12-22T14:11:05Z</time>
      </trkpt>
      <trkpt lat="44.73349" lon="4.25381">
        <ele>515</ele>
        <time>2019-12-22T14:11:07Z</time>
      </trkpt>
      <trkpt lat="44.7336" lon="4.25379">
        <ele>516</ele>
        <time>2019-12-22T14:11:09Z</time>
      </trkpt>
      <trkpt lat="44.73396" lon="4.25386">
        <ele>521</ele>
        <time>2019-12-22T14:11:15Z</time>
      </trkpt>
      <trkpt lat="44.73403" lon="4.25386">
        <ele>522</ele>
        <time>2019-12-22T14:11:17Z</time>
      </trkpt>
      <trkpt lat="44.73428" lon="4.25377">
        <ele>524</ele>
        <time>2019-12-22T14:11:21Z</time>
      </trkpt>
      <trkpt lat="44.73508" lon="4.25327">
        <ele>524</ele>
        <time>2019-12-22T14:11:37Z</time>
      </trkpt>
      <trkpt lat="44.73525" lon="4.25318">
        <ele>525</ele>
        <time>2019-12-22T14:11:40Z</time>
      </trkpt>
      <trkpt lat="44.73549" lon="4.25313">
        <ele>528</ele>
        <time>2019-12-22T14:11:44Z</time>
      </trkpt>
      <trkpt lat="44.73572" lon="4.25305">
        <ele>530</ele>
        <time>2019-12-22T14:11:48Z</time>
      </trkpt>
      <trkpt lat="44.73592" lon="4.25283">
        <ele>530</ele>
        <time>2019-12-22T14:11:53Z</time>
      </trkpt>
      <trkpt lat="44.73639" lon="4.25226">
        <ele>533</ele>
        <time>2019-12-22T14:12:04Z</time>
      </trkpt>
      <trkpt lat="44.73667" lon="4.25189">
        <ele>531</ele>
        <time>2019-12-22T14:12:11Z</time>
      </trkpt>
      <trkpt lat="44.73706" lon="4.25132">
        <ele>533</ele>
        <time>2019-12-22T14:12:21Z</time>
      </trkpt>
      <trkpt lat="44.73722" lon="4.25105">
        <ele>532</ele>
        <time>2019-12-22T14:12:25Z</time>
      </trkpt>
      <trkpt lat="44.73737" lon="4.2509">
        <ele>532</ele>
        <time>2019-12-22T14:12:29Z</time>
      </trkpt>
      <trkpt lat="44.73763" lon="4.2507">
        <ele>535</ele>
        <time>2019-12-22T14:12:34Z</time>
      </trkpt>
      <trkpt lat="44.73824" lon="4.24975">
        <ele>540</ele>
        <time>2019-12-22T14:12:50Z</time>
      </trkpt>
      <trkpt lat="44.73835" lon="4.24951">
        <ele>537</ele>
        <time>2019-12-22T14:12:54Z</time>
      </trkpt>
      <trkpt lat="44.73842" lon="4.24928">
        <ele>536</ele>
        <time>2019-12-22T14:12:57Z</time>
      </trkpt>
      <trkpt lat="44.73851" lon="4.24887">
        <ele>535</ele>
        <time>2019-12-22T14:13:02Z</time>
      </trkpt>
      <trkpt lat="44.73859" lon="4.24859">
        <ele>536</ele>
        <time>2019-12-22T14:13:06Z</time>
      </trkpt>
      <trkpt lat="44.73879" lon="4.24811">
        <ele>538</ele>
        <time>2019-12-22T14:13:13Z</time>
      </trkpt>
      <trkpt lat="44.73913" lon="4.24688">
        <ele>538</ele>
        <time>2019-12-22T14:13:30Z</time>
      </trkpt>
      <trkpt lat="44.73944" lon="4.2454">
        <ele>540</ele>
        <time>2019-12-22T14:13:49Z</time>
      </trkpt>
      <trkpt lat="44.73948" lon="4.24529">
        <ele>540</ele>
        <time>2019-12-22T14:13:51Z</time>
      </trkpt>
      <trkpt lat="44.73982" lon="4.24473">
        <ele>544</ele>
        <time>2019-12-22T14:14:00Z</time>
      </trkpt>
      <trkpt lat="44.7404" lon="4.24366">
        <ele>543</ele>
        <time>2019-12-22T14:14:17Z</time>
      </trkpt>
      <trkpt lat="44.74058" lon="4.2434">
        <ele>545</ele>
        <time>2019-12-22T14:14:22Z</time>
      </trkpt>
      <trkpt lat="44.74071" lon="4.24351">
        <ele>546</ele>
        <time>2019-12-22T14:14:24Z</time>
      </trkpt>
      <trkpt lat="44.74113" lon="4.24416">
        <ele>553</ele>
        <time>2019-12-22T14:14:36Z</time>
      </trkpt>
      <trkpt lat="44.74238" lon="4.24581">
        <ele>561</ele>
        <time>2019-12-22T14:15:06Z</time>
      </trkpt>
      <trkpt lat="44.74291" lon="4.24629">
        <ele>565</ele>
        <time>2019-12-22T14:15:17Z</time>
      </trkpt>
      <trkpt lat="44.74313" lon="4.2464">
        <ele>566</ele>
        <time>2019-12-22T14:15:21Z</time>
      </trkpt>
      <trkpt lat="44.74323" lon="4.24642">
        <ele>567</ele>
        <time>2019-12-22T14:15:23Z</time>
      </trkpt>
      <trkpt lat="44.74337" lon="4.24641">
        <ele>570</ele>
        <time>2019-12-22T14:15:26Z</time>
      </trkpt>
      <trkpt lat="44.74348" lon="4.24644">
        <ele>571</ele>
        <time>2019-12-22T14:15:28Z</time>
      </trkpt>
      <trkpt lat="44.74395" lon="4.2468">
        <ele>573</ele>
        <time>2019-12-22T14:15:37Z</time>
      </trkpt>
      <trkpt lat="44.74466" lon="4.24801">
        <ele>569</ele>
        <time>2019-12-22T14:15:57Z</time>
      </trkpt>
      <trkpt lat="44.74505" lon="4.24832">
        <ele>570</ele>
        <time>2019-12-22T14:16:05Z</time>
      </trkpt>
      <trkpt lat="44.74557" lon="4.24856">
        <ele>573</ele>
        <time>2019-12-22T14:16:15Z</time>
      </trkpt>
      <trkpt lat="44.74609" lon="4.24931">
        <ele>574</ele>
        <time>2019-12-22T14:16:28Z</time>
      </trkpt>
      <trkpt lat="44.74631" lon="4.24951">
        <ele>581</ele>
        <time>2019-12-22T14:16:33Z</time>
      </trkpt>
      <trkpt lat="44.74642" lon="4.24978">
        <ele>588</ele>
        <time>2019-12-22T14:16:37Z</time>
      </trkpt>
      <trkpt lat="44.74672" lon="4.24988">
        <ele>594</ele>
        <time>2019-12-22T14:16:42Z</time>
      </trkpt>
      <trkpt lat="44.74687" lon="4.2499">
        <ele>597</ele>
        <time>2019-12-22T14:16:45Z</time>
      </trkpt>
      <trkpt lat="44.74703" lon="4.24989">
        <ele>600</ele>
        <time>2019-12-22T14:16:48Z</time>
      </trkpt>
      <trkpt lat="44.7473" lon="4.24963">
        <ele>596</ele>
        <time>2019-12-22T14:16:53Z</time>
      </trkpt>
      <trkpt lat="44.74748" lon="4.24935">
        <ele>589</ele>
        <time>2019-12-22T14:16:58Z</time>
      </trkpt>
      <trkpt lat="44.7476" lon="4.24909">
        <ele>587</ele>
        <time>2019-12-22T14:17:02Z</time>
      </trkpt>
      <trkpt lat="44.74782" lon="4.24834">
        <ele>589</ele>
        <time>2019-12-22T14:17:12Z</time>
      </trkpt>
      <trkpt lat="44.74799" lon="4.2479">
        <ele>590</ele>
        <time>2019-12-22T14:17:19Z</time>
      </trkpt>
      <trkpt lat="44.74806" lon="4.24777">
        <ele>590</ele>
        <time>2019-12-22T14:17:21Z</time>
      </trkpt>
      <trkpt lat="44.74814" lon="4.24768">
        <ele>589</ele>
        <time>2019-12-22T14:17:23Z</time>
      </trkpt>
      <trkpt lat="44.74847" lon="4.24742">
        <ele>587</ele>
        <time>2019-12-22T14:17:29Z</time>
      </trkpt>
      <trkpt lat="44.74878" lon="4.24722">
        <ele>588</ele>
        <time>2019-12-22T14:17:35Z</time>
      </trkpt>
      <trkpt lat="44.74889" lon="4.24718">
        <ele>588</ele>
        <time>2019-12-22T14:17:37Z</time>
      </trkpt>
      <trkpt lat="44.74901" lon="4.24716">
        <ele>589</ele>
        <time>2019-12-22T14:17:40Z</time>
      </trkpt>
      <trkpt lat="44.74918" lon="4.24721">
        <ele>591</ele>
        <time>2019-12-22T14:17:43Z</time>
      </trkpt>
      <trkpt lat="44.74949" lon="4.24742">
        <ele>590</ele>
        <time>2019-12-22T14:17:49Z</time>
      </trkpt>
      <trkpt lat="44.74965" lon="4.24756">
        <ele>590</ele>
        <time>2019-12-22T14:17:52Z</time>
      </trkpt>
      <trkpt lat="44.74981" lon="4.24782">
        <ele>591</ele>
        <time>2019-12-22T14:17:56Z</time>
      </trkpt>
      <trkpt lat="44.74995" lon="4.2481">
        <ele>592</ele>
        <time>2019-12-22T14:18:01Z</time>
      </trkpt>
      <trkpt lat="44.74998" lon="4.24821">
        <ele>592</ele>
        <time>2019-12-22T14:18:02Z</time>
      </trkpt>
      <trkpt lat="44.74991" lon="4.24928">
        <ele>606</ele>
        <time>2019-12-22T14:18:16Z</time>
      </trkpt>
      <trkpt lat="44.74994" lon="4.24953">
        <ele>607</ele>
        <time>2019-12-22T14:18:19Z</time>
      </trkpt>
      <trkpt lat="44.74999" lon="4.24968">
        <ele>607</ele>
        <time>2019-12-22T14:18:21Z</time>
      </trkpt>
      <trkpt lat="44.75009" lon="4.24991">
        <ele>607</ele>
        <time>2019-12-22T14:18:25Z</time>
      </trkpt>
      <trkpt lat="44.75037" lon="4.25036">
        <ele>609</ele>
        <time>2019-12-22T14:18:32Z</time>
      </trkpt>
      <trkpt lat="44.7507" lon="4.25093">
        <ele>610</ele>
        <time>2019-12-22T14:18:41Z</time>
      </trkpt>
      <trkpt lat="44.75076" lon="4.25097">
        <ele>610</ele>
        <time>2019-12-22T14:18:43Z</time>
      </trkpt>
      <trkpt lat="44.75106" lon="4.25096">
        <ele>606</ele>
        <time>2019-12-22T14:18:48Z</time>
      </trkpt>
      <trkpt lat="44.75115" lon="4.25098">
        <ele>606</ele>
        <time>2019-12-22T14:18:50Z</time>
      </trkpt>
      <trkpt lat="44.75133" lon="4.25113">
        <ele>609</ele>
        <time>2019-12-22T14:18:53Z</time>
      </trkpt>
      <trkpt lat="44.75207" lon="4.25169">
        <ele>614</ele>
        <time>2019-12-22T14:19:08Z</time>
      </trkpt>
      <trkpt lat="44.7526" lon="4.25214">
        <ele>619</ele>
        <time>2019-12-22T14:19:19Z</time>
      </trkpt>
      <trkpt lat="44.75294" lon="4.25228">
        <ele>616</ele>
        <time>2019-12-22T14:19:26Z</time>
      </trkpt>
      <trkpt lat="44.75301" lon="4.25233">
        <ele>615</ele>
        <time>2019-12-22T14:19:27Z</time>
      </trkpt>
      <trkpt lat="44.75306" lon="4.25246">
        <ele>615</ele>
        <time>2019-12-22T14:19:29Z</time>
      </trkpt>
      <trkpt lat="44.75303" lon="4.25272">
        <ele>620</ele>
        <time>2019-12-22T14:19:32Z</time>
      </trkpt>
      <trkpt lat="44.75302" lon="4.25301">
        <ele>625</ele>
        <time>2019-12-22T14:19:36Z</time>
      </trkpt>
      <trkpt lat="44.75309" lon="4.25338">
        <ele>627</ele>
        <time>2019-12-22T14:19:41Z</time>
      </trkpt>
      <trkpt lat="44.75332" lon="4.25433">
        <ele>626</ele>
        <time>2019-12-22T14:19:53Z</time>
      </trkpt>
      <trkpt lat="44.75366" lon="4.25552">
        <ele>634</ele>
        <time>2019-12-22T14:20:10Z</time>
      </trkpt>
      <trkpt lat="44.754" lon="4.25645">
        <ele>637</ele>
        <time>2019-12-22T14:20:23Z</time>
      </trkpt>
      <trkpt lat="44.7542" lon="4.2568">
        <ele>638</ele>
        <time>2019-12-22T14:20:28Z</time>
      </trkpt>
      <trkpt lat="44.75479" lon="4.25727">
        <ele>635</ele>
        <time>2019-12-22T14:20:40Z</time>
      </trkpt>
      <trkpt lat="44.75486" lon="4.25744">
        <ele>635</ele>
        <time>2019-12-22T14:20:43Z</time>
      </trkpt>
      <trkpt lat="44.7549" lon="4.25761">
        <ele>635</ele>
        <time>2019-12-22T14:20:45Z</time>
      </trkpt>
      <trkpt lat="44.7549" lon="4.25776">
        <ele>635</ele>
        <time>2019-12-22T14:20:47Z</time>
      </trkpt>
      <trkpt lat="44.75489" lon="4.2579">
        <ele>636</ele>
        <time>2019-12-22T14:20:49Z</time>
      </trkpt>
      <trkpt lat="44.75482" lon="4.2581">
        <ele>639</ele>
        <time>2019-12-22T14:20:52Z</time>
      </trkpt>
      <trkpt lat="44.75454" lon="4.25861">
        <ele>652</ele>
        <time>2019-12-22T14:21:00Z</time>
      </trkpt>
      <trkpt lat="44.75448" lon="4.25877">
        <ele>654</ele>
        <time>2019-12-22T14:21:02Z</time>
      </trkpt>
      <trkpt lat="44.75447" lon="4.25889">
        <ele>653</ele>
        <time>2019-12-22T14:21:04Z</time>
      </trkpt>
      <trkpt lat="44.75466" lon="4.25945">
        <ele>652</ele>
        <time>2019-12-22T14:21:12Z</time>
      </trkpt>
      <trkpt lat="44.75484" lon="4.26014">
        <ele>663</ele>
        <time>2019-12-22T14:21:21Z</time>
      </trkpt>
      <trkpt lat="44.75505" lon="4.26071">
        <ele>672</ele>
        <time>2019-12-22T14:21:29Z</time>
      </trkpt>
      <trkpt lat="44.75514" lon="4.26087">
        <ele>673</ele>
        <time>2019-12-22T14:21:31Z</time>
      </trkpt>
      <trkpt lat="44.75552" lon="4.26131">
        <ele>675</ele>
        <time>2019-12-22T14:21:40Z</time>
      </trkpt>
      <trkpt lat="44.75622" lon="4.26163">
        <ele>670</ele>
        <time>2019-12-22T14:21:53Z</time>
      </trkpt>
      <trkpt lat="44.7563" lon="4.26168">
        <ele>670</ele>
        <time>2019-12-22T14:21:55Z</time>
      </trkpt>
      <trkpt lat="44.7564" lon="4.2618">
        <ele>669</ele>
        <time>2019-12-22T14:21:57Z</time>
      </trkpt>
      <trkpt lat="44.75645" lon="4.2619">
        <ele>670</ele>
        <time>2019-12-22T14:21:59Z</time>
      </trkpt>
      <trkpt lat="44.75646" lon="4.26223">
        <ele>675</ele>
        <time>2019-12-22T14:22:03Z</time>
      </trkpt>
      <trkpt lat="44.75634" lon="4.26355">
        <ele>691</ele>
        <time>2019-12-22T14:22:20Z</time>
      </trkpt>
      <trkpt lat="44.75625" lon="4.26412">
        <ele>699</ele>
        <time>2019-12-22T14:22:27Z</time>
      </trkpt>
      <trkpt lat="44.75628" lon="4.26426">
        <ele>699</ele>
        <time>2019-12-22T14:22:29Z</time>
      </trkpt>
      <trkpt lat="44.75645" lon="4.26441">
        <ele>696</ele>
        <time>2019-12-22T14:22:33Z</time>
      </trkpt>
      <trkpt lat="44.75651" lon="4.26446">
        <ele>695</ele>
        <time>2019-12-22T14:22:34Z</time>
      </trkpt>
      <trkpt lat="44.7566" lon="4.26446">
        <ele>693</ele>
        <time>2019-12-22T14:22:35Z</time>
      </trkpt>
      <trkpt lat="44.75667" lon="4.26439">
        <ele>690</ele>
        <time>2019-12-22T14:22:37Z</time>
      </trkpt>
      <trkpt lat="44.75685" lon="4.26409">
        <ele>688</ele>
        <time>2019-12-22T14:22:42Z</time>
      </trkpt>
      <trkpt lat="44.75696" lon="4.26405">
        <ele>689</ele>
        <time>2019-12-22T14:22:44Z</time>
      </trkpt>
      <trkpt lat="44.75721" lon="4.26405">
        <ele>692</ele>
        <time>2019-12-22T14:22:48Z</time>
      </trkpt>
      <trkpt lat="44.75755" lon="4.26391">
        <ele>694</ele>
        <time>2019-12-22T14:22:55Z</time>
      </trkpt>
      <trkpt lat="44.75859" lon="4.26377">
        <ele>701</ele>
        <time>2019-12-22T14:23:13Z</time>
      </trkpt>
      <trkpt lat="44.75885" lon="4.26377">
        <ele>705</ele>
        <time>2019-12-22T14:23:18Z</time>
      </trkpt>
      <trkpt lat="44.75899" lon="4.26375">
        <ele>707</ele>
        <time>2019-12-22T14:23:20Z</time>
      </trkpt>
      <trkpt lat="44.75952" lon="4.26352">
        <ele>706</ele>
        <time>2019-12-22T14:23:30Z</time>
      </trkpt>
      <trkpt lat="44.76027" lon="4.26332">
        <ele>703</ele>
        <time>2019-12-22T14:23:44Z</time>
      </trkpt>
      <trkpt lat="44.76055" lon="4.26343">
        <ele>709</ele>
        <time>2019-12-22T14:23:49Z</time>
      </trkpt>
      <trkpt lat="44.76104" lon="4.26342">
        <ele>708</ele>
        <time>2019-12-22T14:23:58Z</time>
      </trkpt>
      <trkpt lat="44.76149" lon="4.26363">
        <ele>718</ele>
        <time>2019-12-22T14:24:06Z</time>
      </trkpt>
      <trkpt lat="44.76163" lon="4.26366">
        <ele>718</ele>
        <time>2019-12-22T14:24:09Z</time>
      </trkpt>
      <trkpt lat="44.76194" lon="4.26363">
        <ele>715</ele>
        <time>2019-12-22T14:24:14Z</time>
      </trkpt>
      <trkpt lat="44.76233" lon="4.26364">
        <ele>714</ele>
        <time>2019-12-22T14:24:21Z</time>
      </trkpt>
      <trkpt lat="44.76242" lon="4.26368">
        <ele>715</ele>
        <time>2019-12-22T14:24:23Z</time>
      </trkpt>
      <trkpt lat="44.76259" lon="4.26386">
        <ele>723</ele>
        <time>2019-12-22T14:24:27Z</time>
      </trkpt>
      <trkpt lat="44.76271" lon="4.26387">
        <ele>724</ele>
        <time>2019-12-22T14:24:29Z</time>
      </trkpt>
      <trkpt lat="44.76288" lon="4.26369">
        <ele>715</ele>
        <time>2019-12-22T14:24:33Z</time>
      </trkpt>
      <trkpt lat="44.76327" lon="4.26353">
        <ele>708</ele>
        <time>2019-12-22T14:24:40Z</time>
      </trkpt>
      <trkpt lat="44.76338" lon="4.26354">
        <ele>708</ele>
        <time>2019-12-22T14:24:42Z</time>
      </trkpt>
      <trkpt lat="44.76352" lon="4.26369">
        <ele>714</ele>
        <time>2019-12-22T14:24:45Z</time>
      </trkpt>
      <trkpt lat="44.76397" lon="4.26427">
        <ele>724</ele>
        <time>2019-12-22T14:24:56Z</time>
      </trkpt>
      <trkpt lat="44.76407" lon="4.26444">
        <ele>728</ele>
        <time>2019-12-22T14:24:58Z</time>
      </trkpt>
      <trkpt lat="44.76419" lon="4.2648">
        <ele>740</ele>
        <time>2019-12-22T14:25:04Z</time>
      </trkpt>
      <trkpt lat="44.76424" lon="4.26492">
        <ele>745</ele>
        <time>2019-12-22T14:25:05Z</time>
      </trkpt>
      <trkpt lat="44.76461" lon="4.26527">
        <ele>757</ele>
        <time>2019-12-22T14:25:13Z</time>
      </trkpt>
      <trkpt lat="44.76477" lon="4.26523">
        <ele>754</ele>
        <time>2019-12-22T14:25:16Z</time>
      </trkpt>
      <trkpt lat="44.76496" lon="4.26495">
        <ele>740</ele>
        <time>2019-12-22T14:25:21Z</time>
      </trkpt>
      <trkpt lat="44.76548" lon="4.26465">
        <ele>743</ele>
        <time>2019-12-22T14:25:31Z</time>
      </trkpt>
      <trkpt lat="44.76598" lon="4.26402">
        <ele>738</ele>
        <time>2019-12-22T14:25:43Z</time>
      </trkpt>
      <trkpt lat="44.7662" lon="4.26355">
        <ele>738</ele>
        <time>2019-12-22T14:25:50Z</time>
      </trkpt>
      <trkpt lat="44.76636" lon="4.26334">
        <ele>739</ele>
        <time>2019-12-22T14:25:54Z</time>
      </trkpt>
      <trkpt lat="44.76708" lon="4.26265">
        <ele>742</ele>
        <time>2019-12-22T14:26:09Z</time>
      </trkpt>
      <trkpt lat="44.76745" lon="4.26239">
        <ele>744</ele>
        <time>2019-12-22T14:26:17Z</time>
      </trkpt>
      <trkpt lat="44.76762" lon="4.26237">
        <ele>748</ele>
        <time>2019-12-22T14:26:20Z</time>
      </trkpt>
      <trkpt lat="44.76791" lon="4.26242">
        <ele>758</ele>
        <time>2019-12-22T14:26:25Z</time>
      </trkpt>
      <trkpt lat="44.76804" lon="4.26236">
        <ele>760</ele>
        <time>2019-12-22T14:26:27Z</time>
      </trkpt>
      <trkpt lat="44.76813" lon="4.26222">
        <ele>759</ele>
        <time>2019-12-22T14:26:30Z</time>
      </trkpt>
      <trkpt lat="44.76818" lon="4.26202">
        <ele>756</ele>
        <time>2019-12-22T14:26:33Z</time>
      </trkpt>
      <trkpt lat="44.76818" lon="4.26176">
        <ele>751</ele>
        <time>2019-12-22T14:26:36Z</time>
      </trkpt>
      <trkpt lat="44.76833" lon="4.26142">
        <ele>749</ele>
        <time>2019-12-22T14:26:41Z</time>
      </trkpt>
      <trkpt lat="44.76862" lon="4.26109">
        <ele>754</ele>
        <time>2019-12-22T14:26:47Z</time>
      </trkpt>
      <trkpt lat="44.76899" lon="4.26081">
        <ele>760</ele>
        <time>2019-12-22T14:26:55Z</time>
      </trkpt>
      <trkpt lat="44.76973" lon="4.26031">
        <ele>771</ele>
        <time>2019-12-22T14:27:10Z</time>
      </trkpt>
      <trkpt lat="44.77019" lon="4.25956">
        <ele>770</ele>
        <time>2019-12-22T14:27:22Z</time>
      </trkpt>
      <trkpt lat="44.77044" lon="4.25936">
        <ele>781</ele>
        <time>2019-12-22T14:27:27Z</time>
      </trkpt>
      <trkpt lat="44.7705" lon="4.25926">
        <ele>783</ele>
        <time>2019-12-22T14:27:29Z</time>
      </trkpt>
      <trkpt lat="44.77069" lon="4.25843">
        <ele>777</ele>
        <time>2019-12-22T14:27:40Z</time>
      </trkpt>
      <trkpt lat="44.77094" lon="4.25777">
        <ele>780</ele>
        <time>2019-12-22T14:27:49Z</time>
      </trkpt>
      <trkpt lat="44.77099" lon="4.25752">
        <ele>779</ele>
        <time>2019-12-22T14:27:53Z</time>
      </trkpt>
      <trkpt lat="44.77107" lon="4.25693">
        <ele>775</ele>
        <time>2019-12-22T14:28:00Z</time>
      </trkpt>
      <trkpt lat="44.77135" lon="4.25622">
        <ele>775</ele>
        <time>2019-12-22T14:28:10Z</time>
      </trkpt>
      <trkpt lat="44.77165" lon="4.25592">
        <ele>775</ele>
        <time>2019-12-22T14:28:17Z</time>
      </trkpt>
      <trkpt lat="44.77199" lon="4.25594">
        <ele>777</ele>
        <time>2019-12-22T14:28:23Z</time>
      </trkpt>
      <trkpt lat="44.77232" lon="4.25627">
        <ele>790</ele>
        <time>2019-12-22T14:28:30Z</time>
      </trkpt>
      <trkpt lat="44.77269" lon="4.25642">
        <ele>792</ele>
        <time>2019-12-22T14:28:37Z</time>
      </trkpt>
      <trkpt lat="44.77284" lon="4.25653">
        <ele>792</ele>
        <time>2019-12-22T14:28:40Z</time>
      </trkpt>
      <trkpt lat="44.77335" lon="4.25705">
        <ele>793</ele>
        <time>2019-12-22T14:28:51Z</time>
      </trkpt>
      <trkpt lat="44.77356" lon="4.25757">
        <ele>807</ele>
        <time>2019-12-22T14:28:59Z</time>
      </trkpt>
      <trkpt lat="44.77371" lon="4.25771">
        <ele>809</ele>
        <time>2019-12-22T14:29:02Z</time>
      </trkpt>
      <trkpt lat="44.77389" lon="4.25781">
        <ele>809</ele>
        <time>2019-12-22T14:29:06Z</time>
      </trkpt>
      <trkpt lat="44.77418" lon="4.25793">
        <ele>808</ele>
        <time>2019-12-22T14:29:11Z</time>
      </trkpt>
      <trkpt lat="44.77465" lon="4.25781">
        <ele>804</ele>
        <time>2019-12-22T14:29:19Z</time>
      </trkpt>
      <trkpt lat="44.77509" lon="4.25739">
        <ele>795</ele>
        <time>2019-12-22T14:29:29Z</time>
      </trkpt>
      <trkpt lat="44.77522" lon="4.25735">
        <ele>795</ele>
        <time>2019-12-22T14:29:31Z</time>
      </trkpt>
      <trkpt lat="44.77535" lon="4.25742">
        <ele>793</ele>
        <time>2019-12-22T14:29:34Z</time>
      </trkpt>
      <trkpt lat="44.77569" lon="4.25774">
        <ele>799</ele>
        <time>2019-12-22T14:29:41Z</time>
      </trkpt>
      <trkpt lat="44.77575" lon="4.25775">
        <ele>799</ele>
        <time>2019-12-22T14:29:42Z</time>
      </trkpt>
      <trkpt lat="44.7758" lon="4.25773">
        <ele>798</ele>
        <time>2019-12-22T14:29:43Z</time>
      </trkpt>
      <trkpt lat="44.77611" lon="4.25733">
        <ele>797</ele>
        <time>2019-12-22T14:29:50Z</time>
      </trkpt>
      <trkpt lat="44.77628" lon="4.25714">
        <ele>798</ele>
        <time>2019-12-22T14:29:54Z</time>
      </trkpt>
      <trkpt lat="44.7766" lon="4.25693">
        <ele>799</ele>
        <time>2019-12-22T14:30:01Z</time>
      </trkpt>
      <trkpt lat="44.77665" lon="4.2568">
        <ele>796</ele>
        <time>2019-12-22T14:30:02Z</time>
      </trkpt>
      <trkpt lat="44.77665" lon="4.25668">
        <ele>793</ele>
        <time>2019-12-22T14:30:04Z</time>
      </trkpt>
      <trkpt lat="44.77644" lon="4.25637">
        <ele>792</ele>
        <time>2019-12-22T14:30:09Z</time>
      </trkpt>
      <trkpt lat="44.7764" lon="4.25622">
        <ele>793</ele>
        <time>2019-12-22T14:30:11Z</time>
      </trkpt>
      <trkpt lat="44.77641" lon="4.25608">
        <ele>794</ele>
        <time>2019-12-22T14:30:13Z</time>
      </trkpt>
      <trkpt lat="44.77647" lon="4.25598">
        <ele>794</ele>
        <time>2019-12-22T14:30:15Z</time>
      </trkpt>
      <trkpt lat="44.77666" lon="4.25575">
        <ele>795</ele>
        <time>2019-12-22T14:30:19Z</time>
      </trkpt>
      <trkpt lat="44.77668" lon="4.25566">
        <ele>797</ele>
        <time>2019-12-22T14:30:20Z</time>
      </trkpt>
      <trkpt lat="44.77666" lon="4.25558">
        <ele>799</ele>
        <time>2019-12-22T14:30:22Z</time>
      </trkpt>
      <trkpt lat="44.77662" lon="4.25553">
        <ele>801</ele>
        <time>2019-12-22T14:30:23Z</time>
      </trkpt>
      <trkpt lat="44.77657" lon="4.25554">
        <ele>801</ele>
        <time>2019-12-22T14:30:23Z</time>
      </trkpt>
      <trkpt lat="44.77644" lon="4.25569">
        <ele>799</ele>
        <time>2019-12-22T14:30:26Z</time>
      </trkpt>
      <trkpt lat="44.77636" lon="4.25573">
        <ele>799</ele>
        <time>2019-12-22T14:30:28Z</time>
      </trkpt>
      <trkpt lat="44.77628" lon="4.25574">
        <ele>799</ele>
        <time>2019-12-22T14:30:29Z</time>
      </trkpt>
      <trkpt lat="44.77592" lon="4.25553">
        <ele>807</ele>
        <time>2019-12-22T14:30:36Z</time>
      </trkpt>
      <trkpt lat="44.77581" lon="4.25539">
        <ele>812</ele>
        <time>2019-12-22T14:30:39Z</time>
      </trkpt>
      <trkpt lat="44.77563" lon="4.25498">
        <ele>827</ele>
        <time>2019-12-22T14:30:45Z</time>
      </trkpt>
      <trkpt lat="44.77563" lon="4.25474">
        <ele>829</ele>
        <time>2019-12-22T14:30:48Z</time>
      </trkpt>
      <trkpt lat="44.77569" lon="4.25459">
        <ele>829</ele>
        <time>2019-12-22T14:30:50Z</time>
      </trkpt>
      <trkpt lat="44.77578" lon="4.2545">
        <ele>826</ele>
        <time>2019-12-22T14:30:52Z</time>
      </trkpt>
      <trkpt lat="44.77586" lon="4.25452">
        <ele>824</ele>
        <time>2019-12-22T14:30:54Z</time>
      </trkpt>
      <trkpt lat="44.77595" lon="4.25459">
        <ele>823</ele>
        <time>2019-12-22T14:30:55Z</time>
      </trkpt>
      <trkpt lat="44.77602" lon="4.25487">
        <ele>820</ele>
        <time>2019-12-22T14:30:59Z</time>
      </trkpt>
      <trkpt lat="44.77604" lon="4.25526">
        <ele>812</ele>
        <time>2019-12-22T14:31:04Z</time>
      </trkpt>
      <trkpt lat="44.77612" lon="4.25534">
        <ele>810</ele>
        <time>2019-12-22T14:31:06Z</time>
      </trkpt>
      <trkpt lat="44.77624" lon="4.25534">
        <ele>809</ele>
        <time>2019-12-22T14:31:08Z</time>
      </trkpt>
      <trkpt lat="44.77669" lon="4.25482">
        <ele>818</ele>
        <time>2019-12-22T14:31:18Z</time>
      </trkpt>
      <trkpt lat="44.777" lon="4.25422">
        <ele>829</ele>
        <time>2019-12-22T14:31:28Z</time>
      </trkpt>
      <trkpt lat="44.77723" lon="4.2541">
        <ele>831</ele>
        <time>2019-12-22T14:31:32Z</time>
      </trkpt>
      <trkpt lat="44.77802" lon="4.25419">
        <ele>836</ele>
        <time>2019-12-22T14:31:46Z</time>
      </trkpt>
      <trkpt lat="44.77831" lon="4.25429">
        <ele>839</ele>
        <time>2019-12-22T14:31:52Z</time>
      </trkpt>
      <trkpt lat="44.77888" lon="4.25477">
        <ele>837</ele>
        <time>2019-12-22T14:32:03Z</time>
      </trkpt>
      <trkpt lat="44.77901" lon="4.25485">
        <ele>837</ele>
        <time>2019-12-22T14:32:06Z</time>
      </trkpt>
      <trkpt lat="44.77918" lon="4.25487">
        <ele>840</ele>
        <time>2019-12-22T14:32:09Z</time>
      </trkpt>
      <trkpt lat="44.77992" lon="4.25468">
        <ele>848</ele>
        <time>2019-12-22T14:32:22Z</time>
      </trkpt>
      <trkpt lat="44.78003" lon="4.25461">
        <ele>851</ele>
        <time>2019-12-22T14:32:24Z</time>
      </trkpt>
      <trkpt lat="44.7802" lon="4.25435">
        <ele>859</ele>
        <time>2019-12-22T14:32:29Z</time>
      </trkpt>
      <trkpt lat="44.78055" lon="4.25343">
        <ele>872</ele>
        <time>2019-12-22T14:32:42Z</time>
      </trkpt>
      <trkpt lat="44.78062" lon="4.25332">
        <ele>872</ele>
        <time>2019-12-22T14:32:44Z</time>
      </trkpt>
      <trkpt lat="44.7807" lon="4.25324">
        <ele>871</ele>
        <time>2019-12-22T14:32:46Z</time>
      </trkpt>
      <trkpt lat="44.78079" lon="4.25322">
        <ele>868</ele>
        <time>2019-12-22T14:32:47Z</time>
      </trkpt>
      <trkpt lat="44.78094" lon="4.25329">
        <ele>869</ele>
        <time>2019-12-22T14:32:50Z</time>
      </trkpt>
      <trkpt lat="44.781" lon="4.25338">
        <ele>870</ele>
        <time>2019-12-22T14:32:52Z</time>
      </trkpt>
      <trkpt lat="44.78108" lon="4.25364">
        <ele>872</ele>
        <time>2019-12-22T14:32:55Z</time>
      </trkpt>
      <trkpt lat="44.7811" lon="4.25385">
        <ele>871</ele>
        <time>2019-12-22T14:32:58Z</time>
      </trkpt>
      <trkpt lat="44.78106" lon="4.25431">
        <ele>867</ele>
        <time>2019-12-22T14:33:04Z</time>
      </trkpt>
      <trkpt lat="44.78107" lon="4.2545">
        <ele>866</ele>
        <time>2019-12-22T14:33:06Z</time>
      </trkpt>
      <trkpt lat="44.78118" lon="4.25536">
        <ele>865</ele>
        <time>2019-12-22T14:33:17Z</time>
      </trkpt>
      <trkpt lat="44.78124" lon="4.25552">
        <ele>866</ele>
        <time>2019-12-22T14:33:20Z</time>
      </trkpt>
      <trkpt lat="44.78135" lon="4.25574">
        <ele>868</ele>
        <time>2019-12-22T14:33:23Z</time>
      </trkpt>
      <trkpt lat="44.78149" lon="4.25597">
        <ele>870</ele>
        <time>2019-12-22T14:33:27Z</time>
      </trkpt>
      <trkpt lat="44.78159" lon="4.25608">
        <ele>872</ele>
        <time>2019-12-22T14:33:29Z</time>
      </trkpt>
      <trkpt lat="44.78184" lon="4.25628">
        <ele>876</ele>
        <time>2019-12-22T14:33:34Z</time>
      </trkpt>
      <trkpt lat="44.78278" lon="4.25694">
        <ele>872</ele>
        <time>2019-12-22T14:33:53Z</time>
      </trkpt>
      <trkpt lat="44.78296" lon="4.25701">
        <ele>868</ele>
        <time>2019-12-22T14:33:56Z</time>
      </trkpt>
      <trkpt lat="44.78305" lon="4.25697">
        <ele>869</ele>
        <time>2019-12-22T14:33:58Z</time>
      </trkpt>
      <trkpt lat="44.78322" lon="4.25683">
        <ele>873</ele>
        <time>2019-12-22T14:34:01Z</time>
      </trkpt>
      <trkpt lat="44.78371" lon="4.25614">
        <ele>880</ele>
        <time>2019-12-22T14:34:14Z</time>
      </trkpt>
      <trkpt lat="44.78375" lon="4.25607">
        <ele>880</ele>
        <time>2019-12-22T14:34:15Z</time>
      </trkpt>
      <trkpt lat="44.78377" lon="4.25596">
        <ele>882</ele>
        <time>2019-12-22T14:34:16Z</time>
      </trkpt>
      <trkpt lat="44.78377" lon="4.25586">
        <ele>884</ele>
        <time>2019-12-22T14:34:17Z</time>
      </trkpt>
      <trkpt lat="44.78365" lon="4.25506">
        <ele>900</ele>
        <time>2019-12-22T14:34:28Z</time>
      </trkpt>
      <trkpt lat="44.78364" lon="4.25476">
        <ele>905</ele>
        <time>2019-12-22T14:34:32Z</time>
      </trkpt>
      <trkpt lat="44.78365" lon="4.25449">
        <ele>910</ele>
        <time>2019-12-22T14:34:35Z</time>
      </trkpt>
      <trkpt lat="44.78369" lon="4.25404">
        <ele>916</ele>
        <time>2019-12-22T14:34:41Z</time>
      </trkpt>
      <trkpt lat="44.78374" lon="4.25387">
        <ele>918</ele>
        <time>2019-12-22T14:34:43Z</time>
      </trkpt>
      <trkpt lat="44.78394" lon="4.25355">
        <ele>917</ele>
        <time>2019-12-22T14:34:48Z</time>
      </trkpt>
      <trkpt lat="44.78403" lon="4.25346">
        <ele>915</ele>
        <time>2019-12-22T14:34:50Z</time>
      </trkpt>
      <trkpt lat="44.78415" lon="4.25342">
        <ele>911</ele>
        <time>2019-12-22T14:34:53Z</time>
      </trkpt>
      <trkpt lat="44.7844" lon="4.25339">
        <ele>908</ele>
        <time>2019-12-22T14:34:57Z</time>
      </trkpt>
      <trkpt lat="44.78472" lon="4.25325">
        <ele>908</ele>
        <time>2019-12-22T14:35:03Z</time>
      </trkpt>
      <trkpt lat="44.78526" lon="4.25316">
        <ele>906</ele>
        <time>2019-12-22T14:35:13Z</time>
      </trkpt>
      <trkpt lat="44.78538" lon="4.25312">
        <ele>907</ele>
        <time>2019-12-22T14:35:15Z</time>
      </trkpt>
      <trkpt lat="44.78553" lon="4.25303">
        <ele>908</ele>
        <time>2019-12-22T14:35:18Z</time>
      </trkpt>
      <trkpt lat="44.78565" lon="4.25292">
        <ele>911</ele>
        <time>2019-12-22T14:35:20Z</time>
      </trkpt>
      <trkpt lat="44.78579" lon="4.25269">
        <ele>916</ele>
        <time>2019-12-22T14:35:24Z</time>
      </trkpt>
      <trkpt lat="44.78585" lon="4.25262">
        <ele>918</ele>
        <time>2019-12-22T14:35:26Z</time>
      </trkpt>
      <trkpt lat="44.78593" lon="4.25258">
        <ele>919</ele>
        <time>2019-12-22T14:35:27Z</time>
      </trkpt>
      <trkpt lat="44.78599" lon="4.25258">
        <ele>919</ele>
        <time>2019-12-22T14:35:28Z</time>
      </trkpt>
      <trkpt lat="44.78622" lon="4.25265">
        <ele>917</ele>
        <time>2019-12-22T14:35:32Z</time>
      </trkpt>
      <trkpt lat="44.78637" lon="4.25266">
        <ele>917</ele>
        <time>2019-12-22T14:35:35Z</time>
      </trkpt>
      <trkpt lat="44.78648" lon="4.25263">
        <ele>918</ele>
        <time>2019-12-22T14:35:37Z</time>
      </trkpt>
      <trkpt lat="44.78658" lon="4.25257">
        <ele>920</ele>
        <time>2019-12-22T14:35:39Z</time>
      </trkpt>
      <trkpt lat="44.78666" lon="4.25249">
        <ele>923</ele>
        <time>2019-12-22T14:35:41Z</time>
      </trkpt>
      <trkpt lat="44.78682" lon="4.25239">
        <ele>933</ele>
        <time>2019-12-22T14:35:44Z</time>
      </trkpt>
      <trkpt lat="44.78695" lon="4.2524">
        <ele>936</ele>
        <time>2019-12-22T14:35:46Z</time>
      </trkpt>
      <trkpt lat="44.78701" lon="4.25244">
        <ele>937</ele>
        <time>2019-12-22T14:35:47Z</time>
      </trkpt>
      <trkpt lat="44.78707" lon="4.25253">
        <ele>936</ele>
        <time>2019-12-22T14:35:49Z</time>
      </trkpt>
      <trkpt lat="44.78727" lon="4.25302">
        <ele>927</ele>
        <time>2019-12-22T14:35:56Z</time>
      </trkpt>
      <trkpt lat="44.78735" lon="4.25318">
        <ele>925</ele>
        <time>2019-12-22T14:35:58Z</time>
      </trkpt>
      <trkpt lat="44.78796" lon="4.25379">
        <ele>930</ele>
        <time>2019-12-22T14:36:12Z</time>
      </trkpt>
      <trkpt lat="44.78819" lon="4.25387">
        <ele>935</ele>
        <time>2019-12-22T14:36:16Z</time>
      </trkpt>
      <trkpt lat="44.78845" lon="4.2539">
        <ele>942</ele>
        <time>2019-12-22T14:36:21Z</time>
      </trkpt>
      <trkpt lat="44.78855" lon="4.25396">
        <ele>944</ele>
        <time>2019-12-22T14:36:23Z</time>
      </trkpt>
      <trkpt lat="44.78859" lon="4.25401">
        <ele>944</ele>
        <time>2019-12-22T14:36:23Z</time>
      </trkpt>
      <trkpt lat="44.78864" lon="4.25414">
        <ele>943</ele>
        <time>2019-12-22T14:36:25Z</time>
      </trkpt>
      <trkpt lat="44.78865" lon="4.25424">
        <ele>943</ele>
        <time>2019-12-22T14:36:27Z</time>
      </trkpt>
      <trkpt lat="44.78854" lon="4.25473">
        <ele>935</ele>
        <time>2019-12-22T14:36:33Z</time>
      </trkpt>
      <trkpt lat="44.78854" lon="4.25491">
        <ele>934</ele>
        <time>2019-12-22T14:36:35Z</time>
      </trkpt>
      <trkpt lat="44.78856" lon="4.25504">
        <ele>934</ele>
        <time>2019-12-22T14:36:37Z</time>
      </trkpt>
      <trkpt lat="44.78872" lon="4.25542">
        <ele>938</ele>
        <time>2019-12-22T14:36:43Z</time>
      </trkpt>
      <trkpt lat="44.78872" lon="4.25589">
        <ele>934</ele>
        <time>2019-12-22T14:36:49Z</time>
      </trkpt>
      <trkpt lat="44.7888" lon="4.25617">
        <ele>936</ele>
        <time>2019-12-22T14:36:52Z</time>
      </trkpt>
      <trkpt lat="44.78883" lon="4.25634">
        <ele>935</ele>
        <time>2019-12-22T14:36:55Z</time>
      </trkpt>
      <trkpt lat="44.78884" lon="4.25652">
        <ele>934</ele>
        <time>2019-12-22T14:36:57Z</time>
      </trkpt>
      <trkpt lat="44.78882" lon="4.25708">
        <ele>926</ele>
        <time>2019-12-22T14:37:04Z</time>
      </trkpt>
      <trkpt lat="44.78885" lon="4.25728">
        <ele>925</ele>
        <time>2019-12-22T14:37:07Z</time>
      </trkpt>
      <trkpt lat="44.78889" lon="4.25738">
        <ele>924</ele>
        <time>2019-12-22T14:37:08Z</time>
      </trkpt>
      <trkpt lat="44.78893" lon="4.25744">
        <ele>925</ele>
        <time>2019-12-22T14:37:09Z</time>
      </trkpt>
      <trkpt lat="44.78899" lon="4.25746">
        <ele>926</ele>
        <time>2019-12-22T14:37:10Z</time>
      </trkpt>
      <trkpt lat="44.78906" lon="4.25746">
        <ele>929</ele>
        <time>2019-12-22T14:37:11Z</time>
      </trkpt>
      <trkpt lat="44.78916" lon="4.25742">
        <ele>933</ele>
        <time>2019-12-22T14:37:13Z</time>
      </trkpt>
      <trkpt lat="44.78937" lon="4.2574">
        <ele>937</ele>
        <time>2019-12-22T14:37:17Z</time>
      </trkpt>
      <trkpt lat="44.78986" lon="4.25758">
        <ele>941</ele>
        <time>2019-12-22T14:37:26Z</time>
      </trkpt>
      <trkpt lat="44.79003" lon="4.25769">
        <ele>941</ele>
        <time>2019-12-22T14:37:29Z</time>
      </trkpt>
      <trkpt lat="44.79016" lon="4.25782">
        <ele>942</ele>
        <time>2019-12-22T14:37:32Z</time>
      </trkpt>
      <trkpt lat="44.79037" lon="4.2581">
        <ele>942</ele>
        <time>2019-12-22T14:37:37Z</time>
      </trkpt>
      <trkpt lat="44.79088" lon="4.25866">
        <ele>945</ele>
        <time>2019-12-22T14:37:49Z</time>
      </trkpt>
      <trkpt lat="44.79097" lon="4.25872">
        <ele>946</ele>
        <time>2019-12-22T14:37:51Z</time>
      </trkpt>
      <trkpt lat="44.7911" lon="4.25884">
        <ele>947</ele>
        <time>2019-12-22T14:37:53Z</time>
      </trkpt>
      <trkpt lat="44.79112" lon="4.25894">
        <ele>946</ele>
        <time>2019-12-22T14:37:55Z</time>
      </trkpt>
      <trkpt lat="44.79111" lon="4.25902">
        <ele>943</ele>
        <time>2019-12-22T14:37:56Z</time>
      </trkpt>
      <trkpt lat="44.79105" lon="4.25912">
        <ele>938</ele>
        <time>2019-12-22T14:37:57Z</time>
      </trkpt>
      <trkpt lat="44.7907" lon="4.25951">
        <ele>932</ele>
        <time>2019-12-22T14:38:05Z</time>
      </trkpt>
      <trkpt lat="44.79061" lon="4.25958">
        <ele>933</ele>
        <time>2019-12-22T14:38:07Z</time>
      </trkpt>
      <trkpt lat="44.79051" lon="4.25959">
        <ele>933</ele>
        <time>2019-12-22T14:38:09Z</time>
      </trkpt>
      <trkpt lat="44.79012" lon="4.25953">
        <ele>933</ele>
        <time>2019-12-22T14:38:16Z</time>
      </trkpt>
      <trkpt lat="44.79006" lon="4.25955">
        <ele>934</ele>
        <time>2019-12-22T14:38:17Z</time>
      </trkpt>
      <trkpt lat="44.78951" lon="4.25976">
        <ele>942</ele>
        <time>2019-12-22T14:38:27Z</time>
      </trkpt>
      <trkpt lat="44.78928" lon="4.25993">
        <ele>948</ele>
        <time>2019-12-22T14:38:32Z</time>
      </trkpt>
      <trkpt lat="44.78919" lon="4.25991">
        <ele>948</ele>
        <time>2019-12-22T14:38:33Z</time>
      </trkpt>
      <trkpt lat="44.78875" lon="4.25959">
        <ele>946</ele>
        <time>2019-12-22T14:38:42Z</time>
      </trkpt>
      <trkpt lat="44.78799" lon="4.25929">
        <ele>956</ele>
        <time>2019-12-22T14:38:56Z</time>
      </trkpt>
      <trkpt lat="44.78781" lon="4.2592">
        <ele>959</ele>
        <time>2019-12-22T14:39:00Z</time>
      </trkpt>
      <trkpt lat="44.78758" lon="4.25901">
        <ele>960</ele>
        <time>2019-12-22T14:39:04Z</time>
      </trkpt>
      <trkpt lat="44.78723" lon="4.25859">
        <ele>963</ele>
        <time>2019-12-22T14:39:13Z</time>
      </trkpt>
      <trkpt lat="44.78711" lon="4.2584">
        <ele>964</ele>
        <time>2019-12-22T14:39:16Z</time>
      </trkpt>
      <trkpt lat="44.787" lon="4.2581">
        <ele>965</ele>
        <time>2019-12-22T14:39:20Z</time>
      </trkpt>
      <trkpt lat="44.78696" lon="4.25771">
        <ele>961</ele>
        <time>2019-12-22T14:39:25Z</time>
      </trkpt>
      <trkpt lat="44.7869" lon="4.25756">
        <ele>962</ele>
        <time>2019-12-22T14:39:27Z</time>
      </trkpt>
      <trkpt lat="44.78685" lon="4.25751">
        <ele>964</ele>
        <time>2019-12-22T14:39:28Z</time>
      </trkpt>
      <trkpt lat="44.7868" lon="4.25749">
        <ele>966</ele>
        <time>2019-12-22T14:39:29Z</time>
      </trkpt>
      <trkpt lat="44.78675" lon="4.2575">
        <ele>969</ele>
        <time>2019-12-22T14:39:30Z</time>
      </trkpt>
      <trkpt lat="44.78671" lon="4.25754">
        <ele>971</ele>
        <time>2019-12-22T14:39:31Z</time>
      </trkpt>
      <trkpt lat="44.7867" lon="4.2576">
        <ele>973</ele>
        <time>2019-12-22T14:39:32Z</time>
      </trkpt>
      <trkpt lat="44.78696" lon="4.25863">
        <ele>976</ele>
        <time>2019-12-22T14:39:46Z</time>
      </trkpt>
      <trkpt lat="44.78708" lon="4.25893">
        <ele>977</ele>
        <time>2019-12-22T14:39:50Z</time>
      </trkpt>
      <trkpt lat="44.78722" lon="4.2592">
        <ele>978</ele>
        <time>2019-12-22T14:39:54Z</time>
      </trkpt>
      <trkpt lat="44.78753" lon="4.25964">
        <ele>980</ele>
        <time>2019-12-22T14:40:02Z</time>
      </trkpt>
      <trkpt lat="44.78775" lon="4.25988">
        <ele>982</ele>
        <time>2019-12-22T14:40:07Z</time>
      </trkpt>
      <trkpt lat="44.78812" lon="4.26021">
        <ele>982</ele>
        <time>2019-12-22T14:40:15Z</time>
      </trkpt>
      <trkpt lat="44.78826" lon="4.26041">
        <ele>983</ele>
        <time>2019-12-22T14:40:18Z</time>
      </trkpt>
      <trkpt lat="44.78905" lon="4.26196">
        <ele>1007</ele>
        <time>2019-12-22T14:40:42Z</time>
      </trkpt>
      <trkpt lat="44.78913" lon="4.26202">
        <ele>1006</ele>
        <time>2019-12-22T14:40:44Z</time>
      </trkpt>
      <trkpt lat="44.78922" lon="4.26205">
        <ele>1005</ele>
        <time>2019-12-22T14:40:46Z</time>
      </trkpt>
      <trkpt lat="44.78936" lon="4.26205">
        <ele>1004</ele>
        <time>2019-12-22T14:40:48Z</time>
      </trkpt>
      <trkpt lat="44.78955" lon="4.26195">
        <ele>1000</ele>
        <time>2019-12-22T14:40:52Z</time>
      </trkpt>
      <trkpt lat="44.7897" lon="4.26184">
        <ele>997</ele>
        <time>2019-12-22T14:40:55Z</time>
      </trkpt>
      <trkpt lat="44.78975" lon="4.26183">
        <ele>996</ele>
        <time>2019-12-22T14:40:56Z</time>
      </trkpt>
      <trkpt lat="44.78979" lon="4.26185">
        <ele>996</ele>
        <time>2019-12-22T14:40:56Z</time>
      </trkpt>
      <trkpt lat="44.78983" lon="4.2619">
        <ele>997</ele>
        <time>2019-12-22T14:40:57Z</time>
      </trkpt>
      <trkpt lat="44.78984" lon="4.26202">
        <ele>1000</ele>
        <time>2019-12-22T14:40:59Z</time>
      </trkpt>
      <trkpt lat="44.78982" lon="4.26208">
        <ele>1002</ele>
        <time>2019-12-22T14:41:00Z</time>
      </trkpt>
      <trkpt lat="44.78968" lon="4.26219">
        <ele>1005</ele>
        <time>2019-12-22T14:41:02Z</time>
      </trkpt>
      <trkpt lat="44.78961" lon="4.26228">
        <ele>1008</ele>
        <time>2019-12-22T14:41:04Z</time>
      </trkpt>
      <trkpt lat="44.78937" lon="4.26284">
        <ele>1025</ele>
        <time>2019-12-22T14:41:12Z</time>
      </trkpt>
      <trkpt lat="44.78933" lon="4.2629">
        <ele>1027</ele>
        <time>2019-12-22T14:41:13Z</time>
      </trkpt>
      <trkpt lat="44.78923" lon="4.26295">
        <ele>1029</ele>
        <time>2019-12-22T14:41:15Z</time>
      </trkpt>
      <trkpt lat="44.78933" lon="4.26308">
        <ele>1032</ele>
        <time>2019-12-22T14:41:18Z</time>
      </trkpt>
      <trkpt lat="44.78939" lon="4.26309">
        <ele>1032</ele>
        <time>2019-12-22T14:41:19Z</time>
      </trkpt>
      <trkpt lat="44.78946" lon="4.26304">
        <ele>1030</ele>
        <time>2019-12-22T14:41:20Z</time>
      </trkpt>
      <trkpt lat="44.78976" lon="4.26257">
        <ele>1015</ele>
        <time>2019-12-22T14:41:28Z</time>
      </trkpt>
      <trkpt lat="44.78979" lon="4.26259">
        <ele>1015</ele>
        <time>2019-12-22T14:41:29Z</time>
      </trkpt>
      <trkpt lat="44.78997" lon="4.2625">
        <ele>1011</ele>
        <time>2019-12-22T14:41:32Z</time>
      </trkpt>
      <trkpt lat="44.79003" lon="4.26266">
        <ele>1014</ele>
        <time>2019-12-22T14:41:35Z</time>
      </trkpt>
      <trkpt lat="44.79025" lon="4.26361">
        <ele>1031</ele>
        <time>2019-12-22T14:41:47Z</time>
      </trkpt>
      <trkpt lat="44.7903" lon="4.26374">
        <ele>1033</ele>
        <time>2019-12-22T14:41:49Z</time>
      </trkpt>
      <trkpt lat="44.79042" lon="4.26388">
        <ele>1033</ele>
        <time>2019-12-22T14:41:52Z</time>
      </trkpt>
      <trkpt lat="44.79054" lon="4.2641">
        <ele>1035</ele>
        <time>2019-12-22T14:41:55Z</time>
      </trkpt>
      <trkpt lat="44.79061" lon="4.26446">
        <ele>1042</ele>
        <time>2019-12-22T14:42:00Z</time>
      </trkpt>
      <trkpt lat="44.7906" lon="4.26468">
        <ele>1047</ele>
        <time>2019-12-22T14:42:03Z</time>
      </trkpt>
      <trkpt lat="44.79063" lon="4.26493">
        <ele>1052</ele>
        <time>2019-12-22T14:42:06Z</time>
      </trkpt>
      <trkpt lat="44.79071" lon="4.26519">
        <ele>1054</ele>
        <time>2019-12-22T14:42:10Z</time>
      </trkpt>
      <trkpt lat="44.79084" lon="4.26535">
        <ele>1050</ele>
        <time>2019-12-22T14:42:13Z</time>
      </trkpt>
      <trkpt lat="44.7909" lon="4.26553">
        <ele>1050</ele>
        <time>2019-12-22T14:42:15Z</time>
      </trkpt>
      <trkpt lat="44.79091" lon="4.26582">
        <ele>1054</ele>
        <time>2019-12-22T14:42:19Z</time>
      </trkpt>
      <trkpt lat="44.79096" lon="4.26623">
        <ele>1053</ele>
        <time>2019-12-22T14:42:24Z</time>
      </trkpt>
      <trkpt lat="44.79104" lon="4.2666">
        <ele>1051</ele>
        <time>2019-12-22T14:42:29Z</time>
      </trkpt>
      <trkpt lat="44.79118" lon="4.2669">
        <ele>1043</ele>
        <time>2019-12-22T14:42:33Z</time>
      </trkpt>
      <trkpt lat="44.79117" lon="4.2672">
        <ele>1044</ele>
        <time>2019-12-22T14:42:37Z</time>
      </trkpt>
      <trkpt lat="44.79119" lon="4.26744">
        <ele>1043</ele>
        <time>2019-12-22T14:42:40Z</time>
      </trkpt>
      <trkpt lat="44.79125" lon="4.26785">
        <ele>1042</ele>
        <time>2019-12-22T14:42:46Z</time>
      </trkpt>
      <trkpt lat="44.79119" lon="4.26744">
        <ele>1043</ele>
        <time>2019-12-22T14:42:51Z</time>
      </trkpt>
      <trkpt lat="44.79117" lon="4.2672">
        <ele>1044</ele>
        <time>2019-12-22T14:42:54Z</time>
      </trkpt>
      <trkpt lat="44.79118" lon="4.2669">
        <ele>1043</ele>
        <time>2019-12-22T14:42:58Z</time>
      </trkpt>
      <trkpt lat="44.79104" lon="4.2666">
        <ele>1051</ele>
        <time>2019-12-22T14:43:02Z</time>
      </trkpt>
      <trkpt lat="44.79096" lon="4.26623">
        <ele>1053</ele>
        <time>2019-12-22T14:43:07Z</time>
      </trkpt>
      <trkpt lat="44.79091" lon="4.26582">
        <ele>1054</ele>
        <time>2019-12-22T14:43:12Z</time>
      </trkpt>
      <trkpt lat="44.7909" lon="4.26553">
        <ele>1050</ele>
        <time>2019-12-22T14:43:16Z</time>
      </trkpt>
      <trkpt lat="44.79084" lon="4.26535">
        <ele>1050</ele>
        <time>2019-12-22T14:43:19Z</time>
      </trkpt>
      <trkpt lat="44.79071" lon="4.26519">
        <ele>1054</ele>
        <time>2019-12-22T14:43:22Z</time>
      </trkpt>
      <trkpt lat="44.79063" lon="4.26493">
        <ele>1052</ele>
        <time>2019-12-22T14:43:25Z</time>
      </trkpt>
      <trkpt lat="44.7906" lon="4.26468">
        <ele>1047</ele>
        <time>2019-12-22T14:43:28Z</time>
      </trkpt>
      <trkpt lat="44.79061" lon="4.26446">
        <ele>1042</ele>
        <time>2019-12-22T14:43:31Z</time>
      </trkpt>
      <trkpt lat="44.79054" lon="4.2641">
        <ele>1035</ele>
        <time>2019-12-22T14:43:36Z</time>
      </trkpt>
      <trkpt lat="44.79042" lon="4.26388">
        <ele>1033</ele>
        <time>2019-12-22T14:43:39Z</time>
      </trkpt>
      <trkpt lat="44.7903" lon="4.26374">
        <ele>1033</ele>
        <time>2019-12-22T14:43:42Z</time>
      </trkpt>
      <trkpt lat="44.79025" lon="4.26361">
        <ele>1031</ele>
        <time>2019-12-22T14:43:44Z</time>
      </trkpt>
      <trkpt lat="44.79003" lon="4.26266">
        <ele>1014</ele>
        <time>2019-12-22T14:43:57Z</time>
      </trkpt>
      <trkpt lat="44.78997" lon="4.2625">
        <ele>1011</ele>
        <time>2019-12-22T14:43:59Z</time>
      </trkpt>
      <trkpt lat="44.78979" lon="4.26259">
        <ele>1015</ele>
        <time>2019-12-22T14:44:02Z</time>
      </trkpt>
      <trkpt lat="44.78976" lon="4.26257">
        <ele>1015</ele>
        <time>2019-12-22T14:44:03Z</time>
      </trkpt>
      <trkpt lat="44.78946" lon="4.26304">
        <ele>1030</ele>
        <time>2019-12-22T14:44:11Z</time>
      </trkpt>
      <trkpt lat="44.78939" lon="4.26309">
        <ele>1032</ele>
        <time>2019-12-22T14:44:12Z</time>
      </trkpt>
      <trkpt lat="44.78933" lon="4.26308">
        <ele>1032</ele>
        <time>2019-12-22T14:44:13Z</time>
      </trkpt>
      <trkpt lat="44.78923" lon="4.26295">
        <ele>1029</ele>
        <time>2019-12-22T14:44:16Z</time>
      </trkpt>
      <trkpt lat="44.78904" lon="4.26285">
        <ele>1032</ele>
        <time>2019-12-22T14:44:19Z</time>
      </trkpt>
      <trkpt lat="44.78828" lon="4.26181">
        <ele>1030</ele>
        <time>2019-12-22T14:44:38Z</time>
      </trkpt>
      <trkpt lat="44.78796" lon="4.26143">
        <ele>1030</ele>
        <time>2019-12-22T14:44:46Z</time>
      </trkpt>
      <trkpt lat="44.78783" lon="4.26123">
        <ele>1027</ele>
        <time>2019-12-22T14:44:49Z</time>
      </trkpt>
      <trkpt lat="44.78772" lon="4.26111">
        <ele>1027</ele>
        <time>2019-12-22T14:44:52Z</time>
      </trkpt>
      <trkpt lat="44.78744" lon="4.26095">
        <ele>1031</ele>
        <time>2019-12-22T14:44:57Z</time>
      </trkpt>
      <trkpt lat="44.78695" lon="4.26076">
        <ele>1039</ele>
        <time>2019-12-22T14:45:06Z</time>
      </trkpt>
      <trkpt lat="44.78636" lon="4.26033">
        <ele>1031</ele>
        <time>2019-12-22T14:45:18Z</time>
      </trkpt>
      <trkpt lat="44.78629" lon="4.2603">
        <ele>1029</ele>
        <time>2019-12-22T14:45:19Z</time>
      </trkpt>
      <trkpt lat="44.78621" lon="4.26034">
        <ele>1029</ele>
        <time>2019-12-22T14:45:21Z</time>
      </trkpt>
      <trkpt lat="44.78615" lon="4.26045">
        <ele>1031</ele>
        <time>2019-12-22T14:45:22Z</time>
      </trkpt>
      <trkpt lat="44.78615" lon="4.26051">
        <ele>1032</ele>
        <time>2019-12-22T14:45:23Z</time>
      </trkpt>
      <trkpt lat="44.78618" lon="4.26058">
        <ele>1035</ele>
        <time>2019-12-22T14:45:24Z</time>
      </trkpt>
      <trkpt lat="44.78622" lon="4.26062">
        <ele>1037</ele>
        <time>2019-12-22T14:45:25Z</time>
      </trkpt>
      <trkpt lat="44.78637" lon="4.26066">
        <ele>1041</ele>
        <time>2019-12-22T14:45:28Z</time>
      </trkpt>
      <trkpt lat="44.78654" lon="4.26075">
        <ele>1046</ele>
        <time>2019-12-22T14:45:31Z</time>
      </trkpt>
      <trkpt lat="44.78695" lon="4.26115">
        <ele>1053</ele>
        <time>2019-12-22T14:45:40Z</time>
      </trkpt>
      <trkpt lat="44.78731" lon="4.26141">
        <ele>1053</ele>
        <time>2019-12-22T14:45:47Z</time>
      </trkpt>
      <trkpt lat="44.78742" lon="4.26152">
        <ele>1055</ele>
        <time>2019-12-22T14:45:50Z</time>
      </trkpt>
      <trkpt lat="44.78749" lon="4.26164">
        <ele>1058</ele>
        <time>2019-12-22T14:45:51Z</time>
      </trkpt>
      <trkpt lat="44.78767" lon="4.26211">
        <ele>1068</ele>
        <time>2019-12-22T14:45:58Z</time>
      </trkpt>
      <trkpt lat="44.78782" lon="4.26241">
        <ele>1072</ele>
        <time>2019-12-22T14:46:03Z</time>
      </trkpt>
      <trkpt lat="44.78832" lon="4.26377">
        <ele>1083</ele>
        <time>2019-12-22T14:46:22Z</time>
      </trkpt>
      <trkpt lat="44.78846" lon="4.26409">
        <ele>1087</ele>
        <time>2019-12-22T14:46:27Z</time>
      </trkpt>
      <trkpt lat="44.789" lon="4.26474">
        <ele>1091</ele>
        <time>2019-12-22T14:46:40Z</time>
      </trkpt>
      <trkpt lat="44.78909" lon="4.26483">
        <ele>1091</ele>
        <time>2019-12-22T14:46:42Z</time>
      </trkpt>
      <trkpt lat="44.78925" lon="4.26489">
        <ele>1090</ele>
        <time>2019-12-22T14:46:44Z</time>
      </trkpt>
      <trkpt lat="44.78955" lon="4.2648">
        <ele>1082</ele>
        <time>2019-12-22T14:46:50Z</time>
      </trkpt>
      <trkpt lat="44.78963" lon="4.26481">
        <ele>1081</ele>
        <time>2019-12-22T14:46:51Z</time>
      </trkpt>
      <trkpt lat="44.78972" lon="4.26487">
        <ele>1082</ele>
        <time>2019-12-22T14:46:53Z</time>
      </trkpt>
      <trkpt lat="44.7898" lon="4.26498">
        <ele>1084</ele>
        <time>2019-12-22T14:46:55Z</time>
      </trkpt>
      <trkpt lat="44.79021" lon="4.2658">
        <ele>1093</ele>
        <time>2019-12-22T14:47:08Z</time>
      </trkpt>
      <trkpt lat="44.79027" lon="4.26596">
        <ele>1090</ele>
        <time>2019-12-22T14:47:10Z</time>
      </trkpt>
      <trkpt lat="44.79029" lon="4.26608">
        <ele>1089</ele>
        <time>2019-12-22T14:47:12Z</time>
      </trkpt>
      <trkpt lat="44.79029" lon="4.2662">
        <ele>1089</ele>
        <time>2019-12-22T14:47:13Z</time>
      </trkpt>
      <trkpt lat="44.79027" lon="4.26631">
        <ele>1090</ele>
        <time>2019-12-22T14:47:15Z</time>
      </trkpt>
      <trkpt lat="44.7902" lon="4.26645">
        <ele>1094</ele>
        <time>2019-12-22T14:47:17Z</time>
      </trkpt>
      <trkpt lat="44.78974" lon="4.26709">
        <ele>1111</ele>
        <time>2019-12-22T14:47:28Z</time>
      </trkpt>
      <trkpt lat="44.78964" lon="4.26728">
        <ele>1114</ele>
        <time>2019-12-22T14:47:31Z</time>
      </trkpt>
      <trkpt lat="44.78957" lon="4.26744">
        <ele>1117</ele>
        <time>2019-12-22T14:47:34Z</time>
      </trkpt>
      <trkpt lat="44.78953" lon="4.26761">
        <ele>1119</ele>
        <time>2019-12-22T14:47:36Z</time>
      </trkpt>
      <trkpt lat="44.78952" lon="4.26778">
        <ele>1120</ele>
        <time>2019-12-22T14:47:38Z</time>
      </trkpt>
      <trkpt lat="44.78953" lon="4.26801">
        <ele>1121</ele>
        <time>2019-12-22T14:47:41Z</time>
      </trkpt>
      <trkpt lat="44.78963" lon="4.26852">
        <ele>1121</ele>
        <time>2019-12-22T14:47:48Z</time>
      </trkpt>
      <trkpt lat="44.78971" lon="4.26883">
        <ele>1122</ele>
        <time>2019-12-22T14:47:52Z</time>
      </trkpt>
      <trkpt lat="44.78982" lon="4.26913">
        <ele>1121</ele>
        <time>2019-12-22T14:47:56Z</time>
      </trkpt>
      <trkpt lat="44.79" lon="4.2695">
        <ele>1120</ele>
        <time>2019-12-22T14:48:02Z</time>
      </trkpt>
      <trkpt lat="44.79078" lon="4.27094">
        <ele>1113</ele>
        <time>2019-12-22T14:48:25Z</time>
      </trkpt>
      <trkpt lat="44.79083" lon="4.27107">
        <ele>1111</ele>
        <time>2019-12-22T14:48:26Z</time>
      </trkpt>
      <trkpt lat="44.79083" lon="4.27123">
        <ele>1110</ele>
        <time>2019-12-22T14:48:28Z</time>
      </trkpt>
      <trkpt lat="44.79079" lon="4.27133">
        <ele>1111</ele>
        <time>2019-12-22T14:48:30Z</time>
      </trkpt>
      <trkpt lat="44.7905" lon="4.2716">
        <ele>1121</ele>
        <time>2019-12-22T14:48:36Z</time>
      </trkpt>
      <trkpt lat="44.79043" lon="4.27174">
        <ele>1123</ele>
        <time>2019-12-22T14:48:38Z</time>
      </trkpt>
      <trkpt lat="44.79037" lon="4.27257">
        <ele>1124</ele>
        <time>2019-12-22T14:48:49Z</time>
      </trkpt>
      <trkpt lat="44.79039" lon="4.27273">
        <ele>1125</ele>
        <time>2019-12-22T14:48:51Z</time>
      </trkpt>
      <trkpt lat="44.79046" lon="4.2729">
        <ele>1127</ele>
        <time>2019-12-22T14:48:53Z</time>
      </trkpt>
      <trkpt lat="44.79053" lon="4.273">
        <ele>1128</ele>
        <time>2019-12-22T14:48:55Z</time>
      </trkpt>
      <trkpt lat="44.79068" lon="4.27297">
        <ele>1127</ele>
        <time>2019-12-22T14:48:58Z</time>
      </trkpt>
      <trkpt lat="44.79088" lon="4.27286">
        <ele>1124</ele>
        <time>2019-12-22T14:49:02Z</time>
      </trkpt>
      <trkpt lat="44.7911" lon="4.27267">
        <ele>1122</ele>
        <time>2019-12-22T14:49:06Z</time>
      </trkpt>
      <trkpt lat="44.79157" lon="4.27238">
        <ele>1124</ele>
        <time>2019-12-22T14:49:15Z</time>
      </trkpt>
      <trkpt lat="44.79194" lon="4.27186">
        <ele>1115</ele>
        <time>2019-12-22T14:49:25Z</time>
      </trkpt>
      <trkpt lat="44.79202" lon="4.27184">
        <ele>1116</ele>
        <time>2019-12-22T14:49:26Z</time>
      </trkpt>
      <trkpt lat="44.79217" lon="4.27188">
        <ele>1119</ele>
        <time>2019-12-22T14:49:29Z</time>
      </trkpt>
      <trkpt lat="44.79273" lon="4.27227">
        <ele>1133</ele>
        <time>2019-12-22T14:49:40Z</time>
      </trkpt>
      <trkpt lat="44.7929" lon="4.27229">
        <ele>1134</ele>
        <time>2019-12-22T14:49:43Z</time>
      </trkpt>
      <trkpt lat="44.79335" lon="4.27212">
        <ele>1134</ele>
        <time>2019-12-22T14:49:51Z</time>
      </trkpt>
      <trkpt lat="44.79375" lon="4.27212">
        <ele>1135</ele>
        <time>2019-12-22T14:49:58Z</time>
      </trkpt>
      <trkpt lat="44.79443" lon="4.27226">
        <ele>1135</ele>
        <time>2019-12-22T14:50:11Z</time>
      </trkpt>
      <trkpt lat="44.79454" lon="4.27235">
        <ele>1134</ele>
        <time>2019-12-22T14:50:13Z</time>
      </trkpt>
      <trkpt lat="44.79468" lon="4.27287">
        <ele>1142</ele>
        <time>2019-12-22T14:50:20Z</time>
      </trkpt>
      <trkpt lat="44.79488" lon="4.2732">
        <ele>1145</ele>
        <time>2019-12-22T14:50:25Z</time>
      </trkpt>
      <trkpt lat="44.79516" lon="4.27349">
        <ele>1142</ele>
        <time>2019-12-22T14:50:32Z</time>
      </trkpt>
      <trkpt lat="44.79529" lon="4.27385">
        <ele>1145</ele>
        <time>2019-12-22T14:50:37Z</time>
      </trkpt>
      <trkpt lat="44.79538" lon="4.27432">
        <ele>1151</ele>
        <time>2019-12-22T14:50:43Z</time>
      </trkpt>
      <trkpt lat="44.79543" lon="4.27516">
        <ele>1162</ele>
        <time>2019-12-22T14:50:53Z</time>
      </trkpt>
      <trkpt lat="44.79574" lon="4.27645">
        <ele>1162</ele>
        <time>2019-12-22T14:51:11Z</time>
      </trkpt>
      <trkpt lat="44.79569" lon="4.27674">
        <ele>1165</ele>
        <time>2019-12-22T14:51:14Z</time>
      </trkpt>
      <trkpt lat="44.79559" lon="4.27697">
        <ele>1166</ele>
        <time>2019-12-22T14:51:18Z</time>
      </trkpt>
      <trkpt lat="44.79538" lon="4.27709">
        <ele>1172</ele>
        <time>2019-12-22T14:51:22Z</time>
      </trkpt>
      <trkpt lat="44.79477" lon="4.27779">
        <ele>1184</ele>
        <time>2019-12-22T14:51:36Z</time>
      </trkpt>
      <trkpt lat="44.79457" lon="4.27846">
        <ele>1184</ele>
        <time>2019-12-22T14:51:45Z</time>
      </trkpt>
      <trkpt lat="44.79451" lon="4.27873">
        <ele>1186</ele>
        <time>2019-12-22T14:51:49Z</time>
      </trkpt>
      <trkpt lat="44.79451" lon="4.27895">
        <ele>1186</ele>
        <time>2019-12-22T14:51:51Z</time>
      </trkpt>
      <trkpt lat="44.79491" lon="4.2804">
        <ele>1180</ele>
        <time>2019-12-22T14:52:11Z</time>
      </trkpt>
      <trkpt lat="44.79494" lon="4.28074">
        <ele>1182</ele>
        <time>2019-12-22T14:52:15Z</time>
      </trkpt>
      <trkpt lat="44.79522" lon="4.2814">
        <ele>1177</ele>
        <time>2019-12-22T14:52:25Z</time>
      </trkpt>
      <trkpt lat="44.79526" lon="4.28159">
        <ele>1176</ele>
        <time>2019-12-22T14:52:28Z</time>
      </trkpt>
      <trkpt lat="44.7952" lon="4.28181">
        <ele>1178</ele>
        <time>2019-12-22T14:52:31Z</time>
      </trkpt>
      <trkpt lat="44.79507" lon="4.282">
        <ele>1180</ele>
        <time>2019-12-22T14:52:34Z</time>
      </trkpt>
      <trkpt lat="44.79478" lon="4.28214">
        <ele>1188</ele>
        <time>2019-12-22T14:52:39Z</time>
      </trkpt>
      <trkpt lat="44.79456" lon="4.28234">
        <ele>1193</ele>
        <time>2019-12-22T14:52:44Z</time>
      </trkpt>
      <trkpt lat="44.79418" lon="4.28358">
        <ele>1205</ele>
        <time>2019-12-22T14:53:01Z</time>
      </trkpt>
      <trkpt lat="44.79417" lon="4.28383">
        <ele>1205</ele>
        <time>2019-12-22T14:53:04Z</time>
      </trkpt>
      <trkpt lat="44.79434" lon="4.28435">
        <ele>1201</ele>
        <time>2019-12-22T14:53:11Z</time>
      </trkpt>
      <trkpt lat="44.79432" lon="4.2848">
        <ele>1206</ele>
        <time>2019-12-22T14:53:17Z</time>
      </trkpt>
      <trkpt lat="44.79414" lon="4.28594">
        <ele>1214</ele>
        <time>2019-12-22T14:53:32Z</time>
      </trkpt>
      <trkpt lat="44.79404" lon="4.28692">
        <ele>1217</ele>
        <time>2019-12-22T14:53:44Z</time>
      </trkpt>
      <trkpt lat="44.79396" lon="4.28728">
        <ele>1221</ele>
        <time>2019-12-22T14:53:49Z</time>
      </trkpt>
      <trkpt lat="44.79405" lon="4.2882">
        <ele>1215</ele>
        <time>2019-12-22T14:54:01Z</time>
      </trkpt>
      <trkpt lat="44.794" lon="4.28879">
        <ele>1214</ele>
        <time>2019-12-22T14:54:08Z</time>
      </trkpt>
      <trkpt lat="44.79395" lon="4.28903">
        <ele>1215</ele>
        <time>2019-12-22T14:54:12Z</time>
      </trkpt>
      <trkpt lat="44.79371" lon="4.28949">
        <ele>1221</ele>
        <time>2019-12-22T14:54:19Z</time>
      </trkpt>
      <trkpt lat="44.79366" lon="4.2897">
        <ele>1222</ele>
        <time>2019-12-22T14:54:22Z</time>
      </trkpt>
      <trkpt lat="44.7938" lon="4.29043">
        <ele>1213</ele>
        <time>2019-12-22T14:54:31Z</time>
      </trkpt>
      <trkpt lat="44.79373" lon="4.29115">
        <ele>1212</ele>
        <time>2019-12-22T14:54:40Z</time>
      </trkpt>
      <trkpt lat="44.79366" lon="4.29132">
        <ele>1213</ele>
        <time>2019-12-22T14:54:43Z</time>
      </trkpt>
      <trkpt lat="44.79341" lon="4.29143">
        <ele>1219</ele>
        <time>2019-12-22T14:54:47Z</time>
      </trkpt>
      <trkpt lat="44.79315" lon="4.29186">
        <ele>1221</ele>
        <time>2019-12-22T14:54:55Z</time>
      </trkpt>
      <trkpt lat="44.793" lon="4.29202">
        <ele>1222</ele>
        <time>2019-12-22T14:54:58Z</time>
      </trkpt>
      <trkpt lat="44.79251" lon="4.29232">
        <ele>1226</ele>
        <time>2019-12-22T14:55:07Z</time>
      </trkpt>
      <trkpt lat="44.79241" lon="4.29245">
        <ele>1225</ele>
        <time>2019-12-22T14:55:10Z</time>
      </trkpt>
      <trkpt lat="44.79236" lon="4.29294">
        <ele>1227</ele>
        <time>2019-12-22T14:55:16Z</time>
      </trkpt>
      <trkpt lat="44.79248" lon="4.2931">
        <ele>1227</ele>
        <time>2019-12-22T14:55:19Z</time>
      </trkpt>
      <trkpt lat="44.79259" lon="4.2931">
        <ele>1226</ele>
        <time>2019-12-22T14:55:21Z</time>
      </trkpt>
      <trkpt lat="44.79289" lon="4.2929">
        <ele>1222</ele>
        <time>2019-12-22T14:55:27Z</time>
      </trkpt>
      <trkpt lat="44.79317" lon="4.29286">
        <ele>1219</ele>
        <time>2019-12-22T14:55:32Z</time>
      </trkpt>
      <trkpt lat="44.79373" lon="4.29312">
        <ele>1216</ele>
        <time>2019-12-22T14:55:42Z</time>
      </trkpt>
      <trkpt lat="44.79396" lon="4.2936">
        <ele>1221</ele>
        <time>2019-12-22T14:55:50Z</time>
      </trkpt>
      <trkpt lat="44.79408" lon="4.29366">
        <ele>1221</ele>
        <time>2019-12-22T14:55:52Z</time>
      </trkpt>
      <trkpt lat="44.79422" lon="4.2936">
        <ele>1219</ele>
        <time>2019-12-22T14:55:55Z</time>
      </trkpt>
      <trkpt lat="44.79434" lon="4.29335">
        <ele>1214</ele>
        <time>2019-12-22T14:55:58Z</time>
      </trkpt>
      <trkpt lat="44.79457" lon="4.29318">
        <ele>1213</ele>
        <time>2019-12-22T14:56:03Z</time>
      </trkpt>
      <trkpt lat="44.79491" lon="4.29305">
        <ele>1212</ele>
        <time>2019-12-22T14:56:09Z</time>
      </trkpt>
      <trkpt lat="44.79601" lon="4.29411">
        <ele>1215</ele>
        <time>2019-12-22T14:56:33Z</time>
      </trkpt>
      <trkpt lat="44.79615" lon="4.29439">
        <ele>1217</ele>
        <time>2019-12-22T14:56:37Z</time>
      </trkpt>
      <trkpt lat="44.7967" lon="4.29602">
        <ele>1214</ele>
        <time>2019-12-22T14:57:00Z</time>
      </trkpt>
      <trkpt lat="44.79699" lon="4.29642">
        <ele>1223</ele>
        <time>2019-12-22T14:57:07Z</time>
      </trkpt>
      <trkpt lat="44.7971" lon="4.29676">
        <ele>1227</ele>
        <time>2019-12-22T14:57:12Z</time>
      </trkpt>
      <trkpt lat="44.79709" lon="4.29705">
        <ele>1229</ele>
        <time>2019-12-22T14:57:16Z</time>
      </trkpt>
      <trkpt lat="44.79685" lon="4.29793">
        <ele>1229</ele>
        <time>2019-12-22T14:57:28Z</time>
      </trkpt>
      <trkpt lat="44.79692" lon="4.29823">
        <ele>1232</ele>
        <time>2019-12-22T14:57:32Z</time>
      </trkpt>
      <trkpt lat="44.79706" lon="4.29821">
        <ele>1235</ele>
        <time>2019-12-22T14:57:34Z</time>
      </trkpt>
      <trkpt lat="44.79713" lon="4.2981">
        <ele>1236</ele>
        <time>2019-12-22T14:57:36Z</time>
      </trkpt>
      <trkpt lat="44.79721" lon="4.29754">
        <ele>1235</ele>
        <time>2019-12-22T14:57:43Z</time>
      </trkpt>
      <trkpt lat="44.7973" lon="4.29748">
        <ele>1237</ele>
        <time>2019-12-22T14:57:45Z</time>
      </trkpt>
      <trkpt lat="44.79735" lon="4.29759">
        <ele>1238</ele>
        <time>2019-12-22T14:57:47Z</time>
      </trkpt>
      <trkpt lat="44.7973" lon="4.29951">
        <ele>1248</ele>
        <time>2019-12-22T14:58:11Z</time>
      </trkpt>
      <trkpt lat="44.79743" lon="4.30045">
        <ele>1251</ele>
        <time>2019-12-22T14:58:23Z</time>
      </trkpt>
      <trkpt lat="44.79753" lon="4.30056">
        <ele>1253</ele>
        <time>2019-12-22T14:58:25Z</time>
      </trkpt>
      <trkpt lat="44.79759" lon="4.30054">
        <ele>1255</ele>
        <time>2019-12-22T14:58:26Z</time>
      </trkpt>
      <trkpt lat="44.79767" lon="4.30017">
        <ele>1257</ele>
        <time>2019-12-22T14:58:31Z</time>
      </trkpt>
      <trkpt lat="44.79787" lon="4.2994">
        <ele>1262</ele>
        <time>2019-12-22T14:58:41Z</time>
      </trkpt>
      <trkpt lat="44.79802" lon="4.29809">
        <ele>1262</ele>
        <time>2019-12-22T14:58:58Z</time>
      </trkpt>
      <trkpt lat="44.79828" lon="4.29734">
        <ele>1268</ele>
        <time>2019-12-22T14:59:09Z</time>
      </trkpt>
      <trkpt lat="44.79846" lon="4.29711">
        <ele>1270</ele>
        <time>2019-12-22T14:59:13Z</time>
      </trkpt>
      <trkpt lat="44.79937" lon="4.29623">
        <ele>1278</ele>
        <time>2019-12-22T14:59:33Z</time>
      </trkpt>
      <trkpt lat="44.79974" lon="4.29567">
        <ele>1280</ele>
        <time>2019-12-22T14:59:42Z</time>
      </trkpt>
      <trkpt lat="44.79982" lon="4.2955">
        <ele>1281</ele>
        <time>2019-12-22T14:59:45Z</time>
      </trkpt>
      <trkpt lat="44.79983" lon="4.29533">
        <ele>1282</ele>
        <time>2019-12-22T14:59:47Z</time>
      </trkpt>
      <trkpt lat="44.7998" lon="4.29517">
        <ele>1283</ele>
        <time>2019-12-22T14:59:49Z</time>
      </trkpt>
      <trkpt lat="44.79974" lon="4.29505">
        <ele>1282</ele>
        <time>2019-12-22T14:59:51Z</time>
      </trkpt>
      <trkpt lat="44.79943" lon="4.29459">
        <ele>1283</ele>
        <time>2019-12-22T14:59:59Z</time>
      </trkpt>
      <trkpt lat="44.79935" lon="4.29437">
        <ele>1284</ele>
        <time>2019-12-22T15:00:02Z</time>
      </trkpt>
      <trkpt lat="44.7993" lon="4.29417">
        <ele>1286</ele>
        <time>2019-12-22T15:00:05Z</time>
      </trkpt>
      <trkpt lat="44.79931" lon="4.29374">
        <ele>1289</ele>
        <time>2019-12-22T15:00:10Z</time>
      </trkpt>
      <trkpt lat="44.79936" lon="4.29344">
        <ele>1291</ele>
        <time>2019-12-22T15:00:14Z</time>
      </trkpt>
      <trkpt lat="44.79943" lon="4.29325">
        <ele>1292</ele>
        <time>2019-12-22T15:00:17Z</time>
      </trkpt>
      <trkpt lat="44.79953" lon="4.29312">
        <ele>1293</ele>
        <time>2019-12-22T15:00:19Z</time>
      </trkpt>
      <trkpt lat="44.79965" lon="4.29304">
        <ele>1293</ele>
        <time>2019-12-22T15:00:22Z</time>
      </trkpt>
      <trkpt lat="44.79988" lon="4.29296">
        <ele>1294</ele>
        <time>2019-12-22T15:00:26Z</time>
      </trkpt>
      <trkpt lat="44.8002" lon="4.29292">
        <ele>1295</ele>
        <time>2019-12-22T15:00:32Z</time>
      </trkpt>
      <trkpt lat="44.80048" lon="4.29295">
        <ele>1296</ele>
        <time>2019-12-22T15:00:37Z</time>
      </trkpt>
      <trkpt lat="44.80065" lon="4.29301">
        <ele>1297</ele>
        <time>2019-12-22T15:00:40Z</time>
      </trkpt>
      <trkpt lat="44.80166" lon="4.29351">
        <ele>1303</ele>
        <time>2019-12-22T15:00:59Z</time>
      </trkpt>
      <trkpt lat="44.80268" lon="4.29399">
        <ele>1306</ele>
        <time>2019-12-22T15:01:18Z</time>
      </trkpt>
      <trkpt lat="44.80314" lon="4.2941">
        <ele>1307</ele>
        <time>2019-12-22T15:01:26Z</time>
      </trkpt>
      <trkpt lat="44.80347" lon="4.29431">
        <ele>1309</ele>
        <time>2019-12-22T15:01:33Z</time>
      </trkpt>
      <trkpt lat="44.80365" lon="4.29435">
        <ele>1310</ele>
        <time>2019-12-22T15:01:36Z</time>
      </trkpt>
      <trkpt lat="44.80373" lon="4.29432">
        <ele>1310</ele>
        <time>2019-12-22T15:01:37Z</time>
      </trkpt>
      <trkpt lat="44.80395" lon="4.29417">
        <ele>1309</ele>
        <time>2019-12-22T15:01:42Z</time>
      </trkpt>
      <trkpt lat="44.80761" lon="4.29276">
        <ele>1309</ele>
        <time>2019-12-22T15:02:49Z</time>
      </trkpt>
      <trkpt lat="44.8078" lon="4.29266">
        <ele>1310</ele>
        <time>2019-12-22T15:02:53Z</time>
      </trkpt>
      <trkpt lat="44.80799" lon="4.29253">
        <ele>1311</ele>
        <time>2019-12-22T15:02:57Z</time>
      </trkpt>
      <trkpt lat="44.80908" lon="4.29157">
        <ele>1319</ele>
        <time>2019-12-22T15:03:19Z</time>
      </trkpt>
      <trkpt lat="44.80933" lon="4.29142">
        <ele>1320</ele>
        <time>2019-12-22T15:03:24Z</time>
      </trkpt>
      <trkpt lat="44.80941" lon="4.2914">
        <ele>1321</ele>
        <time>2019-12-22T15:03:26Z</time>
      </trkpt>
      <trkpt lat="44.8082" lon="4.29375">
        <ele>1315</ele>
        <time>2019-12-22T15:04:02Z</time>
      </trkpt>
      <trkpt lat="44.80815" lon="4.2939">
        <ele>1316</ele>
        <time>2019-12-22T15:04:04Z</time>
      </trkpt>
      <trkpt lat="44.80813" lon="4.29416">
        <ele>1316</ele>
        <time>2019-12-22T15:04:08Z</time>
      </trkpt>
      <trkpt lat="44.80805" lon="4.29419">
        <ele>1317</ele>
        <time>2019-12-22T15:04:09Z</time>
      </trkpt>
      <trkpt lat="44.80797" lon="4.29429">
        <ele>1317</ele>
        <time>2019-12-22T15:04:11Z</time>
      </trkpt>
      <trkpt lat="44.8077" lon="4.29505">
        <ele>1320</ele>
        <time>2019-12-22T15:04:22Z</time>
      </trkpt>
      <trkpt lat="44.80755" lon="4.29537">
        <ele>1323</ele>
        <time>2019-12-22T15:04:27Z</time>
      </trkpt>
      <trkpt lat="44.80737" lon="4.29562">
        <ele>1325</ele>
        <time>2019-12-22T15:04:31Z</time>
      </trkpt>
      <trkpt lat="44.80726" lon="4.29573">
        <ele>1326</ele>
        <time>2019-12-22T15:04:34Z</time>
      </trkpt>
      <trkpt lat="44.80687" lon="4.29591">
        <ele>1328</ele>
        <time>2019-12-22T15:04:41Z</time>
      </trkpt>
      <trkpt lat="44.80666" lon="4.29611">
        <ele>1331</ele>
        <time>2019-12-22T15:04:45Z</time>
      </trkpt>
      <trkpt lat="44.80606" lon="4.29686">
        <ele>1338</ele>
        <time>2019-12-22T15:05:00Z</time>
      </trkpt>
      <trkpt lat="44.80554" lon="4.29726">
        <ele>1340</ele>
        <time>2019-12-22T15:05:10Z</time>
      </trkpt>
      <trkpt lat="44.80558" lon="4.29741">
        <ele>1341</ele>
        <time>2019-12-22T15:05:12Z</time>
      </trkpt>
      <trkpt lat="44.80562" lon="4.29747">
        <ele>1341</ele>
        <time>2019-12-22T15:05:13Z</time>
      </trkpt>
      <trkpt lat="44.8058" lon="4.29757">
        <ele>1342</ele>
        <time>2019-12-22T15:05:17Z</time>
      </trkpt>
      <trkpt lat="44.80595" lon="4.29776">
        <ele>1342</ele>
        <time>2019-12-22T15:05:20Z</time>
      </trkpt>
      <trkpt lat="44.80599" lon="4.29786">
        <ele>1343</ele>
        <time>2019-12-22T15:05:22Z</time>
      </trkpt>
      <trkpt lat="44.806" lon="4.29804">
        <ele>1344</ele>
        <time>2019-12-22T15:05:24Z</time>
      </trkpt>
      <trkpt lat="44.80592" lon="4.29907">
        <ele>1351</ele>
        <time>2019-12-22T15:05:37Z</time>
      </trkpt>
      <trkpt lat="44.80587" lon="4.29924">
        <ele>1353</ele>
        <time>2019-12-22T15:05:39Z</time>
      </trkpt>
      <trkpt lat="44.80565" lon="4.29964">
        <ele>1358</ele>
        <time>2019-12-22T15:05:46Z</time>
      </trkpt>
      <trkpt lat="44.80563" lon="4.29986">
        <ele>1360</ele>
        <time>2019-12-22T15:05:49Z</time>
      </trkpt>
      <trkpt lat="44.80558" lon="4.29999">
        <ele>1361</ele>
        <time>2019-12-22T15:05:51Z</time>
      </trkpt>
      <trkpt lat="44.80559" lon="4.30018">
        <ele>1362</ele>
        <time>2019-12-22T15:05:53Z</time>
      </trkpt>
      <trkpt lat="44.80562" lon="4.30036">
        <ele>1363</ele>
        <time>2019-12-22T15:05:55Z</time>
      </trkpt>
      <trkpt lat="44.80561" lon="4.3006">
        <ele>1365</ele>
        <time>2019-12-22T15:05:58Z</time>
      </trkpt>
      <trkpt lat="44.8055" lon="4.30062">
        <ele>1367</ele>
        <time>2019-12-22T15:06:00Z</time>
      </trkpt>
      <trkpt lat="44.80533" lon="4.30071">
        <ele>1370</ele>
        <time>2019-12-22T15:06:04Z</time>
      </trkpt>
      <trkpt lat="44.80521" lon="4.30091">
        <ele>1374</ele>
        <time>2019-12-22T15:06:07Z</time>
      </trkpt>
      <trkpt lat="44.80509" lon="4.30121">
        <ele>1382</ele>
        <time>2019-12-22T15:06:11Z</time>
      </trkpt>
      <trkpt lat="44.80507" lon="4.30134">
        <ele>1384</ele>
        <time>2019-12-22T15:06:13Z</time>
      </trkpt>
      <trkpt lat="44.80509" lon="4.30138">
        <ele>1385</ele>
        <time>2019-12-22T15:06:13Z</time>
      </trkpt>
      <trkpt lat="44.80503" lon="4.30154">
        <ele>1389</ele>
        <time>2019-12-22T15:06:16Z</time>
      </trkpt>
      <trkpt lat="44.80503" lon="4.30161">
        <ele>1391</ele>
        <time>2019-12-22T15:06:17Z</time>
      </trkpt>
      <trkpt lat="44.80505" lon="4.30166">
        <ele>1391</ele>
        <time>2019-12-22T15:06:17Z</time>
      </trkpt>
      <trkpt lat="44.80503" lon="4.30217">
        <ele>1398</ele>
        <time>2019-12-22T15:06:24Z</time>
      </trkpt>
      <trkpt lat="44.805" lon="4.30223">
        <ele>1400</ele>
        <time>2019-12-22T15:06:25Z</time>
      </trkpt>
      <trkpt lat="44.8049" lon="4.3023">
        <ele>1403</ele>
        <time>2019-12-22T15:06:27Z</time>
      </trkpt>
      <trkpt lat="44.80479" lon="4.30255">
        <ele>1407</ele>
        <time>2019-12-22T15:06:30Z</time>
      </trkpt>
      <trkpt lat="44.80478" lon="4.30287">
        <ele>1405</ele>
        <time>2019-12-22T15:06:34Z</time>
      </trkpt>
      <trkpt lat="44.80462" lon="4.30299">
        <ele>1408</ele>
        <time>2019-12-22T15:06:38Z</time>
      </trkpt>
      <trkpt lat="44.8045" lon="4.30304">
        <ele>1410</ele>
        <time>2019-12-22T15:06:40Z</time>
      </trkpt>
      <trkpt lat="44.80437" lon="4.30304">
        <ele>1414</ele>
        <time>2019-12-22T15:06:42Z</time>
      </trkpt>
      <trkpt lat="44.80417" lon="4.30296">
        <ele>1419</ele>
        <time>2019-12-22T15:06:46Z</time>
      </trkpt>
      <trkpt lat="44.80413" lon="4.3029">
        <ele>1418</ele>
        <time>2019-12-22T15:06:47Z</time>
      </trkpt>
      <trkpt lat="44.80405" lon="4.30268">
        <ele>1417</ele>
        <time>2019-12-22T15:06:50Z</time>
      </trkpt>
      <trkpt lat="44.80413" lon="4.3029">
        <ele>1418</ele>
        <time>2019-12-22T15:06:53Z</time>
      </trkpt>
      <trkpt lat="44.80417" lon="4.30296">
        <ele>1419</ele>
        <time>2019-12-22T15:06:54Z</time>
      </trkpt>
      <trkpt lat="44.80437" lon="4.30304">
        <ele>1414</ele>
        <time>2019-12-22T15:06:58Z</time>
      </trkpt>
      <trkpt lat="44.8045" lon="4.30304">
        <ele>1410</ele>
        <time>2019-12-22T15:07:00Z</time>
      </trkpt>
      <trkpt lat="44.80462" lon="4.30299">
        <ele>1408</ele>
        <time>2019-12-22T15:07:03Z</time>
      </trkpt>
      <trkpt lat="44.80478" lon="4.30287">
        <ele>1405</ele>
        <time>2019-12-22T15:07:06Z</time>
      </trkpt>
      <trkpt lat="44.80479" lon="4.30255">
        <ele>1407</ele>
        <time>2019-12-22T15:07:10Z</time>
      </trkpt>
      <trkpt lat="44.8049" lon="4.3023">
        <ele>1403</ele>
        <time>2019-12-22T15:07:13Z</time>
      </trkpt>
      <trkpt lat="44.805" lon="4.30223">
        <ele>1400</ele>
        <time>2019-12-22T15:07:15Z</time>
      </trkpt>
      <trkpt lat="44.80503" lon="4.30217">
        <ele>1398</ele>
        <time>2019-12-22T15:07:16Z</time>
      </trkpt>
      <trkpt lat="44.80505" lon="4.30166">
        <ele>1391</ele>
        <time>2019-12-22T15:07:23Z</time>
      </trkpt>
      <trkpt lat="44.80503" lon="4.30161">
        <ele>1391</ele>
        <time>2019-12-22T15:07:24Z</time>
      </trkpt>
      <trkpt lat="44.80503" lon="4.30154">
        <ele>1389</ele>
        <time>2019-12-22T15:07:24Z</time>
      </trkpt>
      <trkpt lat="44.80509" lon="4.30138">
        <ele>1385</ele>
        <time>2019-12-22T15:07:27Z</time>
      </trkpt>
      <trkpt lat="44.80507" lon="4.30134">
        <ele>1384</ele>
        <time>2019-12-22T15:07:27Z</time>
      </trkpt>
      <trkpt lat="44.80509" lon="4.30121">
        <ele>1382</ele>
        <time>2019-12-22T15:07:29Z</time>
      </trkpt>
      <trkpt lat="44.80521" lon="4.30091">
        <ele>1374</ele>
        <time>2019-12-22T15:07:33Z</time>
      </trkpt>
      <trkpt lat="44.80533" lon="4.30071">
        <ele>1370</ele>
        <time>2019-12-22T15:07:37Z</time>
      </trkpt>
      <trkpt lat="44.8055" lon="4.30062">
        <ele>1367</ele>
        <time>2019-12-22T15:07:40Z</time>
      </trkpt>
      <trkpt lat="44.80561" lon="4.3006">
        <ele>1365</ele>
        <time>2019-12-22T15:07:42Z</time>
      </trkpt>
      <trkpt lat="44.80562" lon="4.30036">
        <ele>1363</ele>
        <time>2019-12-22T15:07:45Z</time>
      </trkpt>
      <trkpt lat="44.80559" lon="4.30018">
        <ele>1362</ele>
        <time>2019-12-22T15:07:47Z</time>
      </trkpt>
      <trkpt lat="44.80558" lon="4.29999">
        <ele>1361</ele>
        <time>2019-12-22T15:07:50Z</time>
      </trkpt>
      <trkpt lat="44.80563" lon="4.29986">
        <ele>1360</ele>
        <time>2019-12-22T15:07:52Z</time>
      </trkpt>
      <trkpt lat="44.80565" lon="4.29964">
        <ele>1358</ele>
        <time>2019-12-22T15:07:54Z</time>
      </trkpt>
      <trkpt lat="44.80587" lon="4.29924">
        <ele>1353</ele>
        <time>2019-12-22T15:08:01Z</time>
      </trkpt>
      <trkpt lat="44.80592" lon="4.29907">
        <ele>1351</ele>
        <time>2019-12-22T15:08:03Z</time>
      </trkpt>
      <trkpt lat="44.806" lon="4.29804">
        <ele>1344</ele>
        <time>2019-12-22T15:08:16Z</time>
      </trkpt>
      <trkpt lat="44.80599" lon="4.29786">
        <ele>1343</ele>
        <time>2019-12-22T15:08:18Z</time>
      </trkpt>
      <trkpt lat="44.80595" lon="4.29776">
        <ele>1342</ele>
        <time>2019-12-22T15:08:20Z</time>
      </trkpt>
      <trkpt lat="44.8058" lon="4.29757">
        <ele>1342</ele>
        <time>2019-12-22T15:08:23Z</time>
      </trkpt>
      <trkpt lat="44.80562" lon="4.29747">
        <ele>1341</ele>
        <time>2019-12-22T15:08:27Z</time>
      </trkpt>
      <trkpt lat="44.80558" lon="4.29741">
        <ele>1341</ele>
        <time>2019-12-22T15:08:28Z</time>
      </trkpt>
      <trkpt lat="44.80554" lon="4.29726">
        <ele>1340</ele>
        <time>2019-12-22T15:08:30Z</time>
      </trkpt>
      <trkpt lat="44.80606" lon="4.29686">
        <ele>1338</ele>
        <time>2019-12-22T15:08:40Z</time>
      </trkpt>
      <trkpt lat="44.80666" lon="4.29611">
        <ele>1331</ele>
        <time>2019-12-22T15:08:55Z</time>
      </trkpt>
      <trkpt lat="44.80687" lon="4.29591">
        <ele>1328</ele>
        <time>2019-12-22T15:08:59Z</time>
      </trkpt>
      <trkpt lat="44.80726" lon="4.29573">
        <ele>1326</ele>
        <time>2019-12-22T15:09:07Z</time>
      </trkpt>
      <trkpt lat="44.80737" lon="4.29562">
        <ele>1325</ele>
        <time>2019-12-22T15:09:09Z</time>
      </trkpt>
      <trkpt lat="44.80755" lon="4.29537">
        <ele>1323</ele>
        <time>2019-12-22T15:09:13Z</time>
      </trkpt>
      <trkpt lat="44.8077" lon="4.29505">
        <ele>1320</ele>
        <time>2019-12-22T15:09:18Z</time>
      </trkpt>
      <trkpt lat="44.80797" lon="4.29429">
        <ele>1317</ele>
        <time>2019-12-22T15:09:29Z</time>
      </trkpt>
      <trkpt lat="44.80805" lon="4.29419">
        <ele>1317</ele>
        <time>2019-12-22T15:09:31Z</time>
      </trkpt>
      <trkpt lat="44.80813" lon="4.29416">
        <ele>1316</ele>
        <time>2019-12-22T15:09:32Z</time>
      </trkpt>
      <trkpt lat="44.80815" lon="4.2939">
        <ele>1316</ele>
        <time>2019-12-22T15:09:36Z</time>
      </trkpt>
      <trkpt lat="44.8082" lon="4.29375">
        <ele>1315</ele>
        <time>2019-12-22T15:09:38Z</time>
      </trkpt>
      <trkpt lat="44.80958" lon="4.29109">
        <ele>1323</ele>
        <time>2019-12-22T15:10:19Z</time>
      </trkpt>
      <trkpt lat="44.80984" lon="4.29053">
        <ele>1326</ele>
        <time>2019-12-22T15:10:28Z</time>
      </trkpt>
      <trkpt lat="44.81003" lon="4.29067">
        <ele>1326</ele>
        <time>2019-12-22T15:10:32Z</time>
      </trkpt>
      <trkpt lat="44.81023" lon="4.29071">
        <ele>1326</ele>
        <time>2019-12-22T15:10:35Z</time>
      </trkpt>
      <trkpt lat="44.81033" lon="4.29075">
        <ele>1326</ele>
        <time>2019-12-22T15:10:37Z</time>
      </trkpt>
      <trkpt lat="44.81052" lon="4.29091">
        <ele>1325</ele>
        <time>2019-12-22T15:10:41Z</time>
      </trkpt>
      <trkpt lat="44.81089" lon="4.29113">
        <ele>1323</ele>
        <time>2019-12-22T15:10:48Z</time>
      </trkpt>
      <trkpt lat="44.81109" lon="4.29121">
        <ele>1321</ele>
        <time>2019-12-22T15:10:52Z</time>
      </trkpt>
      <trkpt lat="44.81127" lon="4.29123">
        <ele>1320</ele>
        <time>2019-12-22T15:10:55Z</time>
      </trkpt>
      <trkpt lat="44.81228" lon="4.29126">
        <ele>1311</ele>
        <time>2019-12-22T15:11:13Z</time>
      </trkpt>
      <trkpt lat="44.81291" lon="4.29138">
        <ele>1304</ele>
        <time>2019-12-22T15:11:24Z</time>
      </trkpt>
      <trkpt lat="44.814" lon="4.29135">
        <ele>1296</ele>
        <time>2019-12-22T15:11:44Z</time>
      </trkpt>
      <trkpt lat="44.81508" lon="4.29111">
        <ele>1292</ele>
        <time>2019-12-22T15:12:03Z</time>
      </trkpt>
      <trkpt lat="44.81547" lon="4.29119">
        <ele>1288</ele>
        <time>2019-12-22T15:12:10Z</time>
      </trkpt>
      <trkpt lat="44.816" lon="4.29147">
        <ele>1279</ele>
        <time>2019-12-22T15:12:20Z</time>
      </trkpt>
      <trkpt lat="44.81639" lon="4.29147">
        <ele>1273</ele>
        <time>2019-12-22T15:12:27Z</time>
      </trkpt>
      <trkpt lat="44.81723" lon="4.29049">
        <ele>1264</ele>
        <time>2019-12-22T15:12:47Z</time>
      </trkpt>
      <trkpt lat="44.81768" lon="4.28973">
        <ele>1258</ele>
        <time>2019-12-22T15:12:59Z</time>
      </trkpt>
      <trkpt lat="44.81766" lon="4.28796">
        <ele>1260</ele>
        <time>2019-12-22T15:13:22Z</time>
      </trkpt>
      <trkpt lat="44.81783" lon="4.28724">
        <ele>1252</ele>
        <time>2019-12-22T15:13:31Z</time>
      </trkpt>
      <trkpt lat="44.81765" lon="4.28698">
        <ele>1253</ele>
        <time>2019-12-22T15:13:36Z</time>
      </trkpt>
      <trkpt lat="44.81725" lon="4.28676">
        <ele>1259</ele>
        <time>2019-12-22T15:13:43Z</time>
      </trkpt>
      <trkpt lat="44.81709" lon="4.2863">
        <ele>1258</ele>
        <time>2019-12-22T15:13:50Z</time>
      </trkpt>
      <trkpt lat="44.81713" lon="4.28582">
        <ele>1253</ele>
        <time>2019-12-22T15:13:56Z</time>
      </trkpt>
      <trkpt lat="44.81716" lon="4.28524">
        <ele>1248</ele>
        <time>2019-12-22T15:14:03Z</time>
      </trkpt>
      <trkpt lat="44.81714" lon="4.28502">
        <ele>1247</ele>
        <time>2019-12-22T15:14:06Z</time>
      </trkpt>
      <trkpt lat="44.81704" lon="4.28479">
        <ele>1246</ele>
        <time>2019-12-22T15:14:09Z</time>
      </trkpt>
      <trkpt lat="44.81688" lon="4.28457">
        <ele>1246</ele>
        <time>2019-12-22T15:14:13Z</time>
      </trkpt>
      <trkpt lat="44.81647" lon="4.28423">
        <ele>1251</ele>
        <time>2019-12-22T15:14:22Z</time>
      </trkpt>
      <trkpt lat="44.81635" lon="4.28405">
        <ele>1252</ele>
        <time>2019-12-22T15:14:25Z</time>
      </trkpt>
      <trkpt lat="44.81619" lon="4.28315">
        <ele>1249</ele>
        <time>2019-12-22T15:14:37Z</time>
      </trkpt>
      <trkpt lat="44.81607" lon="4.2828">
        <ele>1255</ele>
        <time>2019-12-22T15:14:42Z</time>
      </trkpt>
      <trkpt lat="44.81607" lon="4.28269">
        <ele>1255</ele>
        <time>2019-12-22T15:14:43Z</time>
      </trkpt>
      <trkpt lat="44.81608" lon="4.28265">
        <ele>1255</ele>
        <time>2019-12-22T15:14:44Z</time>
      </trkpt>
      <trkpt lat="44.81632" lon="4.28244">
        <ele>1247</ele>
        <time>2019-12-22T15:14:49Z</time>
      </trkpt>
      <trkpt lat="44.8164" lon="4.28227">
        <ele>1245</ele>
        <time>2019-12-22T15:14:51Z</time>
      </trkpt>
      <trkpt lat="44.81643" lon="4.28218">
        <ele>1245</ele>
        <time>2019-12-22T15:14:52Z</time>
      </trkpt>
      <trkpt lat="44.81643" lon="4.28209">
        <ele>1246</ele>
        <time>2019-12-22T15:14:54Z</time>
      </trkpt>
      <trkpt lat="44.8164" lon="4.28193">
        <ele>1248</ele>
        <time>2019-12-22T15:14:56Z</time>
      </trkpt>
      <trkpt lat="44.81642" lon="4.28172">
        <ele>1249</ele>
        <time>2019-12-22T15:14:58Z</time>
      </trkpt>
      <trkpt lat="44.81651" lon="4.28152">
        <ele>1249</ele>
        <time>2019-12-22T15:15:01Z</time>
      </trkpt>
      <trkpt lat="44.81688" lon="4.28121">
        <ele>1241</ele>
        <time>2019-12-22T15:15:09Z</time>
      </trkpt>
      <trkpt lat="44.81705" lon="4.28081">
        <ele>1244</ele>
        <time>2019-12-22T15:15:15Z</time>
      </trkpt>
      <trkpt lat="44.81714" lon="4.28073">
        <ele>1243</ele>
        <time>2019-12-22T15:15:17Z</time>
      </trkpt>
      <trkpt lat="44.81775" lon="4.28085">
        <ele>1226</ele>
        <time>2019-12-22T15:15:28Z</time>
      </trkpt>
      <trkpt lat="44.818" lon="4.28061">
        <ele>1228</ele>
        <time>2019-12-22T15:15:33Z</time>
      </trkpt>
      <trkpt lat="44.8184" lon="4.28045">
        <ele>1225</ele>
        <time>2019-12-22T15:15:40Z</time>
      </trkpt>
      <trkpt lat="44.81892" lon="4.27997">
        <ele>1221</ele>
        <time>2019-12-22T15:15:51Z</time>
      </trkpt>
      <trkpt lat="44.81956" lon="4.27944">
        <ele>1217</ele>
        <time>2019-12-22T15:16:05Z</time>
      </trkpt>
      <trkpt lat="44.82002" lon="4.27922">
        <ele>1210</ele>
        <time>2019-12-22T15:16:13Z</time>
      </trkpt>
      <trkpt lat="44.82135" lon="4.27846">
        <ele>1207</ele>
        <time>2019-12-22T15:16:39Z</time>
      </trkpt>
      <trkpt lat="44.822" lon="4.27786">
        <ele>1200</ele>
        <time>2019-12-22T15:16:53Z</time>
      </trkpt>
      <trkpt lat="44.82256" lon="4.27724">
        <ele>1186</ele>
        <time>2019-12-22T15:17:05Z</time>
      </trkpt>
      <trkpt lat="44.82294" lon="4.27604">
        <ele>1182</ele>
        <time>2019-12-22T15:17:22Z</time>
      </trkpt>
      <trkpt lat="44.8231" lon="4.27493">
        <ele>1173</ele>
        <time>2019-12-22T15:17:36Z</time>
      </trkpt>
      <trkpt lat="44.82307" lon="4.27405">
        <ele>1167</ele>
        <time>2019-12-22T15:17:47Z</time>
      </trkpt>
      <trkpt lat="44.82295" lon="4.27323">
        <ele>1165</ele>
        <time>2019-12-22T15:17:58Z</time>
      </trkpt>
      <trkpt lat="44.82256" lon="4.27194">
        <ele>1168</ele>
        <time>2019-12-22T15:18:16Z</time>
      </trkpt>
      <trkpt lat="44.82256" lon="4.2718">
        <ele>1167</ele>
        <time>2019-12-22T15:18:17Z</time>
      </trkpt>
      <trkpt lat="44.82259" lon="4.27169">
        <ele>1166</ele>
        <time>2019-12-22T15:18:19Z</time>
      </trkpt>
      <trkpt lat="44.82266" lon="4.27158">
        <ele>1168</ele>
        <time>2019-12-22T15:18:21Z</time>
      </trkpt>
      <trkpt lat="44.82275" lon="4.27154">
        <ele>1168</ele>
        <time>2019-12-22T15:18:22Z</time>
      </trkpt>
      <trkpt lat="44.82308" lon="4.27161">
        <ele>1164</ele>
        <time>2019-12-22T15:18:28Z</time>
      </trkpt>
      <trkpt lat="44.82337" lon="4.2716">
        <ele>1162</ele>
        <time>2019-12-22T15:18:34Z</time>
      </trkpt>
      <trkpt lat="44.82366" lon="4.27169">
        <ele>1163</ele>
        <time>2019-12-22T15:18:39Z</time>
      </trkpt>
      <trkpt lat="44.82445" lon="4.27232">
        <ele>1158</ele>
        <time>2019-12-22T15:18:55Z</time>
      </trkpt>
      <trkpt lat="44.82461" lon="4.27235">
        <ele>1158</ele>
        <time>2019-12-22T15:18:58Z</time>
      </trkpt>
      <trkpt lat="44.82475" lon="4.27225">
        <ele>1162</ele>
        <time>2019-12-22T15:19:01Z</time>
      </trkpt>
      <trkpt lat="44.82494" lon="4.27227">
        <ele>1164</ele>
        <time>2019-12-22T15:19:04Z</time>
      </trkpt>
      <trkpt lat="44.8252" lon="4.27251">
        <ele>1161</ele>
        <time>2019-12-22T15:19:10Z</time>
      </trkpt>
      <trkpt lat="44.82539" lon="4.27264">
        <ele>1161</ele>
        <time>2019-12-22T15:19:13Z</time>
      </trkpt>
      <trkpt lat="44.82709" lon="4.27333">
        <ele>1168</ele>
        <time>2019-12-22T15:19:45Z</time>
      </trkpt>
      <trkpt lat="44.82734" lon="4.27337">
        <ele>1169</ele>
        <time>2019-12-22T15:19:49Z</time>
      </trkpt>
      <trkpt lat="44.82783" lon="4.27326">
        <ele>1176</ele>
        <time>2019-12-22T15:19:58Z</time>
      </trkpt>
      <trkpt lat="44.82817" lon="4.27326">
        <ele>1177</ele>
        <time>2019-12-22T15:20:04Z</time>
      </trkpt>
      <trkpt lat="44.82864" lon="4.27356">
        <ele>1175</ele>
        <time>2019-12-22T15:20:13Z</time>
      </trkpt>
      <trkpt lat="44.82904" lon="4.27391">
        <ele>1175</ele>
        <time>2019-12-22T15:20:22Z</time>
      </trkpt>
      <trkpt lat="44.82912" lon="4.27416">
        <ele>1170</ele>
        <time>2019-12-22T15:20:25Z</time>
      </trkpt>
      <trkpt lat="44.82904" lon="4.27541">
        <ele>1156</ele>
        <time>2019-12-22T15:20:41Z</time>
      </trkpt>
      <trkpt lat="44.8292" lon="4.27573">
        <ele>1159</ele>
        <time>2019-12-22T15:20:46Z</time>
      </trkpt>
      <trkpt lat="44.82958" lon="4.27614">
        <ele>1158</ele>
        <time>2019-12-22T15:20:54Z</time>
      </trkpt>
      <trkpt lat="44.82996" lon="4.27641">
        <ele>1157</ele>
        <time>2019-12-22T15:21:02Z</time>
      </trkpt>
      <trkpt lat="44.83023" lon="4.27641">
        <ele>1158</ele>
        <time>2019-12-22T15:21:07Z</time>
      </trkpt>
      <trkpt lat="44.83069" lon="4.27673">
        <ele>1154</ele>
        <time>2019-12-22T15:21:16Z</time>
      </trkpt>
      <trkpt lat="44.83076" lon="4.27674">
        <ele>1154</ele>
        <time>2019-12-22T15:21:17Z</time>
      </trkpt>
      <trkpt lat="44.83083" lon="4.27661">
        <ele>1157</ele>
        <time>2019-12-22T15:21:19Z</time>
      </trkpt>
      <trkpt lat="44.83084" lon="4.276">
        <ele>1165</ele>
        <time>2019-12-22T15:21:27Z</time>
      </trkpt>
      <trkpt lat="44.83089" lon="4.27581">
        <ele>1167</ele>
        <time>2019-12-22T15:21:30Z</time>
      </trkpt>
      <trkpt lat="44.83132" lon="4.27551">
        <ele>1158</ele>
        <time>2019-12-22T15:21:38Z</time>
      </trkpt>
      <trkpt lat="44.83181" lon="4.27446">
        <ele>1160</ele>
        <time>2019-12-22T15:21:54Z</time>
      </trkpt>
      <trkpt lat="44.83215" lon="4.27418">
        <ele>1157</ele>
        <time>2019-12-22T15:22:01Z</time>
      </trkpt>
      <trkpt lat="44.83247" lon="4.27398">
        <ele>1153</ele>
        <time>2019-12-22T15:22:07Z</time>
      </trkpt>
      <trkpt lat="44.83295" lon="4.27408">
        <ele>1154</ele>
        <time>2019-12-22T15:22:16Z</time>
      </trkpt>
      <trkpt lat="44.83338" lon="4.27463">
        <ele>1146</ele>
        <time>2019-12-22T15:22:26Z</time>
      </trkpt>
      <trkpt lat="44.83366" lon="4.27464">
        <ele>1145</ele>
        <time>2019-12-22T15:22:31Z</time>
      </trkpt>
      <trkpt lat="44.83413" lon="4.27441">
        <ele>1153</ele>
        <time>2019-12-22T15:22:40Z</time>
      </trkpt>
      <trkpt lat="44.83432" lon="4.27446">
        <ele>1155</ele>
        <time>2019-12-22T15:22:43Z</time>
      </trkpt>
      <trkpt lat="44.8355" lon="4.27575">
        <ele>1145</ele>
        <time>2019-12-22T15:23:10Z</time>
      </trkpt>
      <trkpt lat="44.83674" lon="4.27752">
        <ele>1134</ele>
        <time>2019-12-22T15:23:41Z</time>
      </trkpt>
      <trkpt lat="44.8375" lon="4.27796">
        <ele>1135</ele>
        <time>2019-12-22T15:23:56Z</time>
      </trkpt>
      <trkpt lat="44.83816" lon="4.27878">
        <ele>1132</ele>
        <time>2019-12-22T15:24:12Z</time>
      </trkpt>
      <trkpt lat="44.83825" lon="4.27958">
        <ele>1128</ele>
        <time>2019-12-22T15:24:22Z</time>
      </trkpt>
      <trkpt lat="44.83834" lon="4.28117">
        <ele>1121</ele>
        <time>2019-12-22T15:24:42Z</time>
      </trkpt>
      <trkpt lat="44.83849" lon="4.28195">
        <ele>1116</ele>
        <time>2019-12-22T15:24:52Z</time>
      </trkpt>
      <trkpt lat="44.83882" lon="4.28242">
        <ele>1117</ele>
        <time>2019-12-22T15:25:00Z</time>
      </trkpt>
      <trkpt lat="44.83953" lon="4.283">
        <ele>1121</ele>
        <time>2019-12-22T15:25:15Z</time>
      </trkpt>
      <trkpt lat="44.84027" lon="4.28354">
        <ele>1114</ele>
        <time>2019-12-22T15:25:30Z</time>
      </trkpt>
      <trkpt lat="44.84088" lon="4.28484">
        <ele>1107</ele>
        <time>2019-12-22T15:25:50Z</time>
      </trkpt>
      <trkpt lat="44.84135" lon="4.28513">
        <ele>1104</ele>
        <time>2019-12-22T15:25:59Z</time>
      </trkpt>
      <trkpt lat="44.84169" lon="4.28516">
        <ele>1101</ele>
        <time>2019-12-22T15:26:05Z</time>
      </trkpt>
      <trkpt lat="44.8419" lon="4.28505">
        <ele>1096</ele>
        <time>2019-12-22T15:26:09Z</time>
      </trkpt>
      <trkpt lat="44.84224" lon="4.28501">
        <ele>1092</ele>
        <time>2019-12-22T15:26:15Z</time>
      </trkpt>
      <trkpt lat="44.84252" lon="4.28511">
        <ele>1090</ele>
        <time>2019-12-22T15:26:20Z</time>
      </trkpt>
      <trkpt lat="44.84295" lon="4.28542">
        <ele>1085</ele>
        <time>2019-12-22T15:26:29Z</time>
      </trkpt>
      <trkpt lat="44.84334" lon="4.28579">
        <ele>1083</ele>
        <time>2019-12-22T15:26:37Z</time>
      </trkpt>
      <trkpt lat="44.84425" lon="4.2852">
        <ele>1070</ele>
        <time>2019-12-22T15:26:55Z</time>
      </trkpt>
      <trkpt lat="44.845" lon="4.28497">
        <ele>1068</ele>
        <time>2019-12-22T15:27:08Z</time>
      </trkpt>
      <trkpt lat="44.84528" lon="4.28473">
        <ele>1061</ele>
        <time>2019-12-22T15:27:14Z</time>
      </trkpt>
      <trkpt lat="44.84565" lon="4.28453">
        <ele>1056</ele>
        <time>2019-12-22T15:27:21Z</time>
      </trkpt>
      <trkpt lat="44.84578" lon="4.28454">
        <ele>1057</ele>
        <time>2019-12-22T15:27:24Z</time>
      </trkpt>
      <trkpt lat="44.84594" lon="4.28471">
        <ele>1057</ele>
        <time>2019-12-22T15:27:27Z</time>
      </trkpt>
      <trkpt lat="44.84629" lon="4.28521">
        <ele>1054</ele>
        <time>2019-12-22T15:27:36Z</time>
      </trkpt>
      <trkpt lat="44.84638" lon="4.2853">
        <ele>1052</ele>
        <time>2019-12-22T15:27:38Z</time>
      </trkpt>
      <trkpt lat="44.84673" lon="4.28553">
        <ele>1046</ele>
        <time>2019-12-22T15:27:45Z</time>
      </trkpt>
      <trkpt lat="44.8468" lon="4.28563">
        <ele>1047</ele>
        <time>2019-12-22T15:27:47Z</time>
      </trkpt>
      <trkpt lat="44.84684" lon="4.28578">
        <ele>1048</ele>
        <time>2019-12-22T15:27:49Z</time>
      </trkpt>
      <trkpt lat="44.84691" lon="4.28591">
        <ele>1047</ele>
        <time>2019-12-22T15:27:51Z</time>
      </trkpt>
      <trkpt lat="44.847" lon="4.28601">
        <ele>1045</ele>
        <time>2019-12-22T15:27:53Z</time>
      </trkpt>
      <trkpt lat="44.84757" lon="4.28629">
        <ele>1042</ele>
        <time>2019-12-22T15:28:03Z</time>
      </trkpt>
      <trkpt lat="44.84839" lon="4.2869">
        <ele>1041</ele>
        <time>2019-12-22T15:28:20Z</time>
      </trkpt>
      <trkpt lat="44.84887" lon="4.28743">
        <ele>1030</ele>
        <time>2019-12-22T15:28:31Z</time>
      </trkpt>
      <trkpt lat="44.84942" lon="4.28771">
        <ele>1029</ele>
        <time>2019-12-22T15:28:41Z</time>
      </trkpt>
      <trkpt lat="44.84947" lon="4.2881">
        <ele>1031</ele>
        <time>2019-12-22T15:28:46Z</time>
      </trkpt>
      <trkpt lat="44.84901" lon="4.28955">
        <ele>1038</ele>
        <time>2019-12-22T15:29:06Z</time>
      </trkpt>
      <trkpt lat="44.84821" lon="4.29094">
        <ele>1034</ele>
        <time>2019-12-22T15:29:29Z</time>
      </trkpt>
      <trkpt lat="44.84782" lon="4.2927">
        <ele>1039</ele>
        <time>2019-12-22T15:29:52Z</time>
      </trkpt>
      <trkpt lat="44.84728" lon="4.29367">
        <ele>1037</ele>
        <time>2019-12-22T15:30:08Z</time>
      </trkpt>
      <trkpt lat="44.84703" lon="4.29415">
        <ele>1037</ele>
        <time>2019-12-22T15:30:15Z</time>
      </trkpt>
      <trkpt lat="44.84675" lon="4.29488">
        <ele>1040</ele>
        <time>2019-12-22T15:30:26Z</time>
      </trkpt>
      <trkpt lat="44.84642" lon="4.29531">
        <ele>1037</ele>
        <time>2019-12-22T15:30:34Z</time>
      </trkpt>
      <trkpt lat="44.84565" lon="4.29565">
        <ele>1030</ele>
        <time>2019-12-22T15:30:48Z</time>
      </trkpt>
      <trkpt lat="44.8455" lon="4.29582">
        <ele>1031</ele>
        <time>2019-12-22T15:30:51Z</time>
      </trkpt>
      <trkpt lat="44.8454" lon="4.29608">
        <ele>1030</ele>
        <time>2019-12-22T15:30:55Z</time>
      </trkpt>
      <trkpt lat="44.84539" lon="4.2963">
        <ele>1030</ele>
        <time>2019-12-22T15:30:58Z</time>
      </trkpt>
      <trkpt lat="44.84547" lon="4.29649">
        <ele>1031</ele>
        <time>2019-12-22T15:31:01Z</time>
      </trkpt>
      <trkpt lat="44.8461" lon="4.29692">
        <ele>1032</ele>
        <time>2019-12-22T15:31:13Z</time>
      </trkpt>
      <trkpt lat="44.84655" lon="4.29688">
        <ele>1035</ele>
        <time>2019-12-22T15:31:21Z</time>
      </trkpt>
      <trkpt lat="44.84707" lon="4.29673">
        <ele>1037</ele>
        <time>2019-12-22T15:31:31Z</time>
      </trkpt>
      <trkpt lat="44.8482" lon="4.29694">
        <ele>1038</ele>
        <time>2019-12-22T15:31:51Z</time>
      </trkpt>
      <trkpt lat="44.84844" lon="4.29714">
        <ele>1037</ele>
        <time>2019-12-22T15:31:56Z</time>
      </trkpt>
      <trkpt lat="44.84866" lon="4.29745">
        <ele>1034</ele>
        <time>2019-12-22T15:32:01Z</time>
      </trkpt>
      <trkpt lat="44.84859" lon="4.29886">
        <ele>1028</ele>
        <time>2019-12-22T15:32:19Z</time>
      </trkpt>
      <trkpt lat="44.84852" lon="4.29908">
        <ele>1028</ele>
        <time>2019-12-22T15:32:22Z</time>
      </trkpt>
      <trkpt lat="44.84831" lon="4.2994">
        <ele>1028</ele>
        <time>2019-12-22T15:32:28Z</time>
      </trkpt>
      <trkpt lat="44.84815" lon="4.29971">
        <ele>1026</ele>
        <time>2019-12-22T15:32:33Z</time>
      </trkpt>
      <trkpt lat="44.8481" lon="4.29989">
        <ele>1026</ele>
        <time>2019-12-22T15:32:35Z</time>
      </trkpt>
      <trkpt lat="44.84816" lon="4.30026">
        <ele>1029</ele>
        <time>2019-12-22T15:32:40Z</time>
      </trkpt>
      <trkpt lat="44.84815" lon="4.30044">
        <ele>1030</ele>
        <time>2019-12-22T15:32:42Z</time>
      </trkpt>
      <trkpt lat="44.84785" lon="4.30142">
        <ele>1027</ele>
        <time>2019-12-22T15:32:56Z</time>
      </trkpt>
      <trkpt lat="44.8478" lon="4.30167">
        <ele>1027</ele>
        <time>2019-12-22T15:32:59Z</time>
      </trkpt>
      <trkpt lat="44.84779" lon="4.30182">
        <ele>1027</ele>
        <time>2019-12-22T15:33:01Z</time>
      </trkpt>
      <trkpt lat="44.8478" lon="4.30198">
        <ele>1027</ele>
        <time>2019-12-22T15:33:03Z</time>
      </trkpt>
      <trkpt lat="44.84788" lon="4.3022">
        <ele>1030</ele>
        <time>2019-12-22T15:33:06Z</time>
      </trkpt>
      <trkpt lat="44.84804" lon="4.30253">
        <ele>1036</ele>
        <time>2019-12-22T15:33:11Z</time>
      </trkpt>
      <trkpt lat="44.84806" lon="4.30267">
        <ele>1036</ele>
        <time>2019-12-22T15:33:13Z</time>
      </trkpt>
      <trkpt lat="44.84782" lon="4.30371">
        <ele>1032</ele>
        <time>2019-12-22T15:33:27Z</time>
      </trkpt>
      <trkpt lat="44.84768" lon="4.30413">
        <ele>1032</ele>
        <time>2019-12-22T15:33:32Z</time>
      </trkpt>
      <trkpt lat="44.84743" lon="4.30438">
        <ele>1029</ele>
        <time>2019-12-22T15:33:38Z</time>
      </trkpt>
      <trkpt lat="44.84737" lon="4.30459">
        <ele>1030</ele>
        <time>2019-12-22T15:33:41Z</time>
      </trkpt>
      <trkpt lat="44.8477" lon="4.30548">
        <ele>1029</ele>
        <time>2019-12-22T15:33:53Z</time>
      </trkpt>
      <trkpt lat="44.84804" lon="4.30595">
        <ele>1027</ele>
        <time>2019-12-22T15:34:02Z</time>
      </trkpt>
      <trkpt lat="44.84857" lon="4.30605">
        <ele>1028</ele>
        <time>2019-12-22T15:34:11Z</time>
      </trkpt>
      <trkpt lat="44.8487" lon="4.30618">
        <ele>1026</ele>
        <time>2019-12-22T15:34:14Z</time>
      </trkpt>
      <trkpt lat="44.84884" lon="4.3065">
        <ele>1020</ele>
        <time>2019-12-22T15:34:19Z</time>
      </trkpt>
      <trkpt lat="44.84901" lon="4.30664">
        <ele>1018</ele>
        <time>2019-12-22T15:34:22Z</time>
      </trkpt>
      <trkpt lat="44.84966" lon="4.30661">
        <ele>1018</ele>
        <time>2019-12-22T15:34:34Z</time>
      </trkpt>
      <trkpt lat="44.85013" lon="4.30708">
        <ele>1008</ele>
        <time>2019-12-22T15:34:44Z</time>
      </trkpt>
      <trkpt lat="44.85033" lon="4.30829">
        <ele>1001</ele>
        <time>2019-12-22T15:35:00Z</time>
      </trkpt>
      <trkpt lat="44.85046" lon="4.30847">
        <ele>1003</ele>
        <time>2019-12-22T15:35:03Z</time>
      </trkpt>
      <trkpt lat="44.85061" lon="4.30841">
        <ele>1006</ele>
        <time>2019-12-22T15:35:06Z</time>
      </trkpt>
      <trkpt lat="44.8509" lon="4.30821">
        <ele>1007</ele>
        <time>2019-12-22T15:35:12Z</time>
      </trkpt>
      <trkpt lat="44.85095" lon="4.30815">
        <ele>1006</ele>
        <time>2019-12-22T15:35:13Z</time>
      </trkpt>
      <trkpt lat="44.851" lon="4.30793">
        <ele>1003</ele>
        <time>2019-12-22T15:35:16Z</time>
      </trkpt>
      <trkpt lat="44.8508" lon="4.30659">
        <ele>999</ele>
        <time>2019-12-22T15:35:33Z</time>
      </trkpt>
      <trkpt lat="44.85111" lon="4.30601">
        <ele>998</ele>
        <time>2019-12-22T15:35:42Z</time>
      </trkpt>
      <trkpt lat="44.8515" lon="4.30554">
        <ele>999</ele>
        <time>2019-12-22T15:35:51Z</time>
      </trkpt>
      <trkpt lat="44.8523" lon="4.30552">
        <ele>985</ele>
        <time>2019-12-22T15:36:06Z</time>
      </trkpt>
      <trkpt lat="44.85273" lon="4.30529">
        <ele>980</ele>
        <time>2019-12-22T15:36:14Z</time>
      </trkpt>
      <trkpt lat="44.85356" lon="4.30425">
        <ele>966</ele>
        <time>2019-12-22T15:36:34Z</time>
      </trkpt>
      <trkpt lat="44.8537" lon="4.30399">
        <ele>962</ele>
        <time>2019-12-22T15:36:38Z</time>
      </trkpt>
      <trkpt lat="44.85363" lon="4.30366">
        <ele>961</ele>
        <time>2019-12-22T15:36:42Z</time>
      </trkpt>
      <trkpt lat="44.85317" lon="4.30253">
        <ele>963</ele>
        <time>2019-12-22T15:36:58Z</time>
      </trkpt>
      <trkpt lat="44.85313" lon="4.30221">
        <ele>964</ele>
        <time>2019-12-22T15:37:03Z</time>
      </trkpt>
      <trkpt lat="44.85325" lon="4.3019">
        <ele>960</ele>
        <time>2019-12-22T15:37:07Z</time>
      </trkpt>
      <trkpt lat="44.8541" lon="4.30038">
        <ele>945</ele>
        <time>2019-12-22T15:37:31Z</time>
      </trkpt>
      <trkpt lat="44.85456" lon="4.29927">
        <ele>933</ele>
        <time>2019-12-22T15:37:48Z</time>
      </trkpt>
      <trkpt lat="44.85454" lon="4.29857">
        <ele>928</ele>
        <time>2019-12-22T15:37:56Z</time>
      </trkpt>
      <trkpt lat="44.85438" lon="4.29772">
        <ele>916</ele>
        <time>2019-12-22T15:38:08Z</time>
      </trkpt>
      <trkpt lat="44.854" lon="4.29748">
        <ele>917</ele>
        <time>2019-12-22T15:38:15Z</time>
      </trkpt>
      <trkpt lat="44.85332" lon="4.29735">
        <ele>922</ele>
        <time>2019-12-22T15:38:27Z</time>
      </trkpt>
      <trkpt lat="44.85304" lon="4.2974">
        <ele>925</ele>
        <time>2019-12-22T15:38:32Z</time>
      </trkpt>
      <trkpt lat="44.85272" lon="4.29751">
        <ele>928</ele>
        <time>2019-12-22T15:38:38Z</time>
      </trkpt>
      <trkpt lat="44.85256" lon="4.29763">
        <ele>930</ele>
        <time>2019-12-22T15:38:41Z</time>
      </trkpt>
      <trkpt lat="44.85243" lon="4.29765">
        <ele>932</ele>
        <time>2019-12-22T15:38:44Z</time>
      </trkpt>
      <trkpt lat="44.85237" lon="4.29758">
        <ele>933</ele>
        <time>2019-12-22T15:38:45Z</time>
      </trkpt>
      <trkpt lat="44.85235" lon="4.2975">
        <ele>932</ele>
        <time>2019-12-22T15:38:46Z</time>
      </trkpt>
      <trkpt lat="44.85236" lon="4.2973">
        <ele>932</ele>
        <time>2019-12-22T15:38:49Z</time>
      </trkpt>
      <trkpt lat="44.85245" lon="4.29715">
        <ele>929</ele>
        <time>2019-12-22T15:38:51Z</time>
      </trkpt>
      <trkpt lat="44.85267" lon="4.29685">
        <ele>923</ele>
        <time>2019-12-22T15:38:57Z</time>
      </trkpt>
      <trkpt lat="44.85287" lon="4.29644">
        <ele>919</ele>
        <time>2019-12-22T15:39:03Z</time>
      </trkpt>
      <trkpt lat="44.8533" lon="4.29618">
        <ele>909</ele>
        <time>2019-12-22T15:39:11Z</time>
      </trkpt>
      <trkpt lat="44.85384" lon="4.29546">
        <ele>898</ele>
        <time>2019-12-22T15:39:24Z</time>
      </trkpt>
      <trkpt lat="44.85401" lon="4.29495">
        <ele>899</ele>
        <time>2019-12-22T15:39:31Z</time>
      </trkpt>
      <trkpt lat="44.85414" lon="4.29466">
        <ele>902</ele>
        <time>2019-12-22T15:39:36Z</time>
      </trkpt>
      <trkpt lat="44.85422" lon="4.29454">
        <ele>903</ele>
        <time>2019-12-22T15:39:38Z</time>
      </trkpt>
      <trkpt lat="44.8546" lon="4.29462">
        <ele>896</ele>
        <time>2019-12-22T15:39:45Z</time>
      </trkpt>
      <trkpt lat="44.85492" lon="4.29465">
        <ele>891</ele>
        <time>2019-12-22T15:39:50Z</time>
      </trkpt>
      <trkpt lat="44.85531" lon="4.29479">
        <ele>883</ele>
        <time>2019-12-22T15:39:58Z</time>
      </trkpt>
      <trkpt lat="44.85565" lon="4.2951">
        <ele>872</ele>
        <time>2019-12-22T15:40:05Z</time>
      </trkpt>
      <trkpt lat="44.85576" lon="4.29514">
        <ele>870</ele>
        <time>2019-12-22T15:40:07Z</time>
      </trkpt>
      <trkpt lat="44.85633" lon="4.29483">
        <ele>871</ele>
        <time>2019-12-22T15:40:18Z</time>
      </trkpt>
      <trkpt lat="44.85677" lon="4.29481">
        <ele>864</ele>
        <time>2019-12-22T15:40:25Z</time>
      </trkpt>
      <trkpt lat="44.85688" lon="4.29477">
        <ele>862</ele>
        <time>2019-12-22T15:40:28Z</time>
      </trkpt>
      <trkpt lat="44.85698" lon="4.29465">
        <ele>862</ele>
        <time>2019-12-22T15:40:30Z</time>
      </trkpt>
      <trkpt lat="44.85711" lon="4.29428">
        <ele>865</ele>
        <time>2019-12-22T15:40:35Z</time>
      </trkpt>
      <trkpt lat="44.85727" lon="4.2941">
        <ele>863</ele>
        <time>2019-12-22T15:40:39Z</time>
      </trkpt>
      <trkpt lat="44.8574" lon="4.29408">
        <ele>859</ele>
        <time>2019-12-22T15:40:41Z</time>
      </trkpt>
      <trkpt lat="44.85785" lon="4.29425">
        <ele>850</ele>
        <time>2019-12-22T15:40:49Z</time>
      </trkpt>
      <trkpt lat="44.85809" lon="4.29422">
        <ele>847</ele>
        <time>2019-12-22T15:40:54Z</time>
      </trkpt>
      <trkpt lat="44.85847" lon="4.29398">
        <ele>841</ele>
        <time>2019-12-22T15:41:01Z</time>
      </trkpt>
      <trkpt lat="44.85852" lon="4.29374">
        <ele>839</ele>
        <time>2019-12-22T15:41:04Z</time>
      </trkpt>
      <trkpt lat="44.8585" lon="4.29362">
        <ele>840</ele>
        <time>2019-12-22T15:41:06Z</time>
      </trkpt>
      <trkpt lat="44.85842" lon="4.2935">
        <ele>841</ele>
        <time>2019-12-22T15:41:08Z</time>
      </trkpt>
      <trkpt lat="44.85814" lon="4.29347">
        <ele>846</ele>
        <time>2019-12-22T15:41:13Z</time>
      </trkpt>
      <trkpt lat="44.85798" lon="4.29335">
        <ele>848</ele>
        <time>2019-12-22T15:41:16Z</time>
      </trkpt>
      <trkpt lat="44.85789" lon="4.2932">
        <ele>848</ele>
        <time>2019-12-22T15:41:18Z</time>
      </trkpt>
      <trkpt lat="44.85781" lon="4.29289">
        <ele>847</ele>
        <time>2019-12-22T15:41:23Z</time>
      </trkpt>
      <trkpt lat="44.85779" lon="4.29236">
        <ele>846</ele>
        <time>2019-12-22T15:41:29Z</time>
      </trkpt>
      <trkpt lat="44.85784" lon="4.29222">
        <ele>845</ele>
        <time>2019-12-22T15:41:31Z</time>
      </trkpt>
      <trkpt lat="44.85793" lon="4.29213">
        <ele>844</ele>
        <time>2019-12-22T15:41:33Z</time>
      </trkpt>
      <trkpt lat="44.85809" lon="4.29206">
        <ele>839</ele>
        <time>2019-12-22T15:41:36Z</time>
      </trkpt>
      <trkpt lat="44.85816" lon="4.29198">
        <ele>838</ele>
        <time>2019-12-22T15:41:38Z</time>
      </trkpt>
      <trkpt lat="44.85848" lon="4.29139">
        <ele>834</ele>
        <time>2019-12-22T15:41:47Z</time>
      </trkpt>
      <trkpt lat="44.85869" lon="4.29095">
        <ele>836</ele>
        <time>2019-12-22T15:41:54Z</time>
      </trkpt>
      <trkpt lat="44.85927" lon="4.29062">
        <ele>825</ele>
        <time>2019-12-22T15:42:05Z</time>
      </trkpt>
      <trkpt lat="44.85936" lon="4.29032">
        <ele>827</ele>
        <time>2019-12-22T15:42:09Z</time>
      </trkpt>
      <trkpt lat="44.85956" lon="4.29014">
        <ele>823</ele>
        <time>2019-12-22T15:42:13Z</time>
      </trkpt>
      <trkpt lat="44.85986" lon="4.29022">
        <ele>813</ele>
        <time>2019-12-22T15:42:19Z</time>
      </trkpt>
      <trkpt lat="44.85992" lon="4.2902">
        <ele>812</ele>
        <time>2019-12-22T15:42:20Z</time>
      </trkpt>
      <trkpt lat="44.85996" lon="4.29014">
        <ele>811</ele>
        <time>2019-12-22T15:42:21Z</time>
      </trkpt>
      <trkpt lat="44.85996" lon="4.29002">
        <ele>813</ele>
        <time>2019-12-22T15:42:22Z</time>
      </trkpt>
      <trkpt lat="44.85988" lon="4.28965">
        <ele>811</ele>
        <time>2019-12-22T15:42:27Z</time>
      </trkpt>
      <trkpt lat="44.85962" lon="4.28905">
        <ele>809</ele>
        <time>2019-12-22T15:42:36Z</time>
      </trkpt>
      <trkpt lat="44.85922" lon="4.28882">
        <ele>813</ele>
        <time>2019-12-22T15:42:44Z</time>
      </trkpt>
      <trkpt lat="44.8589" lon="4.28881">
        <ele>821</ele>
        <time>2019-12-22T15:42:50Z</time>
      </trkpt>
      <trkpt lat="44.8588" lon="4.28874">
        <ele>822</ele>
        <time>2019-12-22T15:42:52Z</time>
      </trkpt>
      <trkpt lat="44.85873" lon="4.28837">
        <ele>817</ele>
        <time>2019-12-22T15:42:56Z</time>
      </trkpt>
      <trkpt lat="44.85884" lon="4.28781">
        <ele>809</ele>
        <time>2019-12-22T15:43:04Z</time>
      </trkpt>
      <trkpt lat="44.859" lon="4.2875">
        <ele>800</ele>
        <time>2019-12-22T15:43:09Z</time>
      </trkpt>
      <trkpt lat="44.85905" lon="4.2872">
        <ele>796</ele>
        <time>2019-12-22T15:43:12Z</time>
      </trkpt>
      <trkpt lat="44.8589" lon="4.2866">
        <ele>798</ele>
        <time>2019-12-22T15:43:20Z</time>
      </trkpt>
      <trkpt lat="44.85886" lon="4.28605">
        <ele>796</ele>
        <time>2019-12-22T15:43:27Z</time>
      </trkpt>
      <trkpt lat="44.85891" lon="4.2855">
        <ele>792</ele>
        <time>2019-12-22T15:43:34Z</time>
      </trkpt>
      <trkpt lat="44.85881" lon="4.28511">
        <ele>796</ele>
        <time>2019-12-22T15:43:40Z</time>
      </trkpt>
      <trkpt lat="44.85902" lon="4.2826">
        <ele>777</ele>
        <time>2019-12-22T15:44:12Z</time>
      </trkpt>
      <trkpt lat="44.85905" lon="4.28197">
        <ele>772</ele>
        <time>2019-12-22T15:44:20Z</time>
      </trkpt>
      <trkpt lat="44.8592" lon="4.28143">
        <ele>766</ele>
        <time>2019-12-22T15:44:27Z</time>
      </trkpt>
      <trkpt lat="44.8594" lon="4.28072">
        <ele>767</ele>
        <time>2019-12-22T15:44:36Z</time>
      </trkpt>
      <trkpt lat="44.85945" lon="4.28062">
        <ele>769</ele>
        <time>2019-12-22T15:44:38Z</time>
      </trkpt>
      <trkpt lat="44.85956" lon="4.28053">
        <ele>771</ele>
        <time>2019-12-22T15:44:40Z</time>
      </trkpt>
      <trkpt lat="44.85961" lon="4.28052">
        <ele>772</ele>
        <time>2019-12-22T15:44:41Z</time>
      </trkpt>
      <trkpt lat="44.85981" lon="4.28063">
        <ele>772</ele>
        <time>2019-12-22T15:44:45Z</time>
      </trkpt>
      <trkpt lat="44.86036" lon="4.28105">
        <ele>778</ele>
        <time>2019-12-22T15:44:56Z</time>
      </trkpt>
      <trkpt lat="44.86063" lon="4.28145">
        <ele>778</ele>
        <time>2019-12-22T15:45:03Z</time>
      </trkpt>
      <trkpt lat="44.861" lon="4.2819">
        <ele>783</ele>
        <time>2019-12-22T15:45:12Z</time>
      </trkpt>
      <trkpt lat="44.86121" lon="4.28283">
        <ele>783</ele>
        <time>2019-12-22T15:45:24Z</time>
      </trkpt>
      <trkpt lat="44.86135" lon="4.28313">
        <ele>786</ele>
        <time>2019-12-22T15:45:29Z</time>
      </trkpt>
      <trkpt lat="44.8615" lon="4.28372">
        <ele>786</ele>
        <time>2019-12-22T15:45:37Z</time>
      </trkpt>
      <trkpt lat="44.8617" lon="4.2841">
        <ele>788</ele>
        <time>2019-12-22T15:45:43Z</time>
      </trkpt>
      <trkpt lat="44.86175" lon="4.28431">
        <ele>786</ele>
        <time>2019-12-22T15:45:45Z</time>
      </trkpt>
      <trkpt lat="44.86186" lon="4.28494">
        <ele>779</ele>
        <time>2019-12-22T15:45:53Z</time>
      </trkpt>
      <trkpt lat="44.86193" lon="4.28509">
        <ele>779</ele>
        <time>2019-12-22T15:45:56Z</time>
      </trkpt>
      <trkpt lat="44.862" lon="4.28513">
        <ele>779</ele>
        <time>2019-12-22T15:45:57Z</time>
      </trkpt>
      <trkpt lat="44.86206" lon="4.28512">
        <ele>780</ele>
        <time>2019-12-22T15:45:58Z</time>
      </trkpt>
      <trkpt lat="44.86214" lon="4.28501">
        <ele>783</ele>
        <time>2019-12-22T15:46:00Z</time>
      </trkpt>
      <trkpt lat="44.86221" lon="4.2848">
        <ele>788</ele>
        <time>2019-12-22T15:46:03Z</time>
      </trkpt>
      <trkpt lat="44.86223" lon="4.28464">
        <ele>791</ele>
        <time>2019-12-22T15:46:05Z</time>
      </trkpt>
      <trkpt lat="44.86215" lon="4.28422">
        <ele>796</ele>
        <time>2019-12-22T15:46:11Z</time>
      </trkpt>
      <trkpt lat="44.86217" lon="4.28411">
        <ele>798</ele>
        <time>2019-12-22T15:46:12Z</time>
      </trkpt>
      <trkpt lat="44.86221" lon="4.28403">
        <ele>800</ele>
        <time>2019-12-22T15:46:13Z</time>
      </trkpt>
      <trkpt lat="44.86231" lon="4.28399">
        <ele>803</ele>
        <time>2019-12-22T15:46:15Z</time>
      </trkpt>
      <trkpt lat="44.86262" lon="4.28401">
        <ele>810</ele>
        <time>2019-12-22T15:46:21Z</time>
      </trkpt>
      <trkpt lat="44.86277" lon="4.28405">
        <ele>812</ele>
        <time>2019-12-22T15:46:23Z</time>
      </trkpt>
      <trkpt lat="44.86326" lon="4.28432">
        <ele>814</ele>
        <time>2019-12-22T15:46:33Z</time>
      </trkpt>
      <trkpt lat="44.86389" lon="4.28453">
        <ele>820</ele>
        <time>2019-12-22T15:46:44Z</time>
      </trkpt>
      <trkpt lat="44.86415" lon="4.28456">
        <ele>824</ele>
        <time>2019-12-22T15:46:49Z</time>
      </trkpt>
      <trkpt lat="44.86432" lon="4.28443">
        <ele>827</ele>
        <time>2019-12-22T15:46:52Z</time>
      </trkpt>
      <trkpt lat="44.86455" lon="4.28435">
        <ele>827</ele>
        <time>2019-12-22T15:46:57Z</time>
      </trkpt>
      <trkpt lat="44.86463" lon="4.28431">
        <ele>826</ele>
        <time>2019-12-22T15:46:58Z</time>
      </trkpt>
      <trkpt lat="44.86494" lon="4.2838">
        <ele>827</ele>
        <time>2019-12-22T15:47:07Z</time>
      </trkpt>
      <trkpt lat="44.86499" lon="4.28368">
        <ele>826</ele>
        <time>2019-12-22T15:47:08Z</time>
      </trkpt>
      <trkpt lat="44.86497" lon="4.28353">
        <ele>828</ele>
        <time>2019-12-22T15:47:10Z</time>
      </trkpt>
      <trkpt lat="44.86493" lon="4.28343">
        <ele>830</ele>
        <time>2019-12-22T15:47:12Z</time>
      </trkpt>
      <trkpt lat="44.86446" lon="4.28295">
        <ele>843</ele>
        <time>2019-12-22T15:47:22Z</time>
      </trkpt>
      <trkpt lat="44.8643" lon="4.28254">
        <ele>844</ele>
        <time>2019-12-22T15:47:28Z</time>
      </trkpt>
      <trkpt lat="44.86427" lon="4.28225">
        <ele>845</ele>
        <time>2019-12-22T15:47:32Z</time>
      </trkpt>
      <trkpt lat="44.86427" lon="4.28188">
        <ele>845</ele>
        <time>2019-12-22T15:47:36Z</time>
      </trkpt>
      <trkpt lat="44.86432" lon="4.28165">
        <ele>844</ele>
        <time>2019-12-22T15:47:39Z</time>
      </trkpt>
      <trkpt lat="44.86502" lon="4.28226">
        <ele>829</ele>
        <time>2019-12-22T15:47:54Z</time>
      </trkpt>
      <trkpt lat="44.86554" lon="4.28278">
        <ele>830</ele>
        <time>2019-12-22T15:48:05Z</time>
      </trkpt>
      <trkpt lat="44.86563" lon="4.28291">
        <ele>831</ele>
        <time>2019-12-22T15:48:08Z</time>
      </trkpt>
      <trkpt lat="44.86568" lon="4.28305">
        <ele>831</ele>
        <time>2019-12-22T15:48:10Z</time>
      </trkpt>
      <trkpt lat="44.86589" lon="4.28309">
        <ele>833</ele>
        <time>2019-12-22T15:48:13Z</time>
      </trkpt>
      <trkpt lat="44.86631" lon="4.28295">
        <ele>841</ele>
        <time>2019-12-22T15:48:21Z</time>
      </trkpt>
      <trkpt lat="44.86653" lon="4.28279">
        <ele>843</ele>
        <time>2019-12-22T15:48:25Z</time>
      </trkpt>
      <trkpt lat="44.86761" lon="4.28184">
        <ele>848</ele>
        <time>2019-12-22T15:48:48Z</time>
      </trkpt>
      <trkpt lat="44.86865" lon="4.28128">
        <ele>844</ele>
        <time>2019-12-22T15:49:08Z</time>
      </trkpt>
      <trkpt lat="44.86919" lon="4.28077">
        <ele>838</ele>
        <time>2019-12-22T15:49:19Z</time>
      </trkpt>
      <trkpt lat="44.86975" lon="4.28044">
        <ele>838</ele>
        <time>2019-12-22T15:49:30Z</time>
      </trkpt>
      <trkpt lat="44.87016" lon="4.28023">
        <ele>838</ele>
        <time>2019-12-22T15:49:38Z</time>
      </trkpt>
      <trkpt lat="44.87034" lon="4.28011">
        <ele>838</ele>
        <time>2019-12-22T15:49:41Z</time>
      </trkpt>
      <trkpt lat="44.87044" lon="4.27994">
        <ele>838</ele>
        <time>2019-12-22T15:49:44Z</time>
      </trkpt>
      <trkpt lat="44.87048" lon="4.27978">
        <ele>838</ele>
        <time>2019-12-22T15:49:46Z</time>
      </trkpt>
      <trkpt lat="44.87093" lon="4.27997">
        <ele>843</ele>
        <time>2019-12-22T15:49:55Z</time>
      </trkpt>
      <trkpt lat="44.87104" lon="4.27991">
        <ele>844</ele>
        <time>2019-12-22T15:49:57Z</time>
      </trkpt>
      <trkpt lat="44.87111" lon="4.27951">
        <ele>846</ele>
        <time>2019-12-22T15:50:02Z</time>
      </trkpt>
      <trkpt lat="44.87115" lon="4.27902">
        <ele>847</ele>
        <time>2019-12-22T15:50:08Z</time>
      </trkpt>
      <trkpt lat="44.87116" lon="4.2789">
        <ele>847</ele>
        <time>2019-12-22T12:20:03Z</time>
      </trkpt>
      <trkpt lat="44.87118" lon="4.27864">
        <ele>847</ele>
        <time>2019-12-22T12:20:06Z</time>
      </trkpt>
      <trkpt lat="44.87125" lon="4.27835">
        <ele>849</ele>
        <time>2019-12-22T12:20:10Z</time>
      </trkpt>
      <trkpt lat="44.87125" lon="4.27804">
        <ele>850</ele>
        <time>2019-12-22T12:20:14Z</time>
      </trkpt>
      <trkpt lat="44.87122" lon="4.27797">
        <ele>849</ele>
        <time>2019-12-22T12:20:15Z</time>
      </trkpt>
      <trkpt lat="44.87116" lon="4.27794">
        <ele>849</ele>
        <time>2019-12-22T12:20:16Z</time>
      </trkpt>
      <trkpt lat="44.87076" lon="4.27794">
        <ele>844</ele>
        <time>2019-12-22T12:20:23Z</time>
      </trkpt>
      <trkpt lat="44.87073" lon="4.27787">
        <ele>845</ele>
        <time>2019-12-22T12:20:24Z</time>
      </trkpt>
      <trkpt lat="44.87047" lon="4.2778">
        <ele>843</ele>
        <time>2019-12-22T12:20:29Z</time>
      </trkpt>
      <trkpt lat="44.86957" lon="4.27743">
        <ele>841</ele>
        <time>2019-12-22T12:20:46Z</time>
      </trkpt>
      <trkpt lat="44.86953" lon="4.27739">
        <ele>841</ele>
        <time>2019-12-22T12:20:47Z</time>
      </trkpt>
      <trkpt lat="44.86954" lon="4.27727">
        <ele>842</ele>
        <time>2019-12-22T12:20:48Z</time>
      </trkpt>
      <trkpt lat="44.86972" lon="4.2768">
        <ele>847</ele>
        <time>2019-12-22T12:20:55Z</time>
      </trkpt>
      <trkpt lat="44.8698" lon="4.27652">
        <ele>851</ele>
        <time>2019-12-22T12:20:59Z</time>
      </trkpt>
      <trkpt lat="44.86985" lon="4.27621">
        <ele>855</ele>
        <time>2019-12-22T12:21:03Z</time>
      </trkpt>
      <trkpt lat="44.86985" lon="4.27609">
        <ele>857</ele>
        <time>2019-12-22T12:21:04Z</time>
      </trkpt>
      <trkpt lat="44.86982" lon="4.27599">
        <ele>858</ele>
        <time>2019-12-22T12:21:06Z</time>
      </trkpt>
      <trkpt lat="44.86979" lon="4.27534">
        <ele>870</ele>
        <time>2019-12-22T12:21:14Z</time>
      </trkpt>
      <trkpt lat="44.86984" lon="4.27519">
        <ele>873</ele>
        <time>2019-12-22T12:21:16Z</time>
      </trkpt>
      <trkpt lat="44.86971" lon="4.27518">
        <ele>872</ele>
        <time>2019-12-22T12:21:18Z</time>
      </trkpt>
      <trkpt lat="44.86935" lon="4.27504">
        <ele>873</ele>
        <time>2019-12-22T12:21:25Z</time>
      </trkpt>
      <trkpt lat="44.86923" lon="4.27495">
        <ele>874</ele>
        <time>2019-12-22T12:21:27Z</time>
      </trkpt>
      <trkpt lat="44.86905" lon="4.27464">
        <ele>886</ele>
        <time>2019-12-22T12:21:32Z</time>
      </trkpt>
      <trkpt lat="44.86898" lon="4.27462">
        <ele>886</ele>
        <time>2019-12-22T12:21:34Z</time>
      </trkpt>
      <trkpt lat="44.86866" lon="4.27463">
        <ele>885</ele>
        <time>2019-12-22T12:21:39Z</time>
      </trkpt>
      <trkpt lat="44.86873" lon="4.27459">
        <ele>887</ele>
        <time>2019-12-22T12:21:41Z</time>
      </trkpt>
      <trkpt lat="44.86884" lon="4.27455">
        <ele>889</ele>
        <time>2019-12-22T12:21:43Z</time>
      </trkpt>
      <trkpt lat="44.86902" lon="4.27456">
        <ele>889</ele>
        <time>2019-12-22T12:21:46Z</time>
      </trkpt>
      <trkpt lat="44.86947" lon="4.27475">
        <ele>883</ele>
        <time>2019-12-22T12:21:54Z</time>
      </trkpt>
      <trkpt lat="44.86992" lon="4.27486">
        <ele>881</ele>
        <time>2019-12-22T12:22:02Z</time>
      </trkpt>
      <trkpt lat="44.87001" lon="4.27491">
        <ele>881</ele>
        <time>2019-12-22T12:22:04Z</time>
      </trkpt>
      <trkpt lat="44.87064" lon="4.27542">
        <ele>879</ele>
        <time>2019-12-22T12:22:17Z</time>
      </trkpt>
      <trkpt lat="44.87073" lon="4.27547">
        <ele>880</ele>
        <time>2019-12-22T12:22:19Z</time>
      </trkpt>
      <trkpt lat="44.87108" lon="4.27556">
        <ele>882</ele>
        <time>2019-12-22T12:22:25Z</time>
      </trkpt>
      <trkpt lat="44.87118" lon="4.27561">
        <ele>882</ele>
        <time>2019-12-22T12:22:27Z</time>
      </trkpt>
      <trkpt lat="44.87137" lon="4.27575">
        <ele>881</ele>
        <time>2019-12-22T12:22:31Z</time>
      </trkpt>
      <trkpt lat="44.87158" lon="4.27584">
        <ele>882</ele>
        <time>2019-12-22T12:22:35Z</time>
      </trkpt>
      <trkpt lat="44.87169" lon="4.27594">
        <ele>881</ele>
        <time>2019-12-22T12:22:37Z</time>
      </trkpt>
      <trkpt lat="44.87182" lon="4.27613">
        <ele>879</ele>
        <time>2019-12-22T12:22:40Z</time>
      </trkpt>
      <trkpt lat="44.87214" lon="4.27673">
        <ele>873</ele>
        <time>2019-12-22T12:22:50Z</time>
      </trkpt>
      <trkpt lat="44.87229" lon="4.27709">
        <ele>873</ele>
        <time>2019-12-22T12:22:55Z</time>
      </trkpt>
      <trkpt lat="44.87237" lon="4.27725">
        <ele>873</ele>
        <time>2019-12-22T12:22:58Z</time>
      </trkpt>
      <trkpt lat="44.87241" lon="4.27731">
        <ele>874</ele>
        <time>2019-12-22T12:22:59Z</time>
      </trkpt>
      <trkpt lat="44.87249" lon="4.27732">
        <ele>875</ele>
        <time>2019-12-22T12:23:00Z</time>
      </trkpt>
      <trkpt lat="44.87257" lon="4.27727">
        <ele>875</ele>
        <time>2019-12-22T12:23:02Z</time>
      </trkpt>
      <trkpt lat="44.87263" lon="4.2772">
        <ele>875</ele>
        <time>2019-12-22T12:23:03Z</time>
      </trkpt>
      <trkpt lat="44.87266" lon="4.27709">
        <ele>875</ele>
        <time>2019-12-22T12:23:04Z</time>
      </trkpt>
      <trkpt lat="44.87272" lon="4.27668">
        <ele>875</ele>
        <time>2019-12-22T12:23:10Z</time>
      </trkpt>
      <trkpt lat="44.87283" lon="4.27645">
        <ele>877</ele>
        <time>2019-12-22T12:23:13Z</time>
      </trkpt>
      <trkpt lat="44.87291" lon="4.27636">
        <ele>878</ele>
        <time>2019-12-22T12:23:15Z</time>
      </trkpt>
      <trkpt lat="44.87306" lon="4.27627">
        <ele>877</ele>
        <time>2019-12-22T12:23:18Z</time>
      </trkpt>
      <trkpt lat="44.87335" lon="4.27614">
        <ele>873</ele>
        <time>2019-12-22T12:23:23Z</time>
      </trkpt>
      <trkpt lat="44.87345" lon="4.27608">
        <ele>871</ele>
        <time>2019-12-22T12:23:25Z</time>
      </trkpt>
      <trkpt lat="44.8735" lon="4.27599">
        <ele>871</ele>
        <time>2019-12-22T12:23:27Z</time>
      </trkpt>
      <trkpt lat="44.87351" lon="4.2759">
        <ele>871</ele>
        <time>2019-12-22T12:23:28Z</time>
      </trkpt>
      <trkpt lat="44.87348" lon="4.2757">
        <ele>873</ele>
        <time>2019-12-22T12:23:30Z</time>
      </trkpt>
      <trkpt lat="44.8734" lon="4.27549">
        <ele>875</ele>
        <time>2019-12-22T12:23:33Z</time>
      </trkpt>
      <trkpt lat="44.87335" lon="4.2753">
        <ele>877</ele>
        <time>2019-12-22T12:23:36Z</time>
      </trkpt>
      <trkpt lat="44.87333" lon="4.27515">
        <ele>878</ele>
        <time>2019-12-22T12:23:38Z</time>
      </trkpt>
      <trkpt lat="44.87329" lon="4.27444">
        <ele>877</ele>
        <time>2019-12-22T12:23:47Z</time>
      </trkpt>
      <trkpt lat="44.87322" lon="4.27394">
        <ele>878</ele>
        <time>2019-12-22T12:23:53Z</time>
      </trkpt>
      <trkpt lat="44.87318" lon="4.27344">
        <ele>878</ele>
        <time>2019-12-22T12:24:00Z</time>
      </trkpt>
      <trkpt lat="44.87318" lon="4.27307">
        <ele>882</ele>
        <time>2019-12-22T12:24:04Z</time>
      </trkpt>
      <trkpt lat="44.87321" lon="4.27297">
        <ele>882</ele>
        <time>2019-12-22T12:24:06Z</time>
      </trkpt>
      <trkpt lat="44.8733" lon="4.27291">
        <ele>880</ele>
        <time>2019-12-22T12:24:07Z</time>
      </trkpt>
      <trkpt lat="44.87358" lon="4.2729">
        <ele>870</ele>
        <time>2019-12-22T12:24:12Z</time>
      </trkpt>
      <trkpt lat="44.87376" lon="4.27285">
        <ele>865</ele>
        <time>2019-12-22T12:24:16Z</time>
      </trkpt>
      <trkpt lat="44.87405" lon="4.27282">
        <ele>855</ele>
        <time>2019-12-22T12:24:21Z</time>
      </trkpt>
      <trkpt lat="44.87419" lon="4.27277">
        <ele>851</ele>
        <time>2019-12-22T12:24:23Z</time>
      </trkpt>
      <trkpt lat="44.87427" lon="4.27268">
        <ele>850</ele>
        <time>2019-12-22T12:24:25Z</time>
      </trkpt>
      <trkpt lat="44.87429" lon="4.27256">
        <ele>851</ele>
        <time>2019-12-22T12:24:27Z</time>
      </trkpt>
      <trkpt lat="44.87424" lon="4.27101">
        <ele>858</ele>
        <time>2019-12-22T12:24:46Z</time>
      </trkpt>
      <trkpt lat="44.87423" lon="4.26982">
        <ele>850</ele>
        <time>2019-12-22T12:25:01Z</time>
      </trkpt>
      <trkpt lat="44.87417" lon="4.2694">
        <ele>848</ele>
        <time>2019-12-22T12:25:07Z</time>
      </trkpt>
      <trkpt lat="44.8741" lon="4.26905">
        <ele>849</ele>
        <time>2019-12-22T12:25:11Z</time>
      </trkpt>
      <trkpt lat="44.87393" lon="4.26861">
        <ele>853</ele>
        <time>2019-12-22T12:25:18Z</time>
      </trkpt>
      <trkpt lat="44.87385" lon="4.26849">
        <ele>856</ele>
        <time>2019-12-22T12:25:20Z</time>
      </trkpt>
      <trkpt lat="44.87382" lon="4.26842">
        <ele>857</ele>
        <time>2019-12-22T12:25:21Z</time>
      </trkpt>
      <trkpt lat="44.87383" lon="4.26833">
        <ele>856</ele>
        <time>2019-12-22T12:25:22Z</time>
      </trkpt>
      <trkpt lat="44.87387" lon="4.26828">
        <ele>855</ele>
        <time>2019-12-22T12:25:23Z</time>
      </trkpt>
      <trkpt lat="44.87427" lon="4.26803">
        <ele>845</ele>
        <time>2019-12-22T12:25:31Z</time>
      </trkpt>
      <trkpt lat="44.87448" lon="4.26774">
        <ele>843</ele>
        <time>2019-12-22T12:25:36Z</time>
      </trkpt>
      <trkpt lat="44.87487" lon="4.26699">
        <ele>841</ele>
        <time>2019-12-22T12:25:48Z</time>
      </trkpt>
      <trkpt lat="44.8754" lon="4.2664">
        <ele>834</ele>
        <time>2019-12-22T12:26:00Z</time>
      </trkpt>
      <trkpt lat="44.87552" lon="4.26619">
        <ele>833</ele>
        <time>2019-12-22T12:26:03Z</time>
      </trkpt>
      <trkpt lat="44.87563" lon="4.26609">
        <ele>832</ele>
        <time>2019-12-22T12:26:05Z</time>
      </trkpt>
      <trkpt lat="44.87577" lon="4.26605">
        <ele>829</ele>
        <time>2019-12-22T12:26:08Z</time>
      </trkpt>
      <trkpt lat="44.87596" lon="4.26602">
        <ele>823</ele>
        <time>2019-12-22T12:26:11Z</time>
      </trkpt>
      <trkpt lat="44.87605" lon="4.26598">
        <ele>821</ele>
        <time>2019-12-22T12:26:13Z</time>
      </trkpt>
      <trkpt lat="44.87622" lon="4.26576">
        <ele>818</ele>
        <time>2019-12-22T12:26:17Z</time>
      </trkpt>
      <trkpt lat="44.87645" lon="4.26527">
        <ele>816</ele>
        <time>2019-12-22T12:26:25Z</time>
      </trkpt>
      <trkpt lat="44.87661" lon="4.26477">
        <ele>815</ele>
        <time>2019-12-22T12:26:31Z</time>
      </trkpt>
      <trkpt lat="44.87669" lon="4.26445">
        <ele>815</ele>
        <time>2019-12-22T12:26:36Z</time>
      </trkpt>
      <trkpt lat="44.87672" lon="4.26419">
        <ele>816</ele>
        <time>2019-12-22T12:26:39Z</time>
      </trkpt>
      <trkpt lat="44.87672" lon="4.26399">
        <ele>814</ele>
        <time>2019-12-22T12:26:42Z</time>
      </trkpt>
      <trkpt lat="44.87669" lon="4.26381">
        <ele>812</ele>
        <time>2019-12-22T12:26:44Z</time>
      </trkpt>
      <trkpt lat="44.87664" lon="4.26367">
        <ele>811</ele>
        <time>2019-12-22T12:26:46Z</time>
      </trkpt>
      <trkpt lat="44.87654" lon="4.26346">
        <ele>812</ele>
        <time>2019-12-22T12:26:49Z</time>
      </trkpt>
      <trkpt lat="44.8765" lon="4.26329">
        <ele>810</ele>
        <time>2019-12-22T12:26:51Z</time>
      </trkpt>
      <trkpt lat="44.87646" lon="4.26322">
        <ele>810</ele>
        <time>2019-12-22T12:26:52Z</time>
      </trkpt>
      <trkpt lat="44.87603" lon="4.26284">
        <ele>815</ele>
        <time>2019-12-22T12:27:02Z</time>
      </trkpt>
      <trkpt lat="44.87596" lon="4.26276">
        <ele>814</ele>
        <time>2019-12-22T12:27:03Z</time>
      </trkpt>
      <trkpt lat="44.87592" lon="4.26268">
        <ele>813</ele>
        <time>2019-12-22T12:27:04Z</time>
      </trkpt>
      <trkpt lat="44.87578" lon="4.26227">
        <ele>809</ele>
        <time>2019-12-22T12:27:10Z</time>
      </trkpt>
      <trkpt lat="44.87558" lon="4.26159">
        <ele>807</ele>
        <time>2019-12-22T12:27:19Z</time>
      </trkpt>
      <trkpt lat="44.87557" lon="4.26146">
        <ele>807</ele>
        <time>2019-12-22T12:27:21Z</time>
      </trkpt>
      <trkpt lat="44.87558" lon="4.26131">
        <ele>805</ele>
        <time>2019-12-22T12:27:23Z</time>
      </trkpt>
      <trkpt lat="44.87565" lon="4.26108">
        <ele>801</ele>
        <time>2019-12-22T12:27:26Z</time>
      </trkpt>
      <trkpt lat="44.87572" lon="4.26097">
        <ele>798</ele>
        <time>2019-12-22T12:27:28Z</time>
      </trkpt>
      <trkpt lat="44.876" lon="4.26064">
        <ele>793</ele>
        <time>2019-12-22T12:27:34Z</time>
      </trkpt>
      <trkpt lat="44.87624" lon="4.26038">
        <ele>797</ele>
        <time>2019-12-22T12:27:40Z</time>
      </trkpt>
      <trkpt lat="44.87628" lon="4.26025">
        <ele>799</ele>
        <time>2019-12-22T12:27:42Z</time>
      </trkpt>
      <trkpt lat="44.87624" lon="4.25987">
        <ele>802</ele>
        <time>2019-12-22T12:27:46Z</time>
      </trkpt>
      <trkpt lat="44.87623" lon="4.25948">
        <ele>805</ele>
        <time>2019-12-22T12:27:51Z</time>
      </trkpt>
      <trkpt lat="44.87626" lon="4.25921">
        <ele>808</ele>
        <time>2019-12-22T12:27:55Z</time>
      </trkpt>
      <trkpt lat="44.87629" lon="4.259">
        <ele>809</ele>
        <time>2019-12-22T12:27:58Z</time>
      </trkpt>
      <trkpt lat="44.87635" lon="4.25885">
        <ele>810</ele>
        <time>2019-12-22T12:28:00Z</time>
      </trkpt>
      <trkpt lat="44.87643" lon="4.25869">
        <ele>811</ele>
        <time>2019-12-22T12:28:02Z</time>
      </trkpt>
      <trkpt lat="44.87662" lon="4.25843">
        <ele>811</ele>
        <time>2019-12-22T12:28:07Z</time>
      </trkpt>
      <trkpt lat="44.87671" lon="4.2582">
        <ele>812</ele>
        <time>2019-12-22T12:28:10Z</time>
      </trkpt>
      <trkpt lat="44.87678" lon="4.25796">
        <ele>814</ele>
        <time>2019-12-22T12:28:13Z</time>
      </trkpt>
      <trkpt lat="44.87686" lon="4.25777">
        <ele>815</ele>
        <time>2019-12-22T12:28:16Z</time>
      </trkpt>
      <trkpt lat="44.87697" lon="4.25757">
        <ele>817</ele>
        <time>2019-12-22T12:28:19Z</time>
      </trkpt>
      <trkpt lat="44.8771" lon="4.25738">
        <ele>821</ele>
        <time>2019-12-22T12:28:23Z</time>
      </trkpt>
      <trkpt lat="44.87737" lon="4.25708">
        <ele>826</ele>
        <time>2019-12-22T12:28:29Z</time>
      </trkpt>
      <trkpt lat="44.87747" lon="4.25693">
        <ele>826</ele>
        <time>2019-12-22T12:28:31Z</time>
      </trkpt>
      <trkpt lat="44.87754" lon="4.25678">
        <ele>828</ele>
        <time>2019-12-22T12:28:34Z</time>
      </trkpt>
      <trkpt lat="44.87758" lon="4.25664">
        <ele>830</ele>
        <time>2019-12-22T12:28:36Z</time>
      </trkpt>
      <trkpt lat="44.8776" lon="4.25647">
        <ele>831</ele>
        <time>2019-12-22T12:28:38Z</time>
      </trkpt>
      <trkpt lat="44.87762" lon="4.25586">
        <ele>830</ele>
        <time>2019-12-22T12:28:46Z</time>
      </trkpt>
      <trkpt lat="44.87765" lon="4.25547">
        <ele>830</ele>
        <time>2019-12-22T12:28:50Z</time>
      </trkpt>
      <trkpt lat="44.87768" lon="4.25523">
        <ele>830</ele>
        <time>2019-12-22T12:28:54Z</time>
      </trkpt>
      <trkpt lat="44.87778" lon="4.25492">
        <ele>833</ele>
        <time>2019-12-22T12:28:58Z</time>
      </trkpt>
      <trkpt lat="44.87809" lon="4.25429">
        <ele>837</ele>
        <time>2019-12-22T12:29:07Z</time>
      </trkpt>
      <trkpt lat="44.87855" lon="4.25318">
        <ele>840</ele>
        <time>2019-12-22T12:29:24Z</time>
      </trkpt>
      <trkpt lat="44.87863" lon="4.25304">
        <ele>842</ele>
        <time>2019-12-22T12:29:26Z</time>
      </trkpt>
      <trkpt lat="44.8787" lon="4.25297">
        <ele>844</ele>
        <time>2019-12-22T12:29:27Z</time>
      </trkpt>
      <trkpt lat="44.87877" lon="4.25295">
        <ele>845</ele>
        <time>2019-12-22T12:29:29Z</time>
      </trkpt>
      <trkpt lat="44.87903" lon="4.25298">
        <ele>853</ele>
        <time>2019-12-22T12:29:33Z</time>
      </trkpt>
      <trkpt lat="44.87939" lon="4.25279">
        <ele>865</ele>
        <time>2019-12-22T12:29:40Z</time>
      </trkpt>
      <trkpt lat="44.87945" lon="4.25269">
        <ele>866</ele>
        <time>2019-12-22T12:29:42Z</time>
      </trkpt>
      <trkpt lat="44.87951" lon="4.25239">
        <ele>864</ele>
        <time>2019-12-22T12:29:46Z</time>
      </trkpt>
      <trkpt lat="44.87951" lon="4.25224">
        <ele>863</ele>
        <time>2019-12-22T12:29:48Z</time>
      </trkpt>
      <trkpt lat="44.87948" lon="4.25204">
        <ele>859</ele>
        <time>2019-12-22T12:29:50Z</time>
      </trkpt>
      <trkpt lat="44.87933" lon="4.25156">
        <ele>849</ele>
        <time>2019-12-22T12:29:57Z</time>
      </trkpt>
      <trkpt lat="44.87932" lon="4.25137">
        <ele>849</ele>
        <time>2019-12-22T12:29:59Z</time>
      </trkpt>
      <trkpt lat="44.87935" lon="4.25124">
        <ele>850</ele>
        <time>2019-12-22T12:30:01Z</time>
      </trkpt>
      <trkpt lat="44.87942" lon="4.25109">
        <ele>852</ele>
        <time>2019-12-22T12:30:03Z</time>
      </trkpt>
      <trkpt lat="44.87963" lon="4.25075">
        <ele>855</ele>
        <time>2019-12-22T12:30:09Z</time>
      </trkpt>
      <trkpt lat="44.8803" lon="4.24979">
        <ele>858</ele>
        <time>2019-12-22T12:30:26Z</time>
      </trkpt>
      <trkpt lat="44.88079" lon="4.2493">
        <ele>857</ele>
        <time>2019-12-22T12:30:37Z</time>
      </trkpt>
      <trkpt lat="44.88156" lon="4.24842">
        <ele>860</ele>
        <time>2019-12-22T12:30:54Z</time>
      </trkpt>
      <trkpt lat="44.882" lon="4.24777">
        <ele>864</ele>
        <time>2019-12-22T12:31:06Z</time>
      </trkpt>
      <trkpt lat="44.88221" lon="4.24741">
        <ele>865</ele>
        <time>2019-12-22T12:31:11Z</time>
      </trkpt>
      <trkpt lat="44.88232" lon="4.24728">
        <ele>867</ele>
        <time>2019-12-22T12:31:14Z</time>
      </trkpt>
      <trkpt lat="44.88246" lon="4.24719">
        <ele>869</ele>
        <time>2019-12-22T12:31:17Z</time>
      </trkpt>
      <trkpt lat="44.88278" lon="4.24706">
        <ele>873</ele>
        <time>2019-12-22T12:31:23Z</time>
      </trkpt>
      <trkpt lat="44.88282" lon="4.24697">
        <ele>873</ele>
        <time>2019-12-22T12:31:24Z</time>
      </trkpt>
      <trkpt lat="44.88282" lon="4.24693">
        <ele>872</ele>
        <time>2019-12-22T12:31:25Z</time>
      </trkpt>
      <trkpt lat="44.88276" lon="4.24667">
        <ele>868</ele>
        <time>2019-12-22T12:31:28Z</time>
      </trkpt>
      <trkpt lat="44.8827" lon="4.24647">
        <ele>868</ele>
        <time>2019-12-22T12:31:31Z</time>
      </trkpt>
      <trkpt lat="44.88266" lon="4.24616">
        <ele>869</ele>
        <time>2019-12-22T12:31:35Z</time>
      </trkpt>
      <trkpt lat="44.88267" lon="4.24602">
        <ele>870</ele>
        <time>2019-12-22T12:31:36Z</time>
      </trkpt>
      <trkpt lat="44.8827" lon="4.24587">
        <ele>871</ele>
        <time>2019-12-22T12:31:38Z</time>
      </trkpt>
      <trkpt lat="44.88294" lon="4.24507">
        <ele>878</ele>
        <time>2019-12-22T12:31:49Z</time>
      </trkpt>
      <trkpt lat="44.88309" lon="4.24443">
        <ele>886</ele>
        <time>2019-12-22T12:31:58Z</time>
      </trkpt>
      <trkpt lat="44.88312" lon="4.24419">
        <ele>887</ele>
        <time>2019-12-22T12:32:01Z</time>
      </trkpt>
      <trkpt lat="44.88313" lon="4.2438">
        <ele>887</ele>
        <time>2019-12-22T12:32:06Z</time>
      </trkpt>
      <trkpt lat="44.88318" lon="4.2435">
        <ele>887</ele>
        <time>2019-12-22T12:32:10Z</time>
      </trkpt>
      <trkpt lat="44.88358" lon="4.24263">
        <ele>895</ele>
        <time>2019-12-22T12:32:23Z</time>
      </trkpt>
      <trkpt lat="44.88382" lon="4.24204">
        <ele>901</ele>
        <time>2019-12-22T12:32:31Z</time>
      </trkpt>
      <trkpt lat="44.8839" lon="4.24175">
        <ele>903</ele>
        <time>2019-12-22T12:32:35Z</time>
      </trkpt>
      <trkpt lat="44.88411" lon="4.24071">
        <ele>902</ele>
        <time>2019-12-22T12:32:49Z</time>
      </trkpt>
      <trkpt lat="44.88418" lon="4.24049">
        <ele>902</ele>
        <time>2019-12-22T12:32:52Z</time>
      </trkpt>
      <trkpt lat="44.88426" lon="4.24031">
        <ele>902</ele>
        <time>2019-12-22T12:32:55Z</time>
      </trkpt>
      <trkpt lat="44.88446" lon="4.24005">
        <ele>904</ele>
        <time>2019-12-22T12:33:00Z</time>
      </trkpt>
      <trkpt lat="44.88465" lon="4.23989">
        <ele>907</ele>
        <time>2019-12-22T12:33:03Z</time>
      </trkpt>
      <trkpt lat="44.88545" lon="4.23931">
        <ele>915</ele>
        <time>2019-12-22T12:33:19Z</time>
      </trkpt>
      <trkpt lat="44.8864" lon="4.23827">
        <ele>926</ele>
        <time>2019-12-22T12:33:41Z</time>
      </trkpt>
      <trkpt lat="44.88663" lon="4.23793">
        <ele>929</ele>
        <time>2019-12-22T12:33:47Z</time>
      </trkpt>
      <trkpt lat="44.8868" lon="4.23745">
        <ele>929</ele>
        <time>2019-12-22T12:33:54Z</time>
      </trkpt>
      <trkpt lat="44.8869" lon="4.23731">
        <ele>929</ele>
        <time>2019-12-22T12:33:56Z</time>
      </trkpt>
      <trkpt lat="44.887" lon="4.23721">
        <ele>929</ele>
        <time>2019-12-22T12:33:58Z</time>
      </trkpt>
      <trkpt lat="44.88715" lon="4.23712">
        <ele>930</ele>
        <time>2019-12-22T12:34:01Z</time>
      </trkpt>
      <trkpt lat="44.88725" lon="4.23708">
        <ele>931</ele>
        <time>2019-12-22T12:34:03Z</time>
      </trkpt>
      <trkpt lat="44.88736" lon="4.23708">
        <ele>933</ele>
        <time>2019-12-22T12:34:05Z</time>
      </trkpt>
      <trkpt lat="44.88744" lon="4.23711">
        <ele>934</ele>
        <time>2019-12-22T12:34:06Z</time>
      </trkpt>
      <trkpt lat="44.88759" lon="4.23727">
        <ele>938</ele>
        <time>2019-12-22T12:34:10Z</time>
      </trkpt>
      <trkpt lat="44.88776" lon="4.23757">
        <ele>943</ele>
        <time>2019-12-22T12:34:15Z</time>
      </trkpt>
      <trkpt lat="44.88796" lon="4.23774">
        <ele>948</ele>
        <time>2019-12-22T12:34:19Z</time>
      </trkpt>
      <trkpt lat="44.8881" lon="4.23777">
        <ele>950</ele>
        <time>2019-12-22T12:34:21Z</time>
      </trkpt>
      <trkpt lat="44.88815" lon="4.23775">
        <ele>950</ele>
        <time>2019-12-22T12:34:22Z</time>
      </trkpt>
      <trkpt lat="44.88824" lon="4.2376">
        <ele>947</ele>
        <time>2019-12-22T12:34:25Z</time>
      </trkpt>
      <trkpt lat="44.88853" lon="4.23704">
        <ele>949</ele>
        <time>2019-12-22T12:34:33Z</time>
      </trkpt>
      <trkpt lat="44.88858" lon="4.23693">
        <ele>950</ele>
        <time>2019-12-22T12:34:35Z</time>
      </trkpt>
      <trkpt lat="44.88861" lon="4.23679">
        <ele>951</ele>
        <time>2019-12-22T12:34:37Z</time>
      </trkpt>
      <trkpt lat="44.88864" lon="4.23633">
        <ele>952</ele>
        <time>2019-12-22T12:34:43Z</time>
      </trkpt>
      <trkpt lat="44.88868" lon="4.23603">
        <ele>953</ele>
        <time>2019-12-22T12:34:47Z</time>
      </trkpt>
      <trkpt lat="44.88873" lon="4.23591">
        <ele>955</ele>
        <time>2019-12-22T12:34:48Z</time>
      </trkpt>
      <trkpt lat="44.88896" lon="4.23549">
        <ele>961</ele>
        <time>2019-12-22T12:34:55Z</time>
      </trkpt>
      <trkpt lat="44.88903" lon="4.23531">
        <ele>962</ele>
        <time>2019-12-22T12:34:58Z</time>
      </trkpt>
      <trkpt lat="44.88912" lon="4.23485">
        <ele>964</ele>
        <time>2019-12-22T12:35:04Z</time>
      </trkpt>
      <trkpt lat="44.88913" lon="4.23472">
        <ele>965</ele>
        <time>2019-12-22T12:35:05Z</time>
      </trkpt>
      <trkpt lat="44.8891" lon="4.23448">
        <ele>967</ele>
        <time>2019-12-22T12:35:08Z</time>
      </trkpt>
      <trkpt lat="44.88905" lon="4.23436">
        <ele>967</ele>
        <time>2019-12-22T12:35:10Z</time>
      </trkpt>
      <trkpt lat="44.88888" lon="4.23409">
        <ele>966</ele>
        <time>2019-12-22T12:35:15Z</time>
      </trkpt>
      <trkpt lat="44.88884" lon="4.23399">
        <ele>966</ele>
        <time>2019-12-22T12:35:16Z</time>
      </trkpt>
      <trkpt lat="44.88881" lon="4.23388">
        <ele>966</ele>
        <time>2019-12-22T12:35:18Z</time>
      </trkpt>
      <trkpt lat="44.88881" lon="4.23375">
        <ele>966</ele>
        <time>2019-12-22T12:35:19Z</time>
      </trkpt>
      <trkpt lat="44.88884" lon="4.23358">
        <ele>967</ele>
        <time>2019-12-22T12:35:21Z</time>
      </trkpt>
      <trkpt lat="44.88925" lon="4.23215">
        <ele>977</ele>
        <time>2019-12-22T12:35:41Z</time>
      </trkpt>
      <trkpt lat="44.88929" lon="4.23193">
        <ele>979</ele>
        <time>2019-12-22T12:35:44Z</time>
      </trkpt>
      <trkpt lat="44.88932" lon="4.23151">
        <ele>982</ele>
        <time>2019-12-22T12:35:49Z</time>
      </trkpt>
      <trkpt lat="44.88931" lon="4.23108">
        <ele>984</ele>
        <time>2019-12-22T12:35:55Z</time>
      </trkpt>
      <trkpt lat="44.88912" lon="4.22961">
        <ele>993</ele>
        <time>2019-12-22T12:36:13Z</time>
      </trkpt>
      <trkpt lat="44.88898" lon="4.22912">
        <ele>995</ele>
        <time>2019-12-22T12:36:20Z</time>
      </trkpt>
      <trkpt lat="44.88883" lon="4.22845">
        <ele>998</ele>
        <time>2019-12-22T12:36:29Z</time>
      </trkpt>
      <trkpt lat="44.88866" lon="4.22791">
        <ele>999</ele>
        <time>2019-12-22T12:36:36Z</time>
      </trkpt>
      <trkpt lat="44.88853" lon="4.22655">
        <ele>1013</ele>
        <time>2019-12-22T12:36:54Z</time>
      </trkpt>
      <trkpt lat="44.88849" lon="4.22637">
        <ele>1015</ele>
        <time>2019-12-22T12:36:56Z</time>
      </trkpt>
      <trkpt lat="44.88841" lon="4.22612">
        <ele>1016</ele>
        <time>2019-12-22T12:36:59Z</time>
      </trkpt>
      <trkpt lat="44.88831" lon="4.22592">
        <ele>1017</ele>
        <time>2019-12-22T12:37:03Z</time>
      </trkpt>
      <trkpt lat="44.8882" lon="4.22576">
        <ele>1017</ele>
        <time>2019-12-22T12:37:05Z</time>
      </trkpt>
      <trkpt lat="44.88814" lon="4.22568">
        <ele>1017</ele>
        <time>2019-12-22T12:37:07Z</time>
      </trkpt>
      <trkpt lat="44.88806" lon="4.22564">
        <ele>1016</ele>
        <time>2019-12-22T12:37:08Z</time>
      </trkpt>
      <trkpt lat="44.88775" lon="4.22553">
        <ele>1011</ele>
        <time>2019-12-22T12:37:14Z</time>
      </trkpt>
      <trkpt lat="44.88768" lon="4.22546">
        <ele>1011</ele>
        <time>2019-12-22T12:37:16Z</time>
      </trkpt>
      <trkpt lat="44.88764" lon="4.22537">
        <ele>1012</ele>
        <time>2019-12-22T12:37:17Z</time>
      </trkpt>
      <trkpt lat="44.88763" lon="4.22527">
        <ele>1014</ele>
        <time>2019-12-22T12:37:18Z</time>
      </trkpt>
      <trkpt lat="44.88765" lon="4.22518">
        <ele>1017</ele>
        <time>2019-12-22T12:37:19Z</time>
      </trkpt>
      <trkpt lat="44.88769" lon="4.22509">
        <ele>1020</ele>
        <time>2019-12-22T12:37:21Z</time>
      </trkpt>
      <trkpt lat="44.88776" lon="4.22504">
        <ele>1022</ele>
        <time>2019-12-22T12:37:22Z</time>
      </trkpt>
      <trkpt lat="44.88784" lon="4.22503">
        <ele>1024</ele>
        <time>2019-12-22T12:37:24Z</time>
      </trkpt>
      <trkpt lat="44.88796" lon="4.22508">
        <ele>1026</ele>
        <time>2019-12-22T12:37:26Z</time>
      </trkpt>
      <trkpt lat="44.88868" lon="4.22564">
        <ele>1033</ele>
        <time>2019-12-22T12:37:40Z</time>
      </trkpt>
      <trkpt lat="44.88877" lon="4.22572">
        <ele>1034</ele>
        <time>2019-12-22T12:37:42Z</time>
      </trkpt>
      <trkpt lat="44.88927" lon="4.22659">
        <ele>1036</ele>
        <time>2019-12-22T12:37:56Z</time>
      </trkpt>
      <trkpt lat="44.8894" lon="4.22696">
        <ele>1035</ele>
        <time>2019-12-22T12:38:02Z</time>
      </trkpt>
      <trkpt lat="44.88947" lon="4.22726">
        <ele>1033</ele>
        <time>2019-12-22T12:38:06Z</time>
      </trkpt>
      <trkpt lat="44.88951" lon="4.22738">
        <ele>1032</ele>
        <time>2019-12-22T12:38:07Z</time>
      </trkpt>
      <trkpt lat="44.88958" lon="4.22746">
        <ele>1032</ele>
        <time>2019-12-22T12:38:09Z</time>
      </trkpt>
      <trkpt lat="44.88967" lon="4.22751">
        <ele>1034</ele>
        <time>2019-12-22T12:38:11Z</time>
      </trkpt>
      <trkpt lat="44.8899" lon="4.22752">
        <ele>1039</ele>
        <time>2019-12-22T12:38:15Z</time>
      </trkpt>
      <trkpt lat="44.89023" lon="4.22761">
        <ele>1044</ele>
        <time>2019-12-22T12:38:21Z</time>
      </trkpt>
      <trkpt lat="44.89034" lon="4.22762">
        <ele>1046</ele>
        <time>2019-12-22T12:38:23Z</time>
      </trkpt>
      <trkpt lat="44.89058" lon="4.22756">
        <ele>1050</ele>
        <time>2019-12-22T12:38:27Z</time>
      </trkpt>
      <trkpt lat="44.89067" lon="4.22757">
        <ele>1051</ele>
        <time>2019-12-22T12:38:29Z</time>
      </trkpt>
      <trkpt lat="44.89078" lon="4.22761">
        <ele>1053</ele>
        <time>2019-12-22T12:38:31Z</time>
      </trkpt>
      <trkpt lat="44.89093" lon="4.2277">
        <ele>1054</ele>
        <time>2019-12-22T12:38:33Z</time>
      </trkpt>
      <trkpt lat="44.89124" lon="4.22795">
        <ele>1057</ele>
        <time>2019-12-22T12:38:40Z</time>
      </trkpt>
      <trkpt lat="44.89155" lon="4.22825">
        <ele>1059</ele>
        <time>2019-12-22T12:38:47Z</time>
      </trkpt>
      <trkpt lat="44.89212" lon="4.22895">
        <ele>1064</ele>
        <time>2019-12-22T12:39:00Z</time>
      </trkpt>
      <trkpt lat="44.89239" lon="4.22922">
        <ele>1068</ele>
        <time>2019-12-22T12:39:06Z</time>
      </trkpt>
      <trkpt lat="44.89249" lon="4.22938">
        <ele>1069</ele>
        <time>2019-12-22T12:39:09Z</time>
      </trkpt>
      <trkpt lat="44.89259" lon="4.22956">
        <ele>1070</ele>
        <time>2019-12-22T12:39:11Z</time>
      </trkpt>
      <trkpt lat="44.89289" lon="4.23024">
        <ele>1076</ele>
        <time>2019-12-22T12:39:22Z</time>
      </trkpt>
      <trkpt lat="44.89295" lon="4.23041">
        <ele>1077</ele>
        <time>2019-12-22T12:39:24Z</time>
      </trkpt>
      <trkpt lat="44.89298" lon="4.23057">
        <ele>1078</ele>
        <time>2019-12-22T12:39:26Z</time>
      </trkpt>
      <trkpt lat="44.89305" lon="4.23125">
        <ele>1082</ele>
        <time>2019-12-22T12:39:35Z</time>
      </trkpt>
      <trkpt lat="44.89308" lon="4.23173">
        <ele>1085</ele>
        <time>2019-12-22T12:39:41Z</time>
      </trkpt>
      <trkpt lat="44.89306" lon="4.23191">
        <ele>1085</ele>
        <time>2019-12-22T12:39:43Z</time>
      </trkpt>
      <trkpt lat="44.89297" lon="4.2323">
        <ele>1084</ele>
        <time>2019-12-22T12:39:48Z</time>
      </trkpt>
      <trkpt lat="44.89296" lon="4.23243">
        <ele>1085</ele>
        <time>2019-12-22T12:39:50Z</time>
      </trkpt>
      <trkpt lat="44.89298" lon="4.23256">
        <ele>1085</ele>
        <time>2019-12-22T12:39:52Z</time>
      </trkpt>
      <trkpt lat="44.8931" lon="4.23288">
        <ele>1088</ele>
        <time>2019-12-22T12:39:56Z</time>
      </trkpt>
      <trkpt lat="44.89354" lon="4.23375">
        <ele>1097</ele>
        <time>2019-12-22T12:40:10Z</time>
      </trkpt>
      <trkpt lat="44.89365" lon="4.23402">
        <ele>1099</ele>
        <time>2019-12-22T12:40:13Z</time>
      </trkpt>
      <trkpt lat="44.89373" lon="4.23445">
        <ele>1101</ele>
        <time>2019-12-22T12:40:19Z</time>
      </trkpt>
      <trkpt lat="44.89379" lon="4.23501">
        <ele>1102</ele>
        <time>2019-12-22T12:40:26Z</time>
      </trkpt>
      <trkpt lat="44.89391" lon="4.23563">
        <ele>1106</ele>
        <time>2019-12-22T12:40:34Z</time>
      </trkpt>
      <trkpt lat="44.89407" lon="4.23635">
        <ele>1110</ele>
        <time>2019-12-22T12:40:44Z</time>
      </trkpt>
      <trkpt lat="44.89436" lon="4.23738">
        <ele>1118</ele>
        <time>2019-12-22T12:40:58Z</time>
      </trkpt>
      <trkpt lat="44.89448" lon="4.23772">
        <ele>1120</ele>
        <time>2019-12-22T12:41:03Z</time>
      </trkpt>
      <trkpt lat="44.89464" lon="4.23811">
        <ele>1121</ele>
        <time>2019-12-22T12:41:08Z</time>
      </trkpt>
      <trkpt lat="44.895" lon="4.23866">
        <ele>1125</ele>
        <time>2019-12-22T12:41:18Z</time>
      </trkpt>
      <trkpt lat="44.8952" lon="4.2389">
        <ele>1126</ele>
        <time>2019-12-22T12:41:22Z</time>
      </trkpt>
      <trkpt lat="44.89537" lon="4.23906">
        <ele>1127</ele>
        <time>2019-12-22T12:41:26Z</time>
      </trkpt>
      <trkpt lat="44.89553" lon="4.2392">
        <ele>1128</ele>
        <time>2019-12-22T12:41:29Z</time>
      </trkpt>
      <trkpt lat="44.89664" lon="4.23997">
        <ele>1140</ele>
        <time>2019-12-22T12:41:51Z</time>
      </trkpt>
      <trkpt lat="44.89686" lon="4.24009">
        <ele>1141</ele>
        <time>2019-12-22T12:41:56Z</time>
      </trkpt>
      <trkpt lat="44.89704" lon="4.24016">
        <ele>1143</ele>
        <time>2019-12-22T12:41:59Z</time>
      </trkpt>
      <trkpt lat="44.89737" lon="4.24022">
        <ele>1147</ele>
        <time>2019-12-22T12:42:05Z</time>
      </trkpt>
      <trkpt lat="44.89795" lon="4.24023">
        <ele>1152</ele>
        <time>2019-12-22T12:42:15Z</time>
      </trkpt>
      <trkpt lat="44.89809" lon="4.24021">
        <ele>1153</ele>
        <time>2019-12-22T12:42:18Z</time>
      </trkpt>
      <trkpt lat="44.89818" lon="4.24015">
        <ele>1154</ele>
        <time>2019-12-22T12:42:19Z</time>
      </trkpt>
      <trkpt lat="44.89831" lon="4.24003">
        <ele>1157</ele>
        <time>2019-12-22T12:42:22Z</time>
      </trkpt>
      <trkpt lat="44.89843" lon="4.23995">
        <ele>1158</ele>
        <time>2019-12-22T12:42:25Z</time>
      </trkpt>
      <trkpt lat="44.89845" lon="4.23974">
        <ele>1160</ele>
        <time>2019-12-22T12:42:27Z</time>
      </trkpt>
      <trkpt lat="44.8985" lon="4.23964">
        <ele>1161</ele>
        <time>2019-12-22T12:42:29Z</time>
      </trkpt>
      <trkpt lat="44.8986" lon="4.23952">
        <ele>1163</ele>
        <time>2019-12-22T12:42:31Z</time>
      </trkpt>
      <trkpt lat="44.89868" lon="4.23947">
        <ele>1163</ele>
        <time>2019-12-22T12:42:33Z</time>
      </trkpt>
      <trkpt lat="44.89877" lon="4.23949">
        <ele>1163</ele>
        <time>2019-12-22T12:42:34Z</time>
      </trkpt>
      <trkpt lat="44.89916" lon="4.23988">
        <ele>1158</ele>
        <time>2019-12-22T12:42:43Z</time>
      </trkpt>
      <trkpt lat="44.89999" lon="4.2404">
        <ele>1150</ele>
        <time>2019-12-22T12:42:59Z</time>
      </trkpt>
      <trkpt lat="44.90015" lon="4.24046">
        <ele>1148</ele>
        <time>2019-12-22T12:43:02Z</time>
      </trkpt>
      <trkpt lat="44.90031" lon="4.24047">
        <ele>1146</ele>
        <time>2019-12-22T12:43:05Z</time>
      </trkpt>
      <trkpt lat="44.90045" lon="4.24044">
        <ele>1145</ele>
        <time>2019-12-22T12:43:07Z</time>
      </trkpt>
      <trkpt lat="44.90104" lon="4.24012">
        <ele>1139</ele>
        <time>2019-12-22T12:43:18Z</time>
      </trkpt>
      <trkpt lat="44.90113" lon="4.24002">
        <ele>1138</ele>
        <time>2019-12-22T12:43:21Z</time>
      </trkpt>
      <trkpt lat="44.90121" lon="4.2399">
        <ele>1138</ele>
        <time>2019-12-22T12:43:23Z</time>
      </trkpt>
      <trkpt lat="44.90148" lon="4.23937">
        <ele>1142</ele>
        <time>2019-12-22T12:43:31Z</time>
      </trkpt>
      <trkpt lat="44.9016" lon="4.23927">
        <ele>1140</ele>
        <time>2019-12-22T12:43:33Z</time>
      </trkpt>
      <trkpt lat="44.9017" lon="4.23916">
        <ele>1140</ele>
        <time>2019-12-22T12:43:36Z</time>
      </trkpt>
      <trkpt lat="44.90195" lon="4.23878">
        <ele>1134</ele>
        <time>2019-12-22T12:43:42Z</time>
      </trkpt>
      <trkpt lat="44.902" lon="4.23863">
        <ele>1133</ele>
        <time>2019-12-22T12:43:44Z</time>
      </trkpt>
      <trkpt lat="44.90205" lon="4.23833">
        <ele>1135</ele>
        <time>2019-12-22T12:43:48Z</time>
      </trkpt>
      <trkpt lat="44.90207" lon="4.23785">
        <ele>1136</ele>
        <time>2019-12-22T12:43:54Z</time>
      </trkpt>
      <trkpt lat="44.90207" lon="4.23746">
        <ele>1136</ele>
        <time>2019-12-22T12:43:59Z</time>
      </trkpt>
      <trkpt lat="44.90205" lon="4.23729">
        <ele>1136</ele>
        <time>2019-12-22T12:44:01Z</time>
      </trkpt>
      <trkpt lat="44.90195" lon="4.23693">
        <ele>1138</ele>
        <time>2019-12-22T12:44:06Z</time>
      </trkpt>
      <trkpt lat="44.90145" lon="4.23552">
        <ele>1133</ele>
        <time>2019-12-22T12:44:26Z</time>
      </trkpt>
      <trkpt lat="44.90139" lon="4.23523">
        <ele>1129</ele>
        <time>2019-12-22T12:44:30Z</time>
      </trkpt>
      <trkpt lat="44.90132" lon="4.23438">
        <ele>1119</ele>
        <time>2019-12-22T12:44:41Z</time>
      </trkpt>
      <trkpt lat="44.90123" lon="4.2338">
        <ele>1116</ele>
        <time>2019-12-22T12:44:48Z</time>
      </trkpt>
      <trkpt lat="44.90109" lon="4.23318">
        <ele>1115</ele>
        <time>2019-12-22T12:44:56Z</time>
      </trkpt>
      <trkpt lat="44.90086" lon="4.23246">
        <ele>1113</ele>
        <time>2019-12-22T12:45:06Z</time>
      </trkpt>
      <trkpt lat="44.9006" lon="4.23174">
        <ele>1106</ele>
        <time>2019-12-22T12:45:16Z</time>
      </trkpt>
      <trkpt lat="44.90033" lon="4.23121">
        <ele>1103</ele>
        <time>2019-12-22T12:45:25Z</time>
      </trkpt>
      <trkpt lat="44.89992" lon="4.23053">
        <ele>1101</ele>
        <time>2019-12-22T12:45:36Z</time>
      </trkpt>
      <trkpt lat="44.89962" lon="4.23012">
        <ele>1098</ele>
        <time>2019-12-22T12:45:43Z</time>
      </trkpt>
      <trkpt lat="44.89944" lon="4.22989">
        <ele>1097</ele>
        <time>2019-12-22T12:45:48Z</time>
      </trkpt>
      <trkpt lat="44.89941" lon="4.2298">
        <ele>1096</ele>
        <time>2019-12-22T12:45:49Z</time>
      </trkpt>
      <trkpt lat="44.89941" lon="4.22972">
        <ele>1095</ele>
        <time>2019-12-22T12:45:50Z</time>
      </trkpt>
      <trkpt lat="44.89944" lon="4.22965">
        <ele>1093</ele>
        <time>2019-12-22T12:45:51Z</time>
      </trkpt>
      <trkpt lat="44.89949" lon="4.22961">
        <ele>1091</ele>
        <time>2019-12-22T12:45:52Z</time>
      </trkpt>
      <trkpt lat="44.89955" lon="4.22963">
        <ele>1091</ele>
        <time>2019-12-22T12:45:53Z</time>
      </trkpt>
      <trkpt lat="44.89991" lon="4.22999">
        <ele>1090</ele>
        <time>2019-12-22T12:46:01Z</time>
      </trkpt>
      <trkpt lat="44.90007" lon="4.23011">
        <ele>1089</ele>
        <time>2019-12-22T12:46:04Z</time>
      </trkpt>
      <trkpt lat="44.90068" lon="4.23047">
        <ele>1079</ele>
        <time>2019-12-22T12:46:16Z</time>
      </trkpt>
      <trkpt lat="44.90078" lon="4.23054">
        <ele>1077</ele>
        <time>2019-12-22T12:46:18Z</time>
      </trkpt>
      <trkpt lat="44.90094" lon="4.23071">
        <ele>1075</ele>
        <time>2019-12-22T12:46:21Z</time>
      </trkpt>
      <trkpt lat="44.90115" lon="4.2312">
        <ele>1077</ele>
        <time>2019-12-22T12:46:29Z</time>
      </trkpt>
      <trkpt lat="44.90131" lon="4.23145">
        <ele>1076</ele>
        <time>2019-12-22T12:46:33Z</time>
      </trkpt>
      <trkpt lat="44.90166" lon="4.23191">
        <ele>1070</ele>
        <time>2019-12-22T12:46:41Z</time>
      </trkpt>
      <trkpt lat="44.9022" lon="4.23273">
        <ele>1066</ele>
        <time>2019-12-22T12:46:55Z</time>
      </trkpt>
      <trkpt lat="44.9026" lon="4.23319">
        <ele>1059</ele>
        <time>2019-12-22T12:47:05Z</time>
      </trkpt>
      <trkpt lat="44.90299" lon="4.23376">
        <ele>1055</ele>
        <time>2019-12-22T12:47:15Z</time>
      </trkpt>
      <trkpt lat="44.9031" lon="4.23389">
        <ele>1053</ele>
        <time>2019-12-22T12:47:17Z</time>
      </trkpt>
      <trkpt lat="44.9034" lon="4.23417">
        <ele>1047</ele>
        <time>2019-12-22T12:47:24Z</time>
      </trkpt>
      <trkpt lat="44.90351" lon="4.23431">
        <ele>1046</ele>
        <time>2019-12-22T12:47:26Z</time>
      </trkpt>
      <trkpt lat="44.90364" lon="4.23454">
        <ele>1045</ele>
        <time>2019-12-22T12:47:30Z</time>
      </trkpt>
      <trkpt lat="44.90372" lon="4.23478">
        <ele>1046</ele>
        <time>2019-12-22T12:47:33Z</time>
      </trkpt>
      <trkpt lat="44.90379" lon="4.23508">
        <ele>1047</ele>
        <time>2019-12-22T12:47:37Z</time>
      </trkpt>
      <trkpt lat="44.90383" lon="4.23514">
        <ele>1046</ele>
        <time>2019-12-22T12:47:38Z</time>
      </trkpt>
      <trkpt lat="44.9039" lon="4.23517">
        <ele>1044</ele>
        <time>2019-12-22T12:47:40Z</time>
      </trkpt>
      <trkpt lat="44.90395" lon="4.23516">
        <ele>1043</ele>
        <time>2019-12-22T12:47:41Z</time>
      </trkpt>
      <trkpt lat="44.90399" lon="4.2351">
        <ele>1041</ele>
        <time>2019-12-22T12:47:42Z</time>
      </trkpt>
      <trkpt lat="44.904" lon="4.23502">
        <ele>1041</ele>
        <time>2019-12-22T12:47:43Z</time>
      </trkpt>
      <trkpt lat="44.90399" lon="4.23493">
        <ele>1040</ele>
        <time>2019-12-22T12:47:44Z</time>
      </trkpt>
      <trkpt lat="44.9039" lon="4.23469">
        <ele>1041</ele>
        <time>2019-12-22T12:47:47Z</time>
      </trkpt>
      <trkpt lat="44.90386" lon="4.23454">
        <ele>1040</ele>
        <time>2019-12-22T12:47:49Z</time>
      </trkpt>
      <trkpt lat="44.90353" lon="4.23255">
        <ele>1035</ele>
        <time>2019-12-22T12:48:15Z</time>
      </trkpt>
      <trkpt lat="44.90324" lon="4.23145">
        <ele>1028</ele>
        <time>2019-12-22T12:48:30Z</time>
      </trkpt>
      <trkpt lat="44.90275" lon="4.22949">
        <ele>1021</ele>
        <time>2019-12-22T12:48:56Z</time>
      </trkpt>
      <trkpt lat="44.9025" lon="4.22855">
        <ele>1018</ele>
        <time>2019-12-22T12:49:09Z</time>
      </trkpt>
      <trkpt lat="44.90248" lon="4.22841">
        <ele>1016</ele>
        <time>2019-12-22T12:49:10Z</time>
      </trkpt>
      <trkpt lat="44.90247" lon="4.22813">
        <ele>1015</ele>
        <time>2019-12-22T12:49:14Z</time>
      </trkpt>
      <trkpt lat="44.90247" lon="4.22767">
        <ele>1013</ele>
        <time>2019-12-22T12:49:20Z</time>
      </trkpt>
      <trkpt lat="44.90245" lon="4.22748">
        <ele>1013</ele>
        <time>2019-12-22T12:49:22Z</time>
      </trkpt>
      <trkpt lat="44.90232" lon="4.22709">
        <ele>1018</ele>
        <time>2019-12-22T12:49:28Z</time>
      </trkpt>
      <trkpt lat="44.90216" lon="4.22683">
        <ele>1020</ele>
        <time>2019-12-22T12:49:32Z</time>
      </trkpt>
      <trkpt lat="44.9019" lon="4.22651">
        <ele>1022</ele>
        <time>2019-12-22T12:49:38Z</time>
      </trkpt>
      <trkpt lat="44.90177" lon="4.22637">
        <ele>1023</ele>
        <time>2019-12-22T12:49:41Z</time>
      </trkpt>
      <trkpt lat="44.90151" lon="4.22617">
        <ele>1026</ele>
        <time>2019-12-22T12:49:46Z</time>
      </trkpt>
      <trkpt lat="44.90144" lon="4.22608">
        <ele>1027</ele>
        <time>2019-12-22T12:49:48Z</time>
      </trkpt>
      <trkpt lat="44.90141" lon="4.22599">
        <ele>1028</ele>
        <time>2019-12-22T12:49:49Z</time>
      </trkpt>
      <trkpt lat="44.9014" lon="4.2259">
        <ele>1028</ele>
        <time>2019-12-22T12:49:50Z</time>
      </trkpt>
      <trkpt lat="44.90142" lon="4.22576">
        <ele>1030</ele>
        <time>2019-12-22T12:49:52Z</time>
      </trkpt>
      <trkpt lat="44.90152" lon="4.22542">
        <ele>1033</ele>
        <time>2019-12-22T12:49:57Z</time>
      </trkpt>
      <trkpt lat="44.90152" lon="4.22529">
        <ele>1034</ele>
        <time>2019-12-22T12:49:58Z</time>
      </trkpt>
      <trkpt lat="44.90151" lon="4.2252">
        <ele>1035</ele>
        <time>2019-12-22T12:50:00Z</time>
      </trkpt>
      <trkpt lat="44.90147" lon="4.22512">
        <ele>1035</ele>
        <time>2019-12-22T12:50:01Z</time>
      </trkpt>
      <trkpt lat="44.90132" lon="4.22486">
        <ele>1035</ele>
        <time>2019-12-22T12:50:05Z</time>
      </trkpt>
      <trkpt lat="44.9013" lon="4.22476">
        <ele>1036</ele>
        <time>2019-12-22T12:50:06Z</time>
      </trkpt>
      <trkpt lat="44.90131" lon="4.22469">
        <ele>1037</ele>
        <time>2019-12-22T12:50:07Z</time>
      </trkpt>
      <trkpt lat="44.90135" lon="4.22463">
        <ele>1038</ele>
        <time>2019-12-22T12:50:08Z</time>
      </trkpt>
      <trkpt lat="44.90146" lon="4.2246">
        <ele>1040</ele>
        <time>2019-12-22T12:50:10Z</time>
      </trkpt>
      <trkpt lat="44.90153" lon="4.22464">
        <ele>1041</ele>
        <time>2019-12-22T12:50:12Z</time>
      </trkpt>
      <trkpt lat="44.90159" lon="4.22472">
        <ele>1041</ele>
        <time>2019-12-22T12:50:13Z</time>
      </trkpt>
      <trkpt lat="44.90193" lon="4.22547">
        <ele>1038</ele>
        <time>2019-12-22T12:50:24Z</time>
      </trkpt>
      <trkpt lat="44.90198" lon="4.22555">
        <ele>1038</ele>
        <time>2019-12-22T12:50:26Z</time>
      </trkpt>
      <trkpt lat="44.90204" lon="4.2256">
        <ele>1038</ele>
        <time>2019-12-22T12:50:27Z</time>
      </trkpt>
      <trkpt lat="44.9021" lon="4.22562">
        <ele>1039</ele>
        <time>2019-12-22T12:50:28Z</time>
      </trkpt>
      <trkpt lat="44.90235" lon="4.22561">
        <ele>1043</ele>
        <time>2019-12-22T12:50:32Z</time>
      </trkpt>
      <trkpt lat="44.90264" lon="4.22551">
        <ele>1048</ele>
        <time>2019-12-22T12:50:38Z</time>
      </trkpt>
      <trkpt lat="44.90314" lon="4.22539">
        <ele>1054</ele>
        <time>2019-12-22T12:50:47Z</time>
      </trkpt>
      <trkpt lat="44.90323" lon="4.22539">
        <ele>1054</ele>
        <time>2019-12-22T12:50:48Z</time>
      </trkpt>
      <trkpt lat="44.90332" lon="4.22543">
        <ele>1054</ele>
        <time>2019-12-22T12:50:50Z</time>
      </trkpt>
      <trkpt lat="44.90346" lon="4.22554">
        <ele>1055</ele>
        <time>2019-12-22T12:50:53Z</time>
      </trkpt>
      <trkpt lat="44.90398" lon="4.22625">
        <ele>1052</ele>
        <time>2019-12-22T12:51:06Z</time>
      </trkpt>
      <trkpt lat="44.90436" lon="4.22657">
        <ele>1055</ele>
        <time>2019-12-22T12:51:14Z</time>
      </trkpt>
      <trkpt lat="44.90466" lon="4.22729">
        <ele>1052</ele>
        <time>2019-12-22T12:51:24Z</time>
      </trkpt>
      <trkpt lat="44.90479" lon="4.22751">
        <ele>1052</ele>
        <time>2019-12-22T12:51:28Z</time>
      </trkpt>
      <trkpt lat="44.90507" lon="4.22793">
        <ele>1049</ele>
        <time>2019-12-22T12:51:35Z</time>
      </trkpt>
      <trkpt lat="44.90577" lon="4.22884">
        <ele>1044</ele>
        <time>2019-12-22T12:51:52Z</time>
      </trkpt>
      <trkpt lat="44.90622" lon="4.22947">
        <ele>1035</ele>
        <time>2019-12-22T12:52:03Z</time>
      </trkpt>
      <trkpt lat="44.90636" lon="4.2296">
        <ele>1035</ele>
        <time>2019-12-22T12:52:06Z</time>
      </trkpt>
      <trkpt lat="44.90653" lon="4.22971">
        <ele>1037</ele>
        <time>2019-12-22T12:52:10Z</time>
      </trkpt>
      <trkpt lat="44.90704" lon="4.22995">
        <ele>1035</ele>
        <time>2019-12-22T12:52:19Z</time>
      </trkpt>
      <trkpt lat="44.90719" lon="4.22998">
        <ele>1034</ele>
        <time>2019-12-22T12:52:22Z</time>
      </trkpt>
      <trkpt lat="44.90731" lon="4.22995">
        <ele>1034</ele>
        <time>2019-12-22T12:52:24Z</time>
      </trkpt>
      <trkpt lat="44.90743" lon="4.22989">
        <ele>1036</ele>
        <time>2019-12-22T12:52:26Z</time>
      </trkpt>
      <trkpt lat="44.90755" lon="4.2298">
        <ele>1036</ele>
        <time>2019-12-22T12:52:29Z</time>
      </trkpt>
      <trkpt lat="44.90763" lon="4.22967">
        <ele>1037</ele>
        <time>2019-12-22T12:52:31Z</time>
      </trkpt>
      <trkpt lat="44.90826" lon="4.22839">
        <ele>1038</ele>
        <time>2019-12-22T12:52:50Z</time>
      </trkpt>
      <trkpt lat="44.90834" lon="4.22827">
        <ele>1037</ele>
        <time>2019-12-22T12:52:53Z</time>
      </trkpt>
      <trkpt lat="44.90843" lon="4.2282">
        <ele>1037</ele>
        <time>2019-12-22T12:52:54Z</time>
      </trkpt>
      <trkpt lat="44.90856" lon="4.22817">
        <ele>1036</ele>
        <time>2019-12-22T12:52:57Z</time>
      </trkpt>
      <trkpt lat="44.90876" lon="4.22821">
        <ele>1033</ele>
        <time>2019-12-22T12:53:00Z</time>
      </trkpt>
      <trkpt lat="44.90884" lon="4.22828">
        <ele>1031</ele>
        <time>2019-12-22T12:53:02Z</time>
      </trkpt>
      <trkpt lat="44.90891" lon="4.22837">
        <ele>1029</ele>
        <time>2019-12-22T12:53:04Z</time>
      </trkpt>
      <trkpt lat="44.90904" lon="4.22862">
        <ele>1026</ele>
        <time>2019-12-22T12:53:08Z</time>
      </trkpt>
      <trkpt lat="44.90912" lon="4.22912">
        <ele>1023</ele>
        <time>2019-12-22T12:53:14Z</time>
      </trkpt>
      <trkpt lat="44.90921" lon="4.22932">
        <ele>1022</ele>
        <time>2019-12-22T12:53:17Z</time>
      </trkpt>
      <trkpt lat="44.90979" lon="4.22987">
        <ele>1025</ele>
        <time>2019-12-22T12:53:29Z</time>
      </trkpt>
      <trkpt lat="44.90989" lon="4.23">
        <ele>1025</ele>
        <time>2019-12-22T12:53:32Z</time>
      </trkpt>
      <trkpt lat="44.90996" lon="4.2302">
        <ele>1026</ele>
        <time>2019-12-22T12:53:35Z</time>
      </trkpt>
      <trkpt lat="44.90996" lon="4.23034">
        <ele>1025</ele>
        <time>2019-12-22T12:53:36Z</time>
      </trkpt>
      <trkpt lat="44.90989" lon="4.23076">
        <ele>1022</ele>
        <time>2019-12-22T12:53:42Z</time>
      </trkpt>
      <trkpt lat="44.90993" lon="4.23081">
        <ele>1023</ele>
        <time>2019-12-22T12:53:43Z</time>
      </trkpt>
      <trkpt lat="44.90995" lon="4.23087">
        <ele>1024</ele>
        <time>2019-12-22T12:53:44Z</time>
      </trkpt>
      <trkpt lat="44.90995" lon="4.23122">
        <ele>1024</ele>
        <time>2019-12-22T12:53:48Z</time>
      </trkpt>
      <trkpt lat="44.90996" lon="4.23153">
        <ele>1024</ele>
        <time>2019-12-22T12:53:52Z</time>
      </trkpt>
      <trkpt lat="44.91006" lon="4.2322">
        <ele>1025</ele>
        <time>2019-12-22T12:54:01Z</time>
      </trkpt>
      <trkpt lat="44.91009" lon="4.23252">
        <ele>1025</ele>
        <time>2019-12-22T12:54:05Z</time>
      </trkpt>
      <trkpt lat="44.91012" lon="4.23267">
        <ele>1024</ele>
        <time>2019-12-22T12:54:07Z</time>
      </trkpt>
      <trkpt lat="44.91017" lon="4.23276">
        <ele>1024</ele>
        <time>2019-12-22T12:54:08Z</time>
      </trkpt>
      <trkpt lat="44.91024" lon="4.23282">
        <ele>1024</ele>
        <time>2019-12-22T12:54:10Z</time>
      </trkpt>
      <trkpt lat="44.91033" lon="4.23285">
        <ele>1024</ele>
        <time>2019-12-22T12:54:11Z</time>
      </trkpt>
      <trkpt lat="44.91044" lon="4.23284">
        <ele>1025</ele>
        <time>2019-12-22T12:54:13Z</time>
      </trkpt>
      <trkpt lat="44.91053" lon="4.23281">
        <ele>1026</ele>
        <time>2019-12-22T12:54:15Z</time>
      </trkpt>
      <trkpt lat="44.91076" lon="4.2326">
        <ele>1031</ele>
        <time>2019-12-22T12:54:20Z</time>
      </trkpt>
      <trkpt lat="44.91096" lon="4.23247">
        <ele>1036</ele>
        <time>2019-12-22T12:54:24Z</time>
      </trkpt>
      <trkpt lat="44.91099" lon="4.23241">
        <ele>1037</ele>
        <time>2019-12-22T12:54:24Z</time>
      </trkpt>
      <trkpt lat="44.91099" lon="4.23235">
        <ele>1038</ele>
        <time>2019-12-22T12:54:25Z</time>
      </trkpt>
      <trkpt lat="44.91098" lon="4.23229">
        <ele>1039</ele>
        <time>2019-12-22T12:54:26Z</time>
      </trkpt>
      <trkpt lat="44.91095" lon="4.23225">
        <ele>1039</ele>
        <time>2019-12-22T12:54:27Z</time>
      </trkpt>
      <trkpt lat="44.91091" lon="4.23224">
        <ele>1039</ele>
        <time>2019-12-22T12:54:27Z</time>
      </trkpt>
      <trkpt lat="44.91087" lon="4.23226">
        <ele>1038</ele>
        <time>2019-12-22T12:54:28Z</time>
      </trkpt>
      <trkpt lat="44.91068" lon="4.23245">
        <ele>1033</ele>
        <time>2019-12-22T12:54:32Z</time>
      </trkpt>
      <trkpt lat="44.9106" lon="4.23248">
        <ele>1031</ele>
        <time>2019-12-22T12:54:34Z</time>
      </trkpt>
      <trkpt lat="44.91054" lon="4.23247">
        <ele>1031</ele>
        <time>2019-12-22T12:54:35Z</time>
      </trkpt>
      <trkpt lat="44.91047" lon="4.2324">
        <ele>1031</ele>
        <time>2019-12-22T12:54:36Z</time>
      </trkpt>
      <trkpt lat="44.91042" lon="4.23229">
        <ele>1031</ele>
        <time>2019-12-22T12:54:38Z</time>
      </trkpt>
      <trkpt lat="44.91038" lon="4.2321">
        <ele>1032</ele>
        <time>2019-12-22T12:54:41Z</time>
      </trkpt>
      <trkpt lat="44.91038" lon="4.23191">
        <ele>1033</ele>
        <time>2019-12-22T12:54:43Z</time>
      </trkpt>
      <trkpt lat="44.91047" lon="4.23137">
        <ele>1039</ele>
        <time>2019-12-22T12:54:50Z</time>
      </trkpt>
      <trkpt lat="44.91056" lon="4.23105">
        <ele>1044</ele>
        <time>2019-12-22T12:54:54Z</time>
      </trkpt>
      <trkpt lat="44.91068" lon="4.23075">
        <ele>1049</ele>
        <time>2019-12-22T12:54:59Z</time>
      </trkpt>
      <trkpt lat="44.91085" lon="4.23038">
        <ele>1052</ele>
        <time>2019-12-22T12:55:04Z</time>
      </trkpt>
      <trkpt lat="44.91135" lon="4.22952">
        <ele>1065</ele>
        <time>2019-12-22T12:55:18Z</time>
      </trkpt>
      <trkpt lat="44.91141" lon="4.22933">
        <ele>1066</ele>
        <time>2019-12-22T12:55:21Z</time>
      </trkpt>
      <trkpt lat="44.91146" lon="4.22899">
        <ele>1069</ele>
        <time>2019-12-22T12:55:25Z</time>
      </trkpt>
      <trkpt lat="44.91146" lon="4.22862">
        <ele>1071</ele>
        <time>2019-12-22T12:55:30Z</time>
      </trkpt>
      <trkpt lat="44.91133" lon="4.22795">
        <ele>1072</ele>
        <time>2019-12-22T12:55:39Z</time>
      </trkpt>
      <trkpt lat="44.91132" lon="4.22772">
        <ele>1073</ele>
        <time>2019-12-22T12:55:42Z</time>
      </trkpt>
      <trkpt lat="44.91138" lon="4.22679">
        <ele>1081</ele>
        <time>2019-12-22T12:55:53Z</time>
      </trkpt>
      <trkpt lat="44.91137" lon="4.22668">
        <ele>1081</ele>
        <time>2019-12-22T12:55:55Z</time>
      </trkpt>
      <trkpt lat="44.91123" lon="4.22612">
        <ele>1082</ele>
        <time>2019-12-22T12:56:02Z</time>
      </trkpt>
      <trkpt lat="44.91102" lon="4.22512">
        <ele>1087</ele>
        <time>2019-12-22T12:56:15Z</time>
      </trkpt>
      <trkpt lat="44.91083" lon="4.22465">
        <ele>1087</ele>
        <time>2019-12-22T12:56:22Z</time>
      </trkpt>
      <trkpt lat="44.91057" lon="4.22368">
        <ele>1094</ele>
        <time>2019-12-22T12:56:35Z</time>
      </trkpt>
      <trkpt lat="44.91051" lon="4.22357">
        <ele>1094</ele>
        <time>2019-12-22T12:56:37Z</time>
      </trkpt>
      <trkpt lat="44.91029" lon="4.22328">
        <ele>1093</ele>
        <time>2019-12-22T12:56:42Z</time>
      </trkpt>
      <trkpt lat="44.91026" lon="4.22321">
        <ele>1093</ele>
        <time>2019-12-22T12:56:43Z</time>
      </trkpt>
      <trkpt lat="44.91025" lon="4.22312">
        <ele>1094</ele>
        <time>2019-12-22T12:56:45Z</time>
      </trkpt>
      <trkpt lat="44.91026" lon="4.22305">
        <ele>1095</ele>
        <time>2019-12-22T12:56:45Z</time>
      </trkpt>
      <trkpt lat="44.91029" lon="4.22301">
        <ele>1097</ele>
        <time>2019-12-22T12:56:46Z</time>
      </trkpt>
      <trkpt lat="44.91034" lon="4.22299">
        <ele>1098</ele>
        <time>2019-12-22T12:56:47Z</time>
      </trkpt>
      <trkpt lat="44.9104" lon="4.22302">
        <ele>1099</ele>
        <time>2019-12-22T12:56:48Z</time>
      </trkpt>
      <trkpt lat="44.91061" lon="4.22322">
        <ele>1100</ele>
        <time>2019-12-22T12:56:53Z</time>
      </trkpt>
      <trkpt lat="44.91069" lon="4.22333">
        <ele>1099</ele>
        <time>2019-12-22T12:56:55Z</time>
      </trkpt>
      <trkpt lat="44.91081" lon="4.22355">
        <ele>1099</ele>
        <time>2019-12-22T12:56:58Z</time>
      </trkpt>
      <trkpt lat="44.911" lon="4.22377">
        <ele>1102</ele>
        <time>2019-12-22T12:57:03Z</time>
      </trkpt>
      <trkpt lat="44.91108" lon="4.22393">
        <ele>1103</ele>
        <time>2019-12-22T12:57:05Z</time>
      </trkpt>
      <trkpt lat="44.91114" lon="4.22418">
        <ele>1102</ele>
        <time>2019-12-22T12:57:08Z</time>
      </trkpt>
      <trkpt lat="44.91121" lon="4.22432">
        <ele>1102</ele>
        <time>2019-12-22T12:57:11Z</time>
      </trkpt>
      <trkpt lat="44.91127" lon="4.22439">
        <ele>1103</ele>
        <time>2019-12-22T12:57:12Z</time>
      </trkpt>
      <trkpt lat="44.91147" lon="4.22448">
        <ele>1107</ele>
        <time>2019-12-22T12:57:16Z</time>
      </trkpt>
      <trkpt lat="44.91167" lon="4.22461">
        <ele>1111</ele>
        <time>2019-12-22T12:57:20Z</time>
      </trkpt>
      <trkpt lat="44.91188" lon="4.22484">
        <ele>1113</ele>
        <time>2019-12-22T12:57:24Z</time>
      </trkpt>
      <trkpt lat="44.91225" lon="4.22521">
        <ele>1116</ele>
        <time>2019-12-22T12:57:32Z</time>
      </trkpt>
      <trkpt lat="44.91236" lon="4.2254">
        <ele>1117</ele>
        <time>2019-12-22T12:57:35Z</time>
      </trkpt>
      <trkpt lat="44.91242" lon="4.22556">
        <ele>1117</ele>
        <time>2019-12-22T12:57:38Z</time>
      </trkpt>
      <trkpt lat="44.91254" lon="4.22607">
        <ele>1115</ele>
        <time>2019-12-22T12:57:45Z</time>
      </trkpt>
      <trkpt lat="44.91264" lon="4.2264">
        <ele>1116</ele>
        <time>2019-12-22T12:57:49Z</time>
      </trkpt>
      <trkpt lat="44.91274" lon="4.22682">
        <ele>1117</ele>
        <time>2019-12-22T12:57:55Z</time>
      </trkpt>
      <trkpt lat="44.91279" lon="4.22708">
        <ele>1118</ele>
        <time>2019-12-22T12:57:58Z</time>
      </trkpt>
      <trkpt lat="44.91279" lon="4.22736">
        <ele>1118</ele>
        <time>2019-12-22T12:58:02Z</time>
      </trkpt>
      <trkpt lat="44.91269" lon="4.22776">
        <ele>1115</ele>
        <time>2019-12-22T12:58:07Z</time>
      </trkpt>
      <trkpt lat="44.91269" lon="4.2279">
        <ele>1115</ele>
        <time>2019-12-22T12:58:09Z</time>
      </trkpt>
      <trkpt lat="44.91273" lon="4.22861">
        <ele>1115</ele>
        <time>2019-12-22T12:58:18Z</time>
      </trkpt>
      <trkpt lat="44.91277" lon="4.22891">
        <ele>1114</ele>
        <time>2019-12-22T12:58:21Z</time>
      </trkpt>
      <trkpt lat="44.9128" lon="4.22899">
        <ele>1114</ele>
        <time>2019-12-22T12:58:23Z</time>
      </trkpt>
      <trkpt lat="44.91283" lon="4.22903">
        <ele>1115</ele>
        <time>2019-12-22T12:58:23Z</time>
      </trkpt>
      <trkpt lat="44.91288" lon="4.22904">
        <ele>1115</ele>
        <time>2019-12-22T12:58:24Z</time>
      </trkpt>
      <trkpt lat="44.91296" lon="4.229">
        <ele>1117</ele>
        <time>2019-12-22T12:58:26Z</time>
      </trkpt>
      <trkpt lat="44.91308" lon="4.22863">
        <ele>1121</ele>
        <time>2019-12-22T12:58:31Z</time>
      </trkpt>
      <trkpt lat="44.91321" lon="4.2283">
        <ele>1126</ele>
        <time>2019-12-22T12:58:36Z</time>
      </trkpt>
      <trkpt lat="44.91346" lon="4.22775">
        <ele>1130</ele>
        <time>2019-12-22T12:58:44Z</time>
      </trkpt>
      <trkpt lat="44.91352" lon="4.22759">
        <ele>1131</ele>
        <time>2019-12-22T12:58:46Z</time>
      </trkpt>
      <trkpt lat="44.91355" lon="4.22743">
        <ele>1132</ele>
        <time>2019-12-22T12:58:48Z</time>
      </trkpt>
      <trkpt lat="44.91357" lon="4.22726">
        <ele>1134</ele>
        <time>2019-12-22T12:58:50Z</time>
      </trkpt>
      <trkpt lat="44.91359" lon="4.2267">
        <ele>1139</ele>
        <time>2019-12-22T12:58:57Z</time>
      </trkpt>
      <trkpt lat="44.91359" lon="4.22651">
        <ele>1141</ele>
        <time>2019-12-22T12:59:00Z</time>
      </trkpt>
      <trkpt lat="44.91357" lon="4.22634">
        <ele>1143</ele>
        <time>2019-12-22T12:59:02Z</time>
      </trkpt>
      <trkpt lat="44.91352" lon="4.22608">
        <ele>1145</ele>
        <time>2019-12-22T12:59:05Z</time>
      </trkpt>
      <trkpt lat="44.91321" lon="4.22471">
        <ele>1158</ele>
        <time>2019-12-22T12:59:24Z</time>
      </trkpt>
      <trkpt lat="44.91287" lon="4.22366">
        <ele>1161</ele>
        <time>2019-12-22T12:59:38Z</time>
      </trkpt>
      <trkpt lat="44.91284" lon="4.22353">
        <ele>1162</ele>
        <time>2019-12-22T12:59:40Z</time>
      </trkpt>
      <trkpt lat="44.91283" lon="4.22339">
        <ele>1163</ele>
        <time>2019-12-22T12:59:42Z</time>
      </trkpt>
      <trkpt lat="44.91289" lon="4.22286">
        <ele>1171</ele>
        <time>2019-12-22T12:59:48Z</time>
      </trkpt>
      <trkpt lat="44.91286" lon="4.22268">
        <ele>1171</ele>
        <time>2019-12-22T12:59:51Z</time>
      </trkpt>
      <trkpt lat="44.91279" lon="4.22244">
        <ele>1171</ele>
        <time>2019-12-22T12:59:54Z</time>
      </trkpt>
      <trkpt lat="44.91266" lon="4.22218">
        <ele>1172</ele>
        <time>2019-12-22T12:59:58Z</time>
      </trkpt>
      <trkpt lat="44.91246" lon="4.22197">
        <ele>1171</ele>
        <time>2019-12-22T13:00:02Z</time>
      </trkpt>
      <trkpt lat="44.91217" lon="4.22174">
        <ele>1168</ele>
        <time>2019-12-22T13:00:08Z</time>
      </trkpt>
      <trkpt lat="44.91206" lon="4.22162">
        <ele>1167</ele>
        <time>2019-12-22T13:00:11Z</time>
      </trkpt>
      <trkpt lat="44.912" lon="4.22147">
        <ele>1166</ele>
        <time>2019-12-22T13:00:13Z</time>
      </trkpt>
      <trkpt lat="44.91198" lon="4.22132">
        <ele>1167</ele>
        <time>2019-12-22T13:00:15Z</time>
      </trkpt>
      <trkpt lat="44.91198" lon="4.22115">
        <ele>1168</ele>
        <time>2019-12-22T13:00:17Z</time>
      </trkpt>
      <trkpt lat="44.91202" lon="4.22093">
        <ele>1170</ele>
        <time>2019-12-22T13:00:20Z</time>
      </trkpt>
      <trkpt lat="44.91217" lon="4.2204">
        <ele>1176</ele>
        <time>2019-12-22T13:00:27Z</time>
      </trkpt>
      <trkpt lat="44.91226" lon="4.22014">
        <ele>1179</ele>
        <time>2019-12-22T13:00:31Z</time>
      </trkpt>
      <trkpt lat="44.91264" lon="4.21928">
        <ele>1189</ele>
        <time>2019-12-22T13:00:44Z</time>
      </trkpt>
      <trkpt lat="44.91268" lon="4.21916">
        <ele>1190</ele>
        <time>2019-12-22T13:00:45Z</time>
      </trkpt>
      <trkpt lat="44.9129" lon="4.2181">
        <ele>1193</ele>
        <time>2019-12-22T13:00:59Z</time>
      </trkpt>
      <trkpt lat="44.91309" lon="4.21755">
        <ele>1199</ele>
        <time>2019-12-22T13:01:07Z</time>
      </trkpt>
      <trkpt lat="44.91312" lon="4.21741">
        <ele>1200</ele>
        <time>2019-12-22T13:01:09Z</time>
      </trkpt>
      <trkpt lat="44.91313" lon="4.21717">
        <ele>1200</ele>
        <time>2019-12-22T13:01:12Z</time>
      </trkpt>
      <trkpt lat="44.91315" lon="4.21709">
        <ele>1200</ele>
        <time>2019-12-22T13:01:13Z</time>
      </trkpt>
      <trkpt lat="44.9132" lon="4.21704">
        <ele>1202</ele>
        <time>2019-12-22T13:01:14Z</time>
      </trkpt>
      <trkpt lat="44.91327" lon="4.21702">
        <ele>1204</ele>
        <time>2019-12-22T13:01:15Z</time>
      </trkpt>
      <trkpt lat="44.91333" lon="4.21705">
        <ele>1205</ele>
        <time>2019-12-22T13:01:16Z</time>
      </trkpt>
      <trkpt lat="44.91336" lon="4.21711">
        <ele>1206</ele>
        <time>2019-12-22T13:01:17Z</time>
      </trkpt>
      <trkpt lat="44.91338" lon="4.2172">
        <ele>1207</ele>
        <time>2019-12-22T13:01:18Z</time>
      </trkpt>
      <trkpt lat="44.91333" lon="4.2175">
        <ele>1206</ele>
        <time>2019-12-22T13:01:22Z</time>
      </trkpt>
      <trkpt lat="44.91332" lon="4.21783">
        <ele>1206</ele>
        <time>2019-12-22T13:01:26Z</time>
      </trkpt>
      <trkpt lat="44.91335" lon="4.21801">
        <ele>1207</ele>
        <time>2019-12-22T13:01:29Z</time>
      </trkpt>
      <trkpt lat="44.91346" lon="4.21852">
        <ele>1211</ele>
        <time>2019-12-22T13:01:35Z</time>
      </trkpt>
      <trkpt lat="44.91349" lon="4.21878">
        <ele>1212</ele>
        <time>2019-12-22T13:01:39Z</time>
      </trkpt>
      <trkpt lat="44.91349" lon="4.21894">
        <ele>1212</ele>
        <time>2019-12-22T13:01:41Z</time>
      </trkpt>
      <trkpt lat="44.91353" lon="4.21921">
        <ele>1214</ele>
        <time>2019-12-22T13:01:44Z</time>
      </trkpt>
      <trkpt lat="44.91358" lon="4.2193">
        <ele>1215</ele>
        <time>2019-12-22T13:01:46Z</time>
      </trkpt>
      <trkpt lat="44.91366" lon="4.21939">
        <ele>1216</ele>
        <time>2019-12-22T13:01:48Z</time>
      </trkpt>
      <trkpt lat="44.91392" lon="4.21959">
        <ele>1221</ele>
        <time>2019-12-22T13:01:53Z</time>
      </trkpt>
      <trkpt lat="44.91409" lon="4.21978">
        <ele>1223</ele>
        <time>2019-12-22T13:01:57Z</time>
      </trkpt>
      <trkpt lat="44.91465" lon="4.2206">
        <ele>1230</ele>
        <time>2019-12-22T13:02:11Z</time>
      </trkpt>
      <trkpt lat="44.91479" lon="4.22084">
        <ele>1230</ele>
        <time>2019-12-22T13:02:15Z</time>
      </trkpt>
      <trkpt lat="44.915" lon="4.22115">
        <ele>1233</ele>
        <time>2019-12-22T13:02:20Z</time>
      </trkpt>
      <trkpt lat="44.91505" lon="4.22126">
        <ele>1234</ele>
        <time>2019-12-22T13:02:22Z</time>
      </trkpt>
      <trkpt lat="44.91516" lon="4.22177">
        <ele>1233</ele>
        <time>2019-12-22T13:02:29Z</time>
      </trkpt>
      <trkpt lat="44.91517" lon="4.22193">
        <ele>1233</ele>
        <time>2019-12-22T13:02:31Z</time>
      </trkpt>
      <trkpt lat="44.91516" lon="4.22209">
        <ele>1232</ele>
        <time>2019-12-22T13:02:33Z</time>
      </trkpt>
      <trkpt lat="44.91508" lon="4.2225">
        <ele>1228</ele>
        <time>2019-12-22T13:02:38Z</time>
      </trkpt>
      <trkpt lat="44.9151" lon="4.2226">
        <ele>1228</ele>
        <time>2019-12-22T13:02:39Z</time>
      </trkpt>
      <trkpt lat="44.91493" lon="4.22297">
        <ele>1223</ele>
        <time>2019-12-22T13:02:45Z</time>
      </trkpt>
      <trkpt lat="44.91491" lon="4.22308">
        <ele>1223</ele>
        <time>2019-12-22T13:02:46Z</time>
      </trkpt>
      <trkpt lat="44.91493" lon="4.22316">
        <ele>1223</ele>
        <time>2019-12-22T13:02:47Z</time>
      </trkpt>
      <trkpt lat="44.91497" lon="4.22321">
        <ele>1223</ele>
        <time>2019-12-22T13:02:48Z</time>
      </trkpt>
      <trkpt lat="44.91502" lon="4.22324">
        <ele>1223</ele>
        <time>2019-12-22T13:02:49Z</time>
      </trkpt>
      <trkpt lat="44.91516" lon="4.22319">
        <ele>1225</ele>
        <time>2019-12-22T13:02:52Z</time>
      </trkpt>
      <trkpt lat="44.91531" lon="4.22306">
        <ele>1228</ele>
        <time>2019-12-22T13:02:55Z</time>
      </trkpt>
      <trkpt lat="44.91552" lon="4.22293">
        <ele>1232</ele>
        <time>2019-12-22T13:02:59Z</time>
      </trkpt>
      <trkpt lat="44.91568" lon="4.22287">
        <ele>1236</ele>
        <time>2019-12-22T13:03:02Z</time>
      </trkpt>
      <trkpt lat="44.91578" lon="4.22286">
        <ele>1237</ele>
        <time>2019-12-22T13:03:04Z</time>
      </trkpt>
      <trkpt lat="44.91601" lon="4.22287">
        <ele>1240</ele>
        <time>2019-12-22T13:03:08Z</time>
      </trkpt>
      <trkpt lat="44.91619" lon="4.22292">
        <ele>1241</ele>
        <time>2019-12-22T13:03:11Z</time>
      </trkpt>
      <trkpt lat="44.91657" lon="4.22309">
        <ele>1241</ele>
        <time>2019-12-22T13:03:18Z</time>
      </trkpt>
      <trkpt lat="44.9168" lon="4.22313">
        <ele>1241</ele>
        <time>2019-12-22T13:03:22Z</time>
      </trkpt>
      <trkpt lat="44.91702" lon="4.22314">
        <ele>1242</ele>
        <time>2019-12-22T13:03:26Z</time>
      </trkpt>
      <trkpt lat="44.91733" lon="4.22311">
        <ele>1244</ele>
        <time>2019-12-22T13:03:32Z</time>
      </trkpt>
      <trkpt lat="44.91829" lon="4.22307">
        <ele>1247</ele>
        <time>2019-12-22T13:03:49Z</time>
      </trkpt>
      <trkpt lat="44.91844" lon="4.22302">
        <ele>1248</ele>
        <time>2019-12-22T13:03:52Z</time>
      </trkpt>
      <trkpt lat="44.91858" lon="4.22291">
        <ele>1250</ele>
        <time>2019-12-22T13:03:55Z</time>
      </trkpt>
      <trkpt lat="44.91882" lon="4.22263">
        <ele>1255</ele>
        <time>2019-12-22T13:04:00Z</time>
      </trkpt>
      <trkpt lat="44.91896" lon="4.22254">
        <ele>1257</ele>
        <time>2019-12-22T13:04:03Z</time>
      </trkpt>
      <trkpt lat="44.91908" lon="4.22248">
        <ele>1258</ele>
        <time>2019-12-22T13:04:05Z</time>
      </trkpt>
      <trkpt lat="44.91945" lon="4.22235">
        <ele>1258</ele>
        <time>2019-12-22T13:04:12Z</time>
      </trkpt>
      <trkpt lat="44.91956" lon="4.22228">
        <ele>1258</ele>
        <time>2019-12-22T13:04:14Z</time>
      </trkpt>
      <trkpt lat="44.91965" lon="4.2222">
        <ele>1258</ele>
        <time>2019-12-22T13:04:16Z</time>
      </trkpt>
      <trkpt lat="44.91972" lon="4.22207">
        <ele>1259</ele>
        <time>2019-12-22T13:04:18Z</time>
      </trkpt>
      <trkpt lat="44.92011" lon="4.22118">
        <ele>1265</ele>
        <time>2019-12-22T13:04:31Z</time>
      </trkpt>
      <trkpt lat="44.92022" lon="4.22081">
        <ele>1266</ele>
        <time>2019-12-22T13:04:36Z</time>
      </trkpt>
      <trkpt lat="44.92024" lon="4.22061">
        <ele>1266</ele>
        <time>2019-12-22T13:04:39Z</time>
      </trkpt>
      <trkpt lat="44.9202" lon="4.22013">
        <ele>1271</ele>
        <time>2019-12-22T13:04:45Z</time>
      </trkpt>
      <trkpt lat="44.9202" lon="4.21996">
        <ele>1272</ele>
        <time>2019-12-22T13:04:47Z</time>
      </trkpt>
      <trkpt lat="44.92023" lon="4.21979">
        <ele>1274</ele>
        <time>2019-12-22T13:04:49Z</time>
      </trkpt>
      <trkpt lat="44.92028" lon="4.21965">
        <ele>1276</ele>
        <time>2019-12-22T13:04:51Z</time>
      </trkpt>
      <trkpt lat="44.9206" lon="4.21917">
        <ele>1274</ele>
        <time>2019-12-22T13:05:00Z</time>
      </trkpt>
      <trkpt lat="44.92111" lon="4.21837">
        <ele>1278</ele>
        <time>2019-12-22T13:05:13Z</time>
      </trkpt>
      <trkpt lat="44.92125" lon="4.2182">
        <ele>1278</ele>
        <time>2019-12-22T13:05:16Z</time>
      </trkpt>
      <trkpt lat="44.92208" lon="4.21727">
        <ele>1279</ele>
        <time>2019-12-22T13:05:35Z</time>
      </trkpt>
      <trkpt lat="44.92356" lon="4.2156">
        <ele>1283</ele>
        <time>2019-12-22T13:06:09Z</time>
      </trkpt>
      <trkpt lat="44.9239" lon="4.2153">
        <ele>1284</ele>
        <time>2019-12-22T13:06:16Z</time>
      </trkpt>
      <trkpt lat="44.92416" lon="4.21512">
        <ele>1284</ele>
        <time>2019-12-22T13:06:21Z</time>
      </trkpt>
      <trkpt lat="44.92443" lon="4.215">
        <ele>1287</ele>
        <time>2019-12-22T13:06:26Z</time>
      </trkpt>
      <trkpt lat="44.92501" lon="4.21484">
        <ele>1291</ele>
        <time>2019-12-22T13:06:37Z</time>
      </trkpt>
      <trkpt lat="44.9257" lon="4.2147">
        <ele>1292</ele>
        <time>2019-12-22T13:06:49Z</time>
      </trkpt>
      <trkpt lat="44.92583" lon="4.21473">
        <ele>1292</ele>
        <time>2019-12-22T13:06:52Z</time>
      </trkpt>
      <trkpt lat="44.92594" lon="4.2148">
        <ele>1292</ele>
        <time>2019-12-22T13:06:54Z</time>
      </trkpt>
      <trkpt lat="44.9261" lon="4.21496">
        <ele>1292</ele>
        <time>2019-12-22T13:06:57Z</time>
      </trkpt>
      <trkpt lat="44.92624" lon="4.21514">
        <ele>1291</ele>
        <time>2019-12-22T13:07:01Z</time>
      </trkpt>
      <trkpt lat="44.92632" lon="4.21531">
        <ele>1291</ele>
        <time>2019-12-22T13:07:03Z</time>
      </trkpt>
      <trkpt lat="44.92645" lon="4.21585">
        <ele>1290</ele>
        <time>2019-12-22T13:07:10Z</time>
      </trkpt>
      <trkpt lat="44.92646" lon="4.21607">
        <ele>1289</ele>
        <time>2019-12-22T13:07:13Z</time>
      </trkpt>
      <trkpt lat="44.92643" lon="4.2163">
        <ele>1288</ele>
        <time>2019-12-22T13:07:16Z</time>
      </trkpt>
      <trkpt lat="44.92634" lon="4.21668">
        <ele>1286</ele>
        <time>2019-12-22T13:07:21Z</time>
      </trkpt>
      <trkpt lat="44.92613" lon="4.21736">
        <ele>1284</ele>
        <time>2019-12-22T13:07:30Z</time>
      </trkpt>
      <trkpt lat="44.926" lon="4.21769">
        <ele>1283</ele>
        <time>2019-12-22T13:07:35Z</time>
      </trkpt>
      <trkpt lat="44.92587" lon="4.21794">
        <ele>1281</ele>
        <time>2019-12-22T13:07:39Z</time>
      </trkpt>
      <trkpt lat="44.9256" lon="4.21838">
        <ele>1278</ele>
        <time>2019-12-22T13:07:46Z</time>
      </trkpt>
      <trkpt lat="44.92504" lon="4.21905">
        <ele>1276</ele>
        <time>2019-12-22T13:07:59Z</time>
      </trkpt>
      <trkpt lat="44.9248" lon="4.21929">
        <ele>1275</ele>
        <time>2019-12-22T13:08:05Z</time>
      </trkpt>
      <trkpt lat="44.92461" lon="4.21942">
        <ele>1275</ele>
        <time>2019-12-22T13:08:08Z</time>
      </trkpt>
      <trkpt lat="44.92404" lon="4.21973">
        <ele>1272</ele>
        <time>2019-12-22T13:08:19Z</time>
      </trkpt>
      <trkpt lat="44.92367" lon="4.21999">
        <ele>1266</ele>
        <time>2019-12-22T13:08:27Z</time>
      </trkpt>
      <trkpt lat="44.92357" lon="4.22009">
        <ele>1264</ele>
        <time>2019-12-22T13:08:29Z</time>
      </trkpt>
      <trkpt lat="44.92349" lon="4.22022">
        <ele>1262</ele>
        <time>2019-12-22T13:08:31Z</time>
      </trkpt>
      <trkpt lat="44.9234" lon="4.22048">
        <ele>1261</ele>
        <time>2019-12-22T13:08:35Z</time>
      </trkpt>
      <trkpt lat="44.92335" lon="4.22069">
        <ele>1261</ele>
        <time>2019-12-22T13:08:37Z</time>
      </trkpt>
      <trkpt lat="44.92336" lon="4.22083">
        <ele>1263</ele>
        <time>2019-12-22T13:08:39Z</time>
      </trkpt>
      <trkpt lat="44.9234" lon="4.22096">
        <ele>1262</ele>
        <time>2019-12-22T13:08:41Z</time>
      </trkpt>
      <trkpt lat="44.92378" lon="4.22168">
        <ele>1259</ele>
        <time>2019-12-22T13:08:52Z</time>
      </trkpt>
      <trkpt lat="44.92388" lon="4.22178">
        <ele>1260</ele>
        <time>2019-12-22T13:08:55Z</time>
      </trkpt>
      <trkpt lat="44.92396" lon="4.22182">
        <ele>1260</ele>
        <time>2019-12-22T13:08:56Z</time>
      </trkpt>
      <trkpt lat="44.92423" lon="4.22182">
        <ele>1266</ele>
        <time>2019-12-22T13:09:01Z</time>
      </trkpt>
      <trkpt lat="44.92431" lon="4.22185">
        <ele>1265</ele>
        <time>2019-12-22T13:09:02Z</time>
      </trkpt>
      <trkpt lat="44.92472" lon="4.22211">
        <ele>1260</ele>
        <time>2019-12-22T13:09:10Z</time>
      </trkpt>
      <trkpt lat="44.92516" lon="4.22231">
        <ele>1257</ele>
        <time>2019-12-22T13:09:19Z</time>
      </trkpt>
      <trkpt lat="44.92565" lon="4.22263">
        <ele>1249</ele>
        <time>2019-12-22T13:09:28Z</time>
      </trkpt>
      <trkpt lat="44.92581" lon="4.22268">
        <ele>1248</ele>
        <time>2019-12-22T13:09:31Z</time>
      </trkpt>
      <trkpt lat="44.92591" lon="4.22269">
        <ele>1247</ele>
        <time>2019-12-22T13:09:33Z</time>
      </trkpt>
      <trkpt lat="44.92627" lon="4.22261">
        <ele>1249</ele>
        <time>2019-12-22T13:09:39Z</time>
      </trkpt>
      <trkpt lat="44.92668" lon="4.22245">
        <ele>1254</ele>
        <time>2019-12-22T13:09:47Z</time>
      </trkpt>
      <trkpt lat="44.92696" lon="4.22231">
        <ele>1256</ele>
        <time>2019-12-22T13:09:52Z</time>
      </trkpt>
      <trkpt lat="44.9271" lon="4.22221">
        <ele>1258</ele>
        <time>2019-12-22T13:09:55Z</time>
      </trkpt>
      <trkpt lat="44.92725" lon="4.22207">
        <ele>1261</ele>
        <time>2019-12-22T13:09:58Z</time>
      </trkpt>
      <trkpt lat="44.92744" lon="4.22185">
        <ele>1265</ele>
        <time>2019-12-22T13:10:03Z</time>
      </trkpt>
      <trkpt lat="44.92762" lon="4.22167">
        <ele>1268</ele>
        <time>2019-12-22T13:10:06Z</time>
      </trkpt>
      <trkpt lat="44.92778" lon="4.22156">
        <ele>1269</ele>
        <time>2019-12-22T13:10:10Z</time>
      </trkpt>
      <trkpt lat="44.92795" lon="4.22149">
        <ele>1269</ele>
        <time>2019-12-22T13:10:13Z</time>
      </trkpt>
      <trkpt lat="44.92821" lon="4.22145">
        <ele>1265</ele>
        <time>2019-12-22T13:10:17Z</time>
      </trkpt>
      <trkpt lat="44.92836" lon="4.22139">
        <ele>1265</ele>
        <time>2019-12-22T13:10:20Z</time>
      </trkpt>
      <trkpt lat="44.92858" lon="4.22124">
        <ele>1269</ele>
        <time>2019-12-22T13:10:25Z</time>
      </trkpt>
      <trkpt lat="44.92868" lon="4.22119">
        <ele>1269</ele>
        <time>2019-12-22T13:10:26Z</time>
      </trkpt>
      <trkpt lat="44.92898" lon="4.22116">
        <ele>1268</ele>
        <time>2019-12-22T13:10:32Z</time>
      </trkpt>
      <trkpt lat="44.92925" lon="4.22105">
        <ele>1270</ele>
        <time>2019-12-22T13:10:37Z</time>
      </trkpt>
      <trkpt lat="44.92935" lon="4.22104">
        <ele>1272</ele>
        <time>2019-12-22T13:10:39Z</time>
      </trkpt>
      <trkpt lat="44.92969" lon="4.22116">
        <ele>1274</ele>
        <time>2019-12-22T13:10:45Z</time>
      </trkpt>
      <trkpt lat="44.9299" lon="4.22127">
        <ele>1274</ele>
        <time>2019-12-22T13:10:49Z</time>
      </trkpt>
      <trkpt lat="44.93004" lon="4.22136">
        <ele>1274</ele>
        <time>2019-12-22T13:10:52Z</time>
      </trkpt>
      <trkpt lat="44.93047" lon="4.22186">
        <ele>1274</ele>
        <time>2019-12-22T13:11:01Z</time>
      </trkpt>
      <trkpt lat="44.93072" lon="4.2222">
        <ele>1273</ele>
        <time>2019-12-22T13:11:08Z</time>
      </trkpt>
      <trkpt lat="44.93109" lon="4.22273">
        <ele>1274</ele>
        <time>2019-12-22T13:11:17Z</time>
      </trkpt>
      <trkpt lat="44.93147" lon="4.22311">
        <ele>1282</ele>
        <time>2019-12-22T13:11:25Z</time>
      </trkpt>
      <trkpt lat="44.93155" lon="4.22322">
        <ele>1284</ele>
        <time>2019-12-22T13:11:27Z</time>
      </trkpt>
      <trkpt lat="44.93161" lon="4.22334">
        <ele>1285</ele>
        <time>2019-12-22T13:11:29Z</time>
      </trkpt>
      <trkpt lat="44.93164" lon="4.22347">
        <ele>1287</ele>
        <time>2019-12-22T13:11:31Z</time>
      </trkpt>
      <trkpt lat="44.93165" lon="4.22359">
        <ele>1289</ele>
        <time>2019-12-22T13:11:32Z</time>
      </trkpt>
      <trkpt lat="44.93162" lon="4.22374">
        <ele>1289</ele>
        <time>2019-12-22T13:11:34Z</time>
      </trkpt>
      <trkpt lat="44.93156" lon="4.22386">
        <ele>1288</ele>
        <time>2019-12-22T13:11:36Z</time>
      </trkpt>
      <trkpt lat="44.93147" lon="4.224">
        <ele>1286</ele>
        <time>2019-12-22T13:11:39Z</time>
      </trkpt>
      <trkpt lat="44.93138" lon="4.22411">
        <ele>1283</ele>
        <time>2019-12-22T13:11:41Z</time>
      </trkpt>
      <trkpt lat="44.93134" lon="4.22421">
        <ele>1282</ele>
        <time>2019-12-22T13:11:42Z</time>
      </trkpt>
      <trkpt lat="44.93133" lon="4.22435">
        <ele>1283</ele>
        <time>2019-12-22T13:11:44Z</time>
      </trkpt>
      <trkpt lat="44.93138" lon="4.22474">
        <ele>1290</ele>
        <time>2019-12-22T13:11:49Z</time>
      </trkpt>
      <trkpt lat="44.93137" lon="4.22538">
        <ele>1291</ele>
        <time>2019-12-22T13:11:57Z</time>
      </trkpt>
      <trkpt lat="44.93138" lon="4.22561">
        <ele>1291</ele>
        <time>2019-12-22T13:12:00Z</time>
      </trkpt>
      <trkpt lat="44.93145" lon="4.22638">
        <ele>1285</ele>
        <time>2019-12-22T13:12:10Z</time>
      </trkpt>
      <trkpt lat="44.93152" lon="4.22654">
        <ele>1285</ele>
        <time>2019-12-22T13:12:12Z</time>
      </trkpt>
      <trkpt lat="44.93156" lon="4.22658">
        <ele>1286</ele>
        <time>2019-12-22T13:12:13Z</time>
      </trkpt>
      <trkpt lat="44.93162" lon="4.22657">
        <ele>1289</ele>
        <time>2019-12-22T13:12:14Z</time>
      </trkpt>
      <trkpt lat="44.93165" lon="4.22652">
        <ele>1291</ele>
        <time>2019-12-22T13:12:15Z</time>
      </trkpt>
      <trkpt lat="44.93166" lon="4.22645">
        <ele>1293</ele>
        <time>2019-12-22T13:12:16Z</time>
      </trkpt>
      <trkpt lat="44.93158" lon="4.22616">
        <ele>1294</ele>
        <time>2019-12-22T13:12:20Z</time>
      </trkpt>
      <trkpt lat="44.93155" lon="4.22597">
        <ele>1296</ele>
        <time>2019-12-22T13:12:22Z</time>
      </trkpt>
      <trkpt lat="44.93155" lon="4.22564">
        <ele>1299</ele>
        <time>2019-12-22T13:12:26Z</time>
      </trkpt>
      <trkpt lat="44.93156" lon="4.22538">
        <ele>1301</ele>
        <time>2019-12-22T13:12:29Z</time>
      </trkpt>
      <trkpt lat="44.93166" lon="4.22454">
        <ele>1301</ele>
        <time>2019-12-22T13:12:40Z</time>
      </trkpt>
      <trkpt lat="44.9317" lon="4.22439">
        <ele>1300</ele>
        <time>2019-12-22T13:12:42Z</time>
      </trkpt>
      <trkpt lat="44.93177" lon="4.22424">
        <ele>1300</ele>
        <time>2019-12-22T13:12:44Z</time>
      </trkpt>
      <trkpt lat="44.93206" lon="4.22389">
        <ele>1308</ele>
        <time>2019-12-22T13:12:51Z</time>
      </trkpt>
      <trkpt lat="44.93212" lon="4.22377">
        <ele>1309</ele>
        <time>2019-12-22T13:12:53Z</time>
      </trkpt>
      <trkpt lat="44.93216" lon="4.22365">
        <ele>1310</ele>
        <time>2019-12-22T13:12:55Z</time>
      </trkpt>
      <trkpt lat="44.93215" lon="4.22336">
        <ele>1306</ele>
        <time>2019-12-22T13:12:58Z</time>
      </trkpt>
      <trkpt lat="44.93211" lon="4.22317">
        <ele>1305</ele>
        <time>2019-12-22T13:13:01Z</time>
      </trkpt>
      <trkpt lat="44.93209" lon="4.22294">
        <ele>1305</ele>
        <time>2019-12-22T13:13:04Z</time>
      </trkpt>
      <trkpt lat="44.93211" lon="4.22269">
        <ele>1307</ele>
        <time>2019-12-22T13:13:07Z</time>
      </trkpt>
      <trkpt lat="44.93232" lon="4.2222">
        <ele>1313</ele>
        <time>2019-12-22T13:13:14Z</time>
      </trkpt>
      <trkpt lat="44.9324" lon="4.22196">
        <ele>1315</ele>
        <time>2019-12-22T13:13:18Z</time>
      </trkpt>
      <trkpt lat="44.93247" lon="4.2215">
        <ele>1315</ele>
        <time>2019-12-22T13:13:24Z</time>
      </trkpt>
      <trkpt lat="44.93261" lon="4.22109">
        <ele>1317</ele>
        <time>2019-12-22T13:13:29Z</time>
      </trkpt>
      <trkpt lat="44.93273" lon="4.22081">
        <ele>1318</ele>
        <time>2019-12-22T13:13:33Z</time>
      </trkpt>
      <trkpt lat="44.93304" lon="4.2203">
        <ele>1320</ele>
        <time>2019-12-22T13:13:42Z</time>
      </trkpt>
      <trkpt lat="44.93317" lon="4.22017">
        <ele>1320</ele>
        <time>2019-12-22T13:13:45Z</time>
      </trkpt>
      <trkpt lat="44.93331" lon="4.22012">
        <ele>1320</ele>
        <time>2019-12-22T13:13:47Z</time>
      </trkpt>
      <trkpt lat="44.93391" lon="4.22009">
        <ele>1318</ele>
        <time>2019-12-22T13:13:58Z</time>
      </trkpt>
      <trkpt lat="44.93442" lon="4.21996">
        <ele>1315</ele>
        <time>2019-12-22T13:14:07Z</time>
      </trkpt>
      <trkpt lat="44.9347" lon="4.21995">
        <ele>1314</ele>
        <time>2019-12-22T13:14:12Z</time>
      </trkpt>
      <trkpt lat="44.9349" lon="4.22">
        <ele>1314</ele>
        <time>2019-12-22T13:14:16Z</time>
      </trkpt>
      <trkpt lat="44.9352" lon="4.22013">
        <ele>1313</ele>
        <time>2019-12-22T13:14:21Z</time>
      </trkpt>
      <trkpt lat="44.93561" lon="4.22027">
        <ele>1311</ele>
        <time>2019-12-22T13:14:29Z</time>
      </trkpt>
      <trkpt lat="44.93581" lon="4.2204">
        <ele>1310</ele>
        <time>2019-12-22T13:14:33Z</time>
      </trkpt>
      <trkpt lat="44.93578" lon="4.22029">
        <ele>1309</ele>
        <time>2019-12-22T13:14:34Z</time>
      </trkpt>
      <trkpt lat="44.93573" lon="4.22021">
        <ele>1308</ele>
        <time>2019-12-22T13:14:36Z</time>
      </trkpt>
      <trkpt lat="44.93529" lon="4.21987">
        <ele>1309</ele>
        <time>2019-12-22T13:14:44Z</time>
      </trkpt>
      <trkpt lat="44.9352" lon="4.21975">
        <ele>1309</ele>
        <time>2019-12-22T13:14:47Z</time>
      </trkpt>
      <trkpt lat="44.93463" lon="4.21874">
        <ele>1309</ele>
        <time>2019-12-22T13:15:03Z</time>
      </trkpt>
      <trkpt lat="44.93399" lon="4.21728">
        <ele>1313</ele>
        <time>2019-12-22T13:15:25Z</time>
      </trkpt>
      <trkpt lat="44.93383" lon="4.21701">
        <ele>1314</ele>
        <time>2019-12-22T13:15:29Z</time>
      </trkpt>
      <trkpt lat="44.93344" lon="4.21652">
        <ele>1316</ele>
        <time>2019-12-22T13:15:38Z</time>
      </trkpt>
      <trkpt lat="44.9334" lon="4.21641">
        <ele>1316</ele>
        <time>2019-12-22T13:15:40Z</time>
      </trkpt>
      <trkpt lat="44.9334" lon="4.2163">
        <ele>1316</ele>
        <time>2019-12-22T13:15:41Z</time>
      </trkpt>
      <trkpt lat="44.93355" lon="4.21587">
        <ele>1315</ele>
        <time>2019-12-22T13:15:47Z</time>
      </trkpt>
      <trkpt lat="44.93392" lon="4.21457">
        <ele>1319</ele>
        <time>2019-12-22T13:16:05Z</time>
      </trkpt>
      <trkpt lat="44.93406" lon="4.2143">
        <ele>1321</ele>
        <time>2019-12-22T13:16:09Z</time>
      </trkpt>
      <trkpt lat="44.93452" lon="4.21363">
        <ele>1322</ele>
        <time>2019-12-22T13:16:21Z</time>
      </trkpt>
      <trkpt lat="44.93464" lon="4.21337">
        <ele>1322</ele>
        <time>2019-12-22T13:16:25Z</time>
      </trkpt>
      <trkpt lat="44.93486" lon="4.21276">
        <ele>1321</ele>
        <time>2019-12-22T13:16:33Z</time>
      </trkpt>
      <trkpt lat="44.9349" lon="4.21251">
        <ele>1320</ele>
        <time>2019-12-22T13:16:37Z</time>
      </trkpt>
      <trkpt lat="44.93492" lon="4.21222">
        <ele>1318</ele>
        <time>2019-12-22T13:16:40Z</time>
      </trkpt>
      <trkpt lat="44.93483" lon="4.21134">
        <ele>1314</ele>
        <time>2019-12-22T13:16:52Z</time>
      </trkpt>
      <trkpt lat="44.93477" lon="4.21114">
        <ele>1314</ele>
        <time>2019-12-22T13:16:54Z</time>
      </trkpt>
      <trkpt lat="44.93464" lon="4.21092">
        <ele>1315</ele>
        <time>2019-12-22T13:16:58Z</time>
      </trkpt>
      <trkpt lat="44.9346" lon="4.21072">
        <ele>1315</ele>
        <time>2019-12-22T13:17:01Z</time>
      </trkpt>
      <trkpt lat="44.93461" lon="4.2105">
        <ele>1314</ele>
        <time>2019-12-22T13:17:03Z</time>
      </trkpt>
      <trkpt lat="44.93472" lon="4.2102">
        <ele>1312</ele>
        <time>2019-12-22T13:17:08Z</time>
      </trkpt>
      <trkpt lat="44.93482" lon="4.20998">
        <ele>1310</ele>
        <time>2019-12-22T13:17:11Z</time>
      </trkpt>
      <trkpt lat="44.93505" lon="4.20975">
        <ele>1308</ele>
        <time>2019-12-22T13:17:16Z</time>
      </trkpt>
      <trkpt lat="44.93522" lon="4.20955">
        <ele>1307</ele>
        <time>2019-12-22T13:17:20Z</time>
      </trkpt>
      <trkpt lat="44.93591" lon="4.20823">
        <ele>1310</ele>
        <time>2019-12-22T13:17:40Z</time>
      </trkpt>
      <trkpt lat="44.93672" lon="4.20657">
        <ele>1317</ele>
        <time>2019-12-22T13:18:06Z</time>
      </trkpt>
      <trkpt lat="44.9372" lon="4.20572">
        <ele>1321</ele>
        <time>2019-12-22T13:18:20Z</time>
      </trkpt>
      <trkpt lat="44.93773" lon="4.2049">
        <ele>1325</ele>
        <time>2019-12-22T13:18:34Z</time>
      </trkpt>
      <trkpt lat="44.93786" lon="4.20465">
        <ele>1326</ele>
        <time>2019-12-22T13:18:37Z</time>
      </trkpt>
      <trkpt lat="44.93799" lon="4.20424">
        <ele>1328</ele>
        <time>2019-12-22T13:18:43Z</time>
      </trkpt>
      <trkpt lat="44.93799" lon="4.20415">
        <ele>1328</ele>
        <time>2019-12-22T13:18:44Z</time>
      </trkpt>
      <trkpt lat="44.93814" lon="4.20414">
        <ele>1327</ele>
        <time>2019-12-22T13:18:47Z</time>
      </trkpt>
      <trkpt lat="44.93866" lon="4.20396">
        <ele>1325</ele>
        <time>2019-12-22T13:18:56Z</time>
      </trkpt>
      <trkpt lat="44.93874" lon="4.20395">
        <ele>1324</ele>
        <time>2019-12-22T13:18:58Z</time>
      </trkpt>
      <trkpt lat="44.93902" lon="4.20402">
        <ele>1324</ele>
        <time>2019-12-22T13:19:03Z</time>
      </trkpt>
      <trkpt lat="44.93914" lon="4.20401">
        <ele>1324</ele>
        <time>2019-12-22T13:19:05Z</time>
      </trkpt>
      <trkpt lat="44.9392" lon="4.20397">
        <ele>1324</ele>
        <time>2019-12-22T13:19:06Z</time>
      </trkpt>
      <trkpt lat="44.9396" lon="4.20343">
        <ele>1324</ele>
        <time>2019-12-22T13:19:16Z</time>
      </trkpt>
      <trkpt lat="44.93985" lon="4.20314">
        <ele>1321</ele>
        <time>2019-12-22T13:19:22Z</time>
      </trkpt>
      <trkpt lat="44.94005" lon="4.20294">
        <ele>1318</ele>
        <time>2019-12-22T13:19:26Z</time>
      </trkpt>
      <trkpt lat="44.94025" lon="4.20283">
        <ele>1315</ele>
        <time>2019-12-22T13:19:30Z</time>
      </trkpt>
      <trkpt lat="44.94046" lon="4.2028">
        <ele>1313</ele>
        <time>2019-12-22T13:19:34Z</time>
      </trkpt>
      <trkpt lat="44.94073" lon="4.2028">
        <ele>1312</ele>
        <time>2019-12-22T13:19:39Z</time>
      </trkpt>
      <trkpt lat="44.94093" lon="4.20283">
        <ele>1311</ele>
        <time>2019-12-22T13:19:42Z</time>
      </trkpt>
      <trkpt lat="44.94124" lon="4.20295">
        <ele>1309</ele>
        <time>2019-12-22T13:19:48Z</time>
      </trkpt>
      <trkpt lat="44.9416" lon="4.20313">
        <ele>1307</ele>
        <time>2019-12-22T13:19:55Z</time>
      </trkpt>
      <trkpt lat="44.94215" lon="4.20353">
        <ele>1304</ele>
        <time>2019-12-22T13:20:06Z</time>
      </trkpt>
      <trkpt lat="44.94237" lon="4.20363">
        <ele>1302</ele>
        <time>2019-12-22T13:20:10Z</time>
      </trkpt>
      <trkpt lat="44.94332" lon="4.20389">
        <ele>1291</ele>
        <time>2019-12-22T13:20:27Z</time>
      </trkpt>
      <trkpt lat="44.94395" lon="4.20413">
        <ele>1286</ele>
        <time>2019-12-22T13:20:39Z</time>
      </trkpt>
      <trkpt lat="44.94419" lon="4.20424">
        <ele>1285</ele>
        <time>2019-12-22T13:20:43Z</time>
      </trkpt>
      <trkpt lat="44.94457" lon="4.20436">
        <ele>1285</ele>
        <time>2019-12-22T13:20:50Z</time>
      </trkpt>
      <trkpt lat="44.94477" lon="4.2044">
        <ele>1285</ele>
        <time>2019-12-22T13:20:54Z</time>
      </trkpt>
      <trkpt lat="44.94497" lon="4.20439">
        <ele>1284</ele>
        <time>2019-12-22T13:20:57Z</time>
      </trkpt>
      <trkpt lat="44.94557" lon="4.20426">
        <ele>1286</ele>
        <time>2019-12-22T13:21:08Z</time>
      </trkpt>
      <trkpt lat="44.94599" lon="4.20409">
        <ele>1287</ele>
        <time>2019-12-22T13:21:16Z</time>
      </trkpt>
      <trkpt lat="44.94663" lon="4.20381">
        <ele>1287</ele>
        <time>2019-12-22T13:21:28Z</time>
      </trkpt>
      <trkpt lat="44.94675" lon="4.20378">
        <ele>1286</ele>
        <time>2019-12-22T13:21:30Z</time>
      </trkpt>
      <trkpt lat="44.94689" lon="4.20379">
        <ele>1286</ele>
        <time>2019-12-22T13:21:32Z</time>
      </trkpt>
      <trkpt lat="44.94723" lon="4.20389">
        <ele>1288</ele>
        <time>2019-12-22T13:21:39Z</time>
      </trkpt>
      <trkpt lat="44.94755" lon="4.20412">
        <ele>1292</ele>
        <time>2019-12-22T13:21:45Z</time>
      </trkpt>
      <trkpt lat="44.94792" lon="4.20435">
        <ele>1294</ele>
        <time>2019-12-22T13:21:52Z</time>
      </trkpt>
      <trkpt lat="44.94833" lon="4.2045">
        <ele>1294</ele>
        <time>2019-12-22T13:22:00Z</time>
      </trkpt>
      <trkpt lat="44.94851" lon="4.20455">
        <ele>1295</ele>
        <time>2019-12-22T13:22:03Z</time>
      </trkpt>
      <trkpt lat="44.9486" lon="4.20455">
        <ele>1295</ele>
        <time>2019-12-22T13:22:04Z</time>
      </trkpt>
      <trkpt lat="44.94893" lon="4.20444">
        <ele>1295</ele>
        <time>2019-12-22T13:22:11Z</time>
      </trkpt>
      <trkpt lat="44.94903" lon="4.20438">
        <ele>1295</ele>
        <time>2019-12-22T13:22:12Z</time>
      </trkpt>
      <trkpt lat="44.94943" lon="4.20402">
        <ele>1294</ele>
        <time>2019-12-22T13:22:21Z</time>
      </trkpt>
      <trkpt lat="44.94953" lon="4.20397">
        <ele>1295</ele>
        <time>2019-12-22T13:22:23Z</time>
      </trkpt>
      <trkpt lat="44.94975" lon="4.20381">
        <ele>1296</ele>
        <time>2019-12-22T13:22:27Z</time>
      </trkpt>
      <trkpt lat="44.94987" lon="4.20366">
        <ele>1296</ele>
        <time>2019-12-22T13:22:30Z</time>
      </trkpt>
      <trkpt lat="44.94995" lon="4.2035">
        <ele>1296</ele>
        <time>2019-12-22T13:22:33Z</time>
      </trkpt>
      <trkpt lat="44.95002" lon="4.20328">
        <ele>1295</ele>
        <time>2019-12-22T13:22:36Z</time>
      </trkpt>
      <trkpt lat="44.95028" lon="4.20282">
        <ele>1296</ele>
        <time>2019-12-22T13:22:43Z</time>
      </trkpt>
      <trkpt lat="44.95038" lon="4.20245">
        <ele>1295</ele>
        <time>2019-12-22T13:22:48Z</time>
      </trkpt>
      <trkpt lat="44.9505" lon="4.20214">
        <ele>1295</ele>
        <time>2019-12-22T13:22:52Z</time>
      </trkpt>
      <trkpt lat="44.9507" lon="4.20128">
        <ele>1292</ele>
        <time>2019-12-22T13:23:04Z</time>
      </trkpt>
      <trkpt lat="44.95084" lon="4.20079">
        <ele>1290</ele>
        <time>2019-12-22T13:23:10Z</time>
      </trkpt>
      <trkpt lat="44.95104" lon="4.20017">
        <ele>1287</ele>
        <time>2019-12-22T13:23:19Z</time>
      </trkpt>
      <trkpt lat="44.95119" lon="4.19981">
        <ele>1287</ele>
        <time>2019-12-22T13:23:24Z</time>
      </trkpt>
      <trkpt lat="44.95171" lon="4.19899">
        <ele>1290</ele>
        <time>2019-12-22T13:23:38Z</time>
      </trkpt>
      <trkpt lat="44.95205" lon="4.19858">
        <ele>1287</ele>
        <time>2019-12-22T13:23:46Z</time>
      </trkpt>
      <trkpt lat="44.95331" lon="4.19735">
        <ele>1282</ele>
        <time>2019-12-22T13:24:13Z</time>
      </trkpt>
      <trkpt lat="44.95376" lon="4.19705">
        <ele>1279</ele>
        <time>2019-12-22T13:24:22Z</time>
      </trkpt>
      <trkpt lat="44.95416" lon="4.19683">
        <ele>1277</ele>
        <time>2019-12-22T13:24:30Z</time>
      </trkpt>
      <trkpt lat="44.95446" lon="4.19671">
        <ele>1274</ele>
        <time>2019-12-22T13:24:35Z</time>
      </trkpt>
      <trkpt lat="44.95469" lon="4.19663">
        <ele>1273</ele>
        <time>2019-12-22T13:24:40Z</time>
      </trkpt>
      <trkpt lat="44.95492" lon="4.19659">
        <ele>1271</ele>
        <time>2019-12-22T13:24:44Z</time>
      </trkpt>
      <trkpt lat="44.95557" lon="4.1965">
        <ele>1268</ele>
        <time>2019-12-22T13:24:55Z</time>
      </trkpt>
      <trkpt lat="44.95636" lon="4.19648">
        <ele>1265</ele>
        <time>2019-12-22T13:25:09Z</time>
      </trkpt>
      <trkpt lat="44.95687" lon="4.19651">
        <ele>1262</ele>
        <time>2019-12-22T13:25:18Z</time>
      </trkpt>
      <trkpt lat="44.9576" lon="4.19651">
        <ele>1259</ele>
        <time>2019-12-22T13:25:31Z</time>
      </trkpt>
      <trkpt lat="44.95792" lon="4.19657">
        <ele>1256</ele>
        <time>2019-12-22T13:25:37Z</time>
      </trkpt>
      <trkpt lat="44.95878" lon="4.19698">
        <ele>1249</ele>
        <time>2019-12-22T13:25:53Z</time>
      </trkpt>
      <trkpt lat="44.95933" lon="4.19717">
        <ele>1248</ele>
        <time>2019-12-22T13:26:03Z</time>
      </trkpt>
      <trkpt lat="44.95963" lon="4.19736">
        <ele>1246</ele>
        <time>2019-12-22T13:26:09Z</time>
      </trkpt>
      <trkpt lat="44.96" lon="4.19765">
        <ele>1243</ele>
        <time>2019-12-22T13:26:17Z</time>
      </trkpt>
      <trkpt lat="44.96123" lon="4.19842">
        <ele>1235</ele>
        <time>2019-12-22T13:26:41Z</time>
      </trkpt>
      <trkpt lat="44.96143" lon="4.19858">
        <ele>1233</ele>
        <time>2019-12-22T13:26:45Z</time>
      </trkpt>
      <trkpt lat="44.96174" lon="4.19895">
        <ele>1228</ele>
        <time>2019-12-22T13:26:52Z</time>
      </trkpt>
      <trkpt lat="44.96211" lon="4.19945">
        <ele>1223</ele>
        <time>2019-12-22T13:27:01Z</time>
      </trkpt>
      <trkpt lat="44.96244" lon="4.19985">
        <ele>1219</ele>
        <time>2019-12-22T13:27:09Z</time>
      </trkpt>
      <trkpt lat="44.96272" lon="4.20014">
        <ele>1216</ele>
        <time>2019-12-22T13:27:15Z</time>
      </trkpt>
      <trkpt lat="44.96297" lon="4.20036">
        <ele>1213</ele>
        <time>2019-12-22T13:27:20Z</time>
      </trkpt>
      <trkpt lat="44.9632" lon="4.20053">
        <ele>1212</ele>
        <time>2019-12-22T13:27:25Z</time>
      </trkpt>
      <trkpt lat="44.96335" lon="4.20058">
        <ele>1212</ele>
        <time>2019-12-22T13:27:28Z</time>
      </trkpt>
      <trkpt lat="44.96353" lon="4.20061">
        <ele>1210</ele>
        <time>2019-12-22T13:27:31Z</time>
      </trkpt>
      <trkpt lat="44.96375" lon="4.20057">
        <ele>1208</ele>
        <time>2019-12-22T13:27:35Z</time>
      </trkpt>
      <trkpt lat="44.96402" lon="4.20046">
        <ele>1207</ele>
        <time>2019-12-22T13:27:40Z</time>
      </trkpt>
      <trkpt lat="44.96433" lon="4.20026">
        <ele>1205</ele>
        <time>2019-12-22T13:27:46Z</time>
      </trkpt>
      <trkpt lat="44.9646" lon="4.20004">
        <ele>1203</ele>
        <time>2019-12-22T13:27:51Z</time>
      </trkpt>
      <trkpt lat="44.96545" lon="4.1993">
        <ele>1197</ele>
        <time>2019-12-22T13:28:09Z</time>
      </trkpt>
      <trkpt lat="44.96566" lon="4.1992">
        <ele>1195</ele>
        <time>2019-12-22T13:28:13Z</time>
      </trkpt>
      <trkpt lat="44.96664" lon="4.19887">
        <ele>1186</ele>
        <time>2019-12-22T13:28:31Z</time>
      </trkpt>
      <trkpt lat="44.96682" lon="4.19883">
        <ele>1185</ele>
        <time>2019-12-22T13:28:34Z</time>
      </trkpt>
      <trkpt lat="44.96692" lon="4.19885">
        <ele>1184</ele>
        <time>2019-12-22T13:28:36Z</time>
      </trkpt>
      <trkpt lat="44.96702" lon="4.19894">
        <ele>1183</ele>
        <time>2019-12-22T13:28:38Z</time>
      </trkpt>
      <trkpt lat="44.96711" lon="4.19908">
        <ele>1181</ele>
        <time>2019-12-22T13:28:41Z</time>
      </trkpt>
      <trkpt lat="44.96737" lon="4.19976">
        <ele>1176</ele>
        <time>2019-12-22T13:28:50Z</time>
      </trkpt>
      <trkpt lat="44.96741" lon="4.19994">
        <ele>1175</ele>
        <time>2019-12-22T13:28:53Z</time>
      </trkpt>
      <trkpt lat="44.96745" lon="4.20054">
        <ele>1173</ele>
        <time>2019-12-22T13:29:00Z</time>
      </trkpt>
      <trkpt lat="44.96749" lon="4.20077">
        <ele>1172</ele>
        <time>2019-12-22T13:29:03Z</time>
      </trkpt>
      <trkpt lat="44.96777" lon="4.20181">
        <ele>1170</ele>
        <time>2019-12-22T13:29:17Z</time>
      </trkpt>
      <trkpt lat="44.96809" lon="4.20263">
        <ele>1167</ele>
        <time>2019-12-22T13:29:29Z</time>
      </trkpt>
      <trkpt lat="44.96817" lon="4.20277">
        <ele>1167</ele>
        <time>2019-12-22T13:29:31Z</time>
      </trkpt>
      <trkpt lat="44.96829" lon="4.20291">
        <ele>1166</ele>
        <time>2019-12-22T13:29:34Z</time>
      </trkpt>
      <trkpt lat="44.96892" lon="4.20337">
        <ele>1163</ele>
        <time>2019-12-22T13:29:47Z</time>
      </trkpt>
      <trkpt lat="44.96908" lon="4.20357">
        <ele>1161</ele>
        <time>2019-12-22T13:29:51Z</time>
      </trkpt>
      <trkpt lat="44.9693" lon="4.20388">
        <ele>1159</ele>
        <time>2019-12-22T13:29:56Z</time>
      </trkpt>
      <trkpt lat="44.96952" lon="4.20411">
        <ele>1156</ele>
        <time>2019-12-22T13:30:01Z</time>
      </trkpt>
      <trkpt lat="44.96976" lon="4.20426">
        <ele>1154</ele>
        <time>2019-12-22T13:30:06Z</time>
      </trkpt>
      <trkpt lat="44.97" lon="4.20433">
        <ele>1152</ele>
        <time>2019-12-22T13:30:10Z</time>
      </trkpt>
      <trkpt lat="44.97069" lon="4.20431">
        <ele>1146</ele>
        <time>2019-12-22T13:30:22Z</time>
      </trkpt>
      <trkpt lat="44.97161" lon="4.20423">
        <ele>1147</ele>
        <time>2019-12-22T13:30:39Z</time>
      </trkpt>
      <trkpt lat="44.97186" lon="4.20422">
        <ele>1148</ele>
        <time>2019-12-22T13:30:43Z</time>
      </trkpt>
      <trkpt lat="44.97215" lon="4.20421">
        <ele>1150</ele>
        <time>2019-12-22T13:30:48Z</time>
      </trkpt>
      <trkpt lat="44.97259" lon="4.20422">
        <ele>1152</ele>
        <time>2019-12-22T13:30:56Z</time>
      </trkpt>
      <trkpt lat="44.97378" lon="4.20443">
        <ele>1158</ele>
        <time>2019-12-22T13:31:17Z</time>
      </trkpt>
      <trkpt lat="44.97396" lon="4.20443">
        <ele>1159</ele>
        <time>2019-12-22T13:31:21Z</time>
      </trkpt>
      <trkpt lat="44.9737" lon="4.20378">
        <ele>1160</ele>
        <time>2019-12-22T13:31:30Z</time>
      </trkpt>
      <trkpt lat="44.97279" lon="4.20172">
        <ele>1161</ele>
        <time>2019-12-22T13:32:01Z</time>
      </trkpt>
      <trkpt lat="44.97245" lon="4.20058">
        <ele>1164</ele>
        <time>2019-12-22T13:32:16Z</time>
      </trkpt>
      <trkpt lat="44.97237" lon="4.20013">
        <ele>1166</ele>
        <time>2019-12-22T13:32:22Z</time>
      </trkpt>
      <trkpt lat="44.97236" lon="4.1993">
        <ele>1170</ele>
        <time>2019-12-22T13:32:32Z</time>
      </trkpt>
      <trkpt lat="44.9725" lon="4.19705">
        <ele>1176</ele>
        <time>2019-12-22T13:33:01Z</time>
      </trkpt>
      <trkpt lat="44.97267" lon="4.19352">
        <ele>1184</ele>
        <time>2019-12-22T13:33:45Z</time>
      </trkpt>
      <trkpt lat="44.97264" lon="4.19309">
        <ele>1186</ele>
        <time>2019-12-22T13:33:51Z</time>
      </trkpt>
      <trkpt lat="44.97249" lon="4.19268">
        <ele>1187</ele>
        <time>2019-12-22T13:33:57Z</time>
      </trkpt>
      <trkpt lat="44.97169" lon="4.19134">
        <ele>1191</ele>
        <time>2019-12-22T13:34:19Z</time>
      </trkpt>
      <trkpt lat="44.97163" lon="4.19116">
        <ele>1192</ele>
        <time>2019-12-22T13:34:21Z</time>
      </trkpt>
      <trkpt lat="44.97157" lon="4.1908">
        <ele>1195</ele>
        <time>2019-12-22T13:34:26Z</time>
      </trkpt>
      <trkpt lat="44.97135" lon="4.18877">
        <ele>1199</ele>
        <time>2019-12-22T13:34:52Z</time>
      </trkpt>
      <trkpt lat="44.97136" lon="4.18842">
        <ele>1201</ele>
        <time>2019-12-22T13:34:56Z</time>
      </trkpt>
      <trkpt lat="44.97143" lon="4.18813">
        <ele>1202</ele>
        <time>2019-12-22T13:35:00Z</time>
      </trkpt>
      <trkpt lat="44.9721" lon="4.18616">
        <ele>1210</ele>
        <time>2019-12-22T13:35:28Z</time>
      </trkpt>
      <trkpt lat="44.97219" lon="4.18575">
        <ele>1211</ele>
        <time>2019-12-22T13:35:33Z</time>
      </trkpt>
      <trkpt lat="44.9722" lon="4.1856">
        <ele>1212</ele>
        <time>2019-12-22T13:35:35Z</time>
      </trkpt>
      <trkpt lat="44.9722" lon="4.18544">
        <ele>1212</ele>
        <time>2019-12-22T13:35:37Z</time>
      </trkpt>
      <trkpt lat="44.97215" lon="4.18497">
        <ele>1213</ele>
        <time>2019-12-22T13:35:43Z</time>
      </trkpt>
      <trkpt lat="44.97206" lon="4.18461">
        <ele>1215</ele>
        <time>2019-12-22T13:35:48Z</time>
      </trkpt>
      <trkpt lat="44.97199" lon="4.18446">
        <ele>1215</ele>
        <time>2019-12-22T13:35:50Z</time>
      </trkpt>
      <trkpt lat="44.97168" lon="4.18402">
        <ele>1218</ele>
        <time>2019-12-22T13:35:58Z</time>
      </trkpt>
      <trkpt lat="44.97149" lon="4.18392">
        <ele>1220</ele>
        <time>2019-12-22T13:36:01Z</time>
      </trkpt>
      <trkpt lat="44.97097" lon="4.18382">
        <ele>1224</ele>
        <time>2019-12-22T13:36:11Z</time>
      </trkpt>
      <trkpt lat="44.97069" lon="4.1838">
        <ele>1226</ele>
        <time>2019-12-22T13:36:16Z</time>
      </trkpt>
      <trkpt lat="44.96959" lon="4.18417">
        <ele>1225</ele>
        <time>2019-12-22T13:36:36Z</time>
      </trkpt>
      <trkpt lat="44.96934" lon="4.1842">
        <ele>1227</ele>
        <time>2019-12-22T13:36:40Z</time>
      </trkpt>
      <trkpt lat="44.969" lon="4.18414">
        <ele>1229</ele>
        <time>2019-12-22T13:36:46Z</time>
      </trkpt>
      <trkpt lat="44.96825" lon="4.18376">
        <ele>1232</ele>
        <time>2019-12-22T13:37:01Z</time>
      </trkpt>
      <trkpt lat="44.96804" lon="4.18371">
        <ele>1233</ele>
        <time>2019-12-22T13:37:04Z</time>
      </trkpt>
      <trkpt lat="44.96755" lon="4.18377">
        <ele>1235</ele>
        <time>2019-12-22T13:37:13Z</time>
      </trkpt>
      <trkpt lat="44.96737" lon="4.18374">
        <ele>1234</ele>
        <time>2019-12-22T13:37:16Z</time>
      </trkpt>
      <trkpt lat="44.96725" lon="4.18364">
        <ele>1234</ele>
        <time>2019-12-22T13:37:19Z</time>
      </trkpt>
      <trkpt lat="44.96719" lon="4.18353">
        <ele>1234</ele>
        <time>2019-12-22T13:37:21Z</time>
      </trkpt>
      <trkpt lat="44.96716" lon="4.18342">
        <ele>1234</ele>
        <time>2019-12-22T13:37:22Z</time>
      </trkpt>
      <trkpt lat="44.96715" lon="4.18331">
        <ele>1235</ele>
        <time>2019-12-22T13:37:23Z</time>
      </trkpt>
      <trkpt lat="44.96715" lon="4.18314">
        <ele>1235</ele>
        <time>2019-12-22T13:37:26Z</time>
      </trkpt>
      <trkpt lat="44.96721" lon="4.18263">
        <ele>1237</ele>
        <time>2019-12-22T13:37:32Z</time>
      </trkpt>
      <trkpt lat="44.96728" lon="4.18226">
        <ele>1238</ele>
        <time>2019-12-22T13:37:37Z</time>
      </trkpt>
      <trkpt lat="44.96749" lon="4.18163">
        <ele>1239</ele>
        <time>2019-12-22T13:37:46Z</time>
      </trkpt>
      <trkpt lat="44.96791" lon="4.18088">
        <ele>1243</ele>
        <time>2019-12-22T13:37:58Z</time>
      </trkpt>
      <trkpt lat="44.96808" lon="4.18048">
        <ele>1245</ele>
        <time>2019-12-22T13:38:04Z</time>
      </trkpt>
      <trkpt lat="44.96819" lon="4.18006">
        <ele>1246</ele>
        <time>2019-12-22T13:38:09Z</time>
      </trkpt>
      <trkpt lat="44.96823" lon="4.17979">
        <ele>1247</ele>
        <time>2019-12-22T13:38:13Z</time>
      </trkpt>
      <trkpt lat="44.96825" lon="4.17953">
        <ele>1248</ele>
        <time>2019-12-22T13:38:16Z</time>
      </trkpt>
      <trkpt lat="44.96823" lon="4.17934">
        <ele>1248</ele>
        <time>2019-12-22T13:38:18Z</time>
      </trkpt>
      <trkpt lat="44.96818" lon="4.1791">
        <ele>1247</ele>
        <time>2019-12-22T13:38:22Z</time>
      </trkpt>
      <trkpt lat="44.96802" lon="4.1787">
        <ele>1249</ele>
        <time>2019-12-22T13:38:27Z</time>
      </trkpt>
      <trkpt lat="44.96781" lon="4.17835">
        <ele>1252</ele>
        <time>2019-12-22T13:38:33Z</time>
      </trkpt>
      <trkpt lat="44.96749" lon="4.17792">
        <ele>1257</ele>
        <time>2019-12-22T13:38:41Z</time>
      </trkpt>
      <trkpt lat="44.9672" lon="4.17746">
        <ele>1261</ele>
        <time>2019-12-22T13:38:49Z</time>
      </trkpt>
      <trkpt lat="44.96698" lon="4.17698">
        <ele>1262</ele>
        <time>2019-12-22T13:38:56Z</time>
      </trkpt>
      <trkpt lat="44.96688" lon="4.17659">
        <ele>1264</ele>
        <time>2019-12-22T13:39:01Z</time>
      </trkpt>
      <trkpt lat="44.96682" lon="4.17606">
        <ele>1265</ele>
        <time>2019-12-22T13:39:08Z</time>
      </trkpt>
      <trkpt lat="44.96683" lon="4.17561">
        <ele>1267</ele>
        <time>2019-12-22T13:39:14Z</time>
      </trkpt>
      <trkpt lat="44.96686" lon="4.17517">
        <ele>1269</ele>
        <time>2019-12-22T13:39:19Z</time>
      </trkpt>
      <trkpt lat="44.96704" lon="4.17385">
        <ele>1277</ele>
        <time>2019-12-22T13:39:36Z</time>
      </trkpt>
      <trkpt lat="44.96761" lon="4.17025">
        <ele>1291</ele>
        <time>2019-12-22T13:40:22Z</time>
      </trkpt>
      <trkpt lat="44.96779" lon="4.16945">
        <ele>1291</ele>
        <time>2019-12-22T13:40:33Z</time>
      </trkpt>
      <trkpt lat="44.96781" lon="4.16922">
        <ele>1291</ele>
        <time>2019-12-22T13:40:36Z</time>
      </trkpt>
      <trkpt lat="44.96789" lon="4.16912">
        <ele>1291</ele>
        <time>2019-12-22T13:40:38Z</time>
      </trkpt>
      <trkpt lat="44.96807" lon="4.16914">
        <ele>1291</ele>
        <time>2019-12-22T13:40:41Z</time>
      </trkpt>
      <trkpt lat="44.96847" lon="4.16898">
        <ele>1291</ele>
        <time>2019-12-22T13:40:48Z</time>
      </trkpt>
      <trkpt lat="44.96915" lon="4.16889">
        <ele>1292</ele>
        <time>2019-12-22T13:41:01Z</time>
      </trkpt>
      <trkpt lat="44.9699" lon="4.16888">
        <ele>1294</ele>
        <time>2019-12-22T13:41:14Z</time>
      </trkpt>
      <trkpt lat="44.97252" lon="4.16917">
        <ele>1296</ele>
        <time>2019-12-22T13:42:01Z</time>
      </trkpt>
      <trkpt lat="44.97396" lon="4.169">
        <ele>1294</ele>
        <time>2019-12-22T13:42:26Z</time>
      </trkpt>
      <trkpt lat="44.97468" lon="4.16879">
        <ele>1287</ele>
        <time>2019-12-22T13:42:40Z</time>
      </trkpt>
      <trkpt lat="44.97496" lon="4.16869">
        <ele>1283</ele>
        <time>2019-12-22T13:42:45Z</time>
      </trkpt>
      <trkpt lat="44.97522" lon="4.16863">
        <ele>1280</ele>
        <time>2019-12-22T13:42:49Z</time>
      </trkpt>
      <trkpt lat="44.97549" lon="4.16865">
        <ele>1277</ele>
        <time>2019-12-22T13:42:54Z</time>
      </trkpt>
      <trkpt lat="44.97587" lon="4.16872">
        <ele>1273</ele>
        <time>2019-12-22T13:43:01Z</time>
      </trkpt>
      <trkpt lat="44.97608" lon="4.16882">
        <ele>1270</ele>
        <time>2019-12-22T13:43:05Z</time>
      </trkpt>
      <trkpt lat="44.97621" lon="4.16895">
        <ele>1268</ele>
        <time>2019-12-22T13:43:08Z</time>
      </trkpt>
      <trkpt lat="44.97629" lon="4.16914">
        <ele>1267</ele>
        <time>2019-12-22T13:43:11Z</time>
      </trkpt>
      <trkpt lat="44.97633" lon="4.16948">
        <ele>1266</ele>
        <time>2019-12-22T13:43:15Z</time>
      </trkpt>
      <trkpt lat="44.97639" lon="4.16977">
        <ele>1265</ele>
        <time>2019-12-22T13:43:19Z</time>
      </trkpt>
      <trkpt lat="44.9766" lon="4.1702">
        <ele>1263</ele>
        <time>2019-12-22T13:43:25Z</time>
      </trkpt>
      <trkpt lat="44.97687" lon="4.1706">
        <ele>1262</ele>
        <time>2019-12-22T13:43:32Z</time>
      </trkpt>
      <trkpt lat="44.97832" lon="4.17187">
        <ele>1248</ele>
        <time>2019-12-22T13:44:03Z</time>
      </trkpt>
      <trkpt lat="44.97857" lon="4.17192">
        <ele>1246</ele>
        <time>2019-12-22T13:44:07Z</time>
      </trkpt>
      <trkpt lat="44.97875" lon="4.1719">
        <ele>1243</ele>
        <time>2019-12-22T13:44:10Z</time>
      </trkpt>
      <trkpt lat="44.9788" lon="4.17184">
        <ele>1243</ele>
        <time>2019-12-22T13:44:11Z</time>
      </trkpt>
      <trkpt lat="44.97889" lon="4.17167">
        <ele>1241</ele>
        <time>2019-12-22T13:44:14Z</time>
      </trkpt>
      <trkpt lat="44.9789" lon="4.17146">
        <ele>1241</ele>
        <time>2019-12-22T13:44:17Z</time>
      </trkpt>
      <trkpt lat="44.97883" lon="4.17058">
        <ele>1241</ele>
        <time>2019-12-22T13:44:28Z</time>
      </trkpt>
      <trkpt lat="44.97857" lon="4.16914">
        <ele>1240</ele>
        <time>2019-12-22T13:44:47Z</time>
      </trkpt>
      <trkpt lat="44.97857" lon="4.16885">
        <ele>1240</ele>
        <time>2019-12-22T13:44:50Z</time>
      </trkpt>
      <trkpt lat="44.9786" lon="4.16855">
        <ele>1241</ele>
        <time>2019-12-22T13:44:54Z</time>
      </trkpt>
      <trkpt lat="44.97872" lon="4.16818">
        <ele>1241</ele>
        <time>2019-12-22T13:44:59Z</time>
      </trkpt>
      <trkpt lat="44.97933" lon="4.16696">
        <ele>1238</ele>
        <time>2019-12-22T13:45:18Z</time>
      </trkpt>
      <trkpt lat="44.9801" lon="4.16526">
        <ele>1236</ele>
        <time>2019-12-22T13:45:43Z</time>
      </trkpt>
      <trkpt lat="44.98022" lon="4.16454">
        <ele>1237</ele>
        <time>2019-12-22T13:45:53Z</time>
      </trkpt>
      <trkpt lat="44.98035" lon="4.1646">
        <ele>1236</ele>
        <time>2019-12-22T13:45:55Z</time>
      </trkpt>
      <trkpt lat="44.9805" lon="4.16462">
        <ele>1236</ele>
        <time>2019-12-22T13:45:58Z</time>
      </trkpt>
      <trkpt lat="44.98063" lon="4.16459">
        <ele>1236</ele>
        <time>2019-12-22T13:46:00Z</time>
      </trkpt>
      <trkpt lat="44.98074" lon="4.16447">
        <ele>1236</ele>
        <time>2019-12-22T13:46:03Z</time>
      </trkpt>
      <trkpt lat="44.98084" lon="4.16427">
        <ele>1236</ele>
        <time>2019-12-22T13:46:06Z</time>
      </trkpt>
      <trkpt lat="44.98121" lon="4.1631">
        <ele>1240</ele>
        <time>2019-12-22T13:46:22Z</time>
      </trkpt>
      <trkpt lat="44.9815" lon="4.16251">
        <ele>1240</ele>
        <time>2019-12-22T13:46:31Z</time>
      </trkpt>
      <trkpt lat="44.98162" lon="4.16238">
        <ele>1241</ele>
        <time>2019-12-22T13:46:34Z</time>
      </trkpt>
      <trkpt lat="44.98174" lon="4.16231">
        <ele>1241</ele>
        <time>2019-12-22T13:46:36Z</time>
      </trkpt>
      <trkpt lat="44.98187" lon="4.1623">
        <ele>1243</ele>
        <time>2019-12-22T13:46:38Z</time>
      </trkpt>
      <trkpt lat="44.98203" lon="4.16235">
        <ele>1244</ele>
        <time>2019-12-22T13:46:41Z</time>
      </trkpt>
      <trkpt lat="44.9825" lon="4.16266">
        <ele>1251</ele>
        <time>2019-12-22T13:46:50Z</time>
      </trkpt>
      <trkpt lat="44.98274" lon="4.16275">
        <ele>1253</ele>
        <time>2019-12-22T13:46:55Z</time>
      </trkpt>
      <trkpt lat="44.98295" lon="4.16276">
        <ele>1254</ele>
        <time>2019-12-22T13:46:59Z</time>
      </trkpt>
      <trkpt lat="44.98411" lon="4.16275">
        <ele>1257</ele>
        <time>2019-12-22T13:47:19Z</time>
      </trkpt>
      <trkpt lat="44.98433" lon="4.16271">
        <ele>1257</ele>
        <time>2019-12-22T13:47:23Z</time>
      </trkpt>
      <trkpt lat="44.98565" lon="4.16233">
        <ele>1254</ele>
        <time>2019-12-22T13:47:47Z</time>
      </trkpt>
      <trkpt lat="44.98728" lon="4.16193">
        <ele>1250</ele>
        <time>2019-12-22T13:48:16Z</time>
      </trkpt>
      <trkpt lat="44.98772" lon="4.1618">
        <ele>1248</ele>
        <time>2019-12-22T13:48:24Z</time>
      </trkpt>
      <trkpt lat="44.98829" lon="4.16168">
        <ele>1248</ele>
        <time>2019-12-22T13:48:35Z</time>
      </trkpt>
      <trkpt lat="44.98863" lon="4.16166">
        <ele>1249</ele>
        <time>2019-12-22T13:48:41Z</time>
      </trkpt>
      <trkpt lat="44.99101" lon="4.16218">
        <ele>1257</ele>
        <time>2019-12-22T13:49:24Z</time>
      </trkpt>
      <trkpt lat="44.99193" lon="4.16236">
        <ele>1260</ele>
        <time>2019-12-22T13:49:40Z</time>
      </trkpt>
      <trkpt lat="44.99268" lon="4.16246">
        <ele>1262</ele>
        <time>2019-12-22T13:49:54Z</time>
      </trkpt>
      <trkpt lat="44.99318" lon="4.16256">
        <ele>1264</ele>
        <time>2019-12-22T13:50:03Z</time>
      </trkpt>
      <trkpt lat="44.99364" lon="4.16275">
        <ele>1265</ele>
        <time>2019-12-22T13:50:11Z</time>
      </trkpt>
      <trkpt lat="44.99392" lon="4.16303">
        <ele>1266</ele>
        <time>2019-12-22T13:50:17Z</time>
      </trkpt>
      <trkpt lat="44.99475" lon="4.16412">
        <ele>1268</ele>
        <time>2019-12-22T13:50:37Z</time>
      </trkpt>
      <trkpt lat="44.99493" lon="4.16425">
        <ele>1269</ele>
        <time>2019-12-22T13:50:41Z</time>
      </trkpt>
      <trkpt lat="44.99508" lon="4.1643">
        <ele>1270</ele>
        <time>2019-12-22T13:50:44Z</time>
      </trkpt>
      <trkpt lat="44.99521" lon="4.16431">
        <ele>1270</ele>
        <time>2019-12-22T13:50:46Z</time>
      </trkpt>
      <trkpt lat="44.99542" lon="4.16424">
        <ele>1271</ele>
        <time>2019-12-22T13:50:50Z</time>
      </trkpt>
      <trkpt lat="44.99558" lon="4.1641">
        <ele>1272</ele>
        <time>2019-12-22T13:50:53Z</time>
      </trkpt>
      <trkpt lat="44.99638" lon="4.16297">
        <ele>1277</ele>
        <time>2019-12-22T13:51:13Z</time>
      </trkpt>
      <trkpt lat="44.99656" lon="4.1628">
        <ele>1278</ele>
        <time>2019-12-22T13:51:17Z</time>
      </trkpt>
      <trkpt lat="44.99671" lon="4.16271">
        <ele>1278</ele>
        <time>2019-12-22T13:51:20Z</time>
      </trkpt>
      <trkpt lat="44.99698" lon="4.16264">
        <ele>1278</ele>
        <time>2019-12-22T13:51:25Z</time>
      </trkpt>
      <trkpt lat="44.99865" lon="4.16236">
        <ele>1278</ele>
        <time>2019-12-22T13:51:55Z</time>
      </trkpt>
      <trkpt lat="44.99905" lon="4.16233">
        <ele>1278</ele>
        <time>2019-12-22T13:52:02Z</time>
      </trkpt>
      <trkpt lat="44.99939" lon="4.16236">
        <ele>1278</ele>
        <time>2019-12-22T13:52:08Z</time>
      </trkpt>
      <trkpt lat="45.0031" lon="4.16293">
        <ele>1284</ele>
        <time>2019-12-22T13:53:14Z</time>
      </trkpt>
      <trkpt lat="45.0033" lon="4.1629">
        <ele>1284</ele>
        <time>2019-12-22T13:53:18Z</time>
      </trkpt>
      <trkpt lat="45.00411" lon="4.16259">
        <ele>1281</ele>
        <time>2019-12-22T13:53:33Z</time>
      </trkpt>
      <trkpt lat="45.00415" lon="4.16261">
        <ele>1281</ele>
        <time>2019-12-22T13:53:34Z</time>
      </trkpt>
      <trkpt lat="45.00437" lon="4.16219">
        <ele>1281</ele>
        <time>2019-12-22T13:53:40Z</time>
      </trkpt>
      <trkpt lat="45.00567" lon="4.15961">
        <ele>1284</ele>
        <time>2019-12-22T13:54:20Z</time>
      </trkpt>
      <trkpt lat="45.00598" lon="4.15918">
        <ele>1285</ele>
        <time>2019-12-22T13:54:28Z</time>
      </trkpt>
      <trkpt lat="45.0065" lon="4.15867">
        <ele>1285</ele>
        <time>2019-12-22T13:54:39Z</time>
      </trkpt>
      <trkpt lat="45.01003" lon="4.15583">
        <ele>1282</ele>
        <time>2019-12-22T13:55:51Z</time>
      </trkpt>
      <trkpt lat="45.0234" lon="4.14523">
        <ele>1284</ele>
        <time>2019-12-22T14:00:24Z</time>
      </trkpt>
      <trkpt lat="45.0248" lon="4.1442">
        <ele>1273</ele>
        <time>2019-12-22T14:00:52Z</time>
      </trkpt>
      <trkpt lat="45.02518" lon="4.14482">
        <ele>1275</ele>
        <time>2019-12-22T14:01:02Z</time>
      </trkpt>
      <trkpt lat="45.02536" lon="4.14535">
        <ele>1278</ele>
        <time>2019-12-22T14:01:10Z</time>
      </trkpt>
      <trkpt lat="45.02559" lon="4.14566">
        <ele>1278</ele>
        <time>2019-12-22T14:01:16Z</time>
      </trkpt>
      <trkpt lat="45.02579" lon="4.14585">
        <ele>1278</ele>
        <time>2019-12-22T14:01:20Z</time>
      </trkpt>
      <trkpt lat="45.02598" lon="4.14605">
        <ele>1279</ele>
        <time>2019-12-22T14:01:24Z</time>
      </trkpt>
      <trkpt lat="45.02604" lon="4.14617">
        <ele>1280</ele>
        <time>2019-12-22T14:01:26Z</time>
      </trkpt>
      <trkpt lat="45.02685" lon="4.14659">
        <ele>1277</ele>
        <time>2019-12-22T14:01:41Z</time>
      </trkpt>
      <trkpt lat="45.02704" lon="4.14663">
        <ele>1275</ele>
        <time>2019-12-22T14:01:45Z</time>
      </trkpt>
      <trkpt lat="45.02722" lon="4.14661">
        <ele>1273</ele>
        <time>2019-12-22T14:01:48Z</time>
      </trkpt>
      <trkpt lat="45.0274" lon="4.1465">
        <ele>1271</ele>
        <time>2019-12-22T14:01:51Z</time>
      </trkpt>
      <trkpt lat="45.0277" lon="4.14624">
        <ele>1269</ele>
        <time>2019-12-22T14:01:58Z</time>
      </trkpt>
      <trkpt lat="45.02782" lon="4.14623">
        <ele>1268</ele>
        <time>2019-12-22T14:02:00Z</time>
      </trkpt>
      <trkpt lat="45.02807" lon="4.14631">
        <ele>1267</ele>
        <time>2019-12-22T14:02:04Z</time>
      </trkpt>
      <trkpt lat="45.02853" lon="4.14654">
        <ele>1265</ele>
        <time>2019-12-22T14:02:13Z</time>
      </trkpt>
      <trkpt lat="45.02894" lon="4.14684">
        <ele>1263</ele>
        <time>2019-12-22T14:02:21Z</time>
      </trkpt>
      <trkpt lat="45.02917" lon="4.14697">
        <ele>1261</ele>
        <time>2019-12-22T14:02:26Z</time>
      </trkpt>
      <trkpt lat="45.02935" lon="4.14701">
        <ele>1261</ele>
        <time>2019-12-22T14:02:29Z</time>
      </trkpt>
      <trkpt lat="45.02972" lon="4.14702">
        <ele>1261</ele>
        <time>2019-12-22T14:02:35Z</time>
      </trkpt>
      <trkpt lat="45.03047" lon="4.14709">
        <ele>1263</ele>
        <time>2019-12-22T14:02:49Z</time>
      </trkpt>
      <trkpt lat="45.031" lon="4.1471">
        <ele>1266</ele>
        <time>2019-12-22T14:02:58Z</time>
      </trkpt>
      <trkpt lat="45.03153" lon="4.14914">
        <ele>1260</ele>
        <time>2019-12-22T14:03:26Z</time>
      </trkpt>
      <trkpt lat="45.03257" lon="4.15302">
        <ele>1242</ele>
        <time>2019-12-22T14:04:18Z</time>
      </trkpt>
      <trkpt lat="45.03405" lon="4.15824">
        <ele>1220</ele>
        <time>2019-12-22T14:05:28Z</time>
      </trkpt>
      <trkpt lat="45.03442" lon="4.15965">
        <ele>1213</ele>
        <time>2019-12-22T14:05:47Z</time>
      </trkpt>
      <trkpt lat="45.03486" lon="4.16118">
        <ele>1205</ele>
        <time>2019-12-22T14:06:08Z</time>
      </trkpt>
      <trkpt lat="45.03506" lon="4.161">
        <ele>1207</ele>
        <time>2019-12-22T14:06:12Z</time>
      </trkpt>
      <trkpt lat="45.03517" lon="4.16082">
        <ele>1209</ele>
        <time>2019-12-22T14:06:15Z</time>
      </trkpt>
      <trkpt lat="45.03544" lon="4.16023">
        <ele>1214</ele>
        <time>2019-12-22T14:06:24Z</time>
      </trkpt>
      <trkpt lat="45.03568" lon="4.15987">
        <ele>1218</ele>
        <time>2019-12-22T14:06:30Z</time>
      </trkpt>
      <trkpt lat="45.03583" lon="4.15967">
        <ele>1221</ele>
        <time>2019-12-22T14:06:34Z</time>
      </trkpt>
      <trkpt lat="45.03626" lon="4.15883">
        <ele>1232</ele>
        <time>2019-12-22T14:06:47Z</time>
      </trkpt>
      <trkpt lat="45.03654" lon="4.15791">
        <ele>1240</ele>
        <time>2019-12-22T14:07:00Z</time>
      </trkpt>
      <trkpt lat="45.03661" lon="4.15763">
        <ele>1241</ele>
        <time>2019-12-22T14:07:03Z</time>
      </trkpt>
      <trkpt lat="45.03671" lon="4.1568">
        <ele>1245</ele>
        <time>2019-12-22T14:07:14Z</time>
      </trkpt>
      <trkpt lat="45.03673" lon="4.1565">
        <ele>1247</ele>
        <time>2019-12-22T14:07:18Z</time>
      </trkpt>
      <trkpt lat="45.03668" lon="4.15627">
        <ele>1248</ele>
        <time>2019-12-22T14:07:21Z</time>
      </trkpt>
      <trkpt lat="45.03653" lon="4.15577">
        <ele>1253</ele>
        <time>2019-12-22T14:07:28Z</time>
      </trkpt>
      <trkpt lat="45.03654" lon="4.15571">
        <ele>1254</ele>
        <time>2019-12-22T14:07:28Z</time>
      </trkpt>
      <trkpt lat="45.03657" lon="4.15567">
        <ele>1255</ele>
        <time>2019-12-22T14:07:29Z</time>
      </trkpt>
      <trkpt lat="45.03662" lon="4.15566">
        <ele>1255</ele>
        <time>2019-12-22T14:07:30Z</time>
      </trkpt>
      <trkpt lat="45.03657" lon="4.15567">
        <ele>1255</ele>
        <time>2019-12-22T14:07:31Z</time>
      </trkpt>
      <trkpt lat="45.03654" lon="4.15571">
        <ele>1254</ele>
        <time>2019-12-22T14:07:32Z</time>
      </trkpt>
      <trkpt lat="45.03653" lon="4.15577">
        <ele>1253</ele>
        <time>2019-12-22T14:07:33Z</time>
      </trkpt>
      <trkpt lat="45.03668" lon="4.15627">
        <ele>1248</ele>
        <time>2019-12-22T14:07:39Z</time>
      </trkpt>
      <trkpt lat="45.03673" lon="4.1565">
        <ele>1247</ele>
        <time>2019-12-22T14:07:42Z</time>
      </trkpt>
      <trkpt lat="45.03671" lon="4.1568">
        <ele>1245</ele>
        <time>2019-12-22T14:07:46Z</time>
      </trkpt>
      <trkpt lat="45.03661" lon="4.15763">
        <ele>1241</ele>
        <time>2019-12-22T14:07:57Z</time>
      </trkpt>
      <trkpt lat="45.03654" lon="4.15791">
        <ele>1240</ele>
        <time>2019-12-22T14:08:00Z</time>
      </trkpt>
      <trkpt lat="45.03626" lon="4.15883">
        <ele>1232</ele>
        <time>2019-12-22T14:08:13Z</time>
      </trkpt>
      <trkpt lat="45.03583" lon="4.15967">
        <ele>1221</ele>
        <time>2019-12-22T14:08:26Z</time>
      </trkpt>
      <trkpt lat="45.03568" lon="4.15987">
        <ele>1218</ele>
        <time>2019-12-22T14:08:30Z</time>
      </trkpt>
      <trkpt lat="45.03544" lon="4.16023">
        <ele>1214</ele>
        <time>2019-12-22T14:08:36Z</time>
      </trkpt>
      <trkpt lat="45.03517" lon="4.16082">
        <ele>1209</ele>
        <time>2019-12-22T14:08:45Z</time>
      </trkpt>
      <trkpt lat="45.03506" lon="4.161">
        <ele>1207</ele>
        <time>2019-12-22T14:08:48Z</time>
      </trkpt>
      <trkpt lat="45.03486" lon="4.16118">
        <ele>1205</ele>
        <time>2019-12-22T14:08:52Z</time>
      </trkpt>
      <trkpt lat="45.03442" lon="4.15965">
        <ele>1213</ele>
        <time>2019-12-22T14:09:13Z</time>
      </trkpt>
      <trkpt lat="45.03405" lon="4.15824">
        <ele>1220</ele>
        <time>2019-12-22T14:09:32Z</time>
      </trkpt>
      <trkpt lat="45.03257" lon="4.15302">
        <ele>1242</ele>
        <time>2019-12-22T14:10:42Z</time>
      </trkpt>
      <trkpt lat="45.03116" lon="4.14775">
        <ele>1265</ele>
        <time>2019-12-22T14:11:53Z</time>
      </trkpt>
      <trkpt lat="45.0308" lon="4.14631">
        <ele>1267</ele>
        <time>2019-12-22T14:12:13Z</time>
      </trkpt>
      <trkpt lat="45.03077" lon="4.14607">
        <ele>1267</ele>
        <time>2019-12-22T14:12:16Z</time>
      </trkpt>
      <trkpt lat="45.03081" lon="4.14532">
        <ele>1267</ele>
        <time>2019-12-22T14:12:25Z</time>
      </trkpt>
      <trkpt lat="45.03093" lon="4.14391">
        <ele>1266</ele>
        <time>2019-12-22T14:12:43Z</time>
      </trkpt>
      <trkpt lat="45.03164" lon="4.13567">
        <ele>1249</ele>
        <time>2019-12-22T14:14:27Z</time>
      </trkpt>
      <trkpt lat="45.0317" lon="4.13523">
        <ele>1248</ele>
        <time>2019-12-22T14:14:33Z</time>
      </trkpt>
      <trkpt lat="45.03177" lon="4.1349">
        <ele>1247</ele>
        <time>2019-12-22T14:14:37Z</time>
      </trkpt>
      <trkpt lat="45.03251" lon="4.13275">
        <ele>1235</ele>
        <time>2019-12-22T14:15:07Z</time>
      </trkpt>
      <trkpt lat="45.0326" lon="4.13238">
        <ele>1232</ele>
        <time>2019-12-22T14:15:12Z</time>
      </trkpt>
      <trkpt lat="45.03266" lon="4.13201">
        <ele>1230</ele>
        <time>2019-12-22T14:15:17Z</time>
      </trkpt>
      <trkpt lat="45.0327" lon="4.1316">
        <ele>1228</ele>
        <time>2019-12-22T14:15:22Z</time>
      </trkpt>
      <trkpt lat="45.03271" lon="4.13125">
        <ele>1227</ele>
        <time>2019-12-22T14:15:27Z</time>
      </trkpt>
      <trkpt lat="45.03266" lon="4.13065">
        <ele>1224</ele>
        <time>2019-12-22T14:15:34Z</time>
      </trkpt>
      <trkpt lat="45.0326" lon="4.13027">
        <ele>1221</ele>
        <time>2019-12-22T14:15:39Z</time>
      </trkpt>
      <trkpt lat="45.03286" lon="4.13023">
        <ele>1223</ele>
        <time>2019-12-22T14:15:44Z</time>
      </trkpt>
      <trkpt lat="45.03319" lon="4.13023">
        <ele>1226</ele>
        <time>2019-12-22T14:15:50Z</time>
      </trkpt>
      <trkpt lat="45.03388" lon="4.13031">
        <ele>1232</ele>
        <time>2019-12-22T14:16:02Z</time>
      </trkpt>
      <trkpt lat="45.03423" lon="4.13024">
        <ele>1235</ele>
        <time>2019-12-22T14:16:08Z</time>
      </trkpt>
      <trkpt lat="45.03468" lon="4.13002">
        <ele>1239</ele>
        <time>2019-12-22T14:16:17Z</time>
      </trkpt>
      <trkpt lat="45.0352" lon="4.12971">
        <ele>1242</ele>
        <time>2019-12-22T14:16:27Z</time>
      </trkpt>
      <trkpt lat="45.03549" lon="4.1295">
        <ele>1244</ele>
        <time>2019-12-22T14:16:33Z</time>
      </trkpt>
      <trkpt lat="45.03586" lon="4.12931">
        <ele>1246</ele>
        <time>2019-12-22T14:16:40Z</time>
      </trkpt>
      <trkpt lat="45.03608" lon="4.12911">
        <ele>1248</ele>
        <time>2019-12-22T14:16:44Z</time>
      </trkpt>
      <trkpt lat="45.03631" lon="4.12878">
        <ele>1249</ele>
        <time>2019-12-22T14:16:50Z</time>
      </trkpt>
      <trkpt lat="45.03685" lon="4.12808">
        <ele>1255</ele>
        <time>2019-12-22T14:17:03Z</time>
      </trkpt>
      <trkpt lat="45.03688" lon="4.12796">
        <ele>1256</ele>
        <time>2019-12-22T14:17:05Z</time>
      </trkpt>
      <trkpt lat="45.03698" lon="4.12704">
        <ele>1258</ele>
        <time>2019-12-22T14:17:16Z</time>
      </trkpt>
      <trkpt lat="45.03706" lon="4.12663">
        <ele>1260</ele>
        <time>2019-12-22T14:17:22Z</time>
      </trkpt>
      <trkpt lat="45.03719" lon="4.12614">
        <ele>1264</ele>
        <time>2019-12-22T14:17:28Z</time>
      </trkpt>
      <trkpt lat="45.03737" lon="4.12566">
        <ele>1269</ele>
        <time>2019-12-22T14:17:35Z</time>
      </trkpt>
      <trkpt lat="45.03767" lon="4.12506">
        <ele>1273</ele>
        <time>2019-12-22T14:17:44Z</time>
      </trkpt>
      <trkpt lat="45.03775" lon="4.12494">
        <ele>1274</ele>
        <time>2019-12-22T14:17:46Z</time>
      </trkpt>
      <trkpt lat="45.03794" lon="4.12479">
        <ele>1277</ele>
        <time>2019-12-22T14:17:50Z</time>
      </trkpt>
      <trkpt lat="45.03817" lon="4.12474">
        <ele>1279</ele>
        <time>2019-12-22T14:17:54Z</time>
      </trkpt>
      <trkpt lat="45.03908" lon="4.12471">
        <ele>1286</ele>
        <time>2019-12-22T14:18:11Z</time>
      </trkpt>
      <trkpt lat="45.03973" lon="4.12476">
        <ele>1290</ele>
        <time>2019-12-22T14:18:22Z</time>
      </trkpt>
      <trkpt lat="45.04078" lon="4.12502">
        <ele>1292</ele>
        <time>2019-12-22T14:18:41Z</time>
      </trkpt>
      <trkpt lat="45.04111" lon="4.12514">
        <ele>1292</ele>
        <time>2019-12-22T14:18:47Z</time>
      </trkpt>
      <trkpt lat="45.04387" lon="4.126">
        <ele>1296</ele>
        <time>2019-12-22T14:19:38Z</time>
      </trkpt>
      <trkpt lat="45.04461" lon="4.12621">
        <ele>1297</ele>
        <time>2019-12-22T14:19:51Z</time>
      </trkpt>
      <trkpt lat="45.0459" lon="4.1265">
        <ele>1299</ele>
        <time>2019-12-22T14:20:14Z</time>
      </trkpt>
      <trkpt lat="45.04647" lon="4.12659">
        <ele>1303</ele>
        <time>2019-12-22T14:20:24Z</time>
      </trkpt>
      <trkpt lat="45.0472" lon="4.12656">
        <ele>1304</ele>
        <time>2019-12-22T14:20:37Z</time>
      </trkpt>
      <trkpt lat="45.04787" lon="4.1265">
        <ele>1304</ele>
        <time>2019-12-22T14:20:49Z</time>
      </trkpt>
      <trkpt lat="45.04854" lon="4.12633">
        <ele>1303</ele>
        <time>2019-12-22T14:21:01Z</time>
      </trkpt>
      <trkpt lat="45.0493" lon="4.12601">
        <ele>1302</ele>
        <time>2019-12-22T14:21:16Z</time>
      </trkpt>
      <trkpt lat="45.05107" lon="4.12536">
        <ele>1304</ele>
        <time>2019-12-22T14:21:48Z</time>
      </trkpt>
      <trkpt lat="45.05194" lon="4.12505">
        <ele>1304</ele>
        <time>2019-12-22T14:22:04Z</time>
      </trkpt>
      <trkpt lat="45.05226" lon="4.12498">
        <ele>1305</ele>
        <time>2019-12-22T14:22:10Z</time>
      </trkpt>
      <trkpt lat="45.05265" lon="4.12501">
        <ele>1306</ele>
        <time>2019-12-22T14:22:17Z</time>
      </trkpt>
      <trkpt lat="45.05342" lon="4.12496">
        <ele>1307</ele>
        <time>2019-12-22T14:22:31Z</time>
      </trkpt>
      <trkpt lat="45.05443" lon="4.12505">
        <ele>1307</ele>
        <time>2019-12-22T14:22:49Z</time>
      </trkpt>
      <trkpt lat="45.05621" lon="4.1254">
        <ele>1310</ele>
        <time>2019-12-22T14:23:20Z</time>
      </trkpt>
      <trkpt lat="45.05687" lon="4.12534">
        <ele>1308</ele>
        <time>2019-12-22T14:23:32Z</time>
      </trkpt>
      <trkpt lat="45.05765" lon="4.12542">
        <ele>1304</ele>
        <time>2019-12-22T14:23:46Z</time>
      </trkpt>
      <trkpt lat="45.05825" lon="4.12559">
        <ele>1302</ele>
        <time>2019-12-22T14:23:57Z</time>
      </trkpt>
      <trkpt lat="45.05884" lon="4.1259">
        <ele>1299</ele>
        <time>2019-12-22T14:24:08Z</time>
      </trkpt>
      <trkpt lat="45.05951" lon="4.12638">
        <ele>1294</ele>
        <time>2019-12-22T14:24:22Z</time>
      </trkpt>
      <trkpt lat="45.06043" lon="4.12686">
        <ele>1286</ele>
        <time>2019-12-22T14:24:39Z</time>
      </trkpt>
      <trkpt lat="45.06215" lon="4.12793">
        <ele>1285</ele>
        <time>2019-12-22T14:25:12Z</time>
      </trkpt>
      <trkpt lat="45.06293" lon="4.12832">
        <ele>1282</ele>
        <time>2019-12-22T14:25:27Z</time>
      </trkpt>
      <trkpt lat="45.06375" lon="4.12847">
        <ele>1278</ele>
        <time>2019-12-22T14:25:42Z</time>
      </trkpt>
      <trkpt lat="45.06455" lon="4.12852">
        <ele>1277</ele>
        <time>2019-12-22T14:25:56Z</time>
      </trkpt>
      <trkpt lat="45.06524" lon="4.12848">
        <ele>1277</ele>
        <time>2019-12-22T14:26:08Z</time>
      </trkpt>
      <trkpt lat="45.06592" lon="4.1283">
        <ele>1279</ele>
        <time>2019-12-22T14:26:21Z</time>
      </trkpt>
      <trkpt lat="45.0669" lon="4.12807">
        <ele>1280</ele>
        <time>2019-12-22T14:26:38Z</time>
      </trkpt>
      <trkpt lat="45.06774" lon="4.12793">
        <ele>1280</ele>
        <time>2019-12-22T14:26:53Z</time>
      </trkpt>
      <trkpt lat="45.0689" lon="4.12831">
        <ele>1282</ele>
        <time>2019-12-22T14:27:15Z</time>
      </trkpt>
      <trkpt lat="45.06904" lon="4.12833">
        <ele>1282</ele>
        <time>2019-12-22T14:27:17Z</time>
      </trkpt>
      <trkpt lat="45.07007" lon="4.12808">
        <ele>1279</ele>
        <time>2019-12-22T14:27:36Z</time>
      </trkpt>
      <trkpt lat="45.07038" lon="4.12809">
        <ele>1277</ele>
        <time>2019-12-22T14:27:41Z</time>
      </trkpt>
      <trkpt lat="45.07069" lon="4.12814">
        <ele>1275</ele>
        <time>2019-12-22T14:27:47Z</time>
      </trkpt>
      <trkpt lat="45.07153" lon="4.12837">
        <ele>1265</ele>
        <time>2019-12-22T14:28:02Z</time>
      </trkpt>
      <trkpt lat="45.07186" lon="4.12851">
        <ele>1262</ele>
        <time>2019-12-22T14:28:08Z</time>
      </trkpt>
      <trkpt lat="45.07241" lon="4.12866">
        <ele>1258</ele>
        <time>2019-12-22T14:28:18Z</time>
      </trkpt>
      <trkpt lat="45.07265" lon="4.12871">
        <ele>1256</ele>
        <time>2019-12-22T14:28:22Z</time>
      </trkpt>
      <trkpt lat="45.07198" lon="4.12752">
        <ele>1261</ele>
        <time>2019-12-22T14:28:42Z</time>
      </trkpt>
      <trkpt lat="45.07176" lon="4.12728">
        <ele>1264</ele>
        <time>2019-12-22T14:28:47Z</time>
      </trkpt>
      <trkpt lat="45.07088" lon="4.12672">
        <ele>1271</ele>
        <time>2019-12-22T14:29:04Z</time>
      </trkpt>
      <trkpt lat="45.0702" lon="4.12625">
        <ele>1272</ele>
        <time>2019-12-22T14:29:17Z</time>
      </trkpt>
      <trkpt lat="45.06992" lon="4.12594">
        <ele>1272</ele>
        <time>2019-12-22T14:29:24Z</time>
      </trkpt>
      <trkpt lat="45.06973" lon="4.12554">
        <ele>1272</ele>
        <time>2019-12-22T14:29:30Z</time>
      </trkpt>
      <trkpt lat="45.06919" lon="4.12373">
        <ele>1269</ele>
        <time>2019-12-22T14:29:54Z</time>
      </trkpt>
      <trkpt lat="45.06886" lon="4.12243">
        <ele>1268</ele>
        <time>2019-12-22T14:30:12Z</time>
      </trkpt>
      <trkpt lat="45.06853" lon="4.1214">
        <ele>1267</ele>
        <time>2019-12-22T14:30:26Z</time>
      </trkpt>
      <trkpt lat="45.06834" lon="4.1209">
        <ele>1267</ele>
        <time>2019-12-22T14:30:33Z</time>
      </trkpt>
      <trkpt lat="45.06819" lon="4.12063">
        <ele>1267</ele>
        <time>2019-12-22T14:30:37Z</time>
      </trkpt>
      <trkpt lat="45.06812" lon="4.12045">
        <ele>1268</ele>
        <time>2019-12-22T14:30:40Z</time>
      </trkpt>
      <trkpt lat="45.06808" lon="4.1202">
        <ele>1269</ele>
        <time>2019-12-22T14:30:43Z</time>
      </trkpt>
      <trkpt lat="45.06825" lon="4.11886">
        <ele>1261</ele>
        <time>2019-12-22T14:31:00Z</time>
      </trkpt>
      <trkpt lat="45.06837" lon="4.11816">
        <ele>1256</ele>
        <time>2019-12-22T14:31:09Z</time>
      </trkpt>
      <trkpt lat="45.06862" lon="4.11735">
        <ele>1252</ele>
        <time>2019-12-22T14:31:20Z</time>
      </trkpt>
      <trkpt lat="45.06879" lon="4.1166">
        <ele>1249</ele>
        <time>2019-12-22T14:31:30Z</time>
      </trkpt>
      <trkpt lat="45.06892" lon="4.11564">
        <ele>1245</ele>
        <time>2019-12-22T14:31:43Z</time>
      </trkpt>
      <trkpt lat="45.06892" lon="4.11472">
        <ele>1237</ele>
        <time>2019-12-22T14:31:54Z</time>
      </trkpt>
      <trkpt lat="45.06895" lon="4.11422">
        <ele>1235</ele>
        <time>2019-12-22T14:32:00Z</time>
      </trkpt>
      <trkpt lat="45.06904" lon="4.11384">
        <ele>1233</ele>
        <time>2019-12-22T14:32:05Z</time>
      </trkpt>
      <trkpt lat="45.06925" lon="4.11342">
        <ele>1234</ele>
        <time>2019-12-22T14:32:12Z</time>
      </trkpt>
      <trkpt lat="45.06949" lon="4.11258">
        <ele>1231</ele>
        <time>2019-12-22T14:32:23Z</time>
      </trkpt>
      <trkpt lat="45.06953" lon="4.11189">
        <ele>1226</ele>
        <time>2019-12-22T14:32:32Z</time>
      </trkpt>
      <trkpt lat="45.06944" lon="4.11117">
        <ele>1220</ele>
        <time>2019-12-22T14:32:41Z</time>
      </trkpt>
      <trkpt lat="45.06948" lon="4.11061">
        <ele>1217</ele>
        <time>2019-12-22T14:32:48Z</time>
      </trkpt>
      <trkpt lat="45.06979" lon="4.10989">
        <ele>1210</ele>
        <time>2019-12-22T14:32:59Z</time>
      </trkpt>
      <trkpt lat="45.06995" lon="4.10965">
        <ele>1206</ele>
        <time>2019-12-22T14:33:03Z</time>
      </trkpt>
      <trkpt lat="45.07074" lon="4.10889">
        <ele>1202</ele>
        <time>2019-12-22T14:33:20Z</time>
      </trkpt>
      <trkpt lat="45.07089" lon="4.1087">
        <ele>1200</ele>
        <time>2019-12-22T14:33:24Z</time>
      </trkpt>
      <trkpt lat="45.07101" lon="4.10832">
        <ele>1195</ele>
        <time>2019-12-22T14:33:29Z</time>
      </trkpt>
      <trkpt lat="45.07122" lon="4.10803">
        <ele>1195</ele>
        <time>2019-12-22T14:33:34Z</time>
      </trkpt>
      <trkpt lat="45.07139" lon="4.10797">
        <ele>1196</ele>
        <time>2019-12-22T14:33:37Z</time>
      </trkpt>
      <trkpt lat="45.07151" lon="4.10768">
        <ele>1194</ele>
        <time>2019-12-22T14:33:41Z</time>
      </trkpt>
      <trkpt lat="45.07195" lon="4.10604">
        <ele>1180</ele>
        <time>2019-12-22T14:34:03Z</time>
      </trkpt>
      <trkpt lat="45.07201" lon="4.10563">
        <ele>1177</ele>
        <time>2019-12-22T14:34:09Z</time>
      </trkpt>
      <trkpt lat="45.07221" lon="4.10495">
        <ele>1173</ele>
        <time>2019-12-22T14:34:18Z</time>
      </trkpt>
      <trkpt lat="45.07267" lon="4.10375">
        <ele>1167</ele>
        <time>2019-12-22T14:34:35Z</time>
      </trkpt>
      <trkpt lat="45.073" lon="4.10298">
        <ele>1163</ele>
        <time>2019-12-22T14:34:46Z</time>
      </trkpt>
      <trkpt lat="45.07318" lon="4.10242">
        <ele>1161</ele>
        <time>2019-12-22T14:34:54Z</time>
      </trkpt>
      <trkpt lat="45.07318" lon="4.10206">
        <ele>1159</ele>
        <time>2019-12-22T14:34:59Z</time>
      </trkpt>
      <trkpt lat="45.07301" lon="4.10148">
        <ele>1154</ele>
        <time>2019-12-22T14:35:07Z</time>
      </trkpt>
      <trkpt lat="45.07287" lon="4.10074">
        <ele>1149</ele>
        <time>2019-12-22T14:35:16Z</time>
      </trkpt>
      <trkpt lat="45.0727" lon="4.10016">
        <ele>1146</ele>
        <time>2019-12-22T14:35:24Z</time>
      </trkpt>
      <trkpt lat="45.0726" lon="4.09993">
        <ele>1144</ele>
        <time>2019-12-22T14:35:27Z</time>
      </trkpt>
      <trkpt lat="45.0727" lon="4.10016">
        <ele>1146</ele>
        <time>2019-12-22T14:35:31Z</time>
      </trkpt>
      <trkpt lat="45.07287" lon="4.10074">
        <ele>1149</ele>
        <time>2019-12-22T14:35:39Z</time>
      </trkpt>
      <trkpt lat="45.07301" lon="4.10049">
        <ele>1150</ele>
        <time>2019-12-22T14:35:43Z</time>
      </trkpt>
      <trkpt lat="45.07325" lon="4.10015">
        <ele>1151</ele>
        <time>2019-12-22T14:35:49Z</time>
      </trkpt>
      <trkpt lat="45.07339" lon="4.09989">
        <ele>1152</ele>
        <time>2019-12-22T14:35:53Z</time>
      </trkpt>
      <trkpt lat="45.07351" lon="4.09961">
        <ele>1153</ele>
        <time>2019-12-22T14:35:57Z</time>
      </trkpt>
      <trkpt lat="45.07365" lon="4.09917">
        <ele>1153</ele>
        <time>2019-12-22T14:36:03Z</time>
      </trkpt>
      <trkpt lat="45.07372" lon="4.09906">
        <ele>1153</ele>
        <time>2019-12-22T14:36:05Z</time>
      </trkpt>
      <trkpt lat="45.07384" lon="4.09895">
        <ele>1153</ele>
        <time>2019-12-22T14:36:07Z</time>
      </trkpt>
      <trkpt lat="45.07398" lon="4.09883">
        <ele>1152</ele>
        <time>2019-12-22T14:36:10Z</time>
      </trkpt>
      <trkpt lat="45.07454" lon="4.09844">
        <ele>1150</ele>
        <time>2019-12-22T14:36:21Z</time>
      </trkpt>
      <trkpt lat="45.07486" lon="4.09828">
        <ele>1148</ele>
        <time>2019-12-22T14:36:28Z</time>
      </trkpt>
      <trkpt lat="45.07515" lon="4.09818">
        <ele>1148</ele>
        <time>2019-12-22T14:36:33Z</time>
      </trkpt>
      <trkpt lat="45.0754" lon="4.09806">
        <ele>1147</ele>
        <time>2019-12-22T14:36:38Z</time>
      </trkpt>
      <trkpt lat="45.0756" lon="4.09785">
        <ele>1146</ele>
        <time>2019-12-22T14:36:42Z</time>
      </trkpt>
      <trkpt lat="45.07578" lon="4.09771">
        <ele>1145</ele>
        <time>2019-12-22T14:36:46Z</time>
      </trkpt>
      <trkpt lat="45.07777" lon="4.09658">
        <ele>1139</ele>
        <time>2019-12-22T14:37:24Z</time>
      </trkpt>
      <trkpt lat="45.07811" lon="4.09644">
        <ele>1139</ele>
        <time>2019-12-22T14:37:30Z</time>
      </trkpt>
      <trkpt lat="45.07827" lon="4.09641">
        <ele>1140</ele>
        <time>2019-12-22T14:37:33Z</time>
      </trkpt>
      <trkpt lat="45.07842" lon="4.09641">
        <ele>1140</ele>
        <time>2019-12-22T14:37:36Z</time>
      </trkpt>
      <trkpt lat="45.0786" lon="4.09645">
        <ele>1140</ele>
        <time>2019-12-22T14:37:39Z</time>
      </trkpt>
      <trkpt lat="45.07924" lon="4.09671">
        <ele>1139</ele>
        <time>2019-12-22T14:37:51Z</time>
      </trkpt>
      <trkpt lat="45.07944" lon="4.09675">
        <ele>1137</ele>
        <time>2019-12-22T14:37:54Z</time>
      </trkpt>
      <trkpt lat="45.07963" lon="4.09673">
        <ele>1134</ele>
        <time>2019-12-22T14:37:58Z</time>
      </trkpt>
      <trkpt lat="45.07982" lon="4.09664">
        <ele>1132</ele>
        <time>2019-12-22T14:38:01Z</time>
      </trkpt>
      <trkpt lat="45.0807" lon="4.09613">
        <ele>1127</ele>
        <time>2019-12-22T14:38:18Z</time>
      </trkpt>
      <trkpt lat="45.08116" lon="4.0959">
        <ele>1126</ele>
        <time>2019-12-22T14:38:27Z</time>
      </trkpt>
      <trkpt lat="45.08164" lon="4.09571">
        <ele>1122</ele>
        <time>2019-12-22T14:38:36Z</time>
      </trkpt>
      <trkpt lat="45.08176" lon="4.09568">
        <ele>1122</ele>
        <time>2019-12-22T14:38:38Z</time>
      </trkpt>
      <trkpt lat="45.08185" lon="4.09571">
        <ele>1121</ele>
        <time>2019-12-22T14:38:40Z</time>
      </trkpt>
      <trkpt lat="45.08191" lon="4.09578">
        <ele>1120</ele>
        <time>2019-12-22T14:38:41Z</time>
      </trkpt>
      <trkpt lat="45.08194" lon="4.09589">
        <ele>1118</ele>
        <time>2019-12-22T14:38:42Z</time>
      </trkpt>
      <trkpt lat="45.08194" lon="4.09604">
        <ele>1117</ele>
        <time>2019-12-22T14:38:44Z</time>
      </trkpt>
      <trkpt lat="45.0819" lon="4.09622">
        <ele>1115</ele>
        <time>2019-12-22T14:38:47Z</time>
      </trkpt>
      <trkpt lat="45.08169" lon="4.09675">
        <ele>1112</ele>
        <time>2019-12-22T14:38:54Z</time>
      </trkpt>
      <trkpt lat="45.08165" lon="4.0969">
        <ele>1112</ele>
        <time>2019-12-22T14:38:56Z</time>
      </trkpt>
      <trkpt lat="45.08163" lon="4.0971">
        <ele>1111</ele>
        <time>2019-12-22T14:38:59Z</time>
      </trkpt>
      <trkpt lat="45.08165" lon="4.0977">
        <ele>1108</ele>
        <time>2019-12-22T14:39:06Z</time>
      </trkpt>
      <trkpt lat="45.08171" lon="4.09887">
        <ele>1104</ele>
        <time>2019-12-22T14:39:21Z</time>
      </trkpt>
      <trkpt lat="45.08175" lon="4.09905">
        <ele>1104</ele>
        <time>2019-12-22T14:39:23Z</time>
      </trkpt>
      <trkpt lat="45.08182" lon="4.09923">
        <ele>1103</ele>
        <time>2019-12-22T14:39:26Z</time>
      </trkpt>
      <trkpt lat="45.08192" lon="4.09935">
        <ele>1104</ele>
        <time>2019-12-22T14:39:28Z</time>
      </trkpt>
      <trkpt lat="45.08203" lon="4.09943">
        <ele>1104</ele>
        <time>2019-12-22T14:39:31Z</time>
      </trkpt>
      <trkpt lat="45.08215" lon="4.09946">
        <ele>1103</ele>
        <time>2019-12-22T14:39:33Z</time>
      </trkpt>
      <trkpt lat="45.0823" lon="4.09945">
        <ele>1103</ele>
        <time>2019-12-22T14:39:35Z</time>
      </trkpt>
      <trkpt lat="45.0825" lon="4.09939">
        <ele>1101</ele>
        <time>2019-12-22T14:39:39Z</time>
      </trkpt>
      <trkpt lat="45.08268" lon="4.0993">
        <ele>1101</ele>
        <time>2019-12-22T14:39:42Z</time>
      </trkpt>
      <trkpt lat="45.08321" lon="4.09893">
        <ele>1100</ele>
        <time>2019-12-22T14:39:53Z</time>
      </trkpt>
      <trkpt lat="45.08336" lon="4.09886">
        <ele>1100</ele>
        <time>2019-12-22T14:39:56Z</time>
      </trkpt>
      <trkpt lat="45.08355" lon="4.09887">
        <ele>1100</ele>
        <time>2019-12-22T14:39:59Z</time>
      </trkpt>
      <trkpt lat="45.08416" lon="4.09905">
        <ele>1103</ele>
        <time>2019-12-22T14:40:10Z</time>
      </trkpt>
      <trkpt lat="45.08535" lon="4.09962">
        <ele>1092</ele>
        <time>2019-12-22T14:40:33Z</time>
      </trkpt>
      <trkpt lat="45.0863" lon="4.09994">
        <ele>1087</ele>
        <time>2019-12-22T14:40:50Z</time>
      </trkpt>
      <trkpt lat="45.08656" lon="4.09997">
        <ele>1087</ele>
        <time>2019-12-22T14:40:55Z</time>
      </trkpt>
      <trkpt lat="45.08801" lon="4.10002">
        <ele>1087</ele>
        <time>2019-12-22T14:41:20Z</time>
      </trkpt>
      <trkpt lat="45.08853" lon="4.1">
        <ele>1087</ele>
        <time>2019-12-22T14:41:30Z</time>
      </trkpt>
      <trkpt lat="45.08907" lon="4.09995">
        <ele>1088</ele>
        <time>2019-12-22T14:41:39Z</time>
      </trkpt>
      <trkpt lat="45.08989" lon="4.09996">
        <ele>1092</ele>
        <time>2019-12-22T14:41:54Z</time>
      </trkpt>
      <trkpt lat="45.09019" lon="4.1">
        <ele>1091</ele>
        <time>2019-12-22T14:41:59Z</time>
      </trkpt>
      <trkpt lat="45.09031" lon="4.10006">
        <ele>1090</ele>
        <time>2019-12-22T14:42:02Z</time>
      </trkpt>
      <trkpt lat="45.0904" lon="4.10014">
        <ele>1091</ele>
        <time>2019-12-22T14:42:03Z</time>
      </trkpt>
      <trkpt lat="45.09071" lon="4.10065">
        <ele>1092</ele>
        <time>2019-12-22T14:42:12Z</time>
      </trkpt>
      <trkpt lat="45.09078" lon="4.10075">
        <ele>1092</ele>
        <time>2019-12-22T14:42:14Z</time>
      </trkpt>
      <trkpt lat="45.09116" lon="4.10111">
        <ele>1088</ele>
        <time>2019-12-22T14:42:22Z</time>
      </trkpt>
      <trkpt lat="45.09131" lon="4.10132">
        <ele>1088</ele>
        <time>2019-12-22T14:42:26Z</time>
      </trkpt>
      <trkpt lat="45.09211" lon="4.10268">
        <ele>1082</ele>
        <time>2019-12-22T14:42:48Z</time>
      </trkpt>
      <trkpt lat="45.09245" lon="4.10336">
        <ele>1080</ele>
        <time>2019-12-22T14:42:58Z</time>
      </trkpt>
      <trkpt lat="45.09264" lon="4.1038">
        <ele>1078</ele>
        <time>2019-12-22T14:43:05Z</time>
      </trkpt>
      <trkpt lat="45.09276" lon="4.10418">
        <ele>1076</ele>
        <time>2019-12-22T14:43:10Z</time>
      </trkpt>
      <trkpt lat="45.09299" lon="4.10506">
        <ele>1072</ele>
        <time>2019-12-22T14:43:22Z</time>
      </trkpt>
      <trkpt lat="45.093" lon="4.10534">
        <ele>1073</ele>
        <time>2019-12-22T14:43:25Z</time>
      </trkpt>
      <trkpt lat="45.09312" lon="4.10609">
        <ele>1073</ele>
        <time>2019-12-22T14:43:35Z</time>
      </trkpt>
      <trkpt lat="45.09355" lon="4.10732">
        <ele>1063</ele>
        <time>2019-12-22T14:43:52Z</time>
      </trkpt>
      <trkpt lat="45.09392" lon="4.10824">
        <ele>1050</ele>
        <time>2019-12-22T14:44:05Z</time>
      </trkpt>
      <trkpt lat="45.09398" lon="4.10845">
        <ele>1048</ele>
        <time>2019-12-22T14:44:08Z</time>
      </trkpt>
      <trkpt lat="45.09407" lon="4.10914">
        <ele>1046</ele>
        <time>2019-12-22T14:44:17Z</time>
      </trkpt>
      <trkpt lat="45.09413" lon="4.10932">
        <ele>1044</ele>
        <time>2019-12-22T14:44:20Z</time>
      </trkpt>
      <trkpt lat="45.09441" lon="4.11003">
        <ele>1035</ele>
        <time>2019-12-22T14:44:30Z</time>
      </trkpt>
      <trkpt lat="45.09445" lon="4.11024">
        <ele>1033</ele>
        <time>2019-12-22T14:44:33Z</time>
      </trkpt>
      <trkpt lat="45.09447" lon="4.11045">
        <ele>1031</ele>
        <time>2019-12-22T14:44:35Z</time>
      </trkpt>
      <trkpt lat="45.09445" lon="4.11067">
        <ele>1031</ele>
        <time>2019-12-22T14:44:38Z</time>
      </trkpt>
      <trkpt lat="45.09442" lon="4.11089">
        <ele>1030</ele>
        <time>2019-12-22T14:44:41Z</time>
      </trkpt>
      <trkpt lat="45.09425" lon="4.11141">
        <ele>1031</ele>
        <time>2019-12-22T14:44:48Z</time>
      </trkpt>
      <trkpt lat="45.09425" lon="4.11163">
        <ele>1030</ele>
        <time>2019-12-22T14:44:51Z</time>
      </trkpt>
      <trkpt lat="45.09429" lon="4.11181">
        <ele>1030</ele>
        <time>2019-12-22T14:44:53Z</time>
      </trkpt>
      <trkpt lat="45.09438" lon="4.11197">
        <ele>1030</ele>
        <time>2019-12-22T14:44:56Z</time>
      </trkpt>
      <trkpt lat="45.09446" lon="4.11206">
        <ele>1031</ele>
        <time>2019-12-22T14:44:58Z</time>
      </trkpt>
      <trkpt lat="45.09459" lon="4.11212">
        <ele>1031</ele>
        <time>2019-12-22T14:45:00Z</time>
      </trkpt>
      <trkpt lat="45.09473" lon="4.11212">
        <ele>1031</ele>
        <time>2019-12-22T14:45:02Z</time>
      </trkpt>
      <trkpt lat="45.09486" lon="4.11207">
        <ele>1030</ele>
        <time>2019-12-22T14:45:05Z</time>
      </trkpt>
      <trkpt lat="45.09512" lon="4.1119">
        <ele>1028</ele>
        <time>2019-12-22T14:45:10Z</time>
      </trkpt>
      <trkpt lat="45.09529" lon="4.11181">
        <ele>1027</ele>
        <time>2019-12-22T14:45:13Z</time>
      </trkpt>
      <trkpt lat="45.09553" lon="4.11173">
        <ele>1027</ele>
        <time>2019-12-22T14:45:18Z</time>
      </trkpt>
      <trkpt lat="45.09641" lon="4.11159">
        <ele>1029</ele>
        <time>2019-12-22T14:45:33Z</time>
      </trkpt>
      <trkpt lat="45.09656" lon="4.11155">
        <ele>1029</ele>
        <time>2019-12-22T14:45:36Z</time>
      </trkpt>
      <trkpt lat="45.09694" lon="4.11155">
        <ele>1031</ele>
        <time>2019-12-22T14:45:43Z</time>
      </trkpt>
      <trkpt lat="45.09734" lon="4.1114">
        <ele>1031</ele>
        <time>2019-12-22T14:45:50Z</time>
      </trkpt>
      <trkpt lat="45.09752" lon="4.11136">
        <ele>1032</ele>
        <time>2019-12-22T14:45:53Z</time>
      </trkpt>
      <trkpt lat="45.09783" lon="4.11135">
        <ele>1031</ele>
        <time>2019-12-22T14:45:59Z</time>
      </trkpt>
      <trkpt lat="45.09807" lon="4.11142">
        <ele>1030</ele>
        <time>2019-12-22T14:46:03Z</time>
      </trkpt>
      <trkpt lat="45.09817" lon="4.11149">
        <ele>1030</ele>
        <time>2019-12-22T14:46:05Z</time>
      </trkpt>
      <trkpt lat="45.09894" lon="4.11217">
        <ele>1029</ele>
        <time>2019-12-22T14:46:21Z</time>
      </trkpt>
      <trkpt lat="45.09914" lon="4.11232">
        <ele>1029</ele>
        <time>2019-12-22T14:46:25Z</time>
      </trkpt>
      <trkpt lat="45.09924" lon="4.11237">
        <ele>1029</ele>
        <time>2019-12-22T14:46:27Z</time>
      </trkpt>
      <trkpt lat="45.09945" lon="4.1124">
        <ele>1027</ele>
        <time>2019-12-22T14:46:31Z</time>
      </trkpt>
      <trkpt lat="45.09991" lon="4.11235">
        <ele>1024</ele>
        <time>2019-12-22T14:46:39Z</time>
      </trkpt>
      <trkpt lat="45.10006" lon="4.11236">
        <ele>1023</ele>
        <time>2019-12-22T14:46:42Z</time>
      </trkpt>
      <trkpt lat="45.10026" lon="4.1124">
        <ele>1021</ele>
        <time>2019-12-22T14:46:46Z</time>
      </trkpt>
      <trkpt lat="45.10069" lon="4.11254">
        <ele>1018</ele>
        <time>2019-12-22T14:46:53Z</time>
      </trkpt>
      <trkpt lat="45.10102" lon="4.11259">
        <ele>1017</ele>
        <time>2019-12-22T14:46:59Z</time>
      </trkpt>
      <trkpt lat="45.10125" lon="4.11258">
        <ele>1016</ele>
        <time>2019-12-22T14:47:03Z</time>
      </trkpt>
      <trkpt lat="45.10183" lon="4.11251">
        <ele>1013</ele>
        <time>2019-12-22T14:47:14Z</time>
      </trkpt>
      <trkpt lat="45.10213" lon="4.11245">
        <ele>1012</ele>
        <time>2019-12-22T14:47:19Z</time>
      </trkpt>
      <trkpt lat="45.10239" lon="4.11234">
        <ele>1011</ele>
        <time>2019-12-22T14:47:24Z</time>
      </trkpt>
      <trkpt lat="45.10227" lon="4.1124">
        <ele>1012</ele>
        <time>2019-12-22T14:47:26Z</time>
      </trkpt>
      <trkpt lat="45.10222" lon="4.1128">
        <ele>1013</ele>
        <time>2019-12-22T14:47:31Z</time>
      </trkpt>
      <trkpt lat="45.10194" lon="4.11329">
        <ele>1016</ele>
        <time>2019-12-22T14:47:39Z</time>
      </trkpt>
      <trkpt lat="45.10173" lon="4.11349">
        <ele>1017</ele>
        <time>2019-12-22T14:47:44Z</time>
      </trkpt>
      <trkpt lat="45.10151" lon="4.11374">
        <ele>1019</ele>
        <time>2019-12-22T14:47:49Z</time>
      </trkpt>
      <trkpt lat="45.10146" lon="4.11418">
        <ele>1021</ele>
        <time>2019-12-22T14:47:54Z</time>
      </trkpt>
      <trkpt lat="45.10139" lon="4.11521">
        <ele>1023</ele>
        <time>2019-12-22T14:48:07Z</time>
      </trkpt>
      <trkpt lat="45.10134" lon="4.11572">
        <ele>1025</ele>
        <time>2019-12-22T14:48:14Z</time>
      </trkpt>
      <trkpt lat="45.10142" lon="4.11647">
        <ele>1028</ele>
        <time>2019-12-22T14:48:23Z</time>
      </trkpt>
      <trkpt lat="45.10148" lon="4.11729">
        <ele>1032</ele>
        <time>2019-12-22T14:48:34Z</time>
      </trkpt>
      <trkpt lat="45.10161" lon="4.11807">
        <ele>1035</ele>
        <time>2019-12-22T14:48:44Z</time>
      </trkpt>
      <trkpt lat="45.10155" lon="4.11881">
        <ele>1039</ele>
        <time>2019-12-22T14:48:53Z</time>
      </trkpt>
      <trkpt lat="45.10148" lon="4.11918">
        <ele>1041</ele>
        <time>2019-12-22T14:48:58Z</time>
      </trkpt>
      <trkpt lat="45.10095" lon="4.12001">
        <ele>1048</ele>
        <time>2019-12-22T14:49:12Z</time>
      </trkpt>
      <trkpt lat="45.10086" lon="4.12022">
        <ele>1049</ele>
        <time>2019-12-22T14:49:15Z</time>
      </trkpt>
      <trkpt lat="45.10064" lon="4.12119">
        <ele>1058</ele>
        <time>2019-12-22T14:49:28Z</time>
      </trkpt>
      <trkpt lat="45.10053" lon="4.12158">
        <ele>1063</ele>
        <time>2019-12-22T14:49:33Z</time>
      </trkpt>
      <trkpt lat="45.10055" lon="4.12208">
        <ele>1068</ele>
        <time>2019-12-22T14:49:39Z</time>
      </trkpt>
      <trkpt lat="45.10045" lon="4.12299">
        <ele>1080</ele>
        <time>2019-12-22T14:49:51Z</time>
      </trkpt>
      <trkpt lat="45.10045" lon="4.12345">
        <ele>1085</ele>
        <time>2019-12-22T14:49:57Z</time>
      </trkpt>
      <trkpt lat="45.10054" lon="4.12394">
        <ele>1089</ele>
        <time>2019-12-22T14:50:03Z</time>
      </trkpt>
      <trkpt lat="45.10052" lon="4.12421">
        <ele>1093</ele>
        <time>2019-12-22T14:50:07Z</time>
      </trkpt>
      <trkpt lat="45.10033" lon="4.12454">
        <ele>1099</ele>
        <time>2019-12-22T14:50:12Z</time>
      </trkpt>
      <trkpt lat="45.09966" lon="4.12494">
        <ele>1112</ele>
        <time>2019-12-22T14:50:25Z</time>
      </trkpt>
      <trkpt lat="45.09948" lon="4.12525">
        <ele>1116</ele>
        <time>2019-12-22T14:50:30Z</time>
      </trkpt>
      <trkpt lat="45.09939" lon="4.12549">
        <ele>1118</ele>
        <time>2019-12-22T14:50:33Z</time>
      </trkpt>
      <trkpt lat="45.09957" lon="4.12592">
        <ele>1118</ele>
        <time>2019-12-22T14:50:40Z</time>
      </trkpt>
      <trkpt lat="45.09977" lon="4.12624">
        <ele>1119</ele>
        <time>2019-12-22T14:50:45Z</time>
      </trkpt>
      <trkpt lat="45.1" lon="4.12676">
        <ele>1122</ele>
        <time>2019-12-22T14:50:53Z</time>
      </trkpt>
      <trkpt lat="45.10024" lon="4.12753">
        <ele>1128</ele>
        <time>2019-12-22T14:51:03Z</time>
      </trkpt>
      <trkpt lat="45.10069" lon="4.12911">
        <ele>1126</ele>
        <time>2019-12-22T14:51:25Z</time>
      </trkpt>
      <trkpt lat="45.10073" lon="4.12942">
        <ele>1124</ele>
        <time>2019-12-22T14:51:29Z</time>
      </trkpt>
      <trkpt lat="45.10064" lon="4.1302">
        <ele>1119</ele>
        <time>2019-12-22T14:51:39Z</time>
      </trkpt>
      <trkpt lat="45.10048" lon="4.13116">
        <ele>1117</ele>
        <time>2019-12-22T14:51:51Z</time>
      </trkpt>
      <trkpt lat="45.10025" lon="4.1317">
        <ele>1117</ele>
        <time>2019-12-22T14:51:59Z</time>
      </trkpt>
      <trkpt lat="45.1002" lon="4.13197">
        <ele>1116</ele>
        <time>2019-12-22T14:52:02Z</time>
      </trkpt>
      <trkpt lat="45.09955" lon="4.13342">
        <ele>1112</ele>
        <time>2019-12-22T14:52:24Z</time>
      </trkpt>
      <trkpt lat="45.09923" lon="4.13401">
        <ele>1111</ele>
        <time>2019-12-22T14:52:33Z</time>
      </trkpt>
      <trkpt lat="45.0988" lon="4.13433">
        <ele>1110</ele>
        <time>2019-12-22T14:52:42Z</time>
      </trkpt>
      <trkpt lat="45.09867" lon="4.13446">
        <ele>1109</ele>
        <time>2019-12-22T14:52:45Z</time>
      </trkpt>
      <trkpt lat="45.0986" lon="4.13459">
        <ele>1109</ele>
        <time>2019-12-22T14:52:47Z</time>
      </trkpt>
      <trkpt lat="45.0986" lon="4.13471">
        <ele>1108</ele>
        <time>2019-12-22T14:52:48Z</time>
      </trkpt>
      <trkpt lat="45.09868" lon="4.13506">
        <ele>1107</ele>
        <time>2019-12-22T14:52:53Z</time>
      </trkpt>
      <trkpt lat="45.09867" lon="4.13559">
        <ele>1106</ele>
        <time>2019-12-22T14:53:00Z</time>
      </trkpt>
      <trkpt lat="45.09865" lon="4.13587">
        <ele>1105</ele>
        <time>2019-12-22T14:53:03Z</time>
      </trkpt>
      <trkpt lat="45.09861" lon="4.13614">
        <ele>1106</ele>
        <time>2019-12-22T14:53:07Z</time>
      </trkpt>
      <trkpt lat="45.09853" lon="4.13642">
        <ele>1106</ele>
        <time>2019-12-22T14:53:10Z</time>
      </trkpt>
      <trkpt lat="45.09866" lon="4.13659">
        <ele>1107</ele>
        <time>2019-12-22T14:53:14Z</time>
      </trkpt>
      <trkpt lat="45.09927" lon="4.13667">
        <ele>1108</ele>
        <time>2019-12-22T14:53:24Z</time>
      </trkpt>
      <trkpt lat="45.09964" lon="4.13685">
        <ele>1107</ele>
        <time>2019-12-22T14:53:31Z</time>
      </trkpt>
      <trkpt lat="45.1004" lon="4.13696">
        <ele>1105</ele>
        <time>2019-12-22T14:53:45Z</time>
      </trkpt>
      <trkpt lat="45.10114" lon="4.13748">
        <ele>1102</ele>
        <time>2019-12-22T14:54:00Z</time>
      </trkpt>
      <trkpt lat="45.1018" lon="4.13867">
        <ele>1099</ele>
        <time>2019-12-22T14:54:19Z</time>
      </trkpt>
      <trkpt lat="45.10189" lon="4.13881">
        <ele>1099</ele>
        <time>2019-12-22T14:54:21Z</time>
      </trkpt>
      <trkpt lat="45.10226" lon="4.13913">
        <ele>1100</ele>
        <time>2019-12-22T14:54:29Z</time>
      </trkpt>
      <trkpt lat="45.10258" lon="4.13972">
        <ele>1097</ele>
        <time>2019-12-22T14:54:38Z</time>
      </trkpt>
      <trkpt lat="45.10357" lon="4.14071">
        <ele>1088</ele>
        <time>2019-12-22T14:55:00Z</time>
      </trkpt>
      <trkpt lat="45.10445" lon="4.14148">
        <ele>1087</ele>
        <time>2019-12-22T14:55:18Z</time>
      </trkpt>
      <trkpt lat="45.10514" lon="4.14193">
        <ele>1085</ele>
        <time>2019-12-22T14:55:32Z</time>
      </trkpt>
      <trkpt lat="45.10585" lon="4.14266">
        <ele>1077</ele>
        <time>2019-12-22T14:55:47Z</time>
      </trkpt>
      <trkpt lat="45.10603" lon="4.14271">
        <ele>1076</ele>
        <time>2019-12-22T14:55:50Z</time>
      </trkpt>
      <trkpt lat="45.10596" lon="4.14269">
        <ele>1076</ele>
        <time>2019-12-22T14:55:52Z</time>
      </trkpt>
      <trkpt lat="45.10675" lon="4.14373">
        <ele>1078</ele>
        <time>2019-12-22T14:56:11Z</time>
      </trkpt>
      <trkpt lat="45.10712" lon="4.14401">
        <ele>1077</ele>
        <time>2019-12-22T14:56:18Z</time>
      </trkpt>
      <trkpt lat="45.10736" lon="4.14446">
        <ele>1078</ele>
        <time>2019-12-22T14:56:25Z</time>
      </trkpt>
      <trkpt lat="45.10755" lon="4.14505">
        <ele>1082</ele>
        <time>2019-12-22T14:56:34Z</time>
      </trkpt>
      <trkpt lat="45.1077" lon="4.14571">
        <ele>1086</ele>
        <time>2019-12-22T14:56:42Z</time>
      </trkpt>
      <trkpt lat="45.10773" lon="4.14643">
        <ele>1089</ele>
        <time>2019-12-22T14:56:51Z</time>
      </trkpt>
      <trkpt lat="45.10791" lon="4.1466">
        <ele>1088</ele>
        <time>2019-12-22T14:56:55Z</time>
      </trkpt>
      <trkpt lat="45.10828" lon="4.14684">
        <ele>1085</ele>
        <time>2019-12-22T14:57:02Z</time>
      </trkpt>
      <trkpt lat="45.1085" lon="4.14734">
        <ele>1085</ele>
        <time>2019-12-22T14:57:10Z</time>
      </trkpt>
      <trkpt lat="45.10899" lon="4.14783">
        <ele>1080</ele>
        <time>2019-12-22T14:57:21Z</time>
      </trkpt>
      <trkpt lat="45.10943" lon="4.14831">
        <ele>1077</ele>
        <time>2019-12-22T14:57:30Z</time>
      </trkpt>
      <trkpt lat="45.10981" lon="4.14863">
        <ele>1072</ele>
        <time>2019-12-22T14:57:38Z</time>
      </trkpt>
      <trkpt lat="45.10971" lon="4.14884">
        <ele>1073</ele>
        <time>2019-12-22T14:57:41Z</time>
      </trkpt>
      <trkpt lat="45.10968" lon="4.14887">
        <ele>1073</ele>
        <time>2019-12-22T14:57:42Z</time>
      </trkpt>
      <trkpt lat="45.10971" lon="4.14884">
        <ele>1073</ele>
        <time>2019-12-22T14:57:43Z</time>
      </trkpt>
      <trkpt lat="45.10981" lon="4.14863">
        <ele>1072</ele>
        <time>2019-12-22T14:57:46Z</time>
      </trkpt>
      <trkpt lat="45.10989" lon="4.14869">
        <ele>1071</ele>
        <time>2019-12-22T14:57:48Z</time>
      </trkpt>
      <trkpt lat="45.10983" lon="4.14881">
        <ele>1072</ele>
        <time>2019-12-22T14:57:49Z</time>
      </trkpt>
      <trkpt lat="45.10963" lon="4.14907">
        <ele>1073</ele>
        <time>2019-12-22T14:57:54Z</time>
      </trkpt>
      <trkpt lat="45.10909" lon="4.15017">
        <ele>1075</ele>
        <time>2019-12-22T14:58:11Z</time>
      </trkpt>
      <trkpt lat="45.109" lon="4.1505">
        <ele>1075</ele>
        <time>2019-12-22T14:58:16Z</time>
      </trkpt>
      <trkpt lat="45.10889" lon="4.15114">
        <ele>1072</ele>
        <time>2019-12-22T14:58:24Z</time>
      </trkpt>
      <trkpt lat="45.10866" lon="4.15169">
        <ele>1069</ele>
        <time>2019-12-22T14:58:32Z</time>
      </trkpt>
      <trkpt lat="45.10866" lon="4.15199">
        <ele>1066</ele>
        <time>2019-12-22T14:58:36Z</time>
      </trkpt>
      <trkpt lat="45.10876" lon="4.15231">
        <ele>1062</ele>
        <time>2019-12-22T14:58:40Z</time>
      </trkpt>
      <trkpt lat="45.10834" lon="4.15362">
        <ele>1050</ele>
        <time>2019-12-22T14:58:58Z</time>
      </trkpt>
      <trkpt lat="45.10839" lon="4.15383">
        <ele>1046</ele>
        <time>2019-12-22T14:59:01Z</time>
      </trkpt>
      <trkpt lat="45.10851" lon="4.15397">
        <ele>1044</ele>
        <time>2019-12-22T14:59:04Z</time>
      </trkpt>
      <trkpt lat="45.10916" lon="4.15412">
        <ele>1042</ele>
        <time>2019-12-22T14:59:15Z</time>
      </trkpt>
      <trkpt lat="45.10952" lon="4.15454">
        <ele>1038</ele>
        <time>2019-12-22T14:59:24Z</time>
      </trkpt>
      <trkpt lat="45.10952" lon="4.15553">
        <ele>1030</ele>
        <time>2019-12-22T14:59:36Z</time>
      </trkpt>
      <trkpt lat="45.10947" lon="4.15581">
        <ele>1027</ele>
        <time>2019-12-22T14:59:40Z</time>
      </trkpt>
      <trkpt lat="45.10948" lon="4.15644">
        <ele>1024</ele>
        <time>2019-12-22T14:59:48Z</time>
      </trkpt>
      <trkpt lat="45.10966" lon="4.15714">
        <ele>1022</ele>
        <time>2019-12-22T14:59:57Z</time>
      </trkpt>
      <trkpt lat="45.10986" lon="4.15755">
        <ele>1022</ele>
        <time>2019-12-22T15:00:03Z</time>
      </trkpt>
      <trkpt lat="45.11012" lon="4.15843">
        <ele>1018</ele>
        <time>2019-12-22T15:00:15Z</time>
      </trkpt>
      <trkpt lat="45.11" lon="4.15843">
        <ele>1018</ele>
        <time>2019-12-22T15:00:17Z</time>
      </trkpt>
      <trkpt lat="45.11012" lon="4.15843">
        <ele>1018</ele>
        <time>2019-12-22T15:00:19Z</time>
      </trkpt>
      <trkpt lat="45.11068" lon="4.15831">
        <ele>1021</ele>
        <time>2019-12-22T15:00:30Z</time>
      </trkpt>
      <trkpt lat="45.11731" lon="4.15545">
        <ele>1003</ele>
        <time>2019-12-22T15:02:33Z</time>
      </trkpt>
      <trkpt lat="45.11732" lon="4.15555">
        <ele>1003</ele>
        <time>2019-12-22T15:02:34Z</time>
      </trkpt>
      <trkpt lat="45.11773" lon="4.1561">
        <ele>1003</ele>
        <time>2019-12-22T15:02:44Z</time>
      </trkpt>
      <trkpt lat="45.11785" lon="4.15621">
        <ele>1003</ele>
        <time>2019-12-22T15:02:47Z</time>
      </trkpt>
      <trkpt lat="45.11804" lon="4.15629">
        <ele>1004</ele>
        <time>2019-12-22T15:02:50Z</time>
      </trkpt>
      <trkpt lat="45.11814" lon="4.15628">
        <ele>1003</ele>
        <time>2019-12-22T15:02:52Z</time>
      </trkpt>
      <trkpt lat="45.11824" lon="4.15631">
        <ele>1004</ele>
        <time>2019-12-22T15:02:54Z</time>
      </trkpt>
      <trkpt lat="45.11841" lon="4.15643">
        <ele>1004</ele>
        <time>2019-12-22T15:02:57Z</time>
      </trkpt>
      <trkpt lat="45.11851" lon="4.15647">
        <ele>1005</ele>
        <time>2019-12-22T15:02:59Z</time>
      </trkpt>
      <trkpt lat="45.11872" lon="4.15646">
        <ele>1004</ele>
        <time>2019-12-22T15:03:03Z</time>
      </trkpt>
      <trkpt lat="45.11929" lon="4.15651">
        <ele>1005</ele>
        <time>2019-12-22T15:03:13Z</time>
      </trkpt>
      <trkpt lat="45.11972" lon="4.1565">
        <ele>1004</ele>
        <time>2019-12-22T15:03:21Z</time>
      </trkpt>
      <trkpt lat="45.11987" lon="4.15652">
        <ele>1004</ele>
        <time>2019-12-22T15:03:23Z</time>
      </trkpt>
      <trkpt lat="45.12006" lon="4.15658">
        <ele>1004</ele>
        <time>2019-12-22T15:03:27Z</time>
      </trkpt>
      <trkpt lat="45.12026" lon="4.1567">
        <ele>1004</ele>
        <time>2019-12-22T15:03:31Z</time>
      </trkpt>
      <trkpt lat="45.12054" lon="4.15705">
        <ele>1005</ele>
        <time>2019-12-22T15:03:37Z</time>
      </trkpt>
      <trkpt lat="45.12118" lon="4.15762">
        <ele>1004</ele>
        <time>2019-12-22T15:03:51Z</time>
      </trkpt>
      <trkpt lat="45.12132" lon="4.15771">
        <ele>1002</ele>
        <time>2019-12-22T15:03:53Z</time>
      </trkpt>
      <trkpt lat="45.1215" lon="4.15773">
        <ele>1000</ele>
        <time>2019-12-22T15:03:57Z</time>
      </trkpt>
      <trkpt lat="45.1221" lon="4.15854">
        <ele>997</ele>
        <time>2019-12-22T15:04:11Z</time>
      </trkpt>
      <trkpt lat="45.12221" lon="4.15874">
        <ele>996</ele>
        <time>2019-12-22T15:04:15Z</time>
      </trkpt>
      <trkpt lat="45.12236" lon="4.15893">
        <ele>995</ele>
        <time>2019-12-22T15:04:18Z</time>
      </trkpt>
      <trkpt lat="45.12244" lon="4.15907">
        <ele>994</ele>
        <time>2019-12-22T15:04:20Z</time>
      </trkpt>
      <trkpt lat="45.12269" lon="4.15853">
        <ele>990</ele>
        <time>2019-12-22T15:04:29Z</time>
      </trkpt>
      <trkpt lat="45.12278" lon="4.15827">
        <ele>989</ele>
        <time>2019-12-22T15:04:32Z</time>
      </trkpt>
      <trkpt lat="45.12285" lon="4.15788">
        <ele>986</ele>
        <time>2019-12-22T15:04:37Z</time>
      </trkpt>
      <trkpt lat="45.12294" lon="4.15752">
        <ele>983</ele>
        <time>2019-12-22T15:04:42Z</time>
      </trkpt>
      <trkpt lat="45.12329" lon="4.15681">
        <ele>974</ele>
        <time>2019-12-22T15:04:53Z</time>
      </trkpt>
      <trkpt lat="45.12341" lon="4.15667">
        <ele>971</ele>
        <time>2019-12-22T15:04:56Z</time>
      </trkpt>
      <trkpt lat="45.12557" lon="4.15765">
        <ele>952</ele>
        <time>2019-12-22T15:05:36Z</time>
      </trkpt>
      <trkpt lat="45.1258" lon="4.15786">
        <ele>950</ele>
        <time>2019-12-22T15:05:41Z</time>
      </trkpt>
      <trkpt lat="45.12613" lon="4.15822">
        <ele>948</ele>
        <time>2019-12-22T15:05:48Z</time>
      </trkpt>
      <trkpt lat="45.12647" lon="4.15841">
        <ele>944</ele>
        <time>2019-12-22T15:05:55Z</time>
      </trkpt>
      <trkpt lat="45.12695" lon="4.15836">
        <ele>940</ele>
        <time>2019-12-22T15:06:03Z</time>
      </trkpt>
      <trkpt lat="45.12708" lon="4.15841">
        <ele>938</ele>
        <time>2019-12-22T15:06:06Z</time>
      </trkpt>
      <trkpt lat="45.12675" lon="4.1588">
        <ele>940</ele>
        <time>2019-12-22T15:06:13Z</time>
      </trkpt>
      <trkpt lat="45.12588" lon="4.15968">
        <ele>944</ele>
        <time>2019-12-22T15:06:32Z</time>
      </trkpt>
      <trkpt lat="45.12532" lon="4.16019">
        <ele>947</ele>
        <time>2019-12-22T15:06:44Z</time>
      </trkpt>
      <trkpt lat="45.12497" lon="4.16056">
        <ele>949</ele>
        <time>2019-12-22T15:06:52Z</time>
      </trkpt>
      <trkpt lat="45.12477" lon="4.16092">
        <ele>949</ele>
        <time>2019-12-22T15:06:58Z</time>
      </trkpt>
      <trkpt lat="45.12439" lon="4.16173">
        <ele>949</ele>
        <time>2019-12-22T15:07:10Z</time>
      </trkpt>
      <trkpt lat="45.1243" lon="4.16206">
        <ele>949</ele>
        <time>2019-12-22T15:07:14Z</time>
      </trkpt>
      <trkpt lat="45.12362" lon="4.1654">
        <ele>957</ele>
        <time>2019-12-22T15:07:58Z</time>
      </trkpt>
      <trkpt lat="45.12361" lon="4.1657">
        <ele>958</ele>
        <time>2019-12-22T15:08:02Z</time>
      </trkpt>
      <trkpt lat="45.12367" lon="4.16618">
        <ele>960</ele>
        <time>2019-12-22T15:08:08Z</time>
      </trkpt>
      <trkpt lat="45.12372" lon="4.16638">
        <ele>960</ele>
        <time>2019-12-22T15:08:11Z</time>
      </trkpt>
      <trkpt lat="45.1241" lon="4.16721">
        <ele>959</ele>
        <time>2019-12-22T15:08:23Z</time>
      </trkpt>
      <trkpt lat="45.12426" lon="4.16766">
        <ele>959</ele>
        <time>2019-12-22T15:08:29Z</time>
      </trkpt>
      <trkpt lat="45.12433" lon="4.16807">
        <ele>958</ele>
        <time>2019-12-22T15:08:35Z</time>
      </trkpt>
      <trkpt lat="45.12431" lon="4.16835">
        <ele>958</ele>
        <time>2019-12-22T15:08:38Z</time>
      </trkpt>
      <trkpt lat="45.12426" lon="4.16866">
        <ele>956</ele>
        <time>2019-12-22T15:08:42Z</time>
      </trkpt>
      <trkpt lat="45.12419" lon="4.16893">
        <ele>955</ele>
        <time>2019-12-22T15:08:46Z</time>
      </trkpt>
      <trkpt lat="45.12405" lon="4.16924">
        <ele>953</ele>
        <time>2019-12-22T15:08:50Z</time>
      </trkpt>
      <trkpt lat="45.12366" lon="4.16977">
        <ele>950</ele>
        <time>2019-12-22T15:09:00Z</time>
      </trkpt>
      <trkpt lat="45.12336" lon="4.17004">
        <ele>948</ele>
        <time>2019-12-22T15:09:06Z</time>
      </trkpt>
      <trkpt lat="45.12318" lon="4.17012">
        <ele>947</ele>
        <time>2019-12-22T15:09:10Z</time>
      </trkpt>
      <trkpt lat="45.12236" lon="4.17032">
        <ele>946</ele>
        <time>2019-12-22T15:09:25Z</time>
      </trkpt>
      <trkpt lat="45.12216" lon="4.17047">
        <ele>950</ele>
        <time>2019-12-22T15:09:29Z</time>
      </trkpt>
      <trkpt lat="45.122" lon="4.17066">
        <ele>953</ele>
        <time>2019-12-22T15:09:32Z</time>
      </trkpt>
      <trkpt lat="45.12189" lon="4.1709">
        <ele>955</ele>
        <time>2019-12-22T15:09:36Z</time>
      </trkpt>
      <trkpt lat="45.1218" lon="4.17117">
        <ele>955</ele>
        <time>2019-12-22T15:09:40Z</time>
      </trkpt>
      <trkpt lat="45.12171" lon="4.17166">
        <ele>954</ele>
        <time>2019-12-22T15:09:46Z</time>
      </trkpt>
      <trkpt lat="45.12168" lon="4.17195">
        <ele>950</ele>
        <time>2019-12-22T15:09:50Z</time>
      </trkpt>
      <trkpt lat="45.12167" lon="4.17249">
        <ele>942</ele>
        <time>2019-12-22T15:09:56Z</time>
      </trkpt>
      <trkpt lat="45.12161" lon="4.17285">
        <ele>940</ele>
        <time>2019-12-22T15:10:01Z</time>
      </trkpt>
      <trkpt lat="45.12132" lon="4.17403">
        <ele>934</ele>
        <time>2019-12-22T15:10:17Z</time>
      </trkpt>
      <trkpt lat="45.12116" lon="4.17476">
        <ele>930</ele>
        <time>2019-12-22T15:10:26Z</time>
      </trkpt>
      <trkpt lat="45.12107" lon="4.17501">
        <ele>930</ele>
        <time>2019-12-22T15:10:30Z</time>
      </trkpt>
      <trkpt lat="45.12081" lon="4.17548">
        <ele>930</ele>
        <time>2019-12-22T15:10:37Z</time>
      </trkpt>
      <trkpt lat="45.12016" lon="4.17604">
        <ele>928</ele>
        <time>2019-12-22T15:10:51Z</time>
      </trkpt>
      <trkpt lat="45.1198" lon="4.17631">
        <ele>925</ele>
        <time>2019-12-22T15:10:58Z</time>
      </trkpt>
      <trkpt lat="45.11918" lon="4.17671">
        <ele>922</ele>
        <time>2019-12-22T15:11:10Z</time>
      </trkpt>
      <trkpt lat="45.11838" lon="4.17747">
        <ele>911</ele>
        <time>2019-12-22T15:11:27Z</time>
      </trkpt>
      <trkpt lat="45.11812" lon="4.17759">
        <ele>909</ele>
        <time>2019-12-22T15:11:32Z</time>
      </trkpt>
      <trkpt lat="45.11793" lon="4.17763">
        <ele>908</ele>
        <time>2019-12-22T15:11:36Z</time>
      </trkpt>
      <trkpt lat="45.11754" lon="4.17754">
        <ele>910</ele>
        <time>2019-12-22T15:11:43Z</time>
      </trkpt>
      <trkpt lat="45.11743" lon="4.17756">
        <ele>912</ele>
        <time>2019-12-22T15:11:45Z</time>
      </trkpt>
      <trkpt lat="45.1173" lon="4.17765">
        <ele>915</ele>
        <time>2019-12-22T15:11:47Z</time>
      </trkpt>
      <trkpt lat="45.11718" lon="4.17779">
        <ele>917</ele>
        <time>2019-12-22T15:11:50Z</time>
      </trkpt>
      <trkpt lat="45.11713" lon="4.17794">
        <ele>917</ele>
        <time>2019-12-22T15:11:52Z</time>
      </trkpt>
      <trkpt lat="45.11711" lon="4.17815">
        <ele>914</ele>
        <time>2019-12-22T15:11:55Z</time>
      </trkpt>
      <trkpt lat="45.11706" lon="4.1798">
        <ele>899</ele>
        <time>2019-12-22T15:12:16Z</time>
      </trkpt>
      <trkpt lat="45.117" lon="4.18004">
        <ele>897</ele>
        <time>2019-12-22T15:12:19Z</time>
      </trkpt>
      <trkpt lat="45.11687" lon="4.18035">
        <ele>894</ele>
        <time>2019-12-22T15:12:23Z</time>
      </trkpt>
      <trkpt lat="45.11674" lon="4.18052">
        <ele>892</ele>
        <time>2019-12-22T15:12:26Z</time>
      </trkpt>
      <trkpt lat="45.11666" lon="4.1806">
        <ele>891</ele>
        <time>2019-12-22T15:12:28Z</time>
      </trkpt>
      <trkpt lat="45.11651" lon="4.1807">
        <ele>889</ele>
        <time>2019-12-22T15:12:31Z</time>
      </trkpt>
      <trkpt lat="45.11628" lon="4.18077">
        <ele>887</ele>
        <time>2019-12-22T15:12:35Z</time>
      </trkpt>
      <trkpt lat="45.11649" lon="4.18079">
        <ele>887</ele>
        <time>2019-12-22T15:12:39Z</time>
      </trkpt>
      <trkpt lat="45.1169" lon="4.18067">
        <ele>887</ele>
        <time>2019-12-22T15:12:46Z</time>
      </trkpt>
      <trkpt lat="45.11716" lon="4.18035">
        <ele>889</ele>
        <time>2019-12-22T15:12:53Z</time>
      </trkpt>
      <trkpt lat="45.11719" lon="4.18033">
        <ele>889</ele>
        <time>2019-12-22T15:12:53Z</time>
      </trkpt>
      <trkpt lat="45.11722" lon="4.18035">
        <ele>888</ele>
        <time>2019-12-22T15:12:54Z</time>
      </trkpt>
      <trkpt lat="45.11725" lon="4.18039">
        <ele>887</ele>
        <time>2019-12-22T15:12:54Z</time>
      </trkpt>
      <trkpt lat="45.11733" lon="4.18117">
        <ele>878</ele>
        <time>2019-12-22T15:13:04Z</time>
      </trkpt>
      <trkpt lat="45.1175" lon="4.18212">
        <ele>868</ele>
        <time>2019-12-22T15:13:17Z</time>
      </trkpt>
      <trkpt lat="45.11749" lon="4.18231">
        <ele>865</ele>
        <time>2019-12-22T15:13:19Z</time>
      </trkpt>
      <trkpt lat="45.11746" lon="4.18238">
        <ele>863</ele>
        <time>2019-12-22T15:13:20Z</time>
      </trkpt>
      <trkpt lat="45.11739" lon="4.1824">
        <ele>862</ele>
        <time>2019-12-22T15:13:21Z</time>
      </trkpt>
      <trkpt lat="45.11724" lon="4.18219">
        <ele>864</ele>
        <time>2019-12-22T15:13:25Z</time>
      </trkpt>
      <trkpt lat="45.11718" lon="4.18216">
        <ele>864</ele>
        <time>2019-12-22T15:13:26Z</time>
      </trkpt>
      <trkpt lat="45.1171" lon="4.18221">
        <ele>862</ele>
        <time>2019-12-22T15:13:28Z</time>
      </trkpt>
      <trkpt lat="45.11713" lon="4.18238">
        <ele>860</ele>
        <time>2019-12-22T15:13:30Z</time>
      </trkpt>
      <trkpt lat="45.11743" lon="4.18284">
        <ele>855</ele>
        <time>2019-12-22T15:13:38Z</time>
      </trkpt>
      <trkpt lat="45.11758" lon="4.18316">
        <ele>848</ele>
        <time>2019-12-22T15:13:43Z</time>
      </trkpt>
      <trkpt lat="45.11763" lon="4.1834">
        <ele>845</ele>
        <time>2019-12-22T15:13:46Z</time>
      </trkpt>
      <trkpt lat="45.11782" lon="4.18386">
        <ele>845</ele>
        <time>2019-12-22T15:13:53Z</time>
      </trkpt>
      <trkpt lat="45.11797" lon="4.18412">
        <ele>844</ele>
        <time>2019-12-22T15:13:57Z</time>
      </trkpt>
      <trkpt lat="45.1181" lon="4.18423">
        <ele>845</ele>
        <time>2019-12-22T15:13:59Z</time>
      </trkpt>
      <trkpt lat="45.11831" lon="4.18427">
        <ele>844</ele>
        <time>2019-12-22T15:14:03Z</time>
      </trkpt>
      <trkpt lat="45.11844" lon="4.18432">
        <ele>845</ele>
        <time>2019-12-22T15:14:06Z</time>
      </trkpt>
      <trkpt lat="45.1187" lon="4.18451">
        <ele>850</ele>
        <time>2019-12-22T15:14:11Z</time>
      </trkpt>
      <trkpt lat="45.11896" lon="4.18463">
        <ele>854</ele>
        <time>2019-12-22T15:14:16Z</time>
      </trkpt>
      <trkpt lat="45.11919" lon="4.18502">
        <ele>861</ele>
        <time>2019-12-22T15:14:22Z</time>
      </trkpt>
      <trkpt lat="45.11927" lon="4.18508">
        <ele>864</ele>
        <time>2019-12-22T15:14:24Z</time>
      </trkpt>
      <trkpt lat="45.11967" lon="4.18396">
        <ele>857</ele>
        <time>2019-12-22T15:14:39Z</time>
      </trkpt>
      <trkpt lat="45.11979" lon="4.18369">
        <ele>858</ele>
        <time>2019-12-22T15:14:43Z</time>
      </trkpt>
      <trkpt lat="45.11981" lon="4.18339">
        <ele>856</ele>
        <time>2019-12-22T15:14:47Z</time>
      </trkpt>
      <trkpt lat="45.11985" lon="4.18322">
        <ele>856</ele>
        <time>2019-12-22T15:14:49Z</time>
      </trkpt>
      <trkpt lat="45.11988" lon="4.18315">
        <ele>856</ele>
        <time>2019-12-22T15:14:51Z</time>
      </trkpt>
      <trkpt lat="45.11993" lon="4.18313">
        <ele>856</ele>
        <time>2019-12-22T15:14:51Z</time>
      </trkpt>
      <trkpt lat="45.12006" lon="4.1832">
        <ele>858</ele>
        <time>2019-12-22T15:14:54Z</time>
      </trkpt>
      <trkpt lat="45.12023" lon="4.18324">
        <ele>858</ele>
        <time>2019-12-22T15:14:57Z</time>
      </trkpt>
      <trkpt lat="45.12045" lon="4.18343">
        <ele>860</ele>
        <time>2019-12-22T15:15:02Z</time>
      </trkpt>
      <trkpt lat="45.12062" lon="4.18371">
        <ele>863</ele>
        <time>2019-12-22T15:15:06Z</time>
      </trkpt>
      <trkpt lat="45.12072" lon="4.184">
        <ele>868</ele>
        <time>2019-12-22T15:15:10Z</time>
      </trkpt>
      <trkpt lat="45.12092" lon="4.1843">
        <ele>875</ele>
        <time>2019-12-22T15:15:15Z</time>
      </trkpt>
      <trkpt lat="45.1211" lon="4.18448">
        <ele>880</ele>
        <time>2019-12-22T15:15:19Z</time>
      </trkpt>
      <trkpt lat="45.12155" lon="4.18469">
        <ele>889</ele>
        <time>2019-12-22T15:15:28Z</time>
      </trkpt>
      <trkpt lat="45.12224" lon="4.18515">
        <ele>909</ele>
        <time>2019-12-22T15:15:41Z</time>
      </trkpt>
      <trkpt lat="45.12266" lon="4.1854">
        <ele>917</ele>
        <time>2019-12-22T15:15:49Z</time>
      </trkpt>
      <trkpt lat="45.123" lon="4.18571">
        <ele>925</ele>
        <time>2019-12-22T15:15:57Z</time>
      </trkpt>
      <trkpt lat="45.1235" lon="4.18599">
        <ele>930</ele>
        <time>2019-12-22T15:16:06Z</time>
      </trkpt>
      <trkpt lat="45.12385" lon="4.18633">
        <ele>936</ele>
        <time>2019-12-22T15:16:14Z</time>
      </trkpt>
      <trkpt lat="45.12418" lon="4.18649">
        <ele>937</ele>
        <time>2019-12-22T15:16:20Z</time>
      </trkpt>
      <trkpt lat="45.12449" lon="4.18656">
        <ele>936</ele>
        <time>2019-12-22T15:16:26Z</time>
      </trkpt>
      <trkpt lat="45.12482" lon="4.18669">
        <ele>935</ele>
        <time>2019-12-22T15:16:32Z</time>
      </trkpt>
      <trkpt lat="45.12502" lon="4.1869">
        <ele>936</ele>
        <time>2019-12-22T15:16:36Z</time>
      </trkpt>
      <trkpt lat="45.12518" lon="4.1872">
        <ele>938</ele>
        <time>2019-12-22T15:16:41Z</time>
      </trkpt>
      <trkpt lat="45.12535" lon="4.18769">
        <ele>944</ele>
        <time>2019-12-22T15:16:48Z</time>
      </trkpt>
      <trkpt lat="45.12553" lon="4.18808">
        <ele>949</ele>
        <time>2019-12-22T15:16:54Z</time>
      </trkpt>
      <trkpt lat="45.12575" lon="4.18833">
        <ele>951</ele>
        <time>2019-12-22T15:16:59Z</time>
      </trkpt>
      <trkpt lat="45.12603" lon="4.18857">
        <ele>954</ele>
        <time>2019-12-22T15:17:04Z</time>
      </trkpt>
      <trkpt lat="45.12622" lon="4.18854">
        <ele>952</ele>
        <time>2019-12-22T15:17:08Z</time>
      </trkpt>
      <trkpt lat="45.1269" lon="4.18826">
        <ele>945</ele>
        <time>2019-12-22T15:17:20Z</time>
      </trkpt>
      <trkpt lat="45.12715" lon="4.18824">
        <ele>944</ele>
        <time>2019-12-22T15:17:25Z</time>
      </trkpt>
      <trkpt lat="45.12743" lon="4.18829">
        <ele>945</ele>
        <time>2019-12-22T15:17:30Z</time>
      </trkpt>
      <trkpt lat="45.12778" lon="4.18842">
        <ele>945</ele>
        <time>2019-12-22T15:17:36Z</time>
      </trkpt>
      <trkpt lat="45.12822" lon="4.18854">
        <ele>942</ele>
        <time>2019-12-22T15:17:44Z</time>
      </trkpt>
      <trkpt lat="45.12855" lon="4.18872">
        <ele>939</ele>
        <time>2019-12-22T15:17:51Z</time>
      </trkpt>
      <trkpt lat="45.12878" lon="4.18896">
        <ele>937</ele>
        <time>2019-12-22T15:17:56Z</time>
      </trkpt>
      <trkpt lat="45.12898" lon="4.18931">
        <ele>937</ele>
        <time>2019-12-22T15:18:01Z</time>
      </trkpt>
      <trkpt lat="45.12908" lon="4.18977">
        <ele>939</ele>
        <time>2019-12-22T15:18:07Z</time>
      </trkpt>
      <trkpt lat="45.12926" lon="4.19047">
        <ele>942</ele>
        <time>2019-12-22T15:18:17Z</time>
      </trkpt>
      <trkpt lat="45.12944" lon="4.19082">
        <ele>941</ele>
        <time>2019-12-22T15:18:22Z</time>
      </trkpt>
      <trkpt lat="45.12961" lon="4.19145">
        <ele>939</ele>
        <time>2019-12-22T15:18:31Z</time>
      </trkpt>
      <trkpt lat="45.12963" lon="4.19238">
        <ele>942</ele>
        <time>2019-12-22T15:18:42Z</time>
      </trkpt>
      <trkpt lat="45.1296" lon="4.19258">
        <ele>943</ele>
        <time>2019-12-22T15:18:45Z</time>
      </trkpt>
      <trkpt lat="45.12958" lon="4.19286">
        <ele>942</ele>
        <time>2019-12-22T15:18:48Z</time>
      </trkpt>
      <trkpt lat="45.12959" lon="4.19378">
        <ele>932</ele>
        <time>2019-12-22T15:19:00Z</time>
      </trkpt>
      <trkpt lat="45.12953" lon="4.19392">
        <ele>930</ele>
        <time>2019-12-22T15:19:02Z</time>
      </trkpt>
      <trkpt lat="45.12892" lon="4.19489">
        <ele>923</ele>
        <time>2019-12-22T15:19:18Z</time>
      </trkpt>
      <trkpt lat="45.12885" lon="4.19516">
        <ele>923</ele>
        <time>2019-12-22T15:19:22Z</time>
      </trkpt>
      <trkpt lat="45.12866" lon="4.19567">
        <ele>924</ele>
        <time>2019-12-22T15:19:29Z</time>
      </trkpt>
      <trkpt lat="45.12835" lon="4.19632">
        <ele>925</ele>
        <time>2019-12-22T15:19:39Z</time>
      </trkpt>
      <trkpt lat="45.12829" lon="4.1966">
        <ele>926</ele>
        <time>2019-12-22T15:19:43Z</time>
      </trkpt>
      <trkpt lat="45.12835" lon="4.19686">
        <ele>925</ele>
        <time>2019-12-22T15:19:46Z</time>
      </trkpt>
      <trkpt lat="45.12858" lon="4.19749">
        <ele>923</ele>
        <time>2019-12-22T15:19:55Z</time>
      </trkpt>
      <trkpt lat="45.12879" lon="4.19787">
        <ele>921</ele>
        <time>2019-12-22T15:20:01Z</time>
      </trkpt>
      <trkpt lat="45.12909" lon="4.19823">
        <ele>919</ele>
        <time>2019-12-22T15:20:08Z</time>
      </trkpt>
      <trkpt lat="45.12956" lon="4.19863">
        <ele>918</ele>
        <time>2019-12-22T15:20:18Z</time>
      </trkpt>
      <trkpt lat="45.13016" lon="4.19935">
        <ele>917</ele>
        <time>2019-12-22T15:20:32Z</time>
      </trkpt>
      <trkpt lat="45.1303" lon="4.19958">
        <ele>917</ele>
        <time>2019-12-22T15:20:36Z</time>
      </trkpt>
      <trkpt lat="45.13034" lon="4.19982">
        <ele>917</ele>
        <time>2019-12-22T15:20:39Z</time>
      </trkpt>
      <trkpt lat="45.13036" lon="4.20017">
        <ele>918</ele>
        <time>2019-12-22T15:20:43Z</time>
      </trkpt>
      <trkpt lat="45.13036" lon="4.20041">
        <ele>917</ele>
        <time>2019-12-22T15:20:46Z</time>
      </trkpt>
      <trkpt lat="45.13028" lon="4.2004">
        <ele>917</ele>
        <time>2019-12-22T15:20:48Z</time>
      </trkpt>
      <trkpt lat="45.13036" lon="4.20041">
        <ele>917</ele>
        <time>2019-12-22T15:20:49Z</time>
      </trkpt>
      <trkpt lat="45.13055" lon="4.20051">
        <ele>916</ele>
        <time>2019-12-22T15:20:53Z</time>
      </trkpt>
      <trkpt lat="45.13081" lon="4.20075">
        <ele>914</ele>
        <time>2019-12-22T15:20:58Z</time>
      </trkpt>
      <trkpt lat="45.1317" lon="4.20175">
        <ele>906</ele>
        <time>2019-12-22T15:21:18Z</time>
      </trkpt>
      <trkpt lat="45.1318" lon="4.20179">
        <ele>906</ele>
        <time>2019-12-22T15:21:20Z</time>
      </trkpt>
      <trkpt lat="45.13242" lon="4.20164">
        <ele>907</ele>
        <time>2019-12-22T15:21:31Z</time>
      </trkpt>
      <trkpt lat="45.13256" lon="4.20163">
        <ele>907</ele>
        <time>2019-12-22T15:21:34Z</time>
      </trkpt>
      <trkpt lat="45.13277" lon="4.20173">
        <ele>909</ele>
        <time>2019-12-22T15:21:38Z</time>
      </trkpt>
      <trkpt lat="45.13292" lon="4.20199">
        <ele>909</ele>
        <time>2019-12-22T15:21:42Z</time>
      </trkpt>
      <trkpt lat="45.13318" lon="4.20256">
        <ele>907</ele>
        <time>2019-12-22T15:21:51Z</time>
      </trkpt>
      <trkpt lat="45.13327" lon="4.2027">
        <ele>907</ele>
        <time>2019-12-22T15:21:53Z</time>
      </trkpt>
      <trkpt lat="45.13337" lon="4.2028">
        <ele>907</ele>
        <time>2019-12-22T15:21:55Z</time>
      </trkpt>
      <trkpt lat="45.13367" lon="4.20284">
        <ele>908</ele>
        <time>2019-12-22T15:22:00Z</time>
      </trkpt>
      <trkpt lat="45.13516" lon="4.20277">
        <ele>900</ele>
        <time>2019-12-22T15:22:27Z</time>
      </trkpt>
      <trkpt lat="45.13661" lon="4.20274">
        <ele>886</ele>
        <time>2019-12-22T15:22:53Z</time>
      </trkpt>
      <trkpt lat="45.13684" lon="4.20282">
        <ele>885</ele>
        <time>2019-12-22T15:22:57Z</time>
      </trkpt>
      <trkpt lat="45.13857" lon="4.20389">
        <ele>875</ele>
        <time>2019-12-22T15:23:31Z</time>
      </trkpt>
      <trkpt lat="45.13878" lon="4.20395">
        <ele>874</ele>
        <time>2019-12-22T15:23:34Z</time>
      </trkpt>
      <trkpt lat="45.13938" lon="4.20383">
        <ele>873</ele>
        <time>2019-12-22T15:23:45Z</time>
      </trkpt>
      <trkpt lat="45.14089" lon="4.204">
        <ele>867</ele>
        <time>2019-12-22T15:24:12Z</time>
      </trkpt>
      <trkpt lat="45.14147" lon="4.20412">
        <ele>866</ele>
        <time>2019-12-22T15:24:23Z</time>
      </trkpt>
      <trkpt lat="45.142" lon="4.2043">
        <ele>866</ele>
        <time>2019-12-22T15:24:32Z</time>
      </trkpt>
      <trkpt lat="45.14288" lon="4.20465">
        <ele>862</ele>
        <time>2019-12-22T15:24:48Z</time>
      </trkpt>
      <trkpt lat="45.14309" lon="4.2046">
        <ele>863</ele>
        <time>2019-12-22T15:24:52Z</time>
      </trkpt>
      <trkpt lat="45.14372" lon="4.20427">
        <ele>866</ele>
        <time>2019-12-22T15:25:04Z</time>
      </trkpt>
      <trkpt lat="45.14388" lon="4.20424">
        <ele>866</ele>
        <time>2019-12-22T15:25:07Z</time>
      </trkpt>
      <trkpt lat="45.14416" lon="4.20425">
        <ele>864</ele>
        <time>2019-12-22T15:25:12Z</time>
      </trkpt>
      <trkpt lat="45.14536" lon="4.20474">
        <ele>853</ele>
        <time>2019-12-22T15:25:34Z</time>
      </trkpt>
      <trkpt lat="45.14592" lon="4.2049">
        <ele>847</ele>
        <time>2019-12-22T15:25:44Z</time>
      </trkpt>
      <trkpt lat="45.1461" lon="4.20486">
        <ele>846</ele>
        <time>2019-12-22T15:25:48Z</time>
      </trkpt>
      <trkpt lat="45.14635" lon="4.20468">
        <ele>847</ele>
        <time>2019-12-22T15:25:53Z</time>
      </trkpt>
      <trkpt lat="45.14647" lon="4.20463">
        <ele>846</ele>
        <time>2019-12-22T15:25:55Z</time>
      </trkpt>
      <trkpt lat="45.1466" lon="4.20461">
        <ele>846</ele>
        <time>2019-12-22T15:25:57Z</time>
      </trkpt>
      <trkpt lat="45.14759" lon="4.20461">
        <ele>842</ele>
        <time>2019-12-22T15:26:15Z</time>
      </trkpt>
      <trkpt lat="45.14779" lon="4.2047">
        <ele>842</ele>
        <time>2019-12-22T15:26:19Z</time>
      </trkpt>
      <trkpt lat="45.14787" lon="4.20476">
        <ele>842</ele>
        <time>2019-12-22T15:26:20Z</time>
      </trkpt>
      <trkpt lat="45.14793" lon="4.20485">
        <ele>842</ele>
        <time>2019-12-22T15:26:22Z</time>
      </trkpt>
      <trkpt lat="45.14809" lon="4.20515">
        <ele>841</ele>
        <time>2019-12-22T15:26:26Z</time>
      </trkpt>
      <trkpt lat="45.1483" lon="4.20594">
        <ele>838</ele>
        <time>2019-12-22T15:26:37Z</time>
      </trkpt>
      <trkpt lat="45.14839" lon="4.2061">
        <ele>837</ele>
        <time>2019-12-22T15:26:40Z</time>
      </trkpt>
      <trkpt lat="45.14923" lon="4.20699">
        <ele>834</ele>
        <time>2019-12-22T15:26:58Z</time>
      </trkpt>
      <trkpt lat="45.14931" lon="4.20712">
        <ele>833</ele>
        <time>2019-12-22T15:27:00Z</time>
      </trkpt>
      <trkpt lat="45.14937" lon="4.20729">
        <ele>831</ele>
        <time>2019-12-22T15:27:03Z</time>
      </trkpt>
      <trkpt lat="45.14957" lon="4.20814">
        <ele>825</ele>
        <time>2019-12-22T15:27:14Z</time>
      </trkpt>
      <trkpt lat="45.14959" lon="4.2083">
        <ele>825</ele>
        <time>2019-12-22T15:27:16Z</time>
      </trkpt>
      <trkpt lat="45.14958" lon="4.20846">
        <ele>824</ele>
        <time>2019-12-22T15:27:18Z</time>
      </trkpt>
      <trkpt lat="45.14947" lon="4.20904">
        <ele>824</ele>
        <time>2019-12-22T15:27:26Z</time>
      </trkpt>
      <trkpt lat="45.14948" lon="4.20918">
        <ele>824</ele>
        <time>2019-12-22T15:27:27Z</time>
      </trkpt>
      <trkpt lat="45.14957" lon="4.20951">
        <ele>820</ele>
        <time>2019-12-22T15:27:32Z</time>
      </trkpt>
      <trkpt lat="45.14972" lon="4.20968">
        <ele>819</ele>
        <time>2019-12-22T15:27:35Z</time>
      </trkpt>
      <trkpt lat="45.15079" lon="4.21052">
        <ele>816</ele>
        <time>2019-12-22T15:27:57Z</time>
      </trkpt>
      <trkpt lat="45.15084" lon="4.21071">
        <ele>813</ele>
        <time>2019-12-22T15:28:00Z</time>
      </trkpt>
      <trkpt lat="45.15084" lon="4.21084">
        <ele>811</ele>
        <time>2019-12-22T15:28:01Z</time>
      </trkpt>
      <trkpt lat="45.15078" lon="4.21097">
        <ele>808</ele>
        <time>2019-12-22T15:28:03Z</time>
      </trkpt>
      <trkpt lat="45.15043" lon="4.21123">
        <ele>805</ele>
        <time>2019-12-22T15:28:10Z</time>
      </trkpt>
      <trkpt lat="45.15016" lon="4.21148">
        <ele>805</ele>
        <time>2019-12-22T15:28:16Z</time>
      </trkpt>
      <trkpt lat="45.14979" lon="4.21194">
        <ele>803</ele>
        <time>2019-12-22T15:28:25Z</time>
      </trkpt>
      <trkpt lat="45.14964" lon="4.2122">
        <ele>802</ele>
        <time>2019-12-22T15:28:29Z</time>
      </trkpt>
      <trkpt lat="45.14941" lon="4.21272">
        <ele>804</ele>
        <time>2019-12-22T15:28:37Z</time>
      </trkpt>
      <trkpt lat="45.14921" lon="4.21328">
        <ele>810</ele>
        <time>2019-12-22T15:28:45Z</time>
      </trkpt>
      <trkpt lat="45.14916" lon="4.21354">
        <ele>811</ele>
        <time>2019-12-22T15:28:48Z</time>
      </trkpt>
      <trkpt lat="45.14914" lon="4.21393">
        <ele>812</ele>
        <time>2019-12-22T15:28:53Z</time>
      </trkpt>
      <trkpt lat="45.14916" lon="4.21414">
        <ele>812</ele>
        <time>2019-12-22T15:28:55Z</time>
      </trkpt>
      <trkpt lat="45.1492" lon="4.21431">
        <ele>811</ele>
        <time>2019-12-22T15:28:58Z</time>
      </trkpt>
      <trkpt lat="45.14989" lon="4.21619">
        <ele>815</ele>
        <time>2019-12-22T15:29:24Z</time>
      </trkpt>
      <trkpt lat="45.14999" lon="4.21633">
        <ele>816</ele>
        <time>2019-12-22T15:29:27Z</time>
      </trkpt>
      <trkpt lat="45.15014" lon="4.21637">
        <ele>817</ele>
        <time>2019-12-22T15:29:30Z</time>
      </trkpt>
      <trkpt lat="45.15055" lon="4.21629">
        <ele>816</ele>
        <time>2019-12-22T15:29:37Z</time>
      </trkpt>
      <trkpt lat="45.15068" lon="4.21629">
        <ele>816</ele>
        <time>2019-12-22T15:29:39Z</time>
      </trkpt>
      <trkpt lat="45.15087" lon="4.21636">
        <ele>816</ele>
        <time>2019-12-22T15:29:43Z</time>
      </trkpt>
      <trkpt lat="45.15182" lon="4.21706">
        <ele>813</ele>
        <time>2019-12-22T15:30:02Z</time>
      </trkpt>
      <trkpt lat="45.15238" lon="4.21762">
        <ele>822</ele>
        <time>2019-12-22T15:30:14Z</time>
      </trkpt>
      <trkpt lat="45.15332" lon="4.21839">
        <ele>835</ele>
        <time>2019-12-22T15:30:33Z</time>
      </trkpt>
      <trkpt lat="45.15357" lon="4.21866">
        <ele>838</ele>
        <time>2019-12-22T15:30:39Z</time>
      </trkpt>
      <trkpt lat="45.15372" lon="4.21889">
        <ele>840</ele>
        <time>2019-12-22T15:30:43Z</time>
      </trkpt>
      <trkpt lat="45.15431" lon="4.21997">
        <ele>849</ele>
        <time>2019-12-22T15:31:00Z</time>
      </trkpt>
      <trkpt lat="45.15509" lon="4.22117">
        <ele>855</ele>
        <time>2019-12-22T15:31:20Z</time>
      </trkpt>
      <trkpt lat="45.15524" lon="4.22136">
        <ele>857</ele>
        <time>2019-12-22T15:31:24Z</time>
      </trkpt>
      <trkpt lat="45.15578" lon="4.22193">
        <ele>860</ele>
        <time>2019-12-22T15:31:36Z</time>
      </trkpt>
      <trkpt lat="45.15602" lon="4.22215">
        <ele>860</ele>
        <time>2019-12-22T15:31:41Z</time>
      </trkpt>
      <trkpt lat="45.15614" lon="4.22231">
        <ele>860</ele>
        <time>2019-12-22T15:31:44Z</time>
      </trkpt>
      <trkpt lat="45.15623" lon="4.22246">
        <ele>860</ele>
        <time>2019-12-22T15:31:46Z</time>
      </trkpt>
      <trkpt lat="45.15671" lon="4.22343">
        <ele>857</ele>
        <time>2019-12-22T15:32:01Z</time>
      </trkpt>
      <trkpt lat="45.15683" lon="4.22357">
        <ele>856</ele>
        <time>2019-12-22T15:32:04Z</time>
      </trkpt>
      <trkpt lat="45.15746" lon="4.22415">
        <ele>857</ele>
        <time>2019-12-22T15:32:17Z</time>
      </trkpt>
      <trkpt lat="45.1577" lon="4.22431">
        <ele>856</ele>
        <time>2019-12-22T15:32:22Z</time>
      </trkpt>
      <trkpt lat="45.15783" lon="4.2245">
        <ele>856</ele>
        <time>2019-12-22T15:32:25Z</time>
      </trkpt>
      <trkpt lat="45.15819" lon="4.22543">
        <ele>859</ele>
        <time>2019-12-22T15:32:39Z</time>
      </trkpt>
      <trkpt lat="45.15834" lon="4.22575">
        <ele>860</ele>
        <time>2019-12-22T15:32:44Z</time>
      </trkpt>
      <trkpt lat="45.1584" lon="4.22584">
        <ele>860</ele>
        <time>2019-12-22T15:32:45Z</time>
      </trkpt>
      <trkpt lat="45.15864" lon="4.22607">
        <ele>859</ele>
        <time>2019-12-22T15:32:50Z</time>
      </trkpt>
      <trkpt lat="45.15908" lon="4.22642">
        <ele>860</ele>
        <time>2019-12-22T15:32:59Z</time>
      </trkpt>
      <trkpt lat="45.15945" lon="4.22648">
        <ele>863</ele>
        <time>2019-12-22T15:33:06Z</time>
      </trkpt>
      <trkpt lat="45.15949" lon="4.22651">
        <ele>863</ele>
        <time>2019-12-22T15:33:07Z</time>
      </trkpt>
      <trkpt lat="45.15971" lon="4.22683">
        <ele>866</ele>
        <time>2019-12-22T15:33:12Z</time>
      </trkpt>
      <trkpt lat="45.15979" lon="4.22687">
        <ele>867</ele>
        <time>2019-12-22T15:33:14Z</time>
      </trkpt>
      <trkpt lat="45.16026" lon="4.22681">
        <ele>870</ele>
        <time>2019-12-22T15:33:22Z</time>
      </trkpt>
      <trkpt lat="45.16033" lon="4.22684">
        <ele>870</ele>
        <time>2019-12-22T15:33:24Z</time>
      </trkpt>
      <trkpt lat="45.16055" lon="4.22699">
        <ele>871</ele>
        <time>2019-12-22T15:33:28Z</time>
      </trkpt>
      <trkpt lat="45.1607" lon="4.22705">
        <ele>872</ele>
        <time>2019-12-22T15:33:31Z</time>
      </trkpt>
      <trkpt lat="45.16114" lon="4.22709">
        <ele>871</ele>
        <time>2019-12-22T15:33:38Z</time>
      </trkpt>
      <trkpt lat="45.16127" lon="4.22705">
        <ele>870</ele>
        <time>2019-12-22T15:33:41Z</time>
      </trkpt>
      <trkpt lat="45.16148" lon="4.22694">
        <ele>869</ele>
        <time>2019-12-22T15:33:45Z</time>
      </trkpt>
      <trkpt lat="45.16236" lon="4.22674">
        <ele>865</ele>
        <time>2019-12-22T15:34:01Z</time>
      </trkpt>
      <trkpt lat="45.16289" lon="4.22658">
        <ele>864</ele>
        <time>2019-12-22T15:34:10Z</time>
      </trkpt>
      <trkpt lat="45.16341" lon="4.22662">
        <ele>864</ele>
        <time>2019-12-22T15:34:20Z</time>
      </trkpt>
      <trkpt lat="45.16419" lon="4.22688">
        <ele>863</ele>
        <time>2019-12-22T15:34:34Z</time>
      </trkpt>
      <trkpt lat="45.16429" lon="4.22689">
        <ele>864</ele>
        <time>2019-12-22T15:34:36Z</time>
      </trkpt>
      <trkpt lat="45.1644" lon="4.22687">
        <ele>864</ele>
        <time>2019-12-22T15:34:38Z</time>
      </trkpt>
      <trkpt lat="45.16536" lon="4.22637">
        <ele>866</ele>
        <time>2019-12-22T15:34:56Z</time>
      </trkpt>
      <trkpt lat="45.16548" lon="4.22629">
        <ele>866</ele>
        <time>2019-12-22T15:34:58Z</time>
      </trkpt>
      <trkpt lat="45.16557" lon="4.22616">
        <ele>867</ele>
        <time>2019-12-22T15:35:00Z</time>
      </trkpt>
      <trkpt lat="45.1657" lon="4.22605">
        <ele>867</ele>
        <time>2019-12-22T15:35:03Z</time>
      </trkpt>
      <trkpt lat="45.16604" lon="4.22601">
        <ele>867</ele>
        <time>2019-12-22T15:35:09Z</time>
      </trkpt>
      <trkpt lat="45.16629" lon="4.22623">
        <ele>865</ele>
        <time>2019-12-22T15:35:14Z</time>
      </trkpt>
      <trkpt lat="45.16663" lon="4.22657">
        <ele>861</ele>
        <time>2019-12-22T15:35:22Z</time>
      </trkpt>
      <trkpt lat="45.16716" lon="4.22696">
        <ele>856</ele>
        <time>2019-12-22T15:35:32Z</time>
      </trkpt>
      <trkpt lat="45.16777" lon="4.22547">
        <ele>858</ele>
        <time>2019-12-22T15:35:54Z</time>
      </trkpt>
      <trkpt lat="45.16781" lon="4.22534">
        <ele>859</ele>
        <time>2019-12-22T15:35:56Z</time>
      </trkpt>
      <trkpt lat="45.16782" lon="4.22517">
        <ele>860</ele>
        <time>2019-12-22T15:35:58Z</time>
      </trkpt>
      <trkpt lat="45.16776" lon="4.22489">
        <ele>864</ele>
        <time>2019-12-22T15:36:02Z</time>
      </trkpt>
      <trkpt lat="45.16775" lon="4.22478">
        <ele>865</ele>
        <time>2019-12-22T15:36:03Z</time>
      </trkpt>
      <trkpt lat="45.16778" lon="4.22469">
        <ele>866</ele>
        <time>2019-12-22T15:36:04Z</time>
      </trkpt>
      <trkpt lat="45.16846" lon="4.22405">
        <ele>869</ele>
        <time>2019-12-22T15:36:19Z</time>
      </trkpt>
      <trkpt lat="45.16851" lon="4.22398">
        <ele>869</ele>
        <time>2019-12-22T15:36:20Z</time>
      </trkpt>
      <trkpt lat="45.16866" lon="4.22352">
        <ele>873</ele>
        <time>2019-12-22T15:36:26Z</time>
      </trkpt>
      <trkpt lat="45.16899" lon="4.22288">
        <ele>877</ele>
        <time>2019-12-22T15:36:36Z</time>
      </trkpt>
      <trkpt lat="45.16928" lon="4.22204">
        <ele>879</ele>
        <time>2019-12-22T15:36:48Z</time>
      </trkpt>
      <trkpt lat="45.16938" lon="4.22194">
        <ele>879</ele>
        <time>2019-12-22T15:36:50Z</time>
      </trkpt>
      <trkpt lat="45.1697" lon="4.22174">
        <ele>879</ele>
        <time>2019-12-22T15:36:57Z</time>
      </trkpt>
      <trkpt lat="45.17008" lon="4.22127">
        <ele>880</ele>
        <time>2019-12-22T15:37:06Z</time>
      </trkpt>
      <trkpt lat="45.17028" lon="4.2209">
        <ele>882</ele>
        <time>2019-12-22T15:37:11Z</time>
      </trkpt>
      <trkpt lat="45.17048" lon="4.22099">
        <ele>882</ele>
        <time>2019-12-22T15:37:15Z</time>
      </trkpt>
      <trkpt lat="45.17074" lon="4.22105">
        <ele>882</ele>
        <time>2019-12-22T15:37:20Z</time>
      </trkpt>
      <trkpt lat="45.17091" lon="4.22098">
        <ele>883</ele>
        <time>2019-12-22T15:37:23Z</time>
      </trkpt>
      <trkpt lat="45.17152" lon="4.22045">
        <ele>886</ele>
        <time>2019-12-22T15:37:36Z</time>
      </trkpt>
      <trkpt lat="45.17185" lon="4.22024">
        <ele>886</ele>
        <time>2019-12-22T15:37:42Z</time>
      </trkpt>
      <trkpt lat="45.17234" lon="4.22009">
        <ele>884</ele>
        <time>2019-12-22T15:37:51Z</time>
      </trkpt>
      <trkpt lat="45.17252" lon="4.22">
        <ele>884</ele>
        <time>2019-12-22T15:37:54Z</time>
      </trkpt>
      <trkpt lat="45.17281" lon="4.21975">
        <ele>885</ele>
        <time>2019-12-22T15:38:00Z</time>
      </trkpt>
      <trkpt lat="45.17304" lon="4.21946">
        <ele>886</ele>
        <time>2019-12-22T15:38:06Z</time>
      </trkpt>
      <trkpt lat="45.1735" lon="4.21903">
        <ele>885</ele>
        <time>2019-12-22T15:38:16Z</time>
      </trkpt>
      <trkpt lat="45.1745" lon="4.21862">
        <ele>872</ele>
        <time>2019-12-22T15:38:34Z</time>
      </trkpt>
      <trkpt lat="45.17493" lon="4.21857">
        <ele>867</ele>
        <time>2019-12-22T15:38:42Z</time>
      </trkpt>
      <trkpt lat="45.17581" lon="4.21834">
        <ele>861</ele>
        <time>2019-12-22T15:38:58Z</time>
      </trkpt>
      <trkpt lat="45.17639" lon="4.21806">
        <ele>860</ele>
        <time>2019-12-22T15:39:09Z</time>
      </trkpt>
      <trkpt lat="45.17686" lon="4.21803">
        <ele>859</ele>
        <time>2019-12-22T15:39:17Z</time>
      </trkpt>
      <trkpt lat="45.17754" lon="4.21791">
        <ele>859</ele>
        <time>2019-12-22T15:39:29Z</time>
      </trkpt>
      <trkpt lat="45.17807" lon="4.21797">
        <ele>858</ele>
        <time>2019-12-22T15:39:39Z</time>
      </trkpt>
      <trkpt lat="45.17847" lon="4.21795">
        <ele>858</ele>
        <time>2019-12-22T15:39:46Z</time>
      </trkpt>
      <trkpt lat="45.17957" lon="4.21768">
        <ele>853</ele>
        <time>2019-12-22T15:40:06Z</time>
      </trkpt>
      <trkpt lat="45.17941" lon="4.21803">
        <ele>853</ele>
        <time>2019-12-22T15:40:11Z</time>
      </trkpt>
      <trkpt lat="45.18001" lon="4.21829">
        <ele>853</ele>
        <time>2019-12-22T15:40:22Z</time>
      </trkpt>
      <trkpt lat="45.18092" lon="4.2199">
        <ele>845</ele>
        <time>2019-12-22T15:40:48Z</time>
      </trkpt>
      <trkpt lat="45.18094" lon="4.21998">
        <ele>845</ele>
        <time>2019-12-22T15:40:49Z</time>
      </trkpt>
      <trkpt lat="45.18099" lon="4.22007">
        <ele>844</ele>
        <time>2019-12-22T15:40:51Z</time>
      </trkpt>
      <trkpt lat="45.18094" lon="4.22017">
        <ele>845</ele>
        <time>2019-12-22T15:40:52Z</time>
      </trkpt>
      <trkpt lat="45.18061" lon="4.22055">
        <ele>847</ele>
        <time>2019-12-22T15:41:00Z</time>
      </trkpt>
      <trkpt lat="45.18026" lon="4.22087">
        <ele>850</ele>
        <time>2019-12-22T15:41:07Z</time>
      </trkpt>
      <trkpt lat="45.1796" lon="4.22133">
        <ele>850</ele>
        <time>2019-12-22T15:41:20Z</time>
      </trkpt>
      <trkpt lat="45.1793" lon="4.22166">
        <ele>851</ele>
        <time>2019-12-22T15:41:27Z</time>
      </trkpt>
      <trkpt lat="45.17839" lon="4.22287">
        <ele>849</ele>
        <time>2019-12-22T15:41:49Z</time>
      </trkpt>
      <trkpt lat="45.17844" lon="4.2228">
        <ele>849</ele>
        <time>2019-12-22T12:20:47Z</time>
      </trkpt>
      <trkpt lat="45.1793" lon="4.22166">
        <ele>851</ele>
        <time>2019-12-22T12:21:08Z</time>
      </trkpt>
      <trkpt lat="45.1796" lon="4.22133">
        <ele>850</ele>
        <time>2019-12-22T12:21:15Z</time>
      </trkpt>
      <trkpt lat="45.18026" lon="4.22087">
        <ele>850</ele>
        <time>2019-12-22T12:21:28Z</time>
      </trkpt>
      <trkpt lat="45.18061" lon="4.22055">
        <ele>847</ele>
        <time>2019-12-22T12:21:35Z</time>
      </trkpt>
      <trkpt lat="45.18094" lon="4.22017">
        <ele>845</ele>
        <time>2019-12-22T12:21:43Z</time>
      </trkpt>
      <trkpt lat="45.18103" lon="4.21999">
        <ele>844</ele>
        <time>2019-12-22T12:21:46Z</time>
      </trkpt>
      <trkpt lat="45.18112" lon="4.21971">
        <ele>844</ele>
        <time>2019-12-22T12:21:49Z</time>
      </trkpt>
      <trkpt lat="45.18115" lon="4.21972">
        <ele>844</ele>
        <time>2019-12-22T12:21:50Z</time>
      </trkpt>
      <trkpt lat="45.18117" lon="4.21979">
        <ele>843</ele>
        <time>2019-12-22T12:21:51Z</time>
      </trkpt>
      <trkpt lat="45.18116" lon="4.2199">
        <ele>843</ele>
        <time>2019-12-22T12:21:52Z</time>
      </trkpt>
      <trkpt lat="45.18107" lon="4.22012">
        <ele>843</ele>
        <time>2019-12-22T12:21:55Z</time>
      </trkpt>
      <trkpt lat="45.18112" lon="4.22005">
        <ele>843</ele>
        <time>2019-12-22T12:21:57Z</time>
      </trkpt>
      <trkpt lat="45.18081" lon="4.22056">
        <ele>845</ele>
        <time>2019-12-22T12:22:05Z</time>
      </trkpt>
      <trkpt lat="45.17763" lon="4.22505">
        <ele>838</ele>
        <time>2019-12-22T12:23:25Z</time>
      </trkpt>
      <trkpt lat="45.17728" lon="4.22558">
        <ele>836</ele>
        <time>2019-12-22T12:23:34Z</time>
      </trkpt>
      <trkpt lat="45.17703" lon="4.22608">
        <ele>835</ele>
        <time>2019-12-22T12:23:42Z</time>
      </trkpt>
      <trkpt lat="45.17677" lon="4.22674">
        <ele>836</ele>
        <time>2019-12-22T12:23:51Z</time>
      </trkpt>
      <trkpt lat="45.1766" lon="4.22728">
        <ele>837</ele>
        <time>2019-12-22T12:23:59Z</time>
      </trkpt>
      <trkpt lat="45.17649" lon="4.22776">
        <ele>838</ele>
        <time>2019-12-22T12:24:05Z</time>
      </trkpt>
      <trkpt lat="45.17638" lon="4.22842">
        <ele>838</ele>
        <time>2019-12-22T12:24:14Z</time>
      </trkpt>
      <trkpt lat="45.17615" lon="4.23209">
        <ele>843</ele>
        <time>2019-12-22T12:25:00Z</time>
      </trkpt>
      <trkpt lat="45.17612" lon="4.23237">
        <ele>842</ele>
        <time>2019-12-22T12:25:03Z</time>
      </trkpt>
      <trkpt lat="45.17607" lon="4.23264">
        <ele>843</ele>
        <time>2019-12-22T12:25:07Z</time>
      </trkpt>
      <trkpt lat="45.17596" lon="4.23311">
        <ele>846</ele>
        <time>2019-12-22T12:25:13Z</time>
      </trkpt>
      <trkpt lat="45.17578" lon="4.2336">
        <ele>849</ele>
        <time>2019-12-22T12:25:20Z</time>
      </trkpt>
      <trkpt lat="45.17492" lon="4.23533">
        <ele>856</ele>
        <time>2019-12-22T12:25:46Z</time>
      </trkpt>
      <trkpt lat="45.17475" lon="4.23573">
        <ele>856</ele>
        <time>2019-12-22T12:25:52Z</time>
      </trkpt>
      <trkpt lat="45.17464" lon="4.23604">
        <ele>856</ele>
        <time>2019-12-22T12:25:57Z</time>
      </trkpt>
      <trkpt lat="45.17454" lon="4.23645">
        <ele>857</ele>
        <time>2019-12-22T12:26:02Z</time>
      </trkpt>
      <trkpt lat="45.1744" lon="4.23722">
        <ele>858</ele>
        <time>2019-12-22T12:26:12Z</time>
      </trkpt>
      <trkpt lat="45.17432" lon="4.23759">
        <ele>859</ele>
        <time>2019-12-22T12:26:17Z</time>
      </trkpt>
      <trkpt lat="45.17418" lon="4.23788">
        <ele>859</ele>
        <time>2019-12-22T12:26:21Z</time>
      </trkpt>
      <trkpt lat="45.17395" lon="4.23821">
        <ele>860</ele>
        <time>2019-12-22T12:26:27Z</time>
      </trkpt>
      <trkpt lat="45.17361" lon="4.23851">
        <ele>862</ele>
        <time>2019-12-22T12:26:34Z</time>
      </trkpt>
      <trkpt lat="45.17349" lon="4.23856">
        <ele>863</ele>
        <time>2019-12-22T12:26:37Z</time>
      </trkpt>
      <trkpt lat="45.17263" lon="4.23904">
        <ele>867</ele>
        <time>2019-12-22T12:26:53Z</time>
      </trkpt>
      <trkpt lat="45.17239" lon="4.23922">
        <ele>868</ele>
        <time>2019-12-22T12:26:58Z</time>
      </trkpt>
      <trkpt lat="45.17214" lon="4.2395">
        <ele>867</ele>
        <time>2019-12-22T12:27:03Z</time>
      </trkpt>
      <trkpt lat="45.172" lon="4.23973">
        <ele>867</ele>
        <time>2019-12-22T12:27:07Z</time>
      </trkpt>
      <trkpt lat="45.17182" lon="4.24012">
        <ele>866</ele>
        <time>2019-12-22T12:27:13Z</time>
      </trkpt>
      <trkpt lat="45.17173" lon="4.2404">
        <ele>866</ele>
        <time>2019-12-22T12:27:17Z</time>
      </trkpt>
      <trkpt lat="45.17107" lon="4.24356">
        <ele>873</ele>
        <time>2019-12-22T12:27:58Z</time>
      </trkpt>
      <trkpt lat="45.17077" lon="4.24518">
        <ele>879</ele>
        <time>2019-12-22T12:28:19Z</time>
      </trkpt>
      <trkpt lat="45.17071" lon="4.24574">
        <ele>880</ele>
        <time>2019-12-22T12:28:26Z</time>
      </trkpt>
      <trkpt lat="45.17057" lon="4.24765">
        <ele>879</ele>
        <time>2019-12-22T12:28:51Z</time>
      </trkpt>
      <trkpt lat="45.17038" lon="4.24982">
        <ele>879</ele>
        <time>2019-12-22T12:29:18Z</time>
      </trkpt>
      <trkpt lat="45.17032" lon="4.25014">
        <ele>879</ele>
        <time>2019-12-22T12:29:22Z</time>
      </trkpt>
      <trkpt lat="45.17006" lon="4.25102">
        <ele>880</ele>
        <time>2019-12-22T12:29:34Z</time>
      </trkpt>
      <trkpt lat="45.16988" lon="4.25176">
        <ele>879</ele>
        <time>2019-12-22T12:29:44Z</time>
      </trkpt>
      <trkpt lat="45.16979" lon="4.25221">
        <ele>880</ele>
        <time>2019-12-22T12:29:50Z</time>
      </trkpt>
      <trkpt lat="45.16971" lon="4.25326">
        <ele>882</ele>
        <time>2019-12-22T12:30:03Z</time>
      </trkpt>
      <trkpt lat="45.16971" lon="4.25383">
        <ele>881</ele>
        <time>2019-12-22T12:30:10Z</time>
      </trkpt>
      <trkpt lat="45.16973" lon="4.25407">
        <ele>881</ele>
        <time>2019-12-22T12:30:13Z</time>
      </trkpt>
      <trkpt lat="45.16978" lon="4.25436">
        <ele>880</ele>
        <time>2019-12-22T12:30:17Z</time>
      </trkpt>
      <trkpt lat="45.16985" lon="4.25461">
        <ele>880</ele>
        <time>2019-12-22T12:30:20Z</time>
      </trkpt>
      <trkpt lat="45.16996" lon="4.25485">
        <ele>880</ele>
        <time>2019-12-22T12:30:24Z</time>
      </trkpt>
      <trkpt lat="45.17021" lon="4.25522">
        <ele>880</ele>
        <time>2019-12-22T12:30:30Z</time>
      </trkpt>
      <trkpt lat="45.17056" lon="4.25565">
        <ele>879</ele>
        <time>2019-12-22T12:30:39Z</time>
      </trkpt>
      <trkpt lat="45.17067" lon="4.25583">
        <ele>878</ele>
        <time>2019-12-22T12:30:42Z</time>
      </trkpt>
      <trkpt lat="45.17079" lon="4.25606">
        <ele>878</ele>
        <time>2019-12-22T12:30:45Z</time>
      </trkpt>
      <trkpt lat="45.17092" lon="4.25653">
        <ele>878</ele>
        <time>2019-12-22T12:30:52Z</time>
      </trkpt>
      <trkpt lat="45.17096" lon="4.25683">
        <ele>878</ele>
        <time>2019-12-22T12:30:55Z</time>
      </trkpt>
      <trkpt lat="45.17096" lon="4.25715">
        <ele>877</ele>
        <time>2019-12-22T12:30:59Z</time>
      </trkpt>
      <trkpt lat="45.17094" lon="4.25738">
        <ele>877</ele>
        <time>2019-12-22T12:31:02Z</time>
      </trkpt>
      <trkpt lat="45.17089" lon="4.25764">
        <ele>877</ele>
        <time>2019-12-22T12:31:06Z</time>
      </trkpt>
      <trkpt lat="45.17076" lon="4.25802">
        <ele>877</ele>
        <time>2019-12-22T12:31:11Z</time>
      </trkpt>
      <trkpt lat="45.17073" lon="4.25809">
        <ele>877</ele>
        <time>2019-12-22T12:31:12Z</time>
      </trkpt>
      <trkpt lat="45.1706" lon="4.25831">
        <ele>878</ele>
        <time>2019-12-22T12:31:16Z</time>
      </trkpt>
      <trkpt lat="45.17046" lon="4.25849">
        <ele>878</ele>
        <time>2019-12-22T12:31:19Z</time>
      </trkpt>
      <trkpt lat="45.17025" lon="4.25868">
        <ele>879</ele>
        <time>2019-12-22T12:31:23Z</time>
      </trkpt>
      <trkpt lat="45.16903" lon="4.25957">
        <ele>884</ele>
        <time>2019-12-22T12:31:48Z</time>
      </trkpt>
      <trkpt lat="45.1688" lon="4.25983">
        <ele>885</ele>
        <time>2019-12-22T12:31:53Z</time>
      </trkpt>
      <trkpt lat="45.16875" lon="4.25982">
        <ele>885</ele>
        <time>2019-12-22T12:31:54Z</time>
      </trkpt>
      <trkpt lat="45.16865" lon="4.26005">
        <ele>885</ele>
        <time>2019-12-22T12:31:57Z</time>
      </trkpt>
      <trkpt lat="45.16849" lon="4.26038">
        <ele>886</ele>
        <time>2019-12-22T12:32:02Z</time>
      </trkpt>
      <trkpt lat="45.16838" lon="4.2607">
        <ele>887</ele>
        <time>2019-12-22T12:32:07Z</time>
      </trkpt>
      <trkpt lat="45.16828" lon="4.26115">
        <ele>888</ele>
        <time>2019-12-22T12:32:13Z</time>
      </trkpt>
      <trkpt lat="45.16813" lon="4.26274">
        <ele>890</ele>
        <time>2019-12-22T12:32:33Z</time>
      </trkpt>
      <trkpt lat="45.16823" lon="4.26306">
        <ele>891</ele>
        <time>2019-12-22T12:32:37Z</time>
      </trkpt>
      <trkpt lat="45.16813" lon="4.2635">
        <ele>891</ele>
        <time>2019-12-22T12:32:43Z</time>
      </trkpt>
      <trkpt lat="45.16809" lon="4.26419">
        <ele>891</ele>
        <time>2019-12-22T12:32:52Z</time>
      </trkpt>
      <trkpt lat="45.16809" lon="4.26443">
        <ele>891</ele>
        <time>2019-12-22T12:32:55Z</time>
      </trkpt>
      <trkpt lat="45.16812" lon="4.26466">
        <ele>891</ele>
        <time>2019-12-22T12:32:58Z</time>
      </trkpt>
      <trkpt lat="45.16843" lon="4.2661">
        <ele>892</ele>
        <time>2019-12-22T12:33:17Z</time>
      </trkpt>
      <trkpt lat="45.16849" lon="4.26642">
        <ele>894</ele>
        <time>2019-12-22T12:33:21Z</time>
      </trkpt>
      <trkpt lat="45.16855" lon="4.26697">
        <ele>897</ele>
        <time>2019-12-22T12:33:28Z</time>
      </trkpt>
      <trkpt lat="45.16855" lon="4.26761">
        <ele>900</ele>
        <time>2019-12-22T12:33:36Z</time>
      </trkpt>
      <trkpt lat="45.16853" lon="4.26785">
        <ele>902</ele>
        <time>2019-12-22T12:33:39Z</time>
      </trkpt>
      <trkpt lat="45.16821" lon="4.26949">
        <ele>905</ele>
        <time>2019-12-22T12:34:00Z</time>
      </trkpt>
      <trkpt lat="45.16819" lon="4.2698">
        <ele>905</ele>
        <time>2019-12-22T12:34:04Z</time>
      </trkpt>
      <trkpt lat="45.16822" lon="4.27015">
        <ele>905</ele>
        <time>2019-12-22T12:34:08Z</time>
      </trkpt>
      <trkpt lat="45.16828" lon="4.27058">
        <ele>904</ele>
        <time>2019-12-22T12:34:14Z</time>
      </trkpt>
      <trkpt lat="45.16835" lon="4.2708">
        <ele>903</ele>
        <time>2019-12-22T12:34:17Z</time>
      </trkpt>
      <trkpt lat="45.16889" lon="4.27204">
        <ele>897</ele>
        <time>2019-12-22T12:34:35Z</time>
      </trkpt>
      <trkpt lat="45.16905" lon="4.27245">
        <ele>897</ele>
        <time>2019-12-22T12:34:41Z</time>
      </trkpt>
      <trkpt lat="45.16918" lon="4.27283">
        <ele>897</ele>
        <time>2019-12-22T12:34:46Z</time>
      </trkpt>
      <trkpt lat="45.16928" lon="4.27318">
        <ele>896</ele>
        <time>2019-12-22T12:34:51Z</time>
      </trkpt>
      <trkpt lat="45.16934" lon="4.27354">
        <ele>895</ele>
        <time>2019-12-22T12:34:56Z</time>
      </trkpt>
      <trkpt lat="45.16937" lon="4.27392">
        <ele>894</ele>
        <time>2019-12-22T12:35:01Z</time>
      </trkpt>
      <trkpt lat="45.16937" lon="4.27462">
        <ele>894</ele>
        <time>2019-12-22T12:35:09Z</time>
      </trkpt>
      <trkpt lat="45.16929" lon="4.27526">
        <ele>894</ele>
        <time>2019-12-22T12:35:17Z</time>
      </trkpt>
      <trkpt lat="45.16924" lon="4.27556">
        <ele>895</ele>
        <time>2019-12-22T12:35:21Z</time>
      </trkpt>
      <trkpt lat="45.16894" lon="4.2766">
        <ele>900</ele>
        <time>2019-12-22T12:35:35Z</time>
      </trkpt>
      <trkpt lat="45.16886" lon="4.27702">
        <ele>901</ele>
        <time>2019-12-22T12:35:41Z</time>
      </trkpt>
      <trkpt lat="45.16885" lon="4.27727">
        <ele>901</ele>
        <time>2019-12-22T12:35:44Z</time>
      </trkpt>
      <trkpt lat="45.16889" lon="4.27754">
        <ele>900</ele>
        <time>2019-12-22T12:35:48Z</time>
      </trkpt>
      <trkpt lat="45.16895" lon="4.2778">
        <ele>898</ele>
        <time>2019-12-22T12:35:51Z</time>
      </trkpt>
      <trkpt lat="45.16909" lon="4.27808">
        <ele>897</ele>
        <time>2019-12-22T12:35:55Z</time>
      </trkpt>
      <trkpt lat="45.1693" lon="4.27835">
        <ele>897</ele>
        <time>2019-12-22T12:36:00Z</time>
      </trkpt>
      <trkpt lat="45.16958" lon="4.27859">
        <ele>896</ele>
        <time>2019-12-22T12:36:06Z</time>
      </trkpt>
      <trkpt lat="45.16975" lon="4.27869">
        <ele>896</ele>
        <time>2019-12-22T12:36:09Z</time>
      </trkpt>
      <trkpt lat="45.17006" lon="4.27894">
        <ele>895</ele>
        <time>2019-12-22T12:36:16Z</time>
      </trkpt>
      <trkpt lat="45.17025" lon="4.2792">
        <ele>893</ele>
        <time>2019-12-22T12:36:20Z</time>
      </trkpt>
      <trkpt lat="45.17043" lon="4.2795">
        <ele>893</ele>
        <time>2019-12-22T12:36:25Z</time>
      </trkpt>
      <trkpt lat="45.17055" lon="4.27978">
        <ele>893</ele>
        <time>2019-12-22T12:36:29Z</time>
      </trkpt>
      <trkpt lat="45.17075" lon="4.28053">
        <ele>891</ele>
        <time>2019-12-22T12:36:40Z</time>
      </trkpt>
      <trkpt lat="45.17078" lon="4.28092">
        <ele>890</ele>
        <time>2019-12-22T12:36:44Z</time>
      </trkpt>
      <trkpt lat="45.17076" lon="4.28125">
        <ele>888</ele>
        <time>2019-12-22T12:36:49Z</time>
      </trkpt>
      <trkpt lat="45.17072" lon="4.28158">
        <ele>887</ele>
        <time>2019-12-22T12:36:53Z</time>
      </trkpt>
      <trkpt lat="45.17061" lon="4.2821">
        <ele>886</ele>
        <time>2019-12-22T12:37:00Z</time>
      </trkpt>
      <trkpt lat="45.17028" lon="4.28272">
        <ele>884</ele>
        <time>2019-12-22T12:37:09Z</time>
      </trkpt>
      <trkpt lat="45.17018" lon="4.28287">
        <ele>883</ele>
        <time>2019-12-22T12:37:12Z</time>
      </trkpt>
      <trkpt lat="45.16967" lon="4.28344">
        <ele>881</ele>
        <time>2019-12-22T12:37:24Z</time>
      </trkpt>
      <trkpt lat="45.16936" lon="4.28388">
        <ele>879</ele>
        <time>2019-12-22T12:37:31Z</time>
      </trkpt>
      <trkpt lat="45.16918" lon="4.28437">
        <ele>877</ele>
        <time>2019-12-22T12:37:38Z</time>
      </trkpt>
      <trkpt lat="45.1691" lon="4.28475">
        <ele>877</ele>
        <time>2019-12-22T12:37:43Z</time>
      </trkpt>
      <trkpt lat="45.16883" lon="4.28646">
        <ele>876</ele>
        <time>2019-12-22T12:38:05Z</time>
      </trkpt>
      <trkpt lat="45.16876" lon="4.28667">
        <ele>875</ele>
        <time>2019-12-22T12:38:08Z</time>
      </trkpt>
      <trkpt lat="45.16859" lon="4.28698">
        <ele>874</ele>
        <time>2019-12-22T12:38:13Z</time>
      </trkpt>
      <trkpt lat="45.16844" lon="4.28715">
        <ele>874</ele>
        <time>2019-12-22T12:38:16Z</time>
      </trkpt>
      <trkpt lat="45.16823" lon="4.28732">
        <ele>873</ele>
        <time>2019-12-22T12:38:21Z</time>
      </trkpt>
      <trkpt lat="45.16788" lon="4.28748">
        <ele>872</ele>
        <time>2019-12-22T12:38:27Z</time>
      </trkpt>
      <trkpt lat="45.16754" lon="4.28767">
        <ele>870</ele>
        <time>2019-12-22T12:38:34Z</time>
      </trkpt>
      <trkpt lat="45.16733" lon="4.28784">
        <ele>871</ele>
        <time>2019-12-22T12:38:38Z</time>
      </trkpt>
      <trkpt lat="45.16703" lon="4.28821">
        <ele>870</ele>
        <time>2019-12-22T12:38:45Z</time>
      </trkpt>
      <trkpt lat="45.16669" lon="4.2888">
        <ele>868</ele>
        <time>2019-12-22T12:38:55Z</time>
      </trkpt>
      <trkpt lat="45.16646" lon="4.28914">
        <ele>867</ele>
        <time>2019-12-22T12:39:01Z</time>
      </trkpt>
      <trkpt lat="45.16624" lon="4.28957">
        <ele>866</ele>
        <time>2019-12-22T12:39:07Z</time>
      </trkpt>
      <trkpt lat="45.16613" lon="4.2899">
        <ele>865</ele>
        <time>2019-12-22T12:39:12Z</time>
      </trkpt>
      <trkpt lat="45.16605" lon="4.29047">
        <ele>865</ele>
        <time>2019-12-22T12:39:19Z</time>
      </trkpt>
      <trkpt lat="45.16605" lon="4.29064">
        <ele>865</ele>
        <time>2019-12-22T12:39:21Z</time>
      </trkpt>
      <trkpt lat="45.16607" lon="4.29082">
        <ele>865</ele>
        <time>2019-12-22T12:39:24Z</time>
      </trkpt>
      <trkpt lat="45.16615" lon="4.29125">
        <ele>864</ele>
        <time>2019-12-22T12:39:29Z</time>
      </trkpt>
      <trkpt lat="45.1662" lon="4.29141">
        <ele>864</ele>
        <time>2019-12-22T12:39:31Z</time>
      </trkpt>
      <trkpt lat="45.16627" lon="4.29154">
        <ele>864</ele>
        <time>2019-12-22T12:39:33Z</time>
      </trkpt>
      <trkpt lat="45.16713" lon="4.29254">
        <ele>863</ele>
        <time>2019-12-22T12:39:53Z</time>
      </trkpt>
      <trkpt lat="45.1675" lon="4.29301">
        <ele>862</ele>
        <time>2019-12-22T12:40:02Z</time>
      </trkpt>
      <trkpt lat="45.1679" lon="4.29364">
        <ele>864</ele>
        <time>2019-12-22T12:40:13Z</time>
      </trkpt>
      <trkpt lat="45.168" lon="4.29386">
        <ele>864</ele>
        <time>2019-12-22T12:40:16Z</time>
      </trkpt>
      <trkpt lat="45.16797" lon="4.29391">
        <ele>864</ele>
        <time>2019-12-22T12:40:17Z</time>
      </trkpt>
      <trkpt lat="45.16802" lon="4.29401">
        <ele>864</ele>
        <time>2019-12-22T12:40:18Z</time>
      </trkpt>
      <trkpt lat="45.16853" lon="4.29497">
        <ele>865</ele>
        <time>2019-12-22T12:40:33Z</time>
      </trkpt>
      <trkpt lat="45.16919" lon="4.29611">
        <ele>864</ele>
        <time>2019-12-22T12:40:52Z</time>
      </trkpt>
      <trkpt lat="45.16993" lon="4.29748">
        <ele>866</ele>
        <time>2019-12-22T12:41:14Z</time>
      </trkpt>
      <trkpt lat="45.17005" lon="4.29766">
        <ele>866</ele>
        <time>2019-12-22T12:41:17Z</time>
      </trkpt>
      <trkpt lat="45.17031" lon="4.29791">
        <ele>866</ele>
        <time>2019-12-22T12:41:22Z</time>
      </trkpt>
      <trkpt lat="45.17053" lon="4.29799">
        <ele>867</ele>
        <time>2019-12-22T12:41:26Z</time>
      </trkpt>
      <trkpt lat="45.17081" lon="4.29802">
        <ele>868</ele>
        <time>2019-12-22T12:41:31Z</time>
      </trkpt>
      <trkpt lat="45.17093" lon="4.29799">
        <ele>868</ele>
        <time>2019-12-22T12:41:33Z</time>
      </trkpt>
      <trkpt lat="45.17346" lon="4.29705">
        <ele>870</ele>
        <time>2019-12-22T12:42:20Z</time>
      </trkpt>
      <trkpt lat="45.17386" lon="4.29699">
        <ele>870</ele>
        <time>2019-12-22T12:42:27Z</time>
      </trkpt>
      <trkpt lat="45.17421" lon="4.29704">
        <ele>869</ele>
        <time>2019-12-22T12:42:33Z</time>
      </trkpt>
      <trkpt lat="45.17436" lon="4.29709">
        <ele>869</ele>
        <time>2019-12-22T12:42:36Z</time>
      </trkpt>
      <trkpt lat="45.17456" lon="4.2972">
        <ele>869</ele>
        <time>2019-12-22T12:42:40Z</time>
      </trkpt>
      <trkpt lat="45.17484" lon="4.2974">
        <ele>870</ele>
        <time>2019-12-22T12:42:46Z</time>
      </trkpt>
      <trkpt lat="45.17817" lon="4.30029">
        <ele>886</ele>
        <time>2019-12-22T12:43:55Z</time>
      </trkpt>
      <trkpt lat="45.17834" lon="4.30038">
        <ele>887</ele>
        <time>2019-12-22T12:43:58Z</time>
      </trkpt>
      <trkpt lat="45.1785" lon="4.30042">
        <ele>887</ele>
        <time>2019-12-22T12:44:01Z</time>
      </trkpt>
      <trkpt lat="45.17862" lon="4.30043">
        <ele>887</ele>
        <time>2019-12-22T12:44:03Z</time>
      </trkpt>
      <trkpt lat="45.17912" lon="4.30037">
        <ele>888</ele>
        <time>2019-12-22T12:44:12Z</time>
      </trkpt>
      <trkpt lat="45.17925" lon="4.30038">
        <ele>888</ele>
        <time>2019-12-22T12:44:15Z</time>
      </trkpt>
      <trkpt lat="45.17938" lon="4.30041">
        <ele>889</ele>
        <time>2019-12-22T12:44:17Z</time>
      </trkpt>
      <trkpt lat="45.17954" lon="4.30049">
        <ele>889</ele>
        <time>2019-12-22T12:44:20Z</time>
      </trkpt>
      <trkpt lat="45.17967" lon="4.30059">
        <ele>889</ele>
        <time>2019-12-22T12:44:23Z</time>
      </trkpt>
      <trkpt lat="45.17984" lon="4.30081">
        <ele>889</ele>
        <time>2019-12-22T12:44:27Z</time>
      </trkpt>
      <trkpt lat="45.1801" lon="4.30135">
        <ele>891</ele>
        <time>2019-12-22T12:44:35Z</time>
      </trkpt>
      <trkpt lat="45.18022" lon="4.30154">
        <ele>891</ele>
        <time>2019-12-22T12:44:38Z</time>
      </trkpt>
      <trkpt lat="45.18031" lon="4.30165">
        <ele>892</ele>
        <time>2019-12-22T12:44:40Z</time>
      </trkpt>
      <trkpt lat="45.18049" lon="4.30181">
        <ele>892</ele>
        <time>2019-12-22T12:44:44Z</time>
      </trkpt>
      <trkpt lat="45.18061" lon="4.30187">
        <ele>893</ele>
        <time>2019-12-22T12:44:46Z</time>
      </trkpt>
      <trkpt lat="45.1811" lon="4.30202">
        <ele>895</ele>
        <time>2019-12-22T12:44:55Z</time>
      </trkpt>
      <trkpt lat="45.18121" lon="4.30209">
        <ele>896</ele>
        <time>2019-12-22T12:44:57Z</time>
      </trkpt>
      <trkpt lat="45.18133" lon="4.30219">
        <ele>896</ele>
        <time>2019-12-22T12:45:00Z</time>
      </trkpt>
      <trkpt lat="45.18151" lon="4.30244">
        <ele>895</ele>
        <time>2019-12-22T12:45:04Z</time>
      </trkpt>
      <trkpt lat="45.18165" lon="4.30277">
        <ele>896</ele>
        <time>2019-12-22T12:45:09Z</time>
      </trkpt>
      <trkpt lat="45.18171" lon="4.30308">
        <ele>896</ele>
        <time>2019-12-22T12:45:13Z</time>
      </trkpt>
      <trkpt lat="45.18172" lon="4.30326">
        <ele>896</ele>
        <time>2019-12-22T12:45:15Z</time>
      </trkpt>
      <trkpt lat="45.18171" lon="4.30344">
        <ele>897</ele>
        <time>2019-12-22T12:45:18Z</time>
      </trkpt>
      <trkpt lat="45.18165" lon="4.30374">
        <ele>899</ele>
        <time>2019-12-22T12:45:21Z</time>
      </trkpt>
      <trkpt lat="45.18145" lon="4.30431">
        <ele>900</ele>
        <time>2019-12-22T12:45:29Z</time>
      </trkpt>
      <trkpt lat="45.18137" lon="4.30456">
        <ele>899</ele>
        <time>2019-12-22T12:45:33Z</time>
      </trkpt>
      <trkpt lat="45.18134" lon="4.30472">
        <ele>899</ele>
        <time>2019-12-22T12:45:35Z</time>
      </trkpt>
      <trkpt lat="45.18132" lon="4.30498">
        <ele>899</ele>
        <time>2019-12-22T12:45:38Z</time>
      </trkpt>
      <trkpt lat="45.18132" lon="4.30516">
        <ele>899</ele>
        <time>2019-12-22T12:45:41Z</time>
      </trkpt>
      <trkpt lat="45.18135" lon="4.30539">
        <ele>900</ele>
        <time>2019-12-22T12:45:43Z</time>
      </trkpt>
      <trkpt lat="45.18139" lon="4.3056">
        <ele>900</ele>
        <time>2019-12-22T12:45:46Z</time>
      </trkpt>
      <trkpt lat="45.18154" lon="4.30598">
        <ele>902</ele>
        <time>2019-12-22T12:45:52Z</time>
      </trkpt>
      <trkpt lat="45.18168" lon="4.30619">
        <ele>904</ele>
        <time>2019-12-22T12:45:55Z</time>
      </trkpt>
      <trkpt lat="45.18195" lon="4.30643">
        <ele>906</ele>
        <time>2019-12-22T12:46:01Z</time>
      </trkpt>
      <trkpt lat="45.1821" lon="4.30652">
        <ele>907</ele>
        <time>2019-12-22T12:46:04Z</time>
      </trkpt>
      <trkpt lat="45.18257" lon="4.30671">
        <ele>908</ele>
        <time>2019-12-22T12:46:13Z</time>
      </trkpt>
      <trkpt lat="45.18338" lon="4.30694">
        <ele>910</ele>
        <time>2019-12-22T12:46:27Z</time>
      </trkpt>
      <trkpt lat="45.18354" lon="4.30701">
        <ele>911</ele>
        <time>2019-12-22T12:46:30Z</time>
      </trkpt>
      <trkpt lat="45.18378" lon="4.30716">
        <ele>911</ele>
        <time>2019-12-22T12:46:35Z</time>
      </trkpt>
      <trkpt lat="45.18409" lon="4.30744">
        <ele>912</ele>
        <time>2019-12-22T12:46:41Z</time>
      </trkpt>
      <trkpt lat="45.18443" lon="4.30794">
        <ele>913</ele>
        <time>2019-12-22T12:46:50Z</time>
      </trkpt>
      <trkpt lat="45.18482" lon="4.30865">
        <ele>913</ele>
        <time>2019-12-22T12:47:01Z</time>
      </trkpt>
      <trkpt lat="45.18509" lon="4.30896">
        <ele>913</ele>
        <time>2019-12-22T12:47:08Z</time>
      </trkpt>
      <trkpt lat="45.18525" lon="4.3091">
        <ele>913</ele>
        <time>2019-12-22T12:47:11Z</time>
      </trkpt>
      <trkpt lat="45.18547" lon="4.30924">
        <ele>912</ele>
        <time>2019-12-22T12:47:15Z</time>
      </trkpt>
      <trkpt lat="45.18617" lon="4.30959">
        <ele>911</ele>
        <time>2019-12-22T12:47:28Z</time>
      </trkpt>
      <trkpt lat="45.18637" lon="4.30975">
        <ele>912</ele>
        <time>2019-12-22T12:47:33Z</time>
      </trkpt>
      <trkpt lat="45.18659" lon="4.31001">
        <ele>913</ele>
        <time>2019-12-22T12:47:38Z</time>
      </trkpt>
      <trkpt lat="45.1868" lon="4.3104">
        <ele>912</ele>
        <time>2019-12-22T12:47:44Z</time>
      </trkpt>
      <trkpt lat="45.18705" lon="4.31094">
        <ele>912</ele>
        <time>2019-12-22T12:47:52Z</time>
      </trkpt>
      <trkpt lat="45.18721" lon="4.31139">
        <ele>911</ele>
        <time>2019-12-22T12:47:58Z</time>
      </trkpt>
      <trkpt lat="45.18728" lon="4.31174">
        <ele>912</ele>
        <time>2019-12-22T12:48:03Z</time>
      </trkpt>
      <trkpt lat="45.18731" lon="4.312">
        <ele>911</ele>
        <time>2019-12-22T12:48:06Z</time>
      </trkpt>
      <trkpt lat="45.18735" lon="4.31281">
        <ele>910</ele>
        <time>2019-12-22T12:48:16Z</time>
      </trkpt>
      <trkpt lat="45.18736" lon="4.31295">
        <ele>910</ele>
        <time>2019-12-22T12:48:18Z</time>
      </trkpt>
      <trkpt lat="45.18737" lon="4.31332">
        <ele>910</ele>
        <time>2019-12-22T12:48:23Z</time>
      </trkpt>
      <trkpt lat="45.18734" lon="4.31381">
        <ele>911</ele>
        <time>2019-12-22T12:48:29Z</time>
      </trkpt>
      <trkpt lat="45.18717" lon="4.31599">
        <ele>914</ele>
        <time>2019-12-22T12:48:56Z</time>
      </trkpt>
      <trkpt lat="45.18711" lon="4.31701">
        <ele>919</ele>
        <time>2019-12-22T12:49:09Z</time>
      </trkpt>
      <trkpt lat="45.18713" lon="4.31749">
        <ele>921</ele>
        <time>2019-12-22T12:49:15Z</time>
      </trkpt>
      <trkpt lat="45.18717" lon="4.3178">
        <ele>921</ele>
        <time>2019-12-22T12:49:19Z</time>
      </trkpt>
      <trkpt lat="45.18719" lon="4.31797">
        <ele>921</ele>
        <time>2019-12-22T12:49:21Z</time>
      </trkpt>
      <trkpt lat="45.18732" lon="4.31848">
        <ele>921</ele>
        <time>2019-12-22T12:49:28Z</time>
      </trkpt>
      <trkpt lat="45.1874" lon="4.31879">
        <ele>921</ele>
        <time>2019-12-22T12:49:32Z</time>
      </trkpt>
      <trkpt lat="45.18764" lon="4.31932">
        <ele>922</ele>
        <time>2019-12-22T12:49:40Z</time>
      </trkpt>
      <trkpt lat="45.18958" lon="4.32318">
        <ele>914</ele>
        <time>2019-12-22T12:50:40Z</time>
      </trkpt>
      <trkpt lat="45.18973" lon="4.3234">
        <ele>913</ele>
        <time>2019-12-22T12:50:43Z</time>
      </trkpt>
      <trkpt lat="45.18985" lon="4.32354">
        <ele>913</ele>
        <time>2019-12-22T12:50:46Z</time>
      </trkpt>
      <trkpt lat="45.19004" lon="4.32369">
        <ele>913</ele>
        <time>2019-12-22T12:50:50Z</time>
      </trkpt>
      <trkpt lat="45.19027" lon="4.32381">
        <ele>913</ele>
        <time>2019-12-22T12:50:54Z</time>
      </trkpt>
      <trkpt lat="45.19046" lon="4.32386">
        <ele>912</ele>
        <time>2019-12-22T12:50:58Z</time>
      </trkpt>
      <trkpt lat="45.19061" lon="4.32388">
        <ele>912</ele>
        <time>2019-12-22T12:51:01Z</time>
      </trkpt>
      <trkpt lat="45.19081" lon="4.32386">
        <ele>910</ele>
        <time>2019-12-22T12:51:04Z</time>
      </trkpt>
      <trkpt lat="45.19144" lon="4.32374">
        <ele>910</ele>
        <time>2019-12-22T12:51:15Z</time>
      </trkpt>
      <trkpt lat="45.192" lon="4.32359">
        <ele>909</ele>
        <time>2019-12-22T12:51:26Z</time>
      </trkpt>
      <trkpt lat="45.19218" lon="4.32347">
        <ele>907</ele>
        <time>2019-12-22T12:51:29Z</time>
      </trkpt>
      <trkpt lat="45.19247" lon="4.32312">
        <ele>905</ele>
        <time>2019-12-22T12:51:36Z</time>
      </trkpt>
      <trkpt lat="45.19255" lon="4.32295">
        <ele>906</ele>
        <time>2019-12-22T12:51:38Z</time>
      </trkpt>
      <trkpt lat="45.19264" lon="4.32267">
        <ele>907</ele>
        <time>2019-12-22T12:51:42Z</time>
      </trkpt>
      <trkpt lat="45.19304" lon="4.32097">
        <ele>903</ele>
        <time>2019-12-22T12:52:05Z</time>
      </trkpt>
      <trkpt lat="45.19317" lon="4.32069">
        <ele>902</ele>
        <time>2019-12-22T12:52:09Z</time>
      </trkpt>
      <trkpt lat="45.19346" lon="4.3203">
        <ele>900</ele>
        <time>2019-12-22T12:52:16Z</time>
      </trkpt>
      <trkpt lat="45.19378" lon="4.31991">
        <ele>900</ele>
        <time>2019-12-22T12:52:24Z</time>
      </trkpt>
      <trkpt lat="45.19402" lon="4.31971">
        <ele>899</ele>
        <time>2019-12-22T12:52:29Z</time>
      </trkpt>
      <trkpt lat="45.19436" lon="4.3195">
        <ele>898</ele>
        <time>2019-12-22T12:52:35Z</time>
      </trkpt>
      <trkpt lat="45.19461" lon="4.31932">
        <ele>896</ele>
        <time>2019-12-22T12:52:40Z</time>
      </trkpt>
      <trkpt lat="45.19482" lon="4.31906">
        <ele>893</ele>
        <time>2019-12-22T12:52:45Z</time>
      </trkpt>
      <trkpt lat="45.19508" lon="4.31861">
        <ele>889</ele>
        <time>2019-12-22T12:52:52Z</time>
      </trkpt>
      <trkpt lat="45.19532" lon="4.31825">
        <ele>887</ele>
        <time>2019-12-22T12:52:59Z</time>
      </trkpt>
      <trkpt lat="45.19565" lon="4.31791">
        <ele>887</ele>
        <time>2019-12-22T12:53:06Z</time>
      </trkpt>
      <trkpt lat="45.19637" lon="4.31745">
        <ele>884</ele>
        <time>2019-12-22T12:53:20Z</time>
      </trkpt>
      <trkpt lat="45.19674" lon="4.31726">
        <ele>882</ele>
        <time>2019-12-22T12:53:27Z</time>
      </trkpt>
      <trkpt lat="45.19697" lon="4.3172">
        <ele>882</ele>
        <time>2019-12-22T12:53:31Z</time>
      </trkpt>
      <trkpt lat="45.19721" lon="4.31723">
        <ele>882</ele>
        <time>2019-12-22T12:53:35Z</time>
      </trkpt>
      <trkpt lat="45.19741" lon="4.31733">
        <ele>884</ele>
        <time>2019-12-22T12:53:39Z</time>
      </trkpt>
      <trkpt lat="45.19794" lon="4.31775">
        <ele>887</ele>
        <time>2019-12-22T12:53:50Z</time>
      </trkpt>
      <trkpt lat="45.19816" lon="4.31783">
        <ele>887</ele>
        <time>2019-12-22T12:53:54Z</time>
      </trkpt>
      <trkpt lat="45.19978" lon="4.31782">
        <ele>887</ele>
        <time>2019-12-22T12:54:23Z</time>
      </trkpt>
      <trkpt lat="45.20006" lon="4.31774">
        <ele>886</ele>
        <time>2019-12-22T12:54:28Z</time>
      </trkpt>
      <trkpt lat="45.20075" lon="4.31733">
        <ele>881</ele>
        <time>2019-12-22T12:54:41Z</time>
      </trkpt>
      <trkpt lat="45.20105" lon="4.31721">
        <ele>880</ele>
        <time>2019-12-22T12:54:47Z</time>
      </trkpt>
      <trkpt lat="45.20131" lon="4.31719">
        <ele>880</ele>
        <time>2019-12-22T12:54:51Z</time>
      </trkpt>
      <trkpt lat="45.20165" lon="4.31728">
        <ele>881</ele>
        <time>2019-12-22T12:54:58Z</time>
      </trkpt>
      <trkpt lat="45.202" lon="4.31742">
        <ele>880</ele>
        <time>2019-12-22T12:55:04Z</time>
      </trkpt>
      <trkpt lat="45.20227" lon="4.31746">
        <ele>878</ele>
        <time>2019-12-22T12:55:09Z</time>
      </trkpt>
      <trkpt lat="45.20247" lon="4.31743">
        <ele>876</ele>
        <time>2019-12-22T12:55:12Z</time>
      </trkpt>
      <trkpt lat="45.20286" lon="4.31724">
        <ele>875</ele>
        <time>2019-12-22T12:55:20Z</time>
      </trkpt>
      <trkpt lat="45.20333" lon="4.31697">
        <ele>870</ele>
        <time>2019-12-22T12:55:29Z</time>
      </trkpt>
      <trkpt lat="45.20359" lon="4.31689">
        <ele>868</ele>
        <time>2019-12-22T12:55:33Z</time>
      </trkpt>
      <trkpt lat="45.20495" lon="4.31667">
        <ele>858</ele>
        <time>2019-12-22T12:55:58Z</time>
      </trkpt>
      <trkpt lat="45.20526" lon="4.31668">
        <ele>856</ele>
        <time>2019-12-22T12:56:03Z</time>
      </trkpt>
      <trkpt lat="45.20554" lon="4.31683">
        <ele>855</ele>
        <time>2019-12-22T12:56:09Z</time>
      </trkpt>
      <trkpt lat="45.20574" lon="4.31706">
        <ele>855</ele>
        <time>2019-12-22T12:56:13Z</time>
      </trkpt>
      <trkpt lat="45.20608" lon="4.31762">
        <ele>856</ele>
        <time>2019-12-22T12:56:23Z</time>
      </trkpt>
      <trkpt lat="45.20634" lon="4.31788">
        <ele>855</ele>
        <time>2019-12-22T12:56:28Z</time>
      </trkpt>
      <trkpt lat="45.20667" lon="4.31803">
        <ele>852</ele>
        <time>2019-12-22T12:56:34Z</time>
      </trkpt>
      <trkpt lat="45.20695" lon="4.3182">
        <ele>853</ele>
        <time>2019-12-22T12:56:40Z</time>
      </trkpt>
      <trkpt lat="45.2071" lon="4.31839">
        <ele>854</ele>
        <time>2019-12-22T12:56:43Z</time>
      </trkpt>
      <trkpt lat="45.20724" lon="4.3186">
        <ele>853</ele>
        <time>2019-12-22T12:56:47Z</time>
      </trkpt>
      <trkpt lat="45.20736" lon="4.31889">
        <ele>852</ele>
        <time>2019-12-22T12:56:51Z</time>
      </trkpt>
      <trkpt lat="45.20748" lon="4.31964">
        <ele>849</ele>
        <time>2019-12-22T12:57:01Z</time>
      </trkpt>
      <trkpt lat="45.20756" lon="4.31987">
        <ele>849</ele>
        <time>2019-12-22T12:57:04Z</time>
      </trkpt>
      <trkpt lat="45.20766" lon="4.32004">
        <ele>849</ele>
        <time>2019-12-22T12:57:07Z</time>
      </trkpt>
      <trkpt lat="45.20786" lon="4.32029">
        <ele>850</ele>
        <time>2019-12-22T12:57:12Z</time>
      </trkpt>
      <trkpt lat="45.20805" lon="4.3204">
        <ele>851</ele>
        <time>2019-12-22T12:57:15Z</time>
      </trkpt>
      <trkpt lat="45.20833" lon="4.32047">
        <ele>852</ele>
        <time>2019-12-22T12:57:20Z</time>
      </trkpt>
      <trkpt lat="45.2086" lon="4.3205">
        <ele>850</ele>
        <time>2019-12-22T12:57:25Z</time>
      </trkpt>
      <trkpt lat="45.20886" lon="4.32059">
        <ele>849</ele>
        <time>2019-12-22T12:57:30Z</time>
      </trkpt>
      <trkpt lat="45.20915" lon="4.3208">
        <ele>850</ele>
        <time>2019-12-22T12:57:36Z</time>
      </trkpt>
      <trkpt lat="45.20944" lon="4.32098">
        <ele>853</ele>
        <time>2019-12-22T12:57:41Z</time>
      </trkpt>
      <trkpt lat="45.20966" lon="4.32102">
        <ele>852</ele>
        <time>2019-12-22T12:57:45Z</time>
      </trkpt>
      <trkpt lat="45.20993" lon="4.32096">
        <ele>848</ele>
        <time>2019-12-22T12:57:50Z</time>
      </trkpt>
      <trkpt lat="45.2106" lon="4.32038">
        <ele>845</ele>
        <time>2019-12-22T12:58:04Z</time>
      </trkpt>
      <trkpt lat="45.21088" lon="4.32023">
        <ele>847</ele>
        <time>2019-12-22T12:58:09Z</time>
      </trkpt>
      <trkpt lat="45.21116" lon="4.32019">
        <ele>849</ele>
        <time>2019-12-22T12:58:14Z</time>
      </trkpt>
      <trkpt lat="45.21135" lon="4.32024">
        <ele>851</ele>
        <time>2019-12-22T12:58:18Z</time>
      </trkpt>
      <trkpt lat="45.21167" lon="4.32036">
        <ele>855</ele>
        <time>2019-12-22T12:58:24Z</time>
      </trkpt>
      <trkpt lat="45.21198" lon="4.32054">
        <ele>852</ele>
        <time>2019-12-22T12:58:30Z</time>
      </trkpt>
      <trkpt lat="45.21203" lon="4.32058">
        <ele>852</ele>
        <time>2019-12-22T12:58:31Z</time>
      </trkpt>
      <trkpt lat="45.21218" lon="4.32078">
        <ele>852</ele>
        <time>2019-12-22T12:58:34Z</time>
      </trkpt>
      <trkpt lat="45.21242" lon="4.32128">
        <ele>852</ele>
        <time>2019-12-22T12:58:42Z</time>
      </trkpt>
      <trkpt lat="45.21256" lon="4.32179">
        <ele>852</ele>
        <time>2019-12-22T12:58:49Z</time>
      </trkpt>
      <trkpt lat="45.2127" lon="4.32219">
        <ele>850</ele>
        <time>2019-12-22T12:58:54Z</time>
      </trkpt>
      <trkpt lat="45.21284" lon="4.32251">
        <ele>848</ele>
        <time>2019-12-22T12:58:59Z</time>
      </trkpt>
      <trkpt lat="45.213" lon="4.32278">
        <ele>847</ele>
        <time>2019-12-22T12:59:04Z</time>
      </trkpt>
      <trkpt lat="45.21361" lon="4.32367">
        <ele>842</ele>
        <time>2019-12-22T12:59:19Z</time>
      </trkpt>
      <trkpt lat="45.21369" lon="4.3239">
        <ele>842</ele>
        <time>2019-12-22T12:59:22Z</time>
      </trkpt>
      <trkpt lat="45.21373" lon="4.32404">
        <ele>842</ele>
        <time>2019-12-22T12:59:24Z</time>
      </trkpt>
      <trkpt lat="45.21376" lon="4.32443">
        <ele>842</ele>
        <time>2019-12-22T12:59:29Z</time>
      </trkpt>
      <trkpt lat="45.21371" lon="4.32481">
        <ele>842</ele>
        <time>2019-12-22T12:59:34Z</time>
      </trkpt>
      <trkpt lat="45.21345" lon="4.32551">
        <ele>838</ele>
        <time>2019-12-22T12:59:44Z</time>
      </trkpt>
      <trkpt lat="45.21336" lon="4.32587">
        <ele>836</ele>
        <time>2019-12-22T12:59:49Z</time>
      </trkpt>
      <trkpt lat="45.21335" lon="4.32614">
        <ele>834</ele>
        <time>2019-12-22T12:59:52Z</time>
      </trkpt>
      <trkpt lat="45.21339" lon="4.32648">
        <ele>832</ele>
        <time>2019-12-22T12:59:56Z</time>
      </trkpt>
      <trkpt lat="45.21351" lon="4.32687">
        <ele>832</ele>
        <time>2019-12-22T13:00:02Z</time>
      </trkpt>
      <trkpt lat="45.21361" lon="4.32728">
        <ele>833</ele>
        <time>2019-12-22T13:00:07Z</time>
      </trkpt>
      <trkpt lat="45.21373" lon="4.32807">
        <ele>834</ele>
        <time>2019-12-22T13:00:17Z</time>
      </trkpt>
      <trkpt lat="45.21385" lon="4.32836">
        <ele>833</ele>
        <time>2019-12-22T13:00:22Z</time>
      </trkpt>
      <trkpt lat="45.21402" lon="4.32862">
        <ele>835</ele>
        <time>2019-12-22T13:00:26Z</time>
      </trkpt>
      <trkpt lat="45.21426" lon="4.32881">
        <ele>835</ele>
        <time>2019-12-22T13:00:31Z</time>
      </trkpt>
      <trkpt lat="45.21451" lon="4.32889">
        <ele>835</ele>
        <time>2019-12-22T13:00:35Z</time>
      </trkpt>
      <trkpt lat="45.21489" lon="4.32893">
        <ele>833</ele>
        <time>2019-12-22T13:00:42Z</time>
      </trkpt>
      <trkpt lat="45.21517" lon="4.32899">
        <ele>829</ele>
        <time>2019-12-22T13:00:47Z</time>
      </trkpt>
      <trkpt lat="45.21545" lon="4.3292">
        <ele>826</ele>
        <time>2019-12-22T13:00:53Z</time>
      </trkpt>
      <trkpt lat="45.21564" lon="4.32951">
        <ele>825</ele>
        <time>2019-12-22T13:00:58Z</time>
      </trkpt>
      <trkpt lat="45.21577" lon="4.32988">
        <ele>825</ele>
        <time>2019-12-22T13:01:03Z</time>
      </trkpt>
      <trkpt lat="45.21605" lon="4.33088">
        <ele>830</ele>
        <time>2019-12-22T13:01:17Z</time>
      </trkpt>
      <trkpt lat="45.21637" lon="4.33215">
        <ele>830</ele>
        <time>2019-12-22T13:01:34Z</time>
      </trkpt>
      <trkpt lat="45.21658" lon="4.33354">
        <ele>825</ele>
        <time>2019-12-22T13:01:51Z</time>
      </trkpt>
      <trkpt lat="45.21659" lon="4.33387">
        <ele>823</ele>
        <time>2019-12-22T13:01:56Z</time>
      </trkpt>
      <trkpt lat="45.21648" lon="4.33439">
        <ele>821</ele>
        <time>2019-12-22T13:02:02Z</time>
      </trkpt>
      <trkpt lat="45.21635" lon="4.33487">
        <ele>815</ele>
        <time>2019-12-22T13:02:09Z</time>
      </trkpt>
      <trkpt lat="45.21629" lon="4.33525">
        <ele>811</ele>
        <time>2019-12-22T13:02:14Z</time>
      </trkpt>
      <trkpt lat="45.21631" lon="4.33583">
        <ele>807</ele>
        <time>2019-12-22T13:02:21Z</time>
      </trkpt>
      <trkpt lat="45.21638" lon="4.33615">
        <ele>806</ele>
        <time>2019-12-22T13:02:25Z</time>
      </trkpt>
      <trkpt lat="45.21678" lon="4.33714">
        <ele>805</ele>
        <time>2019-12-22T13:02:39Z</time>
      </trkpt>
      <trkpt lat="45.21683" lon="4.33754">
        <ele>806</ele>
        <time>2019-12-22T13:02:45Z</time>
      </trkpt>
      <trkpt lat="45.21683" lon="4.33786">
        <ele>804</ele>
        <time>2019-12-22T13:02:49Z</time>
      </trkpt>
      <trkpt lat="45.21679" lon="4.33813">
        <ele>803</ele>
        <time>2019-12-22T13:02:52Z</time>
      </trkpt>
      <trkpt lat="45.21675" lon="4.3383">
        <ele>803</ele>
        <time>2019-12-22T13:02:54Z</time>
      </trkpt>
      <trkpt lat="45.21657" lon="4.33864">
        <ele>801</ele>
        <time>2019-12-22T13:03:00Z</time>
      </trkpt>
      <trkpt lat="45.21637" lon="4.33887">
        <ele>800</ele>
        <time>2019-12-22T13:03:04Z</time>
      </trkpt>
      <trkpt lat="45.21575" lon="4.33933">
        <ele>801</ele>
        <time>2019-12-22T13:03:17Z</time>
      </trkpt>
      <trkpt lat="45.21553" lon="4.33959">
        <ele>802</ele>
        <time>2019-12-22T13:03:22Z</time>
      </trkpt>
      <trkpt lat="45.21539" lon="4.3399">
        <ele>801</ele>
        <time>2019-12-22T13:03:26Z</time>
      </trkpt>
      <trkpt lat="45.21531" lon="4.34022">
        <ele>800</ele>
        <time>2019-12-22T13:03:31Z</time>
      </trkpt>
      <trkpt lat="45.21528" lon="4.34053">
        <ele>798</ele>
        <time>2019-12-22T13:03:35Z</time>
      </trkpt>
      <trkpt lat="45.21526" lon="4.34097">
        <ele>795</ele>
        <time>2019-12-22T13:03:40Z</time>
      </trkpt>
      <trkpt lat="45.21522" lon="4.34138">
        <ele>796</ele>
        <time>2019-12-22T13:03:45Z</time>
      </trkpt>
      <trkpt lat="45.21507" lon="4.34226">
        <ele>796</ele>
        <time>2019-12-22T13:03:57Z</time>
      </trkpt>
      <trkpt lat="45.21499" lon="4.34286">
        <ele>795</ele>
        <time>2019-12-22T13:04:04Z</time>
      </trkpt>
      <trkpt lat="45.21478" lon="4.344">
        <ele>792</ele>
        <time>2019-12-22T13:04:19Z</time>
      </trkpt>
      <trkpt lat="45.21468" lon="4.34432">
        <ele>792</ele>
        <time>2019-12-22T13:04:23Z</time>
      </trkpt>
      <trkpt lat="45.21457" lon="4.34456">
        <ele>793</ele>
        <time>2019-12-22T13:04:27Z</time>
      </trkpt>
      <trkpt lat="45.21442" lon="4.34479">
        <ele>793</ele>
        <time>2019-12-22T13:04:31Z</time>
      </trkpt>
      <trkpt lat="45.21427" lon="4.34498">
        <ele>793</ele>
        <time>2019-12-22T13:04:34Z</time>
      </trkpt>
      <trkpt lat="45.21344" lon="4.34558">
        <ele>802</ele>
        <time>2019-12-22T13:04:51Z</time>
      </trkpt>
      <trkpt lat="45.21305" lon="4.34594">
        <ele>805</ele>
        <time>2019-12-22T13:04:59Z</time>
      </trkpt>
      <trkpt lat="45.21269" lon="4.34659">
        <ele>807</ele>
        <time>2019-12-22T13:05:10Z</time>
      </trkpt>
      <trkpt lat="45.21237" lon="4.3473">
        <ele>804</ele>
        <time>2019-12-22T13:05:20Z</time>
      </trkpt>
      <trkpt lat="45.21201" lon="4.34819">
        <ele>800</ele>
        <time>2019-12-22T13:05:33Z</time>
      </trkpt>
      <trkpt lat="45.21168" lon="4.34909">
        <ele>794</ele>
        <time>2019-12-22T13:05:46Z</time>
      </trkpt>
      <trkpt lat="45.21158" lon="4.34929">
        <ele>793</ele>
        <time>2019-12-22T13:05:49Z</time>
      </trkpt>
      <trkpt lat="45.21116" lon="4.34987">
        <ele>791</ele>
        <time>2019-12-22T13:05:59Z</time>
      </trkpt>
      <trkpt lat="45.21124" lon="4.34999">
        <ele>790</ele>
        <time>2019-12-22T13:06:01Z</time>
      </trkpt>
      <trkpt lat="45.21119" lon="4.35012">
        <ele>790</ele>
        <time>2019-12-22T13:06:03Z</time>
      </trkpt>
      <trkpt lat="45.21107" lon="4.35029">
        <ele>790</ele>
        <time>2019-12-22T13:06:06Z</time>
      </trkpt>
      <trkpt lat="45.21091" lon="4.35061">
        <ele>789</ele>
        <time>2019-12-22T13:06:11Z</time>
      </trkpt>
      <trkpt lat="45.21053" lon="4.35145">
        <ele>788</ele>
        <time>2019-12-22T13:06:24Z</time>
      </trkpt>
      <trkpt lat="45.21039" lon="4.35187">
        <ele>789</ele>
        <time>2019-12-22T13:06:30Z</time>
      </trkpt>
      <trkpt lat="45.21015" lon="4.35291">
        <ele>792</ele>
        <time>2019-12-22T13:06:43Z</time>
      </trkpt>
      <trkpt lat="45.21005" lon="4.35328">
        <ele>793</ele>
        <time>2019-12-22T13:06:48Z</time>
      </trkpt>
      <trkpt lat="45.20982" lon="4.35396">
        <ele>792</ele>
        <time>2019-12-22T13:06:58Z</time>
      </trkpt>
      <trkpt lat="45.20964" lon="4.35436">
        <ele>793</ele>
        <time>2019-12-22T13:07:04Z</time>
      </trkpt>
      <trkpt lat="45.20864" lon="4.3557">
        <ele>794</ele>
        <time>2019-12-22T13:07:28Z</time>
      </trkpt>
      <trkpt lat="45.20848" lon="4.35598">
        <ele>793</ele>
        <time>2019-12-22T13:07:33Z</time>
      </trkpt>
      <trkpt lat="45.20829" lon="4.35642">
        <ele>793</ele>
        <time>2019-12-22T13:07:39Z</time>
      </trkpt>
      <trkpt lat="45.2081" lon="4.35703">
        <ele>794</ele>
        <time>2019-12-22T13:07:47Z</time>
      </trkpt>
      <trkpt lat="45.20804" lon="4.35739">
        <ele>795</ele>
        <time>2019-12-22T13:07:52Z</time>
      </trkpt>
      <trkpt lat="45.20798" lon="4.35788">
        <ele>796</ele>
        <time>2019-12-22T13:07:58Z</time>
      </trkpt>
      <trkpt lat="45.20798" lon="4.35826">
        <ele>797</ele>
        <time>2019-12-22T13:08:03Z</time>
      </trkpt>
      <trkpt lat="45.20801" lon="4.35878">
        <ele>798</ele>
        <time>2019-12-22T13:08:10Z</time>
      </trkpt>
      <trkpt lat="45.20808" lon="4.35921">
        <ele>798</ele>
        <time>2019-12-22T13:08:15Z</time>
      </trkpt>
      <trkpt lat="45.20852" lon="4.36081">
        <ele>802</ele>
        <time>2019-12-22T13:08:37Z</time>
      </trkpt>
      <trkpt lat="45.20858" lon="4.36125">
        <ele>801</ele>
        <time>2019-12-22T13:08:42Z</time>
      </trkpt>
      <trkpt lat="45.2086" lon="4.36167">
        <ele>800</ele>
        <time>2019-12-22T13:08:48Z</time>
      </trkpt>
      <trkpt lat="45.2086" lon="4.36196">
        <ele>799</ele>
        <time>2019-12-22T13:08:51Z</time>
      </trkpt>
      <trkpt lat="45.20853" lon="4.3627">
        <ele>797</ele>
        <time>2019-12-22T13:09:01Z</time>
      </trkpt>
      <trkpt lat="45.20858" lon="4.36341">
        <ele>793</ele>
        <time>2019-12-22T13:09:10Z</time>
      </trkpt>
      <trkpt lat="45.20864" lon="4.36388">
        <ele>789</ele>
        <time>2019-12-22T13:09:16Z</time>
      </trkpt>
      <trkpt lat="45.20886" lon="4.3651">
        <ele>783</ele>
        <time>2019-12-22T13:09:31Z</time>
      </trkpt>
      <trkpt lat="45.20892" lon="4.36563">
        <ele>787</ele>
        <time>2019-12-22T13:09:38Z</time>
      </trkpt>
      <trkpt lat="45.20892" lon="4.36621">
        <ele>792</ele>
        <time>2019-12-22T13:09:45Z</time>
      </trkpt>
      <trkpt lat="45.20887" lon="4.3667">
        <ele>794</ele>
        <time>2019-12-22T13:09:52Z</time>
      </trkpt>
      <trkpt lat="45.20879" lon="4.3672">
        <ele>795</ele>
        <time>2019-12-22T13:09:58Z</time>
      </trkpt>
      <trkpt lat="45.2087" lon="4.36751">
        <ele>795</ele>
        <time>2019-12-22T13:10:02Z</time>
      </trkpt>
      <trkpt lat="45.2086" lon="4.36783">
        <ele>796</ele>
        <time>2019-12-22T13:10:07Z</time>
      </trkpt>
      <trkpt lat="45.20841" lon="4.36825">
        <ele>797</ele>
        <time>2019-12-22T13:10:13Z</time>
      </trkpt>
      <trkpt lat="45.2082" lon="4.36865">
        <ele>797</ele>
        <time>2019-12-22T13:10:19Z</time>
      </trkpt>
      <trkpt lat="45.20788" lon="4.36933">
        <ele>799</ele>
        <time>2019-12-22T13:10:29Z</time>
      </trkpt>
      <trkpt lat="45.2077" lon="4.36991">
        <ele>802</ele>
        <time>2019-12-22T13:10:37Z</time>
      </trkpt>
      <trkpt lat="45.2076" lon="4.37038">
        <ele>804</ele>
        <time>2019-12-22T13:10:43Z</time>
      </trkpt>
      <trkpt lat="45.20755" lon="4.37092">
        <ele>806</ele>
        <time>2019-12-22T13:10:50Z</time>
      </trkpt>
      <trkpt lat="45.20754" lon="4.37158">
        <ele>806</ele>
        <time>2019-12-22T13:10:59Z</time>
      </trkpt>
      <trkpt lat="45.20762" lon="4.37214">
        <ele>804</ele>
        <time>2019-12-22T13:11:06Z</time>
      </trkpt>
      <trkpt lat="45.20772" lon="4.37256">
        <ele>804</ele>
        <time>2019-12-22T13:11:11Z</time>
      </trkpt>
      <trkpt lat="45.20797" lon="4.37327">
        <ele>807</ele>
        <time>2019-12-22T13:11:21Z</time>
      </trkpt>
      <trkpt lat="45.20825" lon="4.37379">
        <ele>812</ele>
        <time>2019-12-22T13:11:29Z</time>
      </trkpt>
      <trkpt lat="45.20856" lon="4.37419">
        <ele>816</ele>
        <time>2019-12-22T13:11:37Z</time>
      </trkpt>
      <trkpt lat="45.20888" lon="4.37452">
        <ele>819</ele>
        <time>2019-12-22T13:11:44Z</time>
      </trkpt>
      <trkpt lat="45.20928" lon="4.37477">
        <ele>819</ele>
        <time>2019-12-22T13:11:52Z</time>
      </trkpt>
      <trkpt lat="45.20968" lon="4.37494">
        <ele>817</ele>
        <time>2019-12-22T13:11:59Z</time>
      </trkpt>
      <trkpt lat="45.21039" lon="4.37528">
        <ele>816</ele>
        <time>2019-12-22T13:12:12Z</time>
      </trkpt>
      <trkpt lat="45.21072" lon="4.37556">
        <ele>816</ele>
        <time>2019-12-22T13:12:19Z</time>
      </trkpt>
      <trkpt lat="45.21163" lon="4.37641">
        <ele>819</ele>
        <time>2019-12-22T13:12:39Z</time>
      </trkpt>
      <trkpt lat="45.21195" lon="4.37677">
        <ele>816</ele>
        <time>2019-12-22T13:12:46Z</time>
      </trkpt>
      <trkpt lat="45.21221" lon="4.37712">
        <ele>814</ele>
        <time>2019-12-22T13:12:52Z</time>
      </trkpt>
      <trkpt lat="45.21239" lon="4.37742">
        <ele>812</ele>
        <time>2019-12-22T13:12:57Z</time>
      </trkpt>
      <trkpt lat="45.21266" lon="4.37798">
        <ele>813</ele>
        <time>2019-12-22T13:13:06Z</time>
      </trkpt>
      <trkpt lat="45.2133" lon="4.38003">
        <ele>818</ele>
        <time>2019-12-22T13:13:34Z</time>
      </trkpt>
      <trkpt lat="45.21356" lon="4.38069">
        <ele>817</ele>
        <time>2019-12-22T13:13:43Z</time>
      </trkpt>
      <trkpt lat="45.21385" lon="4.38132">
        <ele>813</ele>
        <time>2019-12-22T13:13:53Z</time>
      </trkpt>
      <trkpt lat="45.21456" lon="4.38281">
        <ele>820</ele>
        <time>2019-12-22T13:14:15Z</time>
      </trkpt>
      <trkpt lat="45.21458" lon="4.38285">
        <ele>822</ele>
        <time>2019-12-22T13:14:16Z</time>
      </trkpt>
      <trkpt lat="45.21474" lon="4.38276">
        <ele>819</ele>
        <time>2019-12-22T13:14:19Z</time>
      </trkpt>
      <trkpt lat="45.21479" lon="4.38278">
        <ele>819</ele>
        <time>2019-12-22T13:14:20Z</time>
      </trkpt>
      <trkpt lat="45.21494" lon="4.38294">
        <ele>823</ele>
        <time>2019-12-22T13:14:23Z</time>
      </trkpt>
      <trkpt lat="45.21546" lon="4.38312">
        <ele>818</ele>
        <time>2019-12-22T13:14:33Z</time>
      </trkpt>
      <trkpt lat="45.21557" lon="4.38319">
        <ele>816</ele>
        <time>2019-12-22T13:14:35Z</time>
      </trkpt>
      <trkpt lat="45.21561" lon="4.38326">
        <ele>816</ele>
        <time>2019-12-22T13:14:36Z</time>
      </trkpt>
      <trkpt lat="45.21562" lon="4.38337">
        <ele>817</ele>
        <time>2019-12-22T13:14:37Z</time>
      </trkpt>
      <trkpt lat="45.2156" lon="4.38352">
        <ele>819</ele>
        <time>2019-12-22T13:14:39Z</time>
      </trkpt>
      <trkpt lat="45.21549" lon="4.38388">
        <ele>825</ele>
        <time>2019-12-22T13:14:44Z</time>
      </trkpt>
      <trkpt lat="45.21546" lon="4.38405">
        <ele>828</ele>
        <time>2019-12-22T13:14:46Z</time>
      </trkpt>
      <trkpt lat="45.21546" lon="4.3844">
        <ele>829</ele>
        <time>2019-12-22T13:14:51Z</time>
      </trkpt>
      <trkpt lat="45.21544" lon="4.38452">
        <ele>831</ele>
        <time>2019-12-22T13:14:52Z</time>
      </trkpt>
      <trkpt lat="45.21529" lon="4.38493">
        <ele>838</ele>
        <time>2019-12-22T13:14:58Z</time>
      </trkpt>
      <trkpt lat="45.21546" lon="4.38723">
        <ele>840</ele>
        <time>2019-12-22T13:15:27Z</time>
      </trkpt>
      <trkpt lat="45.21559" lon="4.38796">
        <ele>840</ele>
        <time>2019-12-22T13:15:37Z</time>
      </trkpt>
      <trkpt lat="45.21571" lon="4.38837">
        <ele>838</ele>
        <time>2019-12-22T13:15:42Z</time>
      </trkpt>
      <trkpt lat="45.21646" lon="4.39007">
        <ele>849</ele>
        <time>2019-12-22T13:16:07Z</time>
      </trkpt>
      <trkpt lat="45.21666" lon="4.39104">
        <ele>850</ele>
        <time>2019-12-22T13:16:20Z</time>
      </trkpt>
      <trkpt lat="45.21676" lon="4.39204">
        <ele>851</ele>
        <time>2019-12-22T13:16:33Z</time>
      </trkpt>
      <trkpt lat="45.21682" lon="4.39289">
        <ele>853</ele>
        <time>2019-12-22T13:16:43Z</time>
      </trkpt>
      <trkpt lat="45.21702" lon="4.39364">
        <ele>851</ele>
        <time>2019-12-22T13:16:53Z</time>
      </trkpt>
      <trkpt lat="45.21742" lon="4.3945">
        <ele>849</ele>
        <time>2019-12-22T13:17:06Z</time>
      </trkpt>
      <trkpt lat="45.21844" lon="4.39649">
        <ele>854</ele>
        <time>2019-12-22T13:17:37Z</time>
      </trkpt>
      <trkpt lat="45.21867" lon="4.39685">
        <ele>851</ele>
        <time>2019-12-22T13:17:43Z</time>
      </trkpt>
      <trkpt lat="45.21893" lon="4.39716">
        <ele>848</ele>
        <time>2019-12-22T13:17:49Z</time>
      </trkpt>
      <trkpt lat="45.21909" lon="4.39732">
        <ele>847</ele>
        <time>2019-12-22T13:17:53Z</time>
      </trkpt>
      <trkpt lat="45.21934" lon="4.39753">
        <ele>849</ele>
        <time>2019-12-22T13:17:58Z</time>
      </trkpt>
      <trkpt lat="45.22007" lon="4.39797">
        <ele>856</ele>
        <time>2019-12-22T13:18:12Z</time>
      </trkpt>
      <trkpt lat="45.22211" lon="4.39879">
        <ele>851</ele>
        <time>2019-12-22T13:18:50Z</time>
      </trkpt>
      <trkpt lat="45.22257" lon="4.39907">
        <ele>853</ele>
        <time>2019-12-22T13:18:59Z</time>
      </trkpt>
      <trkpt lat="45.22306" lon="4.39947">
        <ele>856</ele>
        <time>2019-12-22T13:19:09Z</time>
      </trkpt>
      <trkpt lat="45.22401" lon="4.40041">
        <ele>856</ele>
        <time>2019-12-22T13:19:29Z</time>
      </trkpt>
      <trkpt lat="45.22461" lon="4.40083">
        <ele>859</ele>
        <time>2019-12-22T13:19:41Z</time>
      </trkpt>
      <trkpt lat="45.22506" lon="4.40105">
        <ele>858</ele>
        <time>2019-12-22T13:19:50Z</time>
      </trkpt>
      <trkpt lat="45.22547" lon="4.40109">
        <ele>858</ele>
        <time>2019-12-22T13:19:57Z</time>
      </trkpt>
      <trkpt lat="45.22639" lon="4.40114">
        <ele>856</ele>
        <time>2019-12-22T13:20:13Z</time>
      </trkpt>
      <trkpt lat="45.2271" lon="4.40134">
        <ele>859</ele>
        <time>2019-12-22T13:20:26Z</time>
      </trkpt>
      <trkpt lat="45.2278" lon="4.40167">
        <ele>864</ele>
        <time>2019-12-22T13:20:39Z</time>
      </trkpt>
      <trkpt lat="45.22802" lon="4.40182">
        <ele>865</ele>
        <time>2019-12-22T13:20:44Z</time>
      </trkpt>
      <trkpt lat="45.22881" lon="4.40244">
        <ele>865</ele>
        <time>2019-12-22T13:21:00Z</time>
      </trkpt>
      <trkpt lat="45.22912" lon="4.40271">
        <ele>862</ele>
        <time>2019-12-22T13:21:06Z</time>
      </trkpt>
      <trkpt lat="45.22935" lon="4.40284">
        <ele>859</ele>
        <time>2019-12-22T13:21:11Z</time>
      </trkpt>
      <trkpt lat="45.22952" lon="4.40304">
        <ele>857</ele>
        <time>2019-12-22T13:21:15Z</time>
      </trkpt>
      <trkpt lat="45.22974" lon="4.40325">
        <ele>854</ele>
        <time>2019-12-22T13:21:19Z</time>
      </trkpt>
      <trkpt lat="45.23083" lon="4.40418">
        <ele>859</ele>
        <time>2019-12-22T13:21:42Z</time>
      </trkpt>
      <trkpt lat="45.23092" lon="4.40425">
        <ele>860</ele>
        <time>2019-12-22T13:21:44Z</time>
      </trkpt>
      <trkpt lat="45.23162" lon="4.40485">
        <ele>864</ele>
        <time>2019-12-22T13:21:58Z</time>
      </trkpt>
      <trkpt lat="45.23166" lon="4.4049">
        <ele>864</ele>
        <time>2019-12-22T13:21:59Z</time>
      </trkpt>
      <trkpt lat="45.23169" lon="4.40486">
        <ele>863</ele>
        <time>2019-12-22T13:22:00Z</time>
      </trkpt>
      <trkpt lat="45.23216" lon="4.40556">
        <ele>864</ele>
        <time>2019-12-22T13:22:12Z</time>
      </trkpt>
      <trkpt lat="45.23229" lon="4.40536">
        <ele>861</ele>
        <time>2019-12-22T13:22:16Z</time>
      </trkpt>
      <trkpt lat="45.23245" lon="4.40559">
        <ele>862</ele>
        <time>2019-12-22T13:22:20Z</time>
      </trkpt>
      <trkpt lat="45.23261" lon="4.40594">
        <ele>863</ele>
        <time>2019-12-22T13:22:25Z</time>
      </trkpt>
      <trkpt lat="45.23391" lon="4.40793">
        <ele>867</ele>
        <time>2019-12-22T13:22:59Z</time>
      </trkpt>
      <trkpt lat="45.23389" lon="4.408">
        <ele>869</ele>
        <time>2019-12-22T13:23:00Z</time>
      </trkpt>
      <trkpt lat="45.23447" lon="4.40893">
        <ele>875</ele>
        <time>2019-12-22T13:23:15Z</time>
      </trkpt>
      <trkpt lat="45.23463" lon="4.4092">
        <ele>874</ele>
        <time>2019-12-22T13:23:20Z</time>
      </trkpt>
      <trkpt lat="45.23479" lon="4.4096">
        <ele>873</ele>
        <time>2019-12-22T13:23:26Z</time>
      </trkpt>
      <trkpt lat="45.23508" lon="4.41048">
        <ele>874</ele>
        <time>2019-12-22T13:23:38Z</time>
      </trkpt>
      <trkpt lat="45.23636" lon="4.4148">
        <ele>878</ele>
        <time>2019-12-22T13:24:36Z</time>
      </trkpt>
      <trkpt lat="45.23764" lon="4.41923">
        <ele>882</ele>
        <time>2019-12-22T13:25:36Z</time>
      </trkpt>
      <trkpt lat="45.23848" lon="4.42141">
        <ele>885</ele>
        <time>2019-12-22T13:26:08Z</time>
      </trkpt>
      <trkpt lat="45.23876" lon="4.42206">
        <ele>886</ele>
        <time>2019-12-22T13:26:17Z</time>
      </trkpt>
      <trkpt lat="45.23986" lon="4.42438">
        <ele>890</ele>
        <time>2019-12-22T13:26:52Z</time>
      </trkpt>
      <trkpt lat="45.24047" lon="4.42578">
        <ele>895</ele>
        <time>2019-12-22T13:27:13Z</time>
      </trkpt>
      <trkpt lat="45.24062" lon="4.42635">
        <ele>895</ele>
        <time>2019-12-22T13:27:20Z</time>
      </trkpt>
      <trkpt lat="45.24072" lon="4.42686">
        <ele>895</ele>
        <time>2019-12-22T13:27:27Z</time>
      </trkpt>
      <trkpt lat="45.24078" lon="4.42742">
        <ele>898</ele>
        <time>2019-12-22T13:27:34Z</time>
      </trkpt>
      <trkpt lat="45.24088" lon="4.42877">
        <ele>899</ele>
        <time>2019-12-22T13:27:51Z</time>
      </trkpt>
      <trkpt lat="45.24117" lon="4.42848">
        <ele>893</ele>
        <time>2019-12-22T13:27:57Z</time>
      </trkpt>
      <trkpt lat="45.24121" lon="4.42838">
        <ele>892</ele>
        <time>2019-12-22T13:27:59Z</time>
      </trkpt>
      <trkpt lat="45.2412" lon="4.42788">
        <ele>891</ele>
        <time>2019-12-22T13:28:05Z</time>
      </trkpt>
      <trkpt lat="45.24115" lon="4.42738">
        <ele>890</ele>
        <time>2019-12-22T13:28:11Z</time>
      </trkpt>
      <trkpt lat="45.24103" lon="4.42692">
        <ele>890</ele>
        <time>2019-12-22T13:28:18Z</time>
      </trkpt>
      <trkpt lat="45.2409" lon="4.42576">
        <ele>888</ele>
        <time>2019-12-22T13:28:32Z</time>
      </trkpt>
      <trkpt lat="45.24076" lon="4.42517">
        <ele>884</ele>
        <time>2019-12-22T13:28:40Z</time>
      </trkpt>
      <trkpt lat="45.24068" lon="4.42466">
        <ele>881</ele>
        <time>2019-12-22T13:28:47Z</time>
      </trkpt>
      <trkpt lat="45.24065" lon="4.42374">
        <ele>876</ele>
        <time>2019-12-22T13:28:58Z</time>
      </trkpt>
      <trkpt lat="45.24082" lon="4.4234">
        <ele>873</ele>
        <time>2019-12-22T13:29:03Z</time>
      </trkpt>
      <trkpt lat="45.24087" lon="4.42318">
        <ele>876</ele>
        <time>2019-12-22T13:29:06Z</time>
      </trkpt>
      <trkpt lat="45.24085" lon="4.423">
        <ele>877</ele>
        <time>2019-12-22T13:29:09Z</time>
      </trkpt>
      <trkpt lat="45.24071" lon="4.42246">
        <ele>880</ele>
        <time>2019-12-22T13:29:16Z</time>
      </trkpt>
      <trkpt lat="45.24053" lon="4.42196">
        <ele>883</ele>
        <time>2019-12-22T13:29:23Z</time>
      </trkpt>
      <trkpt lat="45.24029" lon="4.42168">
        <ele>879</ele>
        <time>2019-12-22T13:29:28Z</time>
      </trkpt>
      <trkpt lat="45.24012" lon="4.42142">
        <ele>876</ele>
        <time>2019-12-22T13:29:33Z</time>
      </trkpt>
      <trkpt lat="45.2399" lon="4.42095">
        <ele>875</ele>
        <time>2019-12-22T13:29:40Z</time>
      </trkpt>
      <trkpt lat="45.23979" lon="4.42055">
        <ele>878</ele>
        <time>2019-12-22T13:29:45Z</time>
      </trkpt>
      <trkpt lat="45.23966" lon="4.42004">
        <ele>878</ele>
        <time>2019-12-22T13:29:52Z</time>
      </trkpt>
      <trkpt lat="45.23959" lon="4.41942">
        <ele>879</ele>
        <time>2019-12-22T13:30:00Z</time>
      </trkpt>
      <trkpt lat="45.23948" lon="4.41884">
        <ele>880</ele>
        <time>2019-12-22T13:30:07Z</time>
      </trkpt>
      <trkpt lat="45.23944" lon="4.41852">
        <ele>880</ele>
        <time>2019-12-22T13:30:12Z</time>
      </trkpt>
      <trkpt lat="45.2395" lon="4.41836">
        <ele>884</ele>
        <time>2019-12-22T13:30:14Z</time>
      </trkpt>
      <trkpt lat="45.23988" lon="4.4194">
        <ele>888</ele>
        <time>2019-12-22T13:30:28Z</time>
      </trkpt>
      <trkpt lat="45.24025" lon="4.42045">
        <ele>894</ele>
        <time>2019-12-22T13:30:43Z</time>
      </trkpt>
      <trkpt lat="45.24045" lon="4.42093">
        <ele>897</ele>
        <time>2019-12-22T13:30:50Z</time>
      </trkpt>
      <trkpt lat="45.24097" lon="4.42201">
        <ele>895</ele>
        <time>2019-12-22T13:31:07Z</time>
      </trkpt>
      <trkpt lat="45.24122" lon="4.42268">
        <ele>891</ele>
        <time>2019-12-22T13:31:16Z</time>
      </trkpt>
      <trkpt lat="45.24168" lon="4.42368">
        <ele>898</ele>
        <time>2019-12-22T13:31:31Z</time>
      </trkpt>
      <trkpt lat="45.24189" lon="4.4241">
        <ele>906</ele>
        <time>2019-12-22T13:31:38Z</time>
      </trkpt>
      <trkpt lat="45.24312" lon="4.42599">
        <ele>902</ele>
        <time>2019-12-22T13:32:10Z</time>
      </trkpt>
      <trkpt lat="45.24333" lon="4.42653">
        <ele>904</ele>
        <time>2019-12-22T13:32:17Z</time>
      </trkpt>
      <trkpt lat="45.24338" lon="4.42708">
        <ele>913</ele>
        <time>2019-12-22T13:32:24Z</time>
      </trkpt>
      <trkpt lat="45.24334" lon="4.42772">
        <ele>925</ele>
        <time>2019-12-22T13:32:32Z</time>
      </trkpt>
      <trkpt lat="45.24324" lon="4.42881">
        <ele>934</ele>
        <time>2019-12-22T13:32:46Z</time>
      </trkpt>
      <trkpt lat="45.24324" lon="4.42918">
        <ele>936</ele>
        <time>2019-12-22T13:32:51Z</time>
      </trkpt>
      <trkpt lat="45.24329" lon="4.42951">
        <ele>936</ele>
        <time>2019-12-22T13:32:55Z</time>
      </trkpt>
      <trkpt lat="45.24341" lon="4.42977">
        <ele>939</ele>
        <time>2019-12-22T13:32:59Z</time>
      </trkpt>
      <trkpt lat="45.24355" lon="4.43002">
        <ele>942</ele>
        <time>2019-12-22T13:33:03Z</time>
      </trkpt>
      <trkpt lat="45.24396" lon="4.43045">
        <ele>943</ele>
        <time>2019-12-22T13:33:12Z</time>
      </trkpt>
      <trkpt lat="45.24531" lon="4.43172">
        <ele>950</ele>
        <time>2019-12-22T13:33:41Z</time>
      </trkpt>
      <trkpt lat="45.2462" lon="4.43271">
        <ele>950</ele>
        <time>2019-12-22T13:34:01Z</time>
      </trkpt>
      <trkpt lat="45.24683" lon="4.43358">
        <ele>951</ele>
        <time>2019-12-22T13:34:17Z</time>
      </trkpt>
      <trkpt lat="45.24791" lon="4.43497">
        <ele>954</ele>
        <time>2019-12-22T13:34:43Z</time>
      </trkpt>
      <trkpt lat="45.24893" lon="4.43679">
        <ele>950</ele>
        <time>2019-12-22T13:35:12Z</time>
      </trkpt>
      <trkpt lat="45.24906" lon="4.43713">
        <ele>950</ele>
        <time>2019-12-22T13:35:17Z</time>
      </trkpt>
      <trkpt lat="45.24911" lon="4.43739">
        <ele>949</ele>
        <time>2019-12-22T13:35:20Z</time>
      </trkpt>
      <trkpt lat="45.24911" lon="4.43777">
        <ele>952</ele>
        <time>2019-12-22T13:35:25Z</time>
      </trkpt>
      <trkpt lat="45.24899" lon="4.43863">
        <ele>958</ele>
        <time>2019-12-22T13:35:36Z</time>
      </trkpt>
      <trkpt lat="45.24895" lon="4.43902">
        <ele>959</ele>
        <time>2019-12-22T13:35:41Z</time>
      </trkpt>
      <trkpt lat="45.24896" lon="4.43941">
        <ele>960</ele>
        <time>2019-12-22T13:35:45Z</time>
      </trkpt>
      <trkpt lat="45.24903" lon="4.43972">
        <ele>961</ele>
        <time>2019-12-22T13:35:50Z</time>
      </trkpt>
      <trkpt lat="45.24911" lon="4.44001">
        <ele>963</ele>
        <time>2019-12-22T13:35:53Z</time>
      </trkpt>
      <trkpt lat="45.24926" lon="4.44033">
        <ele>963</ele>
        <time>2019-12-22T13:35:58Z</time>
      </trkpt>
      <trkpt lat="45.24995" lon="4.44136">
        <ele>966</ele>
        <time>2019-12-22T13:36:16Z</time>
      </trkpt>
      <trkpt lat="45.25029" lon="4.4419">
        <ele>970</ele>
        <time>2019-12-22T13:36:25Z</time>
      </trkpt>
      <trkpt lat="45.25055" lon="4.44247">
        <ele>974</ele>
        <time>2019-12-22T13:36:34Z</time>
      </trkpt>
      <trkpt lat="45.251" lon="4.44365">
        <ele>979</ele>
        <time>2019-12-22T13:36:50Z</time>
      </trkpt>
      <trkpt lat="45.2511" lon="4.44403">
        <ele>979</ele>
        <time>2019-12-22T13:36:56Z</time>
      </trkpt>
      <trkpt lat="45.25115" lon="4.44445">
        <ele>979</ele>
        <time>2019-12-22T13:37:01Z</time>
      </trkpt>
      <trkpt lat="45.25118" lon="4.44523">
        <ele>980</ele>
        <time>2019-12-22T13:37:11Z</time>
      </trkpt>
      <trkpt lat="45.25125" lon="4.44564">
        <ele>982</ele>
        <time>2019-12-22T13:37:16Z</time>
      </trkpt>
      <trkpt lat="45.25147" lon="4.44645">
        <ele>986</ele>
        <time>2019-12-22T13:37:27Z</time>
      </trkpt>
      <trkpt lat="45.25155" lon="4.44684">
        <ele>988</ele>
        <time>2019-12-22T13:37:32Z</time>
      </trkpt>
      <trkpt lat="45.25168" lon="4.44886">
        <ele>993</ele>
        <time>2019-12-22T13:37:57Z</time>
      </trkpt>
      <trkpt lat="45.25174" lon="4.44914">
        <ele>995</ele>
        <time>2019-12-22T13:38:01Z</time>
      </trkpt>
      <trkpt lat="45.25186" lon="4.44946">
        <ele>994</ele>
        <time>2019-12-22T13:38:06Z</time>
      </trkpt>
      <trkpt lat="45.25247" lon="4.4505">
        <ele>1001</ele>
        <time>2019-12-22T13:38:23Z</time>
      </trkpt>
      <trkpt lat="45.25267" lon="4.4509">
        <ele>1007</ele>
        <time>2019-12-22T13:38:29Z</time>
      </trkpt>
      <trkpt lat="45.25273" lon="4.45106">
        <ele>1009</ele>
        <time>2019-12-22T13:38:31Z</time>
      </trkpt>
      <trkpt lat="45.2528" lon="4.45137">
        <ele>1011</ele>
        <time>2019-12-22T13:38:35Z</time>
      </trkpt>
      <trkpt lat="45.25284" lon="4.45177">
        <ele>1013</ele>
        <time>2019-12-22T13:38:40Z</time>
      </trkpt>
      <trkpt lat="45.25295" lon="4.45325">
        <ele>1016</ele>
        <time>2019-12-22T13:38:59Z</time>
      </trkpt>
      <trkpt lat="45.25303" lon="4.4536">
        <ele>1016</ele>
        <time>2019-12-22T13:39:03Z</time>
      </trkpt>
      <trkpt lat="45.25317" lon="4.45392">
        <ele>1017</ele>
        <time>2019-12-22T13:39:08Z</time>
      </trkpt>
      <trkpt lat="45.25355" lon="4.45455">
        <ele>1019</ele>
        <time>2019-12-22T13:39:18Z</time>
      </trkpt>
      <trkpt lat="45.25363" lon="4.45474">
        <ele>1019</ele>
        <time>2019-12-22T13:39:21Z</time>
      </trkpt>
      <trkpt lat="45.2537" lon="4.45503">
        <ele>1017</ele>
        <time>2019-12-22T13:39:25Z</time>
      </trkpt>
      <trkpt lat="45.25372" lon="4.45537">
        <ele>1021</ele>
        <time>2019-12-22T13:39:29Z</time>
      </trkpt>
      <trkpt lat="45.25364" lon="4.45581">
        <ele>1023</ele>
        <time>2019-12-22T13:39:35Z</time>
      </trkpt>
      <trkpt lat="45.2535" lon="4.45621">
        <ele>1023</ele>
        <time>2019-12-22T13:39:41Z</time>
      </trkpt>
      <trkpt lat="45.25329" lon="4.45699">
        <ele>1025</ele>
        <time>2019-12-22T13:39:51Z</time>
      </trkpt>
      <trkpt lat="45.25326" lon="4.45729">
        <ele>1028</ele>
        <time>2019-12-22T13:39:55Z</time>
      </trkpt>
      <trkpt lat="45.25327" lon="4.45749">
        <ele>1029</ele>
        <time>2019-12-22T13:39:57Z</time>
      </trkpt>
      <trkpt lat="45.25331" lon="4.45766">
        <ele>1028</ele>
        <time>2019-12-22T13:40:00Z</time>
      </trkpt>
      <trkpt lat="45.25338" lon="4.45785">
        <ele>1027</ele>
        <time>2019-12-22T13:40:02Z</time>
      </trkpt>
      <trkpt lat="45.25351" lon="4.45805">
        <ele>1028</ele>
        <time>2019-12-22T13:40:06Z</time>
      </trkpt>
      <trkpt lat="45.25473" lon="4.45933">
        <ele>1016</ele>
        <time>2019-12-22T13:40:33Z</time>
      </trkpt>
      <trkpt lat="45.25485" lon="4.45949">
        <ele>1015</ele>
        <time>2019-12-22T13:40:36Z</time>
      </trkpt>
      <trkpt lat="45.25496" lon="4.45967">
        <ele>1014</ele>
        <time>2019-12-22T13:40:39Z</time>
      </trkpt>
      <trkpt lat="45.25529" lon="4.46044">
        <ele>1007</ele>
        <time>2019-12-22T13:40:50Z</time>
      </trkpt>
      <trkpt lat="45.25546" lon="4.46076">
        <ele>1004</ele>
        <time>2019-12-22T13:40:55Z</time>
      </trkpt>
      <trkpt lat="45.25582" lon="4.4614">
        <ele>1001</ele>
        <time>2019-12-22T13:41:05Z</time>
      </trkpt>
      <trkpt lat="45.25601" lon="4.4619">
        <ele>999</ele>
        <time>2019-12-22T13:41:12Z</time>
      </trkpt>
      <trkpt lat="45.25626" lon="4.46267">
        <ele>992</ele>
        <time>2019-12-22T13:41:23Z</time>
      </trkpt>
      <trkpt lat="45.25659" lon="4.46322">
        <ele>988</ele>
        <time>2019-12-22T13:41:32Z</time>
      </trkpt>
      <trkpt lat="45.2569" lon="4.46348">
        <ele>988</ele>
        <time>2019-12-22T13:41:38Z</time>
      </trkpt>
      <trkpt lat="45.25727" lon="4.46373">
        <ele>990</ele>
        <time>2019-12-22T13:41:46Z</time>
      </trkpt>
      <trkpt lat="45.2575" lon="4.46398">
        <ele>990</ele>
        <time>2019-12-22T13:41:51Z</time>
      </trkpt>
      <trkpt lat="45.2582" lon="4.46528">
        <ele>980</ele>
        <time>2019-12-22T13:42:11Z</time>
      </trkpt>
      <trkpt lat="45.25829" lon="4.46558">
        <ele>976</ele>
        <time>2019-12-22T13:42:15Z</time>
      </trkpt>
      <trkpt lat="45.25837" lon="4.46595">
        <ele>973</ele>
        <time>2019-12-22T13:42:20Z</time>
      </trkpt>
      <trkpt lat="45.25833" lon="4.46644">
        <ele>968</ele>
        <time>2019-12-22T13:42:26Z</time>
      </trkpt>
      <trkpt lat="45.25836" lon="4.46701">
        <ele>964</ele>
        <time>2019-12-22T13:42:34Z</time>
      </trkpt>
      <trkpt lat="45.25847" lon="4.46751">
        <ele>961</ele>
        <time>2019-12-22T13:42:40Z</time>
      </trkpt>
      <trkpt lat="45.25854" lon="4.46765">
        <ele>960</ele>
        <time>2019-12-22T13:42:42Z</time>
      </trkpt>
      <trkpt lat="45.25871" lon="4.46791">
        <ele>959</ele>
        <time>2019-12-22T13:42:47Z</time>
      </trkpt>
      <trkpt lat="45.25889" lon="4.46807">
        <ele>960</ele>
        <time>2019-12-22T13:42:51Z</time>
      </trkpt>
      <trkpt lat="45.25918" lon="4.46821">
        <ele>964</ele>
        <time>2019-12-22T13:42:56Z</time>
      </trkpt>
      <trkpt lat="45.25937" lon="4.46826">
        <ele>966</ele>
        <time>2019-12-22T13:42:59Z</time>
      </trkpt>
      <trkpt lat="45.25945" lon="4.46831">
        <ele>966</ele>
        <time>2019-12-22T13:43:01Z</time>
      </trkpt>
      <trkpt lat="45.25954" lon="4.46843">
        <ele>965</ele>
        <time>2019-12-22T13:43:03Z</time>
      </trkpt>
      <trkpt lat="45.25956" lon="4.4686">
        <ele>963</ele>
        <time>2019-12-22T13:43:05Z</time>
      </trkpt>
      <trkpt lat="45.25952" lon="4.4687">
        <ele>960</ele>
        <time>2019-12-22T13:43:07Z</time>
      </trkpt>
      <trkpt lat="45.25946" lon="4.46877">
        <ele>958</ele>
        <time>2019-12-22T13:43:08Z</time>
      </trkpt>
      <trkpt lat="45.25923" lon="4.46887">
        <ele>951</ele>
        <time>2019-12-22T13:43:12Z</time>
      </trkpt>
      <trkpt lat="45.2591" lon="4.46888">
        <ele>947</ele>
        <time>2019-12-22T13:43:15Z</time>
      </trkpt>
      <trkpt lat="45.25897" lon="4.46885">
        <ele>945</ele>
        <time>2019-12-22T13:43:17Z</time>
      </trkpt>
      <trkpt lat="45.25888" lon="4.4688">
        <ele>944</ele>
        <time>2019-12-22T13:43:19Z</time>
      </trkpt>
      <trkpt lat="45.25862" lon="4.46851">
        <ele>944</ele>
        <time>2019-12-22T13:43:25Z</time>
      </trkpt>
      <trkpt lat="45.25765" lon="4.46711">
        <ele>937</ele>
        <time>2019-12-22T13:43:49Z</time>
      </trkpt>
      <trkpt lat="45.25747" lon="4.46676">
        <ele>936</ele>
        <time>2019-12-22T13:43:55Z</time>
      </trkpt>
      <trkpt lat="45.25724" lon="4.46637">
        <ele>938</ele>
        <time>2019-12-22T13:44:01Z</time>
      </trkpt>
      <trkpt lat="45.25714" lon="4.46622">
        <ele>938</ele>
        <time>2019-12-22T13:44:04Z</time>
      </trkpt>
      <trkpt lat="45.25682" lon="4.46588">
        <ele>936</ele>
        <time>2019-12-22T13:44:11Z</time>
      </trkpt>
      <trkpt lat="45.2563" lon="4.46505">
        <ele>943</ele>
        <time>2019-12-22T13:44:25Z</time>
      </trkpt>
      <trkpt lat="45.2562" lon="4.465">
        <ele>942</ele>
        <time>2019-12-22T13:44:27Z</time>
      </trkpt>
      <trkpt lat="45.25613" lon="4.46505">
        <ele>940</ele>
        <time>2019-12-22T13:44:28Z</time>
      </trkpt>
      <trkpt lat="45.2561" lon="4.46511">
        <ele>940</ele>
        <time>2019-12-22T13:44:29Z</time>
      </trkpt>
      <trkpt lat="45.25608" lon="4.46519">
        <ele>939</ele>
        <time>2019-12-22T13:44:30Z</time>
      </trkpt>
      <trkpt lat="45.25611" lon="4.46528">
        <ele>938</ele>
        <time>2019-12-22T13:44:31Z</time>
      </trkpt>
      <trkpt lat="45.25645" lon="4.4657">
        <ele>935</ele>
        <time>2019-12-22T13:44:39Z</time>
      </trkpt>
      <trkpt lat="45.25672" lon="4.46619">
        <ele>929</ele>
        <time>2019-12-22T13:44:47Z</time>
      </trkpt>
      <trkpt lat="45.25774" lon="4.46832">
        <ele>921</ele>
        <time>2019-12-22T13:45:19Z</time>
      </trkpt>
      <trkpt lat="45.25813" lon="4.46939">
        <ele>913</ele>
        <time>2019-12-22T13:45:34Z</time>
      </trkpt>
      <trkpt lat="45.25821" lon="4.46956">
        <ele>911</ele>
        <time>2019-12-22T13:45:37Z</time>
      </trkpt>
      <trkpt lat="45.25855" lon="4.46999">
        <ele>910</ele>
        <time>2019-12-22T13:45:45Z</time>
      </trkpt>
      <trkpt lat="45.25859" lon="4.47014">
        <ele>909</ele>
        <time>2019-12-22T13:45:47Z</time>
      </trkpt>
      <trkpt lat="45.2586" lon="4.47092">
        <ele>900</ele>
        <time>2019-12-22T13:45:57Z</time>
      </trkpt>
      <trkpt lat="45.25876" lon="4.47187">
        <ele>894</ele>
        <time>2019-12-22T13:46:09Z</time>
      </trkpt>
      <trkpt lat="45.25888" lon="4.47217">
        <ele>892</ele>
        <time>2019-12-22T13:46:13Z</time>
      </trkpt>
      <trkpt lat="45.25903" lon="4.4724">
        <ele>890</ele>
        <time>2019-12-22T13:46:17Z</time>
      </trkpt>
      <trkpt lat="45.25923" lon="4.47254">
        <ele>890</ele>
        <time>2019-12-22T13:46:21Z</time>
      </trkpt>
      <trkpt lat="45.25947" lon="4.47265">
        <ele>891</ele>
        <time>2019-12-22T13:46:26Z</time>
      </trkpt>
      <trkpt lat="45.25999" lon="4.47294">
        <ele>890</ele>
        <time>2019-12-22T13:46:36Z</time>
      </trkpt>
      <trkpt lat="45.2606" lon="4.47337">
        <ele>885</ele>
        <time>2019-12-22T13:46:48Z</time>
      </trkpt>
      <trkpt lat="45.26077" lon="4.47343">
        <ele>885</ele>
        <time>2019-12-22T13:46:51Z</time>
      </trkpt>
      <trkpt lat="45.26109" lon="4.47344">
        <ele>889</ele>
        <time>2019-12-22T13:46:57Z</time>
      </trkpt>
      <trkpt lat="45.26121" lon="4.4735">
        <ele>889</ele>
        <time>2019-12-22T13:46:59Z</time>
      </trkpt>
      <trkpt lat="45.26134" lon="4.47366">
        <ele>887</ele>
        <time>2019-12-22T13:47:02Z</time>
      </trkpt>
      <trkpt lat="45.26144" lon="4.47385">
        <ele>884</ele>
        <time>2019-12-22T13:47:05Z</time>
      </trkpt>
      <trkpt lat="45.26159" lon="4.47432">
        <ele>876</ele>
        <time>2019-12-22T13:47:11Z</time>
      </trkpt>
      <trkpt lat="45.26168" lon="4.47446">
        <ele>875</ele>
        <time>2019-12-22T13:47:14Z</time>
      </trkpt>
      <trkpt lat="45.26195" lon="4.47468">
        <ele>879</ele>
        <time>2019-12-22T13:47:19Z</time>
      </trkpt>
      <trkpt lat="45.262" lon="4.47477">
        <ele>879</ele>
        <time>2019-12-22T13:47:21Z</time>
      </trkpt>
      <trkpt lat="45.26204" lon="4.47495">
        <ele>878</ele>
        <time>2019-12-22T13:47:23Z</time>
      </trkpt>
      <trkpt lat="45.26202" lon="4.47513">
        <ele>876</ele>
        <time>2019-12-22T13:47:25Z</time>
      </trkpt>
      <trkpt lat="45.26191" lon="4.47538">
        <ele>872</ele>
        <time>2019-12-22T13:47:29Z</time>
      </trkpt>
      <trkpt lat="45.26182" lon="4.47566">
        <ele>868</ele>
        <time>2019-12-22T13:47:33Z</time>
      </trkpt>
      <trkpt lat="45.26179" lon="4.47583">
        <ele>866</ele>
        <time>2019-12-22T13:47:35Z</time>
      </trkpt>
      <trkpt lat="45.2618" lon="4.47599">
        <ele>865</ele>
        <time>2019-12-22T13:47:37Z</time>
      </trkpt>
      <trkpt lat="45.26193" lon="4.47653">
        <ele>865</ele>
        <time>2019-12-22T13:47:44Z</time>
      </trkpt>
      <trkpt lat="45.26207" lon="4.477">
        <ele>865</ele>
        <time>2019-12-22T13:47:51Z</time>
      </trkpt>
      <trkpt lat="45.26237" lon="4.47828">
        <ele>854</ele>
        <time>2019-12-22T13:48:08Z</time>
      </trkpt>
      <trkpt lat="45.26248" lon="4.47853">
        <ele>854</ele>
        <time>2019-12-22T13:48:11Z</time>
      </trkpt>
      <trkpt lat="45.26263" lon="4.47872">
        <ele>856</ele>
        <time>2019-12-22T13:48:15Z</time>
      </trkpt>
      <trkpt lat="45.26271" lon="4.47894">
        <ele>857</ele>
        <time>2019-12-22T13:48:18Z</time>
      </trkpt>
      <trkpt lat="45.26272" lon="4.4791">
        <ele>855</ele>
        <time>2019-12-22T13:48:20Z</time>
      </trkpt>
      <trkpt lat="45.26266" lon="4.47956">
        <ele>848</ele>
        <time>2019-12-22T13:48:26Z</time>
      </trkpt>
      <trkpt lat="45.26267" lon="4.4799">
        <ele>846</ele>
        <time>2019-12-22T13:48:30Z</time>
      </trkpt>
      <trkpt lat="45.26275" lon="4.48036">
        <ele>843</ele>
        <time>2019-12-22T13:48:36Z</time>
      </trkpt>
      <trkpt lat="45.26328" lon="4.48252">
        <ele>834</ele>
        <time>2019-12-22T13:49:05Z</time>
      </trkpt>
      <trkpt lat="45.2635" lon="4.48325">
        <ele>829</ele>
        <time>2019-12-22T13:49:15Z</time>
      </trkpt>
      <trkpt lat="45.26381" lon="4.48412">
        <ele>827</ele>
        <time>2019-12-22T13:49:27Z</time>
      </trkpt>
      <trkpt lat="45.26418" lon="4.4853">
        <ele>816</ele>
        <time>2019-12-22T13:49:43Z</time>
      </trkpt>
      <trkpt lat="45.26427" lon="4.48548">
        <ele>815</ele>
        <time>2019-12-22T13:49:46Z</time>
      </trkpt>
      <trkpt lat="45.26437" lon="4.48558">
        <ele>816</ele>
        <time>2019-12-22T13:49:48Z</time>
      </trkpt>
      <trkpt lat="45.26459" lon="4.48573">
        <ele>820</ele>
        <time>2019-12-22T13:49:52Z</time>
      </trkpt>
      <trkpt lat="45.26466" lon="4.48582">
        <ele>820</ele>
        <time>2019-12-22T13:49:54Z</time>
      </trkpt>
      <trkpt lat="45.2647" lon="4.48593">
        <ele>820</ele>
        <time>2019-12-22T13:49:56Z</time>
      </trkpt>
      <trkpt lat="45.26473" lon="4.48609">
        <ele>819</ele>
        <time>2019-12-22T13:49:58Z</time>
      </trkpt>
      <trkpt lat="45.26476" lon="4.48649">
        <ele>815</ele>
        <time>2019-12-22T13:50:03Z</time>
      </trkpt>
      <trkpt lat="45.26515" lon="4.48816">
        <ele>807</ele>
        <time>2019-12-22T13:50:25Z</time>
      </trkpt>
      <trkpt lat="45.26526" lon="4.48887">
        <ele>802</ele>
        <time>2019-12-22T13:50:34Z</time>
      </trkpt>
      <trkpt lat="45.26528" lon="4.48904">
        <ele>801</ele>
        <time>2019-12-22T13:50:36Z</time>
      </trkpt>
      <trkpt lat="45.26526" lon="4.48965">
        <ele>798</ele>
        <time>2019-12-22T13:50:44Z</time>
      </trkpt>
      <trkpt lat="45.2652" lon="4.49041">
        <ele>794</ele>
        <time>2019-12-22T13:50:53Z</time>
      </trkpt>
      <trkpt lat="45.26514" lon="4.49077">
        <ele>791</ele>
        <time>2019-12-22T13:50:58Z</time>
      </trkpt>
      <trkpt lat="45.26511" lon="4.49084">
        <ele>790</ele>
        <time>2019-12-22T13:50:59Z</time>
      </trkpt>
      <trkpt lat="45.26545" lon="4.49145">
        <ele>787</ele>
        <time>2019-12-22T13:51:09Z</time>
      </trkpt>
      <trkpt lat="45.26567" lon="4.49173">
        <ele>786</ele>
        <time>2019-12-22T13:51:14Z</time>
      </trkpt>
      <trkpt lat="45.2666" lon="4.49246">
        <ele>776</ele>
        <time>2019-12-22T13:51:33Z</time>
      </trkpt>
      <trkpt lat="45.26724" lon="4.49305">
        <ele>767</ele>
        <time>2019-12-22T13:51:46Z</time>
      </trkpt>
      <trkpt lat="45.26771" lon="4.4934">
        <ele>762</ele>
        <time>2019-12-22T13:51:56Z</time>
      </trkpt>
      <trkpt lat="45.2686" lon="4.49422">
        <ele>751</ele>
        <time>2019-12-22T13:52:15Z</time>
      </trkpt>
      <trkpt lat="45.26866" lon="4.49437">
        <ele>750</ele>
        <time>2019-12-22T13:52:17Z</time>
      </trkpt>
      <trkpt lat="45.26873" lon="4.49435">
        <ele>750</ele>
        <time>2019-12-22T13:52:18Z</time>
      </trkpt>
      <trkpt lat="45.26909" lon="4.49457">
        <ele>750</ele>
        <time>2019-12-22T13:52:25Z</time>
      </trkpt>
      <trkpt lat="45.26934" lon="4.49489">
        <ele>749</ele>
        <time>2019-12-22T13:52:31Z</time>
      </trkpt>
      <trkpt lat="45.26947" lon="4.49508">
        <ele>748</ele>
        <time>2019-12-22T13:52:34Z</time>
      </trkpt>
      <trkpt lat="45.26968" lon="4.49532">
        <ele>748</ele>
        <time>2019-12-22T13:52:39Z</time>
      </trkpt>
      <trkpt lat="45.26974" lon="4.49535">
        <ele>748</ele>
        <time>2019-12-22T13:52:40Z</time>
      </trkpt>
      <trkpt lat="45.27018" lon="4.49524">
        <ele>750</ele>
        <time>2019-12-22T13:52:48Z</time>
      </trkpt>
      <trkpt lat="45.27058" lon="4.49508">
        <ele>751</ele>
        <time>2019-12-22T13:52:56Z</time>
      </trkpt>
      <trkpt lat="45.2707" lon="4.49499">
        <ele>751</ele>
        <time>2019-12-22T13:52:58Z</time>
      </trkpt>
      <trkpt lat="45.27082" lon="4.49482">
        <ele>754</ele>
        <time>2019-12-22T13:53:01Z</time>
      </trkpt>
      <trkpt lat="45.27116" lon="4.4942">
        <ele>763</ele>
        <time>2019-12-22T13:53:11Z</time>
      </trkpt>
      <trkpt lat="45.27132" lon="4.494">
        <ele>765</ele>
        <time>2019-12-22T13:53:15Z</time>
      </trkpt>
      <trkpt lat="45.2715" lon="4.49398">
        <ele>764</ele>
        <time>2019-12-22T13:53:18Z</time>
      </trkpt>
      <trkpt lat="45.27163" lon="4.49416">
        <ele>761</ele>
        <time>2019-12-22T13:53:21Z</time>
      </trkpt>
      <trkpt lat="45.27165" lon="4.49422">
        <ele>761</ele>
        <time>2019-12-22T13:53:22Z</time>
      </trkpt>
      <trkpt lat="45.27166" lon="4.49443">
        <ele>762</ele>
        <time>2019-12-22T13:53:25Z</time>
      </trkpt>
      <trkpt lat="45.27161" lon="4.49486">
        <ele>764</ele>
        <time>2019-12-22T13:53:30Z</time>
      </trkpt>
      <trkpt lat="45.27144" lon="4.49578">
        <ele>762</ele>
        <time>2019-12-22T13:53:42Z</time>
      </trkpt>
      <trkpt lat="45.27147" lon="4.49603">
        <ele>761</ele>
        <time>2019-12-22T13:53:45Z</time>
      </trkpt>
      <trkpt lat="45.27152" lon="4.49615">
        <ele>762</ele>
        <time>2019-12-22T13:53:47Z</time>
      </trkpt>
      <trkpt lat="45.27182" lon="4.49653">
        <ele>767</ele>
        <time>2019-12-22T13:53:54Z</time>
      </trkpt>
      <trkpt lat="45.2723" lon="4.49702">
        <ele>775</ele>
        <time>2019-12-22T13:54:04Z</time>
      </trkpt>
      <trkpt lat="45.27245" lon="4.49725">
        <ele>776</ele>
        <time>2019-12-22T13:54:08Z</time>
      </trkpt>
      <trkpt lat="45.27289" lon="4.49816">
        <ele>778</ele>
        <time>2019-12-22T13:54:22Z</time>
      </trkpt>
      <trkpt lat="45.27327" lon="4.49891">
        <ele>781</ele>
        <time>2019-12-22T13:54:34Z</time>
      </trkpt>
      <trkpt lat="45.27359" lon="4.49965">
        <ele>780</ele>
        <time>2019-12-22T13:54:45Z</time>
      </trkpt>
      <trkpt lat="45.27388" lon="4.50015">
        <ele>781</ele>
        <time>2019-12-22T13:54:53Z</time>
      </trkpt>
      <trkpt lat="45.27425" lon="4.50054">
        <ele>788</ele>
        <time>2019-12-22T13:55:01Z</time>
      </trkpt>
      <trkpt lat="45.27458" lon="4.5012">
        <ele>786</ele>
        <time>2019-12-22T13:55:11Z</time>
      </trkpt>
      <trkpt lat="45.27472" lon="4.50139">
        <ele>787</ele>
        <time>2019-12-22T13:55:15Z</time>
      </trkpt>
      <trkpt lat="45.27523" lon="4.50191">
        <ele>793</ele>
        <time>2019-12-22T13:55:26Z</time>
      </trkpt>
      <trkpt lat="45.27546" lon="4.50225">
        <ele>793</ele>
        <time>2019-12-22T13:55:32Z</time>
      </trkpt>
      <trkpt lat="45.27558" lon="4.50238">
        <ele>794</ele>
        <time>2019-12-22T13:55:34Z</time>
      </trkpt>
      <trkpt lat="45.27569" lon="4.50244">
        <ele>795</ele>
        <time>2019-12-22T13:55:36Z</time>
      </trkpt>
      <trkpt lat="45.27583" lon="4.50246">
        <ele>798</ele>
        <time>2019-12-22T13:55:39Z</time>
      </trkpt>
      <trkpt lat="45.27594" lon="4.50243">
        <ele>797</ele>
        <time>2019-12-22T13:55:41Z</time>
      </trkpt>
      <trkpt lat="45.27604" lon="4.50237">
        <ele>797</ele>
        <time>2019-12-22T13:55:43Z</time>
      </trkpt>
      <trkpt lat="45.27614" lon="4.50227">
        <ele>799</ele>
        <time>2019-12-22T13:55:45Z</time>
      </trkpt>
      <trkpt lat="45.27762" lon="4.50035">
        <ele>821</ele>
        <time>2019-12-22T13:56:21Z</time>
      </trkpt>
      <trkpt lat="45.27775" lon="4.5001">
        <ele>822</ele>
        <time>2019-12-22T13:56:25Z</time>
      </trkpt>
      <trkpt lat="45.27787" lon="4.49982">
        <ele>821</ele>
        <time>2019-12-22T13:56:29Z</time>
      </trkpt>
      <trkpt lat="45.2778" lon="4.4992">
        <ele>828</ele>
        <time>2019-12-22T13:56:37Z</time>
      </trkpt>
      <trkpt lat="45.27767" lon="4.49841">
        <ele>835</ele>
        <time>2019-12-22T13:56:47Z</time>
      </trkpt>
      <trkpt lat="45.27753" lon="4.49783">
        <ele>841</ele>
        <time>2019-12-22T13:56:54Z</time>
      </trkpt>
      <trkpt lat="45.27751" lon="4.49753">
        <ele>842</ele>
        <time>2019-12-22T13:56:58Z</time>
      </trkpt>
      <trkpt lat="45.27769" lon="4.49655">
        <ele>843</ele>
        <time>2019-12-22T13:57:11Z</time>
      </trkpt>
      <trkpt lat="45.27785" lon="4.49635">
        <ele>843</ele>
        <time>2019-12-22T13:57:15Z</time>
      </trkpt>
      <trkpt lat="45.27792" lon="4.49631">
        <ele>843</ele>
        <time>2019-12-22T13:57:16Z</time>
      </trkpt>
      <trkpt lat="45.27842" lon="4.49635">
        <ele>838</ele>
        <time>2019-12-22T13:57:25Z</time>
      </trkpt>
      <trkpt lat="45.27903" lon="4.49636">
        <ele>840</ele>
        <time>2019-12-22T13:57:36Z</time>
      </trkpt>
      <trkpt lat="45.27954" lon="4.49658">
        <ele>840</ele>
        <time>2019-12-22T13:57:45Z</time>
      </trkpt>
      <trkpt lat="45.27966" lon="4.49661">
        <ele>841</ele>
        <time>2019-12-22T13:57:47Z</time>
      </trkpt>
      <trkpt lat="45.28047" lon="4.49663">
        <ele>849</ele>
        <time>2019-12-22T13:58:02Z</time>
      </trkpt>
      <trkpt lat="45.28057" lon="4.49666">
        <ele>849</ele>
        <time>2019-12-22T13:58:04Z</time>
      </trkpt>
      <trkpt lat="45.28068" lon="4.49673">
        <ele>849</ele>
        <time>2019-12-22T13:58:06Z</time>
      </trkpt>
      <trkpt lat="45.28084" lon="4.49689">
        <ele>849</ele>
        <time>2019-12-22T13:58:09Z</time>
      </trkpt>
      <trkpt lat="45.28092" lon="4.49694">
        <ele>848</ele>
        <time>2019-12-22T13:58:11Z</time>
      </trkpt>
      <trkpt lat="45.28101" lon="4.49695">
        <ele>848</ele>
        <time>2019-12-22T13:58:12Z</time>
      </trkpt>
      <trkpt lat="45.28109" lon="4.49694">
        <ele>848</ele>
        <time>2019-12-22T13:58:14Z</time>
      </trkpt>
      <trkpt lat="45.28118" lon="4.49689">
        <ele>848</ele>
        <time>2019-12-22T13:58:16Z</time>
      </trkpt>
      <trkpt lat="45.28133" lon="4.49673">
        <ele>850</ele>
        <time>2019-12-22T13:58:19Z</time>
      </trkpt>
      <trkpt lat="45.28149" lon="4.49651">
        <ele>853</ele>
        <time>2019-12-22T13:58:23Z</time>
      </trkpt>
      <trkpt lat="45.28181" lon="4.49601">
        <ele>858</ele>
        <time>2019-12-22T13:58:31Z</time>
      </trkpt>
      <trkpt lat="45.28208" lon="4.49546">
        <ele>862</ele>
        <time>2019-12-22T13:58:40Z</time>
      </trkpt>
      <trkpt lat="45.28239" lon="4.49475">
        <ele>867</ele>
        <time>2019-12-22T13:58:50Z</time>
      </trkpt>
      <trkpt lat="45.2827" lon="4.49378">
        <ele>874</ele>
        <time>2019-12-22T13:59:04Z</time>
      </trkpt>
      <trkpt lat="45.28277" lon="4.49362">
        <ele>876</ele>
        <time>2019-12-22T13:59:06Z</time>
      </trkpt>
      <trkpt lat="45.28286" lon="4.49353">
        <ele>877</ele>
        <time>2019-12-22T13:59:08Z</time>
      </trkpt>
      <trkpt lat="45.28293" lon="4.4935">
        <ele>877</ele>
        <time>2019-12-22T13:59:09Z</time>
      </trkpt>
      <trkpt lat="45.28302" lon="4.49351">
        <ele>877</ele>
        <time>2019-12-22T13:59:11Z</time>
      </trkpt>
      <trkpt lat="45.2831" lon="4.49357">
        <ele>877</ele>
        <time>2019-12-22T13:59:12Z</time>
      </trkpt>
      <trkpt lat="45.28323" lon="4.49376">
        <ele>876</ele>
        <time>2019-12-22T13:59:16Z</time>
      </trkpt>
      <trkpt lat="45.28337" lon="4.4944">
        <ele>875</ele>
        <time>2019-12-22T13:59:24Z</time>
      </trkpt>
      <trkpt lat="45.28345" lon="4.49571">
        <ele>878</ele>
        <time>2019-12-22T13:59:41Z</time>
      </trkpt>
      <trkpt lat="45.28368" lon="4.49804">
        <ele>888</ele>
        <time>2019-12-22T14:00:10Z</time>
      </trkpt>
      <trkpt lat="45.28369" lon="4.49832">
        <ele>888</ele>
        <time>2019-12-22T14:00:13Z</time>
      </trkpt>
      <trkpt lat="45.28368" lon="4.49887">
        <ele>889</ele>
        <time>2019-12-22T14:00:20Z</time>
      </trkpt>
      <trkpt lat="45.28373" lon="4.49959">
        <ele>892</ele>
        <time>2019-12-22T14:00:29Z</time>
      </trkpt>
      <trkpt lat="45.28377" lon="4.49995">
        <ele>893</ele>
        <time>2019-12-22T14:00:34Z</time>
      </trkpt>
      <trkpt lat="45.28391" lon="4.50062">
        <ele>895</ele>
        <time>2019-12-22T14:00:43Z</time>
      </trkpt>
      <trkpt lat="45.28409" lon="4.50125">
        <ele>899</ele>
        <time>2019-12-22T14:00:51Z</time>
      </trkpt>
      <trkpt lat="45.28437" lon="4.50208">
        <ele>902</ele>
        <time>2019-12-22T14:01:03Z</time>
      </trkpt>
      <trkpt lat="45.28466" lon="4.50271">
        <ele>906</ele>
        <time>2019-12-22T14:01:12Z</time>
      </trkpt>
      <trkpt lat="45.28476" lon="4.50301">
        <ele>908</ele>
        <time>2019-12-22T14:01:16Z</time>
      </trkpt>
      <trkpt lat="45.2848" lon="4.50317">
        <ele>908</ele>
        <time>2019-12-22T14:01:18Z</time>
      </trkpt>
      <trkpt lat="45.28482" lon="4.50334">
        <ele>908</ele>
        <time>2019-12-22T14:01:21Z</time>
      </trkpt>
      <trkpt lat="45.28481" lon="4.50366">
        <ele>909</ele>
        <time>2019-12-22T14:01:25Z</time>
      </trkpt>
      <trkpt lat="45.2846" lon="4.50532">
        <ele>914</ele>
        <time>2019-12-22T14:01:46Z</time>
      </trkpt>
      <trkpt lat="45.28459" lon="4.50551">
        <ele>915</ele>
        <time>2019-12-22T14:01:48Z</time>
      </trkpt>
      <trkpt lat="45.28461" lon="4.50578">
        <ele>917</ele>
        <time>2019-12-22T14:01:52Z</time>
      </trkpt>
      <trkpt lat="45.28465" lon="4.50602">
        <ele>918</ele>
        <time>2019-12-22T14:01:55Z</time>
      </trkpt>
      <trkpt lat="45.28481" lon="4.5064">
        <ele>921</ele>
        <time>2019-12-22T14:02:00Z</time>
      </trkpt>
      <trkpt lat="45.28491" lon="4.50651">
        <ele>923</ele>
        <time>2019-12-22T14:02:02Z</time>
      </trkpt>
      <trkpt lat="45.28513" lon="4.50668">
        <ele>924</ele>
        <time>2019-12-22T14:02:07Z</time>
      </trkpt>
      <trkpt lat="45.28534" lon="4.5067">
        <ele>923</ele>
        <time>2019-12-22T14:02:11Z</time>
      </trkpt>
      <trkpt lat="45.28543" lon="4.50668">
        <ele>923</ele>
        <time>2019-12-22T14:02:12Z</time>
      </trkpt>
      <trkpt lat="45.28562" lon="4.50657">
        <ele>924</ele>
        <time>2019-12-22T14:02:16Z</time>
      </trkpt>
      <trkpt lat="45.28584" lon="4.50637">
        <ele>927</ele>
        <time>2019-12-22T14:02:21Z</time>
      </trkpt>
      <trkpt lat="45.28616" lon="4.50602">
        <ele>930</ele>
        <time>2019-12-22T14:02:28Z</time>
      </trkpt>
      <trkpt lat="45.28628" lon="4.50592">
        <ele>931</ele>
        <time>2019-12-22T14:02:30Z</time>
      </trkpt>
      <trkpt lat="45.28646" lon="4.50582">
        <ele>932</ele>
        <time>2019-12-22T14:02:34Z</time>
      </trkpt>
      <trkpt lat="45.28704" lon="4.50566">
        <ele>933</ele>
        <time>2019-12-22T14:02:44Z</time>
      </trkpt>
      <trkpt lat="45.28797" lon="4.50516">
        <ele>945</ele>
        <time>2019-12-22T14:03:02Z</time>
      </trkpt>
      <trkpt lat="45.28818" lon="4.50514">
        <ele>946</ele>
        <time>2019-12-22T14:03:06Z</time>
      </trkpt>
      <trkpt lat="45.28843" lon="4.50518">
        <ele>946</ele>
        <time>2019-12-22T14:03:10Z</time>
      </trkpt>
      <trkpt lat="45.28893" lon="4.50521">
        <ele>947</ele>
        <time>2019-12-22T14:03:19Z</time>
      </trkpt>
      <trkpt lat="45.28913" lon="4.50513">
        <ele>950</ele>
        <time>2019-12-22T14:03:23Z</time>
      </trkpt>
      <trkpt lat="45.28999" lon="4.50437">
        <ele>952</ele>
        <time>2019-12-22T14:03:41Z</time>
      </trkpt>
      <trkpt lat="45.2902" lon="4.50413">
        <ele>954</ele>
        <time>2019-12-22T14:03:45Z</time>
      </trkpt>
      <trkpt lat="45.29032" lon="4.5039">
        <ele>956</ele>
        <time>2019-12-22T14:03:49Z</time>
      </trkpt>
      <trkpt lat="45.2904" lon="4.50366">
        <ele>958</ele>
        <time>2019-12-22T14:03:52Z</time>
      </trkpt>
      <trkpt lat="45.29049" lon="4.50315">
        <ele>963</ele>
        <time>2019-12-22T14:03:59Z</time>
      </trkpt>
      <trkpt lat="45.29055" lon="4.50292">
        <ele>966</ele>
        <time>2019-12-22T14:04:02Z</time>
      </trkpt>
      <trkpt lat="45.29065" lon="4.50272">
        <ele>968</ele>
        <time>2019-12-22T14:04:05Z</time>
      </trkpt>
      <trkpt lat="45.29078" lon="4.5026">
        <ele>969</ele>
        <time>2019-12-22T14:04:08Z</time>
      </trkpt>
      <trkpt lat="45.29095" lon="4.50255">
        <ele>971</ele>
        <time>2019-12-22T14:04:11Z</time>
      </trkpt>
      <trkpt lat="45.29108" lon="4.50256">
        <ele>972</ele>
        <time>2019-12-22T14:04:13Z</time>
      </trkpt>
      <trkpt lat="45.29119" lon="4.50261">
        <ele>973</ele>
        <time>2019-12-22T14:04:15Z</time>
      </trkpt>
      <trkpt lat="45.29134" lon="4.50278">
        <ele>971</ele>
        <time>2019-12-22T14:04:19Z</time>
      </trkpt>
      <trkpt lat="45.29146" lon="4.503">
        <ele>969</ele>
        <time>2019-12-22T14:04:22Z</time>
      </trkpt>
      <trkpt lat="45.29166" lon="4.50324">
        <ele>967</ele>
        <time>2019-12-22T14:04:27Z</time>
      </trkpt>
      <trkpt lat="45.29224" lon="4.50381">
        <ele>975</ele>
        <time>2019-12-22T14:04:39Z</time>
      </trkpt>
      <trkpt lat="45.29249" lon="4.5041">
        <ele>979</ele>
        <time>2019-12-22T14:04:45Z</time>
      </trkpt>
      <trkpt lat="45.29263" lon="4.50436">
        <ele>980</ele>
        <time>2019-12-22T14:04:49Z</time>
      </trkpt>
      <trkpt lat="45.29283" lon="4.50501">
        <ele>979</ele>
        <time>2019-12-22T14:04:58Z</time>
      </trkpt>
      <trkpt lat="45.29302" lon="4.50554">
        <ele>982</ele>
        <time>2019-12-22T14:05:06Z</time>
      </trkpt>
      <trkpt lat="45.29303" lon="4.50619">
        <ele>984</ele>
        <time>2019-12-22T14:05:14Z</time>
      </trkpt>
      <trkpt lat="45.29302" lon="4.50649">
        <ele>986</ele>
        <time>2019-12-22T14:05:18Z</time>
      </trkpt>
      <trkpt lat="45.29289" lon="4.50721">
        <ele>988</ele>
        <time>2019-12-22T14:05:27Z</time>
      </trkpt>
      <trkpt lat="45.29283" lon="4.50739">
        <ele>988</ele>
        <time>2019-12-22T14:05:29Z</time>
      </trkpt>
      <trkpt lat="45.29264" lon="4.50782">
        <ele>984</ele>
        <time>2019-12-22T14:05:36Z</time>
      </trkpt>
      <trkpt lat="45.29258" lon="4.508">
        <ele>984</ele>
        <time>2019-12-22T14:05:38Z</time>
      </trkpt>
      <trkpt lat="45.29246" lon="4.50862">
        <ele>985</ele>
        <time>2019-12-22T14:05:46Z</time>
      </trkpt>
      <trkpt lat="45.29215" lon="4.50942">
        <ele>982</ele>
        <time>2019-12-22T14:05:58Z</time>
      </trkpt>
      <trkpt lat="45.2921" lon="4.50965">
        <ele>982</ele>
        <time>2019-12-22T14:06:01Z</time>
      </trkpt>
      <trkpt lat="45.29205" lon="4.5103">
        <ele>986</ele>
        <time>2019-12-22T14:06:09Z</time>
      </trkpt>
      <trkpt lat="45.29208" lon="4.51057">
        <ele>988</ele>
        <time>2019-12-22T14:06:12Z</time>
      </trkpt>
      <trkpt lat="45.29216" lon="4.51089">
        <ele>991</ele>
        <time>2019-12-22T14:06:17Z</time>
      </trkpt>
      <trkpt lat="45.29225" lon="4.51108">
        <ele>992</ele>
        <time>2019-12-22T14:06:19Z</time>
      </trkpt>
      <trkpt lat="45.29236" lon="4.51125">
        <ele>993</ele>
        <time>2019-12-22T14:06:22Z</time>
      </trkpt>
      <trkpt lat="45.29301" lon="4.51206">
        <ele>996</ele>
        <time>2019-12-22T14:06:38Z</time>
      </trkpt>
      <trkpt lat="45.2935" lon="4.51243">
        <ele>996</ele>
        <time>2019-12-22T14:06:48Z</time>
      </trkpt>
      <trkpt lat="45.29365" lon="4.51251">
        <ele>997</ele>
        <time>2019-12-22T14:06:50Z</time>
      </trkpt>
      <trkpt lat="45.29373" lon="4.51253">
        <ele>998</ele>
        <time>2019-12-22T14:06:52Z</time>
      </trkpt>
      <trkpt lat="45.29418" lon="4.51248">
        <ele>1003</ele>
        <time>2019-12-22T14:07:00Z</time>
      </trkpt>
      <trkpt lat="45.29429" lon="4.51251">
        <ele>1004</ele>
        <time>2019-12-22T14:07:02Z</time>
      </trkpt>
      <trkpt lat="45.29441" lon="4.51258">
        <ele>1006</ele>
        <time>2019-12-22T14:07:04Z</time>
      </trkpt>
      <trkpt lat="45.29451" lon="4.5127">
        <ele>1007</ele>
        <time>2019-12-22T14:07:06Z</time>
      </trkpt>
      <trkpt lat="45.29457" lon="4.51283">
        <ele>1007</ele>
        <time>2019-12-22T14:07:08Z</time>
      </trkpt>
      <trkpt lat="45.29478" lon="4.51351">
        <ele>1004</ele>
        <time>2019-12-22T14:07:18Z</time>
      </trkpt>
      <trkpt lat="45.29484" lon="4.51375">
        <ele>1004</ele>
        <time>2019-12-22T14:07:21Z</time>
      </trkpt>
      <trkpt lat="45.29504" lon="4.51422">
        <ele>1002</ele>
        <time>2019-12-22T14:07:28Z</time>
      </trkpt>
      <trkpt lat="45.29543" lon="4.51479">
        <ele>1002</ele>
        <time>2019-12-22T14:07:38Z</time>
      </trkpt>
      <trkpt lat="45.29587" lon="4.51537">
        <ele>1003</ele>
        <time>2019-12-22T14:07:48Z</time>
      </trkpt>
      <trkpt lat="45.29631" lon="4.51566">
        <ele>999</ele>
        <time>2019-12-22T14:07:57Z</time>
      </trkpt>
      <trkpt lat="45.29676" lon="4.5158">
        <ele>995</ele>
        <time>2019-12-22T14:08:05Z</time>
      </trkpt>
      <trkpt lat="45.29732" lon="4.51582">
        <ele>992</ele>
        <time>2019-12-22T14:08:15Z</time>
      </trkpt>
      <trkpt lat="45.29776" lon="4.51588">
        <ele>991</ele>
        <time>2019-12-22T14:08:23Z</time>
      </trkpt>
      <trkpt lat="45.29838" lon="4.51611">
        <ele>992</ele>
        <time>2019-12-22T14:08:34Z</time>
      </trkpt>
      <trkpt lat="45.29889" lon="4.51622">
        <ele>987</ele>
        <time>2019-12-22T14:08:44Z</time>
      </trkpt>
      <trkpt lat="45.29914" lon="4.51606">
        <ele>986</ele>
        <time>2019-12-22T14:08:49Z</time>
      </trkpt>
      <trkpt lat="45.29951" lon="4.51556">
        <ele>981</ele>
        <time>2019-12-22T14:08:58Z</time>
      </trkpt>
      <trkpt lat="45.29978" lon="4.51505">
        <ele>979</ele>
        <time>2019-12-22T14:09:06Z</time>
      </trkpt>
      <trkpt lat="45.30008" lon="4.51461">
        <ele>976</ele>
        <time>2019-12-22T14:09:13Z</time>
      </trkpt>
      <trkpt lat="45.30068" lon="4.51397">
        <ele>970</ele>
        <time>2019-12-22T14:09:27Z</time>
      </trkpt>
      <trkpt lat="45.30105" lon="4.51377">
        <ele>968</ele>
        <time>2019-12-22T14:09:34Z</time>
      </trkpt>
      <trkpt lat="45.30158" lon="4.51373">
        <ele>962</ele>
        <time>2019-12-22T14:09:43Z</time>
      </trkpt>
      <trkpt lat="45.30249" lon="4.51378">
        <ele>953</ele>
        <time>2019-12-22T14:09:59Z</time>
      </trkpt>
      <trkpt lat="45.30305" lon="4.51371">
        <ele>952</ele>
        <time>2019-12-22T14:10:09Z</time>
      </trkpt>
      <trkpt lat="45.30337" lon="4.51364">
        <ele>952</ele>
        <time>2019-12-22T14:10:15Z</time>
      </trkpt>
      <trkpt lat="45.30349" lon="4.51373">
        <ele>952</ele>
        <time>2019-12-22T14:10:17Z</time>
      </trkpt>
      <trkpt lat="45.30353" lon="4.51393">
        <ele>949</ele>
        <time>2019-12-22T14:10:20Z</time>
      </trkpt>
      <trkpt lat="45.30346" lon="4.51416">
        <ele>946</ele>
        <time>2019-12-22T14:10:23Z</time>
      </trkpt>
      <trkpt lat="45.30316" lon="4.51465">
        <ele>939</ele>
        <time>2019-12-22T14:10:31Z</time>
      </trkpt>
      <trkpt lat="45.30254" lon="4.51503">
        <ele>936</ele>
        <time>2019-12-22T14:10:43Z</time>
      </trkpt>
      <trkpt lat="45.30243" lon="4.51524">
        <ele>935</ele>
        <time>2019-12-22T14:10:47Z</time>
      </trkpt>
      <trkpt lat="45.30242" lon="4.5155">
        <ele>933</ele>
        <time>2019-12-22T14:10:50Z</time>
      </trkpt>
      <trkpt lat="45.3028" lon="4.51666">
        <ele>924</ele>
        <time>2019-12-22T14:11:06Z</time>
      </trkpt>
      <trkpt lat="45.30295" lon="4.51687">
        <ele>923</ele>
        <time>2019-12-22T14:11:10Z</time>
      </trkpt>
      <trkpt lat="45.30325" lon="4.51709">
        <ele>922</ele>
        <time>2019-12-22T14:11:16Z</time>
      </trkpt>
      <trkpt lat="45.30345" lon="4.51733">
        <ele>923</ele>
        <time>2019-12-22T14:11:20Z</time>
      </trkpt>
      <trkpt lat="45.30361" lon="4.51774">
        <ele>923</ele>
        <time>2019-12-22T14:11:26Z</time>
      </trkpt>
      <trkpt lat="45.30369" lon="4.51818">
        <ele>923</ele>
        <time>2019-12-22T14:11:32Z</time>
      </trkpt>
      <trkpt lat="45.30386" lon="4.51875">
        <ele>922</ele>
        <time>2019-12-22T14:11:40Z</time>
      </trkpt>
      <trkpt lat="45.30393" lon="4.51891">
        <ele>923</ele>
        <time>2019-12-22T14:11:42Z</time>
      </trkpt>
      <trkpt lat="45.30403" lon="4.51903">
        <ele>924</ele>
        <time>2019-12-22T14:11:44Z</time>
      </trkpt>
      <trkpt lat="45.30412" lon="4.5191">
        <ele>925</ele>
        <time>2019-12-22T14:11:46Z</time>
      </trkpt>
      <trkpt lat="45.30423" lon="4.51913">
        <ele>926</ele>
        <time>2019-12-22T14:11:48Z</time>
      </trkpt>
      <trkpt lat="45.30447" lon="4.51909">
        <ele>927</ele>
        <time>2019-12-22T14:11:52Z</time>
      </trkpt>
      <trkpt lat="45.30526" lon="4.51947">
        <ele>931</ele>
        <time>2019-12-22T14:12:07Z</time>
      </trkpt>
      <trkpt lat="45.30545" lon="4.51967">
        <ele>933</ele>
        <time>2019-12-22T14:12:11Z</time>
      </trkpt>
      <trkpt lat="45.30597" lon="4.52048">
        <ele>938</ele>
        <time>2019-12-22T14:12:25Z</time>
      </trkpt>
      <trkpt lat="45.30657" lon="4.52156">
        <ele>940</ele>
        <time>2019-12-22T14:12:42Z</time>
      </trkpt>
      <trkpt lat="45.30677" lon="4.52177">
        <ele>942</ele>
        <time>2019-12-22T14:12:47Z</time>
      </trkpt>
      <trkpt lat="45.30701" lon="4.52176">
        <ele>944</ele>
        <time>2019-12-22T14:12:51Z</time>
      </trkpt>
      <trkpt lat="45.30737" lon="4.52157">
        <ele>949</ele>
        <time>2019-12-22T14:12:58Z</time>
      </trkpt>
      <trkpt lat="45.30752" lon="4.52143">
        <ele>952</ele>
        <time>2019-12-22T14:13:01Z</time>
      </trkpt>
      <trkpt lat="45.30768" lon="4.52141">
        <ele>951</ele>
        <time>2019-12-22T14:13:04Z</time>
      </trkpt>
      <trkpt lat="45.30884" lon="4.52199">
        <ele>942</ele>
        <time>2019-12-22T14:13:26Z</time>
      </trkpt>
      <trkpt lat="45.31017" lon="4.52272">
        <ele>929</ele>
        <time>2019-12-22T14:13:51Z</time>
      </trkpt>
      <trkpt lat="45.31077" lon="4.52299">
        <ele>924</ele>
        <time>2019-12-22T14:14:02Z</time>
      </trkpt>
      <trkpt lat="45.31113" lon="4.5233">
        <ele>921</ele>
        <time>2019-12-22T14:14:10Z</time>
      </trkpt>
      <trkpt lat="45.3114" lon="4.52357">
        <ele>916</ele>
        <time>2019-12-22T14:14:16Z</time>
      </trkpt>
      <trkpt lat="45.31162" lon="4.52392">
        <ele>912</ele>
        <time>2019-12-22T14:14:22Z</time>
      </trkpt>
      <trkpt lat="45.31189" lon="4.52467">
        <ele>909</ele>
        <time>2019-12-22T14:14:32Z</time>
      </trkpt>
      <trkpt lat="45.31202" lon="4.52529">
        <ele>904</ele>
        <time>2019-12-22T14:14:40Z</time>
      </trkpt>
      <trkpt lat="45.31207" lon="4.52581">
        <ele>901</ele>
        <time>2019-12-22T14:14:47Z</time>
      </trkpt>
      <trkpt lat="45.31237" lon="4.52735">
        <ele>883</ele>
        <time>2019-12-22T14:15:07Z</time>
      </trkpt>
      <trkpt lat="45.31255" lon="4.52799">
        <ele>878</ele>
        <time>2019-12-22T14:15:15Z</time>
      </trkpt>
      <trkpt lat="45.31253" lon="4.52856">
        <ele>878</ele>
        <time>2019-12-22T14:15:23Z</time>
      </trkpt>
      <trkpt lat="45.31241" lon="4.529">
        <ele>877</ele>
        <time>2019-12-22T14:15:29Z</time>
      </trkpt>
      <trkpt lat="45.31224" lon="4.52957">
        <ele>874</ele>
        <time>2019-12-22T14:15:36Z</time>
      </trkpt>
      <trkpt lat="45.31213" lon="4.52985">
        <ele>873</ele>
        <time>2019-12-22T14:15:40Z</time>
      </trkpt>
      <trkpt lat="45.31211" lon="4.53006">
        <ele>872</ele>
        <time>2019-12-22T14:15:43Z</time>
      </trkpt>
      <trkpt lat="45.31222" lon="4.53005">
        <ele>872</ele>
        <time>2019-12-22T14:15:45Z</time>
      </trkpt>
      <trkpt lat="45.31235" lon="4.52981">
        <ele>872</ele>
        <time>2019-12-22T14:15:49Z</time>
      </trkpt>
      <trkpt lat="45.31248" lon="4.52929">
        <ele>875</ele>
        <time>2019-12-22T14:15:56Z</time>
      </trkpt>
      <trkpt lat="45.3129" lon="4.52812">
        <ele>866</ele>
        <time>2019-12-22T14:16:12Z</time>
      </trkpt>
      <trkpt lat="45.31298" lon="4.52783">
        <ele>864</ele>
        <time>2019-12-22T14:16:16Z</time>
      </trkpt>
      <trkpt lat="45.31296" lon="4.52734">
        <ele>864</ele>
        <time>2019-12-22T14:16:22Z</time>
      </trkpt>
      <trkpt lat="45.31288" lon="4.52678">
        <ele>864</ele>
        <time>2019-12-22T14:16:29Z</time>
      </trkpt>
      <trkpt lat="45.31292" lon="4.52639">
        <ele>862</ele>
        <time>2019-12-22T14:16:34Z</time>
      </trkpt>
      <trkpt lat="45.31315" lon="4.52539">
        <ele>854</ele>
        <time>2019-12-22T14:16:47Z</time>
      </trkpt>
      <trkpt lat="45.31322" lon="4.52497">
        <ele>853</ele>
        <time>2019-12-22T14:16:53Z</time>
      </trkpt>
      <trkpt lat="45.31324" lon="4.52452">
        <ele>854</ele>
        <time>2019-12-22T14:16:58Z</time>
      </trkpt>
      <trkpt lat="45.31322" lon="4.52396">
        <ele>857</ele>
        <time>2019-12-22T14:17:05Z</time>
      </trkpt>
      <trkpt lat="45.31326" lon="4.52373">
        <ele>856</ele>
        <time>2019-12-22T14:17:08Z</time>
      </trkpt>
      <trkpt lat="45.31332" lon="4.52366">
        <ele>854</ele>
        <time>2019-12-22T14:17:10Z</time>
      </trkpt>
      <trkpt lat="45.31338" lon="4.52362">
        <ele>854</ele>
        <time>2019-12-22T14:17:11Z</time>
      </trkpt>
      <trkpt lat="45.31349" lon="4.52363">
        <ele>856</ele>
        <time>2019-12-22T14:17:13Z</time>
      </trkpt>
      <trkpt lat="45.31356" lon="4.52367">
        <ele>857</ele>
        <time>2019-12-22T14:17:14Z</time>
      </trkpt>
      <trkpt lat="45.31361" lon="4.52377">
        <ele>858</ele>
        <time>2019-12-22T14:17:16Z</time>
      </trkpt>
      <trkpt lat="45.31403" lon="4.52496">
        <ele>851</ele>
        <time>2019-12-22T14:17:32Z</time>
      </trkpt>
      <trkpt lat="45.31405" lon="4.52532">
        <ele>848</ele>
        <time>2019-12-22T14:17:37Z</time>
      </trkpt>
      <trkpt lat="45.31404" lon="4.52583">
        <ele>845</ele>
        <time>2019-12-22T14:17:43Z</time>
      </trkpt>
      <trkpt lat="45.314" lon="4.52622">
        <ele>843</ele>
        <time>2019-12-22T14:17:48Z</time>
      </trkpt>
      <trkpt lat="45.31401" lon="4.52639">
        <ele>843</ele>
        <time>2019-12-22T14:17:50Z</time>
      </trkpt>
      <trkpt lat="45.31404" lon="4.52648">
        <ele>842</ele>
        <time>2019-12-22T14:17:52Z</time>
      </trkpt>
      <trkpt lat="45.3147" lon="4.52727">
        <ele>842</ele>
        <time>2019-12-22T14:18:07Z</time>
      </trkpt>
      <trkpt lat="45.31474" lon="4.52736">
        <ele>842</ele>
        <time>2019-12-22T14:18:08Z</time>
      </trkpt>
      <trkpt lat="45.31477" lon="4.52748">
        <ele>842</ele>
        <time>2019-12-22T14:18:10Z</time>
      </trkpt>
      <trkpt lat="45.31493" lon="4.52765">
        <ele>845</ele>
        <time>2019-12-22T14:18:13Z</time>
      </trkpt>
      <trkpt lat="45.31498" lon="4.52779">
        <ele>846</ele>
        <time>2019-12-22T14:18:15Z</time>
      </trkpt>
      <trkpt lat="45.31501" lon="4.52823">
        <ele>846</ele>
        <time>2019-12-22T14:18:21Z</time>
      </trkpt>
      <trkpt lat="45.31509" lon="4.52843">
        <ele>846</ele>
        <time>2019-12-22T14:18:24Z</time>
      </trkpt>
      <trkpt lat="45.31518" lon="4.52851">
        <ele>847</ele>
        <time>2019-12-22T14:18:26Z</time>
      </trkpt>
      <trkpt lat="45.3153" lon="4.52849">
        <ele>849</ele>
        <time>2019-12-22T14:18:28Z</time>
      </trkpt>
      <trkpt lat="45.31567" lon="4.52804">
        <ele>858</ele>
        <time>2019-12-22T14:18:37Z</time>
      </trkpt>
      <trkpt lat="45.31576" lon="4.52727">
        <ele>864</ele>
        <time>2019-12-22T14:18:46Z</time>
      </trkpt>
      <trkpt lat="45.31585" lon="4.52714">
        <ele>866</ele>
        <time>2019-12-22T14:18:49Z</time>
      </trkpt>
      <trkpt lat="45.31599" lon="4.527">
        <ele>869</ele>
        <time>2019-12-22T14:18:52Z</time>
      </trkpt>
      <trkpt lat="45.31622" lon="4.52694">
        <ele>872</ele>
        <time>2019-12-22T14:18:56Z</time>
      </trkpt>
      <trkpt lat="45.31625" lon="4.52691">
        <ele>872</ele>
        <time>2019-12-22T14:18:56Z</time>
      </trkpt>
      <trkpt lat="45.31627" lon="4.52686">
        <ele>873</ele>
        <time>2019-12-22T14:18:57Z</time>
      </trkpt>
      <trkpt lat="45.31648" lon="4.527">
        <ele>874</ele>
        <time>2019-12-22T14:19:01Z</time>
      </trkpt>
      <trkpt lat="45.31656" lon="4.52712">
        <ele>874</ele>
        <time>2019-12-22T14:19:03Z</time>
      </trkpt>
      <trkpt lat="45.31677" lon="4.52735">
        <ele>873</ele>
        <time>2019-12-22T14:19:08Z</time>
      </trkpt>
      <trkpt lat="45.31689" lon="4.52746">
        <ele>873</ele>
        <time>2019-12-22T14:19:11Z</time>
      </trkpt>
      <trkpt lat="45.31698" lon="4.52767">
        <ele>872</ele>
        <time>2019-12-22T14:19:14Z</time>
      </trkpt>
      <trkpt lat="45.31714" lon="4.52758">
        <ele>875</ele>
        <time>2019-12-22T14:19:17Z</time>
      </trkpt>
      <trkpt lat="45.31727" lon="4.52764">
        <ele>876</ele>
        <time>2019-12-22T14:19:19Z</time>
      </trkpt>
      <trkpt lat="45.31732" lon="4.52769">
        <ele>876</ele>
        <time>2019-12-22T14:19:20Z</time>
      </trkpt>
      <trkpt lat="45.31734" lon="4.52776">
        <ele>876</ele>
        <time>2019-12-22T14:19:21Z</time>
      </trkpt>
      <trkpt lat="45.31733" lon="4.52845">
        <ele>875</ele>
        <time>2019-12-22T14:19:30Z</time>
      </trkpt>
      <trkpt lat="45.31735" lon="4.5286">
        <ele>876</ele>
        <time>2019-12-22T14:19:32Z</time>
      </trkpt>
      <trkpt lat="45.31738" lon="4.52867">
        <ele>877</ele>
        <time>2019-12-22T14:19:33Z</time>
      </trkpt>
      <trkpt lat="45.31743" lon="4.52871">
        <ele>878</ele>
        <time>2019-12-22T14:19:34Z</time>
      </trkpt>
      <trkpt lat="45.31754" lon="4.52874">
        <ele>881</ele>
        <time>2019-12-22T14:19:36Z</time>
      </trkpt>
      <trkpt lat="45.31764" lon="4.52867">
        <ele>883</ele>
        <time>2019-12-22T14:19:38Z</time>
      </trkpt>
      <trkpt lat="45.31767" lon="4.5286">
        <ele>883</ele>
        <time>2019-12-22T14:19:39Z</time>
      </trkpt>
      <trkpt lat="45.31798" lon="4.52734">
        <ele>889</ele>
        <time>2019-12-22T14:19:56Z</time>
      </trkpt>
      <trkpt lat="45.31803" lon="4.52728">
        <ele>891</ele>
        <time>2019-12-22T14:19:57Z</time>
      </trkpt>
      <trkpt lat="45.31809" lon="4.5273">
        <ele>891</ele>
        <time>2019-12-22T14:19:58Z</time>
      </trkpt>
      <trkpt lat="45.31811" lon="4.52736">
        <ele>891</ele>
        <time>2019-12-22T14:19:59Z</time>
      </trkpt>
      <trkpt lat="45.31815" lon="4.52759">
        <ele>891</ele>
        <time>2019-12-22T14:20:02Z</time>
      </trkpt>
      <trkpt lat="45.31811" lon="4.52865">
        <ele>893</ele>
        <time>2019-12-22T14:20:15Z</time>
      </trkpt>
      <trkpt lat="45.31779" lon="4.52949">
        <ele>892</ele>
        <time>2019-12-22T14:20:27Z</time>
      </trkpt>
      <trkpt lat="45.31768" lon="4.52981">
        <ele>893</ele>
        <time>2019-12-22T14:20:31Z</time>
      </trkpt>
      <trkpt lat="45.31733" lon="4.53139">
        <ele>901</ele>
        <time>2019-12-22T14:20:52Z</time>
      </trkpt>
      <trkpt lat="45.31729" lon="4.53175">
        <ele>903</ele>
        <time>2019-12-22T14:20:57Z</time>
      </trkpt>
      <trkpt lat="45.31709" lon="4.53214">
        <ele>900</ele>
        <time>2019-12-22T14:21:03Z</time>
      </trkpt>
      <trkpt lat="45.31702" lon="4.5325">
        <ele>900</ele>
        <time>2019-12-22T14:21:07Z</time>
      </trkpt>
      <trkpt lat="45.317" lon="4.53313">
        <ele>901</ele>
        <time>2019-12-22T14:21:15Z</time>
      </trkpt>
      <trkpt lat="45.31702" lon="4.53329">
        <ele>901</ele>
        <time>2019-12-22T14:21:17Z</time>
      </trkpt>
      <trkpt lat="45.31708" lon="4.53346">
        <ele>902</ele>
        <time>2019-12-22T14:21:20Z</time>
      </trkpt>
      <trkpt lat="45.31732" lon="4.53396">
        <ele>907</ele>
        <time>2019-12-22T14:21:27Z</time>
      </trkpt>
      <trkpt lat="45.31768" lon="4.53443">
        <ele>911</ele>
        <time>2019-12-22T14:21:36Z</time>
      </trkpt>
      <trkpt lat="45.31801" lon="4.53473">
        <ele>913</ele>
        <time>2019-12-22T14:21:43Z</time>
      </trkpt>
      <trkpt lat="45.3184" lon="4.53501">
        <ele>916</ele>
        <time>2019-12-22T14:21:51Z</time>
      </trkpt>
      <trkpt lat="45.31883" lon="4.53542">
        <ele>921</ele>
        <time>2019-12-22T14:22:00Z</time>
      </trkpt>
      <trkpt lat="45.31918" lon="4.53568">
        <ele>922</ele>
        <time>2019-12-22T14:22:07Z</time>
      </trkpt>
      <trkpt lat="45.31953" lon="4.53588">
        <ele>924</ele>
        <time>2019-12-22T14:22:14Z</time>
      </trkpt>
      <trkpt lat="45.31986" lon="4.53594">
        <ele>930</ele>
        <time>2019-12-22T14:22:19Z</time>
      </trkpt>
      <trkpt lat="45.32097" lon="4.53651">
        <ele>927</ele>
        <time>2019-12-22T14:22:40Z</time>
      </trkpt>
      <trkpt lat="45.32138" lon="4.53658">
        <ele>931</ele>
        <time>2019-12-22T14:22:48Z</time>
      </trkpt>
      <trkpt lat="45.32159" lon="4.53666">
        <ele>932</ele>
        <time>2019-12-22T14:22:52Z</time>
      </trkpt>
      <trkpt lat="45.32173" lon="4.53675">
        <ele>934</ele>
        <time>2019-12-22T14:22:54Z</time>
      </trkpt>
      <trkpt lat="45.32234" lon="4.5375">
        <ele>938</ele>
        <time>2019-12-22T14:23:09Z</time>
      </trkpt>
      <trkpt lat="45.32348" lon="4.53906">
        <ele>939</ele>
        <time>2019-12-22T14:23:37Z</time>
      </trkpt>
      <trkpt lat="45.32362" lon="4.53948">
        <ele>940</ele>
        <time>2019-12-22T14:23:43Z</time>
      </trkpt>
      <trkpt lat="45.32371" lon="4.54001">
        <ele>941</ele>
        <time>2019-12-22T14:23:50Z</time>
      </trkpt>
      <trkpt lat="45.32383" lon="4.54145">
        <ele>939</ele>
        <time>2019-12-22T14:24:08Z</time>
      </trkpt>
      <trkpt lat="45.32396" lon="4.54215">
        <ele>941</ele>
        <time>2019-12-22T14:24:17Z</time>
      </trkpt>
      <trkpt lat="45.32399" lon="4.54258">
        <ele>941</ele>
        <time>2019-12-22T14:24:22Z</time>
      </trkpt>
      <trkpt lat="45.32391" lon="4.54385">
        <ele>944</ele>
        <time>2019-12-22T14:24:38Z</time>
      </trkpt>
      <trkpt lat="45.32391" lon="4.54428">
        <ele>947</ele>
        <time>2019-12-22T14:24:43Z</time>
      </trkpt>
      <trkpt lat="45.32388" lon="4.54479">
        <ele>949</ele>
        <time>2019-12-22T14:24:50Z</time>
      </trkpt>
      <trkpt lat="45.32372" lon="4.54619">
        <ele>949</ele>
        <time>2019-12-22T14:25:08Z</time>
      </trkpt>
      <trkpt lat="45.32349" lon="4.54688">
        <ele>946</ele>
        <time>2019-12-22T14:25:17Z</time>
      </trkpt>
      <trkpt lat="45.32306" lon="4.54778">
        <ele>942</ele>
        <time>2019-12-22T14:25:31Z</time>
      </trkpt>
      <trkpt lat="45.32274" lon="4.54874">
        <ele>938</ele>
        <time>2019-12-22T14:25:44Z</time>
      </trkpt>
      <trkpt lat="45.32267" lon="4.5491">
        <ele>937</ele>
        <time>2019-12-22T14:25:49Z</time>
      </trkpt>
      <trkpt lat="45.32269" lon="4.54943">
        <ele>936</ele>
        <time>2019-12-22T14:25:53Z</time>
      </trkpt>
      <trkpt lat="45.32275" lon="4.54993">
        <ele>935</ele>
        <time>2019-12-22T14:25:59Z</time>
      </trkpt>
      <trkpt lat="45.32272" lon="4.55063">
        <ele>929</ele>
        <time>2019-12-22T14:26:08Z</time>
      </trkpt>
      <trkpt lat="45.32275" lon="4.551">
        <ele>926</ele>
        <time>2019-12-22T14:26:13Z</time>
      </trkpt>
      <trkpt lat="45.32288" lon="4.55137">
        <ele>925</ele>
        <time>2019-12-22T14:26:18Z</time>
      </trkpt>
      <trkpt lat="45.32302" lon="4.55149">
        <ele>925</ele>
        <time>2019-12-22T14:26:21Z</time>
      </trkpt>
      <trkpt lat="45.32325" lon="4.55155">
        <ele>928</ele>
        <time>2019-12-22T14:26:25Z</time>
      </trkpt>
      <trkpt lat="45.32331" lon="4.5516">
        <ele>928</ele>
        <time>2019-12-22T14:26:26Z</time>
      </trkpt>
      <trkpt lat="45.32332" lon="4.55166">
        <ele>927</ele>
        <time>2019-12-22T14:26:27Z</time>
      </trkpt>
      <trkpt lat="45.32328" lon="4.55172">
        <ele>925</ele>
        <time>2019-12-22T14:26:28Z</time>
      </trkpt>
      <trkpt lat="45.32319" lon="4.55175">
        <ele>923</ele>
        <time>2019-12-22T14:26:30Z</time>
      </trkpt>
      <trkpt lat="45.32271" lon="4.55179">
        <ele>917</ele>
        <time>2019-12-22T14:26:38Z</time>
      </trkpt>
      <trkpt lat="45.32246" lon="4.55173">
        <ele>916</ele>
        <time>2019-12-22T14:26:43Z</time>
      </trkpt>
      <trkpt lat="45.32242" lon="4.5518">
        <ele>915</ele>
        <time>2019-12-22T14:26:44Z</time>
      </trkpt>
      <trkpt lat="45.32243" lon="4.55188">
        <ele>914</ele>
        <time>2019-12-22T14:26:45Z</time>
      </trkpt>
      <trkpt lat="45.32249" lon="4.55193">
        <ele>913</ele>
        <time>2019-12-22T14:26:46Z</time>
      </trkpt>
      <trkpt lat="45.32286" lon="4.55216">
        <ele>912</ele>
        <time>2019-12-22T14:26:53Z</time>
      </trkpt>
      <trkpt lat="45.32381" lon="4.55283">
        <ele>909</ele>
        <time>2019-12-22T14:27:12Z</time>
      </trkpt>
      <trkpt lat="45.32417" lon="4.55315">
        <ele>905</ele>
        <time>2019-12-22T14:27:20Z</time>
      </trkpt>
      <trkpt lat="45.32456" lon="4.55366">
        <ele>902</ele>
        <time>2019-12-22T14:27:29Z</time>
      </trkpt>
      <trkpt lat="45.3247" lon="4.5539">
        <ele>899</ele>
        <time>2019-12-22T14:27:33Z</time>
      </trkpt>
      <trkpt lat="45.3248" lon="4.5541">
        <ele>895</ele>
        <time>2019-12-22T14:27:36Z</time>
      </trkpt>
      <trkpt lat="45.32493" lon="4.55454">
        <ele>889</ele>
        <time>2019-12-22T14:27:42Z</time>
      </trkpt>
      <trkpt lat="45.32499" lon="4.55493">
        <ele>883</ele>
        <time>2019-12-22T14:27:47Z</time>
      </trkpt>
      <trkpt lat="45.32524" lon="4.55559">
        <ele>873</ele>
        <time>2019-12-22T14:27:56Z</time>
      </trkpt>
      <trkpt lat="45.32533" lon="4.55574">
        <ele>871</ele>
        <time>2019-12-22T14:27:59Z</time>
      </trkpt>
      <trkpt lat="45.32544" lon="4.55581">
        <ele>871</ele>
        <time>2019-12-22T14:28:01Z</time>
      </trkpt>
      <trkpt lat="45.32557" lon="4.55582">
        <ele>872</ele>
        <time>2019-12-22T14:28:03Z</time>
      </trkpt>
      <trkpt lat="45.32571" lon="4.55579">
        <ele>875</ele>
        <time>2019-12-22T14:28:06Z</time>
      </trkpt>
      <trkpt lat="45.32589" lon="4.55571">
        <ele>877</ele>
        <time>2019-12-22T14:28:09Z</time>
      </trkpt>
      <trkpt lat="45.32597" lon="4.55575">
        <ele>874</ele>
        <time>2019-12-22T14:28:11Z</time>
      </trkpt>
      <trkpt lat="45.32567" lon="4.556">
        <ele>868</ele>
        <time>2019-12-22T14:28:17Z</time>
      </trkpt>
      <trkpt lat="45.32555" lon="4.55605">
        <ele>865</ele>
        <time>2019-12-22T14:28:19Z</time>
      </trkpt>
      <trkpt lat="45.32555" lon="4.5561">
        <ele>864</ele>
        <time>2019-12-22T14:28:20Z</time>
      </trkpt>
      <trkpt lat="45.3256" lon="4.55617">
        <ele>862</ele>
        <time>2019-12-22T14:28:21Z</time>
      </trkpt>
      <trkpt lat="45.32568" lon="4.55616">
        <ele>863</ele>
        <time>2019-12-22T14:28:22Z</time>
      </trkpt>
      <trkpt lat="45.32616" lon="4.55586">
        <ele>866</ele>
        <time>2019-12-22T14:28:32Z</time>
      </trkpt>
      <trkpt lat="45.32652" lon="4.55561">
        <ele>865</ele>
        <time>2019-12-22T14:28:39Z</time>
      </trkpt>
      <trkpt lat="45.32681" lon="4.5553">
        <ele>864</ele>
        <time>2019-12-22T14:28:45Z</time>
      </trkpt>
      <trkpt lat="45.32711" lon="4.55485">
        <ele>863</ele>
        <time>2019-12-22T14:28:53Z</time>
      </trkpt>
      <trkpt lat="45.32739" lon="4.55425">
        <ele>863</ele>
        <time>2019-12-22T14:29:02Z</time>
      </trkpt>
      <trkpt lat="45.32765" lon="4.5538">
        <ele>863</ele>
        <time>2019-12-22T14:29:09Z</time>
      </trkpt>
      <trkpt lat="45.32782" lon="4.55363">
        <ele>862</ele>
        <time>2019-12-22T14:29:13Z</time>
      </trkpt>
      <trkpt lat="45.32788" lon="4.55365">
        <ele>860</ele>
        <time>2019-12-22T14:29:14Z</time>
      </trkpt>
      <trkpt lat="45.32789" lon="4.55373">
        <ele>858</ele>
        <time>2019-12-22T14:29:15Z</time>
      </trkpt>
      <trkpt lat="45.32766" lon="4.5541">
        <ele>858</ele>
        <time>2019-12-22T14:29:21Z</time>
      </trkpt>
      <trkpt lat="45.32791" lon="4.55456">
        <ele>845</ele>
        <time>2019-12-22T14:29:29Z</time>
      </trkpt>
      <trkpt lat="45.32811" lon="4.55511">
        <ele>833</ele>
        <time>2019-12-22T14:29:36Z</time>
      </trkpt>
      <trkpt lat="45.32862" lon="4.55485">
        <ele>832</ele>
        <time>2019-12-22T14:29:46Z</time>
      </trkpt>
      <trkpt lat="45.32903" lon="4.5546">
        <ele>833</ele>
        <time>2019-12-22T14:29:54Z</time>
      </trkpt>
      <trkpt lat="45.32912" lon="4.55459">
        <ele>832</ele>
        <time>2019-12-22T14:29:56Z</time>
      </trkpt>
      <trkpt lat="45.32916" lon="4.55465">
        <ele>831</ele>
        <time>2019-12-22T14:29:57Z</time>
      </trkpt>
      <trkpt lat="45.32909" lon="4.55478">
        <ele>830</ele>
        <time>2019-12-22T14:29:59Z</time>
      </trkpt>
      <trkpt lat="45.32882" lon="4.55509">
        <ele>827</ele>
        <time>2019-12-22T14:30:05Z</time>
      </trkpt>
      <trkpt lat="45.32871" lon="4.55535">
        <ele>823</ele>
        <time>2019-12-22T14:30:09Z</time>
      </trkpt>
      <trkpt lat="45.32856" lon="4.55554">
        <ele>821</ele>
        <time>2019-12-22T14:30:12Z</time>
      </trkpt>
      <trkpt lat="45.32838" lon="4.55564">
        <ele>821</ele>
        <time>2019-12-22T14:30:16Z</time>
      </trkpt>
      <trkpt lat="45.32831" lon="4.55573">
        <ele>820</ele>
        <time>2019-12-22T14:30:17Z</time>
      </trkpt>
      <trkpt lat="45.32833" lon="4.55581">
        <ele>818</ele>
        <time>2019-12-22T14:30:18Z</time>
      </trkpt>
      <trkpt lat="45.32842" lon="4.55581">
        <ele>818</ele>
        <time>2019-12-22T14:30:20Z</time>
      </trkpt>
      <trkpt lat="45.32897" lon="4.55556">
        <ele>817</ele>
        <time>2019-12-22T14:30:30Z</time>
      </trkpt>
      <trkpt lat="45.32926" lon="4.55533">
        <ele>820</ele>
        <time>2019-12-22T14:30:36Z</time>
      </trkpt>
      <trkpt lat="45.3294" lon="4.55528">
        <ele>821</ele>
        <time>2019-12-22T14:30:39Z</time>
      </trkpt>
      <trkpt lat="45.32959" lon="4.55534">
        <ele>819</ele>
        <time>2019-12-22T14:30:42Z</time>
      </trkpt>
      <trkpt lat="45.32987" lon="4.55574">
        <ele>809</ele>
        <time>2019-12-22T14:30:49Z</time>
      </trkpt>
      <trkpt lat="45.33015" lon="4.55581">
        <ele>809</ele>
        <time>2019-12-22T14:30:54Z</time>
      </trkpt>
      <trkpt lat="45.33035" lon="4.55576">
        <ele>813</ele>
        <time>2019-12-22T14:30:58Z</time>
      </trkpt>
      <trkpt lat="45.33046" lon="4.55582">
        <ele>814</ele>
        <time>2019-12-22T14:31:00Z</time>
      </trkpt>
      <trkpt lat="45.3305" lon="4.55591">
        <ele>814</ele>
        <time>2019-12-22T14:31:01Z</time>
      </trkpt>
      <trkpt lat="45.33049" lon="4.55599">
        <ele>813</ele>
        <time>2019-12-22T14:31:02Z</time>
      </trkpt>
      <trkpt lat="45.33027" lon="4.55656">
        <ele>799</ele>
        <time>2019-12-22T14:31:10Z</time>
      </trkpt>
      <trkpt lat="45.33025" lon="4.55673">
        <ele>796</ele>
        <time>2019-12-22T14:31:13Z</time>
      </trkpt>
      <trkpt lat="45.33026" lon="4.55715">
        <ele>791</ele>
        <time>2019-12-22T14:31:18Z</time>
      </trkpt>
      <trkpt lat="45.33031" lon="4.55736">
        <ele>790</ele>
        <time>2019-12-22T14:31:21Z</time>
      </trkpt>
      <trkpt lat="45.33037" lon="4.55748">
        <ele>791</ele>
        <time>2019-12-22T14:31:23Z</time>
      </trkpt>
      <trkpt lat="45.33071" lon="4.55783">
        <ele>794</ele>
        <time>2019-12-22T14:31:30Z</time>
      </trkpt>
      <trkpt lat="45.33115" lon="4.55841">
        <ele>793</ele>
        <time>2019-12-22T14:31:41Z</time>
      </trkpt>
      <trkpt lat="45.33131" lon="4.55873">
        <ele>791</ele>
        <time>2019-12-22T14:31:46Z</time>
      </trkpt>
      <trkpt lat="45.33145" lon="4.559">
        <ele>789</ele>
        <time>2019-12-22T14:31:50Z</time>
      </trkpt>
      <trkpt lat="45.33155" lon="4.55927">
        <ele>785</ele>
        <time>2019-12-22T14:31:54Z</time>
      </trkpt>
      <trkpt lat="45.33171" lon="4.55994">
        <ele>770</ele>
        <time>2019-12-22T14:32:02Z</time>
      </trkpt>
      <trkpt lat="45.33178" lon="4.56">
        <ele>769</ele>
        <time>2019-12-22T14:32:04Z</time>
      </trkpt>
      <trkpt lat="45.33188" lon="4.56002">
        <ele>770</ele>
        <time>2019-12-22T14:32:06Z</time>
      </trkpt>
      <trkpt lat="45.33248" lon="4.55998">
        <ele>780</ele>
        <time>2019-12-22T14:32:16Z</time>
      </trkpt>
      <trkpt lat="45.33272" lon="4.56001">
        <ele>781</ele>
        <time>2019-12-22T14:32:21Z</time>
      </trkpt>
      <trkpt lat="45.33279" lon="4.56006">
        <ele>781</ele>
        <time>2019-12-22T14:32:22Z</time>
      </trkpt>
      <trkpt lat="45.33285" lon="4.56015">
        <ele>781</ele>
        <time>2019-12-22T14:32:24Z</time>
      </trkpt>
      <trkpt lat="45.33286" lon="4.56035">
        <ele>782</ele>
        <time>2019-12-22T14:32:26Z</time>
      </trkpt>
      <trkpt lat="45.33285" lon="4.56044">
        <ele>782</ele>
        <time>2019-12-22T14:32:27Z</time>
      </trkpt>
      <trkpt lat="45.33281" lon="4.56059">
        <ele>781</ele>
        <time>2019-12-22T14:32:29Z</time>
      </trkpt>
      <trkpt lat="45.33273" lon="4.56072">
        <ele>780</ele>
        <time>2019-12-22T14:32:31Z</time>
      </trkpt>
      <trkpt lat="45.33232" lon="4.56107">
        <ele>782</ele>
        <time>2019-12-22T14:32:40Z</time>
      </trkpt>
      <trkpt lat="45.33218" lon="4.56114">
        <ele>783</ele>
        <time>2019-12-22T14:32:43Z</time>
      </trkpt>
      <trkpt lat="45.33185" lon="4.56123">
        <ele>781</ele>
        <time>2019-12-22T14:32:49Z</time>
      </trkpt>
      <trkpt lat="45.33171" lon="4.56132">
        <ele>782</ele>
        <time>2019-12-22T14:32:51Z</time>
      </trkpt>
      <trkpt lat="45.3316" lon="4.56143">
        <ele>785</ele>
        <time>2019-12-22T14:32:54Z</time>
      </trkpt>
      <trkpt lat="45.33129" lon="4.56189">
        <ele>799</ele>
        <time>2019-12-22T14:33:02Z</time>
      </trkpt>
      <trkpt lat="45.33105" lon="4.56216">
        <ele>803</ele>
        <time>2019-12-22T14:33:07Z</time>
      </trkpt>
      <trkpt lat="45.33091" lon="4.56219">
        <ele>803</ele>
        <time>2019-12-22T14:33:10Z</time>
      </trkpt>
      <trkpt lat="45.33082" lon="4.56211">
        <ele>802</ele>
        <time>2019-12-22T14:33:11Z</time>
      </trkpt>
      <trkpt lat="45.33076" lon="4.56199">
        <ele>803</ele>
        <time>2019-12-22T14:33:13Z</time>
      </trkpt>
      <trkpt lat="45.33077" lon="4.56187">
        <ele>801</ele>
        <time>2019-12-22T14:33:15Z</time>
      </trkpt>
      <trkpt lat="45.33076" lon="4.5616">
        <ele>798</ele>
        <time>2019-12-22T14:33:18Z</time>
      </trkpt>
      <trkpt lat="45.33061" lon="4.56116">
        <ele>794</ele>
        <time>2019-12-22T14:33:24Z</time>
      </trkpt>
      <trkpt lat="45.33048" lon="4.56063">
        <ele>789</ele>
        <time>2019-12-22T14:33:31Z</time>
      </trkpt>
      <trkpt lat="45.33042" lon="4.56059">
        <ele>790</ele>
        <time>2019-12-22T14:33:33Z</time>
      </trkpt>
      <trkpt lat="45.33059" lon="4.56161">
        <ele>804</ele>
        <time>2019-12-22T14:33:46Z</time>
      </trkpt>
      <trkpt lat="45.33058" lon="4.56175">
        <ele>807</ele>
        <time>2019-12-22T14:33:47Z</time>
      </trkpt>
      <trkpt lat="45.33048" lon="4.56224">
        <ele>814</ele>
        <time>2019-12-22T14:33:54Z</time>
      </trkpt>
      <trkpt lat="45.33047" lon="4.56244">
        <ele>816</ele>
        <time>2019-12-22T14:33:56Z</time>
      </trkpt>
      <trkpt lat="45.33049" lon="4.56259">
        <ele>817</ele>
        <time>2019-12-22T14:33:58Z</time>
      </trkpt>
      <trkpt lat="45.33057" lon="4.56276">
        <ele>817</ele>
        <time>2019-12-22T14:34:01Z</time>
      </trkpt>
      <trkpt lat="45.3307" lon="4.56285">
        <ele>816</ele>
        <time>2019-12-22T14:34:03Z</time>
      </trkpt>
      <trkpt lat="45.33127" lon="4.56265">
        <ele>815</ele>
        <time>2019-12-22T14:34:14Z</time>
      </trkpt>
      <trkpt lat="45.33207" lon="4.56217">
        <ele>815</ele>
        <time>2019-12-22T14:34:29Z</time>
      </trkpt>
      <trkpt lat="45.3322" lon="4.56212">
        <ele>816</ele>
        <time>2019-12-22T14:34:32Z</time>
      </trkpt>
      <trkpt lat="45.33241" lon="4.5621">
        <ele>819</ele>
        <time>2019-12-22T14:34:35Z</time>
      </trkpt>
      <trkpt lat="45.33262" lon="4.56214">
        <ele>825</ele>
        <time>2019-12-22T14:34:39Z</time>
      </trkpt>
      <trkpt lat="45.33272" lon="4.56213">
        <ele>827</ele>
        <time>2019-12-22T14:34:41Z</time>
      </trkpt>
      <trkpt lat="45.33283" lon="4.56204">
        <ele>827</ele>
        <time>2019-12-22T14:34:43Z</time>
      </trkpt>
      <trkpt lat="45.33298" lon="4.56173">
        <ele>821</ele>
        <time>2019-12-22T14:34:48Z</time>
      </trkpt>
      <trkpt lat="45.33314" lon="4.56154">
        <ele>818</ele>
        <time>2019-12-22T14:34:52Z</time>
      </trkpt>
      <trkpt lat="45.33333" lon="4.56144">
        <ele>819</ele>
        <time>2019-12-22T14:34:55Z</time>
      </trkpt>
      <trkpt lat="45.33361" lon="4.56136">
        <ele>817</ele>
        <time>2019-12-22T14:35:00Z</time>
      </trkpt>
      <trkpt lat="45.33386" lon="4.56134">
        <ele>819</ele>
        <time>2019-12-22T14:35:05Z</time>
      </trkpt>
      <trkpt lat="45.33416" lon="4.56136">
        <ele>822</ele>
        <time>2019-12-22T14:35:10Z</time>
      </trkpt>
      <trkpt lat="45.33427" lon="4.56144">
        <ele>824</ele>
        <time>2019-12-22T14:35:12Z</time>
      </trkpt>
      <trkpt lat="45.33461" lon="4.56183">
        <ele>833</ele>
        <time>2019-12-22T14:35:20Z</time>
      </trkpt>
      <trkpt lat="45.33492" lon="4.5621">
        <ele>835</ele>
        <time>2019-12-22T14:35:27Z</time>
      </trkpt>
      <trkpt lat="45.33507" lon="4.56214">
        <ele>836</ele>
        <time>2019-12-22T14:35:29Z</time>
      </trkpt>
      <trkpt lat="45.33522" lon="4.56208">
        <ele>837</ele>
        <time>2019-12-22T14:35:32Z</time>
      </trkpt>
      <trkpt lat="45.33598" lon="4.56149">
        <ele>833</ele>
        <time>2019-12-22T14:35:47Z</time>
      </trkpt>
      <trkpt lat="45.33643" lon="4.56151">
        <ele>838</ele>
        <time>2019-12-22T14:35:55Z</time>
      </trkpt>
      <trkpt lat="45.33682" lon="4.56134">
        <ele>834</ele>
        <time>2019-12-22T14:36:03Z</time>
      </trkpt>
      <trkpt lat="45.33697" lon="4.56136">
        <ele>834</ele>
        <time>2019-12-22T14:36:05Z</time>
      </trkpt>
      <trkpt lat="45.3371" lon="4.56148">
        <ele>837</ele>
        <time>2019-12-22T14:36:08Z</time>
      </trkpt>
      <trkpt lat="45.33721" lon="4.5619">
        <ele>843</ele>
        <time>2019-12-22T14:36:14Z</time>
      </trkpt>
      <trkpt lat="45.3373" lon="4.56206">
        <ele>843</ele>
        <time>2019-12-22T14:36:16Z</time>
      </trkpt>
      <trkpt lat="45.33742" lon="4.5622">
        <ele>844</ele>
        <time>2019-12-22T14:36:19Z</time>
      </trkpt>
      <trkpt lat="45.33747" lon="4.56235">
        <ele>845</ele>
        <time>2019-12-22T14:36:21Z</time>
      </trkpt>
      <trkpt lat="45.33749" lon="4.56256">
        <ele>847</ele>
        <time>2019-12-22T14:36:24Z</time>
      </trkpt>
      <trkpt lat="45.33747" lon="4.56295">
        <ele>851</ele>
        <time>2019-12-22T14:36:29Z</time>
      </trkpt>
      <trkpt lat="45.33758" lon="4.5639">
        <ele>861</ele>
        <time>2019-12-22T14:36:41Z</time>
      </trkpt>
      <trkpt lat="45.33768" lon="4.56419">
        <ele>863</ele>
        <time>2019-12-22T14:36:45Z</time>
      </trkpt>
      <trkpt lat="45.33785" lon="4.56439">
        <ele>866</ele>
        <time>2019-12-22T14:36:49Z</time>
      </trkpt>
      <trkpt lat="45.33854" lon="4.56478">
        <ele>868</ele>
        <time>2019-12-22T14:37:02Z</time>
      </trkpt>
      <trkpt lat="45.33877" lon="4.56496">
        <ele>869</ele>
        <time>2019-12-22T14:37:07Z</time>
      </trkpt>
      <trkpt lat="45.33913" lon="4.5654">
        <ele>875</ele>
        <time>2019-12-22T14:37:15Z</time>
      </trkpt>
      <trkpt lat="45.34015" lon="4.56716">
        <ele>886</ele>
        <time>2019-12-22T14:37:44Z</time>
      </trkpt>
      <trkpt lat="45.34036" lon="4.56782">
        <ele>888</ele>
        <time>2019-12-22T14:37:53Z</time>
      </trkpt>
      <trkpt lat="45.34045" lon="4.56824">
        <ele>890</ele>
        <time>2019-12-22T14:37:58Z</time>
      </trkpt>
      <trkpt lat="45.34034" lon="4.56868">
        <ele>897</ele>
        <time>2019-12-22T14:38:04Z</time>
      </trkpt>
      <trkpt lat="45.34038" lon="4.56896">
        <ele>898</ele>
        <time>2019-12-22T14:38:08Z</time>
      </trkpt>
      <trkpt lat="45.34053" lon="4.56914">
        <ele>898</ele>
        <time>2019-12-22T14:38:11Z</time>
      </trkpt>
      <trkpt lat="45.34125" lon="4.56914">
        <ele>889</ele>
        <time>2019-12-22T14:38:24Z</time>
      </trkpt>
      <trkpt lat="45.34143" lon="4.56936">
        <ele>890</ele>
        <time>2019-12-22T14:38:28Z</time>
      </trkpt>
      <trkpt lat="45.34145" lon="4.56992">
        <ele>898</ele>
        <time>2019-12-22T14:38:35Z</time>
      </trkpt>
      <trkpt lat="45.34154" lon="4.57019">
        <ele>900</ele>
        <time>2019-12-22T14:38:39Z</time>
      </trkpt>
      <trkpt lat="45.34172" lon="4.57028">
        <ele>899</ele>
        <time>2019-12-22T14:38:42Z</time>
      </trkpt>
      <trkpt lat="45.34191" lon="4.57023">
        <ele>900</ele>
        <time>2019-12-22T14:38:46Z</time>
      </trkpt>
      <trkpt lat="45.34214" lon="4.5701">
        <ele>900</ele>
        <time>2019-12-22T14:38:50Z</time>
      </trkpt>
      <trkpt lat="45.34245" lon="4.56972">
        <ele>896</ele>
        <time>2019-12-22T14:38:57Z</time>
      </trkpt>
      <trkpt lat="45.3429" lon="4.56947">
        <ele>895</ele>
        <time>2019-12-22T14:39:06Z</time>
      </trkpt>
      <trkpt lat="45.34318" lon="4.56949">
        <ele>897</ele>
        <time>2019-12-22T14:39:11Z</time>
      </trkpt>
      <trkpt lat="45.34428" lon="4.56967">
        <ele>903</ele>
        <time>2019-12-22T14:39:31Z</time>
      </trkpt>
      <trkpt lat="45.34443" lon="4.56981">
        <ele>903</ele>
        <time>2019-12-22T14:39:34Z</time>
      </trkpt>
      <trkpt lat="45.34458" lon="4.57002">
        <ele>904</ele>
        <time>2019-12-22T14:39:38Z</time>
      </trkpt>
      <trkpt lat="45.34464" lon="4.57041">
        <ele>909</ele>
        <time>2019-12-22T14:39:43Z</time>
      </trkpt>
      <trkpt lat="45.34452" lon="4.57146">
        <ele>928</ele>
        <time>2019-12-22T14:39:56Z</time>
      </trkpt>
      <trkpt lat="45.34461" lon="4.57194">
        <ele>933</ele>
        <time>2019-12-22T14:40:02Z</time>
      </trkpt>
      <trkpt lat="45.34477" lon="4.57226">
        <ele>934</ele>
        <time>2019-12-22T14:40:07Z</time>
      </trkpt>
      <trkpt lat="45.34519" lon="4.5726">
        <ele>928</ele>
        <time>2019-12-22T14:40:16Z</time>
      </trkpt>
      <trkpt lat="45.34539" lon="4.57305">
        <ele>933</ele>
        <time>2019-12-22T14:40:22Z</time>
      </trkpt>
      <trkpt lat="45.34535" lon="4.57365">
        <ele>946</ele>
        <time>2019-12-22T14:40:30Z</time>
      </trkpt>
      <trkpt lat="45.34553" lon="4.57407">
        <ele>951</ele>
        <time>2019-12-22T14:40:36Z</time>
      </trkpt>
      <trkpt lat="45.34572" lon="4.57414">
        <ele>951</ele>
        <time>2019-12-22T14:40:39Z</time>
      </trkpt>
      <trkpt lat="45.34614" lon="4.57373">
        <ele>942</ele>
        <time>2019-12-22T14:40:48Z</time>
      </trkpt>
      <trkpt lat="45.34652" lon="4.57366">
        <ele>941</ele>
        <time>2019-12-22T14:40:55Z</time>
      </trkpt>
      <trkpt lat="45.34668" lon="4.57368">
        <ele>943</ele>
        <time>2019-12-22T14:40:58Z</time>
      </trkpt>
      <trkpt lat="45.34526" lon="4.57506">
        <ele>965</ele>
        <time>2019-12-22T14:41:29Z</time>
      </trkpt>
      <trkpt lat="45.34501" lon="4.57522">
        <ele>966</ele>
        <time>2019-12-22T14:41:34Z</time>
      </trkpt>
      <trkpt lat="45.34489" lon="4.57513">
        <ele>966</ele>
        <time>2019-12-22T14:41:36Z</time>
      </trkpt>
      <trkpt lat="45.34487" lon="4.57497">
        <ele>965</ele>
        <time>2019-12-22T14:41:38Z</time>
      </trkpt>
      <trkpt lat="45.345" lon="4.57433">
        <ele>957</ele>
        <time>2019-12-22T14:41:46Z</time>
      </trkpt>
      <trkpt lat="45.34499" lon="4.57369">
        <ele>952</ele>
        <time>2019-12-22T14:41:54Z</time>
      </trkpt>
      <trkpt lat="45.34493" lon="4.57336">
        <ele>950</ele>
        <time>2019-12-22T14:41:59Z</time>
      </trkpt>
      <trkpt lat="45.34472" lon="4.573">
        <ele>949</ele>
        <time>2019-12-22T14:42:04Z</time>
      </trkpt>
      <trkpt lat="45.34405" lon="4.57228">
        <ele>955</ele>
        <time>2019-12-22T14:42:19Z</time>
      </trkpt>
      <trkpt lat="45.34367" lon="4.5721">
        <ele>950</ele>
        <time>2019-12-22T14:42:27Z</time>
      </trkpt>
      <trkpt lat="45.34334" lon="4.57213">
        <ele>949</ele>
        <time>2019-12-22T14:42:32Z</time>
      </trkpt>
      <trkpt lat="45.34313" lon="4.57226">
        <ele>949</ele>
        <time>2019-12-22T14:42:37Z</time>
      </trkpt>
      <trkpt lat="45.34313" lon="4.57248">
        <ele>953</ele>
        <time>2019-12-22T14:42:39Z</time>
      </trkpt>
      <trkpt lat="45.34215" lon="4.57378">
        <ele>972</ele>
        <time>2019-12-22T14:43:03Z</time>
      </trkpt>
      <trkpt lat="45.34162" lon="4.5744">
        <ele>982</ele>
        <time>2019-12-22T14:43:15Z</time>
      </trkpt>
      <trkpt lat="45.34247" lon="4.57476">
        <ele>996</ele>
        <time>2019-12-22T14:43:31Z</time>
      </trkpt>
      <trkpt lat="45.34293" lon="4.57501">
        <ele>999</ele>
        <time>2019-12-22T14:43:40Z</time>
      </trkpt>
      <trkpt lat="45.34329" lon="4.57553">
        <ele>1002</ele>
        <time>2019-12-22T14:43:49Z</time>
      </trkpt>
      <trkpt lat="45.34347" lon="4.5759">
        <ele>1003</ele>
        <time>2019-12-22T14:43:55Z</time>
      </trkpt>
      <trkpt lat="45.34352" lon="4.57663">
        <ele>1008</ele>
        <time>2019-12-22T14:44:04Z</time>
      </trkpt>
      <trkpt lat="45.34361" lon="4.57748">
        <ele>1015</ele>
        <time>2019-12-22T14:44:15Z</time>
      </trkpt>
      <trkpt lat="45.34384" lon="4.57843">
        <ele>1022</ele>
        <time>2019-12-22T14:44:27Z</time>
      </trkpt>
      <trkpt lat="45.34408" lon="4.57907">
        <ele>1022</ele>
        <time>2019-12-22T14:44:36Z</time>
      </trkpt>
      <trkpt lat="45.34434" lon="4.57991">
        <ele>1024</ele>
        <time>2019-12-22T14:44:48Z</time>
      </trkpt>
      <trkpt lat="45.34455" lon="4.58038">
        <ele>1025</ele>
        <time>2019-12-22T14:44:55Z</time>
      </trkpt>
      <trkpt lat="45.34483" lon="4.58072">
        <ele>1027</ele>
        <time>2019-12-22T14:45:01Z</time>
      </trkpt>
      <trkpt lat="45.34523" lon="4.58107">
        <ele>1031</ele>
        <time>2019-12-22T14:45:10Z</time>
      </trkpt>
      <trkpt lat="45.34565" lon="4.58126">
        <ele>1035</ele>
        <time>2019-12-22T14:45:17Z</time>
      </trkpt>
      <trkpt lat="45.34616" lon="4.58139">
        <ele>1041</ele>
        <time>2019-12-22T14:45:27Z</time>
      </trkpt>
      <trkpt lat="45.3468" lon="4.58195">
        <ele>1045</ele>
        <time>2019-12-22T14:45:40Z</time>
      </trkpt>
      <trkpt lat="45.34715" lon="4.58229">
        <ele>1045</ele>
        <time>2019-12-22T14:45:47Z</time>
      </trkpt>
      <trkpt lat="45.34784" lon="4.58277">
        <ele>1047</ele>
        <time>2019-12-22T14:46:01Z</time>
      </trkpt>
      <trkpt lat="45.3482" lon="4.58323">
        <ele>1046</ele>
        <time>2019-12-22T14:46:10Z</time>
      </trkpt>
      <trkpt lat="45.34856" lon="4.5836">
        <ele>1046</ele>
        <time>2019-12-22T14:46:18Z</time>
      </trkpt>
      <trkpt lat="45.34879" lon="4.58377">
        <ele>1046</ele>
        <time>2019-12-22T14:46:22Z</time>
      </trkpt>
      <trkpt lat="45.34918" lon="4.58386">
        <ele>1047</ele>
        <time>2019-12-22T14:46:29Z</time>
      </trkpt>
      <trkpt lat="45.34948" lon="4.58389">
        <ele>1044</ele>
        <time>2019-12-22T14:46:35Z</time>
      </trkpt>
      <trkpt lat="45.35" lon="4.58371">
        <ele>1041</ele>
        <time>2019-12-22T14:46:44Z</time>
      </trkpt>
      <trkpt lat="45.35033" lon="4.58355">
        <ele>1042</ele>
        <time>2019-12-22T14:46:50Z</time>
      </trkpt>
      <trkpt lat="45.35065" lon="4.58352">
        <ele>1041</ele>
        <time>2019-12-22T14:46:56Z</time>
      </trkpt>
      <trkpt lat="45.35107" lon="4.58361">
        <ele>1043</ele>
        <time>2019-12-22T14:47:04Z</time>
      </trkpt>
      <trkpt lat="45.35125" lon="4.58368">
        <ele>1045</ele>
        <time>2019-12-22T14:47:07Z</time>
      </trkpt>
      <trkpt lat="45.35173" lon="4.58406">
        <ele>1047</ele>
        <time>2019-12-22T14:47:17Z</time>
      </trkpt>
      <trkpt lat="45.35199" lon="4.58413">
        <ele>1050</ele>
        <time>2019-12-22T14:47:21Z</time>
      </trkpt>
      <trkpt lat="45.35261" lon="4.58418">
        <ele>1058</ele>
        <time>2019-12-22T14:47:32Z</time>
      </trkpt>
      <trkpt lat="45.35343" lon="4.58378">
        <ele>1069</ele>
        <time>2019-12-22T14:47:48Z</time>
      </trkpt>
      <trkpt lat="45.35361" lon="4.58372">
        <ele>1069</ele>
        <time>2019-12-22T14:47:51Z</time>
      </trkpt>
      <trkpt lat="45.35393" lon="4.58405">
        <ele>1071</ele>
        <time>2019-12-22T14:47:58Z</time>
      </trkpt>
      <trkpt lat="45.3542" lon="4.58411">
        <ele>1073</ele>
        <time>2019-12-22T14:48:03Z</time>
      </trkpt>
      <trkpt lat="45.35444" lon="4.58423">
        <ele>1073</ele>
        <time>2019-12-22T14:48:08Z</time>
      </trkpt>
      <trkpt lat="45.35467" lon="4.58445">
        <ele>1074</ele>
        <time>2019-12-22T14:48:13Z</time>
      </trkpt>
      <trkpt lat="45.35524" lon="4.5849">
        <ele>1077</ele>
        <time>2019-12-22T14:48:24Z</time>
      </trkpt>
      <trkpt lat="45.35538" lon="4.58511">
        <ele>1077</ele>
        <time>2019-12-22T14:48:28Z</time>
      </trkpt>
      <trkpt lat="45.3556" lon="4.58529">
        <ele>1076</ele>
        <time>2019-12-22T14:48:32Z</time>
      </trkpt>
      <trkpt lat="45.35579" lon="4.58528">
        <ele>1076</ele>
        <time>2019-12-22T14:48:36Z</time>
      </trkpt>
      <trkpt lat="45.3562" lon="4.58516">
        <ele>1078</ele>
        <time>2019-12-22T14:48:43Z</time>
      </trkpt>
      <trkpt lat="45.35677" lon="4.58489">
        <ele>1079</ele>
        <time>2019-12-22T14:48:54Z</time>
      </trkpt>
      <trkpt lat="45.3571" lon="4.58476">
        <ele>1080</ele>
        <time>2019-12-22T14:49:00Z</time>
      </trkpt>
      <trkpt lat="45.35739" lon="4.58471">
        <ele>1082</ele>
        <time>2019-12-22T14:49:05Z</time>
      </trkpt>
      <trkpt lat="45.35756" lon="4.58478">
        <ele>1083</ele>
        <time>2019-12-22T14:49:08Z</time>
      </trkpt>
      <trkpt lat="45.35812" lon="4.58557">
        <ele>1088</ele>
        <time>2019-12-22T14:49:22Z</time>
      </trkpt>
      <trkpt lat="45.35824" lon="4.58581">
        <ele>1090</ele>
        <time>2019-12-22T14:49:26Z</time>
      </trkpt>
      <trkpt lat="45.35839" lon="4.58594">
        <ele>1090</ele>
        <time>2019-12-22T14:49:29Z</time>
      </trkpt>
      <trkpt lat="45.3586" lon="4.586">
        <ele>1090</ele>
        <time>2019-12-22T14:49:33Z</time>
      </trkpt>
      <trkpt lat="45.35881" lon="4.586">
        <ele>1091</ele>
        <time>2019-12-22T14:49:37Z</time>
      </trkpt>
      <trkpt lat="45.35878" lon="4.58622">
        <ele>1090</ele>
        <time>2019-12-22T14:49:39Z</time>
      </trkpt>
      <trkpt lat="45.35882" lon="4.58644">
        <ele>1089</ele>
        <time>2019-12-22T14:49:42Z</time>
      </trkpt>
      <trkpt lat="45.3589" lon="4.58662">
        <ele>1089</ele>
        <time>2019-12-22T14:49:45Z</time>
      </trkpt>
      <trkpt lat="45.35982" lon="4.58827">
        <ele>1084</ele>
        <time>2019-12-22T14:50:11Z</time>
      </trkpt>
      <trkpt lat="45.36021" lon="4.58885">
        <ele>1083</ele>
        <time>2019-12-22T14:50:21Z</time>
      </trkpt>
      <trkpt lat="45.3604" lon="4.58919">
        <ele>1081</ele>
        <time>2019-12-22T14:50:27Z</time>
      </trkpt>
      <trkpt lat="45.36056" lon="4.58961">
        <ele>1081</ele>
        <time>2019-12-22T14:50:33Z</time>
      </trkpt>
      <trkpt lat="45.36089" lon="4.59034">
        <ele>1082</ele>
        <time>2019-12-22T14:50:44Z</time>
      </trkpt>
      <trkpt lat="45.36105" lon="4.59108">
        <ele>1081</ele>
        <time>2019-12-22T14:50:53Z</time>
      </trkpt>
      <trkpt lat="45.36123" lon="4.59149">
        <ele>1083</ele>
        <time>2019-12-22T14:50:59Z</time>
      </trkpt>
      <trkpt lat="45.36127" lon="4.59185">
        <ele>1081</ele>
        <time>2019-12-22T14:51:04Z</time>
      </trkpt>
      <trkpt lat="45.3612" lon="4.59221">
        <ele>1077</ele>
        <time>2019-12-22T14:51:09Z</time>
      </trkpt>
      <trkpt lat="45.36108" lon="4.59255">
        <ele>1073</ele>
        <time>2019-12-22T14:51:13Z</time>
      </trkpt>
      <trkpt lat="45.36088" lon="4.59326">
        <ele>1067</ele>
        <time>2019-12-22T14:51:23Z</time>
      </trkpt>
      <trkpt lat="45.3608" lon="4.59386">
        <ele>1064</ele>
        <time>2019-12-22T14:51:30Z</time>
      </trkpt>
      <trkpt lat="45.36078" lon="4.59447">
        <ele>1061</ele>
        <time>2019-12-22T14:51:38Z</time>
      </trkpt>
      <trkpt lat="45.36083" lon="4.59471">
        <ele>1061</ele>
        <time>2019-12-22T14:51:41Z</time>
      </trkpt>
      <trkpt lat="45.3609" lon="4.59493">
        <ele>1061</ele>
        <time>2019-12-22T14:51:44Z</time>
      </trkpt>
      <trkpt lat="45.36107" lon="4.59535">
        <ele>1062</ele>
        <time>2019-12-22T14:51:50Z</time>
      </trkpt>
      <trkpt lat="45.36126" lon="4.59571">
        <ele>1063</ele>
        <time>2019-12-22T14:51:56Z</time>
      </trkpt>
      <trkpt lat="45.36155" lon="4.59609">
        <ele>1064</ele>
        <time>2019-12-22T14:52:03Z</time>
      </trkpt>
      <trkpt lat="45.36255" lon="4.59698">
        <ele>1060</ele>
        <time>2019-12-22T14:52:24Z</time>
      </trkpt>
      <trkpt lat="45.36356" lon="4.59775">
        <ele>1056</ele>
        <time>2019-12-22T14:52:44Z</time>
      </trkpt>
      <trkpt lat="45.36398" lon="4.59818">
        <ele>1055</ele>
        <time>2019-12-22T14:52:54Z</time>
      </trkpt>
      <trkpt lat="45.36438" lon="4.59869">
        <ele>1054</ele>
        <time>2019-12-22T14:53:03Z</time>
      </trkpt>
      <trkpt lat="45.36487" lon="4.60017">
        <ele>1042</ele>
        <time>2019-12-22T14:53:24Z</time>
      </trkpt>
      <trkpt lat="45.36512" lon="4.60077">
        <ele>1040</ele>
        <time>2019-12-22T14:53:32Z</time>
      </trkpt>
      <trkpt lat="45.36539" lon="4.60128">
        <ele>1036</ele>
        <time>2019-12-22T14:53:40Z</time>
      </trkpt>
      <trkpt lat="45.36562" lon="4.60155">
        <ele>1036</ele>
        <time>2019-12-22T14:53:46Z</time>
      </trkpt>
      <trkpt lat="45.3659" lon="4.60174">
        <ele>1037</ele>
        <time>2019-12-22T14:53:51Z</time>
      </trkpt>
      <trkpt lat="45.36624" lon="4.6017">
        <ele>1035</ele>
        <time>2019-12-22T14:53:57Z</time>
      </trkpt>
      <trkpt lat="45.36645" lon="4.60153">
        <ele>1037</ele>
        <time>2019-12-22T14:54:01Z</time>
      </trkpt>
      <trkpt lat="45.36668" lon="4.60132">
        <ele>1040</ele>
        <time>2019-12-22T14:54:06Z</time>
      </trkpt>
      <trkpt lat="45.36728" lon="4.60102">
        <ele>1037</ele>
        <time>2019-12-22T14:54:18Z</time>
      </trkpt>
      <trkpt lat="45.36774" lon="4.60102">
        <ele>1030</ele>
        <time>2019-12-22T14:54:26Z</time>
      </trkpt>
      <trkpt lat="45.36917" lon="4.60047">
        <ele>1027</ele>
        <time>2019-12-22T14:54:52Z</time>
      </trkpt>
      <trkpt lat="45.3696" lon="4.60015">
        <ele>1029</ele>
        <time>2019-12-22T14:55:01Z</time>
      </trkpt>
      <trkpt lat="45.37005" lon="4.59967">
        <ele>1036</ele>
        <time>2019-12-22T14:55:11Z</time>
      </trkpt>
      <trkpt lat="45.37052" lon="4.59931">
        <ele>1038</ele>
        <time>2019-12-22T14:55:20Z</time>
      </trkpt>
      <trkpt lat="45.37097" lon="4.59891">
        <ele>1040</ele>
        <time>2019-12-22T14:55:30Z</time>
      </trkpt>
      <trkpt lat="45.3715" lon="4.59745">
        <ele>1051</ele>
        <time>2019-12-22T14:55:50Z</time>
      </trkpt>
      <trkpt lat="45.37157" lon="4.59739">
        <ele>1050</ele>
        <time>2019-12-22T14:55:52Z</time>
      </trkpt>
      <trkpt lat="45.37163" lon="4.59739">
        <ele>1048</ele>
        <time>2019-12-22T14:55:53Z</time>
      </trkpt>
      <trkpt lat="45.37179" lon="4.59745">
        <ele>1046</ele>
        <time>2019-12-22T14:55:56Z</time>
      </trkpt>
      <trkpt lat="45.37194" lon="4.59749">
        <ele>1046</ele>
        <time>2019-12-22T14:55:58Z</time>
      </trkpt>
      <trkpt lat="45.37263" lon="4.59717">
        <ele>1058</ele>
        <time>2019-12-22T14:56:11Z</time>
      </trkpt>
      <trkpt lat="45.37291" lon="4.59729">
        <ele>1056</ele>
        <time>2019-12-22T14:56:17Z</time>
      </trkpt>
      <trkpt lat="45.37317" lon="4.59747">
        <ele>1053</ele>
        <time>2019-12-22T14:56:22Z</time>
      </trkpt>
      <trkpt lat="45.37336" lon="4.59746">
        <ele>1054</ele>
        <time>2019-12-22T14:56:25Z</time>
      </trkpt>
      <trkpt lat="45.37459" lon="4.59701">
        <ele>1068</ele>
        <time>2019-12-22T14:56:48Z</time>
      </trkpt>
      <trkpt lat="45.37529" lon="4.59665">
        <ele>1073</ele>
        <time>2019-12-22T14:57:01Z</time>
      </trkpt>
      <trkpt lat="45.37563" lon="4.59646">
        <ele>1078</ele>
        <time>2019-12-22T14:57:07Z</time>
      </trkpt>
      <trkpt lat="45.37583" lon="4.5963">
        <ele>1080</ele>
        <time>2019-12-22T14:57:12Z</time>
      </trkpt>
      <trkpt lat="45.37596" lon="4.59625">
        <ele>1084</ele>
        <time>2019-12-22T14:57:14Z</time>
      </trkpt>
      <trkpt lat="45.37606" lon="4.59632">
        <ele>1084</ele>
        <time>2019-12-22T14:57:16Z</time>
      </trkpt>
      <trkpt lat="45.3761" lon="4.59642">
        <ele>1084</ele>
        <time>2019-12-22T14:57:17Z</time>
      </trkpt>
      <trkpt lat="45.37598" lon="4.59723">
        <ele>1078</ele>
        <time>2019-12-22T14:57:28Z</time>
      </trkpt>
      <trkpt lat="45.376" lon="4.59807">
        <ele>1083</ele>
        <time>2019-12-22T14:57:38Z</time>
      </trkpt>
      <trkpt lat="45.37611" lon="4.59925">
        <ele>1090</ele>
        <time>2019-12-22T14:57:53Z</time>
      </trkpt>
      <trkpt lat="45.37618" lon="4.59961">
        <ele>1090</ele>
        <time>2019-12-22T14:57:58Z</time>
      </trkpt>
      <trkpt lat="45.3763" lon="4.59991">
        <ele>1092</ele>
        <time>2019-12-22T14:58:02Z</time>
      </trkpt>
      <trkpt lat="45.37647" lon="4.60014">
        <ele>1094</ele>
        <time>2019-12-22T14:58:06Z</time>
      </trkpt>
      <trkpt lat="45.37683" lon="4.60049">
        <ele>1096</ele>
        <time>2019-12-22T14:58:14Z</time>
      </trkpt>
      <trkpt lat="45.37722" lon="4.60068">
        <ele>1099</ele>
        <time>2019-12-22T14:58:21Z</time>
      </trkpt>
      <trkpt lat="45.37752" lon="4.60073">
        <ele>1103</ele>
        <time>2019-12-22T14:58:27Z</time>
      </trkpt>
      <trkpt lat="45.37783" lon="4.60075">
        <ele>1106</ele>
        <time>2019-12-22T14:58:32Z</time>
      </trkpt>
      <trkpt lat="45.3785" lon="4.6007">
        <ele>1116</ele>
        <time>2019-12-22T14:58:44Z</time>
      </trkpt>
      <trkpt lat="45.37864" lon="4.60074">
        <ele>1118</ele>
        <time>2019-12-22T14:58:47Z</time>
      </trkpt>
      <trkpt lat="45.37873" lon="4.60084">
        <ele>1117</ele>
        <time>2019-12-22T14:58:49Z</time>
      </trkpt>
      <trkpt lat="45.37876" lon="4.601">
        <ele>1116</ele>
        <time>2019-12-22T14:58:51Z</time>
      </trkpt>
      <trkpt lat="45.37882" lon="4.60203">
        <ele>1115</ele>
        <time>2019-12-22T14:59:04Z</time>
      </trkpt>
      <trkpt lat="45.3789" lon="4.60244">
        <ele>1119</ele>
        <time>2019-12-22T14:59:09Z</time>
      </trkpt>
      <trkpt lat="45.37904" lon="4.60283">
        <ele>1122</ele>
        <time>2019-12-22T14:59:15Z</time>
      </trkpt>
      <trkpt lat="45.37935" lon="4.6034">
        <ele>1124</ele>
        <time>2019-12-22T14:59:24Z</time>
      </trkpt>
      <trkpt lat="45.3796" lon="4.60366">
        <ele>1124</ele>
        <time>2019-12-22T14:59:29Z</time>
      </trkpt>
      <trkpt lat="45.37985" lon="4.60388">
        <ele>1123</ele>
        <time>2019-12-22T14:59:34Z</time>
      </trkpt>
      <trkpt lat="45.38024" lon="4.60399">
        <ele>1126</ele>
        <time>2019-12-22T14:59:41Z</time>
      </trkpt>
      <trkpt lat="45.38057" lon="4.60401">
        <ele>1129</ele>
        <time>2019-12-22T14:59:47Z</time>
      </trkpt>
      <trkpt lat="45.38104" lon="4.60396">
        <ele>1134</ele>
        <time>2019-12-22T14:59:56Z</time>
      </trkpt>
      <trkpt lat="45.38164" lon="4.60371">
        <ele>1142</ele>
        <time>2019-12-22T15:00:07Z</time>
      </trkpt>
      <trkpt lat="45.38221" lon="4.60341">
        <ele>1150</ele>
        <time>2019-12-22T15:00:18Z</time>
      </trkpt>
      <trkpt lat="45.38232" lon="4.60344">
        <ele>1149</ele>
        <time>2019-12-22T15:00:20Z</time>
      </trkpt>
      <trkpt lat="45.38242" lon="4.60351">
        <ele>1149</ele>
        <time>2019-12-22T15:00:21Z</time>
      </trkpt>
      <trkpt lat="45.38251" lon="4.60387">
        <ele>1146</ele>
        <time>2019-12-22T15:00:26Z</time>
      </trkpt>
      <trkpt lat="45.38254" lon="4.60424">
        <ele>1145</ele>
        <time>2019-12-22T15:00:31Z</time>
      </trkpt>
      <trkpt lat="45.38265" lon="4.60491">
        <ele>1146</ele>
        <time>2019-12-22T15:00:40Z</time>
      </trkpt>
      <trkpt lat="45.38283" lon="4.60579">
        <ele>1152</ele>
        <time>2019-12-22T15:00:51Z</time>
      </trkpt>
      <trkpt lat="45.38296" lon="4.60628">
        <ele>1156</ele>
        <time>2019-12-22T15:00:58Z</time>
      </trkpt>
      <trkpt lat="45.38311" lon="4.60711">
        <ele>1159</ele>
        <time>2019-12-22T15:01:08Z</time>
      </trkpt>
      <trkpt lat="45.38315" lon="4.60726">
        <ele>1160</ele>
        <time>2019-12-22T15:01:10Z</time>
      </trkpt>
      <trkpt lat="45.38348" lon="4.60801">
        <ele>1164</ele>
        <time>2019-12-22T15:01:21Z</time>
      </trkpt>
      <trkpt lat="45.38379" lon="4.60862">
        <ele>1167</ele>
        <time>2019-12-22T15:01:31Z</time>
      </trkpt>
      <trkpt lat="45.38444" lon="4.60941">
        <ele>1175</ele>
        <time>2019-12-22T15:01:46Z</time>
      </trkpt>
      <trkpt lat="45.38536" lon="4.61067">
        <ele>1182</ele>
        <time>2019-12-22T15:02:09Z</time>
      </trkpt>
      <trkpt lat="45.38575" lon="4.61111">
        <ele>1186</ele>
        <time>2019-12-22T15:02:17Z</time>
      </trkpt>
      <trkpt lat="45.38601" lon="4.61131">
        <ele>1188</ele>
        <time>2019-12-22T15:02:23Z</time>
      </trkpt>
      <trkpt lat="45.38628" lon="4.61144">
        <ele>1192</ele>
        <time>2019-12-22T15:02:28Z</time>
      </trkpt>
      <trkpt lat="45.38643" lon="4.61154">
        <ele>1194</ele>
        <time>2019-12-22T15:02:31Z</time>
      </trkpt>
      <trkpt lat="45.38654" lon="4.61169">
        <ele>1194</ele>
        <time>2019-12-22T15:02:33Z</time>
      </trkpt>
      <trkpt lat="45.3866" lon="4.61185">
        <ele>1195</ele>
        <time>2019-12-22T15:02:36Z</time>
      </trkpt>
      <trkpt lat="45.38663" lon="4.61214">
        <ele>1195</ele>
        <time>2019-12-22T15:02:39Z</time>
      </trkpt>
      <trkpt lat="45.38659" lon="4.61305">
        <ele>1198</ele>
        <time>2019-12-22T15:02:51Z</time>
      </trkpt>
      <trkpt lat="45.38657" lon="4.61332">
        <ele>1199</ele>
        <time>2019-12-22T15:02:54Z</time>
      </trkpt>
      <trkpt lat="45.38653" lon="4.61357">
        <ele>1201</ele>
        <time>2019-12-22T15:02:57Z</time>
      </trkpt>
      <trkpt lat="45.38645" lon="4.61375">
        <ele>1201</ele>
        <time>2019-12-22T15:03:00Z</time>
      </trkpt>
      <trkpt lat="45.38613" lon="4.6142">
        <ele>1202</ele>
        <time>2019-12-22T15:03:08Z</time>
      </trkpt>
      <trkpt lat="45.38598" lon="4.61445">
        <ele>1203</ele>
        <time>2019-12-22T15:03:12Z</time>
      </trkpt>
      <trkpt lat="45.38582" lon="4.61466">
        <ele>1204</ele>
        <time>2019-12-22T15:03:16Z</time>
      </trkpt>
      <trkpt lat="45.38555" lon="4.61483">
        <ele>1205</ele>
        <time>2019-12-22T15:03:21Z</time>
      </trkpt>
      <trkpt lat="45.38529" lon="4.61494">
        <ele>1205</ele>
        <time>2019-12-22T15:03:26Z</time>
      </trkpt>
      <trkpt lat="45.38524" lon="4.61498">
        <ele>1206</ele>
        <time>2019-12-22T15:03:27Z</time>
      </trkpt>
      <trkpt lat="45.38517" lon="4.61511">
        <ele>1205</ele>
        <time>2019-12-22T15:03:29Z</time>
      </trkpt>
      <trkpt lat="45.38516" lon="4.6152">
        <ele>1205</ele>
        <time>2019-12-22T15:03:30Z</time>
      </trkpt>
      <trkpt lat="45.38518" lon="4.61529">
        <ele>1205</ele>
        <time>2019-12-22T15:03:32Z</time>
      </trkpt>
      <trkpt lat="45.38522" lon="4.61536">
        <ele>1205</ele>
        <time>2019-12-22T15:03:33Z</time>
      </trkpt>
      <trkpt lat="45.38531" lon="4.61541">
        <ele>1206</ele>
        <time>2019-12-22T15:03:34Z</time>
      </trkpt>
      <trkpt lat="45.38544" lon="4.61539">
        <ele>1208</ele>
        <time>2019-12-22T15:03:37Z</time>
      </trkpt>
      <trkpt lat="45.38599" lon="4.61517">
        <ele>1211</ele>
        <time>2019-12-22T15:03:47Z</time>
      </trkpt>
      <trkpt lat="45.38635" lon="4.61507">
        <ele>1214</ele>
        <time>2019-12-22T15:03:53Z</time>
      </trkpt>
      <trkpt lat="45.3867" lon="4.61506">
        <ele>1217</ele>
        <time>2019-12-22T15:04:00Z</time>
      </trkpt>
      <trkpt lat="45.38714" lon="4.61489">
        <ele>1219</ele>
        <time>2019-12-22T15:04:08Z</time>
      </trkpt>
      <trkpt lat="45.38766" lon="4.61459">
        <ele>1222</ele>
        <time>2019-12-22T15:04:18Z</time>
      </trkpt>
      <trkpt lat="45.38805" lon="4.61422">
        <ele>1226</ele>
        <time>2019-12-22T15:04:26Z</time>
      </trkpt>
      <trkpt lat="45.38812" lon="4.61418">
        <ele>1227</ele>
        <time>2019-12-22T15:04:27Z</time>
      </trkpt>
      <trkpt lat="45.3882" lon="4.61418">
        <ele>1229</ele>
        <time>2019-12-22T15:04:29Z</time>
      </trkpt>
      <trkpt lat="45.38828" lon="4.61422">
        <ele>1230</ele>
        <time>2019-12-22T15:04:30Z</time>
      </trkpt>
      <trkpt lat="45.38833" lon="4.61427">
        <ele>1231</ele>
        <time>2019-12-22T15:04:31Z</time>
      </trkpt>
      <trkpt lat="45.38839" lon="4.61442">
        <ele>1233</ele>
        <time>2019-12-22T15:04:34Z</time>
      </trkpt>
      <trkpt lat="45.38839" lon="4.61531">
        <ele>1235</ele>
        <time>2019-12-22T15:04:45Z</time>
      </trkpt>
      <trkpt lat="45.38839" lon="4.6154">
        <ele>1235</ele>
        <time>2019-12-22T15:04:46Z</time>
      </trkpt>
      <trkpt lat="45.38844" lon="4.61558">
        <ele>1236</ele>
        <time>2019-12-22T15:04:48Z</time>
      </trkpt>
      <trkpt lat="45.38848" lon="4.61566">
        <ele>1236</ele>
        <time>2019-12-22T15:04:49Z</time>
      </trkpt>
      <trkpt lat="45.38857" lon="4.61574">
        <ele>1236</ele>
        <time>2019-12-22T15:04:51Z</time>
      </trkpt>
      <trkpt lat="45.38865" lon="4.61572">
        <ele>1236</ele>
        <time>2019-12-22T15:04:53Z</time>
      </trkpt>
      <trkpt lat="45.38876" lon="4.61566">
        <ele>1236</ele>
        <time>2019-12-22T15:04:55Z</time>
      </trkpt>
      <trkpt lat="45.38882" lon="4.61556">
        <ele>1237</ele>
        <time>2019-12-22T15:04:57Z</time>
      </trkpt>
      <trkpt lat="45.38924" lon="4.61432">
        <ele>1248</ele>
        <time>2019-12-22T15:05:14Z</time>
      </trkpt>
      <trkpt lat="45.38932" lon="4.61395">
        <ele>1251</ele>
        <time>2019-12-22T15:05:19Z</time>
      </trkpt>
      <trkpt lat="45.38967" lon="4.61211">
        <ele>1266</ele>
        <time>2019-12-22T15:05:42Z</time>
      </trkpt>
      <trkpt lat="45.38967" lon="4.6119">
        <ele>1267</ele>
        <time>2019-12-22T15:05:45Z</time>
      </trkpt>
      <trkpt lat="45.38963" lon="4.61162">
        <ele>1267</ele>
        <time>2019-12-22T15:05:49Z</time>
      </trkpt>
      <trkpt lat="45.38965" lon="4.61147">
        <ele>1269</ele>
        <time>2019-12-22T15:05:50Z</time>
      </trkpt>
      <trkpt lat="45.38969" lon="4.61142">
        <ele>1271</ele>
        <time>2019-12-22T15:05:51Z</time>
      </trkpt>
      <trkpt lat="45.38975" lon="4.6114">
        <ele>1272</ele>
        <time>2019-12-22T15:05:53Z</time>
      </trkpt>
      <trkpt lat="45.38982" lon="4.61144">
        <ele>1274</ele>
        <time>2019-12-22T15:05:54Z</time>
      </trkpt>
      <trkpt lat="45.38986" lon="4.61151">
        <ele>1274</ele>
        <time>2019-12-22T15:05:55Z</time>
      </trkpt>
      <trkpt lat="45.39002" lon="4.61196">
        <ele>1275</ele>
        <time>2019-12-22T15:06:01Z</time>
      </trkpt>
      <trkpt lat="45.39054" lon="4.61316">
        <ele>1286</ele>
        <time>2019-12-22T15:06:19Z</time>
      </trkpt>
      <trkpt lat="45.39062" lon="4.61349">
        <ele>1285</ele>
        <time>2019-12-22T15:06:23Z</time>
      </trkpt>
      <trkpt lat="45.39066" lon="4.61355">
        <ele>1285</ele>
        <time>2019-12-22T15:06:24Z</time>
      </trkpt>
      <trkpt lat="45.39075" lon="4.61358">
        <ele>1286</ele>
        <time>2019-12-22T15:06:26Z</time>
      </trkpt>
      <trkpt lat="45.39083" lon="4.61352">
        <ele>1289</ele>
        <time>2019-12-22T15:06:28Z</time>
      </trkpt>
      <trkpt lat="45.39085" lon="4.61345">
        <ele>1291</ele>
        <time>2019-12-22T15:06:29Z</time>
      </trkpt>
      <trkpt lat="45.39086" lon="4.61339">
        <ele>1292</ele>
        <time>2019-12-22T15:06:29Z</time>
      </trkpt>
      <trkpt lat="45.3908" lon="4.61314">
        <ele>1292</ele>
        <time>2019-12-22T15:06:33Z</time>
      </trkpt>
      <trkpt lat="45.39079" lon="4.61298">
        <ele>1293</ele>
        <time>2019-12-22T15:06:35Z</time>
      </trkpt>
      <trkpt lat="45.39077" lon="4.61216">
        <ele>1297</ele>
        <time>2019-12-22T15:06:45Z</time>
      </trkpt>
      <trkpt lat="45.39079" lon="4.61191">
        <ele>1299</ele>
        <time>2019-12-22T15:06:48Z</time>
      </trkpt>
      <trkpt lat="45.39085" lon="4.61157">
        <ele>1302</ele>
        <time>2019-12-22T15:06:52Z</time>
      </trkpt>
      <trkpt lat="45.39115" lon="4.61024">
        <ele>1316</ele>
        <time>2019-12-22T15:07:10Z</time>
      </trkpt>
      <trkpt lat="45.3912" lon="4.60997">
        <ele>1318</ele>
        <time>2019-12-22T15:07:13Z</time>
      </trkpt>
      <trkpt lat="45.39123" lon="4.60901">
        <ele>1320</ele>
        <time>2019-12-22T15:07:25Z</time>
      </trkpt>
      <trkpt lat="45.39126" lon="4.60876">
        <ele>1320</ele>
        <time>2019-12-22T15:07:28Z</time>
      </trkpt>
      <trkpt lat="45.39133" lon="4.60858">
        <ele>1321</ele>
        <time>2019-12-22T15:07:31Z</time>
      </trkpt>
      <trkpt lat="45.39143" lon="4.60848">
        <ele>1321</ele>
        <time>2019-12-22T15:07:33Z</time>
      </trkpt>
      <trkpt lat="45.39157" lon="4.6084">
        <ele>1322</ele>
        <time>2019-12-22T15:07:36Z</time>
      </trkpt>
      <trkpt lat="45.39165" lon="4.60839">
        <ele>1322</ele>
        <time>2019-12-22T15:07:37Z</time>
      </trkpt>
      <trkpt lat="45.39182" lon="4.60843">
        <ele>1322</ele>
        <time>2019-12-22T15:07:40Z</time>
      </trkpt>
      <trkpt lat="45.39198" lon="4.60851">
        <ele>1323</ele>
        <time>2019-12-22T15:07:43Z</time>
      </trkpt>
      <trkpt lat="45.39225" lon="4.6087">
        <ele>1325</ele>
        <time>2019-12-22T15:07:49Z</time>
      </trkpt>
      <trkpt lat="45.39234" lon="4.6088">
        <ele>1327</ele>
        <time>2019-12-22T15:07:51Z</time>
      </trkpt>
      <trkpt lat="45.39244" lon="4.60894">
        <ele>1330</ele>
        <time>2019-12-22T15:07:53Z</time>
      </trkpt>
      <trkpt lat="45.39284" lon="4.60979">
        <ele>1331</ele>
        <time>2019-12-22T15:08:06Z</time>
      </trkpt>
      <trkpt lat="45.39285" lon="4.60985">
        <ele>1331</ele>
        <time>2019-12-22T15:08:07Z</time>
      </trkpt>
      <trkpt lat="45.39285" lon="4.60993">
        <ele>1332</ele>
        <time>2019-12-22T15:08:08Z</time>
      </trkpt>
      <trkpt lat="45.39282" lon="4.61">
        <ele>1333</ele>
        <time>2019-12-22T15:08:09Z</time>
      </trkpt>
      <trkpt lat="45.39278" lon="4.61002">
        <ele>1335</ele>
        <time>2019-12-22T15:08:10Z</time>
      </trkpt>
      <trkpt lat="45.39275" lon="4.61001">
        <ele>1336</ele>
        <time>2019-12-22T15:08:10Z</time>
      </trkpt>
      <trkpt lat="45.3927" lon="4.60996">
        <ele>1337</ele>
        <time>2019-12-22T15:08:11Z</time>
      </trkpt>
      <trkpt lat="45.39259" lon="4.60974">
        <ele>1339</ele>
        <time>2019-12-22T15:08:15Z</time>
      </trkpt>
      <trkpt lat="45.39248" lon="4.60966">
        <ele>1341</ele>
        <time>2019-12-22T15:08:17Z</time>
      </trkpt>
      <trkpt lat="45.3924" lon="4.60966">
        <ele>1340</ele>
        <time>2019-12-22T15:08:18Z</time>
      </trkpt>
      <trkpt lat="45.39233" lon="4.6097">
        <ele>1339</ele>
        <time>2019-12-22T15:08:20Z</time>
      </trkpt>
      <trkpt lat="45.39229" lon="4.60975">
        <ele>1339</ele>
        <time>2019-12-22T15:08:21Z</time>
      </trkpt>
      <trkpt lat="45.39223" lon="4.60995">
        <ele>1340</ele>
        <time>2019-12-22T15:08:23Z</time>
      </trkpt>
      <trkpt lat="45.39228" lon="4.6105">
        <ele>1348</ele>
        <time>2019-12-22T15:08:30Z</time>
      </trkpt>
      <trkpt lat="45.39228" lon="4.6105">
        <ele>1348</ele>
        <time>2019-12-22T12:25:18Z</time>
      </trkpt>
      <trkpt lat="45.39223" lon="4.60995">
        <ele>1340</ele>
        <time>2019-12-22T12:25:25Z</time>
      </trkpt>
      <trkpt lat="45.39229" lon="4.60975">
        <ele>1339</ele>
        <time>2019-12-22T12:25:28Z</time>
      </trkpt>
      <trkpt lat="45.39233" lon="4.6097">
        <ele>1339</ele>
        <time>2019-12-22T12:25:29Z</time>
      </trkpt>
      <trkpt lat="45.3924" lon="4.60966">
        <ele>1340</ele>
        <time>2019-12-22T12:25:30Z</time>
      </trkpt>
      <trkpt lat="45.39248" lon="4.60966">
        <ele>1341</ele>
        <time>2019-12-22T12:25:31Z</time>
      </trkpt>
      <trkpt lat="45.39259" lon="4.60974">
        <ele>1339</ele>
        <time>2019-12-22T12:25:34Z</time>
      </trkpt>
      <trkpt lat="45.3927" lon="4.60996">
        <ele>1337</ele>
        <time>2019-12-22T12:25:37Z</time>
      </trkpt>
      <trkpt lat="45.39275" lon="4.61001">
        <ele>1336</ele>
        <time>2019-12-22T12:25:38Z</time>
      </trkpt>
      <trkpt lat="45.39278" lon="4.61002">
        <ele>1335</ele>
        <time>2019-12-22T12:25:39Z</time>
      </trkpt>
      <trkpt lat="45.39282" lon="4.61">
        <ele>1333</ele>
        <time>2019-12-22T12:25:39Z</time>
      </trkpt>
      <trkpt lat="45.39285" lon="4.60993">
        <ele>1332</ele>
        <time>2019-12-22T12:25:40Z</time>
      </trkpt>
      <trkpt lat="45.39285" lon="4.60985">
        <ele>1331</ele>
        <time>2019-12-22T12:25:41Z</time>
      </trkpt>
      <trkpt lat="45.39284" lon="4.60979">
        <ele>1331</ele>
        <time>2019-12-22T12:25:42Z</time>
      </trkpt>
      <trkpt lat="45.39244" lon="4.60894">
        <ele>1330</ele>
        <time>2019-12-22T12:25:55Z</time>
      </trkpt>
      <trkpt lat="45.39234" lon="4.6088">
        <ele>1327</ele>
        <time>2019-12-22T12:25:57Z</time>
      </trkpt>
      <trkpt lat="45.39225" lon="4.6087">
        <ele>1325</ele>
        <time>2019-12-22T12:25:59Z</time>
      </trkpt>
      <trkpt lat="45.39198" lon="4.60851">
        <ele>1323</ele>
        <time>2019-12-22T12:26:05Z</time>
      </trkpt>
      <trkpt lat="45.39182" lon="4.60843">
        <ele>1322</ele>
        <time>2019-12-22T12:26:08Z</time>
      </trkpt>
      <trkpt lat="45.39165" lon="4.60839">
        <ele>1322</ele>
        <time>2019-12-22T12:26:11Z</time>
      </trkpt>
      <trkpt lat="45.39157" lon="4.6084">
        <ele>1322</ele>
        <time>2019-12-22T12:26:12Z</time>
      </trkpt>
      <trkpt lat="45.39143" lon="4.60848">
        <ele>1321</ele>
        <time>2019-12-22T12:26:15Z</time>
      </trkpt>
      <trkpt lat="45.39133" lon="4.60858">
        <ele>1321</ele>
        <time>2019-12-22T12:26:17Z</time>
      </trkpt>
      <trkpt lat="45.39126" lon="4.60876">
        <ele>1320</ele>
        <time>2019-12-22T12:26:20Z</time>
      </trkpt>
      <trkpt lat="45.39123" lon="4.60901">
        <ele>1320</ele>
        <time>2019-12-22T12:26:23Z</time>
      </trkpt>
      <trkpt lat="45.3912" lon="4.60997">
        <ele>1318</ele>
        <time>2019-12-22T12:26:35Z</time>
      </trkpt>
      <trkpt lat="45.39115" lon="4.61024">
        <ele>1316</ele>
        <time>2019-12-22T12:26:38Z</time>
      </trkpt>
      <trkpt lat="45.39085" lon="4.61157">
        <ele>1302</ele>
        <time>2019-12-22T12:26:56Z</time>
      </trkpt>
      <trkpt lat="45.39079" lon="4.61191">
        <ele>1299</ele>
        <time>2019-12-22T12:27:00Z</time>
      </trkpt>
      <trkpt lat="45.39077" lon="4.61216">
        <ele>1297</ele>
        <time>2019-12-22T12:27:03Z</time>
      </trkpt>
      <trkpt lat="45.39079" lon="4.61298">
        <ele>1293</ele>
        <time>2019-12-22T12:27:14Z</time>
      </trkpt>
      <trkpt lat="45.3908" lon="4.61314">
        <ele>1292</ele>
        <time>2019-12-22T12:27:16Z</time>
      </trkpt>
      <trkpt lat="45.39086" lon="4.61339">
        <ele>1292</ele>
        <time>2019-12-22T12:27:19Z</time>
      </trkpt>
      <trkpt lat="45.39085" lon="4.61345">
        <ele>1291</ele>
        <time>2019-12-22T12:27:20Z</time>
      </trkpt>
      <trkpt lat="45.39083" lon="4.61352">
        <ele>1289</ele>
        <time>2019-12-22T12:27:21Z</time>
      </trkpt>
      <trkpt lat="45.39075" lon="4.61358">
        <ele>1286</ele>
        <time>2019-12-22T12:27:22Z</time>
      </trkpt>
      <trkpt lat="45.39066" lon="4.61355">
        <ele>1285</ele>
        <time>2019-12-22T12:27:24Z</time>
      </trkpt>
      <trkpt lat="45.39062" lon="4.61349">
        <ele>1285</ele>
        <time>2019-12-22T12:27:25Z</time>
      </trkpt>
      <trkpt lat="45.39054" lon="4.61316">
        <ele>1286</ele>
        <time>2019-12-22T12:27:29Z</time>
      </trkpt>
      <trkpt lat="45.39002" lon="4.61196">
        <ele>1275</ele>
        <time>2019-12-22T12:27:47Z</time>
      </trkpt>
      <trkpt lat="45.38986" lon="4.61151">
        <ele>1274</ele>
        <time>2019-12-22T12:27:53Z</time>
      </trkpt>
      <trkpt lat="45.38982" lon="4.61144">
        <ele>1274</ele>
        <time>2019-12-22T12:27:54Z</time>
      </trkpt>
      <trkpt lat="45.38975" lon="4.6114">
        <ele>1272</ele>
        <time>2019-12-22T12:27:56Z</time>
      </trkpt>
      <trkpt lat="45.38969" lon="4.61142">
        <ele>1271</ele>
        <time>2019-12-22T12:27:57Z</time>
      </trkpt>
      <trkpt lat="45.38965" lon="4.61147">
        <ele>1269</ele>
        <time>2019-12-22T12:27:58Z</time>
      </trkpt>
      <trkpt lat="45.38963" lon="4.61162">
        <ele>1267</ele>
        <time>2019-12-22T12:28:00Z</time>
      </trkpt>
      <trkpt lat="45.38967" lon="4.6119">
        <ele>1267</ele>
        <time>2019-12-22T12:28:03Z</time>
      </trkpt>
      <trkpt lat="45.38967" lon="4.61211">
        <ele>1266</ele>
        <time>2019-12-22T12:28:06Z</time>
      </trkpt>
      <trkpt lat="45.38932" lon="4.61395">
        <ele>1251</ele>
        <time>2019-12-22T12:28:30Z</time>
      </trkpt>
      <trkpt lat="45.38924" lon="4.61432">
        <ele>1248</ele>
        <time>2019-12-22T12:28:34Z</time>
      </trkpt>
      <trkpt lat="45.38882" lon="4.61556">
        <ele>1237</ele>
        <time>2019-12-22T12:28:52Z</time>
      </trkpt>
      <trkpt lat="45.38876" lon="4.61566">
        <ele>1236</ele>
        <time>2019-12-22T12:28:53Z</time>
      </trkpt>
      <trkpt lat="45.38865" lon="4.61572">
        <ele>1236</ele>
        <time>2019-12-22T12:28:55Z</time>
      </trkpt>
      <trkpt lat="45.38857" lon="4.61574">
        <ele>1236</ele>
        <time>2019-12-22T12:28:57Z</time>
      </trkpt>
      <trkpt lat="45.38848" lon="4.61566">
        <ele>1236</ele>
        <time>2019-12-22T12:28:59Z</time>
      </trkpt>
      <trkpt lat="45.38844" lon="4.61558">
        <ele>1236</ele>
        <time>2019-12-22T12:29:00Z</time>
      </trkpt>
      <trkpt lat="45.38839" lon="4.6154">
        <ele>1235</ele>
        <time>2019-12-22T12:29:02Z</time>
      </trkpt>
      <trkpt lat="45.38839" lon="4.61531">
        <ele>1235</ele>
        <time>2019-12-22T12:29:04Z</time>
      </trkpt>
      <trkpt lat="45.38839" lon="4.61442">
        <ele>1233</ele>
        <time>2019-12-22T12:29:15Z</time>
      </trkpt>
      <trkpt lat="45.38833" lon="4.61427">
        <ele>1231</ele>
        <time>2019-12-22T12:29:17Z</time>
      </trkpt>
      <trkpt lat="45.38828" lon="4.61422">
        <ele>1230</ele>
        <time>2019-12-22T12:29:18Z</time>
      </trkpt>
      <trkpt lat="45.3882" lon="4.61418">
        <ele>1229</ele>
        <time>2019-12-22T12:29:19Z</time>
      </trkpt>
      <trkpt lat="45.38812" lon="4.61418">
        <ele>1227</ele>
        <time>2019-12-22T12:29:21Z</time>
      </trkpt>
      <trkpt lat="45.38805" lon="4.61422">
        <ele>1226</ele>
        <time>2019-12-22T12:29:22Z</time>
      </trkpt>
      <trkpt lat="45.38766" lon="4.61459">
        <ele>1222</ele>
        <time>2019-12-22T12:29:31Z</time>
      </trkpt>
      <trkpt lat="45.38714" lon="4.61489">
        <ele>1219</ele>
        <time>2019-12-22T12:29:40Z</time>
      </trkpt>
      <trkpt lat="45.3867" lon="4.61506">
        <ele>1217</ele>
        <time>2019-12-22T12:29:49Z</time>
      </trkpt>
      <trkpt lat="45.38635" lon="4.61507">
        <ele>1214</ele>
        <time>2019-12-22T12:29:55Z</time>
      </trkpt>
      <trkpt lat="45.38599" lon="4.61517">
        <ele>1211</ele>
        <time>2019-12-22T12:30:01Z</time>
      </trkpt>
      <trkpt lat="45.38544" lon="4.61539">
        <ele>1208</ele>
        <time>2019-12-22T12:30:12Z</time>
      </trkpt>
      <trkpt lat="45.38531" lon="4.61541">
        <ele>1206</ele>
        <time>2019-12-22T12:30:14Z</time>
      </trkpt>
      <trkpt lat="45.38527" lon="4.6154">
        <ele>1206</ele>
        <time>2019-12-22T12:30:15Z</time>
      </trkpt>
      <trkpt lat="45.38522" lon="4.61536">
        <ele>1205</ele>
        <time>2019-12-22T12:30:16Z</time>
      </trkpt>
      <trkpt lat="45.38518" lon="4.61529">
        <ele>1205</ele>
        <time>2019-12-22T12:30:17Z</time>
      </trkpt>
      <trkpt lat="45.38516" lon="4.6152">
        <ele>1205</ele>
        <time>2019-12-22T12:30:18Z</time>
      </trkpt>
      <trkpt lat="45.38517" lon="4.61511">
        <ele>1205</ele>
        <time>2019-12-22T12:30:19Z</time>
      </trkpt>
      <trkpt lat="45.38524" lon="4.61498">
        <ele>1206</ele>
        <time>2019-12-22T12:30:21Z</time>
      </trkpt>
      <trkpt lat="45.38529" lon="4.61494">
        <ele>1205</ele>
        <time>2019-12-22T12:30:22Z</time>
      </trkpt>
      <trkpt lat="45.38555" lon="4.61483">
        <ele>1205</ele>
        <time>2019-12-22T12:30:27Z</time>
      </trkpt>
      <trkpt lat="45.38582" lon="4.61466">
        <ele>1204</ele>
        <time>2019-12-22T12:30:32Z</time>
      </trkpt>
      <trkpt lat="45.38598" lon="4.61445">
        <ele>1203</ele>
        <time>2019-12-22T12:30:36Z</time>
      </trkpt>
      <trkpt lat="45.38613" lon="4.6142">
        <ele>1202</ele>
        <time>2019-12-22T12:30:40Z</time>
      </trkpt>
      <trkpt lat="45.38645" lon="4.61375">
        <ele>1201</ele>
        <time>2019-12-22T12:30:48Z</time>
      </trkpt>
      <trkpt lat="45.38653" lon="4.61357">
        <ele>1201</ele>
        <time>2019-12-22T12:30:51Z</time>
      </trkpt>
      <trkpt lat="45.38657" lon="4.61332">
        <ele>1199</ele>
        <time>2019-12-22T12:30:54Z</time>
      </trkpt>
      <trkpt lat="45.38659" lon="4.61305">
        <ele>1198</ele>
        <time>2019-12-22T12:30:57Z</time>
      </trkpt>
      <trkpt lat="45.38663" lon="4.61214">
        <ele>1195</ele>
        <time>2019-12-22T12:31:09Z</time>
      </trkpt>
      <trkpt lat="45.3866" lon="4.61185">
        <ele>1195</ele>
        <time>2019-12-22T12:31:12Z</time>
      </trkpt>
      <trkpt lat="45.38654" lon="4.61169">
        <ele>1194</ele>
        <time>2019-12-22T12:31:15Z</time>
      </trkpt>
      <trkpt lat="45.38643" lon="4.61154">
        <ele>1194</ele>
        <time>2019-12-22T12:31:17Z</time>
      </trkpt>
      <trkpt lat="45.38628" lon="4.61144">
        <ele>1192</ele>
        <time>2019-12-22T12:31:20Z</time>
      </trkpt>
      <trkpt lat="45.38601" lon="4.61131">
        <ele>1188</ele>
        <time>2019-12-22T12:31:25Z</time>
      </trkpt>
      <trkpt lat="45.38575" lon="4.61111">
        <ele>1186</ele>
        <time>2019-12-22T12:31:31Z</time>
      </trkpt>
      <trkpt lat="45.38536" lon="4.61067">
        <ele>1182</ele>
        <time>2019-12-22T12:31:40Z</time>
      </trkpt>
      <trkpt lat="45.38444" lon="4.60941">
        <ele>1175</ele>
        <time>2019-12-22T12:32:02Z</time>
      </trkpt>
      <trkpt lat="45.38379" lon="4.60862">
        <ele>1167</ele>
        <time>2019-12-22T12:32:18Z</time>
      </trkpt>
      <trkpt lat="45.38348" lon="4.60801">
        <ele>1164</ele>
        <time>2019-12-22T12:32:27Z</time>
      </trkpt>
      <trkpt lat="45.38315" lon="4.60726">
        <ele>1160</ele>
        <time>2019-12-22T12:32:38Z</time>
      </trkpt>
      <trkpt lat="45.38311" lon="4.60711">
        <ele>1159</ele>
        <time>2019-12-22T12:32:40Z</time>
      </trkpt>
      <trkpt lat="45.38296" lon="4.60628">
        <ele>1156</ele>
        <time>2019-12-22T12:32:51Z</time>
      </trkpt>
      <trkpt lat="45.38283" lon="4.60579">
        <ele>1152</ele>
        <time>2019-12-22T12:32:57Z</time>
      </trkpt>
      <trkpt lat="45.38265" lon="4.60491">
        <ele>1146</ele>
        <time>2019-12-22T12:33:09Z</time>
      </trkpt>
      <trkpt lat="45.38254" lon="4.60424">
        <ele>1145</ele>
        <time>2019-12-22T12:33:17Z</time>
      </trkpt>
      <trkpt lat="45.38251" lon="4.60387">
        <ele>1146</ele>
        <time>2019-12-22T12:33:22Z</time>
      </trkpt>
      <trkpt lat="45.38242" lon="4.60351">
        <ele>1149</ele>
        <time>2019-12-22T12:33:27Z</time>
      </trkpt>
      <trkpt lat="45.38232" lon="4.60344">
        <ele>1149</ele>
        <time>2019-12-22T12:33:29Z</time>
      </trkpt>
      <trkpt lat="45.38221" lon="4.60341">
        <ele>1150</ele>
        <time>2019-12-22T12:33:31Z</time>
      </trkpt>
      <trkpt lat="45.38164" lon="4.60371">
        <ele>1142</ele>
        <time>2019-12-22T12:33:42Z</time>
      </trkpt>
      <trkpt lat="45.38104" lon="4.60396">
        <ele>1134</ele>
        <time>2019-12-22T12:33:53Z</time>
      </trkpt>
      <trkpt lat="45.38057" lon="4.60401">
        <ele>1129</ele>
        <time>2019-12-22T12:34:01Z</time>
      </trkpt>
      <trkpt lat="45.38024" lon="4.60399">
        <ele>1126</ele>
        <time>2019-12-22T12:34:07Z</time>
      </trkpt>
      <trkpt lat="45.37985" lon="4.60388">
        <ele>1123</ele>
        <time>2019-12-22T12:34:14Z</time>
      </trkpt>
      <trkpt lat="45.3796" lon="4.60366">
        <ele>1124</ele>
        <time>2019-12-22T12:34:19Z</time>
      </trkpt>
      <trkpt lat="45.37935" lon="4.6034">
        <ele>1124</ele>
        <time>2019-12-22T12:34:25Z</time>
      </trkpt>
      <trkpt lat="45.37904" lon="4.60283">
        <ele>1122</ele>
        <time>2019-12-22T12:34:34Z</time>
      </trkpt>
      <trkpt lat="45.3789" lon="4.60244">
        <ele>1119</ele>
        <time>2019-12-22T12:34:39Z</time>
      </trkpt>
      <trkpt lat="45.37882" lon="4.60203">
        <ele>1115</ele>
        <time>2019-12-22T12:34:45Z</time>
      </trkpt>
      <trkpt lat="45.37876" lon="4.601">
        <ele>1116</ele>
        <time>2019-12-22T12:34:57Z</time>
      </trkpt>
      <trkpt lat="45.37873" lon="4.60084">
        <ele>1117</ele>
        <time>2019-12-22T12:35:00Z</time>
      </trkpt>
      <trkpt lat="45.37864" lon="4.60074">
        <ele>1118</ele>
        <time>2019-12-22T12:35:02Z</time>
      </trkpt>
      <trkpt lat="45.3785" lon="4.6007">
        <ele>1116</ele>
        <time>2019-12-22T12:35:04Z</time>
      </trkpt>
      <trkpt lat="45.37783" lon="4.60075">
        <ele>1106</ele>
        <time>2019-12-22T12:35:16Z</time>
      </trkpt>
      <trkpt lat="45.37752" lon="4.60073">
        <ele>1103</ele>
        <time>2019-12-22T12:35:22Z</time>
      </trkpt>
      <trkpt lat="45.37722" lon="4.60068">
        <ele>1099</ele>
        <time>2019-12-22T12:35:27Z</time>
      </trkpt>
      <trkpt lat="45.37683" lon="4.60049">
        <ele>1096</ele>
        <time>2019-12-22T12:35:34Z</time>
      </trkpt>
      <trkpt lat="45.37647" lon="4.60014">
        <ele>1094</ele>
        <time>2019-12-22T12:35:42Z</time>
      </trkpt>
      <trkpt lat="45.3763" lon="4.59991">
        <ele>1092</ele>
        <time>2019-12-22T12:35:46Z</time>
      </trkpt>
      <trkpt lat="45.37618" lon="4.59961">
        <ele>1090</ele>
        <time>2019-12-22T12:35:50Z</time>
      </trkpt>
      <trkpt lat="45.37611" lon="4.59925">
        <ele>1090</ele>
        <time>2019-12-22T12:35:55Z</time>
      </trkpt>
      <trkpt lat="45.376" lon="4.59807">
        <ele>1083</ele>
        <time>2019-12-22T12:36:10Z</time>
      </trkpt>
      <trkpt lat="45.37598" lon="4.59723">
        <ele>1078</ele>
        <time>2019-12-22T12:36:21Z</time>
      </trkpt>
      <trkpt lat="45.3761" lon="4.59642">
        <ele>1084</ele>
        <time>2019-12-22T12:36:31Z</time>
      </trkpt>
      <trkpt lat="45.37606" lon="4.59632">
        <ele>1084</ele>
        <time>2019-12-22T12:36:32Z</time>
      </trkpt>
      <trkpt lat="45.37596" lon="4.59625">
        <ele>1084</ele>
        <time>2019-12-22T12:36:34Z</time>
      </trkpt>
      <trkpt lat="45.37583" lon="4.5963">
        <ele>1080</ele>
        <time>2019-12-22T12:36:37Z</time>
      </trkpt>
      <trkpt lat="45.37563" lon="4.59646">
        <ele>1078</ele>
        <time>2019-12-22T12:36:41Z</time>
      </trkpt>
      <trkpt lat="45.37529" lon="4.59665">
        <ele>1073</ele>
        <time>2019-12-22T12:36:47Z</time>
      </trkpt>
      <trkpt lat="45.37459" lon="4.59701">
        <ele>1068</ele>
        <time>2019-12-22T12:37:01Z</time>
      </trkpt>
      <trkpt lat="45.37336" lon="4.59746">
        <ele>1054</ele>
        <time>2019-12-22T12:37:23Z</time>
      </trkpt>
      <trkpt lat="45.37317" lon="4.59747">
        <ele>1053</ele>
        <time>2019-12-22T12:37:27Z</time>
      </trkpt>
      <trkpt lat="45.37291" lon="4.59729">
        <ele>1056</ele>
        <time>2019-12-22T12:37:32Z</time>
      </trkpt>
      <trkpt lat="45.37263" lon="4.59717">
        <ele>1058</ele>
        <time>2019-12-22T12:37:37Z</time>
      </trkpt>
      <trkpt lat="45.37194" lon="4.59749">
        <ele>1046</ele>
        <time>2019-12-22T12:37:50Z</time>
      </trkpt>
      <trkpt lat="45.37179" lon="4.59745">
        <ele>1046</ele>
        <time>2019-12-22T12:37:52Z</time>
      </trkpt>
      <trkpt lat="45.37163" lon="4.59739">
        <ele>1048</ele>
        <time>2019-12-22T12:37:55Z</time>
      </trkpt>
      <trkpt lat="45.37157" lon="4.59739">
        <ele>1050</ele>
        <time>2019-12-22T12:37:56Z</time>
      </trkpt>
      <trkpt lat="45.3715" lon="4.59745">
        <ele>1051</ele>
        <time>2019-12-22T12:37:58Z</time>
      </trkpt>
      <trkpt lat="45.37097" lon="4.59891">
        <ele>1040</ele>
        <time>2019-12-22T12:38:18Z</time>
      </trkpt>
      <trkpt lat="45.37052" lon="4.59931">
        <ele>1038</ele>
        <time>2019-12-22T12:38:28Z</time>
      </trkpt>
      <trkpt lat="45.37005" lon="4.59967">
        <ele>1036</ele>
        <time>2019-12-22T12:38:37Z</time>
      </trkpt>
      <trkpt lat="45.3696" lon="4.60015">
        <ele>1029</ele>
        <time>2019-12-22T12:38:47Z</time>
      </trkpt>
      <trkpt lat="45.36917" lon="4.60047">
        <ele>1027</ele>
        <time>2019-12-22T12:38:56Z</time>
      </trkpt>
      <trkpt lat="45.36774" lon="4.60102">
        <ele>1030</ele>
        <time>2019-12-22T12:39:22Z</time>
      </trkpt>
      <trkpt lat="45.36728" lon="4.60102">
        <ele>1037</ele>
        <time>2019-12-22T12:39:31Z</time>
      </trkpt>
      <trkpt lat="45.36668" lon="4.60132">
        <ele>1040</ele>
        <time>2019-12-22T12:39:42Z</time>
      </trkpt>
      <trkpt lat="45.36645" lon="4.60153">
        <ele>1037</ele>
        <time>2019-12-22T12:39:47Z</time>
      </trkpt>
      <trkpt lat="45.36624" lon="4.6017">
        <ele>1035</ele>
        <time>2019-12-22T12:39:51Z</time>
      </trkpt>
      <trkpt lat="45.3659" lon="4.60174">
        <ele>1037</ele>
        <time>2019-12-22T12:39:57Z</time>
      </trkpt>
      <trkpt lat="45.36562" lon="4.60155">
        <ele>1036</ele>
        <time>2019-12-22T12:40:03Z</time>
      </trkpt>
      <trkpt lat="45.36539" lon="4.60128">
        <ele>1036</ele>
        <time>2019-12-22T12:40:08Z</time>
      </trkpt>
      <trkpt lat="45.36512" lon="4.60077">
        <ele>1040</ele>
        <time>2019-12-22T12:40:16Z</time>
      </trkpt>
      <trkpt lat="45.36487" lon="4.60017">
        <ele>1042</ele>
        <time>2019-12-22T12:40:25Z</time>
      </trkpt>
      <trkpt lat="45.36438" lon="4.59869">
        <ele>1054</ele>
        <time>2019-12-22T12:40:45Z</time>
      </trkpt>
      <trkpt lat="45.36398" lon="4.59818">
        <ele>1055</ele>
        <time>2019-12-22T12:40:55Z</time>
      </trkpt>
      <trkpt lat="45.36356" lon="4.59775">
        <ele>1056</ele>
        <time>2019-12-22T12:41:04Z</time>
      </trkpt>
      <trkpt lat="45.36255" lon="4.59698">
        <ele>1060</ele>
        <time>2019-12-22T12:41:24Z</time>
      </trkpt>
      <trkpt lat="45.36155" lon="4.59609">
        <ele>1064</ele>
        <time>2019-12-22T12:41:45Z</time>
      </trkpt>
      <trkpt lat="45.36126" lon="4.59571">
        <ele>1063</ele>
        <time>2019-12-22T12:41:52Z</time>
      </trkpt>
      <trkpt lat="45.36107" lon="4.59535">
        <ele>1062</ele>
        <time>2019-12-22T12:41:58Z</time>
      </trkpt>
      <trkpt lat="45.3609" lon="4.59493">
        <ele>1061</ele>
        <time>2019-12-22T12:42:04Z</time>
      </trkpt>
      <trkpt lat="45.36083" lon="4.59471">
        <ele>1061</ele>
        <time>2019-12-22T12:42:07Z</time>
      </trkpt>
      <trkpt lat="45.36078" lon="4.59447">
        <ele>1061</ele>
        <time>2019-12-22T12:42:10Z</time>
      </trkpt>
      <trkpt lat="45.3608" lon="4.59386">
        <ele>1064</ele>
        <time>2019-12-22T12:42:18Z</time>
      </trkpt>
      <trkpt lat="45.36088" lon="4.59326">
        <ele>1067</ele>
        <time>2019-12-22T12:42:25Z</time>
      </trkpt>
      <trkpt lat="45.36108" lon="4.59255">
        <ele>1073</ele>
        <time>2019-12-22T12:42:35Z</time>
      </trkpt>
      <trkpt lat="45.3612" lon="4.59221">
        <ele>1077</ele>
        <time>2019-12-22T12:42:40Z</time>
      </trkpt>
      <trkpt lat="45.36127" lon="4.59185">
        <ele>1081</ele>
        <time>2019-12-22T12:42:44Z</time>
      </trkpt>
      <trkpt lat="45.36123" lon="4.59149">
        <ele>1083</ele>
        <time>2019-12-22T12:42:49Z</time>
      </trkpt>
      <trkpt lat="45.36105" lon="4.59108">
        <ele>1081</ele>
        <time>2019-12-22T12:42:55Z</time>
      </trkpt>
      <trkpt lat="45.36089" lon="4.59034">
        <ele>1082</ele>
        <time>2019-12-22T12:43:05Z</time>
      </trkpt>
      <trkpt lat="45.36056" lon="4.58961">
        <ele>1081</ele>
        <time>2019-12-22T12:43:16Z</time>
      </trkpt>
      <trkpt lat="45.3604" lon="4.58919">
        <ele>1081</ele>
        <time>2019-12-22T12:43:21Z</time>
      </trkpt>
      <trkpt lat="45.36021" lon="4.58885">
        <ele>1083</ele>
        <time>2019-12-22T12:43:27Z</time>
      </trkpt>
      <trkpt lat="45.35982" lon="4.58827">
        <ele>1084</ele>
        <time>2019-12-22T12:43:37Z</time>
      </trkpt>
      <trkpt lat="45.3589" lon="4.58662">
        <ele>1089</ele>
        <time>2019-12-22T12:44:03Z</time>
      </trkpt>
      <trkpt lat="45.35882" lon="4.58644">
        <ele>1089</ele>
        <time>2019-12-22T12:44:06Z</time>
      </trkpt>
      <trkpt lat="45.35878" lon="4.58622">
        <ele>1090</ele>
        <time>2019-12-22T12:44:09Z</time>
      </trkpt>
      <trkpt lat="45.35881" lon="4.586">
        <ele>1091</ele>
        <time>2019-12-22T12:44:12Z</time>
      </trkpt>
      <trkpt lat="45.35893" lon="4.58579">
        <ele>1092</ele>
        <time>2019-12-22T12:44:15Z</time>
      </trkpt>
      <trkpt lat="45.35928" lon="4.58524">
        <ele>1092</ele>
        <time>2019-12-22T12:44:24Z</time>
      </trkpt>
      <trkpt lat="45.3596" lon="4.58483">
        <ele>1094</ele>
        <time>2019-12-22T12:44:32Z</time>
      </trkpt>
      <trkpt lat="45.36095" lon="4.58383">
        <ele>1101</ele>
        <time>2019-12-22T12:44:59Z</time>
      </trkpt>
      <trkpt lat="45.36172" lon="4.58299">
        <ele>1103</ele>
        <time>2019-12-22T12:45:16Z</time>
      </trkpt>
      <trkpt lat="45.36209" lon="4.58278">
        <ele>1104</ele>
        <time>2019-12-22T12:45:23Z</time>
      </trkpt>
      <trkpt lat="45.36216" lon="4.58264">
        <ele>1102</ele>
        <time>2019-12-22T12:45:25Z</time>
      </trkpt>
      <trkpt lat="45.36214" lon="4.58248">
        <ele>1100</ele>
        <time>2019-12-22T12:45:28Z</time>
      </trkpt>
      <trkpt lat="45.36207" lon="4.58231">
        <ele>1104</ele>
        <time>2019-12-22T12:45:30Z</time>
      </trkpt>
      <trkpt lat="45.36147" lon="4.58198">
        <ele>1104</ele>
        <time>2019-12-22T12:45:41Z</time>
      </trkpt>
      <trkpt lat="45.36112" lon="4.58177">
        <ele>1101</ele>
        <time>2019-12-22T12:45:48Z</time>
      </trkpt>
      <trkpt lat="45.36083" lon="4.58146">
        <ele>1102</ele>
        <time>2019-12-22T12:45:55Z</time>
      </trkpt>
      <trkpt lat="45.36061" lon="4.581">
        <ele>1107</ele>
        <time>2019-12-22T12:46:02Z</time>
      </trkpt>
      <trkpt lat="45.36035" lon="4.58079">
        <ele>1106</ele>
        <time>2019-12-22T12:46:07Z</time>
      </trkpt>
      <trkpt lat="45.36012" lon="4.58043">
        <ele>1105</ele>
        <time>2019-12-22T12:46:13Z</time>
      </trkpt>
      <trkpt lat="45.35994" lon="4.58002">
        <ele>1104</ele>
        <time>2019-12-22T12:46:19Z</time>
      </trkpt>
      <trkpt lat="45.35977" lon="4.57918">
        <ele>1101</ele>
        <time>2019-12-22T12:46:30Z</time>
      </trkpt>
      <trkpt lat="45.35978" lon="4.57831">
        <ele>1103</ele>
        <time>2019-12-22T12:46:41Z</time>
      </trkpt>
      <trkpt lat="45.35976" lon="4.5775">
        <ele>1102</ele>
        <time>2019-12-22T12:46:51Z</time>
      </trkpt>
      <trkpt lat="45.3599" lon="4.57667">
        <ele>1102</ele>
        <time>2019-12-22T12:47:02Z</time>
      </trkpt>
      <trkpt lat="45.35996" lon="4.57618">
        <ele>1101</ele>
        <time>2019-12-22T12:47:08Z</time>
      </trkpt>
      <trkpt lat="45.36012" lon="4.57576">
        <ele>1102</ele>
        <time>2019-12-22T12:47:14Z</time>
      </trkpt>
      <trkpt lat="45.36085" lon="4.57469">
        <ele>1107</ele>
        <time>2019-12-22T12:47:32Z</time>
      </trkpt>
      <trkpt lat="45.36135" lon="4.57447">
        <ele>1112</ele>
        <time>2019-12-22T12:47:42Z</time>
      </trkpt>
      <trkpt lat="45.36183" lon="4.57414">
        <ele>1115</ele>
        <time>2019-12-22T12:47:51Z</time>
      </trkpt>
      <trkpt lat="45.36238" lon="4.5739">
        <ele>1115</ele>
        <time>2019-12-22T12:48:02Z</time>
      </trkpt>
      <trkpt lat="45.36292" lon="4.57395">
        <ele>1118</ele>
        <time>2019-12-22T12:48:11Z</time>
      </trkpt>
      <trkpt lat="45.3644" lon="4.574">
        <ele>1120</ele>
        <time>2019-12-22T12:48:37Z</time>
      </trkpt>
      <trkpt lat="45.3654" lon="4.57396">
        <ele>1120</ele>
        <time>2019-12-22T12:48:55Z</time>
      </trkpt>
      <trkpt lat="45.36637" lon="4.57397">
        <ele>1123</ele>
        <time>2019-12-22T12:49:13Z</time>
      </trkpt>
      <trkpt lat="45.36752" lon="4.57406">
        <ele>1130</ele>
        <time>2019-12-22T12:49:33Z</time>
      </trkpt>
      <trkpt lat="45.36857" lon="4.5738">
        <ele>1136</ele>
        <time>2019-12-22T12:49:52Z</time>
      </trkpt>
      <trkpt lat="45.36867" lon="4.5737">
        <ele>1137</ele>
        <time>2019-12-22T12:49:54Z</time>
      </trkpt>
      <trkpt lat="45.3687" lon="4.57357">
        <ele>1137</ele>
        <time>2019-12-22T12:49:56Z</time>
      </trkpt>
      <trkpt lat="45.36856" lon="4.57324">
        <ele>1135</ele>
        <time>2019-12-22T12:50:01Z</time>
      </trkpt>
      <trkpt lat="45.36839" lon="4.57294">
        <ele>1138</ele>
        <time>2019-12-22T12:50:06Z</time>
      </trkpt>
      <trkpt lat="45.36798" lon="4.57241">
        <ele>1139</ele>
        <time>2019-12-22T12:50:15Z</time>
      </trkpt>
      <trkpt lat="45.36695" lon="4.57145">
        <ele>1144</ele>
        <time>2019-12-22T12:50:37Z</time>
      </trkpt>
      <trkpt lat="45.36645" lon="4.57102">
        <ele>1147</ele>
        <time>2019-12-22T12:50:48Z</time>
      </trkpt>
      <trkpt lat="45.36594" lon="4.57081">
        <ele>1145</ele>
        <time>2019-12-22T12:50:57Z</time>
      </trkpt>
      <trkpt lat="45.36563" lon="4.57071">
        <ele>1140</ele>
        <time>2019-12-22T12:51:03Z</time>
      </trkpt>
      <trkpt lat="45.3654" lon="4.57039">
        <ele>1138</ele>
        <time>2019-12-22T12:51:09Z</time>
      </trkpt>
      <trkpt lat="45.36536" lon="4.56993">
        <ele>1141</ele>
        <time>2019-12-22T12:51:14Z</time>
      </trkpt>
      <trkpt lat="45.36536" lon="4.56946">
        <ele>1143</ele>
        <time>2019-12-22T12:51:20Z</time>
      </trkpt>
      <trkpt lat="45.36584" lon="4.56777">
        <ele>1152</ele>
        <time>2019-12-22T12:51:43Z</time>
      </trkpt>
      <trkpt lat="45.36608" lon="4.56685">
        <ele>1154</ele>
        <time>2019-12-22T12:51:55Z</time>
      </trkpt>
      <trkpt lat="45.36622" lon="4.56641">
        <ele>1154</ele>
        <time>2019-12-22T12:52:01Z</time>
      </trkpt>
      <trkpt lat="45.36638" lon="4.56609">
        <ele>1155</ele>
        <time>2019-12-22T12:52:06Z</time>
      </trkpt>
      <trkpt lat="45.36698" lon="4.56513">
        <ele>1158</ele>
        <time>2019-12-22T12:52:22Z</time>
      </trkpt>
      <trkpt lat="45.36743" lon="4.56467">
        <ele>1165</ele>
        <time>2019-12-22T12:52:32Z</time>
      </trkpt>
      <trkpt lat="45.3676" lon="4.56445">
        <ele>1169</ele>
        <time>2019-12-22T12:52:36Z</time>
      </trkpt>
      <trkpt lat="45.36767" lon="4.56427">
        <ele>1171</ele>
        <time>2019-12-22T12:52:39Z</time>
      </trkpt>
      <trkpt lat="45.36758" lon="4.56388">
        <ele>1174</ele>
        <time>2019-12-22T12:52:44Z</time>
      </trkpt>
      <trkpt lat="45.36727" lon="4.56353">
        <ele>1171</ele>
        <time>2019-12-22T12:52:51Z</time>
      </trkpt>
      <trkpt lat="45.36686" lon="4.56301">
        <ele>1166</ele>
        <time>2019-12-22T12:53:01Z</time>
      </trkpt>
      <trkpt lat="45.36675" lon="4.56273">
        <ele>1167</ele>
        <time>2019-12-22T12:53:05Z</time>
      </trkpt>
      <trkpt lat="45.36664" lon="4.56186">
        <ele>1173</ele>
        <time>2019-12-22T12:53:16Z</time>
      </trkpt>
      <trkpt lat="45.36658" lon="4.56163">
        <ele>1175</ele>
        <time>2019-12-22T12:53:19Z</time>
      </trkpt>
      <trkpt lat="45.36643" lon="4.56132">
        <ele>1177</ele>
        <time>2019-12-22T12:53:24Z</time>
      </trkpt>
      <trkpt lat="45.36559" lon="4.56028">
        <ele>1181</ele>
        <time>2019-12-22T12:53:43Z</time>
      </trkpt>
      <trkpt lat="45.36476" lon="4.55972">
        <ele>1181</ele>
        <time>2019-12-22T12:54:00Z</time>
      </trkpt>
      <trkpt lat="45.36395" lon="4.5593">
        <ele>1182</ele>
        <time>2019-12-22T12:54:15Z</time>
      </trkpt>
      <trkpt lat="45.3638" lon="4.55917">
        <ele>1183</ele>
        <time>2019-12-22T12:54:18Z</time>
      </trkpt>
      <trkpt lat="45.36357" lon="4.5589">
        <ele>1186</ele>
        <time>2019-12-22T12:54:23Z</time>
      </trkpt>
      <trkpt lat="45.36336" lon="4.55855">
        <ele>1189</ele>
        <time>2019-12-22T12:54:29Z</time>
      </trkpt>
      <trkpt lat="45.36311" lon="4.55826">
        <ele>1190</ele>
        <time>2019-12-22T12:54:35Z</time>
      </trkpt>
      <trkpt lat="45.36285" lon="4.55799">
        <ele>1191</ele>
        <time>2019-12-22T12:54:41Z</time>
      </trkpt>
      <trkpt lat="45.36258" lon="4.55782">
        <ele>1191</ele>
        <time>2019-12-22T12:54:46Z</time>
      </trkpt>
      <trkpt lat="45.36232" lon="4.55759">
        <ele>1191</ele>
        <time>2019-12-22T12:54:51Z</time>
      </trkpt>
      <trkpt lat="45.36212" lon="4.55735">
        <ele>1189</ele>
        <time>2019-12-22T12:54:56Z</time>
      </trkpt>
      <trkpt lat="45.36206" lon="4.55709">
        <ele>1189</ele>
        <time>2019-12-22T12:54:59Z</time>
      </trkpt>
      <trkpt lat="45.36207" lon="4.55579">
        <ele>1192</ele>
        <time>2019-12-22T12:55:16Z</time>
      </trkpt>
      <trkpt lat="45.36287" lon="4.55419">
        <ele>1201</ele>
        <time>2019-12-22T12:55:40Z</time>
      </trkpt>
      <trkpt lat="45.36317" lon="4.55351">
        <ele>1202</ele>
        <time>2019-12-22T12:55:50Z</time>
      </trkpt>
      <trkpt lat="45.36318" lon="4.55223">
        <ele>1198</ele>
        <time>2019-12-22T12:56:06Z</time>
      </trkpt>
      <trkpt lat="45.36312" lon="4.55001">
        <ele>1191</ele>
        <time>2019-12-22T12:56:34Z</time>
      </trkpt>
      <trkpt lat="45.36307" lon="4.54966">
        <ele>1189</ele>
        <time>2019-12-22T12:56:39Z</time>
      </trkpt>
      <trkpt lat="45.36293" lon="4.54901">
        <ele>1183</ele>
        <time>2019-12-22T12:56:47Z</time>
      </trkpt>
      <trkpt lat="45.36286" lon="4.54849">
        <ele>1179</ele>
        <time>2019-12-22T12:56:54Z</time>
      </trkpt>
      <trkpt lat="45.36289" lon="4.54797">
        <ele>1177</ele>
        <time>2019-12-22T12:57:00Z</time>
      </trkpt>
      <trkpt lat="45.36314" lon="4.5468">
        <ele>1173</ele>
        <time>2019-12-22T12:57:15Z</time>
      </trkpt>
      <trkpt lat="45.36379" lon="4.54486">
        <ele>1162</ele>
        <time>2019-12-22T12:57:42Z</time>
      </trkpt>
      <trkpt lat="45.3644" lon="4.54335">
        <ele>1152</ele>
        <time>2019-12-22T12:58:04Z</time>
      </trkpt>
      <trkpt lat="45.36481" lon="4.54263">
        <ele>1148</ele>
        <time>2019-12-22T12:58:16Z</time>
      </trkpt>
      <trkpt lat="45.36546" lon="4.54186">
        <ele>1144</ele>
        <time>2019-12-22T12:58:31Z</time>
      </trkpt>
      <trkpt lat="45.36551" lon="4.54184">
        <ele>1144</ele>
        <time>2019-12-22T12:58:32Z</time>
      </trkpt>
      <trkpt lat="45.36593" lon="4.54178">
        <ele>1149</ele>
        <time>2019-12-22T12:58:39Z</time>
      </trkpt>
      <trkpt lat="45.36606" lon="4.54171">
        <ele>1149</ele>
        <time>2019-12-22T12:58:42Z</time>
      </trkpt>
      <trkpt lat="45.36616" lon="4.54157">
        <ele>1150</ele>
        <time>2019-12-22T12:58:44Z</time>
      </trkpt>
      <trkpt lat="45.36621" lon="4.54146">
        <ele>1151</ele>
        <time>2019-12-22T12:58:46Z</time>
      </trkpt>
      <trkpt lat="45.36626" lon="4.54126">
        <ele>1152</ele>
        <time>2019-12-22T12:58:48Z</time>
      </trkpt>
      <trkpt lat="45.3663" lon="4.54067">
        <ele>1154</ele>
        <time>2019-12-22T12:58:56Z</time>
      </trkpt>
      <trkpt lat="45.36627" lon="4.54029">
        <ele>1156</ele>
        <time>2019-12-22T12:59:01Z</time>
      </trkpt>
      <trkpt lat="45.36619" lon="4.53985">
        <ele>1157</ele>
        <time>2019-12-22T12:59:06Z</time>
      </trkpt>
      <trkpt lat="45.36574" lon="4.53832">
        <ele>1160</ele>
        <time>2019-12-22T12:59:27Z</time>
      </trkpt>
      <trkpt lat="45.36571" lon="4.53811">
        <ele>1160</ele>
        <time>2019-12-22T12:59:30Z</time>
      </trkpt>
      <trkpt lat="45.36571" lon="4.53792">
        <ele>1161</ele>
        <time>2019-12-22T12:59:32Z</time>
      </trkpt>
      <trkpt lat="45.36574" lon="4.53757">
        <ele>1163</ele>
        <time>2019-12-22T12:59:37Z</time>
      </trkpt>
      <trkpt lat="45.36596" lon="4.53628">
        <ele>1168</ele>
        <time>2019-12-22T12:59:53Z</time>
      </trkpt>
      <trkpt lat="45.36613" lon="4.53555">
        <ele>1173</ele>
        <time>2019-12-22T13:00:03Z</time>
      </trkpt>
      <trkpt lat="45.36674" lon="4.53346">
        <ele>1188</ele>
        <time>2019-12-22T13:00:31Z</time>
      </trkpt>
      <trkpt lat="45.36687" lon="4.53314">
        <ele>1192</ele>
        <time>2019-12-22T13:00:36Z</time>
      </trkpt>
      <trkpt lat="45.36701" lon="4.53269">
        <ele>1195</ele>
        <time>2019-12-22T13:00:42Z</time>
      </trkpt>
      <trkpt lat="45.36709" lon="4.53218">
        <ele>1196</ele>
        <time>2019-12-22T13:00:48Z</time>
      </trkpt>
      <trkpt lat="45.36724" lon="4.5308">
        <ele>1200</ele>
        <time>2019-12-22T13:01:06Z</time>
      </trkpt>
      <trkpt lat="45.3673" lon="4.53044">
        <ele>1200</ele>
        <time>2019-12-22T13:01:10Z</time>
      </trkpt>
      <trkpt lat="45.36742" lon="4.52995">
        <ele>1201</ele>
        <time>2019-12-22T13:01:17Z</time>
      </trkpt>
      <trkpt lat="45.3678" lon="4.52869">
        <ele>1204</ele>
        <time>2019-12-22T13:01:34Z</time>
      </trkpt>
      <trkpt lat="45.36822" lon="4.52721">
        <ele>1204</ele>
        <time>2019-12-22T13:01:54Z</time>
      </trkpt>
      <trkpt lat="45.36829" lon="4.52673">
        <ele>1204</ele>
        <time>2019-12-22T13:02:00Z</time>
      </trkpt>
      <trkpt lat="45.36837" lon="4.52566">
        <ele>1203</ele>
        <time>2019-12-22T13:02:14Z</time>
      </trkpt>
      <trkpt lat="45.36848" lon="4.52461">
        <ele>1201</ele>
        <time>2019-12-22T13:02:27Z</time>
      </trkpt>
      <trkpt lat="45.36851" lon="4.52318">
        <ele>1197</ele>
        <time>2019-12-22T13:02:45Z</time>
      </trkpt>
      <trkpt lat="45.36852" lon="4.52174">
        <ele>1191</ele>
        <time>2019-12-22T13:03:03Z</time>
      </trkpt>
      <trkpt lat="45.3684" lon="4.52123">
        <ele>1189</ele>
        <time>2019-12-22T13:03:09Z</time>
      </trkpt>
      <trkpt lat="45.36803" lon="4.51992">
        <ele>1188</ele>
        <time>2019-12-22T13:03:27Z</time>
      </trkpt>
      <trkpt lat="45.36775" lon="4.51905">
        <ele>1187</ele>
        <time>2019-12-22T13:03:39Z</time>
      </trkpt>
      <trkpt lat="45.36774" lon="4.5188">
        <ele>1186</ele>
        <time>2019-12-22T13:03:42Z</time>
      </trkpt>
      <trkpt lat="45.36775" lon="4.51853">
        <ele>1185</ele>
        <time>2019-12-22T13:03:46Z</time>
      </trkpt>
      <trkpt lat="45.36786" lon="4.51814">
        <ele>1182</ele>
        <time>2019-12-22T13:03:51Z</time>
      </trkpt>
      <trkpt lat="45.36809" lon="4.51743">
        <ele>1179</ele>
        <time>2019-12-22T13:04:01Z</time>
      </trkpt>
      <trkpt lat="45.36827" lon="4.517">
        <ele>1177</ele>
        <time>2019-12-22T13:04:07Z</time>
      </trkpt>
      <trkpt lat="45.36829" lon="4.51684">
        <ele>1176</ele>
        <time>2019-12-22T13:04:09Z</time>
      </trkpt>
      <trkpt lat="45.36847" lon="4.51639">
        <ele>1175</ele>
        <time>2019-12-22T13:04:15Z</time>
      </trkpt>
      <trkpt lat="45.36837" lon="4.51635">
        <ele>1175</ele>
        <time>2019-12-22T13:04:17Z</time>
      </trkpt>
      <trkpt lat="45.36825" lon="4.51583">
        <ele>1173</ele>
        <time>2019-12-22T13:04:24Z</time>
      </trkpt>
      <trkpt lat="45.36806" lon="4.51477">
        <ele>1167</ele>
        <time>2019-12-22T13:04:38Z</time>
      </trkpt>
      <trkpt lat="45.36793" lon="4.51369">
        <ele>1156</ele>
        <time>2019-12-22T13:04:51Z</time>
      </trkpt>
      <trkpt lat="45.36795" lon="4.51312">
        <ele>1151</ele>
        <time>2019-12-22T13:04:59Z</time>
      </trkpt>
      <trkpt lat="45.36737" lon="4.51202">
        <ele>1142</ele>
        <time>2019-12-22T13:05:16Z</time>
      </trkpt>
      <trkpt lat="45.36732" lon="4.51196">
        <ele>1141</ele>
        <time>2019-12-22T13:05:17Z</time>
      </trkpt>
      <trkpt lat="45.36722" lon="4.5115">
        <ele>1139</ele>
        <time>2019-12-22T13:05:23Z</time>
      </trkpt>
      <trkpt lat="45.36701" lon="4.51028">
        <ele>1135</ele>
        <time>2019-12-22T13:05:39Z</time>
      </trkpt>
      <trkpt lat="45.36691" lon="4.50952">
        <ele>1131</ele>
        <time>2019-12-22T13:05:48Z</time>
      </trkpt>
      <trkpt lat="45.36704" lon="4.50902">
        <ele>1126</ele>
        <time>2019-12-22T13:05:55Z</time>
      </trkpt>
      <trkpt lat="45.36704" lon="4.50853">
        <ele>1121</ele>
        <time>2019-12-22T13:06:01Z</time>
      </trkpt>
      <trkpt lat="45.36709" lon="4.50765">
        <ele>1114</ele>
        <time>2019-12-22T13:06:12Z</time>
      </trkpt>
      <trkpt lat="45.36708" lon="4.5068">
        <ele>1108</ele>
        <time>2019-12-22T13:06:23Z</time>
      </trkpt>
      <trkpt lat="45.36707" lon="4.50666">
        <ele>1107</ele>
        <time>2019-12-22T13:06:24Z</time>
      </trkpt>
      <trkpt lat="45.36719" lon="4.50645">
        <ele>1106</ele>
        <time>2019-12-22T13:06:28Z</time>
      </trkpt>
      <trkpt lat="45.36724" lon="4.50616">
        <ele>1105</ele>
        <time>2019-12-22T13:06:32Z</time>
      </trkpt>
      <trkpt lat="45.36721" lon="4.50584">
        <ele>1104</ele>
        <time>2019-12-22T13:06:36Z</time>
      </trkpt>
      <trkpt lat="45.36708" lon="4.50546">
        <ele>1101</ele>
        <time>2019-12-22T13:06:41Z</time>
      </trkpt>
      <trkpt lat="45.36581" lon="4.50322">
        <ele>1087</ele>
        <time>2019-12-22T13:07:17Z</time>
      </trkpt>
      <trkpt lat="45.36514" lon="4.50186">
        <ele>1082</ele>
        <time>2019-12-22T13:07:38Z</time>
      </trkpt>
      <trkpt lat="45.36507" lon="4.50163">
        <ele>1081</ele>
        <time>2019-12-22T13:07:41Z</time>
      </trkpt>
      <trkpt lat="45.36497" lon="4.50155">
        <ele>1081</ele>
        <time>2019-12-22T13:07:43Z</time>
      </trkpt>
      <trkpt lat="45.36469" lon="4.50105">
        <ele>1079</ele>
        <time>2019-12-22T13:07:51Z</time>
      </trkpt>
      <trkpt lat="45.36307" lon="4.49921">
        <ele>1068</ele>
        <time>2019-12-22T13:08:28Z</time>
      </trkpt>
      <trkpt lat="45.36261" lon="4.4985">
        <ele>1062</ele>
        <time>2019-12-22T13:08:40Z</time>
      </trkpt>
      <trkpt lat="45.36205" lon="4.49775">
        <ele>1051</ele>
        <time>2019-12-22T13:08:53Z</time>
      </trkpt>
      <trkpt lat="45.36196" lon="4.49758">
        <ele>1050</ele>
        <time>2019-12-22T13:08:56Z</time>
      </trkpt>
      <trkpt lat="45.36191" lon="4.49743">
        <ele>1049</ele>
        <time>2019-12-22T13:08:58Z</time>
      </trkpt>
      <trkpt lat="45.36188" lon="4.49724">
        <ele>1047</ele>
        <time>2019-12-22T13:09:01Z</time>
      </trkpt>
      <trkpt lat="45.36189" lon="4.49694">
        <ele>1045</ele>
        <time>2019-12-22T13:09:04Z</time>
      </trkpt>
      <trkpt lat="45.362" lon="4.49654">
        <ele>1041</ele>
        <time>2019-12-22T13:09:10Z</time>
      </trkpt>
      <trkpt lat="45.36213" lon="4.49626">
        <ele>1038</ele>
        <time>2019-12-22T13:09:14Z</time>
      </trkpt>
      <trkpt lat="45.36227" lon="4.49613">
        <ele>1038</ele>
        <time>2019-12-22T13:09:17Z</time>
      </trkpt>
      <trkpt lat="45.36262" lon="4.49591">
        <ele>1038</ele>
        <time>2019-12-22T13:09:24Z</time>
      </trkpt>
      <trkpt lat="45.36274" lon="4.49564">
        <ele>1037</ele>
        <time>2019-12-22T13:09:28Z</time>
      </trkpt>
      <trkpt lat="45.36288" lon="4.49494">
        <ele>1036</ele>
        <time>2019-12-22T13:09:37Z</time>
      </trkpt>
      <trkpt lat="45.36295" lon="4.49478">
        <ele>1037</ele>
        <time>2019-12-22T13:09:39Z</time>
      </trkpt>
      <trkpt lat="45.36297" lon="4.49459">
        <ele>1037</ele>
        <time>2019-12-22T13:09:42Z</time>
      </trkpt>
      <trkpt lat="45.36292" lon="4.49443">
        <ele>1037</ele>
        <time>2019-12-22T13:09:44Z</time>
      </trkpt>
      <trkpt lat="45.36266" lon="4.49389">
        <ele>1037</ele>
        <time>2019-12-22T13:09:52Z</time>
      </trkpt>
      <trkpt lat="45.36259" lon="4.4937">
        <ele>1037</ele>
        <time>2019-12-22T13:09:55Z</time>
      </trkpt>
      <trkpt lat="45.36253" lon="4.49344">
        <ele>1038</ele>
        <time>2019-12-22T13:09:58Z</time>
      </trkpt>
      <trkpt lat="45.3625" lon="4.49309">
        <ele>1039</ele>
        <time>2019-12-22T13:10:02Z</time>
      </trkpt>
      <trkpt lat="45.36246" lon="4.49204">
        <ele>1040</ele>
        <time>2019-12-22T13:10:16Z</time>
      </trkpt>
      <trkpt lat="45.3625" lon="4.49154">
        <ele>1040</ele>
        <time>2019-12-22T13:10:22Z</time>
      </trkpt>
      <trkpt lat="45.36261" lon="4.49041">
        <ele>1035</ele>
        <time>2019-12-22T13:10:36Z</time>
      </trkpt>
      <trkpt lat="45.36285" lon="4.48935">
        <ele>1032</ele>
        <time>2019-12-22T13:10:50Z</time>
      </trkpt>
      <trkpt lat="45.3632" lon="4.48879">
        <ele>1032</ele>
        <time>2019-12-22T13:10:59Z</time>
      </trkpt>
      <trkpt lat="45.3638" lon="4.48692">
        <ele>1029</ele>
        <time>2019-12-22T13:11:25Z</time>
      </trkpt>
      <trkpt lat="45.36402" lon="4.48657">
        <ele>1032</ele>
        <time>2019-12-22T13:11:31Z</time>
      </trkpt>
      <trkpt lat="45.36427" lon="4.48633">
        <ele>1035</ele>
        <time>2019-12-22T13:11:36Z</time>
      </trkpt>
      <trkpt lat="45.36497" lon="4.48583">
        <ele>1042</ele>
        <time>2019-12-22T13:11:50Z</time>
      </trkpt>
      <trkpt lat="45.36536" lon="4.4848">
        <ele>1036</ele>
        <time>2019-12-22T13:12:05Z</time>
      </trkpt>
      <trkpt lat="45.36565" lon="4.48435">
        <ele>1035</ele>
        <time>2019-12-22T13:12:13Z</time>
      </trkpt>
      <trkpt lat="45.3657" lon="4.4841">
        <ele>1033</ele>
        <time>2019-12-22T13:12:16Z</time>
      </trkpt>
      <trkpt lat="45.36411" lon="4.48379">
        <ele>1022</ele>
        <time>2019-12-22T13:12:44Z</time>
      </trkpt>
      <trkpt lat="45.36388" lon="4.48384">
        <ele>1019</ele>
        <time>2019-12-22T13:12:49Z</time>
      </trkpt>
      <trkpt lat="45.36364" lon="4.48404">
        <ele>1018</ele>
        <time>2019-12-22T13:12:53Z</time>
      </trkpt>
      <trkpt lat="45.36314" lon="4.4845">
        <ele>1014</ele>
        <time>2019-12-22T13:13:04Z</time>
      </trkpt>
      <trkpt lat="45.36284" lon="4.48491">
        <ele>1013</ele>
        <time>2019-12-22T13:13:11Z</time>
      </trkpt>
      <trkpt lat="45.36271" lon="4.48532">
        <ele>1012</ele>
        <time>2019-12-22T13:13:17Z</time>
      </trkpt>
      <trkpt lat="45.36261" lon="4.48602">
        <ele>1010</ele>
        <time>2019-12-22T13:13:26Z</time>
      </trkpt>
      <trkpt lat="45.36253" lon="4.48628">
        <ele>1008</ele>
        <time>2019-12-22T13:13:30Z</time>
      </trkpt>
      <trkpt lat="45.3624" lon="4.48642">
        <ele>1007</ele>
        <time>2019-12-22T13:13:32Z</time>
      </trkpt>
      <trkpt lat="45.36225" lon="4.48647">
        <ele>1005</ele>
        <time>2019-12-22T13:13:35Z</time>
      </trkpt>
      <trkpt lat="45.36183" lon="4.48645">
        <ele>1001</ele>
        <time>2019-12-22T13:13:43Z</time>
      </trkpt>
      <trkpt lat="45.36172" lon="4.48648">
        <ele>1000</ele>
        <time>2019-12-22T13:13:45Z</time>
      </trkpt>
      <trkpt lat="45.36163" lon="4.48653">
        <ele>999</ele>
        <time>2019-12-22T13:13:46Z</time>
      </trkpt>
      <trkpt lat="45.36147" lon="4.48669">
        <ele>998</ele>
        <time>2019-12-22T13:13:50Z</time>
      </trkpt>
      <trkpt lat="45.36128" lon="4.48702">
        <ele>998</ele>
        <time>2019-12-22T13:13:55Z</time>
      </trkpt>
      <trkpt lat="45.36113" lon="4.48713">
        <ele>997</ele>
        <time>2019-12-22T13:13:58Z</time>
      </trkpt>
      <trkpt lat="45.36106" lon="4.48715">
        <ele>996</ele>
        <time>2019-12-22T13:14:00Z</time>
      </trkpt>
      <trkpt lat="45.36094" lon="4.48715">
        <ele>995</ele>
        <time>2019-12-22T13:14:02Z</time>
      </trkpt>
      <trkpt lat="45.36065" lon="4.48706">
        <ele>994</ele>
        <time>2019-12-22T13:14:07Z</time>
      </trkpt>
      <trkpt lat="45.36031" lon="4.487">
        <ele>995</ele>
        <time>2019-12-22T13:14:13Z</time>
      </trkpt>
      <trkpt lat="45.36013" lon="4.48687">
        <ele>994</ele>
        <time>2019-12-22T13:14:17Z</time>
      </trkpt>
      <trkpt lat="45.36007" lon="4.48679">
        <ele>994</ele>
        <time>2019-12-22T13:14:18Z</time>
      </trkpt>
      <trkpt lat="45.36001" lon="4.48667">
        <ele>993</ele>
        <time>2019-12-22T13:14:20Z</time>
      </trkpt>
      <trkpt lat="45.35998" lon="4.48655">
        <ele>992</ele>
        <time>2019-12-22T13:14:22Z</time>
      </trkpt>
      <trkpt lat="45.35995" lon="4.48607">
        <ele>986</ele>
        <time>2019-12-22T13:14:28Z</time>
      </trkpt>
      <trkpt lat="45.35993" lon="4.48596">
        <ele>985</ele>
        <time>2019-12-22T13:14:29Z</time>
      </trkpt>
      <trkpt lat="45.35986" lon="4.48576">
        <ele>984</ele>
        <time>2019-12-22T13:14:32Z</time>
      </trkpt>
      <trkpt lat="45.35978" lon="4.48563">
        <ele>984</ele>
        <time>2019-12-22T13:14:34Z</time>
      </trkpt>
      <trkpt lat="45.35907" lon="4.48476">
        <ele>978</ele>
        <time>2019-12-22T13:14:51Z</time>
      </trkpt>
      <trkpt lat="45.35891" lon="4.48467">
        <ele>977</ele>
        <time>2019-12-22T13:14:54Z</time>
      </trkpt>
      <trkpt lat="45.35884" lon="4.48465">
        <ele>977</ele>
        <time>2019-12-22T13:14:55Z</time>
      </trkpt>
      <trkpt lat="45.35861" lon="4.48467">
        <ele>977</ele>
        <time>2019-12-22T13:14:59Z</time>
      </trkpt>
      <trkpt lat="45.35851" lon="4.48472">
        <ele>977</ele>
        <time>2019-12-22T13:15:01Z</time>
      </trkpt>
      <trkpt lat="45.35833" lon="4.48486">
        <ele>979</ele>
        <time>2019-12-22T13:15:05Z</time>
      </trkpt>
      <trkpt lat="45.35824" lon="4.48496">
        <ele>978</ele>
        <time>2019-12-22T13:15:07Z</time>
      </trkpt>
      <trkpt lat="45.35817" lon="4.48507">
        <ele>978</ele>
        <time>2019-12-22T13:15:08Z</time>
      </trkpt>
      <trkpt lat="45.35756" lon="4.48656">
        <ele>972</ele>
        <time>2019-12-22T13:15:30Z</time>
      </trkpt>
      <trkpt lat="45.35751" lon="4.48679">
        <ele>972</ele>
        <time>2019-12-22T13:15:33Z</time>
      </trkpt>
      <trkpt lat="45.35752" lon="4.48725">
        <ele>973</ele>
        <time>2019-12-22T13:15:39Z</time>
      </trkpt>
      <trkpt lat="45.35751" lon="4.48747">
        <ele>973</ele>
        <time>2019-12-22T13:15:42Z</time>
      </trkpt>
      <trkpt lat="45.35748" lon="4.48763">
        <ele>974</ele>
        <time>2019-12-22T13:15:44Z</time>
      </trkpt>
      <trkpt lat="45.35721" lon="4.4883">
        <ele>974</ele>
        <time>2019-12-22T13:15:53Z</time>
      </trkpt>
      <trkpt lat="45.35705" lon="4.48856">
        <ele>973</ele>
        <time>2019-12-22T13:15:58Z</time>
      </trkpt>
      <trkpt lat="45.35672" lon="4.48894">
        <ele>967</ele>
        <time>2019-12-22T13:16:05Z</time>
      </trkpt>
      <trkpt lat="45.3566" lon="4.489">
        <ele>967</ele>
        <time>2019-12-22T13:16:07Z</time>
      </trkpt>
      <trkpt lat="45.35652" lon="4.48899">
        <ele>969</ele>
        <time>2019-12-22T13:16:09Z</time>
      </trkpt>
      <trkpt lat="45.35628" lon="4.48882">
        <ele>974</ele>
        <time>2019-12-22T13:16:14Z</time>
      </trkpt>
      <trkpt lat="45.35621" lon="4.48875">
        <ele>976</ele>
        <time>2019-12-22T13:16:15Z</time>
      </trkpt>
      <trkpt lat="45.35616" lon="4.48869">
        <ele>978</ele>
        <time>2019-12-22T13:16:16Z</time>
      </trkpt>
      <trkpt lat="45.35613" lon="4.48859">
        <ele>979</ele>
        <time>2019-12-22T13:16:18Z</time>
      </trkpt>
      <trkpt lat="45.35611" lon="4.48847">
        <ele>980</ele>
        <time>2019-12-22T13:16:19Z</time>
      </trkpt>
      <trkpt lat="45.35612" lon="4.48824">
        <ele>981</ele>
        <time>2019-12-22T13:16:22Z</time>
      </trkpt>
      <trkpt lat="45.3562" lon="4.48795">
        <ele>980</ele>
        <time>2019-12-22T13:16:26Z</time>
      </trkpt>
      <trkpt lat="45.3564" lon="4.48738">
        <ele>973</ele>
        <time>2019-12-22T13:16:34Z</time>
      </trkpt>
      <trkpt lat="45.35642" lon="4.48727">
        <ele>973</ele>
        <time>2019-12-22T13:16:35Z</time>
      </trkpt>
      <trkpt lat="45.35642" lon="4.48702">
        <ele>974</ele>
        <time>2019-12-22T13:16:38Z</time>
      </trkpt>
      <trkpt lat="45.35637" lon="4.48681">
        <ele>977</ele>
        <time>2019-12-22T13:16:41Z</time>
      </trkpt>
      <trkpt lat="45.35627" lon="4.48647">
        <ele>981</ele>
        <time>2019-12-22T13:16:46Z</time>
      </trkpt>
      <trkpt lat="45.35619" lon="4.48632">
        <ele>983</ele>
        <time>2019-12-22T13:16:48Z</time>
      </trkpt>
      <trkpt lat="45.35612" lon="4.48621">
        <ele>985</ele>
        <time>2019-12-22T13:16:50Z</time>
      </trkpt>
      <trkpt lat="45.35581" lon="4.48588">
        <ele>992</ele>
        <time>2019-12-22T13:16:57Z</time>
      </trkpt>
      <trkpt lat="45.35577" lon="4.4857">
        <ele>995</ele>
        <time>2019-12-22T13:16:59Z</time>
      </trkpt>
      <trkpt lat="45.35578" lon="4.48562">
        <ele>996</ele>
        <time>2019-12-22T13:17:00Z</time>
      </trkpt>
      <trkpt lat="45.3558" lon="4.48552">
        <ele>997</ele>
        <time>2019-12-22T13:17:02Z</time>
      </trkpt>
      <trkpt lat="45.35601" lon="4.48521">
        <ele>996</ele>
        <time>2019-12-22T13:17:07Z</time>
      </trkpt>
      <trkpt lat="45.35607" lon="4.48509">
        <ele>996</ele>
        <time>2019-12-22T13:17:09Z</time>
      </trkpt>
      <trkpt lat="45.35627" lon="4.4845">
        <ele>996</ele>
        <time>2019-12-22T13:17:17Z</time>
      </trkpt>
      <trkpt lat="45.35635" lon="4.4842">
        <ele>996</ele>
        <time>2019-12-22T13:17:21Z</time>
      </trkpt>
      <trkpt lat="45.35635" lon="4.48391">
        <ele>997</ele>
        <time>2019-12-22T13:17:25Z</time>
      </trkpt>
      <trkpt lat="45.35629" lon="4.48368">
        <ele>998</ele>
        <time>2019-12-22T13:17:28Z</time>
      </trkpt>
      <trkpt lat="45.35592" lon="4.48303">
        <ele>1005</ele>
        <time>2019-12-22T13:17:38Z</time>
      </trkpt>
      <trkpt lat="45.35523" lon="4.48122">
        <ele>1015</ele>
        <time>2019-12-22T13:18:04Z</time>
      </trkpt>
      <trkpt lat="45.35506" lon="4.48083">
        <ele>1016</ele>
        <time>2019-12-22T13:18:10Z</time>
      </trkpt>
      <trkpt lat="45.35496" lon="4.48066">
        <ele>1017</ele>
        <time>2019-12-22T13:18:12Z</time>
      </trkpt>
      <trkpt lat="45.35453" lon="4.48012">
        <ele>1024</ele>
        <time>2019-12-22T13:18:23Z</time>
      </trkpt>
      <trkpt lat="45.35448" lon="4.48002">
        <ele>1024</ele>
        <time>2019-12-22T13:18:24Z</time>
      </trkpt>
      <trkpt lat="45.35445" lon="4.47992">
        <ele>1025</ele>
        <time>2019-12-22T13:18:26Z</time>
      </trkpt>
      <trkpt lat="45.35445" lon="4.47981">
        <ele>1026</ele>
        <time>2019-12-22T13:18:27Z</time>
      </trkpt>
      <trkpt lat="45.35447" lon="4.47971">
        <ele>1027</ele>
        <time>2019-12-22T13:18:28Z</time>
      </trkpt>
      <trkpt lat="45.35455" lon="4.47956">
        <ele>1027</ele>
        <time>2019-12-22T13:18:31Z</time>
      </trkpt>
      <trkpt lat="45.35527" lon="4.47903">
        <ele>1023</ele>
        <time>2019-12-22T13:18:45Z</time>
      </trkpt>
      <trkpt lat="45.35551" lon="4.47878">
        <ele>1028</ele>
        <time>2019-12-22T13:18:50Z</time>
      </trkpt>
      <trkpt lat="45.35596" lon="4.47792">
        <ele>1042</ele>
        <time>2019-12-22T13:19:04Z</time>
      </trkpt>
      <trkpt lat="45.35611" lon="4.47774">
        <ele>1045</ele>
        <time>2019-12-22T13:19:07Z</time>
      </trkpt>
      <trkpt lat="45.35619" lon="4.47768">
        <ele>1046</ele>
        <time>2019-12-22T13:19:09Z</time>
      </trkpt>
      <trkpt lat="45.35637" lon="4.47763">
        <ele>1046</ele>
        <time>2019-12-22T13:19:12Z</time>
      </trkpt>
      <trkpt lat="45.35658" lon="4.47766">
        <ele>1045</ele>
        <time>2019-12-22T13:19:16Z</time>
      </trkpt>
      <trkpt lat="45.35746" lon="4.47787">
        <ele>1044</ele>
        <time>2019-12-22T13:19:32Z</time>
      </trkpt>
      <trkpt lat="45.35771" lon="4.47782">
        <ele>1043</ele>
        <time>2019-12-22T13:19:36Z</time>
      </trkpt>
      <trkpt lat="45.35794" lon="4.47769">
        <ele>1044</ele>
        <time>2019-12-22T13:19:41Z</time>
      </trkpt>
      <trkpt lat="45.35807" lon="4.47757">
        <ele>1045</ele>
        <time>2019-12-22T13:19:43Z</time>
      </trkpt>
      <trkpt lat="45.35893" lon="4.47662">
        <ele>1046</ele>
        <time>2019-12-22T13:20:03Z</time>
      </trkpt>
      <trkpt lat="45.35904" lon="4.47644">
        <ele>1046</ele>
        <time>2019-12-22T13:20:06Z</time>
      </trkpt>
      <trkpt lat="45.35909" lon="4.47622">
        <ele>1046</ele>
        <time>2019-12-22T13:20:09Z</time>
      </trkpt>
      <trkpt lat="45.35911" lon="4.47589">
        <ele>1046</ele>
        <time>2019-12-22T13:20:13Z</time>
      </trkpt>
      <trkpt lat="45.35911" lon="4.4754">
        <ele>1048</ele>
        <time>2019-12-22T13:20:19Z</time>
      </trkpt>
      <trkpt lat="45.35908" lon="4.4751">
        <ele>1050</ele>
        <time>2019-12-22T13:20:23Z</time>
      </trkpt>
      <trkpt lat="45.35893" lon="4.47445">
        <ele>1050</ele>
        <time>2019-12-22T13:20:31Z</time>
      </trkpt>
      <trkpt lat="45.35855" lon="4.47311">
        <ele>1050</ele>
        <time>2019-12-22T13:20:49Z</time>
      </trkpt>
      <trkpt lat="45.35851" lon="4.47282">
        <ele>1050</ele>
        <time>2019-12-22T13:20:53Z</time>
      </trkpt>
      <trkpt lat="45.35834" lon="4.47148">
        <ele>1052</ele>
        <time>2019-12-22T13:21:10Z</time>
      </trkpt>
      <trkpt lat="45.35816" lon="4.47079">
        <ele>1057</ele>
        <time>2019-12-22T13:21:19Z</time>
      </trkpt>
      <trkpt lat="45.3579" lon="4.46932">
        <ele>1063</ele>
        <time>2019-12-22T13:21:38Z</time>
      </trkpt>
      <trkpt lat="45.35778" lon="4.46898">
        <ele>1064</ele>
        <time>2019-12-22T13:21:43Z</time>
      </trkpt>
      <trkpt lat="45.3576" lon="4.46864">
        <ele>1064</ele>
        <time>2019-12-22T13:21:48Z</time>
      </trkpt>
      <trkpt lat="45.35674" lon="4.46731">
        <ele>1065</ele>
        <time>2019-12-22T13:22:11Z</time>
      </trkpt>
      <trkpt lat="45.35616" lon="4.46649">
        <ele>1064</ele>
        <time>2019-12-22T13:22:25Z</time>
      </trkpt>
      <trkpt lat="45.35603" lon="4.46635">
        <ele>1063</ele>
        <time>2019-12-22T13:22:28Z</time>
      </trkpt>
      <trkpt lat="45.3559" lon="4.46624">
        <ele>1062</ele>
        <time>2019-12-22T13:22:31Z</time>
      </trkpt>
      <trkpt lat="45.35541" lon="4.46595">
        <ele>1061</ele>
        <time>2019-12-22T13:22:40Z</time>
      </trkpt>
      <trkpt lat="45.35534" lon="4.46587">
        <ele>1061</ele>
        <time>2019-12-22T13:22:42Z</time>
      </trkpt>
      <trkpt lat="45.35325" lon="4.46909">
        <ele>1067</ele>
        <time>2019-12-22T13:23:37Z</time>
      </trkpt>
      <trkpt lat="45.35282" lon="4.46979">
        <ele>1067</ele>
        <time>2019-12-22T13:23:48Z</time>
      </trkpt>
      <trkpt lat="45.35259" lon="4.47022">
        <ele>1068</ele>
        <time>2019-12-22T13:23:55Z</time>
      </trkpt>
      <trkpt lat="45.3525" lon="4.47016">
        <ele>1067</ele>
        <time>2019-12-22T13:23:57Z</time>
      </trkpt>
      <trkpt lat="45.35239" lon="4.47004">
        <ele>1065</ele>
        <time>2019-12-22T13:23:59Z</time>
      </trkpt>
      <trkpt lat="45.35226" lon="4.46976">
        <ele>1063</ele>
        <time>2019-12-22T13:24:04Z</time>
      </trkpt>
      <trkpt lat="45.35098" lon="4.46652">
        <ele>1043</ele>
        <time>2019-12-22T13:24:50Z</time>
      </trkpt>
      <trkpt lat="45.35081" lon="4.46584">
        <ele>1042</ele>
        <time>2019-12-22T13:24:59Z</time>
      </trkpt>
      <trkpt lat="45.3507" lon="4.46488">
        <ele>1038</ele>
        <time>2019-12-22T13:25:11Z</time>
      </trkpt>
      <trkpt lat="45.35064" lon="4.46389">
        <ele>1036</ele>
        <time>2019-12-22T13:25:24Z</time>
      </trkpt>
      <trkpt lat="45.34921" lon="4.46011">
        <ele>1020</ele>
        <time>2019-12-22T13:26:17Z</time>
      </trkpt>
      <trkpt lat="45.3484" lon="4.45838">
        <ele>1017</ele>
        <time>2019-12-22T13:26:43Z</time>
      </trkpt>
      <trkpt lat="45.34743" lon="4.45656">
        <ele>1010</ele>
        <time>2019-12-22T13:27:12Z</time>
      </trkpt>
      <trkpt lat="45.34732" lon="4.45623">
        <ele>1008</ele>
        <time>2019-12-22T13:27:17Z</time>
      </trkpt>
      <trkpt lat="45.34725" lon="4.45563">
        <ele>1006</ele>
        <time>2019-12-22T13:27:24Z</time>
      </trkpt>
      <trkpt lat="45.34726" lon="4.45498">
        <ele>1005</ele>
        <time>2019-12-22T13:27:32Z</time>
      </trkpt>
      <trkpt lat="45.34724" lon="4.4548">
        <ele>1004</ele>
        <time>2019-12-22T13:27:35Z</time>
      </trkpt>
      <trkpt lat="45.34729" lon="4.45445">
        <ele>1002</ele>
        <time>2019-12-22T13:27:39Z</time>
      </trkpt>
      <trkpt lat="45.3475" lon="4.45399">
        <ele>1000</ele>
        <time>2019-12-22T13:27:46Z</time>
      </trkpt>
      <trkpt lat="45.34864" lon="4.45186">
        <ele>990</ele>
        <time>2019-12-22T13:28:19Z</time>
      </trkpt>
      <trkpt lat="45.34875" lon="4.45157">
        <ele>989</ele>
        <time>2019-12-22T13:28:23Z</time>
      </trkpt>
      <trkpt lat="45.34875" lon="4.44965">
        <ele>986</ele>
        <time>2019-12-22T13:28:47Z</time>
      </trkpt>
      <trkpt lat="45.34842" lon="4.44792">
        <ele>987</ele>
        <time>2019-12-22T13:29:10Z</time>
      </trkpt>
      <trkpt lat="45.34804" lon="4.4465">
        <ele>993</ele>
        <time>2019-12-22T13:29:29Z</time>
      </trkpt>
      <trkpt lat="45.34788" lon="4.44618">
        <ele>993</ele>
        <time>2019-12-22T13:29:34Z</time>
      </trkpt>
      <trkpt lat="45.34768" lon="4.44583">
        <ele>991</ele>
        <time>2019-12-22T13:29:39Z</time>
      </trkpt>
      <trkpt lat="45.34725" lon="4.44517">
        <ele>991</ele>
        <time>2019-12-22T13:29:51Z</time>
      </trkpt>
      <trkpt lat="45.34714" lon="4.44495">
        <ele>990</ele>
        <time>2019-12-22T13:29:54Z</time>
      </trkpt>
      <trkpt lat="45.34681" lon="4.44404">
        <ele>983</ele>
        <time>2019-12-22T13:30:07Z</time>
      </trkpt>
      <trkpt lat="45.34666" lon="4.44333">
        <ele>981</ele>
        <time>2019-12-22T13:30:16Z</time>
      </trkpt>
      <trkpt lat="45.34661" lon="4.44297">
        <ele>979</ele>
        <time>2019-12-22T13:30:21Z</time>
      </trkpt>
      <trkpt lat="45.34667" lon="4.44267">
        <ele>979</ele>
        <time>2019-12-22T13:30:25Z</time>
      </trkpt>
      <trkpt lat="45.34696" lon="4.4419">
        <ele>979</ele>
        <time>2019-12-22T13:30:36Z</time>
      </trkpt>
      <trkpt lat="45.34712" lon="4.44124">
        <ele>978</ele>
        <time>2019-12-22T13:30:44Z</time>
      </trkpt>
      <trkpt lat="45.34718" lon="4.437">
        <ele>966</ele>
        <time>2019-12-22T13:31:37Z</time>
      </trkpt>
      <trkpt lat="45.34714" lon="4.43672">
        <ele>966</ele>
        <time>2019-12-22T13:31:41Z</time>
      </trkpt>
      <trkpt lat="45.34671" lon="4.4361">
        <ele>965</ele>
        <time>2019-12-22T13:31:52Z</time>
      </trkpt>
      <trkpt lat="45.34624" lon="4.4353">
        <ele>966</ele>
        <time>2019-12-22T13:32:05Z</time>
      </trkpt>
      <trkpt lat="45.34597" lon="4.43439">
        <ele>965</ele>
        <time>2019-12-22T13:32:17Z</time>
      </trkpt>
      <trkpt lat="45.34525" lon="4.43235">
        <ele>959</ele>
        <time>2019-12-22T13:32:46Z</time>
      </trkpt>
      <trkpt lat="45.34503" lon="4.43193">
        <ele>959</ele>
        <time>2019-12-22T13:32:52Z</time>
      </trkpt>
      <trkpt lat="45.34488" lon="4.43174">
        <ele>961</ele>
        <time>2019-12-22T13:32:56Z</time>
      </trkpt>
      <trkpt lat="45.34468" lon="4.43162">
        <ele>962</ele>
        <time>2019-12-22T13:33:00Z</time>
      </trkpt>
      <trkpt lat="45.34436" lon="4.4316">
        <ele>964</ele>
        <time>2019-12-22T13:33:05Z</time>
      </trkpt>
      <trkpt lat="45.34414" lon="4.43155">
        <ele>966</ele>
        <time>2019-12-22T13:33:09Z</time>
      </trkpt>
      <trkpt lat="45.34398" lon="4.4313">
        <ele>968</ele>
        <time>2019-12-22T13:33:14Z</time>
      </trkpt>
      <trkpt lat="45.34389" lon="4.43095">
        <ele>970</ele>
        <time>2019-12-22T13:33:18Z</time>
      </trkpt>
      <trkpt lat="45.34391" lon="4.43068">
        <ele>971</ele>
        <time>2019-12-22T13:33:22Z</time>
      </trkpt>
      <trkpt lat="45.3442" lon="4.43014">
        <ele>972</ele>
        <time>2019-12-22T13:33:30Z</time>
      </trkpt>
      <trkpt lat="45.3442" lon="4.42991">
        <ele>973</ele>
        <time>2019-12-22T13:33:33Z</time>
      </trkpt>
      <trkpt lat="45.34411" lon="4.42963">
        <ele>975</ele>
        <time>2019-12-22T13:33:37Z</time>
      </trkpt>
      <trkpt lat="45.34374" lon="4.42925">
        <ele>979</ele>
        <time>2019-12-22T13:33:45Z</time>
      </trkpt>
      <trkpt lat="45.34335" lon="4.42877">
        <ele>983</ele>
        <time>2019-12-22T13:33:54Z</time>
      </trkpt>
      <trkpt lat="45.34304" lon="4.42828">
        <ele>985</ele>
        <time>2019-12-22T13:34:02Z</time>
      </trkpt>
      <trkpt lat="45.34292" lon="4.42806">
        <ele>984</ele>
        <time>2019-12-22T13:34:06Z</time>
      </trkpt>
      <trkpt lat="45.34284" lon="4.42783">
        <ele>984</ele>
        <time>2019-12-22T13:34:09Z</time>
      </trkpt>
      <trkpt lat="45.34279" lon="4.42757">
        <ele>984</ele>
        <time>2019-12-22T13:34:12Z</time>
      </trkpt>
      <trkpt lat="45.34281" lon="4.42725">
        <ele>984</ele>
        <time>2019-12-22T13:34:16Z</time>
      </trkpt>
      <trkpt lat="45.343" lon="4.42621">
        <ele>982</ele>
        <time>2019-12-22T13:34:30Z</time>
      </trkpt>
      <trkpt lat="45.34309" lon="4.4256">
        <ele>981</ele>
        <time>2019-12-22T13:34:38Z</time>
      </trkpt>
      <trkpt lat="45.3431" lon="4.42531">
        <ele>980</ele>
        <time>2019-12-22T13:34:41Z</time>
      </trkpt>
      <trkpt lat="45.34306" lon="4.425">
        <ele>979</ele>
        <time>2019-12-22T13:34:45Z</time>
      </trkpt>
      <trkpt lat="45.34289" lon="4.42418">
        <ele>978</ele>
        <time>2019-12-22T13:34:56Z</time>
      </trkpt>
      <trkpt lat="45.3427" lon="4.42377">
        <ele>978</ele>
        <time>2019-12-22T13:35:02Z</time>
      </trkpt>
      <trkpt lat="45.34258" lon="4.42359">
        <ele>978</ele>
        <time>2019-12-22T13:35:05Z</time>
      </trkpt>
      <trkpt lat="45.34233" lon="4.42326">
        <ele>977</ele>
        <time>2019-12-22T13:35:11Z</time>
      </trkpt>
      <trkpt lat="45.34154" lon="4.42247">
        <ele>975</ele>
        <time>2019-12-22T13:35:28Z</time>
      </trkpt>
      <trkpt lat="45.34136" lon="4.42226">
        <ele>974</ele>
        <time>2019-12-22T13:35:33Z</time>
      </trkpt>
      <trkpt lat="45.3407" lon="4.42087">
        <ele>972</ele>
        <time>2019-12-22T13:35:54Z</time>
      </trkpt>
      <trkpt lat="45.34067" lon="4.42054">
        <ele>972</ele>
        <time>2019-12-22T13:35:58Z</time>
      </trkpt>
      <trkpt lat="45.34067" lon="4.4202">
        <ele>973</ele>
        <time>2019-12-22T13:36:02Z</time>
      </trkpt>
      <trkpt lat="45.34024" lon="4.4201">
        <ele>969</ele>
        <time>2019-12-22T13:36:10Z</time>
      </trkpt>
      <trkpt lat="45.3402" lon="4.41992">
        <ele>969</ele>
        <time>2019-12-22T13:36:12Z</time>
      </trkpt>
      <trkpt lat="45.33991" lon="4.4194">
        <ele>967</ele>
        <time>2019-12-22T13:36:20Z</time>
      </trkpt>
      <trkpt lat="45.33942" lon="4.41809">
        <ele>959</ele>
        <time>2019-12-22T13:36:39Z</time>
      </trkpt>
      <trkpt lat="45.33908" lon="4.41755">
        <ele>958</ele>
        <time>2019-12-22T13:36:48Z</time>
      </trkpt>
      <trkpt lat="45.33911" lon="4.41746">
        <ele>958</ele>
        <time>2019-12-22T13:36:49Z</time>
      </trkpt>
      <trkpt lat="45.33907" lon="4.41733">
        <ele>959</ele>
        <time>2019-12-22T13:36:51Z</time>
      </trkpt>
      <trkpt lat="45.33904" lon="4.41731">
        <ele>960</ele>
        <time>2019-12-22T13:36:52Z</time>
      </trkpt>
      <trkpt lat="45.33897" lon="4.4173">
        <ele>960</ele>
        <time>2019-12-22T13:36:53Z</time>
      </trkpt>
      <trkpt lat="45.33892" lon="4.41734">
        <ele>960</ele>
        <time>2019-12-22T13:36:54Z</time>
      </trkpt>
      <trkpt lat="45.33884" lon="4.41735">
        <ele>960</ele>
        <time>2019-12-22T13:36:55Z</time>
      </trkpt>
      <trkpt lat="45.33825" lon="4.41761">
        <ele>961</ele>
        <time>2019-12-22T13:37:06Z</time>
      </trkpt>
      <trkpt lat="45.33804" lon="4.41768">
        <ele>961</ele>
        <time>2019-12-22T13:37:10Z</time>
      </trkpt>
      <trkpt lat="45.33791" lon="4.4177">
        <ele>961</ele>
        <time>2019-12-22T13:37:13Z</time>
      </trkpt>
      <trkpt lat="45.33779" lon="4.41768">
        <ele>961</ele>
        <time>2019-12-22T13:37:15Z</time>
      </trkpt>
      <trkpt lat="45.33765" lon="4.4176">
        <ele>963</ele>
        <time>2019-12-22T13:37:17Z</time>
      </trkpt>
      <trkpt lat="45.33757" lon="4.41751">
        <ele>964</ele>
        <time>2019-12-22T13:37:19Z</time>
      </trkpt>
      <trkpt lat="45.33752" lon="4.4174">
        <ele>965</ele>
        <time>2019-12-22T13:37:21Z</time>
      </trkpt>
      <trkpt lat="45.3375" lon="4.41724">
        <ele>966</ele>
        <time>2019-12-22T13:37:23Z</time>
      </trkpt>
      <trkpt lat="45.33752" lon="4.41711">
        <ele>967</ele>
        <time>2019-12-22T13:37:25Z</time>
      </trkpt>
      <trkpt lat="45.33756" lon="4.41699">
        <ele>968</ele>
        <time>2019-12-22T13:37:26Z</time>
      </trkpt>
      <trkpt lat="45.33807" lon="4.41627">
        <ele>971</ele>
        <time>2019-12-22T13:37:39Z</time>
      </trkpt>
      <trkpt lat="45.33815" lon="4.41609">
        <ele>972</ele>
        <time>2019-12-22T13:37:42Z</time>
      </trkpt>
      <trkpt lat="45.33819" lon="4.41589">
        <ele>972</ele>
        <time>2019-12-22T13:37:44Z</time>
      </trkpt>
      <trkpt lat="45.33818" lon="4.41575">
        <ele>973</ele>
        <time>2019-12-22T13:37:46Z</time>
      </trkpt>
      <trkpt lat="45.33809" lon="4.4155">
        <ele>973</ele>
        <time>2019-12-22T13:37:49Z</time>
      </trkpt>
      <trkpt lat="45.3375" lon="4.41413">
        <ele>978</ele>
        <time>2019-12-22T13:38:10Z</time>
      </trkpt>
      <trkpt lat="45.33741" lon="4.41389">
        <ele>978</ele>
        <time>2019-12-22T13:38:13Z</time>
      </trkpt>
      <trkpt lat="45.3364" lon="4.41218">
        <ele>976</ele>
        <time>2019-12-22T13:38:41Z</time>
      </trkpt>
      <trkpt lat="45.33608" lon="4.41145">
        <ele>977</ele>
        <time>2019-12-22T13:38:52Z</time>
      </trkpt>
      <trkpt lat="45.33526" lon="4.41015">
        <ele>979</ele>
        <time>2019-12-22T13:39:14Z</time>
      </trkpt>
      <trkpt lat="45.33508" lon="4.40982">
        <ele>978</ele>
        <time>2019-12-22T13:39:19Z</time>
      </trkpt>
      <trkpt lat="45.33499" lon="4.40958">
        <ele>978</ele>
        <time>2019-12-22T13:39:22Z</time>
      </trkpt>
      <trkpt lat="45.33486" lon="4.40908">
        <ele>979</ele>
        <time>2019-12-22T13:39:29Z</time>
      </trkpt>
      <trkpt lat="45.33474" lon="4.40838">
        <ele>979</ele>
        <time>2019-12-22T13:39:38Z</time>
      </trkpt>
      <trkpt lat="45.33471" lon="4.4081">
        <ele>978</ele>
        <time>2019-12-22T13:39:41Z</time>
      </trkpt>
      <trkpt lat="45.33472" lon="4.40773">
        <ele>977</ele>
        <time>2019-12-22T13:39:46Z</time>
      </trkpt>
      <trkpt lat="45.33477" lon="4.40746">
        <ele>977</ele>
        <time>2019-12-22T13:39:49Z</time>
      </trkpt>
      <trkpt lat="45.33482" lon="4.4073">
        <ele>977</ele>
        <time>2019-12-22T13:39:52Z</time>
      </trkpt>
      <trkpt lat="45.33493" lon="4.40706">
        <ele>977</ele>
        <time>2019-12-22T13:39:55Z</time>
      </trkpt>
      <trkpt lat="45.33508" lon="4.40683">
        <ele>978</ele>
        <time>2019-12-22T13:39:59Z</time>
      </trkpt>
      <trkpt lat="45.3358" lon="4.40589">
        <ele>978</ele>
        <time>2019-12-22T13:40:17Z</time>
      </trkpt>
      <trkpt lat="45.3359" lon="4.4057">
        <ele>979</ele>
        <time>2019-12-22T13:40:20Z</time>
      </trkpt>
      <trkpt lat="45.33596" lon="4.40548">
        <ele>979</ele>
        <time>2019-12-22T13:40:23Z</time>
      </trkpt>
      <trkpt lat="45.33597" lon="4.40506">
        <ele>979</ele>
        <time>2019-12-22T13:40:28Z</time>
      </trkpt>
      <trkpt lat="45.33588" lon="4.40438">
        <ele>976</ele>
        <time>2019-12-22T13:40:36Z</time>
      </trkpt>
      <trkpt lat="45.33587" lon="4.40415">
        <ele>976</ele>
        <time>2019-12-22T13:40:39Z</time>
      </trkpt>
      <trkpt lat="45.33588" lon="4.40395">
        <ele>975</ele>
        <time>2019-12-22T13:40:42Z</time>
      </trkpt>
      <trkpt lat="45.33601" lon="4.40313">
        <ele>973</ele>
        <time>2019-12-22T13:40:52Z</time>
      </trkpt>
      <trkpt lat="45.336" lon="4.40286">
        <ele>972</ele>
        <time>2019-12-22T13:40:56Z</time>
      </trkpt>
      <trkpt lat="45.33596" lon="4.40254">
        <ele>970</ele>
        <time>2019-12-22T13:41:00Z</time>
      </trkpt>
      <trkpt lat="45.33567" lon="4.40113">
        <ele>969</ele>
        <time>2019-12-22T13:41:18Z</time>
      </trkpt>
      <trkpt lat="45.33565" lon="4.40093">
        <ele>968</ele>
        <time>2019-12-22T13:41:21Z</time>
      </trkpt>
      <trkpt lat="45.3357" lon="4.39953">
        <ele>961</ele>
        <time>2019-12-22T13:41:38Z</time>
      </trkpt>
      <trkpt lat="45.33576" lon="4.39896">
        <ele>958</ele>
        <time>2019-12-22T13:41:45Z</time>
      </trkpt>
      <trkpt lat="45.33581" lon="4.39873">
        <ele>956</ele>
        <time>2019-12-22T13:41:48Z</time>
      </trkpt>
      <trkpt lat="45.33586" lon="4.3986">
        <ele>955</ele>
        <time>2019-12-22T13:41:50Z</time>
      </trkpt>
      <trkpt lat="45.33596" lon="4.39844">
        <ele>954</ele>
        <time>2019-12-22T13:41:53Z</time>
      </trkpt>
      <trkpt lat="45.33617" lon="4.39827">
        <ele>953</ele>
        <time>2019-12-22T13:41:57Z</time>
      </trkpt>
      <trkpt lat="45.33719" lon="4.39759">
        <ele>952</ele>
        <time>2019-12-22T13:42:17Z</time>
      </trkpt>
      <trkpt lat="45.33759" lon="4.39726">
        <ele>952</ele>
        <time>2019-12-22T13:42:26Z</time>
      </trkpt>
      <trkpt lat="45.33787" lon="4.39697">
        <ele>953</ele>
        <time>2019-12-22T13:42:32Z</time>
      </trkpt>
      <trkpt lat="45.33794" lon="4.39686">
        <ele>953</ele>
        <time>2019-12-22T13:42:34Z</time>
      </trkpt>
      <trkpt lat="45.33805" lon="4.39659">
        <ele>953</ele>
        <time>2019-12-22T13:42:37Z</time>
      </trkpt>
      <trkpt lat="45.33808" lon="4.39647">
        <ele>954</ele>
        <time>2019-12-22T13:42:39Z</time>
      </trkpt>
      <trkpt lat="45.33812" lon="4.3962">
        <ele>956</ele>
        <time>2019-12-22T13:42:42Z</time>
      </trkpt>
      <trkpt lat="45.33811" lon="4.39601">
        <ele>958</ele>
        <time>2019-12-22T13:42:45Z</time>
      </trkpt>
      <trkpt lat="45.338" lon="4.39472">
        <ele>960</ele>
        <time>2019-12-22T13:43:01Z</time>
      </trkpt>
      <trkpt lat="45.33803" lon="4.39401">
        <ele>957</ele>
        <time>2019-12-22T13:43:10Z</time>
      </trkpt>
      <trkpt lat="45.33809" lon="4.39351">
        <ele>954</ele>
        <time>2019-12-22T13:43:16Z</time>
      </trkpt>
      <trkpt lat="45.33825" lon="4.39311">
        <ele>952</ele>
        <time>2019-12-22T13:43:22Z</time>
      </trkpt>
      <trkpt lat="45.3386" lon="4.39272">
        <ele>953</ele>
        <time>2019-12-22T13:43:30Z</time>
      </trkpt>
      <trkpt lat="45.3392" lon="4.3923">
        <ele>955</ele>
        <time>2019-12-22T13:43:42Z</time>
      </trkpt>
      <trkpt lat="45.33991" lon="4.3916">
        <ele>948</ele>
        <time>2019-12-22T13:43:57Z</time>
      </trkpt>
      <trkpt lat="45.34099" lon="4.39091">
        <ele>944</ele>
        <time>2019-12-22T13:44:18Z</time>
      </trkpt>
      <trkpt lat="45.34128" lon="4.39056">
        <ele>943</ele>
        <time>2019-12-22T13:44:25Z</time>
      </trkpt>
      <trkpt lat="45.34174" lon="4.38976">
        <ele>940</ele>
        <time>2019-12-22T13:44:38Z</time>
      </trkpt>
      <trkpt lat="45.34201" lon="4.3886">
        <ele>936</ele>
        <time>2019-12-22T13:44:53Z</time>
      </trkpt>
      <trkpt lat="45.34197" lon="4.38721">
        <ele>936</ele>
        <time>2019-12-22T13:45:11Z</time>
      </trkpt>
      <trkpt lat="45.34248" lon="4.3853">
        <ele>938</ele>
        <time>2019-12-22T13:45:36Z</time>
      </trkpt>
      <trkpt lat="45.34253" lon="4.38502">
        <ele>938</ele>
        <time>2019-12-22T13:45:40Z</time>
      </trkpt>
      <trkpt lat="45.34271" lon="4.38494">
        <ele>939</ele>
        <time>2019-12-22T13:45:43Z</time>
      </trkpt>
      <trkpt lat="45.34349" lon="4.38516">
        <ele>943</ele>
        <time>2019-12-22T13:45:57Z</time>
      </trkpt>
      <trkpt lat="45.34477" lon="4.38542">
        <ele>947</ele>
        <time>2019-12-22T13:46:20Z</time>
      </trkpt>
      <trkpt lat="45.34519" lon="4.38539">
        <ele>946</ele>
        <time>2019-12-22T13:46:28Z</time>
      </trkpt>
      <trkpt lat="45.34577" lon="4.38547">
        <ele>944</ele>
        <time>2019-12-22T13:46:38Z</time>
      </trkpt>
      <trkpt lat="45.34652" lon="4.38535">
        <ele>939</ele>
        <time>2019-12-22T13:46:52Z</time>
      </trkpt>
      <trkpt lat="45.34747" lon="4.38534">
        <ele>938</ele>
        <time>2019-12-22T13:47:09Z</time>
      </trkpt>
      <trkpt lat="45.34766" lon="4.38539">
        <ele>937</ele>
        <time>2019-12-22T13:47:12Z</time>
      </trkpt>
      <trkpt lat="45.34783" lon="4.38547">
        <ele>935</ele>
        <time>2019-12-22T13:47:15Z</time>
      </trkpt>
      <trkpt lat="45.34795" lon="4.38572">
        <ele>936</ele>
        <time>2019-12-22T13:47:19Z</time>
      </trkpt>
      <trkpt lat="45.34808" lon="4.38658">
        <ele>938</ele>
        <time>2019-12-22T13:47:30Z</time>
      </trkpt>
      <trkpt lat="45.34813" lon="4.38703">
        <ele>938</ele>
        <time>2019-12-22T13:47:36Z</time>
      </trkpt>
      <trkpt lat="45.34822" lon="4.38744">
        <ele>937</ele>
        <time>2019-12-22T13:47:41Z</time>
      </trkpt>
      <trkpt lat="45.34837" lon="4.38756">
        <ele>935</ele>
        <time>2019-12-22T13:47:44Z</time>
      </trkpt>
      <trkpt lat="45.34863" lon="4.38769">
        <ele>937</ele>
        <time>2019-12-22T13:47:49Z</time>
      </trkpt>
      <trkpt lat="45.34929" lon="4.38806">
        <ele>942</ele>
        <time>2019-12-22T13:48:02Z</time>
      </trkpt>
      <trkpt lat="45.34985" lon="4.38814">
        <ele>940</ele>
        <time>2019-12-22T13:48:12Z</time>
      </trkpt>
      <trkpt lat="45.35061" lon="4.38807">
        <ele>934</ele>
        <time>2019-12-22T13:48:25Z</time>
      </trkpt>
      <trkpt lat="45.35081" lon="4.38785">
        <ele>930</ele>
        <time>2019-12-22T13:48:30Z</time>
      </trkpt>
      <trkpt lat="45.35092" lon="4.38756">
        <ele>927</ele>
        <time>2019-12-22T13:48:34Z</time>
      </trkpt>
      <trkpt lat="45.35113" lon="4.38675">
        <ele>923</ele>
        <time>2019-12-22T13:48:45Z</time>
      </trkpt>
      <trkpt lat="45.35143" lon="4.38599">
        <ele>921</ele>
        <time>2019-12-22T13:48:56Z</time>
      </trkpt>
      <trkpt lat="45.35171" lon="4.38549">
        <ele>919</ele>
        <time>2019-12-22T13:49:04Z</time>
      </trkpt>
      <trkpt lat="45.35221" lon="4.38487">
        <ele>918</ele>
        <time>2019-12-22T13:49:15Z</time>
      </trkpt>
      <trkpt lat="45.35343" lon="4.38343">
        <ele>912</ele>
        <time>2019-12-22T13:49:44Z</time>
      </trkpt>
      <trkpt lat="45.35371" lon="4.38315">
        <ele>911</ele>
        <time>2019-12-22T13:49:50Z</time>
      </trkpt>
      <trkpt lat="45.35399" lon="4.38296">
        <ele>911</ele>
        <time>2019-12-22T13:49:55Z</time>
      </trkpt>
      <trkpt lat="45.35429" lon="4.38302">
        <ele>911</ele>
        <time>2019-12-22T13:50:01Z</time>
      </trkpt>
      <trkpt lat="45.35471" lon="4.38327">
        <ele>911</ele>
        <time>2019-12-22T13:50:09Z</time>
      </trkpt>
      <trkpt lat="45.35498" lon="4.38349">
        <ele>911</ele>
        <time>2019-12-22T13:50:14Z</time>
      </trkpt>
      <trkpt lat="45.35543" lon="4.38343">
        <ele>906</ele>
        <time>2019-12-22T13:50:22Z</time>
      </trkpt>
      <trkpt lat="45.35601" lon="4.38331">
        <ele>900</ele>
        <time>2019-12-22T13:50:33Z</time>
      </trkpt>
      <trkpt lat="45.35616" lon="4.38333">
        <ele>899</ele>
        <time>2019-12-22T13:50:35Z</time>
      </trkpt>
      <trkpt lat="45.35722" lon="4.38321">
        <ele>898</ele>
        <time>2019-12-22T13:50:54Z</time>
      </trkpt>
      <trkpt lat="45.3574" lon="4.38302">
        <ele>897</ele>
        <time>2019-12-22T13:50:58Z</time>
      </trkpt>
      <trkpt lat="45.35754" lon="4.38295">
        <ele>897</ele>
        <time>2019-12-22T13:51:01Z</time>
      </trkpt>
      <trkpt lat="45.35883" lon="4.38143">
        <ele>900</ele>
        <time>2019-12-22T13:51:31Z</time>
      </trkpt>
      <trkpt lat="45.35958" lon="4.38033">
        <ele>903</ele>
        <time>2019-12-22T13:51:50Z</time>
      </trkpt>
      <trkpt lat="45.36092" lon="4.3795">
        <ele>901</ele>
        <time>2019-12-22T13:52:16Z</time>
      </trkpt>
      <trkpt lat="45.3621" lon="4.37915">
        <ele>897</ele>
        <time>2019-12-22T13:52:37Z</time>
      </trkpt>
      <trkpt lat="45.3626" lon="4.37911">
        <ele>894</ele>
        <time>2019-12-22T13:52:46Z</time>
      </trkpt>
      <trkpt lat="45.36353" lon="4.37885">
        <ele>890</ele>
        <time>2019-12-22T13:53:03Z</time>
      </trkpt>
      <trkpt lat="45.36407" lon="4.37868">
        <ele>888</ele>
        <time>2019-12-22T13:53:13Z</time>
      </trkpt>
      <trkpt lat="45.36458" lon="4.37843">
        <ele>885</ele>
        <time>2019-12-22T13:53:22Z</time>
      </trkpt>
      <trkpt lat="45.36563" lon="4.37752">
        <ele>881</ele>
        <time>2019-12-22T13:53:44Z</time>
      </trkpt>
      <trkpt lat="45.36673" lon="4.37677">
        <ele>876</ele>
        <time>2019-12-22T13:54:06Z</time>
      </trkpt>
      <trkpt lat="45.36711" lon="4.37649">
        <ele>875</ele>
        <time>2019-12-22T13:54:14Z</time>
      </trkpt>
      <trkpt lat="45.3673" lon="4.37619">
        <ele>875</ele>
        <time>2019-12-22T13:54:19Z</time>
      </trkpt>
      <trkpt lat="45.36733" lon="4.3759">
        <ele>875</ele>
        <time>2019-12-22T13:54:22Z</time>
      </trkpt>
      <trkpt lat="45.36729" lon="4.37559">
        <ele>875</ele>
        <time>2019-12-22T13:54:26Z</time>
      </trkpt>
      <trkpt lat="45.36692" lon="4.37435">
        <ele>871</ele>
        <time>2019-12-22T13:54:43Z</time>
      </trkpt>
      <trkpt lat="45.36676" lon="4.37391">
        <ele>870</ele>
        <time>2019-12-22T13:54:49Z</time>
      </trkpt>
      <trkpt lat="45.3667" lon="4.37336">
        <ele>869</ele>
        <time>2019-12-22T13:54:56Z</time>
      </trkpt>
      <trkpt lat="45.36674" lon="4.37263">
        <ele>867</ele>
        <time>2019-12-22T13:55:05Z</time>
      </trkpt>
      <trkpt lat="45.36683" lon="4.37197">
        <ele>863</ele>
        <time>2019-12-22T13:55:14Z</time>
      </trkpt>
      <trkpt lat="45.36706" lon="4.37137">
        <ele>863</ele>
        <time>2019-12-22T13:55:22Z</time>
      </trkpt>
      <trkpt lat="45.36715" lon="4.37086">
        <ele>862</ele>
        <time>2019-12-22T13:55:29Z</time>
      </trkpt>
      <trkpt lat="45.36708" lon="4.37046">
        <ele>859</ele>
        <time>2019-12-22T13:55:34Z</time>
      </trkpt>
      <trkpt lat="45.36688" lon="4.37007">
        <ele>853</ele>
        <time>2019-12-22T13:55:40Z</time>
      </trkpt>
      <trkpt lat="45.36684" lon="4.36972">
        <ele>849</ele>
        <time>2019-12-22T13:55:45Z</time>
      </trkpt>
      <trkpt lat="45.36701" lon="4.36906">
        <ele>847</ele>
        <time>2019-12-22T13:55:53Z</time>
      </trkpt>
      <trkpt lat="45.36734" lon="4.36806">
        <ele>842</ele>
        <time>2019-12-22T13:56:07Z</time>
      </trkpt>
      <trkpt lat="45.3677" lon="4.36775">
        <ele>838</ele>
        <time>2019-12-22T13:56:15Z</time>
      </trkpt>
      <trkpt lat="45.36808" lon="4.36766">
        <ele>836</ele>
        <time>2019-12-22T13:56:22Z</time>
      </trkpt>
      <trkpt lat="45.36871" lon="4.36795">
        <ele>835</ele>
        <time>2019-12-22T13:56:33Z</time>
      </trkpt>
      <trkpt lat="45.36969" lon="4.36906">
        <ele>836</ele>
        <time>2019-12-22T13:56:56Z</time>
      </trkpt>
      <trkpt lat="45.37111" lon="4.37024">
        <ele>832</ele>
        <time>2019-12-22T13:57:25Z</time>
      </trkpt>
      <trkpt lat="45.37132" lon="4.37029">
        <ele>833</ele>
        <time>2019-12-22T13:57:29Z</time>
      </trkpt>
      <trkpt lat="45.37143" lon="4.37014">
        <ele>830</ele>
        <time>2019-12-22T13:57:31Z</time>
      </trkpt>
      <trkpt lat="45.37145" lon="4.36985">
        <ele>827</ele>
        <time>2019-12-22T13:57:35Z</time>
      </trkpt>
      <trkpt lat="45.37133" lon="4.36894">
        <ele>817</ele>
        <time>2019-12-22T13:57:47Z</time>
      </trkpt>
      <trkpt lat="45.37122" lon="4.36744">
        <ele>804</ele>
        <time>2019-12-22T13:58:05Z</time>
      </trkpt>
      <trkpt lat="45.37124" lon="4.36702">
        <ele>803</ele>
        <time>2019-12-22T13:58:11Z</time>
      </trkpt>
      <trkpt lat="45.37106" lon="4.36606">
        <ele>793</ele>
        <time>2019-12-22T13:58:23Z</time>
      </trkpt>
      <trkpt lat="45.37103" lon="4.36567">
        <ele>788</ele>
        <time>2019-12-22T13:58:28Z</time>
      </trkpt>
      <trkpt lat="45.37109" lon="4.36532">
        <ele>785</ele>
        <time>2019-12-22T13:58:33Z</time>
      </trkpt>
      <trkpt lat="45.37123" lon="4.36489">
        <ele>783</ele>
        <time>2019-12-22T13:58:38Z</time>
      </trkpt>
      <trkpt lat="45.37142" lon="4.3646">
        <ele>782</ele>
        <time>2019-12-22T13:58:43Z</time>
      </trkpt>
      <trkpt lat="45.37172" lon="4.36441">
        <ele>784</ele>
        <time>2019-12-22T13:58:49Z</time>
      </trkpt>
      <trkpt lat="45.37223" lon="4.36443">
        <ele>791</ele>
        <time>2019-12-22T13:58:58Z</time>
      </trkpt>
      <trkpt lat="45.37276" lon="4.36415">
        <ele>789</ele>
        <time>2019-12-22T13:59:08Z</time>
      </trkpt>
      <trkpt lat="45.37311" lon="4.36368">
        <ele>779</ele>
        <time>2019-12-22T13:59:17Z</time>
      </trkpt>
      <trkpt lat="45.37351" lon="4.36344">
        <ele>783</ele>
        <time>2019-12-22T13:59:25Z</time>
      </trkpt>
      <trkpt lat="45.37365" lon="4.36313">
        <ele>781</ele>
        <time>2019-12-22T13:59:29Z</time>
      </trkpt>
      <trkpt lat="45.37369" lon="4.36225">
        <ele>776</ele>
        <time>2019-12-22T13:59:40Z</time>
      </trkpt>
      <trkpt lat="45.37355" lon="4.36156">
        <ele>775</ele>
        <time>2019-12-22T13:59:49Z</time>
      </trkpt>
      <trkpt lat="45.37305" lon="4.36113">
        <ele>758</ele>
        <time>2019-12-22T14:00:00Z</time>
      </trkpt>
      <trkpt lat="45.37291" lon="4.36091">
        <ele>753</ele>
        <time>2019-12-22T14:00:03Z</time>
      </trkpt>
      <trkpt lat="45.37278" lon="4.36061">
        <ele>748</ele>
        <time>2019-12-22T14:00:08Z</time>
      </trkpt>
      <trkpt lat="45.37277" lon="4.3603">
        <ele>748</ele>
        <time>2019-12-22T14:00:12Z</time>
      </trkpt>
      <trkpt lat="45.37319" lon="4.35909">
        <ele>754</ele>
        <time>2019-12-22T14:00:29Z</time>
      </trkpt>
      <trkpt lat="45.37333" lon="4.35785">
        <ele>745</ele>
        <time>2019-12-22T14:00:44Z</time>
      </trkpt>
      <trkpt lat="45.37344" lon="4.35727">
        <ele>739</ele>
        <time>2019-12-22T14:00:52Z</time>
      </trkpt>
      <trkpt lat="45.37358" lon="4.35708">
        <ele>739</ele>
        <time>2019-12-22T14:00:55Z</time>
      </trkpt>
      <trkpt lat="45.37441" lon="4.35633">
        <ele>743</ele>
        <time>2019-12-22T14:01:13Z</time>
      </trkpt>
      <trkpt lat="45.3747" lon="4.35552">
        <ele>734</ele>
        <time>2019-12-22T14:01:24Z</time>
      </trkpt>
      <trkpt lat="45.37497" lon="4.3544">
        <ele>724</ele>
        <time>2019-12-22T14:01:39Z</time>
      </trkpt>
      <trkpt lat="45.37535" lon="4.35369">
        <ele>724</ele>
        <time>2019-12-22T14:01:50Z</time>
      </trkpt>
      <trkpt lat="45.37542" lon="4.35336">
        <ele>722</ele>
        <time>2019-12-22T14:01:54Z</time>
      </trkpt>
      <trkpt lat="45.37548" lon="4.35172">
        <ele>713</ele>
        <time>2019-12-22T14:02:15Z</time>
      </trkpt>
      <trkpt lat="45.37577" lon="4.35045">
        <ele>709</ele>
        <time>2019-12-22T14:02:32Z</time>
      </trkpt>
      <trkpt lat="45.37574" lon="4.3503">
        <ele>706</ele>
        <time>2019-12-22T14:02:33Z</time>
      </trkpt>
      <trkpt lat="45.37566" lon="4.35025">
        <ele>702</ele>
        <time>2019-12-22T14:02:35Z</time>
      </trkpt>
      <trkpt lat="45.37555" lon="4.35027">
        <ele>699</ele>
        <time>2019-12-22T14:02:37Z</time>
      </trkpt>
      <trkpt lat="45.37544" lon="4.35048">
        <ele>697</ele>
        <time>2019-12-22T14:02:40Z</time>
      </trkpt>
      <trkpt lat="45.37512" lon="4.35156">
        <ele>696</ele>
        <time>2019-12-22T14:02:55Z</time>
      </trkpt>
      <trkpt lat="45.37503" lon="4.35165">
        <ele>693</ele>
        <time>2019-12-22T14:02:57Z</time>
      </trkpt>
      <trkpt lat="45.37493" lon="4.35153">
        <ele>688</ele>
        <time>2019-12-22T14:02:59Z</time>
      </trkpt>
      <trkpt lat="45.37492" lon="4.35123">
        <ele>685</ele>
        <time>2019-12-22T14:03:03Z</time>
      </trkpt>
      <trkpt lat="45.37504" lon="4.35072">
        <ele>686</ele>
        <time>2019-12-22T14:03:10Z</time>
      </trkpt>
      <trkpt lat="45.37525" lon="4.35029">
        <ele>688</ele>
        <time>2019-12-22T14:03:16Z</time>
      </trkpt>
      <trkpt lat="45.37532" lon="4.35001">
        <ele>687</ele>
        <time>2019-12-22T14:03:20Z</time>
      </trkpt>
      <trkpt lat="45.37534" lon="4.34931">
        <ele>677</ele>
        <time>2019-12-22T14:03:29Z</time>
      </trkpt>
      <trkpt lat="45.37545" lon="4.34902">
        <ele>674</ele>
        <time>2019-12-22T14:03:33Z</time>
      </trkpt>
      <trkpt lat="45.37573" lon="4.34897">
        <ele>679</ele>
        <time>2019-12-22T14:03:38Z</time>
      </trkpt>
      <trkpt lat="45.37605" lon="4.34899">
        <ele>685</ele>
        <time>2019-12-22T14:03:44Z</time>
      </trkpt>
      <trkpt lat="45.37671" lon="4.34873">
        <ele>681</ele>
        <time>2019-12-22T14:03:56Z</time>
      </trkpt>
      <trkpt lat="45.37726" lon="4.34811">
        <ele>679</ele>
        <time>2019-12-22T14:04:08Z</time>
      </trkpt>
      <trkpt lat="45.37763" lon="4.3469">
        <ele>659</ele>
        <time>2019-12-22T14:04:25Z</time>
      </trkpt>
      <trkpt lat="45.37798" lon="4.34643">
        <ele>663</ele>
        <time>2019-12-22T14:04:33Z</time>
      </trkpt>
      <trkpt lat="45.37821" lon="4.34598">
        <ele>662</ele>
        <time>2019-12-22T14:04:40Z</time>
      </trkpt>
      <trkpt lat="45.37875" lon="4.3444">
        <ele>647</ele>
        <time>2019-12-22T14:05:02Z</time>
      </trkpt>
      <trkpt lat="45.37928" lon="4.3437">
        <ele>647</ele>
        <time>2019-12-22T14:05:15Z</time>
      </trkpt>
      <trkpt lat="45.37951" lon="4.34322">
        <ele>639</ele>
        <time>2019-12-22T14:05:22Z</time>
      </trkpt>
      <trkpt lat="45.37969" lon="4.34305">
        <ele>639</ele>
        <time>2019-12-22T14:05:26Z</time>
      </trkpt>
      <trkpt lat="45.38087" lon="4.34221">
        <ele>642</ele>
        <time>2019-12-22T14:05:50Z</time>
      </trkpt>
      <trkpt lat="45.38179" lon="4.34064">
        <ele>626</ele>
        <time>2019-12-22T14:06:15Z</time>
      </trkpt>
      <trkpt lat="45.38293" lon="4.33939">
        <ele>619</ele>
        <time>2019-12-22T14:06:41Z</time>
      </trkpt>
      <trkpt lat="45.38335" lon="4.33875">
        <ele>617</ele>
        <time>2019-12-22T14:06:52Z</time>
      </trkpt>
      <trkpt lat="45.38372" lon="4.33787">
        <ele>612</ele>
        <time>2019-12-22T14:07:05Z</time>
      </trkpt>
      <trkpt lat="45.38392" lon="4.33698">
        <ele>600</ele>
        <time>2019-12-22T14:07:16Z</time>
      </trkpt>
      <trkpt lat="45.38447" lon="4.33603">
        <ele>593</ele>
        <time>2019-12-22T14:07:32Z</time>
      </trkpt>
      <trkpt lat="45.38464" lon="4.33565">
        <ele>587</ele>
        <time>2019-12-22T14:07:37Z</time>
      </trkpt>
      <trkpt lat="45.38491" lon="4.33534">
        <ele>585</ele>
        <time>2019-12-22T14:07:43Z</time>
      </trkpt>
      <trkpt lat="45.38596" lon="4.33479">
        <ele>584</ele>
        <time>2019-12-22T14:08:03Z</time>
      </trkpt>
      <trkpt lat="45.38663" lon="4.33419">
        <ele>577</ele>
        <time>2019-12-22T14:08:17Z</time>
      </trkpt>
      <trkpt lat="45.38803" lon="4.33367">
        <ele>566</ele>
        <time>2019-12-22T14:08:43Z</time>
      </trkpt>
      <trkpt lat="45.38892" lon="4.33382">
        <ele>562</ele>
        <time>2019-12-22T14:08:59Z</time>
      </trkpt>
      <trkpt lat="45.38978" lon="4.33365">
        <ele>557</ele>
        <time>2019-12-22T14:09:15Z</time>
      </trkpt>
      <trkpt lat="45.39112" lon="4.33272">
        <ele>539</ele>
        <time>2019-12-22T14:09:41Z</time>
      </trkpt>
      <trkpt lat="45.3914" lon="4.33272">
        <ele>538</ele>
        <time>2019-12-22T14:09:46Z</time>
      </trkpt>
      <trkpt lat="45.39207" lon="4.33302">
        <ele>540</ele>
        <time>2019-12-22T14:09:59Z</time>
      </trkpt>
      <trkpt lat="45.3923" lon="4.33302">
        <ele>538</ele>
        <time>2019-12-22T14:10:03Z</time>
      </trkpt>
      <trkpt lat="45.39261" lon="4.33292">
        <ele>536</ele>
        <time>2019-12-22T14:10:08Z</time>
      </trkpt>
      <trkpt lat="45.39275" lon="4.33293">
        <ele>536</ele>
        <time>2019-12-22T14:10:11Z</time>
      </trkpt>
      <trkpt lat="45.39277" lon="4.33297">
        <ele>537</ele>
        <time>2019-12-22T14:10:11Z</time>
      </trkpt>
      <trkpt lat="45.39282" lon="4.333">
        <ele>537</ele>
        <time>2019-12-22T14:10:12Z</time>
      </trkpt>
      <trkpt lat="45.39286" lon="4.33298">
        <ele>537</ele>
        <time>2019-12-22T14:10:13Z</time>
      </trkpt>
      <trkpt lat="45.39288" lon="4.33296">
        <ele>537</ele>
        <time>2019-12-22T14:10:14Z</time>
      </trkpt>
      <trkpt lat="45.3929" lon="4.33289">
        <ele>536</ele>
        <time>2019-12-22T14:10:14Z</time>
      </trkpt>
      <trkpt lat="45.39288" lon="4.33279">
        <ele>535</ele>
        <time>2019-12-22T14:10:16Z</time>
      </trkpt>
      <trkpt lat="45.39302" lon="4.33266">
        <ele>534</ele>
        <time>2019-12-22T14:10:19Z</time>
      </trkpt>
      <trkpt lat="45.39383" lon="4.33208">
        <ele>526</ele>
        <time>2019-12-22T14:10:35Z</time>
      </trkpt>
      <trkpt lat="45.39436" lon="4.33158">
        <ele>521</ele>
        <time>2019-12-22T14:10:46Z</time>
      </trkpt>
      <trkpt lat="45.39424" lon="4.3309">
        <ele>517</ele>
        <time>2019-12-22T14:10:55Z</time>
      </trkpt>
      <trkpt lat="45.39376" lon="4.32919">
        <ele>511</ele>
        <time>2019-12-22T14:11:18Z</time>
      </trkpt>
      <trkpt lat="45.39371" lon="4.3288">
        <ele>509</ele>
        <time>2019-12-22T14:11:23Z</time>
      </trkpt>
      <trkpt lat="45.39376" lon="4.32758">
        <ele>509</ele>
        <time>2019-12-22T14:11:38Z</time>
      </trkpt>
      <trkpt lat="45.3934" lon="4.32586">
        <ele>518</ele>
        <time>2019-12-22T14:12:01Z</time>
      </trkpt>
      <trkpt lat="45.39347" lon="4.32573">
        <ele>517</ele>
        <time>2019-12-22T14:12:03Z</time>
      </trkpt>
      <trkpt lat="45.39356" lon="4.32571">
        <ele>516</ele>
        <time>2019-12-22T14:12:04Z</time>
      </trkpt>
      <trkpt lat="45.39359" lon="4.32564">
        <ele>516</ele>
        <time>2019-12-22T14:12:05Z</time>
      </trkpt>
      <trkpt lat="45.3936" lon="4.3256">
        <ele>516</ele>
        <time>2019-12-22T14:12:06Z</time>
      </trkpt>
      <trkpt lat="45.39368" lon="4.32561">
        <ele>515</ele>
        <time>2019-12-22T14:12:07Z</time>
      </trkpt>
      <trkpt lat="45.39454" lon="4.32527">
        <ele>508</ele>
        <time>2019-12-22T14:12:23Z</time>
      </trkpt>
      <trkpt lat="45.3947" lon="4.32511">
        <ele>507</ele>
        <time>2019-12-22T14:12:27Z</time>
      </trkpt>
      <trkpt lat="45.39486" lon="4.3248">
        <ele>505</ele>
        <time>2019-12-22T14:12:31Z</time>
      </trkpt>
      <trkpt lat="45.39492" lon="4.32484">
        <ele>505</ele>
        <time>2019-12-22T14:12:33Z</time>
      </trkpt>
      <trkpt lat="45.39495" lon="4.32479">
        <ele>504</ele>
        <time>2019-12-22T14:12:33Z</time>
      </trkpt>
      <trkpt lat="45.39495" lon="4.32474">
        <ele>504</ele>
        <time>2019-12-22T14:12:34Z</time>
      </trkpt>
      <trkpt lat="45.39505" lon="4.32473">
        <ele>503</ele>
        <time>2019-12-22T14:12:36Z</time>
      </trkpt>
      <trkpt lat="45.39523" lon="4.32466">
        <ele>502</ele>
        <time>2019-12-22T14:12:39Z</time>
      </trkpt>
      <trkpt lat="45.39529" lon="4.32458">
        <ele>502</ele>
        <time>2019-12-22T14:12:41Z</time>
      </trkpt>
      <trkpt lat="45.39532" lon="4.32449">
        <ele>502</ele>
        <time>2019-12-22T14:12:42Z</time>
      </trkpt>
      <trkpt lat="45.39532" lon="4.32439">
        <ele>502</ele>
        <time>2019-12-22T14:12:43Z</time>
      </trkpt>
      <trkpt lat="45.3953" lon="4.32429">
        <ele>502</ele>
        <time>2019-12-22T14:12:44Z</time>
      </trkpt>
      <trkpt lat="45.39511" lon="4.32372">
        <ele>502</ele>
        <time>2019-12-22T14:12:52Z</time>
      </trkpt>
      <trkpt lat="45.39508" lon="4.32359">
        <ele>502</ele>
        <time>2019-12-22T14:12:54Z</time>
      </trkpt>
      <trkpt lat="45.39508" lon="4.32344">
        <ele>502</ele>
        <time>2019-12-22T14:12:56Z</time>
      </trkpt>
      <trkpt lat="45.39513" lon="4.32333">
        <ele>502</ele>
        <time>2019-12-22T14:12:58Z</time>
      </trkpt>
      <trkpt lat="45.39521" lon="4.32329">
        <ele>501</ele>
        <time>2019-12-22T14:12:59Z</time>
      </trkpt>
      <trkpt lat="45.39528" lon="4.32343">
        <ele>501</ele>
        <time>2019-12-22T14:13:01Z</time>
      </trkpt>
      <trkpt lat="45.39551" lon="4.32369">
        <ele>500</ele>
        <time>2019-12-22T14:13:06Z</time>
      </trkpt>
      <trkpt lat="45.39659" lon="4.32323">
        <ele>497</ele>
        <time>2019-12-22T14:13:26Z</time>
      </trkpt>
      <trkpt lat="45.39673" lon="4.32391">
        <ele>498</ele>
        <time>2019-12-22T14:13:35Z</time>
      </trkpt>
      <trkpt lat="45.3972" lon="4.32372">
        <ele>496</ele>
        <time>2019-12-22T14:13:44Z</time>
      </trkpt>
      <trkpt lat="45.39688" lon="4.32261">
        <ele>494</ele>
        <time>2019-12-22T14:13:59Z</time>
      </trkpt>
      <trkpt lat="45.39685" lon="4.32237">
        <ele>494</ele>
        <time>2019-12-22T14:14:02Z</time>
      </trkpt>
      <trkpt lat="45.39667" lon="4.32183">
        <ele>494</ele>
        <time>2019-12-22T14:14:10Z</time>
      </trkpt>
      <trkpt lat="45.39776" lon="4.32131">
        <ele>493</ele>
        <time>2019-12-22T14:14:30Z</time>
      </trkpt>
      <trkpt lat="45.39802" lon="4.32118">
        <ele>495</ele>
        <time>2019-12-22T14:14:35Z</time>
      </trkpt>
      <trkpt lat="45.39814" lon="4.32116">
        <ele>496</ele>
        <time>2019-12-22T14:14:37Z</time>
      </trkpt>
      <trkpt lat="45.39848" lon="4.32104">
        <ele>498</ele>
        <time>2019-12-22T14:14:43Z</time>
      </trkpt>
      <trkpt lat="45.39864" lon="4.32107">
        <ele>500</ele>
        <time>2019-12-22T14:14:46Z</time>
      </trkpt>
      <trkpt lat="45.39945" lon="4.32139">
        <ele>506</ele>
        <time>2019-12-22T14:15:01Z</time>
      </trkpt>
      <trkpt lat="45.40022" lon="4.32165">
        <ele>511</ele>
        <time>2019-12-22T14:15:15Z</time>
      </trkpt>
      <trkpt lat="45.40057" lon="4.32171">
        <ele>515</ele>
        <time>2019-12-22T14:15:21Z</time>
      </trkpt>
      <trkpt lat="45.40078" lon="4.3218">
        <ele>517</ele>
        <time>2019-12-22T14:15:25Z</time>
      </trkpt>
      <trkpt lat="45.40103" lon="4.32207">
        <ele>520</ele>
        <time>2019-12-22T14:15:31Z</time>
      </trkpt>
      <trkpt lat="45.40163" lon="4.32262">
        <ele>526</ele>
        <time>2019-12-22T14:15:44Z</time>
      </trkpt>
      <trkpt lat="45.4022" lon="4.32265">
        <ele>536</ele>
        <time>2019-12-22T14:15:54Z</time>
      </trkpt>
      <trkpt lat="45.40277" lon="4.32258">
        <ele>547</ele>
        <time>2019-12-22T14:16:04Z</time>
      </trkpt>
      <trkpt lat="45.40296" lon="4.3228">
        <ele>550</ele>
        <time>2019-12-22T14:16:08Z</time>
      </trkpt>
      <trkpt lat="45.40328" lon="4.32341">
        <ele>556</ele>
        <time>2019-12-22T14:16:18Z</time>
      </trkpt>
      <trkpt lat="45.40342" lon="4.32354">
        <ele>558</ele>
        <time>2019-12-22T14:16:21Z</time>
      </trkpt>
      <trkpt lat="45.40406" lon="4.32328">
        <ele>569</ele>
        <time>2019-12-22T14:16:33Z</time>
      </trkpt>
      <trkpt lat="45.40467" lon="4.32346">
        <ele>577</ele>
        <time>2019-12-22T14:16:44Z</time>
      </trkpt>
      <trkpt lat="45.40563" lon="4.32406">
        <ele>586</ele>
        <time>2019-12-22T14:17:02Z</time>
      </trkpt>
      <trkpt lat="45.40603" lon="4.32439">
        <ele>590</ele>
        <time>2019-12-22T14:17:11Z</time>
      </trkpt>
      <trkpt lat="45.40671" lon="4.32483">
        <ele>597</ele>
        <time>2019-12-22T14:17:24Z</time>
      </trkpt>
      <trkpt lat="45.40708" lon="4.32489">
        <ele>596</ele>
        <time>2019-12-22T14:17:31Z</time>
      </trkpt>
      <trkpt lat="45.40716" lon="4.32518">
        <ele>596</ele>
        <time>2019-12-22T14:17:34Z</time>
      </trkpt>
      <trkpt lat="45.40734" lon="4.32508">
        <ele>596</ele>
        <time>2019-12-22T14:17:38Z</time>
      </trkpt>
      <trkpt lat="45.40756" lon="4.32515">
        <ele>597</ele>
        <time>2019-12-22T14:17:42Z</time>
      </trkpt>
      <trkpt lat="45.4079" lon="4.32546">
        <ele>598</ele>
        <time>2019-12-22T14:17:49Z</time>
      </trkpt>
      <trkpt lat="45.40956" lon="4.32729">
        <ele>599</ele>
        <time>2019-12-22T14:18:26Z</time>
      </trkpt>
      <trkpt lat="45.41032" lon="4.32841">
        <ele>600</ele>
        <time>2019-12-22T14:18:46Z</time>
      </trkpt>
      <trkpt lat="45.41037" lon="4.32869">
        <ele>600</ele>
        <time>2019-12-22T14:18:49Z</time>
      </trkpt>
      <trkpt lat="45.41035" lon="4.32899">
        <ele>602</ele>
        <time>2019-12-22T14:18:53Z</time>
      </trkpt>
      <trkpt lat="45.41043" lon="4.32929">
        <ele>602</ele>
        <time>2019-12-22T14:18:57Z</time>
      </trkpt>
      <trkpt lat="45.41052" lon="4.32947">
        <ele>602</ele>
        <time>2019-12-22T14:19:00Z</time>
      </trkpt>
      <trkpt lat="45.4111" lon="4.32992">
        <ele>599</ele>
        <time>2019-12-22T14:19:12Z</time>
      </trkpt>
      <trkpt lat="45.4112" lon="4.33012">
        <ele>599</ele>
        <time>2019-12-22T14:19:15Z</time>
      </trkpt>
      <trkpt lat="45.41122" lon="4.33035">
        <ele>599</ele>
        <time>2019-12-22T14:19:18Z</time>
      </trkpt>
      <trkpt lat="45.41106" lon="4.331">
        <ele>600</ele>
        <time>2019-12-22T14:19:26Z</time>
      </trkpt>
      <trkpt lat="45.41112" lon="4.33123">
        <ele>599</ele>
        <time>2019-12-22T14:19:29Z</time>
      </trkpt>
      <trkpt lat="45.41128" lon="4.33134">
        <ele>598</ele>
        <time>2019-12-22T14:19:33Z</time>
      </trkpt>
      <trkpt lat="45.41192" lon="4.33147">
        <ele>597</ele>
        <time>2019-12-22T14:19:44Z</time>
      </trkpt>
      <trkpt lat="45.41253" lon="4.3319">
        <ele>604</ele>
        <time>2019-12-22T14:19:56Z</time>
      </trkpt>
      <trkpt lat="45.41269" lon="4.33194">
        <ele>606</ele>
        <time>2019-12-22T14:19:59Z</time>
      </trkpt>
      <trkpt lat="45.41282" lon="4.33175">
        <ele>606</ele>
        <time>2019-12-22T14:20:02Z</time>
      </trkpt>
      <trkpt lat="45.41284" lon="4.3315">
        <ele>606</ele>
        <time>2019-12-22T14:20:05Z</time>
      </trkpt>
      <trkpt lat="45.41274" lon="4.33098">
        <ele>605</ele>
        <time>2019-12-22T14:20:12Z</time>
      </trkpt>
      <trkpt lat="45.41279" lon="4.33077">
        <ele>606</ele>
        <time>2019-12-22T14:20:15Z</time>
      </trkpt>
      <trkpt lat="45.41395" lon="4.32997">
        <ele>618</ele>
        <time>2019-12-22T14:20:38Z</time>
      </trkpt>
      <trkpt lat="45.4142" lon="4.32991">
        <ele>619</ele>
        <time>2019-12-22T14:20:42Z</time>
      </trkpt>
      <trkpt lat="45.41476" lon="4.32994">
        <ele>624</ele>
        <time>2019-12-22T14:20:52Z</time>
      </trkpt>
      <trkpt lat="45.41491" lon="4.32988">
        <ele>625</ele>
        <time>2019-12-22T14:20:55Z</time>
      </trkpt>
      <trkpt lat="45.4151" lon="4.32963">
        <ele>626</ele>
        <time>2019-12-22T14:21:00Z</time>
      </trkpt>
      <trkpt lat="45.41522" lon="4.32926">
        <ele>626</ele>
        <time>2019-12-22T14:21:05Z</time>
      </trkpt>
      <trkpt lat="45.41517" lon="4.32886">
        <ele>627</ele>
        <time>2019-12-22T14:21:10Z</time>
      </trkpt>
      <trkpt lat="45.41506" lon="4.32827">
        <ele>627</ele>
        <time>2019-12-22T14:21:18Z</time>
      </trkpt>
      <trkpt lat="45.41507" lon="4.32779">
        <ele>627</ele>
        <time>2019-12-22T14:21:24Z</time>
      </trkpt>
      <trkpt lat="45.41518" lon="4.32742">
        <ele>628</ele>
        <time>2019-12-22T14:21:29Z</time>
      </trkpt>
      <trkpt lat="45.41542" lon="4.32715">
        <ele>629</ele>
        <time>2019-12-22T14:21:34Z</time>
      </trkpt>
      <trkpt lat="45.41571" lon="4.32687">
        <ele>630</ele>
        <time>2019-12-22T14:21:40Z</time>
      </trkpt>
      <trkpt lat="45.41593" lon="4.32678">
        <ele>631</ele>
        <time>2019-12-22T14:21:44Z</time>
      </trkpt>
      <trkpt lat="45.41673" lon="4.32691">
        <ele>629</ele>
        <time>2019-12-22T14:21:59Z</time>
      </trkpt>
      <trkpt lat="45.41719" lon="4.32679">
        <ele>630</ele>
        <time>2019-12-22T14:22:07Z</time>
      </trkpt>
      <trkpt lat="45.41774" lon="4.32639">
        <ele>629</ele>
        <time>2019-12-22T14:22:18Z</time>
      </trkpt>
      <trkpt lat="45.41821" lon="4.32593">
        <ele>625</ele>
        <time>2019-12-22T14:22:28Z</time>
      </trkpt>
      <trkpt lat="45.41844" lon="4.32578">
        <ele>623</ele>
        <time>2019-12-22T14:22:33Z</time>
      </trkpt>
      <trkpt lat="45.41861" lon="4.32577">
        <ele>623</ele>
        <time>2019-12-22T14:22:36Z</time>
      </trkpt>
      <trkpt lat="45.41902" lon="4.32591">
        <ele>623</ele>
        <time>2019-12-22T14:22:43Z</time>
      </trkpt>
      <trkpt lat="45.41917" lon="4.32587">
        <ele>622</ele>
        <time>2019-12-22T14:22:46Z</time>
      </trkpt>
      <trkpt lat="45.41932" lon="4.32572">
        <ele>620</ele>
        <time>2019-12-22T14:22:49Z</time>
      </trkpt>
      <trkpt lat="45.4194" lon="4.32551">
        <ele>619</ele>
        <time>2019-12-22T14:22:52Z</time>
      </trkpt>
      <trkpt lat="45.41956" lon="4.32425">
        <ele>612</ele>
        <time>2019-12-22T14:23:08Z</time>
      </trkpt>
      <trkpt lat="45.41961" lon="4.3237">
        <ele>610</ele>
        <time>2019-12-22T14:23:15Z</time>
      </trkpt>
      <trkpt lat="45.41958" lon="4.3234">
        <ele>609</ele>
        <time>2019-12-22T14:23:19Z</time>
      </trkpt>
      <trkpt lat="45.41946" lon="4.32309">
        <ele>608</ele>
        <time>2019-12-22T14:23:23Z</time>
      </trkpt>
      <trkpt lat="45.41905" lon="4.32274">
        <ele>606</ele>
        <time>2019-12-22T14:23:32Z</time>
      </trkpt>
      <trkpt lat="45.41883" lon="4.32247">
        <ele>602</ele>
        <time>2019-12-22T14:23:37Z</time>
      </trkpt>
      <trkpt lat="45.41872" lon="4.32209">
        <ele>599</ele>
        <time>2019-12-22T14:23:42Z</time>
      </trkpt>
      <trkpt lat="45.41874" lon="4.32162">
        <ele>597</ele>
        <time>2019-12-22T14:23:48Z</time>
      </trkpt>
      <trkpt lat="45.41885" lon="4.32134">
        <ele>595</ele>
        <time>2019-12-22T14:23:52Z</time>
      </trkpt>
      <trkpt lat="45.41907" lon="4.32127">
        <ele>594</ele>
        <time>2019-12-22T14:23:56Z</time>
      </trkpt>
      <trkpt lat="45.41924" lon="4.32134">
        <ele>594</ele>
        <time>2019-12-22T14:23:59Z</time>
      </trkpt>
      <trkpt lat="45.41953" lon="4.32172">
        <ele>594</ele>
        <time>2019-12-22T14:24:06Z</time>
      </trkpt>
      <trkpt lat="45.41988" lon="4.32209">
        <ele>596</ele>
        <time>2019-12-22T14:24:14Z</time>
      </trkpt>
      <trkpt lat="45.42058" lon="4.32261">
        <ele>592</ele>
        <time>2019-12-22T14:24:28Z</time>
      </trkpt>
      <trkpt lat="45.42071" lon="4.32277">
        <ele>591</ele>
        <time>2019-12-22T14:24:31Z</time>
      </trkpt>
      <trkpt lat="45.42098" lon="4.32342">
        <ele>592</ele>
        <time>2019-12-22T14:24:40Z</time>
      </trkpt>
      <trkpt lat="45.42116" lon="4.3236">
        <ele>593</ele>
        <time>2019-12-22T14:24:44Z</time>
      </trkpt>
      <trkpt lat="45.42136" lon="4.32362">
        <ele>592</ele>
        <time>2019-12-22T14:24:48Z</time>
      </trkpt>
      <trkpt lat="45.42149" lon="4.32353">
        <ele>591</ele>
        <time>2019-12-22T14:24:50Z</time>
      </trkpt>
      <trkpt lat="45.42159" lon="4.32338">
        <ele>590</ele>
        <time>2019-12-22T14:24:53Z</time>
      </trkpt>
      <trkpt lat="45.42171" lon="4.32271">
        <ele>587</ele>
        <time>2019-12-22T14:25:02Z</time>
      </trkpt>
      <trkpt lat="45.42187" lon="4.32248">
        <ele>586</ele>
        <time>2019-12-22T14:25:06Z</time>
      </trkpt>
      <trkpt lat="45.42202" lon="4.32236">
        <ele>586</ele>
        <time>2019-12-22T14:25:09Z</time>
      </trkpt>
      <trkpt lat="45.42427" lon="4.32174">
        <ele>583</ele>
        <time>2019-12-22T14:25:50Z</time>
      </trkpt>
      <trkpt lat="45.42453" lon="4.32173">
        <ele>582</ele>
        <time>2019-12-22T14:25:54Z</time>
      </trkpt>
      <trkpt lat="45.42619" lon="4.32208">
        <ele>579</ele>
        <time>2019-12-22T14:26:24Z</time>
      </trkpt>
      <trkpt lat="45.42674" lon="4.32211">
        <ele>576</ele>
        <time>2019-12-22T14:26:34Z</time>
      </trkpt>
      <trkpt lat="45.42746" lon="4.32202">
        <ele>568</ele>
        <time>2019-12-22T14:26:47Z</time>
      </trkpt>
      <trkpt lat="45.42808" lon="4.32187">
        <ele>564</ele>
        <time>2019-12-22T14:26:58Z</time>
      </trkpt>
      <trkpt lat="45.42913" lon="4.32144">
        <ele>560</ele>
        <time>2019-12-22T14:27:17Z</time>
      </trkpt>
      <trkpt lat="45.42935" lon="4.32139">
        <ele>559</ele>
        <time>2019-12-22T14:27:21Z</time>
      </trkpt>
      <trkpt lat="45.42953" lon="4.32142">
        <ele>559</ele>
        <time>2019-12-22T14:27:24Z</time>
      </trkpt>
      <trkpt lat="45.43054" lon="4.32171">
        <ele>557</ele>
        <time>2019-12-22T14:27:43Z</time>
      </trkpt>
      <trkpt lat="45.43119" lon="4.32154">
        <ele>552</ele>
        <time>2019-12-22T14:27:55Z</time>
      </trkpt>
      <trkpt lat="45.43137" lon="4.32153">
        <ele>551</ele>
        <time>2019-12-22T14:27:58Z</time>
      </trkpt>
      <trkpt lat="45.43157" lon="4.32158">
        <ele>550</ele>
        <time>2019-12-22T14:28:01Z</time>
      </trkpt>
      <trkpt lat="45.43216" lon="4.32203">
        <ele>547</ele>
        <time>2019-12-22T14:28:13Z</time>
      </trkpt>
      <trkpt lat="45.43233" lon="4.32237">
        <ele>547</ele>
        <time>2019-12-22T14:28:19Z</time>
      </trkpt>
      <trkpt lat="45.43236" lon="4.32238">
        <ele>547</ele>
        <time>2019-12-22T14:28:19Z</time>
      </trkpt>
      <trkpt lat="45.4324" lon="4.32236">
        <ele>546</ele>
        <time>2019-12-22T14:28:20Z</time>
      </trkpt>
      <trkpt lat="45.43242" lon="4.32227">
        <ele>546</ele>
        <time>2019-12-22T14:28:21Z</time>
      </trkpt>
      <trkpt lat="45.43245" lon="4.32226">
        <ele>546</ele>
        <time>2019-12-22T14:28:22Z</time>
      </trkpt>
      <trkpt lat="45.43257" lon="4.32229">
        <ele>545</ele>
        <time>2019-12-22T14:28:24Z</time>
      </trkpt>
      <trkpt lat="45.43327" lon="4.32251">
        <ele>546</ele>
        <time>2019-12-22T14:28:36Z</time>
      </trkpt>
      <trkpt lat="45.43432" lon="4.32239">
        <ele>547</ele>
        <time>2019-12-22T14:28:55Z</time>
      </trkpt>
      <trkpt lat="45.43507" lon="4.32278">
        <ele>544</ele>
        <time>2019-12-22T14:29:09Z</time>
      </trkpt>
      <trkpt lat="45.43537" lon="4.3227">
        <ele>544</ele>
        <time>2019-12-22T14:29:15Z</time>
      </trkpt>
      <trkpt lat="45.43556" lon="4.32258">
        <ele>544</ele>
        <time>2019-12-22T14:29:19Z</time>
      </trkpt>
      <trkpt lat="45.43578" lon="4.32234">
        <ele>544</ele>
        <time>2019-12-22T14:29:23Z</time>
      </trkpt>
      <trkpt lat="45.43597" lon="4.32201">
        <ele>545</ele>
        <time>2019-12-22T14:29:29Z</time>
      </trkpt>
      <trkpt lat="45.43621" lon="4.32147">
        <ele>544</ele>
        <time>2019-12-22T14:29:37Z</time>
      </trkpt>
      <trkpt lat="45.43674" lon="4.32122">
        <ele>542</ele>
        <time>2019-12-22T14:29:47Z</time>
      </trkpt>
      <trkpt lat="45.43688" lon="4.32111">
        <ele>541</ele>
        <time>2019-12-22T14:29:50Z</time>
      </trkpt>
      <trkpt lat="45.43703" lon="4.32097">
        <ele>541</ele>
        <time>2019-12-22T14:29:53Z</time>
      </trkpt>
      <trkpt lat="45.43738" lon="4.32047">
        <ele>537</ele>
        <time>2019-12-22T14:30:02Z</time>
      </trkpt>
      <trkpt lat="45.43758" lon="4.32028">
        <ele>536</ele>
        <time>2019-12-22T14:30:06Z</time>
      </trkpt>
      <trkpt lat="45.43772" lon="4.3202">
        <ele>536</ele>
        <time>2019-12-22T14:30:09Z</time>
      </trkpt>
      <trkpt lat="45.4379" lon="4.32014">
        <ele>536</ele>
        <time>2019-12-22T14:30:12Z</time>
      </trkpt>
      <trkpt lat="45.43819" lon="4.32013">
        <ele>535</ele>
        <time>2019-12-22T14:30:17Z</time>
      </trkpt>
      <trkpt lat="45.43849" lon="4.32017">
        <ele>534</ele>
        <time>2019-12-22T14:30:22Z</time>
      </trkpt>
      <trkpt lat="45.43882" lon="4.32026">
        <ele>532</ele>
        <time>2019-12-22T14:30:28Z</time>
      </trkpt>
      <trkpt lat="45.43927" lon="4.3203">
        <ele>529</ele>
        <time>2019-12-22T14:30:36Z</time>
      </trkpt>
      <trkpt lat="45.43942" lon="4.32018">
        <ele>529</ele>
        <time>2019-12-22T14:30:39Z</time>
      </trkpt>
      <trkpt lat="45.43978" lon="4.32008">
        <ele>527</ele>
        <time>2019-12-22T14:30:46Z</time>
      </trkpt>
      <trkpt lat="45.44009" lon="4.32004">
        <ele>526</ele>
        <time>2019-12-22T14:30:51Z</time>
      </trkpt>
      <trkpt lat="45.44046" lon="4.32009">
        <ele>525</ele>
        <time>2019-12-22T14:30:58Z</time>
      </trkpt>
      <trkpt lat="45.4412" lon="4.32025">
        <ele>523</ele>
        <time>2019-12-22T14:31:11Z</time>
      </trkpt>
      <trkpt lat="45.44173" lon="4.32027">
        <ele>521</ele>
        <time>2019-12-22T14:31:21Z</time>
      </trkpt>
      <trkpt lat="45.44198" lon="4.32022">
        <ele>521</ele>
        <time>2019-12-22T14:31:25Z</time>
      </trkpt>
      <trkpt lat="45.44253" lon="4.32004">
        <ele>519</ele>
        <time>2019-12-22T14:31:35Z</time>
      </trkpt>
      <trkpt lat="45.44278" lon="4.32003">
        <ele>518</ele>
        <time>2019-12-22T14:31:40Z</time>
      </trkpt>
      <trkpt lat="45.44315" lon="4.32011">
        <ele>516</ele>
        <time>2019-12-22T14:31:46Z</time>
      </trkpt>
      <trkpt lat="45.44336" lon="4.32011">
        <ele>515</ele>
        <time>2019-12-22T14:31:50Z</time>
      </trkpt>
      <trkpt lat="45.44353" lon="4.3201">
        <ele>514</ele>
        <time>2019-12-22T14:31:53Z</time>
      </trkpt>
      <trkpt lat="45.44369" lon="4.31997">
        <ele>514</ele>
        <time>2019-12-22T14:31:57Z</time>
      </trkpt>
      <trkpt lat="45.44393" lon="4.31984">
        <ele>513</ele>
        <time>2019-12-22T14:32:01Z</time>
      </trkpt>
      <trkpt lat="45.44452" lon="4.31968">
        <ele>508</ele>
        <time>2019-12-22T14:32:12Z</time>
      </trkpt>
      <trkpt lat="45.4455" lon="4.31948">
        <ele>500</ele>
        <time>2019-12-22T14:32:29Z</time>
      </trkpt>
      <trkpt lat="45.44581" lon="4.31943">
        <ele>498</ele>
        <time>2019-12-22T14:32:35Z</time>
      </trkpt>
      <trkpt lat="45.44609" lon="4.31932">
        <ele>499</ele>
        <time>2019-12-22T14:32:40Z</time>
      </trkpt>
      <trkpt lat="45.44651" lon="4.31903">
        <ele>500</ele>
        <time>2019-12-22T14:32:48Z</time>
      </trkpt>
      <trkpt lat="45.44663" lon="4.3189">
        <ele>501</ele>
        <time>2019-12-22T14:32:51Z</time>
      </trkpt>
      <trkpt lat="45.44704" lon="4.31831">
        <ele>505</ele>
        <time>2019-12-22T14:33:01Z</time>
      </trkpt>
      <trkpt lat="45.44725" lon="4.31811">
        <ele>506</ele>
        <time>2019-12-22T14:33:06Z</time>
      </trkpt>
      <trkpt lat="45.44779" lon="4.31768">
        <ele>507</ele>
        <time>2019-12-22T14:33:17Z</time>
      </trkpt>
      <trkpt lat="45.44814" lon="4.31729">
        <ele>508</ele>
        <time>2019-12-22T14:33:25Z</time>
      </trkpt>
      <trkpt lat="45.44827" lon="4.31716">
        <ele>508</ele>
        <time>2019-12-22T14:33:28Z</time>
      </trkpt>
      <trkpt lat="45.44863" lon="4.31695">
        <ele>510</ele>
        <time>2019-12-22T14:33:35Z</time>
      </trkpt>
      <trkpt lat="45.4488" lon="4.31681">
        <ele>511</ele>
        <time>2019-12-22T14:33:38Z</time>
      </trkpt>
      <trkpt lat="45.4489" lon="4.31661">
        <ele>511</ele>
        <time>2019-12-22T14:33:41Z</time>
      </trkpt>
      <trkpt lat="45.44896" lon="4.31629">
        <ele>511</ele>
        <time>2019-12-22T14:33:45Z</time>
      </trkpt>
      <trkpt lat="45.44913" lon="4.31579">
        <ele>512</ele>
        <time>2019-12-22T14:33:52Z</time>
      </trkpt>
      <trkpt lat="45.44949" lon="4.31479">
        <ele>516</ele>
        <time>2019-12-22T14:34:06Z</time>
      </trkpt>
      <trkpt lat="45.44966" lon="4.31437">
        <ele>518</ele>
        <time>2019-12-22T14:34:12Z</time>
      </trkpt>
      <trkpt lat="45.44981" lon="4.31402">
        <ele>519</ele>
        <time>2019-12-22T14:34:17Z</time>
      </trkpt>
      <trkpt lat="45.44998" lon="4.31371">
        <ele>519</ele>
        <time>2019-12-22T14:34:22Z</time>
      </trkpt>
      <trkpt lat="45.45014" lon="4.31355">
        <ele>518</ele>
        <time>2019-12-22T14:34:26Z</time>
      </trkpt>
      <trkpt lat="45.45037" lon="4.31346">
        <ele>518</ele>
        <time>2019-12-22T14:34:30Z</time>
      </trkpt>
      <trkpt lat="45.45062" lon="4.31347">
        <ele>519</ele>
        <time>2019-12-22T14:34:35Z</time>
      </trkpt>
      <trkpt lat="45.45087" lon="4.31356">
        <ele>522</ele>
        <time>2019-12-22T14:34:39Z</time>
      </trkpt>
      <trkpt lat="45.45112" lon="4.31372">
        <ele>527</ele>
        <time>2019-12-22T14:34:44Z</time>
      </trkpt>
      <trkpt lat="45.45132" lon="4.31377">
        <ele>529</ele>
        <time>2019-12-22T14:34:48Z</time>
      </trkpt>
      <trkpt lat="45.45153" lon="4.31379">
        <ele>531</ele>
        <time>2019-12-22T14:34:51Z</time>
      </trkpt>
      <trkpt lat="45.45201" lon="4.31393">
        <ele>536</ele>
        <time>2019-12-22T14:35:00Z</time>
      </trkpt>
      <trkpt lat="45.45218" lon="4.31389">
        <ele>537</ele>
        <time>2019-12-22T14:35:03Z</time>
      </trkpt>
      <trkpt lat="45.45235" lon="4.31378">
        <ele>538</ele>
        <time>2019-12-22T14:35:06Z</time>
      </trkpt>
      <trkpt lat="45.4525" lon="4.31365">
        <ele>539</ele>
        <time>2019-12-22T14:35:10Z</time>
      </trkpt>
      <trkpt lat="45.45278" lon="4.31358">
        <ele>541</ele>
        <time>2019-12-22T14:35:15Z</time>
      </trkpt>
      <trkpt lat="45.45303" lon="4.31347">
        <ele>543</ele>
        <time>2019-12-22T14:35:19Z</time>
      </trkpt>
      <trkpt lat="45.45316" lon="4.31335">
        <ele>543</ele>
        <time>2019-12-22T14:35:22Z</time>
      </trkpt>
      <trkpt lat="45.45319" lon="4.31322">
        <ele>546</ele>
        <time>2019-12-22T14:35:24Z</time>
      </trkpt>
      <trkpt lat="45.45311" lon="4.313">
        <ele>549</ele>
        <time>2019-12-22T14:35:27Z</time>
      </trkpt>
      <trkpt lat="45.453" lon="4.31284">
        <ele>551</ele>
        <time>2019-12-22T14:35:30Z</time>
      </trkpt>
      <trkpt lat="45.45256" lon="4.31258">
        <ele>550</ele>
        <time>2019-12-22T14:35:38Z</time>
      </trkpt>
      <trkpt lat="45.45208" lon="4.31212">
        <ele>550</ele>
        <time>2019-12-22T14:35:48Z</time>
      </trkpt>
      <trkpt lat="45.45193" lon="4.31185">
        <ele>552</ele>
        <time>2019-12-22T14:35:53Z</time>
      </trkpt>
      <trkpt lat="45.45186" lon="4.31165">
        <ele>554</ele>
        <time>2019-12-22T14:35:55Z</time>
      </trkpt>
      <trkpt lat="45.45176" lon="4.31103">
        <ele>561</ele>
        <time>2019-12-22T14:36:03Z</time>
      </trkpt>
      <trkpt lat="45.45162" lon="4.31077">
        <ele>562</ele>
        <time>2019-12-22T14:36:08Z</time>
      </trkpt>
      <trkpt lat="45.45151" lon="4.31059">
        <ele>562</ele>
        <time>2019-12-22T14:36:11Z</time>
      </trkpt>
      <trkpt lat="45.45118" lon="4.31044">
        <ele>556</ele>
        <time>2019-12-22T14:36:17Z</time>
      </trkpt>
      <trkpt lat="45.45106" lon="4.31025">
        <ele>555</ele>
        <time>2019-12-22T14:36:20Z</time>
      </trkpt>
      <trkpt lat="45.45099" lon="4.30996">
        <ele>557</ele>
        <time>2019-12-22T14:36:24Z</time>
      </trkpt>
      <trkpt lat="45.45098" lon="4.30963">
        <ele>558</ele>
        <time>2019-12-22T14:36:28Z</time>
      </trkpt>
      <trkpt lat="45.4511" lon="4.30909">
        <ele>564</ele>
        <time>2019-12-22T14:36:35Z</time>
      </trkpt>
      <trkpt lat="45.45091" lon="4.30843">
        <ele>563</ele>
        <time>2019-12-22T14:36:44Z</time>
      </trkpt>
      <trkpt lat="45.4509" lon="4.30813">
        <ele>566</ele>
        <time>2019-12-22T14:36:48Z</time>
      </trkpt>
      <trkpt lat="45.45086" lon="4.30793">
        <ele>567</ele>
        <time>2019-12-22T14:36:50Z</time>
      </trkpt>
      <trkpt lat="45.45076" lon="4.30787">
        <ele>566</ele>
        <time>2019-12-22T14:36:52Z</time>
      </trkpt>
      <trkpt lat="45.44993" lon="4.30779">
        <ele>559</ele>
        <time>2019-12-22T14:37:07Z</time>
      </trkpt>
      <trkpt lat="45.4497" lon="4.30772">
        <ele>558</ele>
        <time>2019-12-22T14:37:11Z</time>
      </trkpt>
      <trkpt lat="45.44954" lon="4.30745">
        <ele>559</ele>
        <time>2019-12-22T14:37:15Z</time>
      </trkpt>
      <trkpt lat="45.44952" lon="4.30723">
        <ele>558</ele>
        <time>2019-12-22T14:37:18Z</time>
      </trkpt>
      <trkpt lat="45.4496" lon="4.30696">
        <ele>558</ele>
        <time>2019-12-22T14:37:22Z</time>
      </trkpt>
      <trkpt lat="45.44973" lon="4.30681">
        <ele>559</ele>
        <time>2019-12-22T14:37:25Z</time>
      </trkpt>
      <trkpt lat="45.44997" lon="4.30658">
        <ele>561</ele>
        <time>2019-12-22T14:37:30Z</time>
      </trkpt>
      <trkpt lat="45.45019" lon="4.3063">
        <ele>563</ele>
        <time>2019-12-22T14:37:35Z</time>
      </trkpt>
      <trkpt lat="45.45041" lon="4.30591">
        <ele>564</ele>
        <time>2019-12-22T14:37:41Z</time>
      </trkpt>
      <trkpt lat="45.4509" lon="4.30513">
        <ele>567</ele>
        <time>2019-12-22T14:37:55Z</time>
      </trkpt>
      <trkpt lat="45.45116" lon="4.30469">
        <ele>565</ele>
        <time>2019-12-22T14:38:02Z</time>
      </trkpt>
      <trkpt lat="45.45138" lon="4.30436">
        <ele>564</ele>
        <time>2019-12-22T14:38:07Z</time>
      </trkpt>
      <trkpt lat="45.45155" lon="4.30421">
        <ele>564</ele>
        <time>2019-12-22T14:38:11Z</time>
      </trkpt>
      <trkpt lat="45.45194" lon="4.30395">
        <ele>565</ele>
        <time>2019-12-22T14:38:19Z</time>
      </trkpt>
      <trkpt lat="45.45281" lon="4.30253">
        <ele>561</ele>
        <time>2019-12-22T14:38:42Z</time>
      </trkpt>
      <trkpt lat="45.45315" lon="4.30206">
        <ele>565</ele>
        <time>2019-12-22T14:38:51Z</time>
      </trkpt>
      <trkpt lat="45.45341" lon="4.30322">
        <ele>565</ele>
        <time>2019-12-22T14:39:06Z</time>
      </trkpt>
      <trkpt lat="45.45364" lon="4.30406">
        <ele>567</ele>
        <time>2019-12-22T14:39:17Z</time>
      </trkpt>
      <trkpt lat="45.4542" lon="4.30538">
        <ele>574</ele>
        <time>2019-12-22T14:39:36Z</time>
      </trkpt>
      <trkpt lat="45.45469" lon="4.30666">
        <ele>585</ele>
        <time>2019-12-22T14:39:55Z</time>
      </trkpt>
      <trkpt lat="45.45521" lon="4.30777">
        <ele>592</ele>
        <time>2019-12-22T14:40:11Z</time>
      </trkpt>
      <trkpt lat="45.45541" lon="4.30812">
        <ele>593</ele>
        <time>2019-12-22T14:40:17Z</time>
      </trkpt>
      <trkpt lat="45.45577" lon="4.30897">
        <ele>591</ele>
        <time>2019-12-22T14:40:29Z</time>
      </trkpt>
      <trkpt lat="45.45632" lon="4.31014">
        <ele>583</ele>
        <time>2019-12-22T14:40:47Z</time>
      </trkpt>
      <trkpt lat="45.45654" lon="4.31079">
        <ele>583</ele>
        <time>2019-12-22T14:40:56Z</time>
      </trkpt>
      <trkpt lat="45.45656" lon="4.31111">
        <ele>585</ele>
        <time>2019-12-22T14:41:00Z</time>
      </trkpt>
      <trkpt lat="45.45654" lon="4.31129">
        <ele>586</ele>
        <time>2019-12-22T14:41:02Z</time>
      </trkpt>
      <trkpt lat="45.45646" lon="4.31147">
        <ele>586</ele>
        <time>2019-12-22T14:41:05Z</time>
      </trkpt>
      <trkpt lat="45.45622" lon="4.31191">
        <ele>587</ele>
        <time>2019-12-22T14:41:12Z</time>
      </trkpt>
      <trkpt lat="45.45602" lon="4.31224">
        <ele>587</ele>
        <time>2019-12-22T14:41:17Z</time>
      </trkpt>
      <trkpt lat="45.45582" lon="4.31263">
        <ele>588</ele>
        <time>2019-12-22T14:41:23Z</time>
      </trkpt>
      <trkpt lat="45.45566" lon="4.31303">
        <ele>589</ele>
        <time>2019-12-22T14:41:29Z</time>
      </trkpt>
      <trkpt lat="45.45559" lon="4.31352">
        <ele>591</ele>
        <time>2019-12-22T14:41:35Z</time>
      </trkpt>
      <trkpt lat="45.45553" lon="4.3143">
        <ele>595</ele>
        <time>2019-12-22T14:41:45Z</time>
      </trkpt>
      <trkpt lat="45.45549" lon="4.31463">
        <ele>596</ele>
        <time>2019-12-22T14:41:49Z</time>
      </trkpt>
      <trkpt lat="45.45512" lon="4.31579">
        <ele>598</ele>
        <time>2019-12-22T14:42:05Z</time>
      </trkpt>
      <trkpt lat="45.45492" lon="4.31605">
        <ele>597</ele>
        <time>2019-12-22T14:42:10Z</time>
      </trkpt>
      <trkpt lat="45.45473" lon="4.31636">
        <ele>598</ele>
        <time>2019-12-22T14:42:15Z</time>
      </trkpt>
      <trkpt lat="45.45455" lon="4.31671">
        <ele>599</ele>
        <time>2019-12-22T14:42:20Z</time>
      </trkpt>
      <trkpt lat="45.4544" lon="4.31718">
        <ele>603</ele>
        <time>2019-12-22T14:42:27Z</time>
      </trkpt>
      <trkpt lat="45.4543" lon="4.3174">
        <ele>605</ele>
        <time>2019-12-22T14:42:30Z</time>
      </trkpt>
      <trkpt lat="45.4542" lon="4.31753">
        <ele>606</ele>
        <time>2019-12-22T14:42:33Z</time>
      </trkpt>
      <trkpt lat="45.45409" lon="4.31761">
        <ele>606</ele>
        <time>2019-12-22T14:42:35Z</time>
      </trkpt>
      <trkpt lat="45.45358" lon="4.31791">
        <ele>609</ele>
        <time>2019-12-22T14:42:45Z</time>
      </trkpt>
      <trkpt lat="45.45298" lon="4.31799">
        <ele>607</ele>
        <time>2019-12-22T14:42:55Z</time>
      </trkpt>
      <trkpt lat="45.45265" lon="4.31807">
        <ele>607</ele>
        <time>2019-12-22T14:43:01Z</time>
      </trkpt>
      <trkpt lat="45.45244" lon="4.31817">
        <ele>606</ele>
        <time>2019-12-22T14:43:05Z</time>
      </trkpt>
      <trkpt lat="45.45223" lon="4.31842">
        <ele>608</ele>
        <time>2019-12-22T14:43:10Z</time>
      </trkpt>
      <trkpt lat="45.45194" lon="4.31894">
        <ele>610</ele>
        <time>2019-12-22T14:43:18Z</time>
      </trkpt>
      <trkpt lat="45.45186" lon="4.31924">
        <ele>611</ele>
        <time>2019-12-22T14:43:22Z</time>
      </trkpt>
      <trkpt lat="45.45185" lon="4.31947">
        <ele>609</ele>
        <time>2019-12-22T14:43:25Z</time>
      </trkpt>
      <trkpt lat="45.45187" lon="4.3197">
        <ele>609</ele>
        <time>2019-12-22T14:43:28Z</time>
      </trkpt>
      <trkpt lat="45.45194" lon="4.31992">
        <ele>609</ele>
        <time>2019-12-22T14:43:31Z</time>
      </trkpt>
      <trkpt lat="45.45204" lon="4.32015">
        <ele>610</ele>
        <time>2019-12-22T14:43:34Z</time>
      </trkpt>
      <trkpt lat="45.45211" lon="4.32038">
        <ele>610</ele>
        <time>2019-12-22T14:43:38Z</time>
      </trkpt>
      <trkpt lat="45.45218" lon="4.32068">
        <ele>610</ele>
        <time>2019-12-22T14:43:42Z</time>
      </trkpt>
      <trkpt lat="45.45227" lon="4.3213">
        <ele>611</ele>
        <time>2019-12-22T14:43:49Z</time>
      </trkpt>
      <trkpt lat="45.45225" lon="4.32153">
        <ele>611</ele>
        <time>2019-12-22T14:43:52Z</time>
      </trkpt>
      <trkpt lat="45.45223" lon="4.32158">
        <ele>611</ele>
        <time>2019-12-22T14:43:53Z</time>
      </trkpt>
      <trkpt lat="45.4523" lon="4.32164">
        <ele>612</ele>
        <time>2019-12-22T14:43:55Z</time>
      </trkpt>
      <trkpt lat="45.45244" lon="4.32171">
        <ele>614</ele>
        <time>2019-12-22T14:43:57Z</time>
      </trkpt>
      <trkpt lat="45.45254" lon="4.32174">
        <ele>616</ele>
        <time>2019-12-22T14:43:59Z</time>
      </trkpt>
      <trkpt lat="45.4528" lon="4.32151">
        <ele>617</ele>
        <time>2019-12-22T14:44:04Z</time>
      </trkpt>
      <trkpt lat="45.45299" lon="4.32127">
        <ele>619</ele>
        <time>2019-12-22T14:44:09Z</time>
      </trkpt>
      <trkpt lat="45.45311" lon="4.32115">
        <ele>620</ele>
        <time>2019-12-22T14:44:12Z</time>
      </trkpt>
      <trkpt lat="45.45349" lon="4.32193">
        <ele>619</ele>
        <time>2019-12-22T14:44:23Z</time>
      </trkpt>
      <trkpt lat="45.45341" lon="4.32218">
        <ele>620</ele>
        <time>2019-12-22T14:44:27Z</time>
      </trkpt>
      <trkpt lat="45.45319" lon="4.32313">
        <ele>623</ele>
        <time>2019-12-22T14:44:39Z</time>
      </trkpt>
      <trkpt lat="45.45312" lon="4.32382">
        <ele>624</ele>
        <time>2019-12-22T14:44:48Z</time>
      </trkpt>
      <trkpt lat="45.45307" lon="4.3265">
        <ele>624</ele>
        <time>2019-12-22T14:45:21Z</time>
      </trkpt>
      <trkpt lat="45.45295" lon="4.32756">
        <ele>619</ele>
        <time>2019-12-22T14:45:35Z</time>
      </trkpt>
      <trkpt lat="45.45253" lon="4.3296">
        <ele>610</ele>
        <time>2019-12-22T14:46:01Z</time>
      </trkpt>
      <trkpt lat="45.45261" lon="4.32975">
        <ele>610</ele>
        <time>2019-12-22T14:46:04Z</time>
      </trkpt>
      <trkpt lat="45.45277" lon="4.33037">
        <ele>609</ele>
        <time>2019-12-22T14:46:12Z</time>
      </trkpt>
      <trkpt lat="45.45276" lon="4.33062">
        <ele>609</ele>
        <time>2019-12-22T14:46:15Z</time>
      </trkpt>
      <trkpt lat="45.45301" lon="4.3308">
        <ele>610</ele>
        <time>2019-12-22T14:46:20Z</time>
      </trkpt>
      <trkpt lat="45.45321" lon="4.33106">
        <ele>611</ele>
        <time>2019-12-22T14:46:25Z</time>
      </trkpt>
      <trkpt lat="45.45332" lon="4.33167">
        <ele>612</ele>
        <time>2019-12-22T14:46:33Z</time>
      </trkpt>
      <trkpt lat="45.45345" lon="4.33163">
        <ele>612</ele>
        <time>2019-12-22T14:46:35Z</time>
      </trkpt>
      <trkpt lat="45.4535" lon="4.33168">
        <ele>612</ele>
        <time>2019-12-22T14:46:36Z</time>
      </trkpt>
      <trkpt lat="45.45359" lon="4.33213">
        <ele>611</ele>
        <time>2019-12-22T14:46:42Z</time>
      </trkpt>
      <trkpt lat="45.45453" lon="4.33171">
        <ele>612</ele>
        <time>2019-12-22T14:47:00Z</time>
      </trkpt>
    </trkseg>
  </trk>
</gpx>